<?xml version='1.0' encoding='UTF-8'?><gpx version="1.1" creator="JPX - https://github.com/jenetics/jpx" xmlns="http://www.topografix.com/GPX/1/1"><trk><trkseg><trkpt lat="46.0797861" lon="11.2619742"><ele>669.0</ele><time>2026-05-03T13:04:08.062Z</time></trkpt><trkpt lat="46.0797226" lon="11.261944"><ele>669.0</ele><time>2026-05-03T13:04:11.061Z</time></trkpt><trkpt lat="46.0796805" lon="11.2618665"><ele>669.0</ele><time>2026-05-03T13:04:13.062Z</time></trkpt><trkpt lat="46.0796582" lon="11.2617512"><ele>669.0</ele><time>2026-05-03T13:04:15.062Z</time></trkpt><trkpt lat="46.0796573" lon="11.2615852"><ele>669.0</ele><time>2026-05-03T13:04:17.062Z</time></trkpt><trkpt lat="46.0796452" lon="11.2613936"><ele>669.0</ele><time>2026-05-03T13:04:19.061Z</time></trkpt><trkpt lat="46.0796365" lon="11.261296"><ele>669.0</ele><time>2026-05-03T13:04:20.062Z</time></trkpt><trkpt lat="46.079621" lon="11.2612039"><ele>669.0</ele><time>2026-05-03T13:04:21.061Z</time></trkpt><trkpt lat="46.0796051" lon="11.2611079"><ele>669.0</ele><time>2026-05-03T13:04:22.062Z</time></trkpt><trkpt lat="46.0795607" lon="11.2609355"><ele>669.0</ele><time>2026-05-03T13:04:24.062Z</time></trkpt><trkpt lat="46.0795279" lon="11.2608438"><ele>669.0</ele><time>2026-05-03T13:04:25.062Z</time></trkpt><trkpt lat="46.0795041" lon="11.2607451"><ele>669.0</ele><time>2026-05-03T13:04:26.062Z</time></trkpt><trkpt lat="46.079484" lon="11.2606572"><ele>669.0</ele><time>2026-05-03T13:04:27.061Z</time></trkpt><trkpt lat="46.0794585" lon="11.2605603"><ele>669.0</ele><time>2026-05-03T13:04:28.062Z</time></trkpt><trkpt lat="46.0794235" lon="11.2604713"><ele>669.0</ele><time>2026-05-03T13:04:29.062Z</time></trkpt><trkpt lat="46.0794015" lon="11.2603724"><ele>669.0</ele><time>2026-05-03T13:04:30.062Z</time></trkpt><trkpt lat="46.0793784" lon="11.2602754"><ele>669.0</ele><time>2026-05-03T13:04:31.062Z</time></trkpt><trkpt lat="46.0793573" lon="11.2601837"><ele>669.0</ele><time>2026-05-03T13:04:32.062Z</time></trkpt><trkpt lat="46.0793376" lon="11.260083"><ele>668.8333333333334</ele><time>2026-05-03T13:04:33.062Z</time></trkpt><trkpt lat="46.0793225" lon="11.2599678"><ele>668.6666666666666</ele><time>2026-05-03T13:04:34.061Z</time></trkpt><trkpt lat="46.0793204" lon="11.2598484"><ele>668.5</ele><time>2026-05-03T13:04:35.062Z</time></trkpt><trkpt lat="46.0793117" lon="11.2597356"><ele>668.3333333333333</ele><time>2026-05-03T13:04:36.061Z</time></trkpt><trkpt lat="46.0792945" lon="11.2596203"><ele>668.1666666666666</ele><time>2026-05-03T13:04:37.062Z</time></trkpt><trkpt lat="46.0792736" lon="11.2595078"><ele>668.0</ele><time>2026-05-03T13:04:38.062Z</time></trkpt><trkpt lat="46.0792554" lon="11.2593889"><ele>668.0</ele><time>2026-05-03T13:04:39.062Z</time></trkpt><trkpt lat="46.0792362" lon="11.2592723"><ele>668.0</ele><time>2026-05-03T13:04:40.062Z</time></trkpt><trkpt lat="46.0792147" lon="11.2591482"><ele>668.0</ele><time>2026-05-03T13:04:41.061Z</time></trkpt><trkpt lat="46.0791934" lon="11.2590167"><ele>668.0</ele><time>2026-05-03T13:04:42.061Z</time></trkpt><trkpt lat="46.0791715" lon="11.2588883"><ele>668.0</ele><time>2026-05-03T13:04:43.062Z</time></trkpt><trkpt lat="46.0791472" lon="11.2587519"><ele>668.2</ele><time>2026-05-03T13:04:44.061Z</time></trkpt><trkpt lat="46.079121" lon="11.2586179"><ele>668.4</ele><time>2026-05-03T13:04:45.062Z</time></trkpt><trkpt lat="46.0790946" lon="11.2584777"><ele>668.6</ele><time>2026-05-03T13:04:46.061Z</time></trkpt><trkpt lat="46.0790625" lon="11.2583334"><ele>668.8000000000001</ele><time>2026-05-03T13:04:47.062Z</time></trkpt><trkpt lat="46.0790337" lon="11.2581901"><ele>669.0</ele><time>2026-05-03T13:04:48.062Z</time></trkpt><trkpt lat="46.0790082" lon="11.2580362"><ele>665.75</ele><time>2026-05-03T13:04:49.061Z</time></trkpt><trkpt lat="46.0789797" lon="11.2578789"><ele>662.5</ele><time>2026-05-03T13:04:50.061Z</time></trkpt><trkpt lat="46.0789483" lon="11.2577196"><ele>659.25</ele><time>2026-05-03T13:04:51.062Z</time></trkpt><trkpt lat="46.0789166" lon="11.257564"><ele>656.0</ele><time>2026-05-03T13:04:52.062Z</time></trkpt><trkpt lat="46.0788839" lon="11.2574069"><ele>656.25</ele><time>2026-05-03T13:04:53.062Z</time></trkpt><trkpt lat="46.0788388" lon="11.2572529"><ele>656.5</ele><time>2026-05-03T13:04:54.062Z</time></trkpt><trkpt lat="46.0787833" lon="11.2571131"><ele>656.75</ele><time>2026-05-03T13:04:55.062Z</time></trkpt><trkpt lat="46.0787185" lon="11.2569845"><ele>657.0</ele><time>2026-05-03T13:04:56.061Z</time></trkpt><trkpt lat="46.078652" lon="11.2568552"><ele>657.0</ele><time>2026-05-03T13:04:57.062Z</time></trkpt><trkpt lat="46.0785876" lon="11.2567229"><ele>657.0</ele><time>2026-05-03T13:04:58.061Z</time></trkpt><trkpt lat="46.0785241" lon="11.2565927"><ele>657.0</ele><time>2026-05-03T13:04:59.061Z</time></trkpt><trkpt lat="46.078473" lon="11.2564543"><ele>657.0</ele><time>2026-05-03T13:05:00.062Z</time></trkpt><trkpt lat="46.0784295" lon="11.2563127"><ele>657.0</ele><time>2026-05-03T13:05:01.062Z</time></trkpt><trkpt lat="46.0783877" lon="11.2561627"><ele>657.5</ele><time>2026-05-03T13:05:02.062Z</time></trkpt><trkpt lat="46.0783489" lon="11.2560065"><ele>658.0</ele><time>2026-05-03T13:05:03.062Z</time></trkpt><trkpt lat="46.0783066" lon="11.255846"><ele>658.5</ele><time>2026-05-03T13:05:04.061Z</time></trkpt><trkpt lat="46.0782676" lon="11.2556897"><ele>659.0</ele><time>2026-05-03T13:05:05.062Z</time></trkpt><trkpt lat="46.078227" lon="11.2555277"><ele>660.25</ele><time>2026-05-03T13:05:06.061Z</time></trkpt><trkpt lat="46.0781878" lon="11.2553601"><ele>661.5</ele><time>2026-05-03T13:05:07.062Z</time></trkpt><trkpt lat="46.0781511" lon="11.2551949"><ele>662.75</ele><time>2026-05-03T13:05:08.062Z</time></trkpt><trkpt lat="46.0781147" lon="11.2550281"><ele>664.0</ele><time>2026-05-03T13:05:09.062Z</time></trkpt><trkpt lat="46.0780758" lon="11.254873"><ele>661.5</ele><time>2026-05-03T13:05:10.062Z</time></trkpt><trkpt lat="46.0780272" lon="11.2547173"><ele>659.0</ele><time>2026-05-03T13:05:11.062Z</time></trkpt><trkpt lat="46.0779811" lon="11.2545546"><ele>656.5</ele><time>2026-05-03T13:05:12.062Z</time></trkpt><trkpt lat="46.0779218" lon="11.254406"><ele>654.0</ele><time>2026-05-03T13:05:13.062Z</time></trkpt><trkpt lat="46.0778599" lon="11.2542512"><ele>654.0</ele><time>2026-05-03T13:05:14.062Z</time></trkpt><trkpt lat="46.0777939" lon="11.2540904"><ele>654.0</ele><time>2026-05-03T13:05:15.062Z</time></trkpt><trkpt lat="46.077732" lon="11.2539364"><ele>654.0</ele><time>2026-05-03T13:05:16.061Z</time></trkpt><trkpt lat="46.0776684" lon="11.2537807"><ele>654.0</ele><time>2026-05-03T13:05:17.062Z</time></trkpt><trkpt lat="46.0776065" lon="11.2536246"><ele>651.0</ele><time>2026-05-03T13:05:18.062Z</time></trkpt><trkpt lat="46.0775451" lon="11.2534699"><ele>648.0</ele><time>2026-05-03T13:05:19.062Z</time></trkpt><trkpt lat="46.0774774" lon="11.2533119"><ele>645.0</ele><time>2026-05-03T13:05:20.062Z</time></trkpt><trkpt lat="46.0774112" lon="11.2531541"><ele>642.0</ele><time>2026-05-03T13:05:21.062Z</time></trkpt><trkpt lat="46.0773435" lon="11.2529963"><ele>634.5</ele><time>2026-05-03T13:05:22.061Z</time></trkpt><trkpt lat="46.0772756" lon="11.252839"><ele>627.0</ele><time>2026-05-03T13:05:23.061Z</time></trkpt><trkpt lat="46.077202" lon="11.2526758"><ele>619.5</ele><time>2026-05-03T13:05:24.061Z</time></trkpt><trkpt lat="46.0771346" lon="11.2525178"><ele>612.0</ele><time>2026-05-03T13:05:25.062Z</time></trkpt><trkpt lat="46.0770659" lon="11.2523525"><ele>613.25</ele><time>2026-05-03T13:05:26.062Z</time></trkpt><trkpt lat="46.0769978" lon="11.2521904"><ele>614.5</ele><time>2026-05-03T13:05:27.061Z</time></trkpt><trkpt lat="46.07693" lon="11.2520285"><ele>615.75</ele><time>2026-05-03T13:05:28.062Z</time></trkpt><trkpt lat="46.0768636" lon="11.251866"><ele>617.0</ele><time>2026-05-03T13:05:29.062Z</time></trkpt><trkpt lat="46.0767999" lon="11.2517013"><ele>617.0</ele><time>2026-05-03T13:05:30.061Z</time></trkpt><trkpt lat="46.0767408" lon="11.2515331"><ele>617.0</ele><time>2026-05-03T13:05:31.062Z</time></trkpt><trkpt lat="46.0767045" lon="11.2513629"><ele>617.0</ele><time>2026-05-03T13:05:32.062Z</time></trkpt><trkpt lat="46.0766767" lon="11.2511857"><ele>617.0</ele><time>2026-05-03T13:05:33.062Z</time></trkpt><trkpt lat="46.0766553" lon="11.2509989"><ele>617.5</ele><time>2026-05-03T13:05:34.062Z</time></trkpt><trkpt lat="46.0766357" lon="11.2508265"><ele>618.0</ele><time>2026-05-03T13:05:35.062Z</time></trkpt><trkpt lat="46.076614" lon="11.2506525"><ele>618.5</ele><time>2026-05-03T13:05:36.062Z</time></trkpt><trkpt lat="46.0765891" lon="11.2504704"><ele>619.0</ele><time>2026-05-03T13:05:37.062Z</time></trkpt><trkpt lat="46.0765623" lon="11.2502944"><ele>610.0</ele><time>2026-05-03T13:05:38.061Z</time></trkpt><trkpt lat="46.076528" lon="11.2501222"><ele>601.0</ele><time>2026-05-03T13:05:39.062Z</time></trkpt><trkpt lat="46.0764971" lon="11.2499505"><ele>592.0</ele><time>2026-05-03T13:05:40.062Z</time></trkpt><trkpt lat="46.0764689" lon="11.2497812"><ele>583.0</ele><time>2026-05-03T13:05:41.062Z</time></trkpt><trkpt lat="46.0764336" lon="11.2496174"><ele>583.0</ele><time>2026-05-03T13:05:42.061Z</time></trkpt><trkpt lat="46.0763944" lon="11.2494502"><ele>583.0</ele><time>2026-05-03T13:05:43.062Z</time></trkpt><trkpt lat="46.07636" lon="11.2492906"><ele>583.0</ele><time>2026-05-03T13:05:44.062Z</time></trkpt><trkpt lat="46.0763367" lon="11.2491358"><ele>583.0</ele><time>2026-05-03T13:05:45.062Z</time></trkpt><trkpt lat="46.0763267" lon="11.2489869"><ele>583.1666666666667</ele><time>2026-05-03T13:05:46.061Z</time></trkpt><trkpt lat="46.0763245" lon="11.2488544"><ele>583.3333333333334</ele><time>2026-05-03T13:05:47.062Z</time></trkpt><trkpt lat="46.0763123" lon="11.2487383"><ele>583.5</ele><time>2026-05-03T13:05:48.062Z</time></trkpt><trkpt lat="46.0762799" lon="11.2486524"><ele>583.6666666666666</ele><time>2026-05-03T13:05:49.062Z</time></trkpt><trkpt lat="46.0761914" lon="11.2485975"><ele>583.8333333333333</ele><time>2026-05-03T13:05:51.062Z</time></trkpt><trkpt lat="46.0761185" lon="11.2487044"><ele>584.0</ele><time>2026-05-03T13:05:53.062Z</time></trkpt><trkpt lat="46.0761217" lon="11.2488864"><ele>583.8333333333333</ele><time>2026-05-03T13:05:55.061Z</time></trkpt><trkpt lat="46.0761398" lon="11.2489937"><ele>583.6666666666666</ele><time>2026-05-03T13:05:56.062Z</time></trkpt><trkpt lat="46.0761585" lon="11.2491063"><ele>583.5</ele><time>2026-05-03T13:05:57.062Z</time></trkpt><trkpt lat="46.07618" lon="11.2492253"><ele>583.3333333333334</ele><time>2026-05-03T13:05:58.062Z</time></trkpt><trkpt lat="46.0761929" lon="11.2493467"><ele>583.1666666666667</ele><time>2026-05-03T13:05:59.061Z</time></trkpt><trkpt lat="46.0761936" lon="11.2494717"><ele>583.0</ele><time>2026-05-03T13:06:00.062Z</time></trkpt><trkpt lat="46.0761789" lon="11.2496006"><ele>583.0</ele><time>2026-05-03T13:06:01.062Z</time></trkpt><trkpt lat="46.076158" lon="11.2497334"><ele>583.0</ele><time>2026-05-03T13:06:02.062Z</time></trkpt><trkpt lat="46.0761305" lon="11.2498682"><ele>583.0</ele><time>2026-05-03T13:06:03.061Z</time></trkpt><trkpt lat="46.0760983" lon="11.2500067"><ele>583.0</ele><time>2026-05-03T13:06:04.061Z</time></trkpt><trkpt lat="46.0760712" lon="11.2501454"><ele>583.0</ele><time>2026-05-03T13:06:05.062Z</time></trkpt><trkpt lat="46.0760465" lon="11.2502931"><ele>582.6</ele><time>2026-05-03T13:06:06.061Z</time></trkpt><trkpt lat="46.0760204" lon="11.2504343"><ele>582.1999999999999</ele><time>2026-05-03T13:06:07.062Z</time></trkpt><trkpt lat="46.0759932" lon="11.2505805"><ele>581.8</ele><time>2026-05-03T13:06:08.061Z</time></trkpt><trkpt lat="46.0759691" lon="11.250729"><ele>581.4</ele><time>2026-05-03T13:06:09.061Z</time></trkpt><trkpt lat="46.0759493" lon="11.2508842"><ele>581.0</ele><time>2026-05-03T13:06:10.061Z</time></trkpt><trkpt lat="46.0759424" lon="11.251037"><ele>580.4</ele><time>2026-05-03T13:06:11.061Z</time></trkpt><trkpt lat="46.0759375" lon="11.2511907"><ele>579.8</ele><time>2026-05-03T13:06:12.061Z</time></trkpt><trkpt lat="46.0759385" lon="11.2513502"><ele>579.1999999999999</ele><time>2026-05-03T13:06:13.062Z</time></trkpt><trkpt lat="46.0759378" lon="11.2515085"><ele>578.6</ele><time>2026-05-03T13:06:14.062Z</time></trkpt><trkpt lat="46.0759399" lon="11.2516688"><ele>578.0</ele><time>2026-05-03T13:06:15.061Z</time></trkpt><trkpt lat="46.0759409" lon="11.2518309"><ele>578.0</ele><time>2026-05-03T13:06:16.062Z</time></trkpt><trkpt lat="46.0759369" lon="11.2519874"><ele>578.0</ele><time>2026-05-03T13:06:17.061Z</time></trkpt><trkpt lat="46.0759342" lon="11.2521436"><ele>578.0</ele><time>2026-05-03T13:06:18.062Z</time></trkpt><trkpt lat="46.0759286" lon="11.2523007"><ele>578.0</ele><time>2026-05-03T13:06:19.062Z</time></trkpt><trkpt lat="46.075921" lon="11.252467"><ele>578.0</ele><time>2026-05-03T13:06:20.061Z</time></trkpt><trkpt lat="46.0759042" lon="11.2526322"><ele>578.0</ele><time>2026-05-03T13:06:21.062Z</time></trkpt><trkpt lat="46.0758705" lon="11.2527903"><ele>578.0</ele><time>2026-05-03T13:06:22.061Z</time></trkpt><trkpt lat="46.0758343" lon="11.2529491"><ele>578.0</ele><time>2026-05-03T13:06:23.062Z</time></trkpt><trkpt lat="46.0757966" lon="11.2531062"><ele>578.0</ele><time>2026-05-03T13:06:24.062Z</time></trkpt><trkpt lat="46.0757659" lon="11.2532625"><ele>573.8</ele><time>2026-05-03T13:06:25.062Z</time></trkpt><trkpt lat="46.0757402" lon="11.2534189"><ele>569.5999999999999</ele><time>2026-05-03T13:06:26.062Z</time></trkpt><trkpt lat="46.0757148" lon="11.2535754"><ele>565.4000000000001</ele><time>2026-05-03T13:06:27.06Z</time></trkpt><trkpt lat="46.0756959" lon="11.2537303"><ele>561.2</ele><time>2026-05-03T13:06:28.06Z</time></trkpt><trkpt lat="46.0756772" lon="11.2538866"><ele>557.0</ele><time>2026-05-03T13:06:29.06Z</time></trkpt><trkpt lat="46.0756671" lon="11.2540326"><ele>556.6666666666666</ele><time>2026-05-03T13:06:30.061Z</time></trkpt><trkpt lat="46.0756588" lon="11.2541668"><ele>556.3333333333333</ele><time>2026-05-03T13:06:31.061Z</time></trkpt><trkpt lat="46.0756568" lon="11.2542914"><ele>556.0</ele><time>2026-05-03T13:06:32.061Z</time></trkpt><trkpt lat="46.0756625" lon="11.2544052"><ele>555.6666666666666</ele><time>2026-05-03T13:06:33.061Z</time></trkpt><trkpt lat="46.0756702" lon="11.2545031"><ele>555.3333333333334</ele><time>2026-05-03T13:06:34.061Z</time></trkpt><trkpt lat="46.0756328" lon="11.2546464"><ele>555.0</ele><time>2026-05-03T13:06:36.061Z</time></trkpt><trkpt lat="46.0755226" lon="11.254627"><ele>555.0000000000001</ele><time>2026-05-03T13:06:38.061Z</time></trkpt><trkpt lat="46.0754871" lon="11.2545494"><ele>555.0</ele><time>2026-05-03T13:06:39.06Z</time></trkpt><trkpt lat="46.0754689" lon="11.2544564"><ele>555.0</ele><time>2026-05-03T13:06:40.061Z</time></trkpt><trkpt lat="46.075456" lon="11.2543469"><ele>555.0</ele><time>2026-05-03T13:06:41.06Z</time></trkpt><trkpt lat="46.0754524" lon="11.2542466"><ele>555.0</ele><time>2026-05-03T13:06:42.061Z</time></trkpt><trkpt lat="46.0754461" lon="11.2541456"><ele>555.0000000000001</ele><time>2026-05-03T13:06:43.061Z</time></trkpt><trkpt lat="46.0754331" lon="11.2540421"><ele>555.0</ele><time>2026-05-03T13:06:44.061Z</time></trkpt><trkpt lat="46.0754124" lon="11.2539298"><ele>555.3333333333334</ele><time>2026-05-03T13:06:45.061Z</time></trkpt><trkpt lat="46.075383" lon="11.2538263"><ele>555.6666666666666</ele><time>2026-05-03T13:06:46.06Z</time></trkpt><trkpt lat="46.0753369" lon="11.2537403"><ele>556.0</ele><time>2026-05-03T13:06:47.06Z</time></trkpt><trkpt lat="46.0752859" lon="11.2536555"><ele>556.3333333333333</ele><time>2026-05-03T13:06:48.061Z</time></trkpt><trkpt lat="46.0752276" lon="11.2535729"><ele>556.6666666666666</ele><time>2026-05-03T13:06:49.061Z</time></trkpt><trkpt lat="46.0751679" lon="11.2534913"><ele>557.0</ele><time>2026-05-03T13:06:50.06Z</time></trkpt><trkpt lat="46.0751035" lon="11.2534185"><ele>557.0</ele><time>2026-05-03T13:06:51.06Z</time></trkpt><trkpt lat="46.0750428" lon="11.2533444"><ele>557.0</ele><time>2026-05-03T13:06:52.061Z</time></trkpt><trkpt lat="46.0749802" lon="11.2532679"><ele>557.0</ele><time>2026-05-03T13:06:53.061Z</time></trkpt><trkpt lat="46.0749164" lon="11.2531886"><ele>557.0</ele><time>2026-05-03T13:06:54.061Z</time></trkpt><trkpt lat="46.0748526" lon="11.2531088"><ele>557.0</ele><time>2026-05-03T13:06:55.061Z</time></trkpt><trkpt lat="46.0747907" lon="11.2530306"><ele>557.0</ele><time>2026-05-03T13:06:56.061Z</time></trkpt><trkpt lat="46.07473" lon="11.2529574"><ele>555.2857142857143</ele><time>2026-05-03T13:06:57.06Z</time></trkpt><trkpt lat="46.0746762" lon="11.2528921"><ele>553.5714285714286</ele><time>2026-05-03T13:06:58.06Z</time></trkpt><trkpt lat="46.0746231" lon="11.2528311"><ele>551.8571428571429</ele><time>2026-05-03T13:06:59.061Z</time></trkpt><trkpt lat="46.0745739" lon="11.2527659"><ele>550.1428571428571</ele><time>2026-05-03T13:07:00.06Z</time></trkpt><trkpt lat="46.0745226" lon="11.2527017"><ele>548.4285714285714</ele><time>2026-05-03T13:07:01.061Z</time></trkpt><trkpt lat="46.0744675" lon="11.2526315"><ele>546.7142857142858</ele><time>2026-05-03T13:07:02.061Z</time></trkpt><trkpt lat="46.0744115" lon="11.2525491"><ele>545.0</ele><time>2026-05-03T13:07:03.06Z</time></trkpt><trkpt lat="46.0743632" lon="11.2524573"><ele>545.0</ele><time>2026-05-03T13:07:04.061Z</time></trkpt><trkpt lat="46.074326" lon="11.2523572"><ele>545.0</ele><time>2026-05-03T13:07:05.061Z</time></trkpt><trkpt lat="46.0742945" lon="11.2522428"><ele>545.0</ele><time>2026-05-03T13:07:06.061Z</time></trkpt><trkpt lat="46.0742771" lon="11.2521168"><ele>545.0</ele><time>2026-05-03T13:07:07.061Z</time></trkpt><trkpt lat="46.0742615" lon="11.25199"><ele>545.0</ele><time>2026-05-03T13:07:08.061Z</time></trkpt><trkpt lat="46.07425" lon="11.2518635"><ele>545.0</ele><time>2026-05-03T13:07:09.061Z</time></trkpt><trkpt lat="46.0742305" lon="11.251743"><ele>544.6666666666666</ele><time>2026-05-03T13:07:10.06Z</time></trkpt><trkpt lat="46.0742088" lon="11.2516216"><ele>544.3333333333333</ele><time>2026-05-03T13:07:11.06Z</time></trkpt><trkpt lat="46.0741756" lon="11.2515103"><ele>544.0</ele><time>2026-05-03T13:07:12.061Z</time></trkpt><trkpt lat="46.0741366" lon="11.2514116"><ele>543.6666666666666</ele><time>2026-05-03T13:07:13.06Z</time></trkpt><trkpt lat="46.0740786" lon="11.2513194"><ele>543.3333333333334</ele><time>2026-05-03T13:07:14.06Z</time></trkpt><trkpt lat="46.0740199" lon="11.2512461"><ele>543.0</ele><time>2026-05-03T13:07:15.061Z</time></trkpt><trkpt lat="46.0739513" lon="11.2511662"><ele>538.6</ele><time>2026-05-03T13:07:16.061Z</time></trkpt><trkpt lat="46.0738737" lon="11.2510869"><ele>534.1999999999999</ele><time>2026-05-03T13:07:17.06Z</time></trkpt><trkpt lat="46.073799" lon="11.2510059"><ele>529.8</ele><time>2026-05-03T13:07:18.061Z</time></trkpt><trkpt lat="46.0737262" lon="11.250912"><ele>525.4</ele><time>2026-05-03T13:07:19.06Z</time></trkpt><trkpt lat="46.0736647" lon="11.2507975"><ele>521.0</ele><time>2026-05-03T13:07:20.061Z</time></trkpt><trkpt lat="46.0736206" lon="11.2506688"><ele>520.4</ele><time>2026-05-03T13:07:21.061Z</time></trkpt><trkpt lat="46.0735916" lon="11.2505341"><ele>519.8</ele><time>2026-05-03T13:07:22.06Z</time></trkpt><trkpt lat="46.0735707" lon="11.2503926"><ele>519.1999999999999</ele><time>2026-05-03T13:07:23.06Z</time></trkpt><trkpt lat="46.0735667" lon="11.250249"><ele>518.6</ele><time>2026-05-03T13:07:24.061Z</time></trkpt><trkpt lat="46.0735703" lon="11.2500996"><ele>518.0</ele><time>2026-05-03T13:07:25.06Z</time></trkpt><trkpt lat="46.0735721" lon="11.2499437"><ele>518.0</ele><time>2026-05-03T13:07:26.06Z</time></trkpt><trkpt lat="46.0735748" lon="11.2497923"><ele>518.0</ele><time>2026-05-03T13:07:27.061Z</time></trkpt><trkpt lat="46.0735695" lon="11.2496366"><ele>518.0</ele><time>2026-05-03T13:07:28.061Z</time></trkpt><trkpt lat="46.0735571" lon="11.2494837"><ele>518.0</ele><time>2026-05-03T13:07:29.061Z</time></trkpt><trkpt lat="46.0735392" lon="11.2493315"><ele>518.0</ele><time>2026-05-03T13:07:30.061Z</time></trkpt><trkpt lat="46.0735193" lon="11.2491808"><ele>518.1999999999999</ele><time>2026-05-03T13:07:31.06Z</time></trkpt><trkpt lat="46.0735025" lon="11.2490343"><ele>518.4</ele><time>2026-05-03T13:07:32.061Z</time></trkpt><trkpt lat="46.0734842" lon="11.2488894"><ele>518.5999999999999</ele><time>2026-05-03T13:07:33.06Z</time></trkpt><trkpt lat="46.0734686" lon="11.2487425"><ele>518.8</ele><time>2026-05-03T13:07:34.06Z</time></trkpt><trkpt lat="46.0734481" lon="11.2486009"><ele>519.0</ele><time>2026-05-03T13:07:35.061Z</time></trkpt><trkpt lat="46.0734272" lon="11.2484545"><ele>519.0</ele><time>2026-05-03T13:07:36.06Z</time></trkpt><trkpt lat="46.0734101" lon="11.2483163"><ele>519.0</ele><time>2026-05-03T13:07:37.061Z</time></trkpt><trkpt lat="46.0733975" lon="11.2481709"><ele>519.0</ele><time>2026-05-03T13:07:38.061Z</time></trkpt><trkpt lat="46.0733952" lon="11.2480371"><ele>519.0</ele><time>2026-05-03T13:07:39.061Z</time></trkpt><trkpt lat="46.073408" lon="11.2479004"><ele>519.0</ele><time>2026-05-03T13:07:40.061Z</time></trkpt><trkpt lat="46.0734356" lon="11.2477764"><ele>518.3333333333334</ele><time>2026-05-03T13:07:41.06Z</time></trkpt><trkpt lat="46.073483" lon="11.2476643"><ele>517.6666666666666</ele><time>2026-05-03T13:07:42.061Z</time></trkpt><trkpt lat="46.0735288" lon="11.2475814"><ele>517.0</ele><time>2026-05-03T13:07:43.061Z</time></trkpt><trkpt lat="46.0735671" lon="11.2475049"><ele>516.3333333333333</ele><time>2026-05-03T13:07:44.061Z</time></trkpt><trkpt lat="46.0735564" lon="11.2473634"><ele>515.6666666666666</ele><time>2026-05-03T13:07:46.061Z</time></trkpt><trkpt lat="46.0734804" lon="11.2472926"><ele>515.0</ele><time>2026-05-03T13:07:48.061Z</time></trkpt><trkpt lat="46.0733865" lon="11.2473536"><ele>515.0</ele><time>2026-05-03T13:07:50.061Z</time></trkpt><trkpt lat="46.0733364" lon="11.2475072"><ele>515.0</ele><time>2026-05-03T13:07:52.061Z</time></trkpt><trkpt lat="46.0732895" lon="11.2475915"><ele>515.0</ele><time>2026-05-03T13:07:53.06Z</time></trkpt><trkpt lat="46.0732404" lon="11.2476698"><ele>515.0</ele><time>2026-05-03T13:07:54.06Z</time></trkpt><trkpt lat="46.073186" lon="11.2477452"><ele>515.0</ele><time>2026-05-03T13:07:55.06Z</time></trkpt><trkpt lat="46.073127" lon="11.2477942"><ele>515.0</ele><time>2026-05-03T13:07:56.061Z</time></trkpt><trkpt lat="46.0730526" lon="11.2478365"><ele>513.0</ele><time>2026-05-03T13:07:57.061Z</time></trkpt><trkpt lat="46.0729769" lon="11.2478526"><ele>511.0</ele><time>2026-05-03T13:07:58.061Z</time></trkpt><trkpt lat="46.072898" lon="11.2478484"><ele>509.0</ele><time>2026-05-03T13:07:59.06Z</time></trkpt><trkpt lat="46.0728201" lon="11.2478397"><ele>507.0</ele><time>2026-05-03T13:08:00.061Z</time></trkpt><trkpt lat="46.0727444" lon="11.2478153"><ele>504.99999999999994</ele><time>2026-05-03T13:08:01.06Z</time></trkpt><trkpt lat="46.0726656" lon="11.2478106"><ele>503.0</ele><time>2026-05-03T13:08:02.06Z</time></trkpt><trkpt lat="46.072586" lon="11.2478084"><ele>503.0</ele><time>2026-05-03T13:08:03.061Z</time></trkpt><trkpt lat="46.0725062" lon="11.247806"><ele>503.00000000000006</ele><time>2026-05-03T13:08:04.06Z</time></trkpt><trkpt lat="46.0724294" lon="11.247796"><ele>503.0</ele><time>2026-05-03T13:08:05.06Z</time></trkpt><trkpt lat="46.0723509" lon="11.2477752"><ele>503.0</ele><time>2026-05-03T13:08:06.06Z</time></trkpt><trkpt lat="46.0722807" lon="11.2477314"><ele>503.00000000000006</ele><time>2026-05-03T13:08:07.061Z</time></trkpt><trkpt lat="46.0722329" lon="11.2476661"><ele>503.0</ele><time>2026-05-03T13:08:08.061Z</time></trkpt><trkpt lat="46.0722098" lon="11.2475809"><ele>503.0</ele><time>2026-05-03T13:08:09.06Z</time></trkpt><trkpt lat="46.0721902" lon="11.2474673"><ele>503.0</ele><time>2026-05-03T13:08:10.06Z</time></trkpt><trkpt lat="46.0721726" lon="11.2473548"><ele>503.00000000000006</ele><time>2026-05-03T13:08:11.061Z</time></trkpt><trkpt lat="46.0721566" lon="11.2472479"><ele>503.0</ele><time>2026-05-03T13:08:12.061Z</time></trkpt><trkpt lat="46.0721382" lon="11.2471423"><ele>503.0</ele><time>2026-05-03T13:08:13.06Z</time></trkpt><trkpt lat="46.072126" lon="11.2470372"><ele>503.00000000000006</ele><time>2026-05-03T13:08:14.061Z</time></trkpt><trkpt lat="46.0721175" lon="11.2469357"><ele>503.0</ele><time>2026-05-03T13:08:15.061Z</time></trkpt><trkpt lat="46.0721162" lon="11.2468365"><ele>503.0</ele><time>2026-05-03T13:08:16.061Z</time></trkpt><trkpt lat="46.0721258" lon="11.2467421"><ele>501.8333333333333</ele><time>2026-05-03T13:08:17.061Z</time></trkpt><trkpt lat="46.07214" lon="11.2466469"><ele>500.66666666666663</ele><time>2026-05-03T13:08:18.061Z</time></trkpt><trkpt lat="46.0721537" lon="11.2465456"><ele>499.5</ele><time>2026-05-03T13:08:19.061Z</time></trkpt><trkpt lat="46.072151" lon="11.2464454"><ele>498.33333333333337</ele><time>2026-05-03T13:08:20.06Z</time></trkpt><trkpt lat="46.0721399" lon="11.2463478"><ele>497.1666666666667</ele><time>2026-05-03T13:08:21.061Z</time></trkpt><trkpt lat="46.0721291" lon="11.2462468"><ele>496.0</ele><time>2026-05-03T13:08:22.061Z</time></trkpt><trkpt lat="46.0720318" lon="11.2461518"><ele>495.83333333333337</ele><time>2026-05-03T13:08:23.061Z</time></trkpt><trkpt lat="46.0720887" lon="11.2460421"><ele>495.6666666666667</ele><time>2026-05-03T13:08:24.061Z</time></trkpt><trkpt lat="46.0720548" lon="11.2459363"><ele>495.5</ele><time>2026-05-03T13:08:25.06Z</time></trkpt><trkpt lat="46.0720049" lon="11.2458473"><ele>495.33333333333337</ele><time>2026-05-03T13:08:26.06Z</time></trkpt><trkpt lat="46.0719438" lon="11.2457599"><ele>495.1666666666667</ele><time>2026-05-03T13:08:27.061Z</time></trkpt><trkpt lat="46.0718768" lon="11.2456768"><ele>495.0</ele><time>2026-05-03T13:08:28.06Z</time></trkpt><trkpt lat="46.0718095" lon="11.2455982"><ele>495.0</ele><time>2026-05-03T13:08:29.061Z</time></trkpt><trkpt lat="46.0717394" lon="11.2455223"><ele>495.0</ele><time>2026-05-03T13:08:30.061Z</time></trkpt><trkpt lat="46.0716702" lon="11.2454384"><ele>495.0</ele><time>2026-05-03T13:08:31.061Z</time></trkpt><trkpt lat="46.0716021" lon="11.2453532"><ele>495.0</ele><time>2026-05-03T13:08:32.06Z</time></trkpt><trkpt lat="46.0715359" lon="11.2452693"><ele>495.0</ele><time>2026-05-03T13:08:33.061Z</time></trkpt><trkpt lat="46.0714655" lon="11.2451879"><ele>495.0</ele><time>2026-05-03T13:08:34.06Z</time></trkpt><trkpt lat="46.0713953" lon="11.2450996"><ele>495.0</ele><time>2026-05-03T13:08:35.061Z</time></trkpt><trkpt lat="46.0713255" lon="11.2450142"><ele>495.0</ele><time>2026-05-03T13:08:36.061Z</time></trkpt><trkpt lat="46.0712521" lon="11.2449303"><ele>495.0</ele><time>2026-05-03T13:08:37.061Z</time></trkpt><trkpt lat="46.0711735" lon="11.2448391"><ele>495.0</ele><time>2026-05-03T13:08:38.061Z</time></trkpt><trkpt lat="46.0710993" lon="11.2447412"><ele>495.0</ele><time>2026-05-03T13:08:39.061Z</time></trkpt><trkpt lat="46.0710235" lon="11.244643"><ele>494.6</ele><time>2026-05-03T13:08:40.061Z</time></trkpt><trkpt lat="46.0709517" lon="11.2445432"><ele>494.2</ele><time>2026-05-03T13:08:41.061Z</time></trkpt><trkpt lat="46.0708777" lon="11.2444376"><ele>493.79999999999995</ele><time>2026-05-03T13:08:42.06Z</time></trkpt><trkpt lat="46.0708053" lon="11.2443326"><ele>493.4</ele><time>2026-05-03T13:08:43.06Z</time></trkpt><trkpt lat="46.0707299" lon="11.2442297"><ele>493.0</ele><time>2026-05-03T13:08:44.061Z</time></trkpt><trkpt lat="46.0706513" lon="11.2441233"><ele>492.59999999999997</ele><time>2026-05-03T13:08:45.061Z</time></trkpt><trkpt lat="46.070576" lon="11.2440175"><ele>492.19999999999993</ele><time>2026-05-03T13:08:46.061Z</time></trkpt><trkpt lat="46.0705025" lon="11.2439243"><ele>491.8</ele><time>2026-05-03T13:08:47.061Z</time></trkpt><trkpt lat="46.0704328" lon="11.243824"><ele>491.4</ele><time>2026-05-03T13:08:48.061Z</time></trkpt><trkpt lat="46.0703694" lon="11.2437328"><ele>491.0</ele><time>2026-05-03T13:08:49.06Z</time></trkpt><trkpt lat="46.070305" lon="11.2436393"><ele>490.99999999999994</ele><time>2026-05-03T13:08:50.061Z</time></trkpt><trkpt lat="46.0702414" lon="11.2435468"><ele>491.0</ele><time>2026-05-03T13:08:51.061Z</time></trkpt><trkpt lat="46.0701856" lon="11.243457"><ele>491.0</ele><time>2026-05-03T13:08:52.061Z</time></trkpt><trkpt lat="46.0701333" lon="11.2433734"><ele>491.0</ele><time>2026-05-03T13:08:53.061Z</time></trkpt><trkpt lat="46.0700815" lon="11.2432988"><ele>490.99999999999994</ele><time>2026-05-03T13:08:54.06Z</time></trkpt><trkpt lat="46.070031" lon="11.2432273"><ele>491.0</ele><time>2026-05-03T13:08:55.06Z</time></trkpt><trkpt lat="46.0699753" lon="11.2431465"><ele>490.3333333333333</ele><time>2026-05-03T13:08:56.06Z</time></trkpt><trkpt lat="46.0699147" lon="11.2430562"><ele>489.66666666666663</ele><time>2026-05-03T13:08:57.06Z</time></trkpt><trkpt lat="46.0698434" lon="11.2429686"><ele>489.0</ele><time>2026-05-03T13:08:58.061Z</time></trkpt><trkpt lat="46.0697738" lon="11.2428834"><ele>488.33333333333337</ele><time>2026-05-03T13:08:59.061Z</time></trkpt><trkpt lat="46.0696998" lon="11.2428058"><ele>487.6666666666667</ele><time>2026-05-03T13:09:00.061Z</time></trkpt><trkpt lat="46.0696311" lon="11.2427352"><ele>487.0</ele><time>2026-05-03T13:09:01.061Z</time></trkpt><trkpt lat="46.0695596" lon="11.2426613"><ele>487.0</ele><time>2026-05-03T13:09:02.061Z</time></trkpt><trkpt lat="46.0694859" lon="11.2425819"><ele>487.00000000000006</ele><time>2026-05-03T13:09:03.061Z</time></trkpt><trkpt lat="46.0694137" lon="11.2425057"><ele>487.00000000000006</ele><time>2026-05-03T13:09:04.06Z</time></trkpt><trkpt lat="46.0693352" lon="11.2424308"><ele>487.0</ele><time>2026-05-03T13:09:05.06Z</time></trkpt><trkpt lat="46.0692549" lon="11.2423631"><ele>487.0</ele><time>2026-05-03T13:09:06.06Z</time></trkpt><trkpt lat="46.0691785" lon="11.2422903"><ele>487.00000000000006</ele><time>2026-05-03T13:09:07.06Z</time></trkpt><trkpt lat="46.0691083" lon="11.2422176"><ele>487.0</ele><time>2026-05-03T13:09:08.061Z</time></trkpt><trkpt lat="46.0690374" lon="11.2421459"><ele>487.0</ele><time>2026-05-03T13:09:09.061Z</time></trkpt><trkpt lat="46.0689772" lon="11.2420723"><ele>487.0</ele><time>2026-05-03T13:09:10.061Z</time></trkpt><trkpt lat="46.0689268" lon="11.2419745"><ele>487.00000000000006</ele><time>2026-05-03T13:09:11.06Z</time></trkpt><trkpt lat="46.0689009" lon="11.2418764"><ele>487.0</ele><time>2026-05-03T13:09:12.061Z</time></trkpt><trkpt lat="46.0688854" lon="11.2417681"><ele>487.00000000000006</ele><time>2026-05-03T13:09:13.061Z</time></trkpt><trkpt lat="46.0688823" lon="11.2416505"><ele>487.0</ele><time>2026-05-03T13:09:14.061Z</time></trkpt><trkpt lat="46.0688839" lon="11.2415294"><ele>487.0</ele><time>2026-05-03T13:09:15.061Z</time></trkpt><trkpt lat="46.068885" lon="11.2414096"><ele>487.0</ele><time>2026-05-03T13:09:16.061Z</time></trkpt><trkpt lat="46.0688863" lon="11.2412989"><ele>487.00000000000006</ele><time>2026-05-03T13:09:17.061Z</time></trkpt><trkpt lat="46.0688852" lon="11.2412003"><ele>487.0</ele><time>2026-05-03T13:09:18.061Z</time></trkpt><trkpt lat="46.0688819" lon="11.2410453"><ele>486.50000000000006</ele><time>2026-05-03T13:09:20.061Z</time></trkpt><trkpt lat="46.0688736" lon="11.2408717"><ele>486.0</ele><time>2026-05-03T13:09:22.061Z</time></trkpt><trkpt lat="46.0688626" lon="11.2407709"><ele>485.5</ele><time>2026-05-03T13:09:23.061Z</time></trkpt><trkpt lat="46.0688387" lon="11.2406735"><ele>485.0</ele><time>2026-05-03T13:09:24.06Z</time></trkpt><trkpt lat="46.0688096" lon="11.2405677"><ele>484.50000000000006</ele><time>2026-05-03T13:09:25.06Z</time></trkpt><trkpt lat="46.0687768" lon="11.2404549"><ele>484.0</ele><time>2026-05-03T13:09:26.061Z</time></trkpt><trkpt lat="46.0687444" lon="11.2403456"><ele>483.83333333333337</ele><time>2026-05-03T13:09:27.06Z</time></trkpt><trkpt lat="46.0687126" lon="11.2402285"><ele>483.6666666666667</ele><time>2026-05-03T13:09:28.061Z</time></trkpt><trkpt lat="46.0686807" lon="11.2401161"><ele>483.5</ele><time>2026-05-03T13:09:29.061Z</time></trkpt><trkpt lat="46.0686474" lon="11.2400099"><ele>483.33333333333337</ele><time>2026-05-03T13:09:30.061Z</time></trkpt><trkpt lat="46.0686084" lon="11.2399141"><ele>483.1666666666667</ele><time>2026-05-03T13:09:31.061Z</time></trkpt><trkpt lat="46.0685633" lon="11.2398328"><ele>483.0</ele><time>2026-05-03T13:09:32.061Z</time></trkpt><trkpt lat="46.0685091" lon="11.2397721"><ele>482.8333333333333</ele><time>2026-05-03T13:09:33.06Z</time></trkpt><trkpt lat="46.0684525" lon="11.2397212"><ele>482.66666666666663</ele><time>2026-05-03T13:09:34.061Z</time></trkpt><trkpt lat="46.0683549" lon="11.239658"><ele>482.5</ele><time>2026-05-03T13:09:36.061Z</time></trkpt><trkpt lat="46.0683055" lon="11.2395916"><ele>482.3333333333333</ele><time>2026-05-03T13:09:38.061Z</time></trkpt><trkpt lat="46.0683585" lon="11.2395354"><ele>482.16666666666663</ele><time>2026-05-03T13:09:45.061Z</time></trkpt><trkpt lat="46.0684592" lon="11.2394714"><ele>482.0</ele><time>2026-05-03T13:09:47.06Z</time></trkpt><trkpt lat="46.0685239" lon="11.2394313"><ele>481.99999999999994</ele><time>2026-05-03T13:09:48.061Z</time></trkpt><trkpt lat="46.0685906" lon="11.2393768"><ele>482.0</ele><time>2026-05-03T13:09:49.061Z</time></trkpt><trkpt lat="46.0686599" lon="11.2393145"><ele>482.0</ele><time>2026-05-03T13:09:50.06Z</time></trkpt><trkpt lat="46.0687283" lon="11.2392491"><ele>482.0</ele><time>2026-05-03T13:09:51.061Z</time></trkpt><trkpt lat="46.0687963" lon="11.2391819"><ele>481.99999999999994</ele><time>2026-05-03T13:09:52.061Z</time></trkpt><trkpt lat="46.0688639" lon="11.2391158"><ele>482.0</ele><time>2026-05-03T13:09:53.06Z</time></trkpt><trkpt lat="46.0689309" lon="11.239051"><ele>481.99999999999994</ele><time>2026-05-03T13:09:54.06Z</time></trkpt><trkpt lat="46.0689998" lon="11.2389769"><ele>482.0</ele><time>2026-05-03T13:09:55.061Z</time></trkpt><trkpt lat="46.0690706" lon="11.2389116"><ele>482.0</ele><time>2026-05-03T13:09:56.061Z</time></trkpt><trkpt lat="46.0691414" lon="11.2388434"><ele>482.0</ele><time>2026-05-03T13:09:57.06Z</time></trkpt><trkpt lat="46.0692075" lon="11.2387753"><ele>481.99999999999994</ele><time>2026-05-03T13:09:58.061Z</time></trkpt><trkpt lat="46.0692721" lon="11.2387102"><ele>482.0</ele><time>2026-05-03T13:09:59.061Z</time></trkpt><trkpt lat="46.0693363" lon="11.2386447"><ele>481.99999999999994</ele><time>2026-05-03T13:10:00.061Z</time></trkpt><trkpt lat="46.069397" lon="11.2385853"><ele>482.0</ele><time>2026-05-03T13:10:01.06Z</time></trkpt><trkpt lat="46.0694548" lon="11.2385393"><ele>482.0</ele><time>2026-05-03T13:10:02.06Z</time></trkpt><trkpt lat="46.0695644" lon="11.2384497"><ele>482.0</ele><time>2026-05-03T13:10:04.061Z</time></trkpt><trkpt lat="46.0696258" lon="11.2383496"><ele>481.99999999999994</ele><time>2026-05-03T13:10:06.061Z</time></trkpt><trkpt lat="46.0695938" lon="11.2382589"><ele>482.0</ele><time>2026-05-03T13:10:08.06Z</time></trkpt><trkpt lat="46.0695228" lon="11.2381227"><ele>481.66666666666663</ele><time>2026-05-03T13:10:10.06Z</time></trkpt><trkpt lat="46.0694931" lon="11.2380361"><ele>481.3333333333333</ele><time>2026-05-03T13:10:11.061Z</time></trkpt><trkpt lat="46.0694677" lon="11.2379287"><ele>481.0</ele><time>2026-05-03T13:10:12.06Z</time></trkpt><trkpt lat="46.0694431" lon="11.2378161"><ele>480.66666666666663</ele><time>2026-05-03T13:10:13.061Z</time></trkpt><trkpt lat="46.0694163" lon="11.2376921"><ele>480.3333333333333</ele><time>2026-05-03T13:10:14.06Z</time></trkpt><trkpt lat="46.0693905" lon="11.2375591"><ele>480.0</ele><time>2026-05-03T13:10:15.06Z</time></trkpt><trkpt lat="46.0693557" lon="11.2374158"><ele>479.6</ele><time>2026-05-03T13:10:16.061Z</time></trkpt><trkpt lat="46.0693275" lon="11.2372727"><ele>479.2</ele><time>2026-05-03T13:10:17.06Z</time></trkpt><trkpt lat="46.0693006" lon="11.2371258"><ele>478.79999999999995</ele><time>2026-05-03T13:10:18.061Z</time></trkpt><trkpt lat="46.0692754" lon="11.2369871"><ele>478.4</ele><time>2026-05-03T13:10:19.061Z</time></trkpt><trkpt lat="46.0692516" lon="11.2368526"><ele>478.0</ele><time>2026-05-03T13:10:20.06Z</time></trkpt><trkpt lat="46.0692303" lon="11.2367049"><ele>478.0</ele><time>2026-05-03T13:10:21.06Z</time></trkpt><trkpt lat="46.0692038" lon="11.2365574"><ele>477.99999999999994</ele><time>2026-05-03T13:10:22.06Z</time></trkpt><trkpt lat="46.0691731" lon="11.2364021"><ele>477.99999999999994</ele><time>2026-05-03T13:10:23.061Z</time></trkpt><trkpt lat="46.0691422" lon="11.2362489"><ele>478.0</ele><time>2026-05-03T13:10:24.061Z</time></trkpt><trkpt lat="46.0691128" lon="11.2360911"><ele>478.0</ele><time>2026-05-03T13:10:25.061Z</time></trkpt><trkpt lat="46.0690817" lon="11.235929"><ele>477.5</ele><time>2026-05-03T13:10:26.061Z</time></trkpt><trkpt lat="46.0690527" lon="11.2357684"><ele>477.0</ele><time>2026-05-03T13:10:27.061Z</time></trkpt><trkpt lat="46.0690231" lon="11.235619"><ele>476.5</ele><time>2026-05-03T13:10:28.06Z</time></trkpt><trkpt lat="46.0689913" lon="11.2354564"><ele>476.0</ele><time>2026-05-03T13:10:29.061Z</time></trkpt><trkpt lat="46.0689655" lon="11.2352936"><ele>475.75</ele><time>2026-05-03T13:10:30.061Z</time></trkpt><trkpt lat="46.0689374" lon="11.2351349"><ele>475.5</ele><time>2026-05-03T13:10:31.061Z</time></trkpt><trkpt lat="46.0689097" lon="11.2349764"><ele>475.25</ele><time>2026-05-03T13:10:32.061Z</time></trkpt><trkpt lat="46.0688801" lon="11.234816"><ele>475.0</ele><time>2026-05-03T13:10:33.061Z</time></trkpt><trkpt lat="46.0688538" lon="11.2346477"><ele>474.5</ele><time>2026-05-03T13:10:34.061Z</time></trkpt><trkpt lat="46.068823" lon="11.2344824"><ele>474.0</ele><time>2026-05-03T13:10:35.061Z</time></trkpt><trkpt lat="46.0687907" lon="11.234316"><ele>473.5</ele><time>2026-05-03T13:10:36.061Z</time></trkpt><trkpt lat="46.0687626" lon="11.2341462"><ele>473.0</ele><time>2026-05-03T13:10:37.061Z</time></trkpt><trkpt lat="46.0687313" lon="11.2339808"><ele>472.75</ele><time>2026-05-03T13:10:38.061Z</time></trkpt><trkpt lat="46.068699" lon="11.2338109"><ele>472.5</ele><time>2026-05-03T13:10:39.061Z</time></trkpt><trkpt lat="46.0686658" lon="11.2336433"><ele>472.25</ele><time>2026-05-03T13:10:40.061Z</time></trkpt><trkpt lat="46.0686341" lon="11.2334643"><ele>472.0</ele><time>2026-05-03T13:10:41.061Z</time></trkpt><trkpt lat="46.068601" lon="11.2332781"><ele>471.5</ele><time>2026-05-03T13:10:42.06Z</time></trkpt><trkpt lat="46.0685694" lon="11.2330965"><ele>471.0</ele><time>2026-05-03T13:10:43.06Z</time></trkpt><trkpt lat="46.0685352" lon="11.2329121"><ele>470.5</ele><time>2026-05-03T13:10:44.061Z</time></trkpt><trkpt lat="46.0684991" lon="11.2327251"><ele>470.0</ele><time>2026-05-03T13:10:45.061Z</time></trkpt><trkpt lat="46.0684645" lon="11.2325306"><ele>470.0</ele><time>2026-05-03T13:10:46.061Z</time></trkpt><trkpt lat="46.0684279" lon="11.2323388"><ele>470.0</ele><time>2026-05-03T13:10:47.061Z</time></trkpt><trkpt lat="46.0683963" lon="11.2321527"><ele>470.0</ele><time>2026-05-03T13:10:48.06Z</time></trkpt><trkpt lat="46.068362" lon="11.2319589"><ele>470.0</ele><time>2026-05-03T13:10:49.06Z</time></trkpt><trkpt lat="46.0683273" lon="11.2317713"><ele>469.5</ele><time>2026-05-03T13:10:50.061Z</time></trkpt><trkpt lat="46.068295" lon="11.231597"><ele>469.0</ele><time>2026-05-03T13:10:51.059Z</time></trkpt><trkpt lat="46.0682629" lon="11.2314112"><ele>468.5</ele><time>2026-05-03T13:10:52.059Z</time></trkpt><trkpt lat="46.0682315" lon="11.2312303"><ele>468.0</ele><time>2026-05-03T13:10:53.06Z</time></trkpt><trkpt lat="46.0681988" lon="11.2310546"><ele>467.5</ele><time>2026-05-03T13:10:54.06Z</time></trkpt><trkpt lat="46.0681612" lon="11.2308724"><ele>467.0</ele><time>2026-05-03T13:10:55.06Z</time></trkpt><trkpt lat="46.0681299" lon="11.2306945"><ele>466.5</ele><time>2026-05-03T13:10:56.059Z</time></trkpt><trkpt lat="46.0680984" lon="11.2305102"><ele>466.0</ele><time>2026-05-03T13:10:57.059Z</time></trkpt><trkpt lat="46.0680639" lon="11.2303322"><ele>465.5</ele><time>2026-05-03T13:10:58.06Z</time></trkpt><trkpt lat="46.0680303" lon="11.2301594"><ele>465.0</ele><time>2026-05-03T13:10:59.06Z</time></trkpt><trkpt lat="46.0680012" lon="11.2299944"><ele>464.5</ele><time>2026-05-03T13:11:00.06Z</time></trkpt><trkpt lat="46.0679763" lon="11.2298284"><ele>464.0</ele><time>2026-05-03T13:11:01.06Z</time></trkpt><trkpt lat="46.0679461" lon="11.2296726"><ele>464.0</ele><time>2026-05-03T13:11:02.059Z</time></trkpt><trkpt lat="46.0679185" lon="11.2295128"><ele>464.0</ele><time>2026-05-03T13:11:03.06Z</time></trkpt><trkpt lat="46.0678901" lon="11.2293487"><ele>464.0</ele><time>2026-05-03T13:11:04.06Z</time></trkpt><trkpt lat="46.0678597" lon="11.2291877"><ele>464.0</ele><time>2026-05-03T13:11:05.06Z</time></trkpt><trkpt lat="46.06783" lon="11.2290177"><ele>463.5</ele><time>2026-05-03T13:11:06.06Z</time></trkpt><trkpt lat="46.0677983" lon="11.2288453"><ele>463.0</ele><time>2026-05-03T13:11:07.06Z</time></trkpt><trkpt lat="46.0677689" lon="11.2286754"><ele>462.5</ele><time>2026-05-03T13:11:08.06Z</time></trkpt><trkpt lat="46.0677423" lon="11.228506"><ele>462.0</ele><time>2026-05-03T13:11:09.06Z</time></trkpt><trkpt lat="46.0677066" lon="11.2283402"><ele>462.0</ele><time>2026-05-03T13:11:10.06Z</time></trkpt><trkpt lat="46.0676746" lon="11.2281766"><ele>462.00000000000006</ele><time>2026-05-03T13:11:11.06Z</time></trkpt><trkpt lat="46.0676432" lon="11.2280182"><ele>462.00000000000006</ele><time>2026-05-03T13:11:12.059Z</time></trkpt><trkpt lat="46.0676127" lon="11.2278628"><ele>462.0</ele><time>2026-05-03T13:11:13.06Z</time></trkpt><trkpt lat="46.0675907" lon="11.2277179"><ele>462.0</ele><time>2026-05-03T13:11:14.06Z</time></trkpt><trkpt lat="46.0675648" lon="11.2275724"><ele>462.0</ele><time>2026-05-03T13:11:15.06Z</time></trkpt><trkpt lat="46.0675379" lon="11.2274377"><ele>462.0</ele><time>2026-05-03T13:11:16.059Z</time></trkpt><trkpt lat="46.0675168" lon="11.2273083"><ele>462.0</ele><time>2026-05-03T13:11:17.06Z</time></trkpt><trkpt lat="46.0674977" lon="11.2271861"><ele>462.0</ele><time>2026-05-03T13:11:18.06Z</time></trkpt><trkpt lat="46.0674741" lon="11.2270669"><ele>462.0</ele><time>2026-05-03T13:11:19.06Z</time></trkpt><trkpt lat="46.067453" lon="11.2269505"><ele>462.0</ele><time>2026-05-03T13:11:20.059Z</time></trkpt><trkpt lat="46.0674316" lon="11.2268431"><ele>462.0</ele><time>2026-05-03T13:11:21.06Z</time></trkpt><trkpt lat="46.0674092" lon="11.2267399"><ele>462.0</ele><time>2026-05-03T13:11:22.06Z</time></trkpt><trkpt lat="46.0673954" lon="11.2266379"><ele>462.0</ele><time>2026-05-03T13:11:23.06Z</time></trkpt><trkpt lat="46.0673892" lon="11.2265358"><ele>462.0</ele><time>2026-05-03T13:11:24.059Z</time></trkpt><trkpt lat="46.0673921" lon="11.2264253"><ele>462.0</ele><time>2026-05-03T13:11:25.06Z</time></trkpt><trkpt lat="46.0673961" lon="11.2263073"><ele>462.0</ele><time>2026-05-03T13:11:26.06Z</time></trkpt><trkpt lat="46.06741" lon="11.2261951"><ele>461.8</ele><time>2026-05-03T13:11:27.059Z</time></trkpt><trkpt lat="46.0674416" lon="11.2260893"><ele>461.6</ele><time>2026-05-03T13:11:28.06Z</time></trkpt><trkpt lat="46.0674939" lon="11.2259905"><ele>461.40000000000003</ele><time>2026-05-03T13:11:29.06Z</time></trkpt><trkpt lat="46.0675575" lon="11.2258928"><ele>461.20000000000005</ele><time>2026-05-03T13:11:30.06Z</time></trkpt><trkpt lat="46.0676329" lon="11.2257978"><ele>461.0</ele><time>2026-05-03T13:11:31.06Z</time></trkpt><trkpt lat="46.0677145" lon="11.2257115"><ele>460.20000000000005</ele><time>2026-05-03T13:11:32.059Z</time></trkpt><trkpt lat="46.0677986" lon="11.2256261"><ele>459.40000000000003</ele><time>2026-05-03T13:11:33.06Z</time></trkpt><trkpt lat="46.0678871" lon="11.2255414"><ele>458.6</ele><time>2026-05-03T13:11:34.059Z</time></trkpt><trkpt lat="46.0679747" lon="11.2254518"><ele>457.8</ele><time>2026-05-03T13:11:35.06Z</time></trkpt><trkpt lat="46.0680566" lon="11.225371"><ele>457.0</ele><time>2026-05-03T13:11:36.059Z</time></trkpt><trkpt lat="46.0681348" lon="11.225288"><ele>457.0</ele><time>2026-05-03T13:11:37.06Z</time></trkpt><trkpt lat="46.0682095" lon="11.2252127"><ele>457.00000000000006</ele><time>2026-05-03T13:11:38.06Z</time></trkpt><trkpt lat="46.0682855" lon="11.2251321"><ele>457.00000000000006</ele><time>2026-05-03T13:11:39.06Z</time></trkpt><trkpt lat="46.0683687" lon="11.2250505"><ele>457.0</ele><time>2026-05-03T13:11:40.059Z</time></trkpt><trkpt lat="46.068455" lon="11.2249726"><ele>457.0</ele><time>2026-05-03T13:11:41.059Z</time></trkpt><trkpt lat="46.0685479" lon="11.224892"><ele>457.0</ele><time>2026-05-03T13:11:42.06Z</time></trkpt><trkpt lat="46.0686465" lon="11.2248023"><ele>457.0</ele><time>2026-05-03T13:11:43.06Z</time></trkpt><trkpt lat="46.0687462" lon="11.2247115"><ele>457.0</ele><time>2026-05-03T13:11:44.059Z</time></trkpt><trkpt lat="46.0688486" lon="11.2246189"><ele>457.0</ele><time>2026-05-03T13:11:45.059Z</time></trkpt><trkpt lat="46.0689479" lon="11.224525"><ele>457.0</ele><time>2026-05-03T13:11:46.059Z</time></trkpt><trkpt lat="46.0690397" lon="11.2244368"><ele>457.0</ele><time>2026-05-03T13:11:47.059Z</time></trkpt><trkpt lat="46.0691363" lon="11.2243439"><ele>457.0</ele><time>2026-05-03T13:11:48.06Z</time></trkpt><trkpt lat="46.0692351" lon="11.2242529"><ele>457.0</ele><time>2026-05-03T13:11:49.059Z</time></trkpt><trkpt lat="46.0693326" lon="11.2241608"><ele>457.0</ele><time>2026-05-03T13:11:50.059Z</time></trkpt><trkpt lat="46.0694287" lon="11.2240678"><ele>457.0</ele><time>2026-05-03T13:11:51.06Z</time></trkpt><trkpt lat="46.0695235" lon="11.2239707"><ele>457.0</ele><time>2026-05-03T13:11:52.06Z</time></trkpt><trkpt lat="46.0696134" lon="11.2238604"><ele>457.0</ele><time>2026-05-03T13:11:53.06Z</time></trkpt><trkpt lat="46.0697" lon="11.2237431"><ele>456.25</ele><time>2026-05-03T13:11:54.06Z</time></trkpt><trkpt lat="46.0697853" lon="11.2236192"><ele>455.5</ele><time>2026-05-03T13:11:55.06Z</time></trkpt><trkpt lat="46.0698646" lon="11.2234811"><ele>454.75</ele><time>2026-05-03T13:11:56.06Z</time></trkpt><trkpt lat="46.0699333" lon="11.2233363"><ele>454.0</ele><time>2026-05-03T13:11:57.06Z</time></trkpt><trkpt lat="46.0699844" lon="11.2231825"><ele>455.0</ele><time>2026-05-03T13:11:58.059Z</time></trkpt><trkpt lat="46.0700231" lon="11.2230185"><ele>456.0</ele><time>2026-05-03T13:11:59.059Z</time></trkpt><trkpt lat="46.0700585" lon="11.2228529"><ele>457.0</ele><time>2026-05-03T13:12:00.06Z</time></trkpt><trkpt lat="46.0700808" lon="11.2226777"><ele>458.0</ele><time>2026-05-03T13:12:01.06Z</time></trkpt><trkpt lat="46.0700965" lon="11.222503"><ele>458.0</ele><time>2026-05-03T13:12:02.059Z</time></trkpt><trkpt lat="46.07011" lon="11.2223307"><ele>458.0</ele><time>2026-05-03T13:12:03.06Z</time></trkpt><trkpt lat="46.0701255" lon="11.2221509"><ele>458.0</ele><time>2026-05-03T13:12:04.059Z</time></trkpt><trkpt lat="46.0701482" lon="11.2219748"><ele>458.0</ele><time>2026-05-03T13:12:05.06Z</time></trkpt><trkpt lat="46.0701715" lon="11.2218129"><ele>457.4</ele><time>2026-05-03T13:12:06.06Z</time></trkpt><trkpt lat="46.0701983" lon="11.2216648"><ele>456.79999999999995</ele><time>2026-05-03T13:12:07.06Z</time></trkpt><trkpt lat="46.0702258" lon="11.2215161"><ele>456.2</ele><time>2026-05-03T13:12:08.059Z</time></trkpt><trkpt lat="46.0702484" lon="11.2213613"><ele>455.6</ele><time>2026-05-03T13:12:09.06Z</time></trkpt><trkpt lat="46.0702629" lon="11.2211958"><ele>455.0</ele><time>2026-05-03T13:12:10.06Z</time></trkpt><trkpt lat="46.0702704" lon="11.2210234"><ele>453.75</ele><time>2026-05-03T13:12:11.06Z</time></trkpt><trkpt lat="46.0702817" lon="11.220844"><ele>452.5</ele><time>2026-05-03T13:12:12.06Z</time></trkpt><trkpt lat="46.0702945" lon="11.2206578"><ele>451.25</ele><time>2026-05-03T13:12:13.06Z</time></trkpt><trkpt lat="46.0703141" lon="11.2204658"><ele>450.0</ele><time>2026-05-03T13:12:14.06Z</time></trkpt><trkpt lat="46.0703335" lon="11.2202746"><ele>449.5</ele><time>2026-05-03T13:12:15.059Z</time></trkpt><trkpt lat="46.0703554" lon="11.2200805"><ele>449.0</ele><time>2026-05-03T13:12:16.06Z</time></trkpt><trkpt lat="46.0703774" lon="11.2198879"><ele>448.5</ele><time>2026-05-03T13:12:17.059Z</time></trkpt><trkpt lat="46.0703964" lon="11.2196978"><ele>448.0</ele><time>2026-05-03T13:12:18.06Z</time></trkpt><trkpt lat="46.0704199" lon="11.2195112"><ele>448.0</ele><time>2026-05-03T13:12:19.06Z</time></trkpt><trkpt lat="46.0704392" lon="11.2193254"><ele>448.0</ele><time>2026-05-03T13:12:20.06Z</time></trkpt><trkpt lat="46.0704584" lon="11.2191462"><ele>448.0</ele><time>2026-05-03T13:12:21.06Z</time></trkpt><trkpt lat="46.070475" lon="11.2189671"><ele>448.0</ele><time>2026-05-03T13:12:22.06Z</time></trkpt><trkpt lat="46.0704927" lon="11.2187808"><ele>447.5</ele><time>2026-05-03T13:12:23.06Z</time></trkpt><trkpt lat="46.0705078" lon="11.2185939"><ele>447.0</ele><time>2026-05-03T13:12:24.06Z</time></trkpt><trkpt lat="46.0705268" lon="11.2184036"><ele>446.5</ele><time>2026-05-03T13:12:25.06Z</time></trkpt><trkpt lat="46.0705581" lon="11.2182179"><ele>446.0</ele><time>2026-05-03T13:12:26.059Z</time></trkpt><trkpt lat="46.0706083" lon="11.2180416"><ele>446.25</ele><time>2026-05-03T13:12:27.059Z</time></trkpt><trkpt lat="46.0706781" lon="11.2178861"><ele>446.5</ele><time>2026-05-03T13:12:28.06Z</time></trkpt><trkpt lat="46.0707606" lon="11.2177294"><ele>446.75</ele><time>2026-05-03T13:12:29.06Z</time></trkpt><trkpt lat="46.0708406" lon="11.2175915"><ele>447.0</ele><time>2026-05-03T13:12:30.059Z</time></trkpt><trkpt lat="46.070925" lon="11.2174638"><ele>447.0</ele><time>2026-05-03T13:12:31.06Z</time></trkpt><trkpt lat="46.0710108" lon="11.2173501"><ele>447.00000000000006</ele><time>2026-05-03T13:12:32.059Z</time></trkpt><trkpt lat="46.0710944" lon="11.2172403"><ele>447.00000000000006</ele><time>2026-05-03T13:12:33.06Z</time></trkpt><trkpt lat="46.0711749" lon="11.217135"><ele>447.0</ele><time>2026-05-03T13:12:34.059Z</time></trkpt><trkpt lat="46.0712546" lon="11.2170345"><ele>447.0</ele><time>2026-05-03T13:12:35.06Z</time></trkpt><trkpt lat="46.0713297" lon="11.2169311"><ele>446.25</ele><time>2026-05-03T13:12:36.06Z</time></trkpt><trkpt lat="46.0714019" lon="11.2168249"><ele>445.5</ele><time>2026-05-03T13:12:37.06Z</time></trkpt><trkpt lat="46.0714802" lon="11.216712"><ele>444.75</ele><time>2026-05-03T13:12:38.06Z</time></trkpt><trkpt lat="46.071562" lon="11.2165893"><ele>444.0</ele><time>2026-05-03T13:12:39.06Z</time></trkpt><trkpt lat="46.0716508" lon="11.2164581"><ele>443.25</ele><time>2026-05-03T13:12:40.06Z</time></trkpt><trkpt lat="46.0717561" lon="11.2163193"><ele>442.5</ele><time>2026-05-03T13:12:41.06Z</time></trkpt><trkpt lat="46.0718605" lon="11.2161739"><ele>441.75</ele><time>2026-05-03T13:12:42.06Z</time></trkpt><trkpt lat="46.0719704" lon="11.2160271"><ele>441.0</ele><time>2026-05-03T13:12:43.06Z</time></trkpt><trkpt lat="46.0720825" lon="11.215881"><ele>441.0</ele><time>2026-05-03T13:12:44.059Z</time></trkpt><trkpt lat="46.0721992" lon="11.2157253"><ele>441.0</ele><time>2026-05-03T13:12:45.06Z</time></trkpt><trkpt lat="46.07232" lon="11.2155742"><ele>441.0</ele><time>2026-05-03T13:12:46.06Z</time></trkpt><trkpt lat="46.0724356" lon="11.2154151"><ele>441.0</ele><time>2026-05-03T13:12:47.059Z</time></trkpt><trkpt lat="46.0725536" lon="11.2152521"><ele>441.0</ele><time>2026-05-03T13:12:48.06Z</time></trkpt><trkpt lat="46.0726643" lon="11.2150817"><ele>441.0</ele><time>2026-05-03T13:12:49.06Z</time></trkpt><trkpt lat="46.0727766" lon="11.2149003"><ele>440.0</ele><time>2026-05-03T13:12:50.06Z</time></trkpt><trkpt lat="46.0728789" lon="11.2147098"><ele>439.0</ele><time>2026-05-03T13:12:51.06Z</time></trkpt><trkpt lat="46.0729765" lon="11.2145144"><ele>438.0</ele><time>2026-05-03T13:12:52.06Z</time></trkpt><trkpt lat="46.0730801" lon="11.2143147"><ele>438.0</ele><time>2026-05-03T13:12:53.06Z</time></trkpt><trkpt lat="46.0731846" lon="11.2141162"><ele>438.0</ele><time>2026-05-03T13:12:54.06Z</time></trkpt><trkpt lat="46.0732893" lon="11.21392"><ele>438.0</ele><time>2026-05-03T13:12:55.06Z</time></trkpt><trkpt lat="46.073395" lon="11.2137201"><ele>438.33333333333337</ele><time>2026-05-03T13:12:56.06Z</time></trkpt><trkpt lat="46.0734991" lon="11.2135173"><ele>438.6666666666667</ele><time>2026-05-03T13:12:57.06Z</time></trkpt><trkpt lat="46.073603" lon="11.21332"><ele>439.0</ele><time>2026-05-03T13:12:58.06Z</time></trkpt><trkpt lat="46.073708" lon="11.2131279"><ele>436.6666666666667</ele><time>2026-05-03T13:12:59.059Z</time></trkpt><trkpt lat="46.0738068" lon="11.2129304"><ele>434.33333333333337</ele><time>2026-05-03T13:13:00.06Z</time></trkpt><trkpt lat="46.0739041" lon="11.2127407"><ele>432.0</ele><time>2026-05-03T13:13:01.06Z</time></trkpt><trkpt lat="46.0740024" lon="11.2125549"><ele>432.0</ele><time>2026-05-03T13:13:02.06Z</time></trkpt><trkpt lat="46.074103" lon="11.2123714"><ele>432.0</ele><time>2026-05-03T13:13:03.06Z</time></trkpt><trkpt lat="46.0742015" lon="11.2121845"><ele>432.0</ele><time>2026-05-03T13:13:04.06Z</time></trkpt><trkpt lat="46.0742989" lon="11.2119954"><ele>432.33333333333337</ele><time>2026-05-03T13:13:05.059Z</time></trkpt><trkpt lat="46.0743973" lon="11.2118091"><ele>432.6666666666667</ele><time>2026-05-03T13:13:06.06Z</time></trkpt><trkpt lat="46.0744937" lon="11.2116244"><ele>433.0</ele><time>2026-05-03T13:13:07.059Z</time></trkpt><trkpt lat="46.0745906" lon="11.211438"><ele>433.0</ele><time>2026-05-03T13:13:08.06Z</time></trkpt><trkpt lat="46.0746921" lon="11.2112464"><ele>433.0</ele><time>2026-05-03T13:13:09.059Z</time></trkpt><trkpt lat="46.0747943" lon="11.21106"><ele>433.0</ele><time>2026-05-03T13:13:10.06Z</time></trkpt><trkpt lat="46.0748969" lon="11.2108719"><ele>432.6666666666667</ele><time>2026-05-03T13:13:11.059Z</time></trkpt><trkpt lat="46.0749929" lon="11.2106793"><ele>432.33333333333337</ele><time>2026-05-03T13:13:12.06Z</time></trkpt><trkpt lat="46.0750923" lon="11.2104859"><ele>432.0</ele><time>2026-05-03T13:13:13.06Z</time></trkpt><trkpt lat="46.0751938" lon="11.2102953"><ele>431.66666666666663</ele><time>2026-05-03T13:13:14.06Z</time></trkpt><trkpt lat="46.0752904" lon="11.2100973"><ele>431.3333333333333</ele><time>2026-05-03T13:13:15.059Z</time></trkpt><trkpt lat="46.0753858" lon="11.2098932"><ele>431.0</ele><time>2026-05-03T13:13:16.059Z</time></trkpt><trkpt lat="46.075471" lon="11.2096856"><ele>431.0</ele><time>2026-05-03T13:13:17.06Z</time></trkpt><trkpt lat="46.0755542" lon="11.2094785"><ele>431.0</ele><time>2026-05-03T13:13:18.06Z</time></trkpt><trkpt lat="46.0756288" lon="11.2092599"><ele>431.0</ele><time>2026-05-03T13:13:19.059Z</time></trkpt><trkpt lat="46.0757001" lon="11.2090371"><ele>431.0</ele><time>2026-05-03T13:13:20.06Z</time></trkpt><trkpt lat="46.0757735" lon="11.2088163"><ele>431.0</ele><time>2026-05-03T13:13:21.06Z</time></trkpt><trkpt lat="46.0758482" lon="11.2085971"><ele>431.0</ele><time>2026-05-03T13:13:22.059Z</time></trkpt><trkpt lat="46.0759199" lon="11.2083725"><ele>429.66666666666663</ele><time>2026-05-03T13:13:23.059Z</time></trkpt><trkpt lat="46.0759943" lon="11.2081507"><ele>428.33333333333337</ele><time>2026-05-03T13:13:24.06Z</time></trkpt><trkpt lat="46.0760704" lon="11.2079229"><ele>427.0</ele><time>2026-05-03T13:13:25.059Z</time></trkpt><trkpt lat="46.0761471" lon="11.2076981"><ele>427.0</ele><time>2026-05-03T13:13:26.06Z</time></trkpt><trkpt lat="46.0762222" lon="11.207474"><ele>427.0</ele><time>2026-05-03T13:13:27.059Z</time></trkpt><trkpt lat="46.0762945" lon="11.2072543"><ele>427.0</ele><time>2026-05-03T13:13:28.06Z</time></trkpt><trkpt lat="46.0763694" lon="11.2070317"><ele>426.6666666666667</ele><time>2026-05-03T13:13:29.06Z</time></trkpt><trkpt lat="46.0764442" lon="11.2068175"><ele>426.33333333333337</ele><time>2026-05-03T13:13:30.06Z</time></trkpt><trkpt lat="46.0765256" lon="11.2066"><ele>426.0</ele><time>2026-05-03T13:13:31.06Z</time></trkpt><trkpt lat="46.0766141" lon="11.2063896"><ele>426.66666666666663</ele><time>2026-05-03T13:13:32.06Z</time></trkpt><trkpt lat="46.0767056" lon="11.2061829"><ele>427.3333333333333</ele><time>2026-05-03T13:13:33.059Z</time></trkpt><trkpt lat="46.0768027" lon="11.2059864"><ele>428.0</ele><time>2026-05-03T13:13:34.06Z</time></trkpt><trkpt lat="46.0769039" lon="11.2057935"><ele>427.3333333333333</ele><time>2026-05-03T13:13:35.06Z</time></trkpt><trkpt lat="46.0770076" lon="11.2056075"><ele>426.66666666666663</ele><time>2026-05-03T13:13:36.06Z</time></trkpt><trkpt lat="46.0771122" lon="11.205429"><ele>426.0</ele><time>2026-05-03T13:13:37.06Z</time></trkpt><trkpt lat="46.0772178" lon="11.2052512"><ele>426.0</ele><time>2026-05-03T13:13:38.06Z</time></trkpt><trkpt lat="46.0773284" lon="11.2050817"><ele>426.0</ele><time>2026-05-03T13:13:39.059Z</time></trkpt><trkpt lat="46.0774393" lon="11.2049137"><ele>426.0</ele><time>2026-05-03T13:13:40.06Z</time></trkpt><trkpt lat="46.0775523" lon="11.2047545"><ele>425.66666666666663</ele><time>2026-05-03T13:13:41.06Z</time></trkpt><trkpt lat="46.0776617" lon="11.2045949"><ele>425.3333333333333</ele><time>2026-05-03T13:13:42.06Z</time></trkpt><trkpt lat="46.077781" lon="11.2044361"><ele>425.0</ele><time>2026-05-03T13:13:43.06Z</time></trkpt><trkpt lat="46.0778938" lon="11.204285"><ele>425.0</ele><time>2026-05-03T13:13:44.06Z</time></trkpt><trkpt lat="46.0780118" lon="11.2041241"><ele>425.0</ele><time>2026-05-03T13:13:45.059Z</time></trkpt><trkpt lat="46.0781291" lon="11.2039659"><ele>425.0</ele><time>2026-05-03T13:13:46.059Z</time></trkpt><trkpt lat="46.0782432" lon="11.2038122"><ele>424.0</ele><time>2026-05-03T13:13:47.06Z</time></trkpt><trkpt lat="46.0783567" lon="11.2036647"><ele>423.0</ele><time>2026-05-03T13:13:48.059Z</time></trkpt><trkpt lat="46.0784677" lon="11.2035174"><ele>422.0</ele><time>2026-05-03T13:13:49.06Z</time></trkpt><trkpt lat="46.0785805" lon="11.2033665"><ele>422.0</ele><time>2026-05-03T13:13:50.06Z</time></trkpt><trkpt lat="46.0786901" lon="11.2032128"><ele>422.0</ele><time>2026-05-03T13:13:51.06Z</time></trkpt><trkpt lat="46.078801" lon="11.203053"><ele>422.0</ele><time>2026-05-03T13:13:52.06Z</time></trkpt><trkpt lat="46.0789154" lon="11.2028871"><ele>422.0</ele><time>2026-05-03T13:13:53.059Z</time></trkpt><trkpt lat="46.0790272" lon="11.2027121"><ele>422.0</ele><time>2026-05-03T13:13:54.06Z</time></trkpt><trkpt lat="46.0791454" lon="11.2025334"><ele>422.0</ele><time>2026-05-03T13:13:55.06Z</time></trkpt><trkpt lat="46.0792717" lon="11.2023584"><ele>421.66666666666663</ele><time>2026-05-03T13:13:56.059Z</time></trkpt><trkpt lat="46.0794073" lon="11.2021727"><ele>421.33333333333337</ele><time>2026-05-03T13:13:57.06Z</time></trkpt><trkpt lat="46.0795415" lon="11.2019916"><ele>421.0</ele><time>2026-05-03T13:13:58.06Z</time></trkpt><trkpt lat="46.079675" lon="11.201814"><ele>421.0</ele><time>2026-05-03T13:13:59.06Z</time></trkpt><trkpt lat="46.0798024" lon="11.2016306"><ele>421.0</ele><time>2026-05-03T13:14:00.059Z</time></trkpt><trkpt lat="46.0799288" lon="11.2014357"><ele>421.0</ele><time>2026-05-03T13:14:01.06Z</time></trkpt><trkpt lat="46.0800464" lon="11.2012342"><ele>419.6666666666667</ele><time>2026-05-03T13:14:02.06Z</time></trkpt><trkpt lat="46.080163" lon="11.2010291"><ele>418.33333333333337</ele><time>2026-05-03T13:14:03.06Z</time></trkpt><trkpt lat="46.0802718" lon="11.2008196"><ele>417.0</ele><time>2026-05-03T13:14:04.059Z</time></trkpt><trkpt lat="46.080378" lon="11.2006091"><ele>417.0</ele><time>2026-05-03T13:14:05.06Z</time></trkpt><trkpt lat="46.0804739" lon="11.2003894"><ele>417.0</ele><time>2026-05-03T13:14:06.06Z</time></trkpt><trkpt lat="46.0805691" lon="11.2001733"><ele>417.0</ele><time>2026-05-03T13:14:07.06Z</time></trkpt><trkpt lat="46.0806636" lon="11.199957"><ele>417.0</ele><time>2026-05-03T13:14:08.06Z</time></trkpt><trkpt lat="46.0807568" lon="11.1997393"><ele>417.0</ele><time>2026-05-03T13:14:09.059Z</time></trkpt><trkpt lat="46.0808523" lon="11.1995213"><ele>417.0</ele><time>2026-05-03T13:14:10.059Z</time></trkpt><trkpt lat="46.0809435" lon="11.1993071"><ele>414.66666666666663</ele><time>2026-05-03T13:14:11.059Z</time></trkpt><trkpt lat="46.0810363" lon="11.1990899"><ele>412.3333333333333</ele><time>2026-05-03T13:14:12.06Z</time></trkpt><trkpt lat="46.0811295" lon="11.1988775"><ele>410.0</ele><time>2026-05-03T13:14:13.06Z</time></trkpt><trkpt lat="46.0812246" lon="11.1986565"><ele>409.66666666666663</ele><time>2026-05-03T13:14:14.06Z</time></trkpt><trkpt lat="46.0813173" lon="11.1984458"><ele>409.33333333333337</ele><time>2026-05-03T13:14:15.06Z</time></trkpt><trkpt lat="46.0814056" lon="11.1982403"><ele>409.0</ele><time>2026-05-03T13:14:16.06Z</time></trkpt><trkpt lat="46.0814863" lon="11.1980357"><ele>409.0</ele><time>2026-05-03T13:14:17.059Z</time></trkpt><trkpt lat="46.0815648" lon="11.1978362"><ele>409.0</ele><time>2026-05-03T13:14:18.06Z</time></trkpt><trkpt lat="46.0816347" lon="11.1976481"><ele>409.0</ele><time>2026-05-03T13:14:19.06Z</time></trkpt><trkpt lat="46.0817015" lon="11.1974542"><ele>407.75</ele><time>2026-05-03T13:14:20.06Z</time></trkpt><trkpt lat="46.0817556" lon="11.1972637"><ele>406.5</ele><time>2026-05-03T13:14:21.06Z</time></trkpt><trkpt lat="46.0818063" lon="11.1970861"><ele>405.25</ele><time>2026-05-03T13:14:22.06Z</time></trkpt><trkpt lat="46.0818459" lon="11.1969032"><ele>404.0</ele><time>2026-05-03T13:14:23.06Z</time></trkpt><trkpt lat="46.0818775" lon="11.1967157"><ele>404.0</ele><time>2026-05-03T13:14:24.06Z</time></trkpt><trkpt lat="46.0819044" lon="11.1965282"><ele>404.0</ele><time>2026-05-03T13:14:25.06Z</time></trkpt><trkpt lat="46.0819238" lon="11.1963261"><ele>404.0</ele><time>2026-05-03T13:14:26.06Z</time></trkpt><trkpt lat="46.0819417" lon="11.196116"><ele>404.0</ele><time>2026-05-03T13:14:27.06Z</time></trkpt><trkpt lat="46.0819577" lon="11.1959018"><ele>403.3333333333333</ele><time>2026-05-03T13:14:28.06Z</time></trkpt><trkpt lat="46.0819754" lon="11.1956688"><ele>402.66666666666663</ele><time>2026-05-03T13:14:29.06Z</time></trkpt><trkpt lat="46.081996" lon="11.1954334"><ele>402.0</ele><time>2026-05-03T13:14:30.06Z</time></trkpt><trkpt lat="46.082011" lon="11.1951944"><ele>402.0</ele><time>2026-05-03T13:14:31.06Z</time></trkpt><trkpt lat="46.0820326" lon="11.1949426"><ele>402.0</ele><time>2026-05-03T13:14:32.06Z</time></trkpt><trkpt lat="46.0820555" lon="11.1946866"><ele>402.0</ele><time>2026-05-03T13:14:33.059Z</time></trkpt><trkpt lat="46.0820761" lon="11.194424"><ele>401.0</ele><time>2026-05-03T13:14:34.059Z</time></trkpt><trkpt lat="46.0820989" lon="11.1941526"><ele>400.0</ele><time>2026-05-03T13:14:35.059Z</time></trkpt><trkpt lat="46.0821203" lon="11.1938873"><ele>399.0</ele><time>2026-05-03T13:14:36.06Z</time></trkpt><trkpt lat="46.0821411" lon="11.1936216"><ele>398.0</ele><time>2026-05-03T13:14:37.06Z</time></trkpt><trkpt lat="46.0821615" lon="11.1933569"><ele>397.0</ele><time>2026-05-03T13:14:38.059Z</time></trkpt><trkpt lat="46.0821838" lon="11.1930941"><ele>396.0</ele><time>2026-05-03T13:14:39.06Z</time></trkpt><trkpt lat="46.0822107" lon="11.1928344"><ele>394.66666666666663</ele><time>2026-05-03T13:14:40.06Z</time></trkpt><trkpt lat="46.0822339" lon="11.1925814"><ele>393.3333333333333</ele><time>2026-05-03T13:14:41.06Z</time></trkpt><trkpt lat="46.0822517" lon="11.1923335"><ele>392.0</ele><time>2026-05-03T13:14:42.059Z</time></trkpt><trkpt lat="46.0822696" lon="11.1920826"><ele>391.0</ele><time>2026-05-03T13:14:43.06Z</time></trkpt><trkpt lat="46.082289" lon="11.1918337"><ele>390.0</ele><time>2026-05-03T13:14:44.06Z</time></trkpt><trkpt lat="46.0823111" lon="11.1915881"><ele>389.0</ele><time>2026-05-03T13:14:45.059Z</time></trkpt><trkpt lat="46.0823343" lon="11.1913421"><ele>388.0</ele><time>2026-05-03T13:14:46.06Z</time></trkpt><trkpt lat="46.082363" lon="11.1910886"><ele>387.0</ele><time>2026-05-03T13:14:47.06Z</time></trkpt><trkpt lat="46.0823936" lon="11.1908375"><ele>386.0</ele><time>2026-05-03T13:14:48.06Z</time></trkpt><trkpt lat="46.082424" lon="11.1905893"><ele>388.66666666666663</ele><time>2026-05-03T13:14:49.06Z</time></trkpt><trkpt lat="46.0824531" lon="11.190344"><ele>391.33333333333337</ele><time>2026-05-03T13:14:50.059Z</time></trkpt><trkpt lat="46.0824821" lon="11.190088"><ele>394.0</ele><time>2026-05-03T13:14:51.06Z</time></trkpt><trkpt lat="46.0825057" lon="11.1898377"><ele>394.0</ele><time>2026-05-03T13:14:52.06Z</time></trkpt><trkpt lat="46.0825221" lon="11.1895811"><ele>394.0</ele><time>2026-05-03T13:14:53.06Z</time></trkpt><trkpt lat="46.0825283" lon="11.1893274"><ele>394.0</ele><time>2026-05-03T13:14:54.06Z</time></trkpt><trkpt lat="46.0825253" lon="11.1890745"><ele>393.0</ele><time>2026-05-03T13:14:55.06Z</time></trkpt><trkpt lat="46.0825131" lon="11.1888222"><ele>392.0</ele><time>2026-05-03T13:14:56.06Z</time></trkpt><trkpt lat="46.0824916" lon="11.1885679"><ele>391.0</ele><time>2026-05-03T13:14:57.059Z</time></trkpt><trkpt lat="46.0824673" lon="11.18831"><ele>393.6666666666667</ele><time>2026-05-03T13:14:58.059Z</time></trkpt><trkpt lat="46.0824415" lon="11.1880563"><ele>396.33333333333337</ele><time>2026-05-03T13:14:59.059Z</time></trkpt><trkpt lat="46.0824096" lon="11.1878101"><ele>399.0</ele><time>2026-05-03T13:15:00.059Z</time></trkpt><trkpt lat="46.0823843" lon="11.1875657"><ele>394.0</ele><time>2026-05-03T13:15:01.06Z</time></trkpt><trkpt lat="46.08236" lon="11.1873185"><ele>389.0</ele><time>2026-05-03T13:15:02.06Z</time></trkpt><trkpt lat="46.0823398" lon="11.1870754"><ele>384.0</ele><time>2026-05-03T13:15:03.059Z</time></trkpt><trkpt lat="46.0823231" lon="11.1868283"><ele>384.0</ele><time>2026-05-03T13:15:04.06Z</time></trkpt><trkpt lat="46.0823156" lon="11.186591"><ele>384.0</ele><time>2026-05-03T13:15:05.06Z</time></trkpt><trkpt lat="46.0823256" lon="11.1863449"><ele>384.0</ele><time>2026-05-03T13:15:06.06Z</time></trkpt><trkpt lat="46.0823511" lon="11.1861065"><ele>384.66666666666663</ele><time>2026-05-03T13:15:07.059Z</time></trkpt><trkpt lat="46.0823917" lon="11.1858691"><ele>385.3333333333333</ele><time>2026-05-03T13:15:08.06Z</time></trkpt><trkpt lat="46.0824543" lon="11.1856317"><ele>386.0</ele><time>2026-05-03T13:15:09.06Z</time></trkpt><trkpt lat="46.0825274" lon="11.1854044"><ele>386.0</ele><time>2026-05-03T13:15:10.06Z</time></trkpt><trkpt lat="46.0826131" lon="11.1851801"><ele>386.0</ele><time>2026-05-03T13:15:11.06Z</time></trkpt><trkpt lat="46.0827053" lon="11.1849537"><ele>386.0</ele><time>2026-05-03T13:15:12.059Z</time></trkpt><trkpt lat="46.0827939" lon="11.1847336"><ele>386.0</ele><time>2026-05-03T13:15:13.06Z</time></trkpt><trkpt lat="46.082882" lon="11.184515"><ele>386.0</ele><time>2026-05-03T13:15:14.06Z</time></trkpt><trkpt lat="46.0829753" lon="11.1842984"><ele>386.0</ele><time>2026-05-03T13:15:15.06Z</time></trkpt><trkpt lat="46.0830615" lon="11.1840861"><ele>385.0</ele><time>2026-05-03T13:15:16.06Z</time></trkpt><trkpt lat="46.0831451" lon="11.1838696"><ele>384.0</ele><time>2026-05-03T13:15:17.06Z</time></trkpt><trkpt lat="46.0832263" lon="11.1836525"><ele>383.0</ele><time>2026-05-03T13:15:18.06Z</time></trkpt><trkpt lat="46.0832951" lon="11.1834336"><ele>388.6666666666667</ele><time>2026-05-03T13:15:19.059Z</time></trkpt><trkpt lat="46.0833591" lon="11.1832056"><ele>394.33333333333337</ele><time>2026-05-03T13:15:20.059Z</time></trkpt><trkpt lat="46.0834044" lon="11.1829764"><ele>400.0</ele><time>2026-05-03T13:15:21.06Z</time></trkpt><trkpt lat="46.0834412" lon="11.1827387"><ele>400.0</ele><time>2026-05-03T13:15:22.06Z</time></trkpt><trkpt lat="46.0834604" lon="11.1825008"><ele>400.0</ele><time>2026-05-03T13:15:23.06Z</time></trkpt><trkpt lat="46.0834689" lon="11.1822564"><ele>400.0</ele><time>2026-05-03T13:15:24.058Z</time></trkpt><trkpt lat="46.0834537" lon="11.1820183"><ele>401.0</ele><time>2026-05-03T13:15:25.059Z</time></trkpt><trkpt lat="46.0834273" lon="11.1817768"><ele>402.0</ele><time>2026-05-03T13:15:26.059Z</time></trkpt><trkpt lat="46.0833897" lon="11.1815361"><ele>403.0</ele><time>2026-05-03T13:15:27.058Z</time></trkpt><trkpt lat="46.0833494" lon="11.1812983"><ele>407.0</ele><time>2026-05-03T13:15:28.059Z</time></trkpt><trkpt lat="46.0833112" lon="11.181049"><ele>411.0</ele><time>2026-05-03T13:15:29.058Z</time></trkpt><trkpt lat="46.0832314" lon="11.1794483"><ele>401.0</ele><time>2026-05-03T13:15:36.059Z</time></trkpt><trkpt lat="46.0832079" lon="11.1791392"><ele>391.0</ele><time>2026-05-03T13:15:37.059Z</time></trkpt><trkpt lat="46.0832017" lon="11.1788894"><ele>381.0</ele><time>2026-05-03T13:15:38.059Z</time></trkpt><trkpt lat="46.0831964" lon="11.1786523"><ele>380.0</ele><time>2026-05-03T13:15:39.059Z</time></trkpt><trkpt lat="46.0831868" lon="11.1784028"><ele>379.0</ele><time>2026-05-03T13:15:40.059Z</time></trkpt><trkpt lat="46.0831706" lon="11.1781544"><ele>378.0</ele><time>2026-05-03T13:15:41.059Z</time></trkpt><trkpt lat="46.0831365" lon="11.1778734"><ele>377.6666666666667</ele><time>2026-05-03T13:15:42.059Z</time></trkpt><trkpt lat="46.0831241" lon="11.1776228"><ele>377.33333333333337</ele><time>2026-05-03T13:15:43.059Z</time></trkpt><trkpt lat="46.0831079" lon="11.1773786"><ele>377.0</ele><time>2026-05-03T13:15:44.059Z</time></trkpt><trkpt lat="46.0830871" lon="11.1771298"><ele>377.0</ele><time>2026-05-03T13:15:45.058Z</time></trkpt><trkpt lat="46.0830616" lon="11.1768822"><ele>377.0</ele><time>2026-05-03T13:15:46.058Z</time></trkpt><trkpt lat="46.0830362" lon="11.176641"><ele>377.0</ele><time>2026-05-03T13:15:47.059Z</time></trkpt><trkpt lat="46.0830098" lon="11.1764007"><ele>371.6666666666667</ele><time>2026-05-03T13:15:48.059Z</time></trkpt><trkpt lat="46.0829818" lon="11.1761431"><ele>366.3333333333333</ele><time>2026-05-03T13:15:49.059Z</time></trkpt><trkpt lat="46.0829579" lon="11.1758798"><ele>361.0</ele><time>2026-05-03T13:15:50.059Z</time></trkpt><trkpt lat="46.077669" lon="11.1546015"><ele>361.0</ele><time>2026-05-03T13:17:07.059Z</time></trkpt><trkpt lat="46.0775897" lon="11.1542986"><ele>361.0</ele><time>2026-05-03T13:17:08.059Z</time></trkpt><trkpt lat="46.077511" lon="11.1539877"><ele>368.0</ele><time>2026-05-03T13:17:09.059Z</time></trkpt><trkpt lat="46.0774465" lon="11.1536718"><ele>375.0</ele><time>2026-05-03T13:17:10.058Z</time></trkpt><trkpt lat="46.0773778" lon="11.153342"><ele>229.0</ele><time>2026-05-03T13:17:11.059Z</time></trkpt><trkpt lat="46.0912445" lon="11.1225953"><ele>229.0</ele><time>2026-05-03T13:19:05.059Z</time></trkpt><trkpt lat="46.0914407" lon="11.1224904"><ele>229.0</ele><time>2026-05-03T13:19:06.059Z</time></trkpt><trkpt lat="46.0916282" lon="11.1223936"><ele>229.0</ele><time>2026-05-03T13:19:07.059Z</time></trkpt><trkpt lat="46.0918299" lon="11.1223281"><ele>223.0</ele><time>2026-05-03T13:19:08.059Z</time></trkpt><trkpt lat="46.0920335" lon="11.122259"><ele>217.0</ele><time>2026-05-03T13:19:09.059Z</time></trkpt><trkpt lat="46.0922388" lon="11.1222021"><ele>211.0</ele><time>2026-05-03T13:19:10.059Z</time></trkpt><trkpt lat="46.0924483" lon="11.1221637"><ele>211.0</ele><time>2026-05-03T13:19:11.058Z</time></trkpt><trkpt lat="46.0926734" lon="11.1221145"><ele>211.0</ele><time>2026-05-03T13:19:12.058Z</time></trkpt><trkpt lat="46.0928954" lon="11.1220628"><ele>211.0</ele><time>2026-05-03T13:19:13.059Z</time></trkpt><trkpt lat="46.0931174" lon="11.1220111"><ele>211.0</ele><time>2026-05-03T13:19:14.059Z</time></trkpt><trkpt lat="46.0933404" lon="11.1219632"><ele>212.33333333333331</ele><time>2026-05-03T13:19:15.059Z</time></trkpt><trkpt lat="46.0935572" lon="11.1219249"><ele>213.66666666666669</ele><time>2026-05-03T13:19:16.058Z</time></trkpt><trkpt lat="46.0937639" lon="11.121888"><ele>215.0</ele><time>2026-05-03T13:19:17.059Z</time></trkpt><trkpt lat="46.093968" lon="11.1218503"><ele>214.0</ele><time>2026-05-03T13:19:18.059Z</time></trkpt><trkpt lat="46.0941759" lon="11.1218063"><ele>213.0</ele><time>2026-05-03T13:19:19.059Z</time></trkpt><trkpt lat="46.094388" lon="11.1217494"><ele>212.0</ele><time>2026-05-03T13:19:20.059Z</time></trkpt><trkpt lat="46.0945981" lon="11.1216668"><ele>206.66666666666669</ele><time>2026-05-03T13:19:21.058Z</time></trkpt><trkpt lat="46.0947998" lon="11.1215549"><ele>201.33333333333331</ele><time>2026-05-03T13:19:22.059Z</time></trkpt><trkpt lat="46.0949996" lon="11.1214152"><ele>196.0</ele><time>2026-05-03T13:19:23.059Z</time></trkpt><trkpt lat="46.0951883" lon="11.1212361"><ele>196.0</ele><time>2026-05-03T13:19:24.059Z</time></trkpt><trkpt lat="46.0953562" lon="11.1210328"><ele>196.0</ele><time>2026-05-03T13:19:25.059Z</time></trkpt><trkpt lat="46.0955184" lon="11.1208128"><ele>196.0</ele><time>2026-05-03T13:19:26.059Z</time></trkpt><trkpt lat="46.0956639" lon="11.120577"><ele>195.0</ele><time>2026-05-03T13:19:27.058Z</time></trkpt><trkpt lat="46.0957918" lon="11.1203284"><ele>194.0</ele><time>2026-05-03T13:19:28.059Z</time></trkpt><trkpt lat="46.0959054" lon="11.1200668"><ele>193.0</ele><time>2026-05-03T13:19:29.059Z</time></trkpt><trkpt lat="46.0960059" lon="11.1197839"><ele>193.0</ele><time>2026-05-03T13:19:30.059Z</time></trkpt><trkpt lat="46.0960882" lon="11.1194875"><ele>193.0</ele><time>2026-05-03T13:19:31.058Z</time></trkpt><trkpt lat="46.0961664" lon="11.1191889"><ele>193.0</ele><time>2026-05-03T13:19:32.058Z</time></trkpt><trkpt lat="46.0962414" lon="11.1188857"><ele>193.0</ele><time>2026-05-03T13:19:33.058Z</time></trkpt><trkpt lat="46.0963172" lon="11.1185818"><ele>193.0</ele><time>2026-05-03T13:19:34.058Z</time></trkpt><trkpt lat="46.0963959" lon="11.1182818"><ele>193.0</ele><time>2026-05-03T13:19:35.059Z</time></trkpt><trkpt lat="46.0964717" lon="11.1179849"><ele>193.33333333333331</ele><time>2026-05-03T13:19:36.059Z</time></trkpt><trkpt lat="46.0965331" lon="11.117677"><ele>193.66666666666669</ele><time>2026-05-03T13:19:37.059Z</time></trkpt><trkpt lat="46.0965848" lon="11.1173602"><ele>194.0</ele><time>2026-05-03T13:19:38.059Z</time></trkpt><trkpt lat="46.0966169" lon="11.1170403"><ele>193.5</ele><time>2026-05-03T13:19:39.059Z</time></trkpt><trkpt lat="46.0966338" lon="11.116716"><ele>193.0</ele><time>2026-05-03T13:19:40.059Z</time></trkpt><trkpt lat="46.0966333" lon="11.1163817"><ele>193.0</ele><time>2026-05-03T13:19:41.058Z</time></trkpt><trkpt lat="46.0966108" lon="11.1160549"><ele>193.0</ele><time>2026-05-03T13:19:42.059Z</time></trkpt><trkpt lat="46.0965691" lon="11.1157093"><ele>191.5</ele><time>2026-05-03T13:19:43.059Z</time></trkpt><trkpt lat="46.0965163" lon="11.1153833"><ele>190.0</ele><time>2026-05-03T13:19:44.058Z</time></trkpt><trkpt lat="46.0964552" lon="11.1150586"><ele>190.0</ele><time>2026-05-03T13:19:45.059Z</time></trkpt><trkpt lat="46.0963904" lon="11.1147419"><ele>190.0</ele><time>2026-05-03T13:19:46.059Z</time></trkpt><trkpt lat="46.0963309" lon="11.1144288"><ele>190.0</ele><time>2026-05-03T13:19:47.058Z</time></trkpt><trkpt lat="46.0962659" lon="11.1141216"><ele>190.0</ele><time>2026-05-03T13:19:48.058Z</time></trkpt><trkpt lat="46.0962077" lon="11.1138185"><ele>190.0</ele><time>2026-05-03T13:19:49.059Z</time></trkpt><trkpt lat="46.0961547" lon="11.1135167"><ele>191.66666666666669</ele><time>2026-05-03T13:19:50.058Z</time></trkpt><trkpt lat="46.0960991" lon="11.1132214"><ele>193.33333333333334</ele><time>2026-05-03T13:19:51.058Z</time></trkpt><trkpt lat="46.0960447" lon="11.1129235"><ele>195.0</ele><time>2026-05-03T13:19:52.059Z</time></trkpt><trkpt lat="46.0959879" lon="11.1126243"><ele>193.66666666666666</ele><time>2026-05-03T13:19:53.059Z</time></trkpt><trkpt lat="46.095931" lon="11.1123162"><ele>192.33333333333331</ele><time>2026-05-03T13:19:54.058Z</time></trkpt><trkpt lat="46.0958708" lon="11.1120096"><ele>191.0</ele><time>2026-05-03T13:19:55.059Z</time></trkpt><trkpt lat="46.0958133" lon="11.111705"><ele>191.0</ele><time>2026-05-03T13:19:56.058Z</time></trkpt><trkpt lat="46.0957579" lon="11.1114046"><ele>191.0</ele><time>2026-05-03T13:19:57.058Z</time></trkpt><trkpt lat="46.0957046" lon="11.1111121"><ele>191.0</ele><time>2026-05-03T13:19:58.059Z</time></trkpt><trkpt lat="46.0956504" lon="11.1108169"><ele>191.33333333333331</ele><time>2026-05-03T13:19:59.059Z</time></trkpt><trkpt lat="46.0955949" lon="11.1105251"><ele>191.66666666666666</ele><time>2026-05-03T13:20:00.059Z</time></trkpt><trkpt lat="46.0955415" lon="11.1102337"><ele>192.0</ele><time>2026-05-03T13:20:01.059Z</time></trkpt><trkpt lat="46.0954915" lon="11.1099454"><ele>192.33333333333331</ele><time>2026-05-03T13:20:02.059Z</time></trkpt><trkpt lat="46.0954379" lon="11.1096564"><ele>192.66666666666666</ele><time>2026-05-03T13:20:03.059Z</time></trkpt><trkpt lat="46.0953835" lon="11.1093669"><ele>193.0</ele><time>2026-05-03T13:20:04.059Z</time></trkpt><trkpt lat="46.0953296" lon="11.1090767"><ele>193.0</ele><time>2026-05-03T13:20:05.058Z</time></trkpt><trkpt lat="46.0952792" lon="11.1087874"><ele>193.0</ele><time>2026-05-03T13:20:06.059Z</time></trkpt><trkpt lat="46.0952263" lon="11.108496"><ele>193.0</ele><time>2026-05-03T13:20:07.059Z</time></trkpt><trkpt lat="46.0951727" lon="11.1082052"><ele>193.0</ele><time>2026-05-03T13:20:08.059Z</time></trkpt><trkpt lat="46.095118" lon="11.1079179"><ele>193.0</ele><time>2026-05-03T13:20:09.058Z</time></trkpt><trkpt lat="46.0950534" lon="11.1076343"><ele>193.0</ele><time>2026-05-03T13:20:10.059Z</time></trkpt><trkpt lat="46.0949801" lon="11.1073564"><ele>193.33333333333331</ele><time>2026-05-03T13:20:11.058Z</time></trkpt><trkpt lat="46.0948929" lon="11.107082"><ele>193.66666666666669</ele><time>2026-05-03T13:20:12.059Z</time></trkpt><trkpt lat="46.0947926" lon="11.1068117"><ele>194.0</ele><time>2026-05-03T13:20:13.058Z</time></trkpt><trkpt lat="46.0946838" lon="11.1065264"><ele>194.0</ele><time>2026-05-03T13:20:14.058Z</time></trkpt><trkpt lat="46.0945759" lon="11.1062289"><ele>194.0</ele><time>2026-05-03T13:20:15.059Z</time></trkpt><trkpt lat="46.0944653" lon="11.105908"><ele>193.0</ele><time>2026-05-03T13:20:16.059Z</time></trkpt><trkpt lat="46.0943579" lon="11.1055856"><ele>192.0</ele><time>2026-05-03T13:20:17.058Z</time></trkpt><trkpt lat="46.0942546" lon="11.1052698"><ele>192.0</ele><time>2026-05-03T13:20:18.059Z</time></trkpt><trkpt lat="46.0941523" lon="11.1049567"><ele>192.0</ele><time>2026-05-03T13:20:19.059Z</time></trkpt><trkpt lat="46.0940493" lon="11.1046496"><ele>192.5</ele><time>2026-05-03T13:20:20.059Z</time></trkpt><trkpt lat="46.093949" lon="11.1043594"><ele>193.0</ele><time>2026-05-03T13:20:21.059Z</time></trkpt><trkpt lat="46.0938474" lon="11.1040647"><ele>193.0</ele><time>2026-05-03T13:20:22.058Z</time></trkpt><trkpt lat="46.0937443" lon="11.1037834"><ele>193.0</ele><time>2026-05-03T13:20:23.058Z</time></trkpt><trkpt lat="46.0936337" lon="11.1035153"><ele>193.0</ele><time>2026-05-03T13:20:24.058Z</time></trkpt><trkpt lat="46.0935127" lon="11.1032736"><ele>192.66666666666666</ele><time>2026-05-03T13:20:25.058Z</time></trkpt><trkpt lat="46.093381" lon="11.1030461"><ele>192.33333333333331</ele><time>2026-05-03T13:20:26.057Z</time></trkpt><trkpt lat="46.0932308" lon="11.1028496"><ele>192.0</ele><time>2026-05-03T13:20:27.058Z</time></trkpt><trkpt lat="46.093072" lon="11.1026756"><ele>191.66666666666666</ele><time>2026-05-03T13:20:28.057Z</time></trkpt><trkpt lat="46.0928988" lon="11.1025242"><ele>191.33333333333331</ele><time>2026-05-03T13:20:29.058Z</time></trkpt><trkpt lat="46.0927152" lon="11.1023907"><ele>191.0</ele><time>2026-05-03T13:20:30.058Z</time></trkpt><trkpt lat="46.0925239" lon="11.1022759"><ele>191.0</ele><time>2026-05-03T13:20:31.058Z</time></trkpt><trkpt lat="46.0923188" lon="11.1021907"><ele>191.0</ele><time>2026-05-03T13:20:32.057Z</time></trkpt><trkpt lat="46.0921086" lon="11.1021385"><ele>191.0</ele><time>2026-05-03T13:20:33.058Z</time></trkpt><trkpt lat="46.0919061" lon="11.1021182"><ele>191.0</ele><time>2026-05-03T13:20:34.057Z</time></trkpt><trkpt lat="46.0916926" lon="11.1021328"><ele>191.0</ele><time>2026-05-03T13:20:35.057Z</time></trkpt><trkpt lat="46.091485" lon="11.1021773"><ele>191.0</ele><time>2026-05-03T13:20:36.058Z</time></trkpt><trkpt lat="46.0912789" lon="11.1022418"><ele>190.66666666666666</ele><time>2026-05-03T13:20:37.058Z</time></trkpt><trkpt lat="46.091074" lon="11.1023408"><ele>190.33333333333334</ele><time>2026-05-03T13:20:38.057Z</time></trkpt><trkpt lat="46.0908695" lon="11.1024541"><ele>190.0</ele><time>2026-05-03T13:20:39.057Z</time></trkpt><trkpt lat="46.0906649" lon="11.1025821"><ele>190.0</ele><time>2026-05-03T13:20:40.057Z</time></trkpt><trkpt lat="46.090462" lon="11.1027177"><ele>190.0</ele><time>2026-05-03T13:20:41.057Z</time></trkpt><trkpt lat="46.0902588" lon="11.1028586"><ele>190.0</ele><time>2026-05-03T13:20:42.058Z</time></trkpt><trkpt lat="46.0900572" lon="11.1029979"><ele>190.0</ele><time>2026-05-03T13:20:43.058Z</time></trkpt><trkpt lat="46.0898522" lon="11.1031274"><ele>190.0</ele><time>2026-05-03T13:20:44.057Z</time></trkpt><trkpt lat="46.0896475" lon="11.1032584"><ele>190.0</ele><time>2026-05-03T13:20:45.057Z</time></trkpt><trkpt lat="46.0894407" lon="11.1033941"><ele>190.0</ele><time>2026-05-03T13:20:46.058Z</time></trkpt><trkpt lat="46.0892336" lon="11.1035331"><ele>190.0</ele><time>2026-05-03T13:20:47.058Z</time></trkpt><trkpt lat="46.0890281" lon="11.1036686"><ele>190.0</ele><time>2026-05-03T13:20:48.057Z</time></trkpt><trkpt lat="46.0888241" lon="11.1038033"><ele>190.0</ele><time>2026-05-03T13:20:49.057Z</time></trkpt><trkpt lat="46.088616" lon="11.1039396"><ele>190.5</ele><time>2026-05-03T13:20:50.057Z</time></trkpt><trkpt lat="46.0884089" lon="11.1040878"><ele>191.0</ele><time>2026-05-03T13:20:51.058Z</time></trkpt><trkpt lat="46.0882039" lon="11.1042537"><ele>191.0</ele><time>2026-05-03T13:20:52.058Z</time></trkpt><trkpt lat="46.0880104" lon="11.1044354"><ele>191.0</ele><time>2026-05-03T13:20:53.058Z</time></trkpt><trkpt lat="46.0878228" lon="11.1046228"><ele>191.0</ele><time>2026-05-03T13:20:54.057Z</time></trkpt><trkpt lat="46.0876396" lon="11.1048153"><ele>191.0</ele><time>2026-05-03T13:20:55.057Z</time></trkpt><trkpt lat="46.087462" lon="11.1050194"><ele>191.0</ele><time>2026-05-03T13:20:56.058Z</time></trkpt><trkpt lat="46.087291" lon="11.1052325"><ele>191.0</ele><time>2026-05-03T13:20:57.058Z</time></trkpt><trkpt lat="46.0871239" lon="11.1054555"><ele>191.0</ele><time>2026-05-03T13:20:58.058Z</time></trkpt><trkpt lat="46.0869631" lon="11.1056827"><ele>191.0</ele><time>2026-05-03T13:20:59.057Z</time></trkpt><trkpt lat="46.0868114" lon="11.1059242"><ele>191.0</ele><time>2026-05-03T13:21:00.057Z</time></trkpt><trkpt lat="46.0866638" lon="11.1061686"><ele>191.0</ele><time>2026-05-03T13:21:01.057Z</time></trkpt><trkpt lat="46.0865231" lon="11.106425"><ele>190.5</ele><time>2026-05-03T13:21:02.057Z</time></trkpt><trkpt lat="46.0863834" lon="11.1066852"><ele>190.0</ele><time>2026-05-03T13:21:03.057Z</time></trkpt><trkpt lat="46.0862497" lon="11.1069463"><ele>190.0</ele><time>2026-05-03T13:21:04.058Z</time></trkpt><trkpt lat="46.0861139" lon="11.107209"><ele>190.0</ele><time>2026-05-03T13:21:05.057Z</time></trkpt><trkpt lat="46.0859789" lon="11.1074687"><ele>190.0</ele><time>2026-05-03T13:21:06.058Z</time></trkpt><trkpt lat="46.0858385" lon="11.1077231"><ele>190.0</ele><time>2026-05-03T13:21:07.058Z</time></trkpt><trkpt lat="46.0856946" lon="11.1079792"><ele>190.0</ele><time>2026-05-03T13:21:08.058Z</time></trkpt><trkpt lat="46.0855532" lon="11.1082382"><ele>190.0</ele><time>2026-05-03T13:21:09.057Z</time></trkpt><trkpt lat="46.0854105" lon="11.1084935"><ele>190.0</ele><time>2026-05-03T13:21:10.058Z</time></trkpt><trkpt lat="46.0852703" lon="11.108746"><ele>190.0</ele><time>2026-05-03T13:21:11.057Z</time></trkpt><trkpt lat="46.0851319" lon="11.1089976"><ele>190.0</ele><time>2026-05-03T13:21:12.057Z</time></trkpt><trkpt lat="46.0849949" lon="11.1092514"><ele>189.66666666666669</ele><time>2026-05-03T13:21:13.058Z</time></trkpt><trkpt lat="46.0848558" lon="11.1094997"><ele>189.33333333333334</ele><time>2026-05-03T13:21:14.058Z</time></trkpt><trkpt lat="46.0847156" lon="11.109747"><ele>189.0</ele><time>2026-05-03T13:21:15.058Z</time></trkpt><trkpt lat="46.0845825" lon="11.1099879"><ele>189.66666666666666</ele><time>2026-05-03T13:21:16.058Z</time></trkpt><trkpt lat="46.0844471" lon="11.1102304"><ele>190.33333333333331</ele><time>2026-05-03T13:21:17.058Z</time></trkpt><trkpt lat="46.0843127" lon="11.1104711"><ele>191.0</ele><time>2026-05-03T13:21:18.058Z</time></trkpt><trkpt lat="46.0841797" lon="11.1107054"><ele>191.66666666666666</ele><time>2026-05-03T13:21:19.057Z</time></trkpt><trkpt lat="46.0840454" lon="11.1109449"><ele>192.33333333333331</ele><time>2026-05-03T13:21:20.058Z</time></trkpt><trkpt lat="46.0839106" lon="11.1111776"><ele>193.0</ele><time>2026-05-03T13:21:21.058Z</time></trkpt><trkpt lat="46.083775" lon="11.1114098"><ele>193.33333333333331</ele><time>2026-05-03T13:21:22.057Z</time></trkpt><trkpt lat="46.0836395" lon="11.1116402"><ele>193.66666666666669</ele><time>2026-05-03T13:21:23.058Z</time></trkpt><trkpt lat="46.0835083" lon="11.1118725"><ele>194.0</ele><time>2026-05-03T13:21:24.058Z</time></trkpt><trkpt lat="46.083378" lon="11.1121076"><ele>192.66666666666669</ele><time>2026-05-03T13:21:25.058Z</time></trkpt><trkpt lat="46.0832462" lon="11.1123382"><ele>191.33333333333334</ele><time>2026-05-03T13:21:26.058Z</time></trkpt><trkpt lat="46.0831115" lon="11.1125651"><ele>190.0</ele><time>2026-05-03T13:21:27.057Z</time></trkpt><trkpt lat="46.0829726" lon="11.1127849"><ele>190.0</ele><time>2026-05-03T13:21:28.057Z</time></trkpt><trkpt lat="46.0828179" lon="11.1129848"><ele>190.0</ele><time>2026-05-03T13:21:29.057Z</time></trkpt><trkpt lat="46.0826517" lon="11.1131559"><ele>190.0</ele><time>2026-05-03T13:21:30.058Z</time></trkpt><trkpt lat="46.0824653" lon="11.1132872"><ele>190.66666666666669</ele><time>2026-05-03T13:21:31.057Z</time></trkpt><trkpt lat="46.0822769" lon="11.1133795"><ele>191.33333333333334</ele><time>2026-05-03T13:21:32.058Z</time></trkpt><trkpt lat="46.082082" lon="11.1134451"><ele>192.0</ele><time>2026-05-03T13:21:33.058Z</time></trkpt><trkpt lat="46.0818861" lon="11.1134924"><ele>192.0</ele><time>2026-05-03T13:21:34.057Z</time></trkpt><trkpt lat="46.0816725" lon="11.1134945"><ele>192.0</ele><time>2026-05-03T13:21:35.057Z</time></trkpt><trkpt lat="46.0814748" lon="11.1134641"><ele>192.0</ele><time>2026-05-03T13:21:36.058Z</time></trkpt><trkpt lat="46.0812697" lon="11.1134235"><ele>191.33333333333334</ele><time>2026-05-03T13:21:37.058Z</time></trkpt><trkpt lat="46.0810721" lon="11.1133493"><ele>190.66666666666669</ele><time>2026-05-03T13:21:38.057Z</time></trkpt><trkpt lat="46.0808735" lon="11.1132585"><ele>190.0</ele><time>2026-05-03T13:21:39.058Z</time></trkpt><trkpt lat="46.0806812" lon="11.1131539"><ele>190.0</ele><time>2026-05-03T13:21:40.058Z</time></trkpt><trkpt lat="46.0804867" lon="11.1130445"><ele>190.0</ele><time>2026-05-03T13:21:41.057Z</time></trkpt><trkpt lat="46.0802961" lon="11.1129331"><ele>190.0</ele><time>2026-05-03T13:21:42.058Z</time></trkpt><trkpt lat="46.0801042" lon="11.112824"><ele>190.0</ele><time>2026-05-03T13:21:43.058Z</time></trkpt><trkpt lat="46.0799191" lon="11.1127178"><ele>190.0</ele><time>2026-05-03T13:21:44.057Z</time></trkpt><trkpt lat="46.079735" lon="11.1126116"><ele>190.0</ele><time>2026-05-03T13:21:45.058Z</time></trkpt><trkpt lat="46.0795533" lon="11.1125092"><ele>189.33333333333334</ele><time>2026-05-03T13:21:46.058Z</time></trkpt><trkpt lat="46.0793761" lon="11.1124024"><ele>188.66666666666666</ele><time>2026-05-03T13:21:47.058Z</time></trkpt><trkpt lat="46.0792137" lon="11.1122974"><ele>188.0</ele><time>2026-05-03T13:21:48.058Z</time></trkpt><trkpt lat="46.0790577" lon="11.1121963"><ele>188.0</ele><time>2026-05-03T13:21:49.058Z</time></trkpt><trkpt lat="46.0789099" lon="11.1121102"><ele>188.0</ele><time>2026-05-03T13:21:50.057Z</time></trkpt><trkpt lat="46.0787642" lon="11.11204"><ele>188.0</ele><time>2026-05-03T13:21:51.057Z</time></trkpt><trkpt lat="46.078617" lon="11.111993"><ele>188.0</ele><time>2026-05-03T13:21:52.057Z</time></trkpt><trkpt lat="46.0784784" lon="11.1119625"><ele>188.0</ele><time>2026-05-03T13:21:53.057Z</time></trkpt><trkpt lat="46.0783482" lon="11.1119516"><ele>188.0</ele><time>2026-05-03T13:21:54.057Z</time></trkpt><trkpt lat="46.0782339" lon="11.1119534"><ele>188.0</ele><time>2026-05-03T13:21:55.058Z</time></trkpt><trkpt lat="46.0781304" lon="11.1119641"><ele>188.60000000000002</ele><time>2026-05-03T13:21:56.057Z</time></trkpt><trkpt lat="46.0780322" lon="11.1119933"><ele>189.20000000000002</ele><time>2026-05-03T13:21:57.058Z</time></trkpt><trkpt lat="46.0779389" lon="11.1120226"><ele>189.8</ele><time>2026-05-03T13:21:58.058Z</time></trkpt><trkpt lat="46.0778464" lon="11.1120531"><ele>190.4</ele><time>2026-05-03T13:21:59.058Z</time></trkpt><trkpt lat="46.0777555" lon="11.1120779"><ele>191.0</ele><time>2026-05-03T13:22:00.057Z</time></trkpt><trkpt lat="46.0776705" lon="11.1120889"><ele>191.0</ele><time>2026-05-03T13:22:01.057Z</time></trkpt><trkpt lat="46.077591" lon="11.1120872"><ele>191.0</ele><time>2026-05-03T13:22:02.058Z</time></trkpt><trkpt lat="46.077526" lon="11.1120717"><ele>191.0</ele><time>2026-05-03T13:22:03.058Z</time></trkpt><trkpt lat="46.077418" lon="11.1120361"><ele>191.0</ele><time>2026-05-03T13:22:05.058Z</time></trkpt><trkpt lat="46.0773497" lon="11.1119779"><ele>191.0</ele><time>2026-05-03T13:22:07.058Z</time></trkpt><trkpt lat="46.0772515" lon="11.1118929"><ele>191.33333333333331</ele><time>2026-05-03T13:22:22.057Z</time></trkpt><trkpt lat="46.0772031" lon="11.1118198"><ele>191.66666666666666</ele><time>2026-05-03T13:22:24.058Z</time></trkpt><trkpt lat="46.0771465" lon="11.1117449"><ele>192.0</ele><time>2026-05-03T13:22:29.058Z</time></trkpt><trkpt lat="46.0770966" lon="11.1116448"><ele>192.33333333333331</ele><time>2026-05-03T13:22:31.058Z</time></trkpt><trkpt lat="46.0770239" lon="11.1115284"><ele>192.66666666666666</ele><time>2026-05-03T13:22:33.057Z</time></trkpt><trkpt lat="46.0769693" lon="11.1114766"><ele>193.0</ele><time>2026-05-03T13:22:34.058Z</time></trkpt><trkpt lat="46.0769033" lon="11.1114224"><ele>191.8</ele><time>2026-05-03T13:22:35.058Z</time></trkpt><trkpt lat="46.0768284" lon="11.1113895"><ele>190.60000000000002</ele><time>2026-05-03T13:22:36.058Z</time></trkpt><trkpt lat="46.0767408" lon="11.1113655"><ele>189.39999999999998</ele><time>2026-05-03T13:22:37.058Z</time></trkpt><trkpt lat="46.0766457" lon="11.1113595"><ele>188.2</ele><time>2026-05-03T13:22:38.058Z</time></trkpt><trkpt lat="46.0765488" lon="11.1113629"><ele>187.0</ele><time>2026-05-03T13:22:39.057Z</time></trkpt><trkpt lat="46.0764586" lon="11.1113702"><ele>187.0</ele><time>2026-05-03T13:22:40.057Z</time></trkpt><trkpt lat="46.076361" lon="11.1113712"><ele>187.0</ele><time>2026-05-03T13:22:41.057Z</time></trkpt><trkpt lat="46.076262" lon="11.1113385"><ele>187.0</ele><time>2026-05-03T13:22:42.057Z</time></trkpt><trkpt lat="46.0761608" lon="11.1112563"><ele>187.0</ele><time>2026-05-03T13:22:43.058Z</time></trkpt><trkpt lat="46.0760758" lon="11.1111399"><ele>187.0</ele><time>2026-05-03T13:22:44.058Z</time></trkpt><trkpt lat="46.0759906" lon="11.1110081"><ele>187.0</ele><time>2026-05-03T13:22:45.057Z</time></trkpt><trkpt lat="46.0759107" lon="11.1108592"><ele>187.0</ele><time>2026-05-03T13:22:46.058Z</time></trkpt><trkpt lat="46.0758291" lon="11.110711"><ele>187.0</ele><time>2026-05-03T13:22:47.057Z</time></trkpt><trkpt lat="46.0757445" lon="11.1105615"><ele>187.0</ele><time>2026-05-03T13:22:48.057Z</time></trkpt><trkpt lat="46.0756555" lon="11.1103967"><ele>190.0</ele><time>2026-05-03T13:22:49.057Z</time></trkpt><trkpt lat="46.0755659" lon="11.1102204"><ele>193.0</ele><time>2026-05-03T13:22:50.057Z</time></trkpt><trkpt lat="46.0754684" lon="11.110049"><ele>196.0</ele><time>2026-05-03T13:22:51.058Z</time></trkpt><trkpt lat="46.0753701" lon="11.109866"><ele>196.0</ele><time>2026-05-03T13:22:52.058Z</time></trkpt><trkpt lat="46.0752735" lon="11.1096553"><ele>196.0</ele><time>2026-05-03T13:22:53.058Z</time></trkpt><trkpt lat="46.0751769" lon="11.1094291"><ele>196.0</ele><time>2026-05-03T13:22:54.058Z</time></trkpt><trkpt lat="46.0750809" lon="11.1091861"><ele>196.66666666666666</ele><time>2026-05-03T13:22:55.057Z</time></trkpt><trkpt lat="46.0749978" lon="11.1089201"><ele>197.33333333333331</ele><time>2026-05-03T13:22:56.057Z</time></trkpt><trkpt lat="46.0749224" lon="11.1086338"><ele>198.0</ele><time>2026-05-03T13:22:57.058Z</time></trkpt><trkpt lat="46.0748587" lon="11.1083583"><ele>200.0</ele><time>2026-05-03T13:22:58.058Z</time></trkpt><trkpt lat="46.0748056" lon="11.1080892"><ele>202.0</ele><time>2026-05-03T13:22:59.058Z</time></trkpt><trkpt lat="46.0747558" lon="11.1078179"><ele>204.0</ele><time>2026-05-03T13:23:00.057Z</time></trkpt><trkpt lat="46.0747049" lon="11.1075496"><ele>202.33333333333331</ele><time>2026-05-03T13:23:01.057Z</time></trkpt><trkpt lat="46.0746531" lon="11.107282"><ele>200.66666666666666</ele><time>2026-05-03T13:23:02.057Z</time></trkpt><trkpt lat="46.0745997" lon="11.107016"><ele>199.0</ele><time>2026-05-03T13:23:03.058Z</time></trkpt><trkpt lat="46.0745442" lon="11.1067492"><ele>200.66666666666666</ele><time>2026-05-03T13:23:04.057Z</time></trkpt><trkpt lat="46.0744897" lon="11.106484"><ele>202.33333333333331</ele><time>2026-05-03T13:23:05.058Z</time></trkpt><trkpt lat="46.0744327" lon="11.1062112"><ele>204.0</ele><time>2026-05-03T13:23:06.057Z</time></trkpt><trkpt lat="46.0743761" lon="11.105948"><ele>206.33333333333331</ele><time>2026-05-03T13:23:07.057Z</time></trkpt><trkpt lat="46.0743219" lon="11.1056831"><ele>208.66666666666666</ele><time>2026-05-03T13:23:08.058Z</time></trkpt><trkpt lat="46.0742725" lon="11.1054123"><ele>211.0</ele><time>2026-05-03T13:23:09.057Z</time></trkpt><trkpt lat="46.0742227" lon="11.1051504"><ele>216.33333333333331</ele><time>2026-05-03T13:23:10.058Z</time></trkpt><trkpt lat="46.0741762" lon="11.1048786"><ele>221.66666666666669</ele><time>2026-05-03T13:23:11.057Z</time></trkpt><trkpt lat="46.0741437" lon="11.104607"><ele>227.0</ele><time>2026-05-03T13:23:12.058Z</time></trkpt><trkpt lat="46.0741296" lon="11.1043299"><ele>231.0</ele><time>2026-05-03T13:23:13.057Z</time></trkpt><trkpt lat="46.074142" lon="11.1040604"><ele>235.0</ele><time>2026-05-03T13:23:14.058Z</time></trkpt><trkpt lat="46.0741755" lon="11.1037857"><ele>239.0</ele><time>2026-05-03T13:23:15.057Z</time></trkpt><trkpt lat="46.0742289" lon="11.1035139"><ele>244.33333333333334</ele><time>2026-05-03T13:23:16.057Z</time></trkpt><trkpt lat="46.0742848" lon="11.1032382"><ele>249.66666666666669</ele><time>2026-05-03T13:23:17.058Z</time></trkpt><trkpt lat="46.0743483" lon="11.102968"><ele>255.0</ele><time>2026-05-03T13:23:18.058Z</time></trkpt><trkpt lat="46.0744193" lon="11.1027091"><ele>255.0</ele><time>2026-05-03T13:23:19.058Z</time></trkpt><trkpt lat="46.0745053" lon="11.1024513"><ele>255.0</ele><time>2026-05-03T13:23:20.058Z</time></trkpt><trkpt lat="46.0746021" lon="11.1022211"><ele>255.0</ele><time>2026-05-03T13:23:21.058Z</time></trkpt><trkpt lat="46.0747221" lon="11.1020094"><ele>254.0</ele><time>2026-05-03T13:23:22.057Z</time></trkpt><trkpt lat="46.074855" lon="11.1018287"><ele>253.0</ele><time>2026-05-03T13:23:23.058Z</time></trkpt><trkpt lat="46.0750066" lon="11.1016793"><ele>252.0</ele><time>2026-05-03T13:23:24.057Z</time></trkpt><trkpt lat="46.0751617" lon="11.1015313"><ele>272.0</ele><time>2026-05-03T13:23:25.058Z</time></trkpt><trkpt lat="46.0763039" lon="11.1006759"><ele>272.0</ele><time>2026-05-03T13:23:32.057Z</time></trkpt><trkpt lat="46.0764698" lon="11.1005585"><ele>272.0</ele><time>2026-05-03T13:23:33.058Z</time></trkpt><trkpt lat="46.0766167" lon="11.1003974"><ele>272.0</ele><time>2026-05-03T13:23:34.058Z</time></trkpt><trkpt lat="46.0767537" lon="11.1002519"><ele>273.33333333333337</ele><time>2026-05-03T13:23:35.058Z</time></trkpt><trkpt lat="46.0769083" lon="11.1001347"><ele>274.6666666666667</ele><time>2026-05-03T13:23:36.057Z</time></trkpt><trkpt lat="46.0770795" lon="11.1000539"><ele>276.0</ele><time>2026-05-03T13:23:37.058Z</time></trkpt><trkpt lat="46.0772233" lon="11.0998975"><ele>276.0</ele><time>2026-05-03T13:23:38.058Z</time></trkpt><trkpt lat="46.0773854" lon="11.0998001"><ele>276.0</ele><time>2026-05-03T13:23:39.058Z</time></trkpt><trkpt lat="46.077542" lon="11.0997037"><ele>276.0</ele><time>2026-05-03T13:23:40.058Z</time></trkpt><trkpt lat="46.077702" lon="11.099603"><ele>276.3333333333333</ele><time>2026-05-03T13:23:41.058Z</time></trkpt><trkpt lat="46.0778582" lon="11.0995054"><ele>276.66666666666663</ele><time>2026-05-03T13:23:42.057Z</time></trkpt><trkpt lat="46.0780154" lon="11.09941"><ele>277.0</ele><time>2026-05-03T13:23:43.058Z</time></trkpt><trkpt lat="46.0781699" lon="11.0993338"><ele>275.66666666666663</ele><time>2026-05-03T13:23:44.058Z</time></trkpt><trkpt lat="46.0783329" lon="11.099277"><ele>274.3333333333333</ele><time>2026-05-03T13:23:45.058Z</time></trkpt><trkpt lat="46.0784958" lon="11.0992324"><ele>273.0</ele><time>2026-05-03T13:23:46.058Z</time></trkpt><trkpt lat="46.0786593" lon="11.0991915"><ele>273.0</ele><time>2026-05-03T13:23:47.058Z</time></trkpt><trkpt lat="46.078827" lon="11.0991492"><ele>273.0</ele><time>2026-05-03T13:23:48.057Z</time></trkpt><trkpt lat="46.0789942" lon="11.0991126"><ele>273.0</ele><time>2026-05-03T13:23:49.057Z</time></trkpt><trkpt lat="46.0791615" lon="11.0990728"><ele>283.6666666666667</ele><time>2026-05-03T13:23:50.058Z</time></trkpt><trkpt lat="46.0793211" lon="11.0990336"><ele>294.33333333333337</ele><time>2026-05-03T13:23:51.058Z</time></trkpt><trkpt lat="46.0794717" lon="11.098981"><ele>305.0</ele><time>2026-05-03T13:23:52.058Z</time></trkpt><trkpt lat="46.0796175" lon="11.098904"><ele>305.0</ele><time>2026-05-03T13:23:53.058Z</time></trkpt><trkpt lat="46.0797542" lon="11.0988254"><ele>305.0</ele><time>2026-05-03T13:23:54.058Z</time></trkpt><trkpt lat="46.0798842" lon="11.0987372"><ele>305.0</ele><time>2026-05-03T13:23:55.058Z</time></trkpt><trkpt lat="46.0800073" lon="11.0986663"><ele>305.0</ele><time>2026-05-03T13:23:56.058Z</time></trkpt><trkpt lat="46.0801191" lon="11.0986102"><ele>302.6</ele><time>2026-05-03T13:23:57.058Z</time></trkpt><trkpt lat="46.0802196" lon="11.0985645"><ele>300.2</ele><time>2026-05-03T13:23:58.058Z</time></trkpt><trkpt lat="46.0803123" lon="11.0985115"><ele>297.8</ele><time>2026-05-03T13:23:59.058Z</time></trkpt><trkpt lat="46.0803836" lon="11.0984357"><ele>295.4</ele><time>2026-05-03T13:24:00.058Z</time></trkpt><trkpt lat="46.0804275" lon="11.0983242"><ele>293.0</ele><time>2026-05-03T13:24:01.058Z</time></trkpt><trkpt lat="46.0804534" lon="11.0981986"><ele>293.0</ele><time>2026-05-03T13:24:02.058Z</time></trkpt><trkpt lat="46.0804505" lon="11.0980697"><ele>293.0</ele><time>2026-05-03T13:24:03.058Z</time></trkpt><trkpt lat="46.080409" lon="11.0979301"><ele>293.0</ele><time>2026-05-03T13:24:04.057Z</time></trkpt><trkpt lat="46.080351" lon="11.0977878"><ele>293.0</ele><time>2026-05-03T13:24:05.058Z</time></trkpt><trkpt lat="46.0802797" lon="11.0976461"><ele>293.0</ele><time>2026-05-03T13:24:06.058Z</time></trkpt><trkpt lat="46.0802106" lon="11.0975097"><ele>298.0</ele><time>2026-05-03T13:24:07.058Z</time></trkpt><trkpt lat="46.0801353" lon="11.0973827"><ele>303.0</ele><time>2026-05-03T13:24:08.058Z</time></trkpt><trkpt lat="46.0800555" lon="11.0972608"><ele>308.0</ele><time>2026-05-03T13:24:09.057Z</time></trkpt><trkpt lat="46.0799616" lon="11.0971397"><ele>313.0</ele><time>2026-05-03T13:24:10.058Z</time></trkpt><trkpt lat="46.0798613" lon="11.0970227"><ele>313.0</ele><time>2026-05-03T13:24:11.058Z</time></trkpt><trkpt lat="46.0797552" lon="11.0969104"><ele>313.0</ele><time>2026-05-03T13:24:12.057Z</time></trkpt><trkpt lat="46.0796444" lon="11.0968034"><ele>313.0</ele><time>2026-05-03T13:24:13.058Z</time></trkpt><trkpt lat="46.0795254" lon="11.0966919"><ele>313.0</ele><time>2026-05-03T13:24:14.058Z</time></trkpt><trkpt lat="46.0794119" lon="11.0965674"><ele>307.5</ele><time>2026-05-03T13:24:15.058Z</time></trkpt><trkpt lat="46.0793061" lon="11.0964087"><ele>302.0</ele><time>2026-05-03T13:24:16.057Z</time></trkpt><trkpt lat="46.0792166" lon="11.0962404"><ele>296.5</ele><time>2026-05-03T13:24:17.057Z</time></trkpt><trkpt lat="46.0791286" lon="11.0960697"><ele>291.0</ele><time>2026-05-03T13:24:18.058Z</time></trkpt><trkpt lat="46.0790426" lon="11.0958812"><ele>316.3333333333333</ele><time>2026-05-03T13:24:19.058Z</time></trkpt><trkpt lat="46.0789679" lon="11.0956844"><ele>341.66666666666663</ele><time>2026-05-03T13:24:20.057Z</time></trkpt><trkpt lat="46.0789179" lon="11.095473"><ele>367.0</ele><time>2026-05-03T13:24:21.058Z</time></trkpt><trkpt lat="46.0788862" lon="11.0952504"><ele>367.0</ele><time>2026-05-03T13:24:22.057Z</time></trkpt><trkpt lat="46.0788686" lon="11.0950272"><ele>367.0</ele><time>2026-05-03T13:24:23.057Z</time></trkpt><trkpt lat="46.0788731" lon="11.094811"><ele>367.0</ele><time>2026-05-03T13:24:24.057Z</time></trkpt><trkpt lat="46.0788972" lon="11.0945975"><ele>370.0</ele><time>2026-05-03T13:24:25.058Z</time></trkpt><trkpt lat="46.0789292" lon="11.0943903"><ele>373.0</ele><time>2026-05-03T13:24:26.058Z</time></trkpt><trkpt lat="46.0789634" lon="11.0941915"><ele>376.0</ele><time>2026-05-03T13:24:27.057Z</time></trkpt><trkpt lat="46.0789925" lon="11.0939912"><ele>379.0</ele><time>2026-05-03T13:24:28.057Z</time></trkpt><trkpt lat="46.0790172" lon="11.0938011"><ele>380.5</ele><time>2026-05-03T13:24:29.058Z</time></trkpt><trkpt lat="46.0790417" lon="11.0936095"><ele>382.0</ele><time>2026-05-03T13:24:30.058Z</time></trkpt><trkpt lat="46.0790636" lon="11.0934209"><ele>383.5</ele><time>2026-05-03T13:24:31.058Z</time></trkpt><trkpt lat="46.0790798" lon="11.0932261"><ele>385.0</ele><time>2026-05-03T13:24:32.058Z</time></trkpt><trkpt lat="46.079078" lon="11.0930225"><ele>385.75</ele><time>2026-05-03T13:24:33.057Z</time></trkpt><trkpt lat="46.0790664" lon="11.0928222"><ele>386.5</ele><time>2026-05-03T13:24:34.057Z</time></trkpt><trkpt lat="46.0790455" lon="11.0926127"><ele>387.25</ele><time>2026-05-03T13:24:35.058Z</time></trkpt><trkpt lat="46.0790142" lon="11.092405"><ele>388.0</ele><time>2026-05-03T13:24:36.058Z</time></trkpt><trkpt lat="46.078982" lon="11.0921975"><ele>394.33333333333337</ele><time>2026-05-03T13:24:37.058Z</time></trkpt><trkpt lat="46.0789589" lon="11.0919848"><ele>400.66666666666663</ele><time>2026-05-03T13:24:38.058Z</time></trkpt><trkpt lat="46.0789468" lon="11.0917655"><ele>407.0</ele><time>2026-05-03T13:24:39.058Z</time></trkpt><trkpt lat="46.0789565" lon="11.0915404"><ele>415.66666666666663</ele><time>2026-05-03T13:24:40.057Z</time></trkpt><trkpt lat="46.0789836" lon="11.0913116"><ele>424.33333333333337</ele><time>2026-05-03T13:24:41.058Z</time></trkpt><trkpt lat="46.0790226" lon="11.0910765"><ele>433.0</ele><time>2026-05-03T13:24:42.058Z</time></trkpt><trkpt lat="46.0790633" lon="11.0908502"><ele>415.0</ele><time>2026-05-03T13:24:43.057Z</time></trkpt><trkpt lat="46.0791082" lon="11.0906228"><ele>397.0</ele><time>2026-05-03T13:24:44.058Z</time></trkpt><trkpt lat="46.0791581" lon="11.090422"><ele>379.0</ele><time>2026-05-03T13:24:45.057Z</time></trkpt><trkpt lat="46.0792325" lon="11.0902358"><ele>379.0</ele><time>2026-05-03T13:24:46.057Z</time></trkpt><trkpt lat="46.0793283" lon="11.0900668"><ele>379.0</ele><time>2026-05-03T13:24:47.058Z</time></trkpt><trkpt lat="46.0794413" lon="11.0899139"><ele>379.0</ele><time>2026-05-03T13:24:48.057Z</time></trkpt><trkpt lat="46.0795598" lon="11.0897589"><ele>393.66666666666663</ele><time>2026-05-03T13:24:49.056Z</time></trkpt><trkpt lat="46.0796799" lon="11.0895947"><ele>408.3333333333333</ele><time>2026-05-03T13:24:50.056Z</time></trkpt><trkpt lat="46.0797982" lon="11.0894182"><ele>423.0</ele><time>2026-05-03T13:24:51.057Z</time></trkpt><trkpt lat="46.0799117" lon="11.0892358"><ele>408.0</ele><time>2026-05-03T13:24:52.057Z</time></trkpt><trkpt lat="46.0800201" lon="11.0890434"><ele>393.0</ele><time>2026-05-03T13:24:53.056Z</time></trkpt><trkpt lat="46.0801202" lon="11.0888483"><ele>378.0</ele><time>2026-05-03T13:24:54.056Z</time></trkpt><trkpt lat="46.0802176" lon="11.0886583"><ele>378.0</ele><time>2026-05-03T13:24:55.057Z</time></trkpt><trkpt lat="46.0803162" lon="11.0884824"><ele>378.0</ele><time>2026-05-03T13:24:56.056Z</time></trkpt><trkpt lat="46.0804185" lon="11.088329"><ele>378.0</ele><time>2026-05-03T13:24:57.056Z</time></trkpt><trkpt lat="46.0805007" lon="11.0881803"><ele>378.0</ele><time>2026-05-03T13:24:58.057Z</time></trkpt><trkpt lat="46.0805586" lon="11.0880118"><ele>385.0</ele><time>2026-05-03T13:24:59.057Z</time></trkpt><trkpt lat="46.0805965" lon="11.0878253"><ele>392.0</ele><time>2026-05-03T13:25:00.056Z</time></trkpt><trkpt lat="46.0806266" lon="11.0876101"><ele>399.0</ele><time>2026-05-03T13:25:01.057Z</time></trkpt><trkpt lat="46.0806711" lon="11.0873925"><ele>406.0</ele><time>2026-05-03T13:25:02.057Z</time></trkpt><trkpt lat="46.0807367" lon="11.0871918"><ele>393.6666666666667</ele><time>2026-05-03T13:25:03.057Z</time></trkpt><trkpt lat="46.0807996" lon="11.0869901"><ele>381.33333333333337</ele><time>2026-05-03T13:25:04.057Z</time></trkpt><trkpt lat="46.0808467" lon="11.0867763"><ele>369.0</ele><time>2026-05-03T13:25:05.057Z</time></trkpt><trkpt lat="46.0808855" lon="11.0865443"><ele>369.0</ele><time>2026-05-03T13:25:06.057Z</time></trkpt><trkpt lat="46.0809161" lon="11.0863028"><ele>369.0</ele><time>2026-05-03T13:25:07.056Z</time></trkpt><trkpt lat="46.0809356" lon="11.0860631"><ele>369.0</ele><time>2026-05-03T13:25:08.057Z</time></trkpt><trkpt lat="46.080953" lon="11.0858189"><ele>372.0</ele><time>2026-05-03T13:25:09.057Z</time></trkpt><trkpt lat="46.0809766" lon="11.085576"><ele>375.0</ele><time>2026-05-03T13:25:10.056Z</time></trkpt><trkpt lat="46.0810137" lon="11.0853481"><ele>378.0</ele><time>2026-05-03T13:25:11.057Z</time></trkpt><trkpt lat="46.0810693" lon="11.0851546"><ele>378.0</ele><time>2026-05-03T13:25:12.057Z</time></trkpt><trkpt lat="46.0811374" lon="11.0849677"><ele>378.0</ele><time>2026-05-03T13:25:13.056Z</time></trkpt><trkpt lat="46.0812007" lon="11.0847657"><ele>378.0</ele><time>2026-05-03T13:25:14.057Z</time></trkpt><trkpt lat="46.0812403" lon="11.0845445"><ele>383.33333333333337</ele><time>2026-05-03T13:25:15.057Z</time></trkpt><trkpt lat="46.0812521" lon="11.0843182"><ele>388.6666666666667</ele><time>2026-05-03T13:25:16.057Z</time></trkpt><trkpt lat="46.0812401" lon="11.0840753"><ele>394.0</ele><time>2026-05-03T13:25:17.056Z</time></trkpt><trkpt lat="46.0812088" lon="11.0838273"><ele>395.0</ele><time>2026-05-03T13:25:18.056Z</time></trkpt><trkpt lat="46.0811725" lon="11.0835912"><ele>396.0</ele><time>2026-05-03T13:25:19.057Z</time></trkpt><trkpt lat="46.0811327" lon="11.0833508"><ele>397.0</ele><time>2026-05-03T13:25:20.057Z</time></trkpt><trkpt lat="46.0810979" lon="11.083108"><ele>397.0</ele><time>2026-05-03T13:25:21.056Z</time></trkpt><trkpt lat="46.0810876" lon="11.0828674"><ele>397.0</ele><time>2026-05-03T13:25:22.056Z</time></trkpt><trkpt lat="46.081095" lon="11.0826279"><ele>397.0</ele><time>2026-05-03T13:25:23.056Z</time></trkpt><trkpt lat="46.0811411" lon="11.0823836"><ele>396.6666666666667</ele><time>2026-05-03T13:25:24.057Z</time></trkpt><trkpt lat="46.0812081" lon="11.082142"><ele>396.33333333333337</ele><time>2026-05-03T13:25:25.057Z</time></trkpt><trkpt lat="46.0812681" lon="11.0819043"><ele>396.0</ele><time>2026-05-03T13:25:26.057Z</time></trkpt><trkpt lat="46.0813288" lon="11.0816599"><ele>397.0</ele><time>2026-05-03T13:25:27.056Z</time></trkpt><trkpt lat="46.0813826" lon="11.0814009"><ele>398.0</ele><time>2026-05-03T13:25:28.057Z</time></trkpt><trkpt lat="46.0844364" lon="11.0718805"><ele>408.0</ele><time>2026-05-03T13:26:04.057Z</time></trkpt><trkpt lat="46.0845508" lon="11.0716629"><ele>418.0</ele><time>2026-05-03T13:26:05.057Z</time></trkpt><trkpt lat="46.0846584" lon="11.0714479"><ele>428.0</ele><time>2026-05-03T13:26:06.057Z</time></trkpt><trkpt lat="46.0847748" lon="11.0712406"><ele>427.66666666666663</ele><time>2026-05-03T13:26:07.057Z</time></trkpt><trkpt lat="46.084906" lon="11.0710419"><ele>427.33333333333337</ele><time>2026-05-03T13:26:08.057Z</time></trkpt><trkpt lat="46.085052" lon="11.0708766"><ele>427.0</ele><time>2026-05-03T13:26:09.056Z</time></trkpt><trkpt lat="46.0852142" lon="11.0707176"><ele>432.0</ele><time>2026-05-03T13:26:10.057Z</time></trkpt><trkpt lat="46.0853815" lon="11.0705724"><ele>437.0</ele><time>2026-05-03T13:26:11.057Z</time></trkpt><trkpt lat="46.0855528" lon="11.0704438"><ele>442.0</ele><time>2026-05-03T13:26:12.057Z</time></trkpt><trkpt lat="46.0857258" lon="11.0703127"><ele>440.33333333333337</ele><time>2026-05-03T13:26:13.057Z</time></trkpt><trkpt lat="46.0858972" lon="11.0701774"><ele>438.66666666666663</ele><time>2026-05-03T13:26:14.057Z</time></trkpt><trkpt lat="46.0860713" lon="11.0700426"><ele>437.0</ele><time>2026-05-03T13:26:15.056Z</time></trkpt><trkpt lat="46.0862472" lon="11.0698985"><ele>437.0</ele><time>2026-05-03T13:26:16.056Z</time></trkpt><trkpt lat="46.0864214" lon="11.0697347"><ele>437.0</ele><time>2026-05-03T13:26:17.057Z</time></trkpt><trkpt lat="46.0865897" lon="11.0695592"><ele>437.0</ele><time>2026-05-03T13:26:18.057Z</time></trkpt><trkpt lat="46.0867546" lon="11.0693642"><ele>438.0</ele><time>2026-05-03T13:26:19.056Z</time></trkpt><trkpt lat="46.0869088" lon="11.0691464"><ele>439.0</ele><time>2026-05-03T13:26:20.057Z</time></trkpt><trkpt lat="46.0870535" lon="11.0689165"><ele>440.0</ele><time>2026-05-03T13:26:21.057Z</time></trkpt><trkpt lat="46.0871997" lon="11.068682"><ele>502.0</ele><time>2026-05-03T13:26:22.057Z</time></trkpt><trkpt lat="46.0905233" lon="11.0620637"><ele>502.0</ele><time>2026-05-03T13:26:47.057Z</time></trkpt><trkpt lat="46.0906271" lon="11.0618381"><ele>502.0</ele><time>2026-05-03T13:26:48.057Z</time></trkpt><trkpt lat="46.0907371" lon="11.0615959"><ele>502.0</ele><time>2026-05-03T13:26:49.057Z</time></trkpt><trkpt lat="46.0908273" lon="11.0613979"><ele>500.33333333333337</ele><time>2026-05-03T13:26:50.056Z</time></trkpt><trkpt lat="46.0909077" lon="11.0612012"><ele>498.66666666666663</ele><time>2026-05-03T13:26:51.057Z</time></trkpt><trkpt lat="46.0909873" lon="11.0609953"><ele>497.0</ele><time>2026-05-03T13:26:52.056Z</time></trkpt><trkpt lat="46.0910661" lon="11.0607914"><ele>505.0</ele><time>2026-05-03T13:26:53.056Z</time></trkpt><trkpt lat="46.0911517" lon="11.060583"><ele>513.0</ele><time>2026-05-03T13:26:54.057Z</time></trkpt><trkpt lat="46.0912442" lon="11.0603628"><ele>521.0</ele><time>2026-05-03T13:26:55.057Z</time></trkpt><trkpt lat="46.0913361" lon="11.0601423"><ele>528.0</ele><time>2026-05-03T13:26:56.057Z</time></trkpt><trkpt lat="46.0914206" lon="11.0599196"><ele>535.0</ele><time>2026-05-03T13:26:57.057Z</time></trkpt><trkpt lat="46.0915009" lon="11.0597024"><ele>542.0</ele><time>2026-05-03T13:26:58.057Z</time></trkpt><trkpt lat="46.0915777" lon="11.0594927"><ele>532.0</ele><time>2026-05-03T13:26:59.057Z</time></trkpt><trkpt lat="46.0916575" lon="11.0592746"><ele>522.0</ele><time>2026-05-03T13:27:00.057Z</time></trkpt><trkpt lat="46.0917437" lon="11.0590565"><ele>512.0</ele><time>2026-05-03T13:27:01.057Z</time></trkpt><trkpt lat="46.0918274" lon="11.0588484"><ele>512.0</ele><time>2026-05-03T13:27:02.057Z</time></trkpt><trkpt lat="46.0919153" lon="11.0586366"><ele>512.0</ele><time>2026-05-03T13:27:03.056Z</time></trkpt><trkpt lat="46.0920022" lon="11.0584334"><ele>512.0</ele><time>2026-05-03T13:27:04.057Z</time></trkpt><trkpt lat="46.0920909" lon="11.0582293"><ele>514.6666666666666</ele><time>2026-05-03T13:27:05.057Z</time></trkpt><trkpt lat="46.0921834" lon="11.058025"><ele>517.3333333333334</ele><time>2026-05-03T13:27:06.057Z</time></trkpt><trkpt lat="46.0922737" lon="11.0578328"><ele>520.0</ele><time>2026-05-03T13:27:07.057Z</time></trkpt><trkpt lat="46.0923651" lon="11.0576526"><ele>510.5</ele><time>2026-05-03T13:27:08.057Z</time></trkpt><trkpt lat="46.0924424" lon="11.057482"><ele>501.0</ele><time>2026-05-03T13:27:09.057Z</time></trkpt><trkpt lat="46.0925019" lon="11.0573001"><ele>491.5</ele><time>2026-05-03T13:27:10.056Z</time></trkpt><trkpt lat="46.0925346" lon="11.0571095"><ele>482.0</ele><time>2026-05-03T13:27:11.057Z</time></trkpt><trkpt lat="46.0925291" lon="11.056924"><ele>482.0</ele><time>2026-05-03T13:27:12.057Z</time></trkpt><trkpt lat="46.0924892" lon="11.0567276"><ele>482.0</ele><time>2026-05-03T13:27:13.057Z</time></trkpt><trkpt lat="46.0924203" lon="11.0565453"><ele>482.0</ele><time>2026-05-03T13:27:14.056Z</time></trkpt><trkpt lat="46.0923289" lon="11.0563806"><ele>482.0</ele><time>2026-05-03T13:27:15.057Z</time></trkpt><trkpt lat="46.0922289" lon="11.0562168"><ele>484.66666666666663</ele><time>2026-05-03T13:27:16.057Z</time></trkpt><trkpt lat="46.0921264" lon="11.0560533"><ele>487.33333333333337</ele><time>2026-05-03T13:27:17.056Z</time></trkpt><trkpt lat="46.0920234" lon="11.0558747"><ele>490.0</ele><time>2026-05-03T13:27:18.056Z</time></trkpt><trkpt lat="46.0919253" lon="11.0556952"><ele>490.0</ele><time>2026-05-03T13:27:19.056Z</time></trkpt><trkpt lat="46.0918295" lon="11.0555113"><ele>490.0</ele><time>2026-05-03T13:27:20.056Z</time></trkpt><trkpt lat="46.0917364" lon="11.0553238"><ele>490.0</ele><time>2026-05-03T13:27:21.057Z</time></trkpt><trkpt lat="46.0916404" lon="11.0551404"><ele>492.0</ele><time>2026-05-03T13:27:22.056Z</time></trkpt><trkpt lat="46.0915499" lon="11.0549686"><ele>494.0</ele><time>2026-05-03T13:27:23.057Z</time></trkpt><trkpt lat="46.0914605" lon="11.0548168"><ele>496.0</ele><time>2026-05-03T13:27:24.056Z</time></trkpt><trkpt lat="46.0913679" lon="11.0546794"><ele>498.0</ele><time>2026-05-03T13:27:25.057Z</time></trkpt><trkpt lat="46.0912673" lon="11.0545494"><ele>498.0</ele><time>2026-05-03T13:27:26.057Z</time></trkpt><trkpt lat="46.0911583" lon="11.054422"><ele>498.0</ele><time>2026-05-03T13:27:27.057Z</time></trkpt><trkpt lat="46.0910394" lon="11.0543012"><ele>498.0</ele><time>2026-05-03T13:27:28.057Z</time></trkpt><trkpt lat="46.0909136" lon="11.0541744"><ele>498.0</ele><time>2026-05-03T13:27:29.057Z</time></trkpt><trkpt lat="46.090782" lon="11.0540412"><ele>495.33333333333337</ele><time>2026-05-03T13:27:30.057Z</time></trkpt><trkpt lat="46.0906562" lon="11.0539106"><ele>492.6666666666667</ele><time>2026-05-03T13:27:31.056Z</time></trkpt><trkpt lat="46.0905271" lon="11.0537748"><ele>490.0</ele><time>2026-05-03T13:27:32.056Z</time></trkpt><trkpt lat="46.0903939" lon="11.0536385"><ele>490.0</ele><time>2026-05-03T13:27:33.056Z</time></trkpt><trkpt lat="46.0902623" lon="11.0534975"><ele>490.0</ele><time>2026-05-03T13:27:34.057Z</time></trkpt><trkpt lat="46.0901276" lon="11.0533667"><ele>490.0</ele><time>2026-05-03T13:27:35.056Z</time></trkpt><trkpt lat="46.0899875" lon="11.053256"><ele>485.0</ele><time>2026-05-03T13:27:36.057Z</time></trkpt><trkpt lat="46.0898368" lon="11.0531643"><ele>480.0</ele><time>2026-05-03T13:27:37.057Z</time></trkpt><trkpt lat="46.0896779" lon="11.0530857"><ele>475.0</ele><time>2026-05-03T13:27:38.057Z</time></trkpt><trkpt lat="46.0895204" lon="11.0530058"><ele>475.0</ele><time>2026-05-03T13:27:39.057Z</time></trkpt><trkpt lat="46.089362" lon="11.0529245"><ele>475.0</ele><time>2026-05-03T13:27:40.056Z</time></trkpt><trkpt lat="46.0891965" lon="11.052848"><ele>475.0</ele><time>2026-05-03T13:27:41.057Z</time></trkpt><trkpt lat="46.0890315" lon="11.0527709"><ele>481.33333333333337</ele><time>2026-05-03T13:27:42.057Z</time></trkpt><trkpt lat="46.0888679" lon="11.0526869"><ele>487.66666666666663</ele><time>2026-05-03T13:27:43.057Z</time></trkpt><trkpt lat="46.0887048" lon="11.0526084"><ele>494.0</ele><time>2026-05-03T13:27:44.056Z</time></trkpt><trkpt lat="46.0885426" lon="11.0525273"><ele>489.3333333333333</ele><time>2026-05-03T13:27:45.056Z</time></trkpt><trkpt lat="46.0883768" lon="11.0524433"><ele>484.66666666666663</ele><time>2026-05-03T13:27:46.057Z</time></trkpt><trkpt lat="46.0882107" lon="11.0523617"><ele>480.0</ele><time>2026-05-03T13:27:47.057Z</time></trkpt><trkpt lat="46.0880442" lon="11.0522743"><ele>480.0</ele><time>2026-05-03T13:27:48.057Z</time></trkpt><trkpt lat="46.0878723" lon="11.0521886"><ele>480.0</ele><time>2026-05-03T13:27:49.057Z</time></trkpt><trkpt lat="46.0877017" lon="11.0521011"><ele>480.0</ele><time>2026-05-03T13:27:50.056Z</time></trkpt><trkpt lat="46.0875317" lon="11.052015"><ele>484.0</ele><time>2026-05-03T13:27:51.057Z</time></trkpt><trkpt lat="46.0873639" lon="11.0519288"><ele>488.0</ele><time>2026-05-03T13:27:52.057Z</time></trkpt><trkpt lat="46.0871986" lon="11.0518431"><ele>492.0</ele><time>2026-05-03T13:27:53.057Z</time></trkpt><trkpt lat="46.0870359" lon="11.0517538"><ele>492.0</ele><time>2026-05-03T13:27:54.057Z</time></trkpt><trkpt lat="46.0868706" lon="11.0516575"><ele>492.0</ele><time>2026-05-03T13:27:55.056Z</time></trkpt><trkpt lat="46.0867049" lon="11.0515604"><ele>492.0</ele><time>2026-05-03T13:27:56.056Z</time></trkpt><trkpt lat="46.0865407" lon="11.0514717"><ele>487.66666666666663</ele><time>2026-05-03T13:27:57.057Z</time></trkpt><trkpt lat="46.0863735" lon="11.0513844"><ele>483.3333333333333</ele><time>2026-05-03T13:27:58.057Z</time></trkpt><trkpt lat="46.086203" lon="11.0513049"><ele>479.0</ele><time>2026-05-03T13:27:59.057Z</time></trkpt><trkpt lat="46.0860339" lon="11.0512239"><ele>479.0</ele><time>2026-05-03T13:28:00.057Z</time></trkpt><trkpt lat="46.0858614" lon="11.0511449"><ele>479.0</ele><time>2026-05-03T13:28:01.057Z</time></trkpt><trkpt lat="46.0856891" lon="11.0510711"><ele>479.0</ele><time>2026-05-03T13:28:02.057Z</time></trkpt><trkpt lat="46.0855155" lon="11.0510018"><ele>475.3333333333333</ele><time>2026-05-03T13:28:03.057Z</time></trkpt><trkpt lat="46.0853417" lon="11.0509397"><ele>471.66666666666663</ele><time>2026-05-03T13:28:04.057Z</time></trkpt><trkpt lat="46.0851725" lon="11.0508694"><ele>468.0</ele><time>2026-05-03T13:28:05.057Z</time></trkpt><trkpt lat="46.0850051" lon="11.0507892"><ele>474.33333333333337</ele><time>2026-05-03T13:28:06.057Z</time></trkpt><trkpt lat="46.0848384" lon="11.0507004"><ele>480.6666666666667</ele><time>2026-05-03T13:28:07.057Z</time></trkpt><trkpt lat="46.0846785" lon="11.0505947"><ele>487.0</ele><time>2026-05-03T13:28:08.057Z</time></trkpt><trkpt lat="46.084515" lon="11.0504739"><ele>487.0</ele><time>2026-05-03T13:28:09.057Z</time></trkpt><trkpt lat="46.0843634" lon="11.0503302"><ele>487.0</ele><time>2026-05-03T13:28:10.057Z</time></trkpt><trkpt lat="46.084219" lon="11.050166"><ele>487.0</ele><time>2026-05-03T13:28:11.056Z</time></trkpt><trkpt lat="46.0840821" lon="11.0500013"><ele>485.6666666666667</ele><time>2026-05-03T13:28:12.057Z</time></trkpt><trkpt lat="46.0839424" lon="11.0498315"><ele>484.33333333333337</ele><time>2026-05-03T13:28:13.057Z</time></trkpt><trkpt lat="46.0838024" lon="11.0496674"><ele>483.0</ele><time>2026-05-03T13:28:14.057Z</time></trkpt><trkpt lat="46.0836596" lon="11.0495123"><ele>483.0</ele><time>2026-05-03T13:28:15.057Z</time></trkpt><trkpt lat="46.0835109" lon="11.0493685"><ele>483.0</ele><time>2026-05-03T13:28:16.057Z</time></trkpt><trkpt lat="46.0833563" lon="11.0492407"><ele>483.0</ele><time>2026-05-03T13:28:17.056Z</time></trkpt><trkpt lat="46.0831994" lon="11.0491216"><ele>483.0</ele><time>2026-05-03T13:28:18.057Z</time></trkpt><trkpt lat="46.083032" lon="11.0490088"><ele>483.0</ele><time>2026-05-03T13:28:19.057Z</time></trkpt><trkpt lat="46.0828675" lon="11.0489124"><ele>483.0</ele><time>2026-05-03T13:28:20.057Z</time></trkpt><trkpt lat="46.0826997" lon="11.0488167"><ele>483.0</ele><time>2026-05-03T13:28:21.057Z</time></trkpt><trkpt lat="46.0825453" lon="11.0487215"><ele>483.0</ele><time>2026-05-03T13:28:22.057Z</time></trkpt><trkpt lat="46.0823897" lon="11.0486244"><ele>483.0</ele><time>2026-05-03T13:28:23.056Z</time></trkpt><trkpt lat="46.0822444" lon="11.0485192"><ele>485.33333333333337</ele><time>2026-05-03T13:28:24.056Z</time></trkpt><trkpt lat="46.0821105" lon="11.0484017"><ele>487.6666666666667</ele><time>2026-05-03T13:28:25.057Z</time></trkpt><trkpt lat="46.0819855" lon="11.0482741"><ele>490.0</ele><time>2026-05-03T13:28:26.057Z</time></trkpt><trkpt lat="46.0818655" lon="11.0481285"><ele>490.0</ele><time>2026-05-03T13:28:27.056Z</time></trkpt><trkpt lat="46.0817569" lon="11.0479695"><ele>490.0</ele><time>2026-05-03T13:28:28.057Z</time></trkpt><trkpt lat="46.0816616" lon="11.0478049"><ele>490.0</ele><time>2026-05-03T13:28:29.056Z</time></trkpt><trkpt lat="46.0815766" lon="11.0476323"><ele>496.25</ele><time>2026-05-03T13:28:30.057Z</time></trkpt><trkpt lat="46.0815108" lon="11.0474378"><ele>502.5</ele><time>2026-05-03T13:28:31.057Z</time></trkpt><trkpt lat="46.0814647" lon="11.0472369"><ele>508.75</ele><time>2026-05-03T13:28:32.057Z</time></trkpt><trkpt lat="46.0814356" lon="11.0470314"><ele>515.0</ele><time>2026-05-03T13:28:33.057Z</time></trkpt><trkpt lat="46.0814104" lon="11.0468173"><ele>515.75</ele><time>2026-05-03T13:28:34.056Z</time></trkpt><trkpt lat="46.0813958" lon="11.0466069"><ele>516.5</ele><time>2026-05-03T13:28:35.056Z</time></trkpt><trkpt lat="46.0813798" lon="11.0464043"><ele>517.25</ele><time>2026-05-03T13:28:36.057Z</time></trkpt><trkpt lat="46.0813639" lon="11.046222"><ele>518.0</ele><time>2026-05-03T13:28:37.057Z</time></trkpt><trkpt lat="46.0813403" lon="11.0460478"><ele>518.0</ele><time>2026-05-03T13:28:38.056Z</time></trkpt><trkpt lat="46.0813211" lon="11.0458761"><ele>518.0</ele><time>2026-05-03T13:28:39.057Z</time></trkpt><trkpt lat="46.0813035" lon="11.0457144"><ele>518.0</ele><time>2026-05-03T13:28:40.057Z</time></trkpt><trkpt lat="46.0812879" lon="11.0455647"><ele>518.0</ele><time>2026-05-03T13:28:41.057Z</time></trkpt><trkpt lat="46.0812793" lon="11.0454136"><ele>518.0</ele><time>2026-05-03T13:28:42.058Z</time></trkpt><trkpt lat="46.0812585" lon="11.0452595"><ele>516.8</ele><time>2026-05-03T13:28:43.058Z</time></trkpt><trkpt lat="46.0812419" lon="11.0451133"><ele>515.5999999999999</ele><time>2026-05-03T13:28:44.058Z</time></trkpt><trkpt lat="46.0812231" lon="11.0449709"><ele>514.4000000000001</ele><time>2026-05-03T13:28:45.058Z</time></trkpt><trkpt lat="46.0812063" lon="11.0448239"><ele>513.2</ele><time>2026-05-03T13:28:46.058Z</time></trkpt><trkpt lat="46.0811855" lon="11.0446839"><ele>512.0</ele><time>2026-05-03T13:28:47.058Z</time></trkpt><trkpt lat="46.0811687" lon="11.0445456"><ele>509.40000000000003</ele><time>2026-05-03T13:28:48.057Z</time></trkpt><trkpt lat="46.0811505" lon="11.0444087"><ele>506.80000000000007</ele><time>2026-05-03T13:28:49.058Z</time></trkpt><trkpt lat="46.0811237" lon="11.0442761"><ele>504.2</ele><time>2026-05-03T13:28:50.058Z</time></trkpt><trkpt lat="46.0810873" lon="11.0441559"><ele>501.6</ele><time>2026-05-03T13:28:51.057Z</time></trkpt><trkpt lat="46.081054" lon="11.0440443"><ele>499.0</ele><time>2026-05-03T13:28:52.058Z</time></trkpt><trkpt lat="46.0810143" lon="11.0439276"><ele>497.2</ele><time>2026-05-03T13:28:53.058Z</time></trkpt><trkpt lat="46.0809678" lon="11.0437976"><ele>495.4</ele><time>2026-05-03T13:28:54.058Z</time></trkpt><trkpt lat="46.0809176" lon="11.0436821"><ele>493.6</ele><time>2026-05-03T13:28:55.057Z</time></trkpt><trkpt lat="46.0808633" lon="11.0435655"><ele>491.8</ele><time>2026-05-03T13:28:56.058Z</time></trkpt><trkpt lat="46.080814" lon="11.04345"><ele>490.0</ele><time>2026-05-03T13:28:57.057Z</time></trkpt><trkpt lat="46.0807631" lon="11.0433304"><ele>491.0</ele><time>2026-05-03T13:28:58.057Z</time></trkpt><trkpt lat="46.0807098" lon="11.0432109"><ele>492.0</ele><time>2026-05-03T13:28:59.058Z</time></trkpt><trkpt lat="46.0806586" lon="11.0430893"><ele>493.0</ele><time>2026-05-03T13:29:00.058Z</time></trkpt><trkpt lat="46.0806043" lon="11.0429628"><ele>494.0</ele><time>2026-05-03T13:29:01.058Z</time></trkpt><trkpt lat="46.080545" lon="11.0428396"><ele>495.0</ele><time>2026-05-03T13:29:02.058Z</time></trkpt><trkpt lat="46.0804907" lon="11.0427056"><ele>495.0</ele><time>2026-05-03T13:29:03.057Z</time></trkpt><trkpt lat="46.0804305" lon="11.0425675"><ele>495.0</ele><time>2026-05-03T13:29:04.058Z</time></trkpt><trkpt lat="46.0803655" lon="11.042427"><ele>495.0</ele><time>2026-05-03T13:29:05.058Z</time></trkpt><trkpt lat="46.0803014" lon="11.0422803"><ele>495.0</ele><time>2026-05-03T13:29:06.058Z</time></trkpt><trkpt lat="46.080237" lon="11.042138"><ele>493.5</ele><time>2026-05-03T13:29:07.058Z</time></trkpt><trkpt lat="46.0801759" lon="11.0419949"><ele>492.0</ele><time>2026-05-03T13:29:08.058Z</time></trkpt><trkpt lat="46.0801104" lon="11.0418478"><ele>490.5</ele><time>2026-05-03T13:29:09.058Z</time></trkpt><trkpt lat="46.080041" lon="11.0417046"><ele>489.0</ele><time>2026-05-03T13:29:10.057Z</time></trkpt><trkpt lat="46.0799721" lon="11.0415618"><ele>491.25</ele><time>2026-05-03T13:29:11.057Z</time></trkpt><trkpt lat="46.0799065" lon="11.0414151"><ele>493.5</ele><time>2026-05-03T13:29:12.058Z</time></trkpt><trkpt lat="46.079836" lon="11.0412685"><ele>495.75</ele><time>2026-05-03T13:29:13.057Z</time></trkpt><trkpt lat="46.079771" lon="11.0411226"><ele>498.0</ele><time>2026-05-03T13:29:14.058Z</time></trkpt><trkpt lat="46.079705" lon="11.0409765"><ele>498.0</ele><time>2026-05-03T13:29:15.057Z</time></trkpt><trkpt lat="46.0796394" lon="11.0408299"><ele>498.0</ele><time>2026-05-03T13:29:16.058Z</time></trkpt><trkpt lat="46.0795771" lon="11.04068"><ele>498.0</ele><time>2026-05-03T13:29:17.058Z</time></trkpt><trkpt lat="46.0795095" lon="11.040528"><ele>498.0</ele><time>2026-05-03T13:29:18.058Z</time></trkpt><trkpt lat="46.0794403" lon="11.0403775"><ele>496.5</ele><time>2026-05-03T13:29:19.057Z</time></trkpt><trkpt lat="46.0793698" lon="11.0402239"><ele>495.0</ele><time>2026-05-03T13:29:20.058Z</time></trkpt><trkpt lat="46.0792994" lon="11.0400631"><ele>493.5</ele><time>2026-05-03T13:29:21.057Z</time></trkpt><trkpt lat="46.0792286" lon="11.0399053"><ele>492.0</ele><time>2026-05-03T13:29:22.058Z</time></trkpt><trkpt lat="46.0791568" lon="11.0397424"><ele>492.75</ele><time>2026-05-03T13:29:23.058Z</time></trkpt><trkpt lat="46.0790846" lon="11.0395784"><ele>493.5</ele><time>2026-05-03T13:29:24.058Z</time></trkpt><trkpt lat="46.0790045" lon="11.0394081"><ele>494.25</ele><time>2026-05-03T13:29:25.058Z</time></trkpt><trkpt lat="46.0789218" lon="11.0392387"><ele>495.0</ele><time>2026-05-03T13:29:26.058Z</time></trkpt><trkpt lat="46.0788318" lon="11.0390681"><ele>492.5</ele><time>2026-05-03T13:29:27.058Z</time></trkpt><trkpt lat="46.078722" lon="11.0389175"><ele>490.0</ele><time>2026-05-03T13:29:28.058Z</time></trkpt><trkpt lat="46.0786077" lon="11.0387869"><ele>487.5</ele><time>2026-05-03T13:29:29.058Z</time></trkpt><trkpt lat="46.0784866" lon="11.0386693"><ele>485.0</ele><time>2026-05-03T13:29:30.057Z</time></trkpt><trkpt lat="46.0783587" lon="11.038549"><ele>487.3333333333333</ele><time>2026-05-03T13:29:31.057Z</time></trkpt><trkpt lat="46.0782281" lon="11.0384265"><ele>489.66666666666663</ele><time>2026-05-03T13:29:32.058Z</time></trkpt><trkpt lat="46.0781052" lon="11.0382916"><ele>492.0</ele><time>2026-05-03T13:29:33.058Z</time></trkpt><trkpt lat="46.0779908" lon="11.0381488"><ele>492.0</ele><time>2026-05-03T13:29:34.058Z</time></trkpt><trkpt lat="46.0778783" lon="11.0379928"><ele>492.0</ele><time>2026-05-03T13:29:35.058Z</time></trkpt><trkpt lat="46.0777732" lon="11.0378232"><ele>492.0</ele><time>2026-05-03T13:29:36.058Z</time></trkpt><trkpt lat="46.0776699" lon="11.0376481"><ele>489.33333333333337</ele><time>2026-05-03T13:29:37.058Z</time></trkpt><trkpt lat="46.0775741" lon="11.0374659"><ele>486.6666666666667</ele><time>2026-05-03T13:29:38.057Z</time></trkpt><trkpt lat="46.0774827" lon="11.0372785"><ele>484.0</ele><time>2026-05-03T13:29:39.058Z</time></trkpt><trkpt lat="46.0773932" lon="11.0370916"><ele>487.33333333333337</ele><time>2026-05-03T13:29:40.058Z</time></trkpt><trkpt lat="46.0773069" lon="11.0368981"><ele>490.66666666666663</ele><time>2026-05-03T13:29:41.058Z</time></trkpt><trkpt lat="46.0772313" lon="11.0366988"><ele>494.0</ele><time>2026-05-03T13:29:42.058Z</time></trkpt><trkpt lat="46.0771754" lon="11.0364833"><ele>494.0</ele><time>2026-05-03T13:29:43.058Z</time></trkpt><trkpt lat="46.0771338" lon="11.0362574"><ele>494.0</ele><time>2026-05-03T13:29:44.057Z</time></trkpt><trkpt lat="46.0771122" lon="11.0360304"><ele>494.0</ele><time>2026-05-03T13:29:45.058Z</time></trkpt><trkpt lat="46.0771116" lon="11.0358015"><ele>492.3333333333333</ele><time>2026-05-03T13:29:46.058Z</time></trkpt><trkpt lat="46.0771326" lon="11.0355814"><ele>490.66666666666663</ele><time>2026-05-03T13:29:47.058Z</time></trkpt><trkpt lat="46.0771711" lon="11.0353516"><ele>489.0</ele><time>2026-05-03T13:29:48.058Z</time></trkpt><trkpt lat="46.0772158" lon="11.0351307"><ele>491.66666666666663</ele><time>2026-05-03T13:29:49.057Z</time></trkpt><trkpt lat="46.0772675" lon="11.0349215"><ele>494.3333333333333</ele><time>2026-05-03T13:29:50.057Z</time></trkpt><trkpt lat="46.0773247" lon="11.0347049"><ele>497.0</ele><time>2026-05-03T13:29:51.058Z</time></trkpt><trkpt lat="46.0773764" lon="11.0344918"><ele>497.0</ele><time>2026-05-03T13:29:52.058Z</time></trkpt><trkpt lat="46.0774237" lon="11.0342758"><ele>497.0</ele><time>2026-05-03T13:29:53.058Z</time></trkpt><trkpt lat="46.0774606" lon="11.0340815"><ele>497.0</ele><time>2026-05-03T13:29:54.058Z</time></trkpt><trkpt lat="46.0774813" lon="11.0339282"><ele>497.0</ele><time>2026-05-03T13:29:55.057Z</time></trkpt><trkpt lat="46.077497" lon="11.0338101"><ele>495.8</ele><time>2026-05-03T13:29:56.057Z</time></trkpt><trkpt lat="46.0775036" lon="11.0337114"><ele>494.6</ele><time>2026-05-03T13:29:58.058Z</time></trkpt><trkpt lat="46.0775162" lon="11.033578"><ele>493.40000000000003</ele><time>2026-05-03T13:30:05.058Z</time></trkpt><trkpt lat="46.0775229" lon="11.0334397"><ele>492.20000000000005</ele><time>2026-05-03T13:30:08.058Z</time></trkpt><trkpt lat="46.0775367" lon="11.0332886"><ele>491.0</ele><time>2026-05-03T13:30:10.058Z</time></trkpt><trkpt lat="46.0775481" lon="11.0330948"><ele>491.0</ele><time>2026-05-03T13:30:12.057Z</time></trkpt><trkpt lat="46.0775547" lon="11.0329718"><ele>491.0</ele><time>2026-05-03T13:30:13.058Z</time></trkpt><trkpt lat="46.0775638" lon="11.032833"><ele>491.0</ele><time>2026-05-03T13:30:14.058Z</time></trkpt><trkpt lat="46.0775808" lon="11.0326856"><ele>491.0</ele><time>2026-05-03T13:30:15.058Z</time></trkpt><trkpt lat="46.077607" lon="11.0325311"><ele>491.0</ele><time>2026-05-03T13:30:16.058Z</time></trkpt><trkpt lat="46.0776403" lon="11.0323751"><ele>492.0</ele><time>2026-05-03T13:30:17.058Z</time></trkpt><trkpt lat="46.0776827" lon="11.0322259"><ele>493.0</ele><time>2026-05-03T13:30:18.058Z</time></trkpt><trkpt lat="46.0777389" lon="11.0320872"><ele>494.0</ele><time>2026-05-03T13:30:19.057Z</time></trkpt><trkpt lat="46.0778051" lon="11.0319551"><ele>495.0</ele><time>2026-05-03T13:30:20.058Z</time></trkpt><trkpt lat="46.0778842" lon="11.0318316"><ele>495.0</ele><time>2026-05-03T13:30:21.057Z</time></trkpt><trkpt lat="46.0779681" lon="11.0317176"><ele>495.0</ele><time>2026-05-03T13:30:22.058Z</time></trkpt><trkpt lat="46.0780581" lon="11.0316026"><ele>495.0</ele><time>2026-05-03T13:30:23.058Z</time></trkpt><trkpt lat="46.0781449" lon="11.0314918"><ele>495.0</ele><time>2026-05-03T13:30:24.058Z</time></trkpt><trkpt lat="46.0782343" lon="11.0313825"><ele>494.0</ele><time>2026-05-03T13:30:25.058Z</time></trkpt><trkpt lat="46.0783206" lon="11.0312694"><ele>493.0</ele><time>2026-05-03T13:30:26.058Z</time></trkpt><trkpt lat="46.0784115" lon="11.0311541"><ele>492.0</ele><time>2026-05-03T13:30:27.058Z</time></trkpt><trkpt lat="46.078505" lon="11.0310391"><ele>491.0</ele><time>2026-05-03T13:30:28.058Z</time></trkpt><trkpt lat="46.078599" lon="11.0309183"><ele>492.0</ele><time>2026-05-03T13:30:29.057Z</time></trkpt><trkpt lat="46.0786916" lon="11.0307998"><ele>493.0</ele><time>2026-05-03T13:30:30.057Z</time></trkpt><trkpt lat="46.078787" lon="11.0306797"><ele>494.0</ele><time>2026-05-03T13:30:31.058Z</time></trkpt><trkpt lat="46.078883" lon="11.0305614"><ele>495.0</ele><time>2026-05-03T13:30:32.058Z</time></trkpt><trkpt lat="46.0789752" lon="11.0304423"><ele>495.0</ele><time>2026-05-03T13:30:33.058Z</time></trkpt><trkpt lat="46.0790707" lon="11.0303145"><ele>495.0</ele><time>2026-05-03T13:30:34.057Z</time></trkpt><trkpt lat="46.0791625" lon="11.0301905"><ele>495.0</ele><time>2026-05-03T13:30:35.057Z</time></trkpt><trkpt lat="46.0792497" lon="11.0300553"><ele>495.0</ele><time>2026-05-03T13:30:36.058Z</time></trkpt><trkpt lat="46.0793262" lon="11.0299014"><ele>495.75</ele><time>2026-05-03T13:30:37.057Z</time></trkpt><trkpt lat="46.0793855" lon="11.0297281"><ele>496.5</ele><time>2026-05-03T13:30:38.057Z</time></trkpt><trkpt lat="46.0794347" lon="11.0295444"><ele>497.25</ele><time>2026-05-03T13:30:39.058Z</time></trkpt><trkpt lat="46.0794697" lon="11.0293472"><ele>498.0</ele><time>2026-05-03T13:30:40.058Z</time></trkpt><trkpt lat="46.0794807" lon="11.029155"><ele>496.25</ele><time>2026-05-03T13:30:41.057Z</time></trkpt><trkpt lat="46.0794694" lon="11.02896"><ele>494.5</ele><time>2026-05-03T13:30:42.058Z</time></trkpt><trkpt lat="46.0794308" lon="11.0287817"><ele>492.75</ele><time>2026-05-03T13:30:43.058Z</time></trkpt><trkpt lat="46.0793668" lon="11.0286137"><ele>491.0</ele><time>2026-05-03T13:30:44.058Z</time></trkpt><trkpt lat="46.0792809" lon="11.0284654"><ele>491.0</ele><time>2026-05-03T13:30:45.057Z</time></trkpt><trkpt lat="46.0791806" lon="11.0283206"><ele>491.0</ele><time>2026-05-03T13:30:46.058Z</time></trkpt><trkpt lat="46.079066" lon="11.0282018"><ele>491.0</ele><time>2026-05-03T13:30:47.058Z</time></trkpt><trkpt lat="46.0789352" lon="11.0281142"><ele>491.0</ele><time>2026-05-03T13:30:48.058Z</time></trkpt><trkpt lat="46.0787972" lon="11.0280473"><ele>489.25</ele><time>2026-05-03T13:30:49.058Z</time></trkpt><trkpt lat="46.0786566" lon="11.0280094"><ele>487.5</ele><time>2026-05-03T13:30:50.058Z</time></trkpt><trkpt lat="46.0785126" lon="11.0279682"><ele>485.75</ele><time>2026-05-03T13:30:51.057Z</time></trkpt><trkpt lat="46.0783655" lon="11.0279211"><ele>484.0</ele><time>2026-05-03T13:30:52.058Z</time></trkpt><trkpt lat="46.0782194" lon="11.0278651"><ele>484.0</ele><time>2026-05-03T13:30:53.058Z</time></trkpt><trkpt lat="46.0780681" lon="11.0278107"><ele>484.0</ele><time>2026-05-03T13:30:54.058Z</time></trkpt><trkpt lat="46.0779163" lon="11.0277547"><ele>484.0</ele><time>2026-05-03T13:30:55.058Z</time></trkpt><trkpt lat="46.0777613" lon="11.0277026"><ele>484.0</ele><time>2026-05-03T13:30:56.058Z</time></trkpt><trkpt lat="46.0776024" lon="11.027644"><ele>484.0</ele><time>2026-05-03T13:30:57.057Z</time></trkpt><trkpt lat="46.0774445" lon="11.0275867"><ele>484.0</ele><time>2026-05-03T13:30:58.058Z</time></trkpt><trkpt lat="46.0772872" lon="11.0275187"><ele>484.0</ele><time>2026-05-03T13:30:59.058Z</time></trkpt><trkpt lat="46.0771364" lon="11.0274303"><ele>484.0</ele><time>2026-05-03T13:31:00.058Z</time></trkpt><trkpt lat="46.0770008" lon="11.0273133"><ele>484.0</ele><time>2026-05-03T13:31:01.057Z</time></trkpt><trkpt lat="46.0768866" lon="11.0271623"><ele>484.0</ele><time>2026-05-03T13:31:02.058Z</time></trkpt><trkpt lat="46.0767928" lon="11.0269755"><ele>484.0</ele><time>2026-05-03T13:31:03.057Z</time></trkpt><trkpt lat="46.0767218" lon="11.0267898"><ele>484.0</ele><time>2026-05-03T13:31:04.057Z</time></trkpt><trkpt lat="46.0766756" lon="11.026576"><ele>483.0</ele><time>2026-05-03T13:31:05.058Z</time></trkpt><trkpt lat="46.0766494" lon="11.0263527"><ele>482.0</ele><time>2026-05-03T13:31:06.058Z</time></trkpt><trkpt lat="46.0766292" lon="11.0261223"><ele>481.0</ele><time>2026-05-03T13:31:07.057Z</time></trkpt><trkpt lat="46.0766177" lon="11.0258887"><ele>481.33333333333337</ele><time>2026-05-03T13:31:08.057Z</time></trkpt><trkpt lat="46.0766043" lon="11.0256393"><ele>481.66666666666663</ele><time>2026-05-03T13:31:09.058Z</time></trkpt><trkpt lat="46.0765868" lon="11.025387"><ele>482.0</ele><time>2026-05-03T13:31:10.058Z</time></trkpt><trkpt lat="46.0765687" lon="11.0251262"><ele>486.3333333333333</ele><time>2026-05-03T13:31:11.058Z</time></trkpt><trkpt lat="46.0765465" lon="11.0248616"><ele>490.66666666666663</ele><time>2026-05-03T13:31:12.058Z</time></trkpt><trkpt lat="46.0765224" lon="11.0245965"><ele>495.0</ele><time>2026-05-03T13:31:13.058Z</time></trkpt><trkpt lat="46.0765005" lon="11.0243375"><ele>494.0</ele><time>2026-05-03T13:31:14.058Z</time></trkpt><trkpt lat="46.0764861" lon="11.0240856"><ele>493.0</ele><time>2026-05-03T13:31:15.058Z</time></trkpt><trkpt lat="46.0764708" lon="11.0238392"><ele>492.0</ele><time>2026-05-03T13:31:16.058Z</time></trkpt><trkpt lat="46.0764749" lon="11.0235941"><ele>492.0</ele><time>2026-05-03T13:31:17.058Z</time></trkpt><trkpt lat="46.0765035" lon="11.0233505"><ele>492.0</ele><time>2026-05-03T13:31:18.058Z</time></trkpt><trkpt lat="46.0765494" lon="11.0231164"><ele>492.0</ele><time>2026-05-03T13:31:19.058Z</time></trkpt><trkpt lat="46.0766067" lon="11.0228851"><ele>489.66666666666663</ele><time>2026-05-03T13:31:20.058Z</time></trkpt><trkpt lat="46.0766702" lon="11.0226563"><ele>487.3333333333333</ele><time>2026-05-03T13:31:21.058Z</time></trkpt><trkpt lat="46.0767268" lon="11.0224387"><ele>485.0</ele><time>2026-05-03T13:31:22.057Z</time></trkpt><trkpt lat="46.0767767" lon="11.0222291"><ele>485.0</ele><time>2026-05-03T13:31:23.057Z</time></trkpt><trkpt lat="46.0768192" lon="11.0220189"><ele>485.0</ele><time>2026-05-03T13:31:24.058Z</time></trkpt><trkpt lat="46.0768412" lon="11.0217992"><ele>485.0</ele><time>2026-05-03T13:31:25.057Z</time></trkpt><trkpt lat="46.0768474" lon="11.021579"><ele>485.3333333333333</ele><time>2026-05-03T13:31:26.057Z</time></trkpt><trkpt lat="46.076849" lon="11.0213553"><ele>485.66666666666663</ele><time>2026-05-03T13:31:27.057Z</time></trkpt><trkpt lat="46.0768425" lon="11.021137"><ele>486.0</ele><time>2026-05-03T13:31:28.057Z</time></trkpt><trkpt lat="46.076824" lon="11.0209191"><ele>482.66666666666663</ele><time>2026-05-03T13:31:29.057Z</time></trkpt><trkpt lat="46.0767896" lon="11.0207104"><ele>479.3333333333333</ele><time>2026-05-03T13:31:30.058Z</time></trkpt><trkpt lat="46.0767397" lon="11.0205004"><ele>476.0</ele><time>2026-05-03T13:31:31.058Z</time></trkpt><trkpt lat="46.0766868" lon="11.0203003"><ele>476.0</ele><time>2026-05-03T13:31:32.058Z</time></trkpt><trkpt lat="46.0766292" lon="11.0200986"><ele>476.0</ele><time>2026-05-03T13:31:33.058Z</time></trkpt><trkpt lat="46.0765685" lon="11.0198917"><ele>476.0</ele><time>2026-05-03T13:31:34.057Z</time></trkpt><trkpt lat="46.0765071" lon="11.019681"><ele>474.3333333333333</ele><time>2026-05-03T13:31:35.058Z</time></trkpt><trkpt lat="46.0764488" lon="11.0194664"><ele>472.66666666666663</ele><time>2026-05-03T13:31:36.057Z</time></trkpt><trkpt lat="46.0763859" lon="11.0192496"><ele>471.0</ele><time>2026-05-03T13:31:37.058Z</time></trkpt><trkpt lat="46.0763261" lon="11.0190293"><ele>471.0</ele><time>2026-05-03T13:31:38.058Z</time></trkpt><trkpt lat="46.0762609" lon="11.0188054"><ele>471.0</ele><time>2026-05-03T13:31:39.058Z</time></trkpt><trkpt lat="46.076205" lon="11.0185733"><ele>471.0</ele><time>2026-05-03T13:31:40.058Z</time></trkpt><trkpt lat="46.0761438" lon="11.0183423"><ele>469.33333333333337</ele><time>2026-05-03T13:31:41.058Z</time></trkpt><trkpt lat="46.076076" lon="11.0181151"><ele>467.6666666666667</ele><time>2026-05-03T13:31:42.058Z</time></trkpt><trkpt lat="46.0760079" lon="11.0178762"><ele>466.0</ele><time>2026-05-03T13:31:43.058Z</time></trkpt><trkpt lat="46.0759383" lon="11.0176374"><ele>464.33333333333337</ele><time>2026-05-03T13:31:44.057Z</time></trkpt><trkpt lat="46.0758682" lon="11.0173957"><ele>462.66666666666663</ele><time>2026-05-03T13:31:45.058Z</time></trkpt><trkpt lat="46.0758039" lon="11.0171511"><ele>461.0</ele><time>2026-05-03T13:31:46.058Z</time></trkpt><trkpt lat="46.0757458" lon="11.016903"><ele>471.0</ele><time>2026-05-03T13:31:47.057Z</time></trkpt><trkpt lat="46.0757008" lon="11.0166452"><ele>481.0</ele><time>2026-05-03T13:31:48.058Z</time></trkpt><trkpt lat="46.0756598" lon="11.0163838"><ele>491.0</ele><time>2026-05-03T13:31:49.058Z</time></trkpt><trkpt lat="46.0756296" lon="11.0161187"><ele>491.0</ele><time>2026-05-03T13:31:50.058Z</time></trkpt><trkpt lat="46.075604" lon="11.0158433"><ele>491.0</ele><time>2026-05-03T13:31:51.058Z</time></trkpt><trkpt lat="46.0755852" lon="11.0155557"><ele>491.0</ele><time>2026-05-03T13:31:52.058Z</time></trkpt><trkpt lat="46.0755674" lon="11.0152611"><ele>493.0</ele><time>2026-05-03T13:31:53.058Z</time></trkpt><trkpt lat="46.0755505" lon="11.0149659"><ele>495.0</ele><time>2026-05-03T13:31:54.058Z</time></trkpt><trkpt lat="46.0755314" lon="11.0146824"><ele>497.0</ele><time>2026-05-03T13:31:55.058Z</time></trkpt><trkpt lat="46.0755136" lon="11.0144078"><ele>498.3333333333333</ele><time>2026-05-03T13:31:56.057Z</time></trkpt><trkpt lat="46.0754971" lon="11.0141348"><ele>499.66666666666663</ele><time>2026-05-03T13:31:57.057Z</time></trkpt><trkpt lat="46.0754794" lon="11.0138663"><ele>501.0</ele><time>2026-05-03T13:31:58.058Z</time></trkpt><trkpt lat="46.0754607" lon="11.0135998"><ele>501.0</ele><time>2026-05-03T13:31:59.057Z</time></trkpt><trkpt lat="46.0754484" lon="11.0133452"><ele>501.0</ele><time>2026-05-03T13:32:00.058Z</time></trkpt><trkpt lat="46.075456" lon="11.0130985"><ele>501.0</ele><time>2026-05-03T13:32:01.058Z</time></trkpt><trkpt lat="46.0754853" lon="11.0128599"><ele>504.0</ele><time>2026-05-03T13:32:02.057Z</time></trkpt><trkpt lat="46.0755419" lon="11.0126362"><ele>507.0</ele><time>2026-05-03T13:32:03.058Z</time></trkpt><trkpt lat="46.0756248" lon="11.0124273"><ele>510.0</ele><time>2026-05-03T13:32:04.058Z</time></trkpt><trkpt lat="46.0757192" lon="11.0122239"><ele>497.33333333333337</ele><time>2026-05-03T13:32:05.058Z</time></trkpt><trkpt lat="46.0758195" lon="11.0120194"><ele>484.6666666666667</ele><time>2026-05-03T13:32:06.058Z</time></trkpt><trkpt lat="46.0759235" lon="11.0118207"><ele>472.0</ele><time>2026-05-03T13:32:07.057Z</time></trkpt><trkpt lat="46.0760283" lon="11.0116316"><ele>472.0</ele><time>2026-05-03T13:32:08.058Z</time></trkpt><trkpt lat="46.0761364" lon="11.0114525"><ele>472.0</ele><time>2026-05-03T13:32:09.058Z</time></trkpt><trkpt lat="46.0762543" lon="11.0112855"><ele>472.0</ele><time>2026-05-03T13:32:10.057Z</time></trkpt><trkpt lat="46.0763852" lon="11.0111375"><ele>472.0</ele><time>2026-05-03T13:32:11.058Z</time></trkpt><trkpt lat="46.0765267" lon="11.0110124"><ele>472.0</ele><time>2026-05-03T13:32:12.058Z</time></trkpt><trkpt lat="46.0766715" lon="11.010892"><ele>472.0</ele><time>2026-05-03T13:32:13.058Z</time></trkpt><trkpt lat="46.0768135" lon="11.0107816"><ele>466.6666666666667</ele><time>2026-05-03T13:32:14.058Z</time></trkpt><trkpt lat="46.0769613" lon="11.0106659"><ele>461.33333333333337</ele><time>2026-05-03T13:32:15.057Z</time></trkpt><trkpt lat="46.0770992" lon="11.0105644"><ele>456.0</ele><time>2026-05-03T13:32:16.057Z</time></trkpt><trkpt lat="46.0772318" lon="11.0104637"><ele>456.0</ele><time>2026-05-03T13:32:17.058Z</time></trkpt><trkpt lat="46.0773607" lon="11.0103635"><ele>456.0</ele><time>2026-05-03T13:32:18.058Z</time></trkpt><trkpt lat="46.0774842" lon="11.0102608"><ele>456.0</ele><time>2026-05-03T13:32:19.058Z</time></trkpt><trkpt lat="46.0776034" lon="11.0101624"><ele>456.0</ele><time>2026-05-03T13:32:20.058Z</time></trkpt><trkpt lat="46.0777186" lon="11.0100606"><ele>451.5</ele><time>2026-05-03T13:32:21.058Z</time></trkpt><trkpt lat="46.0778278" lon="11.0099342"><ele>447.0</ele><time>2026-05-03T13:32:22.058Z</time></trkpt><trkpt lat="46.0779251" lon="11.0097853"><ele>442.5</ele><time>2026-05-03T13:32:23.058Z</time></trkpt><trkpt lat="46.0779982" lon="11.0096151"><ele>438.0</ele><time>2026-05-03T13:32:24.058Z</time></trkpt><trkpt lat="46.0780456" lon="11.009423"><ele>438.0</ele><time>2026-05-03T13:32:25.058Z</time></trkpt><trkpt lat="46.0780693" lon="11.0092168"><ele>438.0</ele><time>2026-05-03T13:32:26.058Z</time></trkpt><trkpt lat="46.0780751" lon="11.0090139"><ele>438.0</ele><time>2026-05-03T13:32:27.057Z</time></trkpt><trkpt lat="46.0780767" lon="11.008802"><ele>438.0</ele><time>2026-05-03T13:32:28.058Z</time></trkpt><trkpt lat="46.0780813" lon="11.0085979"><ele>439.5</ele><time>2026-05-03T13:32:29.058Z</time></trkpt><trkpt lat="46.0780881" lon="11.0083879"><ele>441.0</ele><time>2026-05-03T13:32:30.058Z</time></trkpt><trkpt lat="46.0780982" lon="11.0081867"><ele>442.5</ele><time>2026-05-03T13:32:31.058Z</time></trkpt><trkpt lat="46.0781105" lon="11.0079758"><ele>444.0</ele><time>2026-05-03T13:32:32.057Z</time></trkpt><trkpt lat="46.0781235" lon="11.0077642"><ele>445.75</ele><time>2026-05-03T13:32:33.058Z</time></trkpt><trkpt lat="46.0781369" lon="11.00755"><ele>447.5</ele><time>2026-05-03T13:32:34.057Z</time></trkpt><trkpt lat="46.078147" lon="11.0073386"><ele>449.25</ele><time>2026-05-03T13:32:35.058Z</time></trkpt><trkpt lat="46.0781618" lon="11.0071202"><ele>451.0</ele><time>2026-05-03T13:32:36.058Z</time></trkpt><trkpt lat="46.078175" lon="11.0069048"><ele>451.0</ele><time>2026-05-03T13:32:37.058Z</time></trkpt><trkpt lat="46.0781735" lon="11.0066943"><ele>451.0</ele><time>2026-05-03T13:32:38.057Z</time></trkpt><trkpt lat="46.0781532" lon="11.0064854"><ele>451.0</ele><time>2026-05-03T13:32:39.058Z</time></trkpt><trkpt lat="46.0781209" lon="11.0062799"><ele>451.0</ele><time>2026-05-03T13:32:40.057Z</time></trkpt><trkpt lat="46.078062" lon="11.0061003"><ele>447.33333333333337</ele><time>2026-05-03T13:32:41.058Z</time></trkpt><trkpt lat="46.0779884" lon="11.0059186"><ele>443.66666666666663</ele><time>2026-05-03T13:32:42.058Z</time></trkpt><trkpt lat="46.0778852" lon="11.0057529"><ele>440.0</ele><time>2026-05-03T13:32:43.058Z</time></trkpt><trkpt lat="46.0777703" lon="11.0056022"><ele>440.3333333333333</ele><time>2026-05-03T13:32:44.057Z</time></trkpt><trkpt lat="46.0776488" lon="11.0054602"><ele>440.66666666666663</ele><time>2026-05-03T13:32:45.058Z</time></trkpt><trkpt lat="46.0775284" lon="11.005307"><ele>441.0</ele><time>2026-05-03T13:32:46.057Z</time></trkpt><trkpt lat="46.0774069" lon="11.0051512"><ele>437.0</ele><time>2026-05-03T13:32:47.057Z</time></trkpt><trkpt lat="46.0772824" lon="11.0049956"><ele>433.0</ele><time>2026-05-03T13:32:48.058Z</time></trkpt><trkpt lat="46.0771663" lon="11.0048461"><ele>429.0</ele><time>2026-05-03T13:32:49.058Z</time></trkpt><trkpt lat="46.0770511" lon="11.0046966"><ele>429.0</ele><time>2026-05-03T13:32:50.058Z</time></trkpt><trkpt lat="46.0769494" lon="11.0045469"><ele>429.0</ele><time>2026-05-03T13:32:51.056Z</time></trkpt><trkpt lat="46.0768599" lon="11.0043829"><ele>429.0</ele><time>2026-05-03T13:32:52.057Z</time></trkpt><trkpt lat="46.0767934" lon="11.0042025"><ele>429.0</ele><time>2026-05-03T13:32:53.056Z</time></trkpt><trkpt lat="46.0767526" lon="11.0039994"><ele>427.25</ele><time>2026-05-03T13:32:54.057Z</time></trkpt><trkpt lat="46.0767451" lon="11.003788"><ele>425.5</ele><time>2026-05-03T13:32:55.056Z</time></trkpt><trkpt lat="46.0767731" lon="11.0035928"><ele>423.75</ele><time>2026-05-03T13:32:56.057Z</time></trkpt><trkpt lat="46.0768315" lon="11.0034176"><ele>422.0</ele><time>2026-05-03T13:32:57.057Z</time></trkpt><trkpt lat="46.0769078" lon="11.0032566"><ele>419.5</ele><time>2026-05-03T13:32:58.057Z</time></trkpt><trkpt lat="46.0770142" lon="11.0031153"><ele>417.0</ele><time>2026-05-03T13:32:59.057Z</time></trkpt><trkpt lat="46.0771386" lon="11.003012"><ele>414.5</ele><time>2026-05-03T13:33:00.057Z</time></trkpt><trkpt lat="46.0772808" lon="11.0029383"><ele>412.0</ele><time>2026-05-03T13:33:01.057Z</time></trkpt><trkpt lat="46.0774411" lon="11.0028986"><ele>408.33333333333337</ele><time>2026-05-03T13:33:02.057Z</time></trkpt><trkpt lat="46.0776092" lon="11.0028731"><ele>404.66666666666663</ele><time>2026-05-03T13:33:03.056Z</time></trkpt><trkpt lat="46.0777704" lon="11.0028401"><ele>401.0</ele><time>2026-05-03T13:33:04.056Z</time></trkpt><trkpt lat="46.0779319" lon="11.0027994"><ele>401.0</ele><time>2026-05-03T13:33:05.057Z</time></trkpt><trkpt lat="46.0780905" lon="11.0027554"><ele>401.0</ele><time>2026-05-03T13:33:06.056Z</time></trkpt><trkpt lat="46.0782447" lon="11.0027123"><ele>401.0</ele><time>2026-05-03T13:33:07.057Z</time></trkpt><trkpt lat="46.0783945" lon="11.002677"><ele>400.66666666666663</ele><time>2026-05-03T13:33:08.057Z</time></trkpt><trkpt lat="46.078556" lon="11.0026577"><ele>400.33333333333337</ele><time>2026-05-03T13:33:09.056Z</time></trkpt><trkpt lat="46.0787156" lon="11.0026573"><ele>400.0</ele><time>2026-05-03T13:33:10.056Z</time></trkpt><trkpt lat="46.0788687" lon="11.0026724"><ele>400.0</ele><time>2026-05-03T13:33:11.057Z</time></trkpt><trkpt lat="46.0790267" lon="11.0027079"><ele>400.0</ele><time>2026-05-03T13:33:12.057Z</time></trkpt><trkpt lat="46.0791867" lon="11.0027607"><ele>400.0</ele><time>2026-05-03T13:33:13.057Z</time></trkpt><trkpt lat="46.0793411" lon="11.0028192"><ele>399.6666666666667</ele><time>2026-05-03T13:33:14.056Z</time></trkpt><trkpt lat="46.0794973" lon="11.0028549"><ele>399.33333333333337</ele><time>2026-05-03T13:33:15.057Z</time></trkpt><trkpt lat="46.0796553" lon="11.0028668"><ele>399.0</ele><time>2026-05-03T13:33:16.057Z</time></trkpt><trkpt lat="46.0798022" lon="11.002817"><ele>398.5</ele><time>2026-05-03T13:33:17.057Z</time></trkpt><trkpt lat="46.0799336" lon="11.0027242"><ele>398.0</ele><time>2026-05-03T13:33:18.057Z</time></trkpt><trkpt lat="46.0800551" lon="11.0025888"><ele>397.5</ele><time>2026-05-03T13:33:19.056Z</time></trkpt><trkpt lat="46.0801478" lon="11.0024211"><ele>397.0</ele><time>2026-05-03T13:33:20.057Z</time></trkpt><trkpt lat="46.0802282" lon="11.002249"><ele>394.5</ele><time>2026-05-03T13:33:21.057Z</time></trkpt><trkpt lat="46.0803781" lon="11.0018935"><ele>392.0</ele><time>2026-05-03T13:33:23.057Z</time></trkpt><trkpt lat="46.0802847" lon="11.001639"><ele>392.0</ele><time>2026-05-03T13:33:24.057Z</time></trkpt><trkpt lat="46.0802595" lon="11.0014088"><ele>392.0</ele><time>2026-05-03T13:33:25.057Z</time></trkpt><trkpt lat="46.0802268" lon="11.0012043"><ele>392.0</ele><time>2026-05-03T13:33:26.057Z</time></trkpt><trkpt lat="46.0802164" lon="11.0010193"><ele>392.0</ele><time>2026-05-03T13:33:27.057Z</time></trkpt><trkpt lat="46.0802153" lon="11.0008383"><ele>391.75</ele><time>2026-05-03T13:33:28.057Z</time></trkpt><trkpt lat="46.0802149" lon="11.0006653"><ele>391.5</ele><time>2026-05-03T13:33:29.056Z</time></trkpt><trkpt lat="46.0802065" lon="11.0004909"><ele>391.25</ele><time>2026-05-03T13:33:30.057Z</time></trkpt><trkpt lat="46.0801889" lon="11.0003147"><ele>391.0</ele><time>2026-05-03T13:33:31.057Z</time></trkpt><trkpt lat="46.0801562" lon="11.0001344"><ele>391.0</ele><time>2026-05-03T13:33:32.057Z</time></trkpt><trkpt lat="46.0801065" lon="10.9999589"><ele>391.0</ele><time>2026-05-03T13:33:33.057Z</time></trkpt><trkpt lat="46.0800392" lon="10.9997911"><ele>391.0</ele><time>2026-05-03T13:33:34.057Z</time></trkpt><trkpt lat="46.0799539" lon="10.9996332"><ele>391.0</ele><time>2026-05-03T13:33:35.057Z</time></trkpt><trkpt lat="46.0798566" lon="10.9994922"><ele>390.25</ele><time>2026-05-03T13:33:36.056Z</time></trkpt><trkpt lat="46.0797442" lon="10.9993699"><ele>389.5</ele><time>2026-05-03T13:33:37.057Z</time></trkpt><trkpt lat="46.079617" lon="10.9992589"><ele>388.75</ele><time>2026-05-03T13:33:38.056Z</time></trkpt><trkpt lat="46.0794841" lon="10.9991519"><ele>388.0</ele><time>2026-05-03T13:33:39.057Z</time></trkpt><trkpt lat="46.0793486" lon="10.9990542"><ele>387.0</ele><time>2026-05-03T13:33:40.057Z</time></trkpt><trkpt lat="46.0792144" lon="10.9989588"><ele>386.0</ele><time>2026-05-03T13:33:41.057Z</time></trkpt><trkpt lat="46.0790721" lon="10.9988674"><ele>385.0</ele><time>2026-05-03T13:33:42.057Z</time></trkpt><trkpt lat="46.0787952" lon="10.9986682"><ele>384.33333333333337</ele><time>2026-05-03T13:33:44.056Z</time></trkpt><trkpt lat="46.0786455" lon="10.9985706"><ele>383.6666666666667</ele><time>2026-05-03T13:33:45.057Z</time></trkpt><trkpt lat="46.0785035" lon="10.9984685"><ele>383.0</ele><time>2026-05-03T13:33:46.057Z</time></trkpt><trkpt lat="46.078378" lon="10.9983698"><ele>382.0</ele><time>2026-05-03T13:33:47.057Z</time></trkpt><trkpt lat="46.0782473" lon="10.9982564"><ele>381.0</ele><time>2026-05-03T13:33:48.057Z</time></trkpt><trkpt lat="46.0781062" lon="10.9981523"><ele>380.0</ele><time>2026-05-03T13:33:49.057Z</time></trkpt><trkpt lat="46.0779571" lon="10.9980273"><ele>380.0</ele><time>2026-05-03T13:33:50.057Z</time></trkpt><trkpt lat="46.077821" lon="10.9978915"><ele>380.0</ele><time>2026-05-03T13:33:51.057Z</time></trkpt><trkpt lat="46.0776789" lon="10.9977701"><ele>380.0</ele><time>2026-05-03T13:33:52.056Z</time></trkpt><trkpt lat="46.077545" lon="10.9976654"><ele>378.0</ele><time>2026-05-03T13:33:53.056Z</time></trkpt><trkpt lat="46.0774063" lon="10.9975548"><ele>376.0</ele><time>2026-05-03T13:33:54.057Z</time></trkpt><trkpt lat="46.0772681" lon="10.997446"><ele>374.0</ele><time>2026-05-03T13:33:55.057Z</time></trkpt><trkpt lat="46.0771251" lon="10.9973366"><ele>374.0</ele><time>2026-05-03T13:33:56.057Z</time></trkpt><trkpt lat="46.0769865" lon="10.9972164"><ele>374.0</ele><time>2026-05-03T13:33:57.057Z</time></trkpt><trkpt lat="46.0768506" lon="10.9971134"><ele>374.0</ele><time>2026-05-03T13:33:58.056Z</time></trkpt><trkpt lat="46.0767134" lon="10.9970033"><ele>373.33333333333337</ele><time>2026-05-03T13:33:59.056Z</time></trkpt><trkpt lat="46.0765775" lon="10.9968965"><ele>372.6666666666667</ele><time>2026-05-03T13:34:00.056Z</time></trkpt><trkpt lat="46.0764415" lon="10.9967911"><ele>372.0</ele><time>2026-05-03T13:34:01.057Z</time></trkpt><trkpt lat="46.0763091" lon="10.9966863"><ele>371.0</ele><time>2026-05-03T13:34:02.056Z</time></trkpt><trkpt lat="46.0761727" lon="10.9965861"><ele>370.0</ele><time>2026-05-03T13:34:03.056Z</time></trkpt><trkpt lat="46.0760392" lon="10.9964817"><ele>369.0</ele><time>2026-05-03T13:34:04.056Z</time></trkpt><trkpt lat="46.0759035" lon="10.9963829"><ele>369.0</ele><time>2026-05-03T13:34:05.057Z</time></trkpt><trkpt lat="46.0757703" lon="10.9962806"><ele>369.0</ele><time>2026-05-03T13:34:06.057Z</time></trkpt><trkpt lat="46.0756431" lon="10.9961741"><ele>369.0</ele><time>2026-05-03T13:34:07.057Z</time></trkpt><trkpt lat="46.0755136" lon="10.9960683"><ele>369.0</ele><time>2026-05-03T13:34:08.057Z</time></trkpt><trkpt lat="46.0753826" lon="10.9959645"><ele>368.75</ele><time>2026-05-03T13:34:09.056Z</time></trkpt><trkpt lat="46.075254" lon="10.9958615"><ele>368.5</ele><time>2026-05-03T13:34:10.057Z</time></trkpt><trkpt lat="46.0751315" lon="10.9957647"><ele>368.25</ele><time>2026-05-03T13:34:11.057Z</time></trkpt><trkpt lat="46.0750026" lon="10.9956674"><ele>368.0</ele><time>2026-05-03T13:34:12.056Z</time></trkpt><trkpt lat="46.0748761" lon="10.9955734"><ele>367.75</ele><time>2026-05-03T13:34:13.057Z</time></trkpt><trkpt lat="46.0747475" lon="10.9954829"><ele>367.5</ele><time>2026-05-03T13:34:14.057Z</time></trkpt><trkpt lat="46.0746185" lon="10.9953847"><ele>367.25</ele><time>2026-05-03T13:34:15.057Z</time></trkpt><trkpt lat="46.0744851" lon="10.9952936"><ele>367.0</ele><time>2026-05-03T13:34:16.057Z</time></trkpt><trkpt lat="46.0743496" lon="10.9952018"><ele>367.0</ele><time>2026-05-03T13:34:17.057Z</time></trkpt><trkpt lat="46.0742079" lon="10.9951209"><ele>367.0</ele><time>2026-05-03T13:34:18.057Z</time></trkpt><trkpt lat="46.074064" lon="10.9950462"><ele>367.0</ele><time>2026-05-03T13:34:19.056Z</time></trkpt><trkpt lat="46.0739191" lon="10.9949647"><ele>367.0</ele><time>2026-05-03T13:34:20.057Z</time></trkpt><trkpt lat="46.0737782" lon="10.9948833"><ele>367.0</ele><time>2026-05-03T13:34:21.057Z</time></trkpt><trkpt lat="46.0736333" lon="10.9948044"><ele>367.0</ele><time>2026-05-03T13:34:22.057Z</time></trkpt><trkpt lat="46.073483" lon="10.9947222"><ele>367.0</ele><time>2026-05-03T13:34:23.057Z</time></trkpt><trkpt lat="46.0733322" lon="10.9946398"><ele>367.0</ele><time>2026-05-03T13:34:24.057Z</time></trkpt><trkpt lat="46.0731838" lon="10.9945566"><ele>367.0</ele><time>2026-05-03T13:34:25.056Z</time></trkpt><trkpt lat="46.0730279" lon="10.9944732"><ele>367.0</ele><time>2026-05-03T13:34:26.056Z</time></trkpt><trkpt lat="46.0728712" lon="10.9943831"><ele>367.0</ele><time>2026-05-03T13:34:27.056Z</time></trkpt><trkpt lat="46.0727125" lon="10.9943029"><ele>367.0</ele><time>2026-05-03T13:34:28.057Z</time></trkpt><trkpt lat="46.0725602" lon="10.9942234"><ele>363.66666666666663</ele><time>2026-05-03T13:34:29.057Z</time></trkpt><trkpt lat="46.0723999" lon="10.9941375"><ele>360.3333333333333</ele><time>2026-05-03T13:34:30.057Z</time></trkpt><trkpt lat="46.0722392" lon="10.9940489"><ele>357.0</ele><time>2026-05-03T13:34:31.057Z</time></trkpt><trkpt lat="46.0720741" lon="10.9939696"><ele>357.0</ele><time>2026-05-03T13:34:32.057Z</time></trkpt><trkpt lat="46.071911" lon="10.9938837"><ele>357.0</ele><time>2026-05-03T13:34:33.056Z</time></trkpt><trkpt lat="46.0717513" lon="10.99379"><ele>357.0</ele><time>2026-05-03T13:34:34.057Z</time></trkpt><trkpt lat="46.0715913" lon="10.9937068"><ele>355.6666666666667</ele><time>2026-05-03T13:34:35.057Z</time></trkpt><trkpt lat="46.071431" lon="10.9936216"><ele>354.33333333333337</ele><time>2026-05-03T13:34:36.057Z</time></trkpt><trkpt lat="46.0712711" lon="10.9935353"><ele>353.0</ele><time>2026-05-03T13:34:37.056Z</time></trkpt><trkpt lat="46.0711069" lon="10.9934386"><ele>353.0</ele><time>2026-05-03T13:34:38.057Z</time></trkpt><trkpt lat="46.0709443" lon="10.9933408"><ele>353.0</ele><time>2026-05-03T13:34:39.057Z</time></trkpt><trkpt lat="46.0707815" lon="10.9932396"><ele>353.0</ele><time>2026-05-03T13:34:40.056Z</time></trkpt><trkpt lat="46.0706223" lon="10.9931297"><ele>348.33333333333337</ele><time>2026-05-03T13:34:41.056Z</time></trkpt><trkpt lat="46.0704581" lon="10.9930108"><ele>343.6666666666667</ele><time>2026-05-03T13:34:42.056Z</time></trkpt><trkpt lat="46.070296" lon="10.9928808"><ele>339.0</ele><time>2026-05-03T13:34:43.057Z</time></trkpt><trkpt lat="46.0701304" lon="10.992742"><ele>339.0</ele><time>2026-05-03T13:34:44.057Z</time></trkpt><trkpt lat="46.0699692" lon="10.992598"><ele>339.0</ele><time>2026-05-03T13:34:45.056Z</time></trkpt><trkpt lat="46.0698114" lon="10.9924513"><ele>339.0</ele><time>2026-05-03T13:34:46.057Z</time></trkpt><trkpt lat="46.0696528" lon="10.9923114"><ele>335.6666666666667</ele><time>2026-05-03T13:34:47.057Z</time></trkpt><trkpt lat="46.0694983" lon="10.9921704"><ele>332.33333333333337</ele><time>2026-05-03T13:34:48.056Z</time></trkpt><trkpt lat="46.0693453" lon="10.9920277"><ele>329.0</ele><time>2026-05-03T13:34:49.057Z</time></trkpt><trkpt lat="46.0691912" lon="10.9918868"><ele>325.0</ele><time>2026-05-03T13:34:50.057Z</time></trkpt><trkpt lat="46.0690392" lon="10.9917454"><ele>321.0</ele><time>2026-05-03T13:34:51.057Z</time></trkpt><trkpt lat="46.0688851" lon="10.9916077"><ele>317.0</ele><time>2026-05-03T13:34:52.057Z</time></trkpt><trkpt lat="46.0687346" lon="10.9914703"><ele>317.0</ele><time>2026-05-03T13:34:53.056Z</time></trkpt><trkpt lat="46.0685844" lon="10.9913394"><ele>317.0</ele><time>2026-05-03T13:34:54.057Z</time></trkpt><trkpt lat="46.0684326" lon="10.9912114"><ele>317.0</ele><time>2026-05-03T13:34:55.057Z</time></trkpt><trkpt lat="46.068277" lon="10.9910929"><ele>316.0</ele><time>2026-05-03T13:34:56.057Z</time></trkpt><trkpt lat="46.0681198" lon="10.990977"><ele>315.0</ele><time>2026-05-03T13:34:57.056Z</time></trkpt><trkpt lat="46.0679597" lon="10.9908721"><ele>314.0</ele><time>2026-05-03T13:34:58.057Z</time></trkpt><trkpt lat="46.0678047" lon="10.9907593"><ele>314.0</ele><time>2026-05-03T13:34:59.057Z</time></trkpt><trkpt lat="46.0676462" lon="10.9906548"><ele>314.0</ele><time>2026-05-03T13:35:00.056Z</time></trkpt><trkpt lat="46.0674873" lon="10.9905522"><ele>314.0</ele><time>2026-05-03T13:35:01.057Z</time></trkpt><trkpt lat="46.0673255" lon="10.9904492"><ele>308.33333333333337</ele><time>2026-05-03T13:35:02.056Z</time></trkpt><trkpt lat="46.0671655" lon="10.9903399"><ele>302.6666666666667</ele><time>2026-05-03T13:35:03.057Z</time></trkpt><trkpt lat="46.0670037" lon="10.9902347"><ele>297.0</ele><time>2026-05-03T13:35:04.056Z</time></trkpt><trkpt lat="46.0668459" lon="10.990131"><ele>297.0</ele><time>2026-05-03T13:35:05.057Z</time></trkpt><trkpt lat="46.0666866" lon="10.9900323"><ele>297.0</ele><time>2026-05-03T13:35:06.057Z</time></trkpt><trkpt lat="46.0665257" lon="10.9899439"><ele>297.0</ele><time>2026-05-03T13:35:07.057Z</time></trkpt><trkpt lat="46.066359" lon="10.9898686"><ele>295.0</ele><time>2026-05-03T13:35:08.056Z</time></trkpt><trkpt lat="46.0661842" lon="10.9898062"><ele>293.0</ele><time>2026-05-03T13:35:09.057Z</time></trkpt><trkpt lat="46.0660137" lon="10.9897546"><ele>291.0</ele><time>2026-05-03T13:35:10.057Z</time></trkpt><trkpt lat="46.06584" lon="10.9897114"><ele>292.0</ele><time>2026-05-03T13:35:11.057Z</time></trkpt><trkpt lat="46.0656693" lon="10.9896655"><ele>293.0</ele><time>2026-05-03T13:35:12.057Z</time></trkpt><trkpt lat="46.0654967" lon="10.9896122"><ele>294.0</ele><time>2026-05-03T13:35:13.057Z</time></trkpt><trkpt lat="46.0653269" lon="10.9895505"><ele>294.0</ele><time>2026-05-03T13:35:14.057Z</time></trkpt><trkpt lat="46.0651562" lon="10.9894729"><ele>294.0</ele><time>2026-05-03T13:35:15.056Z</time></trkpt><trkpt lat="46.0649934" lon="10.9893884"><ele>294.0</ele><time>2026-05-03T13:35:16.057Z</time></trkpt><trkpt lat="46.0648258" lon="10.9892863"><ele>300.6666666666667</ele><time>2026-05-03T13:35:17.057Z</time></trkpt><trkpt lat="46.0646613" lon="10.989172"><ele>307.33333333333337</ele><time>2026-05-03T13:35:18.056Z</time></trkpt><trkpt lat="46.0644937" lon="10.9890664"><ele>314.0</ele><time>2026-05-03T13:35:19.056Z</time></trkpt><trkpt lat="46.0643285" lon="10.9889576"><ele>314.0</ele><time>2026-05-03T13:35:20.057Z</time></trkpt><trkpt lat="46.0641694" lon="10.9888495"><ele>314.0</ele><time>2026-05-03T13:35:21.057Z</time></trkpt><trkpt lat="46.0640098" lon="10.9887373"><ele>314.0</ele><time>2026-05-03T13:35:22.055Z</time></trkpt><trkpt lat="46.0638506" lon="10.9886332"><ele>311.0</ele><time>2026-05-03T13:35:23.056Z</time></trkpt><trkpt lat="46.0636909" lon="10.9885238"><ele>308.0</ele><time>2026-05-03T13:35:24.056Z</time></trkpt><trkpt lat="46.063539" lon="10.9884197"><ele>305.0</ele><time>2026-05-03T13:35:25.055Z</time></trkpt><trkpt lat="46.0633917" lon="10.9883129"><ele>299.0</ele><time>2026-05-03T13:35:26.056Z</time></trkpt><trkpt lat="46.0632447" lon="10.9882014"><ele>293.0</ele><time>2026-05-03T13:35:27.056Z</time></trkpt><trkpt lat="46.0631025" lon="10.9880924"><ele>287.0</ele><time>2026-05-03T13:35:28.056Z</time></trkpt><trkpt lat="46.0629655" lon="10.9879712"><ele>287.0</ele><time>2026-05-03T13:35:29.056Z</time></trkpt><trkpt lat="46.0628406" lon="10.9878225"><ele>287.0</ele><time>2026-05-03T13:35:30.055Z</time></trkpt><trkpt lat="46.0627231" lon="10.9876538"><ele>287.0</ele><time>2026-05-03T13:35:31.056Z</time></trkpt><trkpt lat="46.0626133" lon="10.9874613"><ele>286.0</ele><time>2026-05-03T13:35:32.056Z</time></trkpt><trkpt lat="46.0625073" lon="10.9872672"><ele>285.0</ele><time>2026-05-03T13:35:33.056Z</time></trkpt><trkpt lat="46.0624051" lon="10.9870639"><ele>284.0</ele><time>2026-05-03T13:35:34.056Z</time></trkpt><trkpt lat="46.0623055" lon="10.9868596"><ele>279.6666666666667</ele><time>2026-05-03T13:35:35.056Z</time></trkpt><trkpt lat="46.0622075" lon="10.9866533"><ele>275.3333333333333</ele><time>2026-05-03T13:35:36.056Z</time></trkpt><trkpt lat="46.0621054" lon="10.9864482"><ele>271.0</ele><time>2026-05-03T13:35:37.056Z</time></trkpt><trkpt lat="46.0620024" lon="10.9862473"><ele>271.0</ele><time>2026-05-03T13:35:38.056Z</time></trkpt><trkpt lat="46.0618885" lon="10.9860619"><ele>271.0</ele><time>2026-05-03T13:35:39.056Z</time></trkpt><trkpt lat="46.061766" lon="10.9858801"><ele>271.0</ele><time>2026-05-03T13:35:40.055Z</time></trkpt><trkpt lat="46.0616421" lon="10.9857033"><ele>270.3333333333333</ele><time>2026-05-03T13:35:41.056Z</time></trkpt><trkpt lat="46.0615163" lon="10.9855277"><ele>269.6666666666667</ele><time>2026-05-03T13:35:42.056Z</time></trkpt><trkpt lat="46.0613782" lon="10.9853518"><ele>269.0</ele><time>2026-05-03T13:35:43.056Z</time></trkpt><trkpt lat="46.0612443" lon="10.9851779"><ele>270.0</ele><time>2026-05-03T13:35:44.056Z</time></trkpt><trkpt lat="46.0611062" lon="10.9850075"><ele>271.0</ele><time>2026-05-03T13:35:45.056Z</time></trkpt><trkpt lat="46.060973" lon="10.9848352"><ele>272.0</ele><time>2026-05-03T13:35:46.056Z</time></trkpt><trkpt lat="46.0608435" lon="10.9846654"><ele>269.6666666666667</ele><time>2026-05-03T13:35:47.055Z</time></trkpt><trkpt lat="46.0607188" lon="10.9844911"><ele>267.3333333333333</ele><time>2026-05-03T13:35:48.055Z</time></trkpt><trkpt lat="46.0605882" lon="10.9843217"><ele>265.0</ele><time>2026-05-03T13:35:49.055Z</time></trkpt><trkpt lat="46.0604597" lon="10.9841456"><ele>263.66666666666663</ele><time>2026-05-03T13:35:50.056Z</time></trkpt><trkpt lat="46.0603271" lon="10.9839713"><ele>262.3333333333333</ele><time>2026-05-03T13:35:51.056Z</time></trkpt><trkpt lat="46.0601971" lon="10.9838011"><ele>261.0</ele><time>2026-05-03T13:35:52.056Z</time></trkpt><trkpt lat="46.0600667" lon="10.9836296"><ele>259.0</ele><time>2026-05-03T13:35:53.056Z</time></trkpt><trkpt lat="46.059937" lon="10.9834593"><ele>257.0</ele><time>2026-05-03T13:35:54.056Z</time></trkpt><trkpt lat="46.0598129" lon="10.9832943"><ele>255.0</ele><time>2026-05-03T13:35:55.056Z</time></trkpt><trkpt lat="46.0596925" lon="10.9831352"><ele>255.0</ele><time>2026-05-03T13:35:56.056Z</time></trkpt><trkpt lat="46.0595733" lon="10.9829724"><ele>255.0</ele><time>2026-05-03T13:35:57.056Z</time></trkpt><trkpt lat="46.0594525" lon="10.982812"><ele>255.0</ele><time>2026-05-03T13:35:58.056Z</time></trkpt><trkpt lat="46.0593328" lon="10.9826553"><ele>256.6666666666667</ele><time>2026-05-03T13:35:59.055Z</time></trkpt><trkpt lat="46.0592166" lon="10.9824952"><ele>258.33333333333337</ele><time>2026-05-03T13:36:00.056Z</time></trkpt><trkpt lat="46.0591011" lon="10.9823326"><ele>260.0</ele><time>2026-05-03T13:36:01.056Z</time></trkpt><trkpt lat="46.058991" lon="10.9821625"><ele>260.0</ele><time>2026-05-03T13:36:02.056Z</time></trkpt><trkpt lat="46.0588974" lon="10.9819842"><ele>260.0</ele><time>2026-05-03T13:36:03.056Z</time></trkpt><trkpt lat="46.0588181" lon="10.9817989"><ele>260.0</ele><time>2026-05-03T13:36:04.055Z</time></trkpt><trkpt lat="46.0587545" lon="10.9815994"><ele>258.0</ele><time>2026-05-03T13:36:05.056Z</time></trkpt><trkpt lat="46.0587069" lon="10.981393"><ele>256.0</ele><time>2026-05-03T13:36:06.055Z</time></trkpt><trkpt lat="46.0586771" lon="10.9811863"><ele>254.0</ele><time>2026-05-03T13:36:07.056Z</time></trkpt><trkpt lat="46.0586617" lon="10.9809713"><ele>252.0</ele><time>2026-05-03T13:36:08.056Z</time></trkpt><trkpt lat="46.0586606" lon="10.9807454"><ele>251.33333333333331</ele><time>2026-05-03T13:36:09.056Z</time></trkpt><trkpt lat="46.0586679" lon="10.9805251"><ele>250.66666666666666</ele><time>2026-05-03T13:36:10.056Z</time></trkpt><trkpt lat="46.0586861" lon="10.9803041"><ele>250.0</ele><time>2026-05-03T13:36:11.055Z</time></trkpt><trkpt lat="46.0587148" lon="10.9800884"><ele>248.75</ele><time>2026-05-03T13:36:12.056Z</time></trkpt><trkpt lat="46.058747" lon="10.9798786"><ele>247.5</ele><time>2026-05-03T13:36:13.056Z</time></trkpt><trkpt lat="46.0587736" lon="10.9796813"><ele>246.25</ele><time>2026-05-03T13:36:14.056Z</time></trkpt><trkpt lat="46.0587938" lon="10.9794903"><ele>245.0</ele><time>2026-05-03T13:36:15.056Z</time></trkpt><trkpt lat="46.0588147" lon="10.9793095"><ele>245.75</ele><time>2026-05-03T13:36:16.055Z</time></trkpt><trkpt lat="46.0588371" lon="10.9791368"><ele>246.5</ele><time>2026-05-03T13:36:17.056Z</time></trkpt><trkpt lat="46.0588612" lon="10.9789687"><ele>247.25</ele><time>2026-05-03T13:36:18.055Z</time></trkpt><trkpt lat="46.0588856" lon="10.9788113"><ele>248.0</ele><time>2026-05-03T13:36:19.055Z</time></trkpt><trkpt lat="46.058907" lon="10.9786667"><ele>248.0</ele><time>2026-05-03T13:36:20.055Z</time></trkpt><trkpt lat="46.05893" lon="10.9785293"><ele>248.0</ele><time>2026-05-03T13:36:21.055Z</time></trkpt><trkpt lat="46.058953" lon="10.9783917"><ele>248.0</ele><time>2026-05-03T13:36:22.056Z</time></trkpt><trkpt lat="46.0589736" lon="10.9782554"><ele>248.0</ele><time>2026-05-03T13:36:23.056Z</time></trkpt><trkpt lat="46.0589988" lon="10.9781167"><ele>248.0</ele><time>2026-05-03T13:36:24.056Z</time></trkpt><trkpt lat="46.0590172" lon="10.9779776"><ele>247.8</ele><time>2026-05-03T13:36:25.055Z</time></trkpt><trkpt lat="46.0590346" lon="10.9778358"><ele>247.60000000000002</ele><time>2026-05-03T13:36:26.055Z</time></trkpt><trkpt lat="46.0590448" lon="10.9776972"><ele>247.39999999999998</ele><time>2026-05-03T13:36:27.055Z</time></trkpt><trkpt lat="46.0590437" lon="10.9775549"><ele>247.2</ele><time>2026-05-03T13:36:28.055Z</time></trkpt><trkpt lat="46.0590339" lon="10.977417"><ele>247.0</ele><time>2026-05-03T13:36:29.054Z</time></trkpt><trkpt lat="46.0590188" lon="10.9772984"><ele>247.0</ele><time>2026-05-03T13:36:30.055Z</time></trkpt><trkpt lat="46.0590026" lon="10.9772062"><ele>247.0</ele><time>2026-05-03T13:36:31.055Z</time></trkpt><trkpt lat="46.058992" lon="10.9771144"><ele>247.0</ele><time>2026-05-03T13:36:32.055Z</time></trkpt><trkpt lat="46.0589792" lon="10.9770189"><ele>247.0</ele><time>2026-05-03T13:36:33.055Z</time></trkpt><trkpt lat="46.0589454" lon="10.9769232"><ele>247.0</ele><time>2026-05-03T13:36:34.055Z</time></trkpt><trkpt lat="46.0588903" lon="10.976836"><ele>247.0</ele><time>2026-05-03T13:36:35.055Z</time></trkpt><trkpt lat="46.0588215" lon="10.9767555"><ele>247.0</ele><time>2026-05-03T13:36:36.054Z</time></trkpt><trkpt lat="46.0587417" lon="10.9766748"><ele>246.75</ele><time>2026-05-03T13:36:37.055Z</time></trkpt><trkpt lat="46.0586585" lon="10.9765841"><ele>246.5</ele><time>2026-05-03T13:36:38.055Z</time></trkpt><trkpt lat="46.0585728" lon="10.976484"><ele>246.25</ele><time>2026-05-03T13:36:39.055Z</time></trkpt><trkpt lat="46.058477" lon="10.9763687"><ele>246.0</ele><time>2026-05-03T13:36:40.055Z</time></trkpt><trkpt lat="46.0583885" lon="10.9762463"><ele>246.0</ele><time>2026-05-03T13:36:41.055Z</time></trkpt><trkpt lat="46.0582996" lon="10.9761117"><ele>246.0</ele><time>2026-05-03T13:36:42.054Z</time></trkpt><trkpt lat="46.0582151" lon="10.9759701"><ele>246.0</ele><time>2026-05-03T13:36:43.055Z</time></trkpt><trkpt lat="46.058133" lon="10.9758133"><ele>246.0</ele><time>2026-05-03T13:36:44.054Z</time></trkpt><trkpt lat="46.0580584" lon="10.975656"><ele>246.25</ele><time>2026-05-03T13:36:45.055Z</time></trkpt><trkpt lat="46.0579899" lon="10.9754876"><ele>246.5</ele><time>2026-05-03T13:36:46.054Z</time></trkpt><trkpt lat="46.0579308" lon="10.9753019"><ele>246.75</ele><time>2026-05-03T13:36:47.055Z</time></trkpt><trkpt lat="46.0578885" lon="10.9751027"><ele>247.0</ele><time>2026-05-03T13:36:48.055Z</time></trkpt><trkpt lat="46.0578559" lon="10.9748856"><ele>247.0</ele><time>2026-05-03T13:36:49.055Z</time></trkpt><trkpt lat="46.0578401" lon="10.9746732"><ele>247.0</ele><time>2026-05-03T13:36:50.055Z</time></trkpt><trkpt lat="46.0578177" lon="10.9744579"><ele>247.0</ele><time>2026-05-03T13:36:51.055Z</time></trkpt><trkpt lat="46.0577936" lon="10.9742515"><ele>247.0</ele><time>2026-05-03T13:36:52.054Z</time></trkpt><trkpt lat="46.05777" lon="10.9740471"><ele>247.0</ele><time>2026-05-03T13:36:53.055Z</time></trkpt><trkpt lat="46.0577414" lon="10.9738468"><ele>247.0</ele><time>2026-05-03T13:36:54.055Z</time></trkpt><trkpt lat="46.0577152" lon="10.9736526"><ele>247.0</ele><time>2026-05-03T13:36:55.054Z</time></trkpt><trkpt lat="46.0576948" lon="10.9734622"><ele>247.0</ele><time>2026-05-03T13:36:56.054Z</time></trkpt><trkpt lat="46.0576735" lon="10.9732805"><ele>246.75</ele><time>2026-05-03T13:36:57.055Z</time></trkpt><trkpt lat="46.0576477" lon="10.9730927"><ele>246.5</ele><time>2026-05-03T13:36:58.055Z</time></trkpt><trkpt lat="46.0576229" lon="10.9729104"><ele>246.25</ele><time>2026-05-03T13:36:59.054Z</time></trkpt><trkpt lat="46.0576033" lon="10.972731"><ele>246.0</ele><time>2026-05-03T13:37:00.054Z</time></trkpt><trkpt lat="46.0575948" lon="10.9725598"><ele>246.0</ele><time>2026-05-03T13:37:01.055Z</time></trkpt><trkpt lat="46.0576192" lon="10.9724034"><ele>246.00000000000003</ele><time>2026-05-03T13:37:02.055Z</time></trkpt><trkpt lat="46.0576593" lon="10.9722715"><ele>246.00000000000003</ele><time>2026-05-03T13:37:03.055Z</time></trkpt><trkpt lat="46.0577343" lon="10.9721721"><ele>246.0</ele><time>2026-05-03T13:37:04.055Z</time></trkpt><trkpt lat="46.0578367" lon="10.9721269"><ele>246.0</ele><time>2026-05-03T13:37:05.054Z</time></trkpt><trkpt lat="46.0579554" lon="10.9720993"><ele>246.0</ele><time>2026-05-03T13:37:06.055Z</time></trkpt><trkpt lat="46.0580874" lon="10.9720755"><ele>246.0</ele><time>2026-05-03T13:37:07.055Z</time></trkpt><trkpt lat="46.0582001" lon="10.9720419"><ele>246.0</ele><time>2026-05-03T13:37:08.055Z</time></trkpt><trkpt lat="46.0583018" lon="10.97199"><ele>246.0</ele><time>2026-05-03T13:37:09.054Z</time></trkpt><trkpt lat="46.058388" lon="10.9718944"><ele>247.25</ele><time>2026-05-03T13:37:10.054Z</time></trkpt><trkpt lat="46.0584514" lon="10.9717753"><ele>248.5</ele><time>2026-05-03T13:37:11.055Z</time></trkpt><trkpt lat="46.0584921" lon="10.9716248"><ele>249.75</ele><time>2026-05-03T13:37:12.054Z</time></trkpt><trkpt lat="46.0585169" lon="10.9714575"><ele>251.0</ele><time>2026-05-03T13:37:13.055Z</time></trkpt><trkpt lat="46.0585081" lon="10.9712887"><ele>251.0</ele><time>2026-05-03T13:37:14.055Z</time></trkpt><trkpt lat="46.058478" lon="10.9711291"><ele>251.0</ele><time>2026-05-03T13:37:15.055Z</time></trkpt><trkpt lat="46.0584229" lon="10.9709736"><ele>251.0</ele><time>2026-05-03T13:37:16.055Z</time></trkpt><trkpt lat="46.0583527" lon="10.9708215"><ele>251.0</ele><time>2026-05-03T13:37:17.055Z</time></trkpt><trkpt lat="46.0582685" lon="10.9706798"><ele>249.0</ele><time>2026-05-03T13:37:18.055Z</time></trkpt><trkpt lat="46.0581815" lon="10.970532"><ele>247.0</ele><time>2026-05-03T13:37:19.055Z</time></trkpt><trkpt lat="46.05809" lon="10.9703874"><ele>245.0</ele><time>2026-05-03T13:37:20.055Z</time></trkpt><trkpt lat="46.0579947" lon="10.9702467"><ele>243.0</ele><time>2026-05-03T13:37:21.055Z</time></trkpt><trkpt lat="46.0579004" lon="10.9701012"><ele>244.0</ele><time>2026-05-03T13:37:22.055Z</time></trkpt><trkpt lat="46.0578106" lon="10.9699572"><ele>245.0</ele><time>2026-05-03T13:37:23.055Z</time></trkpt><trkpt lat="46.0577196" lon="10.9698071"><ele>246.0</ele><time>2026-05-03T13:37:24.055Z</time></trkpt><trkpt lat="46.0576169" lon="10.9696647"><ele>247.0</ele><time>2026-05-03T13:37:25.055Z</time></trkpt><trkpt lat="46.0575182" lon="10.9695205"><ele>246.0</ele><time>2026-05-03T13:37:26.054Z</time></trkpt><trkpt lat="46.0574224" lon="10.9693763"><ele>245.0</ele><time>2026-05-03T13:37:27.055Z</time></trkpt><trkpt lat="46.0573191" lon="10.9692146"><ele>244.0</ele><time>2026-05-03T13:37:28.055Z</time></trkpt><trkpt lat="46.0572211" lon="10.9690525"><ele>243.0</ele><time>2026-05-03T13:37:29.055Z</time></trkpt><trkpt lat="46.0571265" lon="10.9688813"><ele>243.0</ele><time>2026-05-03T13:37:30.054Z</time></trkpt><trkpt lat="46.0570444" lon="10.9687023"><ele>243.0</ele><time>2026-05-03T13:37:31.054Z</time></trkpt><trkpt lat="46.0569606" lon="10.9685154"><ele>243.0</ele><time>2026-05-03T13:37:32.055Z</time></trkpt><trkpt lat="46.0568734" lon="10.96833"><ele>243.33333333333331</ele><time>2026-05-03T13:37:33.055Z</time></trkpt><trkpt lat="46.0567873" lon="10.9681347"><ele>243.66666666666666</ele><time>2026-05-03T13:37:34.055Z</time></trkpt><trkpt lat="46.0567011" lon="10.9679474"><ele>244.0</ele><time>2026-05-03T13:37:35.054Z</time></trkpt><trkpt lat="46.0566145" lon="10.9677673"><ele>244.0</ele><time>2026-05-03T13:37:36.054Z</time></trkpt><trkpt lat="46.0565283" lon="10.9675883"><ele>244.0</ele><time>2026-05-03T13:37:37.055Z</time></trkpt><trkpt lat="46.0564487" lon="10.9674231"><ele>244.0</ele><time>2026-05-03T13:37:38.054Z</time></trkpt><trkpt lat="46.0563736" lon="10.9672514"><ele>244.0</ele><time>2026-05-03T13:37:39.055Z</time></trkpt><trkpt lat="46.0563193" lon="10.9670787"><ele>244.5</ele><time>2026-05-03T13:37:40.055Z</time></trkpt><trkpt lat="46.0562824" lon="10.9669122"><ele>245.0</ele><time>2026-05-03T13:37:41.054Z</time></trkpt><trkpt lat="46.0562656" lon="10.9667352"><ele>245.5</ele><time>2026-05-03T13:37:42.055Z</time></trkpt><trkpt lat="46.0562731" lon="10.9665553"><ele>246.0</ele><time>2026-05-03T13:37:43.054Z</time></trkpt><trkpt lat="46.0562946" lon="10.9663844"><ele>246.0</ele><time>2026-05-03T13:37:44.055Z</time></trkpt><trkpt lat="46.0563115" lon="10.9662087"><ele>246.0</ele><time>2026-05-03T13:37:45.055Z</time></trkpt><trkpt lat="46.0563282" lon="10.9660372"><ele>246.0</ele><time>2026-05-03T13:37:46.055Z</time></trkpt><trkpt lat="46.0563433" lon="10.9658579"><ele>246.0</ele><time>2026-05-03T13:37:47.055Z</time></trkpt><trkpt lat="46.0563558" lon="10.9656827"><ele>246.25</ele><time>2026-05-03T13:37:48.055Z</time></trkpt><trkpt lat="46.0563652" lon="10.9655058"><ele>246.5</ele><time>2026-05-03T13:37:49.055Z</time></trkpt><trkpt lat="46.0563748" lon="10.9653227"><ele>246.75</ele><time>2026-05-03T13:37:50.054Z</time></trkpt><trkpt lat="46.0563912" lon="10.9651329"><ele>247.0</ele><time>2026-05-03T13:37:51.054Z</time></trkpt><trkpt lat="46.0564031" lon="10.964943"><ele>247.5</ele><time>2026-05-03T13:37:52.054Z</time></trkpt><trkpt lat="46.056408" lon="10.9647551"><ele>248.0</ele><time>2026-05-03T13:37:53.055Z</time></trkpt><trkpt lat="46.0563923" lon="10.9645711"><ele>248.5</ele><time>2026-05-03T13:37:54.054Z</time></trkpt><trkpt lat="46.0563535" lon="10.9644"><ele>249.0</ele><time>2026-05-03T13:37:55.054Z</time></trkpt><trkpt lat="46.0562896" lon="10.9642306"><ele>249.5</ele><time>2026-05-03T13:37:56.054Z</time></trkpt><trkpt lat="46.0562025" lon="10.9640777"><ele>250.0</ele><time>2026-05-03T13:37:57.054Z</time></trkpt><trkpt lat="46.056112" lon="10.9639241"><ele>250.5</ele><time>2026-05-03T13:37:58.054Z</time></trkpt><trkpt lat="46.0560216" lon="10.9637636"><ele>251.0</ele><time>2026-05-03T13:37:59.055Z</time></trkpt><trkpt lat="46.0559284" lon="10.9635975"><ele>251.0</ele><time>2026-05-03T13:38:00.055Z</time></trkpt><trkpt lat="46.0558341" lon="10.9634295"><ele>251.0</ele><time>2026-05-03T13:38:01.055Z</time></trkpt><trkpt lat="46.0557374" lon="10.9632649"><ele>251.0</ele><time>2026-05-03T13:38:02.054Z</time></trkpt><trkpt lat="46.0556339" lon="10.9630969"><ele>248.33333333333334</ele><time>2026-05-03T13:38:03.055Z</time></trkpt><trkpt lat="46.0555368" lon="10.9629255"><ele>245.66666666666669</ele><time>2026-05-03T13:38:04.055Z</time></trkpt><trkpt lat="46.0554421" lon="10.9627479"><ele>243.0</ele><time>2026-05-03T13:38:05.055Z</time></trkpt><trkpt lat="46.0553586" lon="10.9625679"><ele>244.0</ele><time>2026-05-03T13:38:06.055Z</time></trkpt><trkpt lat="46.0552838" lon="10.9623803"><ele>245.0</ele><time>2026-05-03T13:38:07.055Z</time></trkpt><trkpt lat="46.055212" lon="10.9621922"><ele>246.0</ele><time>2026-05-03T13:38:08.055Z</time></trkpt><trkpt lat="46.0551452" lon="10.9619986"><ele>247.0</ele><time>2026-05-03T13:38:09.055Z</time></trkpt><trkpt lat="46.055078" lon="10.9618032"><ele>245.66666666666666</ele><time>2026-05-03T13:38:10.055Z</time></trkpt><trkpt lat="46.0550056" lon="10.9616031"><ele>244.33333333333331</ele><time>2026-05-03T13:38:11.054Z</time></trkpt><trkpt lat="46.0549369" lon="10.9614088"><ele>243.0</ele><time>2026-05-03T13:38:12.055Z</time></trkpt><trkpt lat="46.0548671" lon="10.9612098"><ele>243.0</ele><time>2026-05-03T13:38:13.055Z</time></trkpt><trkpt lat="46.0547916" lon="10.9610162"><ele>243.0</ele><time>2026-05-03T13:38:14.055Z</time></trkpt><trkpt lat="46.0547219" lon="10.9608195"><ele>243.0</ele><time>2026-05-03T13:38:15.055Z</time></trkpt><trkpt lat="46.0546499" lon="10.9606262"><ele>243.66666666666669</ele><time>2026-05-03T13:38:16.055Z</time></trkpt><trkpt lat="46.0545757" lon="10.960432"><ele>244.33333333333334</ele><time>2026-05-03T13:38:17.055Z</time></trkpt><trkpt lat="46.0545011" lon="10.9602375"><ele>245.0</ele><time>2026-05-03T13:38:18.054Z</time></trkpt><trkpt lat="46.0544195" lon="10.9600469"><ele>248.33333333333334</ele><time>2026-05-03T13:38:19.055Z</time></trkpt><trkpt lat="46.0543281" lon="10.9598636"><ele>251.66666666666669</ele><time>2026-05-03T13:38:20.055Z</time></trkpt><trkpt lat="46.0542301" lon="10.959685"><ele>255.0</ele><time>2026-05-03T13:38:21.055Z</time></trkpt><trkpt lat="46.0541268" lon="10.9595087"><ele>254.0</ele><time>2026-05-03T13:38:22.055Z</time></trkpt><trkpt lat="46.0540253" lon="10.9593382"><ele>253.0</ele><time>2026-05-03T13:38:23.055Z</time></trkpt><trkpt lat="46.053917" lon="10.9591945"><ele>252.0</ele><time>2026-05-03T13:38:24.055Z</time></trkpt><trkpt lat="46.0537982" lon="10.9590812"><ele>251.0</ele><time>2026-05-03T13:38:25.055Z</time></trkpt><trkpt lat="46.0536647" lon="10.9589996"><ele>251.0</ele><time>2026-05-03T13:38:26.055Z</time></trkpt><trkpt lat="46.0535207" lon="10.9589492"><ele>251.0</ele><time>2026-05-03T13:38:27.054Z</time></trkpt><trkpt lat="46.0533708" lon="10.9589124"><ele>251.0</ele><time>2026-05-03T13:38:28.055Z</time></trkpt><trkpt lat="46.053221" lon="10.9588709"><ele>250.0</ele><time>2026-05-03T13:38:29.055Z</time></trkpt><trkpt lat="46.0530735" lon="10.9588236"><ele>249.0</ele><time>2026-05-03T13:38:30.054Z</time></trkpt><trkpt lat="46.0529228" lon="10.9587808"><ele>248.0</ele><time>2026-05-03T13:38:31.055Z</time></trkpt><trkpt lat="46.0527719" lon="10.958744"><ele>248.0</ele><time>2026-05-03T13:38:32.055Z</time></trkpt><trkpt lat="46.0526221" lon="10.958702"><ele>248.0</ele><time>2026-05-03T13:38:33.055Z</time></trkpt><trkpt lat="46.0524793" lon="10.9586544"><ele>248.0</ele><time>2026-05-03T13:38:34.055Z</time></trkpt><trkpt lat="46.0523404" lon="10.9586114"><ele>248.0</ele><time>2026-05-03T13:38:35.055Z</time></trkpt><trkpt lat="46.0521972" lon="10.958569"><ele>247.5</ele><time>2026-05-03T13:38:36.055Z</time></trkpt><trkpt lat="46.0520518" lon="10.9585242"><ele>247.0</ele><time>2026-05-03T13:38:37.055Z</time></trkpt><trkpt lat="46.0519062" lon="10.9584796"><ele>246.5</ele><time>2026-05-03T13:38:38.054Z</time></trkpt><trkpt lat="46.0517647" lon="10.958426"><ele>246.0</ele><time>2026-05-03T13:38:39.055Z</time></trkpt><trkpt lat="46.051626" lon="10.9583686"><ele>246.25</ele><time>2026-05-03T13:38:40.055Z</time></trkpt><trkpt lat="46.0514903" lon="10.9582945"><ele>246.5</ele><time>2026-05-03T13:38:41.054Z</time></trkpt><trkpt lat="46.0513592" lon="10.9581918"><ele>246.75</ele><time>2026-05-03T13:38:42.055Z</time></trkpt><trkpt lat="46.0512261" lon="10.9580784"><ele>247.0</ele><time>2026-05-03T13:38:43.055Z</time></trkpt><trkpt lat="46.0511072" lon="10.9579576"><ele>247.0</ele><time>2026-05-03T13:38:44.055Z</time></trkpt><trkpt lat="46.0509841" lon="10.9578343"><ele>247.0</ele><time>2026-05-03T13:38:45.055Z</time></trkpt><trkpt lat="46.0508589" lon="10.9577091"><ele>247.0</ele><time>2026-05-03T13:38:46.055Z</time></trkpt><trkpt lat="46.0507351" lon="10.95758"><ele>246.66666666666666</ele><time>2026-05-03T13:38:47.054Z</time></trkpt><trkpt lat="46.0506108" lon="10.9574557"><ele>246.33333333333331</ele><time>2026-05-03T13:38:48.055Z</time></trkpt><trkpt lat="46.0504863" lon="10.9573286"><ele>246.0</ele><time>2026-05-03T13:38:49.054Z</time></trkpt><trkpt lat="46.0503661" lon="10.9572081"><ele>246.0</ele><time>2026-05-03T13:38:50.055Z</time></trkpt><trkpt lat="46.0502431" lon="10.9570882"><ele>246.0</ele><time>2026-05-03T13:38:51.054Z</time></trkpt><trkpt lat="46.0501279" lon="10.9569663"><ele>246.0</ele><time>2026-05-03T13:38:52.055Z</time></trkpt><trkpt lat="46.0500025" lon="10.9568485"><ele>246.0</ele><time>2026-05-03T13:38:53.054Z</time></trkpt><trkpt lat="46.0498843" lon="10.9567237"><ele>245.75</ele><time>2026-05-03T13:38:54.055Z</time></trkpt><trkpt lat="46.0497626" lon="10.9565982"><ele>245.5</ele><time>2026-05-03T13:38:55.054Z</time></trkpt><trkpt lat="46.049648" lon="10.9564722"><ele>245.25</ele><time>2026-05-03T13:38:56.054Z</time></trkpt><trkpt lat="46.0495309" lon="10.9563403"><ele>245.0</ele><time>2026-05-03T13:38:57.055Z</time></trkpt><trkpt lat="46.0494231" lon="10.9562009"><ele>245.0</ele><time>2026-05-03T13:38:58.055Z</time></trkpt><trkpt lat="46.049322" lon="10.9560468"><ele>245.0</ele><time>2026-05-03T13:38:59.055Z</time></trkpt><trkpt lat="46.0492237" lon="10.9559044"><ele>245.0</ele><time>2026-05-03T13:39:00.055Z</time></trkpt><trkpt lat="46.0491274" lon="10.955765"><ele>245.0</ele><time>2026-05-03T13:39:01.055Z</time></trkpt><trkpt lat="46.0490337" lon="10.9556268"><ele>245.5</ele><time>2026-05-03T13:39:02.054Z</time></trkpt><trkpt lat="46.0489404" lon="10.9554872"><ele>246.0</ele><time>2026-05-03T13:39:03.054Z</time></trkpt><trkpt lat="46.048854" lon="10.9553493"><ele>246.5</ele><time>2026-05-03T13:39:04.055Z</time></trkpt><trkpt lat="46.0487718" lon="10.9552109"><ele>247.0</ele><time>2026-05-03T13:39:05.055Z</time></trkpt><trkpt lat="46.0486946" lon="10.9550799"><ele>247.39999999999998</ele><time>2026-05-03T13:39:06.055Z</time></trkpt><trkpt lat="46.0486205" lon="10.9549484"><ele>247.79999999999998</ele><time>2026-05-03T13:39:07.054Z</time></trkpt><trkpt lat="46.0485491" lon="10.9548347"><ele>248.2</ele><time>2026-05-03T13:39:08.055Z</time></trkpt><trkpt lat="46.0484818" lon="10.9547337"><ele>248.6</ele><time>2026-05-03T13:39:09.055Z</time></trkpt><trkpt lat="46.048421" lon="10.9546299"><ele>249.0</ele><time>2026-05-03T13:39:10.055Z</time></trkpt><trkpt lat="46.0483557" lon="10.9545228"><ele>248.75</ele><time>2026-05-03T13:39:11.055Z</time></trkpt><trkpt lat="46.0482813" lon="10.9544127"><ele>248.5</ele><time>2026-05-03T13:39:12.055Z</time></trkpt><trkpt lat="46.0482044" lon="10.9542971"><ele>248.25</ele><time>2026-05-03T13:39:13.055Z</time></trkpt><trkpt lat="46.0481224" lon="10.9541741"><ele>248.0</ele><time>2026-05-03T13:39:14.055Z</time></trkpt><trkpt lat="46.0480384" lon="10.954045"><ele>247.75</ele><time>2026-05-03T13:39:15.055Z</time></trkpt><trkpt lat="46.0479506" lon="10.953912"><ele>247.5</ele><time>2026-05-03T13:39:16.055Z</time></trkpt><trkpt lat="46.0478573" lon="10.9537723"><ele>247.25</ele><time>2026-05-03T13:39:17.054Z</time></trkpt><trkpt lat="46.0477705" lon="10.9536343"><ele>247.0</ele><time>2026-05-03T13:39:18.054Z</time></trkpt><trkpt lat="46.0476846" lon="10.9534936"><ele>247.25</ele><time>2026-05-03T13:39:19.054Z</time></trkpt><trkpt lat="46.0476" lon="10.9533417"><ele>247.5</ele><time>2026-05-03T13:39:20.055Z</time></trkpt><trkpt lat="46.0475167" lon="10.9531979"><ele>247.75</ele><time>2026-05-03T13:39:21.054Z</time></trkpt><trkpt lat="46.0474457" lon="10.953055"><ele>248.0</ele><time>2026-05-03T13:39:22.055Z</time></trkpt><trkpt lat="46.0473801" lon="10.9529148"><ele>248.0</ele><time>2026-05-03T13:39:23.055Z</time></trkpt><trkpt lat="46.0473232" lon="10.9527794"><ele>248.0</ele><time>2026-05-03T13:39:24.054Z</time></trkpt><trkpt lat="46.0472779" lon="10.9526571"><ele>248.0</ele><time>2026-05-03T13:39:25.054Z</time></trkpt><trkpt lat="46.0472453" lon="10.9525393"><ele>248.0</ele><time>2026-05-03T13:39:26.055Z</time></trkpt><trkpt lat="46.0472192" lon="10.9524273"><ele>248.0</ele><time>2026-05-03T13:39:27.055Z</time></trkpt><trkpt lat="46.0471949" lon="10.9523045"><ele>248.0</ele><time>2026-05-03T13:39:28.055Z</time></trkpt><trkpt lat="46.0471688" lon="10.9521597"><ele>248.0</ele><time>2026-05-03T13:39:29.055Z</time></trkpt><trkpt lat="46.0471415" lon="10.9520147"><ele>248.0</ele><time>2026-05-03T13:39:30.055Z</time></trkpt><trkpt lat="46.0471151" lon="10.9518669"><ele>248.0</ele><time>2026-05-03T13:39:31.055Z</time></trkpt><trkpt lat="46.0470879" lon="10.9517163"><ele>248.0</ele><time>2026-05-03T13:39:32.054Z</time></trkpt><trkpt lat="46.0470611" lon="10.9515554"><ele>248.0</ele><time>2026-05-03T13:39:33.055Z</time></trkpt><trkpt lat="46.0470295" lon="10.9513933"><ele>248.0</ele><time>2026-05-03T13:39:34.055Z</time></trkpt><trkpt lat="46.0469952" lon="10.9512276"><ele>248.0</ele><time>2026-05-03T13:39:35.054Z</time></trkpt><trkpt lat="46.0469677" lon="10.9510572"><ele>248.0</ele><time>2026-05-03T13:39:36.055Z</time></trkpt><trkpt lat="46.0469399" lon="10.9508847"><ele>247.75</ele><time>2026-05-03T13:39:37.055Z</time></trkpt><trkpt lat="46.0469193" lon="10.9507086"><ele>247.5</ele><time>2026-05-03T13:39:38.055Z</time></trkpt><trkpt lat="46.046896" lon="10.9505265"><ele>247.25</ele><time>2026-05-03T13:39:39.054Z</time></trkpt><trkpt lat="46.0468703" lon="10.9503401"><ele>247.0</ele><time>2026-05-03T13:39:40.055Z</time></trkpt><trkpt lat="46.0468459" lon="10.9501535"><ele>248.0</ele><time>2026-05-03T13:39:41.055Z</time></trkpt><trkpt lat="46.0468181" lon="10.949965"><ele>249.0</ele><time>2026-05-03T13:39:42.055Z</time></trkpt><trkpt lat="46.046787" lon="10.94978"><ele>250.0</ele><time>2026-05-03T13:39:43.054Z</time></trkpt><trkpt lat="46.0467526" lon="10.9495969"><ele>251.0</ele><time>2026-05-03T13:39:44.055Z</time></trkpt><trkpt lat="46.0467106" lon="10.9494108"><ele>251.0</ele><time>2026-05-03T13:39:45.054Z</time></trkpt><trkpt lat="46.0466572" lon="10.9492295"><ele>251.0</ele><time>2026-05-03T13:39:46.054Z</time></trkpt><trkpt lat="46.0465941" lon="10.9490574"><ele>251.0</ele><time>2026-05-03T13:39:47.054Z</time></trkpt><trkpt lat="46.0465258" lon="10.9488829"><ele>251.0</ele><time>2026-05-03T13:39:48.054Z</time></trkpt><trkpt lat="46.0464588" lon="10.9487116"><ele>251.25</ele><time>2026-05-03T13:39:49.054Z</time></trkpt><trkpt lat="46.0463882" lon="10.9485364"><ele>251.5</ele><time>2026-05-03T13:39:50.054Z</time></trkpt><trkpt lat="46.0463172" lon="10.9483664"><ele>251.75</ele><time>2026-05-03T13:39:51.055Z</time></trkpt><trkpt lat="46.0462519" lon="10.9481886"><ele>252.0</ele><time>2026-05-03T13:39:52.055Z</time></trkpt><trkpt lat="46.0461925" lon="10.9480072"><ele>252.5</ele><time>2026-05-03T13:39:53.055Z</time></trkpt><trkpt lat="46.0461396" lon="10.9478125"><ele>253.0</ele><time>2026-05-03T13:39:54.054Z</time></trkpt><trkpt lat="46.0461052" lon="10.9476126"><ele>253.5</ele><time>2026-05-03T13:39:55.055Z</time></trkpt><trkpt lat="46.0460813" lon="10.9474074"><ele>254.0</ele><time>2026-05-03T13:39:56.055Z</time></trkpt><trkpt lat="46.0460728" lon="10.9471937"><ele>256.25</ele><time>2026-05-03T13:39:57.054Z</time></trkpt><trkpt lat="46.0460766" lon="10.9469876"><ele>258.5</ele><time>2026-05-03T13:39:58.054Z</time></trkpt><trkpt lat="46.0460999" lon="10.9467803"><ele>260.75</ele><time>2026-05-03T13:39:59.055Z</time></trkpt><trkpt lat="46.0461362" lon="10.9465788"><ele>263.0</ele><time>2026-05-03T13:40:00.054Z</time></trkpt><trkpt lat="46.0461802" lon="10.946377"><ele>264.75</ele><time>2026-05-03T13:40:01.055Z</time></trkpt><trkpt lat="46.0462405" lon="10.9461751"><ele>266.5</ele><time>2026-05-03T13:40:02.055Z</time></trkpt><trkpt lat="46.0463028" lon="10.9459808"><ele>268.25</ele><time>2026-05-03T13:40:03.055Z</time></trkpt><trkpt lat="46.0463621" lon="10.9457893"><ele>270.0</ele><time>2026-05-03T13:40:04.054Z</time></trkpt><trkpt lat="46.0464232" lon="10.9456038"><ele>270.0</ele><time>2026-05-03T13:40:05.054Z</time></trkpt><trkpt lat="46.0464796" lon="10.9454291"><ele>270.0</ele><time>2026-05-03T13:40:06.054Z</time></trkpt><trkpt lat="46.0465388" lon="10.9452668"><ele>270.0</ele><time>2026-05-03T13:40:07.055Z</time></trkpt><trkpt lat="46.0465911" lon="10.9451188"><ele>270.0</ele><time>2026-05-03T13:40:08.055Z</time></trkpt><trkpt lat="46.0466378" lon="10.9449784"><ele>270.0</ele><time>2026-05-03T13:40:09.054Z</time></trkpt><trkpt lat="46.0466648" lon="10.9448566"><ele>270.0</ele><time>2026-05-03T13:40:10.054Z</time></trkpt><trkpt lat="46.04666" lon="10.9447618"><ele>270.0</ele><time>2026-05-03T13:40:11.055Z</time></trkpt><trkpt lat="46.0466172" lon="10.9446784"><ele>270.0</ele><time>2026-05-03T13:40:12.054Z</time></trkpt><trkpt lat="46.0465625" lon="10.944609"><ele>270.0</ele><time>2026-05-03T13:40:13.055Z</time></trkpt><trkpt lat="46.0464921" lon="10.9445745"><ele>270.0</ele><time>2026-05-03T13:40:14.055Z</time></trkpt><trkpt lat="46.0464099" lon="10.9445892"><ele>271.6</ele><time>2026-05-03T13:40:15.055Z</time></trkpt><trkpt lat="46.0463255" lon="10.9446437"><ele>273.2</ele><time>2026-05-03T13:40:16.055Z</time></trkpt><trkpt lat="46.0462516" lon="10.9447281"><ele>274.8</ele><time>2026-05-03T13:40:17.055Z</time></trkpt><trkpt lat="46.0461825" lon="10.9448434"><ele>276.4</ele><time>2026-05-03T13:40:18.054Z</time></trkpt><trkpt lat="46.0461108" lon="10.9449449"><ele>278.0</ele><time>2026-05-03T13:40:19.054Z</time></trkpt><trkpt lat="46.0460353" lon="10.945055"><ele>278.0</ele><time>2026-05-03T13:40:20.055Z</time></trkpt><trkpt lat="46.0459531" lon="10.9451597"><ele>278.0</ele><time>2026-05-03T13:40:21.055Z</time></trkpt><trkpt lat="46.0458722" lon="10.9452719"><ele>278.0</ele><time>2026-05-03T13:40:22.054Z</time></trkpt><trkpt lat="46.0457949" lon="10.9453995"><ele>278.0</ele><time>2026-05-03T13:40:23.055Z</time></trkpt><trkpt lat="46.0457156" lon="10.9455282"><ele>280.4</ele><time>2026-05-03T13:40:24.054Z</time></trkpt><trkpt lat="46.0456425" lon="10.9456629"><ele>282.8</ele><time>2026-05-03T13:40:25.055Z</time></trkpt><trkpt lat="46.045575" lon="10.9457982"><ele>285.2</ele><time>2026-05-03T13:40:26.054Z</time></trkpt><trkpt lat="46.0455118" lon="10.9459299"><ele>287.6</ele><time>2026-05-03T13:40:27.055Z</time></trkpt><trkpt lat="46.0454597" lon="10.9460384"><ele>290.0</ele><time>2026-05-03T13:40:28.054Z</time></trkpt><trkpt lat="46.0454095" lon="10.9461274"><ele>290.0</ele><time>2026-05-03T13:40:29.055Z</time></trkpt><trkpt lat="46.0453594" lon="10.9461862"><ele>290.0</ele><time>2026-05-03T13:40:30.054Z</time></trkpt><trkpt lat="46.0452935" lon="10.9462019"><ele>290.0</ele><time>2026-05-03T13:40:31.054Z</time></trkpt><trkpt lat="46.0452245" lon="10.9461651"><ele>290.0</ele><time>2026-05-03T13:40:32.055Z</time></trkpt><trkpt lat="46.0451751" lon="10.9460933"><ele>290.0</ele><time>2026-05-03T13:40:33.054Z</time></trkpt><trkpt lat="46.0451585" lon="10.9459845"><ele>290.0</ele><time>2026-05-03T13:40:34.054Z</time></trkpt><trkpt lat="46.045165" lon="10.9458453"><ele>290.0</ele><time>2026-05-03T13:40:35.055Z</time></trkpt><trkpt lat="46.0451886" lon="10.9456964"><ele>294.25</ele><time>2026-05-03T13:40:36.055Z</time></trkpt><trkpt lat="46.0452261" lon="10.9455309"><ele>298.5</ele><time>2026-05-03T13:40:37.055Z</time></trkpt><trkpt lat="46.0452662" lon="10.9453529"><ele>302.75</ele><time>2026-05-03T13:40:38.054Z</time></trkpt><trkpt lat="46.0453173" lon="10.9451617"><ele>307.0</ele><time>2026-05-03T13:40:39.054Z</time></trkpt><trkpt lat="46.0453773" lon="10.9449701"><ele>309.3333333333333</ele><time>2026-05-03T13:40:40.054Z</time></trkpt><trkpt lat="46.0454583" lon="10.9447785"><ele>311.6666666666667</ele><time>2026-05-03T13:40:41.055Z</time></trkpt><trkpt lat="46.0455484" lon="10.9445794"><ele>314.0</ele><time>2026-05-03T13:40:42.055Z</time></trkpt><trkpt lat="46.0456481" lon="10.9443925"><ele>308.33333333333337</ele><time>2026-05-03T13:40:43.054Z</time></trkpt><trkpt lat="46.045747" lon="10.944207"><ele>302.6666666666667</ele><time>2026-05-03T13:40:44.055Z</time></trkpt><trkpt lat="46.0458414" lon="10.9440081"><ele>297.0</ele><time>2026-05-03T13:40:45.055Z</time></trkpt><trkpt lat="46.0459376" lon="10.943798"><ele>297.0</ele><time>2026-05-03T13:40:46.055Z</time></trkpt><trkpt lat="46.0460336" lon="10.9435926"><ele>297.0</ele><time>2026-05-03T13:40:47.054Z</time></trkpt><trkpt lat="46.0461238" lon="10.9434042"><ele>297.0</ele><time>2026-05-03T13:40:48.055Z</time></trkpt><trkpt lat="46.0462109" lon="10.9432233"><ele>303.25</ele><time>2026-05-03T13:40:49.054Z</time></trkpt><trkpt lat="46.0463053" lon="10.9430706"><ele>309.5</ele><time>2026-05-03T13:40:50.054Z</time></trkpt><trkpt lat="46.0464007" lon="10.942952"><ele>315.75</ele><time>2026-05-03T13:40:51.055Z</time></trkpt><trkpt lat="46.0464929" lon="10.9428647"><ele>322.0</ele><time>2026-05-03T13:40:52.054Z</time></trkpt><trkpt lat="46.0465782" lon="10.9428038"><ele>321.0</ele><time>2026-05-03T13:40:53.055Z</time></trkpt><trkpt lat="46.0466565" lon="10.9427501"><ele>320.0</ele><time>2026-05-03T13:40:54.055Z</time></trkpt><trkpt lat="46.0467329" lon="10.9426869"><ele>319.0</ele><time>2026-05-03T13:40:55.055Z</time></trkpt><trkpt lat="46.0467902" lon="10.942605"><ele>318.0</ele><time>2026-05-03T13:40:56.054Z</time></trkpt><trkpt lat="46.0468219" lon="10.9425064"><ele>317.0</ele><time>2026-05-03T13:40:57.055Z</time></trkpt><trkpt lat="46.0468182" lon="10.9424109"><ele>316.0</ele><time>2026-05-03T13:40:58.054Z</time></trkpt><trkpt lat="46.0467846" lon="10.9423229"><ele>316.0</ele><time>2026-05-03T13:40:59.055Z</time></trkpt><trkpt lat="46.0467247" lon="10.942264"><ele>316.0</ele><time>2026-05-03T13:41:00.055Z</time></trkpt><trkpt lat="46.0466517" lon="10.9422453"><ele>316.0</ele><time>2026-05-03T13:41:01.055Z</time></trkpt><trkpt lat="46.0465718" lon="10.942269"><ele>316.0</ele><time>2026-05-03T13:41:02.054Z</time></trkpt><trkpt lat="46.0464909" lon="10.9423347"><ele>316.0</ele><time>2026-05-03T13:41:03.055Z</time></trkpt><trkpt lat="46.0464036" lon="10.9424251"><ele>316.0</ele><time>2026-05-03T13:41:04.055Z</time></trkpt><trkpt lat="46.0463202" lon="10.9425285"><ele>317.5</ele><time>2026-05-03T13:41:05.055Z</time></trkpt><trkpt lat="46.046226" lon="10.9426282"><ele>319.0</ele><time>2026-05-03T13:41:06.055Z</time></trkpt><trkpt lat="46.0461259" lon="10.9427292"><ele>320.5</ele><time>2026-05-03T13:41:07.055Z</time></trkpt><trkpt lat="46.0460202" lon="10.9428501"><ele>322.0</ele><time>2026-05-03T13:41:08.054Z</time></trkpt><trkpt lat="46.0459062" lon="10.9429827"><ele>326.3333333333333</ele><time>2026-05-03T13:41:09.054Z</time></trkpt><trkpt lat="46.0457877" lon="10.9431152"><ele>330.6666666666667</ele><time>2026-05-03T13:41:10.053Z</time></trkpt><trkpt lat="46.0456631" lon="10.9432617"><ele>335.0</ele><time>2026-05-03T13:41:11.054Z</time></trkpt><trkpt lat="46.0455402" lon="10.9434155"><ele>335.0</ele><time>2026-05-03T13:41:12.054Z</time></trkpt><trkpt lat="46.0454274" lon="10.9435904"><ele>335.0</ele><time>2026-05-03T13:41:13.053Z</time></trkpt><trkpt lat="46.0453221" lon="10.9437748"><ele>335.0</ele><time>2026-05-03T13:41:14.054Z</time></trkpt><trkpt lat="46.0452277" lon="10.9439631"><ele>335.0</ele><time>2026-05-03T13:41:15.054Z</time></trkpt><trkpt lat="46.0451382" lon="10.9441496"><ele>335.0</ele><time>2026-05-03T13:41:16.053Z</time></trkpt><trkpt lat="46.0450565" lon="10.94433"><ele>335.0</ele><time>2026-05-03T13:41:17.053Z</time></trkpt><trkpt lat="46.0449804" lon="10.944509"><ele>334.0</ele><time>2026-05-03T13:41:18.054Z</time></trkpt><trkpt lat="46.0449104" lon="10.9446727"><ele>333.0</ele><time>2026-05-03T13:41:19.054Z</time></trkpt><trkpt lat="46.0448438" lon="10.9448196"><ele>332.0</ele><time>2026-05-03T13:41:20.054Z</time></trkpt><trkpt lat="46.0447844" lon="10.9449481"><ele>331.0</ele><time>2026-05-03T13:41:21.054Z</time></trkpt><trkpt lat="46.0447288" lon="10.9450644"><ele>331.0</ele><time>2026-05-03T13:41:22.053Z</time></trkpt><trkpt lat="46.0446715" lon="10.9451552"><ele>331.0</ele><time>2026-05-03T13:41:23.053Z</time></trkpt><trkpt lat="46.0446057" lon="10.9452084"><ele>331.0</ele><time>2026-05-03T13:41:24.054Z</time></trkpt><trkpt lat="46.0445392" lon="10.9452094"><ele>331.0</ele><time>2026-05-03T13:41:25.054Z</time></trkpt><trkpt lat="46.0444798" lon="10.9451652"><ele>331.0</ele><time>2026-05-03T13:41:26.054Z</time></trkpt><trkpt lat="46.0444263" lon="10.9450781"><ele>331.0</ele><time>2026-05-03T13:41:27.054Z</time></trkpt><trkpt lat="46.0444092" lon="10.9449825"><ele>331.0</ele><time>2026-05-03T13:41:28.054Z</time></trkpt><trkpt lat="46.0444273" lon="10.9448702"><ele>333.4</ele><time>2026-05-03T13:41:29.054Z</time></trkpt><trkpt lat="46.0444772" lon="10.9447566"><ele>335.8</ele><time>2026-05-03T13:41:30.054Z</time></trkpt><trkpt lat="46.0445438" lon="10.9446414"><ele>338.2</ele><time>2026-05-03T13:41:31.054Z</time></trkpt><trkpt lat="46.0446171" lon="10.9445118"><ele>340.59999999999997</ele><time>2026-05-03T13:41:32.054Z</time></trkpt><trkpt lat="46.044695" lon="10.944371"><ele>343.0</ele><time>2026-05-03T13:41:33.054Z</time></trkpt><trkpt lat="46.0447847" lon="10.9442208"><ele>340.3333333333333</ele><time>2026-05-03T13:41:34.053Z</time></trkpt><trkpt lat="46.0448781" lon="10.9440578"><ele>337.6666666666667</ele><time>2026-05-03T13:41:35.054Z</time></trkpt><trkpt lat="46.0449747" lon="10.9438798"><ele>335.0</ele><time>2026-05-03T13:41:36.054Z</time></trkpt><trkpt lat="46.0450749" lon="10.9436926"><ele>335.0</ele><time>2026-05-03T13:41:37.053Z</time></trkpt><trkpt lat="46.0451772" lon="10.9435047"><ele>335.0</ele><time>2026-05-03T13:41:38.054Z</time></trkpt><trkpt lat="46.0452833" lon="10.9433035"><ele>335.0</ele><time>2026-05-03T13:41:39.054Z</time></trkpt><trkpt lat="46.0453928" lon="10.9430982"><ele>341.33333333333337</ele><time>2026-05-03T13:41:40.054Z</time></trkpt><trkpt lat="46.0455079" lon="10.9428859"><ele>347.6666666666667</ele><time>2026-05-03T13:41:41.054Z</time></trkpt><trkpt lat="46.0456237" lon="10.9426774"><ele>354.0</ele><time>2026-05-03T13:41:42.054Z</time></trkpt><trkpt lat="46.0457378" lon="10.9424724"><ele>352.6666666666667</ele><time>2026-05-03T13:41:43.054Z</time></trkpt><trkpt lat="46.0458664" lon="10.9422805"><ele>351.33333333333337</ele><time>2026-05-03T13:41:44.053Z</time></trkpt><trkpt lat="46.0460035" lon="10.9421177"><ele>350.0</ele><time>2026-05-03T13:41:45.053Z</time></trkpt><trkpt lat="46.0461484" lon="10.9419807"><ele>350.0</ele><time>2026-05-03T13:41:46.054Z</time></trkpt><trkpt lat="46.0462906" lon="10.9418534"><ele>350.0</ele><time>2026-05-03T13:41:47.054Z</time></trkpt><trkpt lat="46.0464362" lon="10.941733"><ele>350.0</ele><time>2026-05-03T13:41:48.053Z</time></trkpt><trkpt lat="46.046585" lon="10.9416249"><ele>351.75</ele><time>2026-05-03T13:41:49.054Z</time></trkpt><trkpt lat="46.0467177" lon="10.9415181"><ele>353.5</ele><time>2026-05-03T13:41:50.053Z</time></trkpt><trkpt lat="46.0468462" lon="10.9414141"><ele>355.25</ele><time>2026-05-03T13:41:51.054Z</time></trkpt><trkpt lat="46.0469626" lon="10.941316"><ele>357.0</ele><time>2026-05-03T13:41:52.054Z</time></trkpt><trkpt lat="46.0470741" lon="10.9412342"><ele>357.0</ele><time>2026-05-03T13:41:53.054Z</time></trkpt><trkpt lat="46.0471729" lon="10.9411614"><ele>357.0</ele><time>2026-05-03T13:41:54.054Z</time></trkpt><trkpt lat="46.0472549" lon="10.9410997"><ele>357.0</ele><time>2026-05-03T13:41:55.053Z</time></trkpt><trkpt lat="46.0473276" lon="10.9410343"><ele>357.0</ele><time>2026-05-03T13:41:56.054Z</time></trkpt><trkpt lat="46.0473972" lon="10.9409674"><ele>357.0</ele><time>2026-05-03T13:41:57.054Z</time></trkpt><trkpt lat="46.0474455" lon="10.9409017"><ele>357.0</ele><time>2026-05-03T13:41:58.054Z</time></trkpt><trkpt lat="46.0474788" lon="10.9408087"><ele>364.8333333333333</ele><time>2026-05-03T13:41:59.054Z</time></trkpt><trkpt lat="46.0474793" lon="10.9407115"><ele>372.66666666666663</ele><time>2026-05-03T13:42:00.054Z</time></trkpt><trkpt lat="46.0474494" lon="10.9406151"><ele>380.5</ele><time>2026-05-03T13:42:01.054Z</time></trkpt><trkpt lat="46.047398" lon="10.9405377"><ele>388.3333333333333</ele><time>2026-05-03T13:42:02.053Z</time></trkpt><trkpt lat="46.047333" lon="10.9404903"><ele>396.16666666666663</ele><time>2026-05-03T13:42:03.053Z</time></trkpt><trkpt lat="46.0472488" lon="10.940496"><ele>404.0</ele><time>2026-05-03T13:42:04.053Z</time></trkpt><trkpt lat="46.0471585" lon="10.9405382"><ele>404.0</ele><time>2026-05-03T13:42:05.054Z</time></trkpt><trkpt lat="46.0470719" lon="10.9406121"><ele>404.0</ele><time>2026-05-03T13:42:06.054Z</time></trkpt><trkpt lat="46.0469859" lon="10.9407032"><ele>404.0</ele><time>2026-05-03T13:42:07.054Z</time></trkpt><trkpt lat="46.0469032" lon="10.9407949"><ele>404.0</ele><time>2026-05-03T13:42:08.054Z</time></trkpt><trkpt lat="46.04682" lon="10.9408914"><ele>404.0</ele><time>2026-05-03T13:42:09.053Z</time></trkpt><trkpt lat="46.0467386" lon="10.9409903"><ele>399.25</ele><time>2026-05-03T13:42:10.054Z</time></trkpt><trkpt lat="46.0466414" lon="10.9410918"><ele>394.5</ele><time>2026-05-03T13:42:11.053Z</time></trkpt><trkpt lat="46.0465413" lon="10.9412041"><ele>389.75</ele><time>2026-05-03T13:42:12.054Z</time></trkpt><trkpt lat="46.0464334" lon="10.9413094"><ele>385.0</ele><time>2026-05-03T13:42:13.053Z</time></trkpt><trkpt lat="46.0463188" lon="10.9414124"><ele>385.0</ele><time>2026-05-03T13:42:14.054Z</time></trkpt><trkpt lat="46.0461955" lon="10.9415072"><ele>385.0</ele><time>2026-05-03T13:42:15.054Z</time></trkpt><trkpt lat="46.0460638" lon="10.9416071"><ele>385.0</ele><time>2026-05-03T13:42:16.053Z</time></trkpt><trkpt lat="46.0459294" lon="10.9417069"><ele>385.0</ele><time>2026-05-03T13:42:17.054Z</time></trkpt><trkpt lat="46.0457896" lon="10.9418079"><ele>383.33333333333337</ele><time>2026-05-03T13:42:18.054Z</time></trkpt><trkpt lat="46.0456515" lon="10.9419112"><ele>381.6666666666667</ele><time>2026-05-03T13:42:19.054Z</time></trkpt><trkpt lat="46.0455152" lon="10.9420138"><ele>380.0</ele><time>2026-05-03T13:42:20.054Z</time></trkpt><trkpt lat="46.0453769" lon="10.9421167"><ele>380.0</ele><time>2026-05-03T13:42:21.054Z</time></trkpt><trkpt lat="46.0452393" lon="10.9422193"><ele>380.0</ele><time>2026-05-03T13:42:22.054Z</time></trkpt><trkpt lat="46.0451032" lon="10.9423241"><ele>380.0</ele><time>2026-05-03T13:42:23.054Z</time></trkpt><trkpt lat="46.0449726" lon="10.9424396"><ele>378.25</ele><time>2026-05-03T13:42:24.053Z</time></trkpt><trkpt lat="46.0448455" lon="10.9425609"><ele>376.5</ele><time>2026-05-03T13:42:25.054Z</time></trkpt><trkpt lat="46.0447254" lon="10.9426753"><ele>374.75</ele><time>2026-05-03T13:42:26.053Z</time></trkpt><trkpt lat="46.0446109" lon="10.9427894"><ele>373.0</ele><time>2026-05-03T13:42:27.053Z</time></trkpt><trkpt lat="46.044506" lon="10.9429057"><ele>373.0</ele><time>2026-05-03T13:42:28.053Z</time></trkpt><trkpt lat="46.044404" lon="10.9430185"><ele>373.0</ele><time>2026-05-03T13:42:29.053Z</time></trkpt><trkpt lat="46.0443121" lon="10.9431319"><ele>373.0</ele><time>2026-05-03T13:42:30.054Z</time></trkpt><trkpt lat="46.0442339" lon="10.9432367"><ele>373.0</ele><time>2026-05-03T13:42:31.054Z</time></trkpt><trkpt lat="46.0441599" lon="10.9433367"><ele>375.3333333333333</ele><time>2026-05-03T13:42:32.053Z</time></trkpt><trkpt lat="46.0440924" lon="10.9434144"><ele>377.66666666666663</ele><time>2026-05-03T13:42:33.054Z</time></trkpt><trkpt lat="46.0440132" lon="10.9434681"><ele>380.0</ele><time>2026-05-03T13:42:34.053Z</time></trkpt><trkpt lat="46.0439224" lon="10.943484"><ele>382.3333333333333</ele><time>2026-05-03T13:42:35.053Z</time></trkpt><trkpt lat="46.0438349" lon="10.9434438"><ele>384.6666666666667</ele><time>2026-05-03T13:42:36.053Z</time></trkpt><trkpt lat="46.0437708" lon="10.9433707"><ele>387.0</ele><time>2026-05-03T13:42:37.054Z</time></trkpt><trkpt lat="46.0437299" lon="10.9432804"><ele>391.0</ele><time>2026-05-03T13:42:38.054Z</time></trkpt><trkpt lat="46.0437246" lon="10.943162"><ele>395.0</ele><time>2026-05-03T13:42:39.054Z</time></trkpt><trkpt lat="46.0437442" lon="10.9430368"><ele>399.0</ele><time>2026-05-03T13:42:40.053Z</time></trkpt><trkpt lat="46.0437886" lon="10.9429022"><ele>403.0</ele><time>2026-05-03T13:42:41.053Z</time></trkpt><trkpt lat="46.0438495" lon="10.9427665"><ele>407.0</ele><time>2026-05-03T13:42:42.054Z</time></trkpt><trkpt lat="46.0439159" lon="10.9426207"><ele>404.5</ele><time>2026-05-03T13:42:43.054Z</time></trkpt><trkpt lat="46.0439906" lon="10.9424661"><ele>402.0</ele><time>2026-05-03T13:42:44.054Z</time></trkpt><trkpt lat="46.0440589" lon="10.9423075"><ele>399.5</ele><time>2026-05-03T13:42:45.053Z</time></trkpt><trkpt lat="46.0441219" lon="10.9421446"><ele>397.0</ele><time>2026-05-03T13:42:46.054Z</time></trkpt><trkpt lat="46.0441847" lon="10.9419827"><ele>432.0</ele><time>2026-05-03T13:42:47.054Z</time></trkpt><trkpt lat="46.0476259" lon="10.9394811"><ele>432.0</ele><time>2026-05-03T13:43:09.054Z</time></trkpt><trkpt lat="46.0478311" lon="10.9393737"><ele>432.0</ele><time>2026-05-03T13:43:10.054Z</time></trkpt><trkpt lat="46.0480264" lon="10.9392491"><ele>432.0</ele><time>2026-05-03T13:43:11.054Z</time></trkpt><trkpt lat="46.0495817" lon="10.9383463"><ele>434.66666666666663</ele><time>2026-05-03T13:43:19.054Z</time></trkpt><trkpt lat="46.0497818" lon="10.9381824"><ele>437.3333333333333</ele><time>2026-05-03T13:43:20.053Z</time></trkpt><trkpt lat="46.0499421" lon="10.9380184"><ele>440.0</ele><time>2026-05-03T13:43:21.054Z</time></trkpt><trkpt lat="46.0500898" lon="10.9378303"><ele>435.0</ele><time>2026-05-03T13:43:22.054Z</time></trkpt><trkpt lat="46.0502337" lon="10.9376335"><ele>430.0</ele><time>2026-05-03T13:43:23.053Z</time></trkpt><trkpt lat="46.0503756" lon="10.9374178"><ele>425.0</ele><time>2026-05-03T13:43:24.054Z</time></trkpt><trkpt lat="46.0504906" lon="10.9371607"><ele>425.0</ele><time>2026-05-03T13:43:25.054Z</time></trkpt><trkpt lat="46.0506014" lon="10.9369202"><ele>425.0</ele><time>2026-05-03T13:43:26.054Z</time></trkpt><trkpt lat="46.05073" lon="10.9366814"><ele>425.0</ele><time>2026-05-03T13:43:27.054Z</time></trkpt><trkpt lat="46.0508614" lon="10.9364346"><ele>426.0</ele><time>2026-05-03T13:43:28.054Z</time></trkpt><trkpt lat="46.0509882" lon="10.9361888"><ele>427.0</ele><time>2026-05-03T13:43:29.054Z</time></trkpt><trkpt lat="46.0511184" lon="10.9359432"><ele>428.0</ele><time>2026-05-03T13:43:30.054Z</time></trkpt><trkpt lat="46.0512489" lon="10.9356956"><ele>426.66666666666663</ele><time>2026-05-03T13:43:31.054Z</time></trkpt><trkpt lat="46.0513781" lon="10.9354475"><ele>425.33333333333337</ele><time>2026-05-03T13:43:32.054Z</time></trkpt><trkpt lat="46.0515131" lon="10.9351977"><ele>424.0</ele><time>2026-05-03T13:43:33.054Z</time></trkpt><trkpt lat="46.0516442" lon="10.9349533"><ele>424.0</ele><time>2026-05-03T13:43:34.054Z</time></trkpt><trkpt lat="46.0517782" lon="10.9347009"><ele>424.0</ele><time>2026-05-03T13:43:35.054Z</time></trkpt><trkpt lat="46.0519039" lon="10.9344481"><ele>424.0</ele><time>2026-05-03T13:43:36.053Z</time></trkpt><trkpt lat="46.0520207" lon="10.9341767"><ele>428.33333333333337</ele><time>2026-05-03T13:43:37.053Z</time></trkpt><trkpt lat="46.0521198" lon="10.9338973"><ele>432.66666666666663</ele><time>2026-05-03T13:43:38.054Z</time></trkpt><trkpt lat="46.0522044" lon="10.933609"><ele>437.0</ele><time>2026-05-03T13:43:39.053Z</time></trkpt><trkpt lat="46.0522754" lon="10.9333142"><ele>444.66666666666663</ele><time>2026-05-03T13:43:40.053Z</time></trkpt><trkpt lat="46.0523362" lon="10.9330167"><ele>452.33333333333337</ele><time>2026-05-03T13:43:41.053Z</time></trkpt><trkpt lat="46.0523899" lon="10.9327118"><ele>460.0</ele><time>2026-05-03T13:43:42.054Z</time></trkpt><trkpt lat="46.0524372" lon="10.9324067"><ele>453.33333333333337</ele><time>2026-05-03T13:43:43.054Z</time></trkpt><trkpt lat="46.0524813" lon="10.9321072"><ele>446.66666666666663</ele><time>2026-05-03T13:43:44.054Z</time></trkpt><trkpt lat="46.0525307" lon="10.9318111"><ele>440.0</ele><time>2026-05-03T13:43:45.053Z</time></trkpt><trkpt lat="46.0525787" lon="10.9315209"><ele>440.0</ele><time>2026-05-03T13:43:46.054Z</time></trkpt><trkpt lat="46.0526343" lon="10.9312285"><ele>440.0</ele><time>2026-05-03T13:43:47.054Z</time></trkpt><trkpt lat="46.0529897" lon="10.9296843"><ele>449.66666666666663</ele><time>2026-05-03T13:43:52.054Z</time></trkpt><trkpt lat="46.0530459" lon="10.9294139"><ele>459.33333333333337</ele><time>2026-05-03T13:43:53.054Z</time></trkpt><trkpt lat="46.0531107" lon="10.9292186"><ele>469.0</ele><time>2026-05-03T13:43:54.054Z</time></trkpt><trkpt lat="46.0531694" lon="10.9289944"><ele>442.0</ele><time>2026-05-03T13:43:55.053Z</time></trkpt><trkpt lat="46.0593965" lon="10.9249728"><ele>442.0</ele><time>2026-05-03T13:44:29.053Z</time></trkpt><trkpt lat="46.05965" lon="10.9248769"><ele>442.0</ele><time>2026-05-03T13:44:30.054Z</time></trkpt><trkpt lat="46.0598441" lon="10.9247458"><ele>433.6666666666667</ele><time>2026-05-03T13:44:31.053Z</time></trkpt><trkpt lat="46.0600269" lon="10.924619"><ele>425.33333333333337</ele><time>2026-05-03T13:44:32.054Z</time></trkpt><trkpt lat="46.0602139" lon="10.9244761"><ele>417.0</ele><time>2026-05-03T13:44:33.053Z</time></trkpt><trkpt lat="46.0603959" lon="10.9243244"><ele>421.0</ele><time>2026-05-03T13:44:34.054Z</time></trkpt><trkpt lat="46.0605613" lon="10.9241657"><ele>425.0</ele><time>2026-05-03T13:44:35.053Z</time></trkpt><trkpt lat="46.0607184" lon="10.923989"><ele>429.0</ele><time>2026-05-03T13:44:36.054Z</time></trkpt><trkpt lat="46.0608508" lon="10.9237796"><ele>429.0</ele><time>2026-05-03T13:44:37.053Z</time></trkpt><trkpt lat="46.0609752" lon="10.9235573"><ele>429.0</ele><time>2026-05-03T13:44:38.054Z</time></trkpt><trkpt lat="46.0610854" lon="10.923325"><ele>429.0</ele><time>2026-05-03T13:44:39.053Z</time></trkpt><trkpt lat="46.0576917" lon="10.9092112"><ele>439.0</ele><time>2026-05-03T13:45:31.053Z</time></trkpt><trkpt lat="46.0576073" lon="10.9090316"><ele>449.0</ele><time>2026-05-03T13:45:32.053Z</time></trkpt><trkpt lat="46.0575356" lon="10.908842"><ele>459.0</ele><time>2026-05-03T13:45:33.053Z</time></trkpt><trkpt lat="46.0574362" lon="10.9086699"><ele>463.66666666666663</ele><time>2026-05-03T13:45:34.052Z</time></trkpt><trkpt lat="46.0573235" lon="10.9085099"><ele>468.3333333333333</ele><time>2026-05-03T13:45:35.053Z</time></trkpt><trkpt lat="46.0571945" lon="10.9083533"><ele>473.0</ele><time>2026-05-03T13:45:36.053Z</time></trkpt><trkpt lat="46.0570478" lon="10.9081966"><ele>473.0</ele><time>2026-05-03T13:45:37.052Z</time></trkpt><trkpt lat="46.0568963" lon="10.9080383"><ele>473.0</ele><time>2026-05-03T13:45:38.052Z</time></trkpt><trkpt lat="46.0567448" lon="10.9078826"><ele>473.0</ele><time>2026-05-03T13:45:39.052Z</time></trkpt><trkpt lat="46.0565939" lon="10.9077185"><ele>474.0</ele><time>2026-05-03T13:45:40.053Z</time></trkpt><trkpt lat="46.0564447" lon="10.9075523"><ele>475.0</ele><time>2026-05-03T13:45:41.053Z</time></trkpt><trkpt lat="46.0562939" lon="10.9073894"><ele>476.0</ele><time>2026-05-03T13:45:42.052Z</time></trkpt><trkpt lat="46.0561441" lon="10.9072274"><ele>476.0</ele><time>2026-05-03T13:45:43.053Z</time></trkpt><trkpt lat="46.055993" lon="10.9070614"><ele>476.0</ele><time>2026-05-03T13:45:44.053Z</time></trkpt><trkpt lat="46.0558397" lon="10.9068957"><ele>476.0</ele><time>2026-05-03T13:45:45.052Z</time></trkpt><trkpt lat="46.0556863" lon="10.9067285"><ele>478.0</ele><time>2026-05-03T13:45:46.053Z</time></trkpt><trkpt lat="46.0555271" lon="10.9065609"><ele>480.0</ele><time>2026-05-03T13:45:47.053Z</time></trkpt><trkpt lat="46.0553756" lon="10.9063887"><ele>482.0</ele><time>2026-05-03T13:45:48.052Z</time></trkpt><trkpt lat="46.0552232" lon="10.9062052"><ele>482.0</ele><time>2026-05-03T13:45:49.053Z</time></trkpt><trkpt lat="46.0550701" lon="10.9060038"><ele>482.0</ele><time>2026-05-03T13:45:50.053Z</time></trkpt><trkpt lat="46.054927" lon="10.9057908"><ele>482.0</ele><time>2026-05-03T13:45:51.053Z</time></trkpt><trkpt lat="46.0547758" lon="10.9055818"><ele>476.66666666666663</ele><time>2026-05-03T13:45:52.053Z</time></trkpt><trkpt lat="46.0546269" lon="10.9053745"><ele>471.33333333333337</ele><time>2026-05-03T13:45:53.053Z</time></trkpt><trkpt lat="46.0544762" lon="10.905164"><ele>466.0</ele><time>2026-05-03T13:45:54.053Z</time></trkpt><trkpt lat="46.0543316" lon="10.9049636"><ele>466.0</ele><time>2026-05-03T13:45:55.053Z</time></trkpt><trkpt lat="46.0541868" lon="10.9047673"><ele>466.0</ele><time>2026-05-03T13:45:56.053Z</time></trkpt><trkpt lat="46.0540364" lon="10.9045698"><ele>466.0</ele><time>2026-05-03T13:45:57.052Z</time></trkpt><trkpt lat="46.0538887" lon="10.904381"><ele>469.33333333333337</ele><time>2026-05-03T13:45:58.053Z</time></trkpt><trkpt lat="46.0537384" lon="10.9042042"><ele>472.66666666666663</ele><time>2026-05-03T13:45:59.053Z</time></trkpt><trkpt lat="46.0535829" lon="10.9040368"><ele>476.0</ele><time>2026-05-03T13:46:00.052Z</time></trkpt><trkpt lat="46.0534252" lon="10.9038632"><ele>476.66666666666663</ele><time>2026-05-03T13:46:01.052Z</time></trkpt><trkpt lat="46.0532673" lon="10.903697"><ele>477.33333333333337</ele><time>2026-05-03T13:46:02.053Z</time></trkpt><trkpt lat="46.0531113" lon="10.9035231"><ele>478.0</ele><time>2026-05-03T13:46:03.052Z</time></trkpt><trkpt lat="46.0529561" lon="10.9033534"><ele>478.0</ele><time>2026-05-03T13:46:04.053Z</time></trkpt><trkpt lat="46.0528053" lon="10.903196"><ele>478.0</ele><time>2026-05-03T13:46:05.053Z</time></trkpt><trkpt lat="46.0526551" lon="10.9030358"><ele>478.0</ele><time>2026-05-03T13:46:06.053Z</time></trkpt><trkpt lat="46.0525094" lon="10.9028842"><ele>474.0</ele><time>2026-05-03T13:46:07.053Z</time></trkpt><trkpt lat="46.052367" lon="10.9027372"><ele>470.0</ele><time>2026-05-03T13:46:08.052Z</time></trkpt><trkpt lat="46.0522248" lon="10.9026143"><ele>466.0</ele><time>2026-05-03T13:46:09.053Z</time></trkpt><trkpt lat="46.0520754" lon="10.9025108"><ele>466.0</ele><time>2026-05-03T13:46:10.052Z</time></trkpt><trkpt lat="46.0519182" lon="10.9024345"><ele>466.0</ele><time>2026-05-03T13:46:11.052Z</time></trkpt><trkpt lat="46.0517604" lon="10.9023737"><ele>466.0</ele><time>2026-05-03T13:46:12.053Z</time></trkpt><trkpt lat="46.0515914" lon="10.9023317"><ele>471.0</ele><time>2026-05-03T13:46:13.052Z</time></trkpt><trkpt lat="46.0514239" lon="10.9022875"><ele>476.0</ele><time>2026-05-03T13:46:14.052Z</time></trkpt><trkpt lat="46.051259" lon="10.9022334"><ele>481.0</ele><time>2026-05-03T13:46:15.053Z</time></trkpt><trkpt lat="46.0510923" lon="10.9021667"><ele>481.0</ele><time>2026-05-03T13:46:16.053Z</time></trkpt><trkpt lat="46.0509385" lon="10.9020675"><ele>481.0</ele><time>2026-05-03T13:46:17.053Z</time></trkpt><trkpt lat="46.050791" lon="10.9019443"><ele>481.0</ele><time>2026-05-03T13:46:18.052Z</time></trkpt><trkpt lat="46.0506445" lon="10.9017928"><ele>482.6666666666667</ele><time>2026-05-03T13:46:19.053Z</time></trkpt><trkpt lat="46.0505004" lon="10.9016192"><ele>484.33333333333337</ele><time>2026-05-03T13:46:20.053Z</time></trkpt><trkpt lat="46.0503522" lon="10.9014476"><ele>486.0</ele><time>2026-05-03T13:46:21.053Z</time></trkpt><trkpt lat="46.0502009" lon="10.9012745"><ele>486.0</ele><time>2026-05-03T13:46:22.053Z</time></trkpt><trkpt lat="46.0500439" lon="10.9011174"><ele>486.0</ele><time>2026-05-03T13:46:23.053Z</time></trkpt><trkpt lat="46.0498805" lon="10.9009772"><ele>486.0</ele><time>2026-05-03T13:46:24.053Z</time></trkpt><trkpt lat="46.0497118" lon="10.9008341"><ele>484.33333333333337</ele><time>2026-05-03T13:46:25.053Z</time></trkpt><trkpt lat="46.0495421" lon="10.9006927"><ele>482.6666666666667</ele><time>2026-05-03T13:46:26.053Z</time></trkpt><trkpt lat="46.0493696" lon="10.9005496"><ele>481.0</ele><time>2026-05-03T13:46:27.053Z</time></trkpt><trkpt lat="46.0492033" lon="10.9004141"><ele>478.6666666666667</ele><time>2026-05-03T13:46:28.052Z</time></trkpt><trkpt lat="46.0490388" lon="10.9002729"><ele>476.33333333333337</ele><time>2026-05-03T13:46:29.053Z</time></trkpt><trkpt lat="46.0488709" lon="10.9001288"><ele>474.0</ele><time>2026-05-03T13:46:30.053Z</time></trkpt><trkpt lat="46.048701" lon="10.8999819"><ele>474.0</ele><time>2026-05-03T13:46:31.053Z</time></trkpt><trkpt lat="46.0485301" lon="10.8998416"><ele>474.0</ele><time>2026-05-03T13:46:32.053Z</time></trkpt><trkpt lat="46.048361" lon="10.8997136"><ele>474.0</ele><time>2026-05-03T13:46:33.052Z</time></trkpt><trkpt lat="46.0481962" lon="10.8996005"><ele>485.0</ele><time>2026-05-03T13:46:34.052Z</time></trkpt><trkpt lat="46.0480419" lon="10.8994957"><ele>496.0</ele><time>2026-05-03T13:46:35.053Z</time></trkpt><trkpt lat="46.0478947" lon="10.8993796"><ele>507.0</ele><time>2026-05-03T13:46:36.053Z</time></trkpt><trkpt lat="46.0477571" lon="10.8992513"><ele>505.66666666666663</ele><time>2026-05-03T13:46:37.053Z</time></trkpt><trkpt lat="46.0476211" lon="10.8991101"><ele>504.3333333333333</ele><time>2026-05-03T13:46:38.053Z</time></trkpt><trkpt lat="46.0474787" lon="10.8989609"><ele>503.0</ele><time>2026-05-03T13:46:39.053Z</time></trkpt><trkpt lat="46.0473327" lon="10.8988068"><ele>503.0</ele><time>2026-05-03T13:46:40.052Z</time></trkpt><trkpt lat="46.0471829" lon="10.8986503"><ele>503.0</ele><time>2026-05-03T13:46:41.053Z</time></trkpt><trkpt lat="46.0470358" lon="10.8984959"><ele>503.0</ele><time>2026-05-03T13:46:42.053Z</time></trkpt><trkpt lat="46.0468947" lon="10.8983347"><ele>511.3333333333333</ele><time>2026-05-03T13:46:43.052Z</time></trkpt><trkpt lat="46.0467619" lon="10.898158"><ele>519.6666666666666</ele><time>2026-05-03T13:46:44.053Z</time></trkpt><trkpt lat="46.0466508" lon="10.8979531"><ele>528.0</ele><time>2026-05-03T13:46:45.052Z</time></trkpt><trkpt lat="46.046551" lon="10.8977364"><ele>516.3333333333334</ele><time>2026-05-03T13:46:46.053Z</time></trkpt><trkpt lat="46.0464596" lon="10.8975144"><ele>504.6666666666667</ele><time>2026-05-03T13:46:47.052Z</time></trkpt><trkpt lat="46.0463605" lon="10.8972993"><ele>493.0</ele><time>2026-05-03T13:46:48.053Z</time></trkpt><trkpt lat="46.0462577" lon="10.8970847"><ele>493.0</ele><time>2026-05-03T13:46:49.052Z</time></trkpt><trkpt lat="46.0461433" lon="10.8968899"><ele>493.0</ele><time>2026-05-03T13:46:50.053Z</time></trkpt><trkpt lat="46.0460136" lon="10.8967009"><ele>493.0</ele><time>2026-05-03T13:46:51.053Z</time></trkpt><trkpt lat="46.045879" lon="10.8965254"><ele>495.33333333333337</ele><time>2026-05-03T13:46:52.052Z</time></trkpt><trkpt lat="46.0457452" lon="10.8963684"><ele>497.66666666666663</ele><time>2026-05-03T13:46:53.053Z</time></trkpt><trkpt lat="46.0456038" lon="10.8962229"><ele>500.0</ele><time>2026-05-03T13:46:54.053Z</time></trkpt><trkpt lat="46.0454661" lon="10.8960782"><ele>490.66666666666663</ele><time>2026-05-03T13:46:55.052Z</time></trkpt><trkpt lat="46.0453465" lon="10.8959135"><ele>481.33333333333337</ele><time>2026-05-03T13:46:56.053Z</time></trkpt><trkpt lat="46.0452472" lon="10.8957272"><ele>472.0</ele><time>2026-05-03T13:46:57.052Z</time></trkpt><trkpt lat="46.0451748" lon="10.8955226"><ele>472.0</ele><time>2026-05-03T13:46:58.053Z</time></trkpt><trkpt lat="46.0451171" lon="10.895307"><ele>472.0</ele><time>2026-05-03T13:46:59.052Z</time></trkpt><trkpt lat="46.0450955" lon="10.8950898"><ele>472.0</ele><time>2026-05-03T13:47:00.053Z</time></trkpt><trkpt lat="46.045092" lon="10.8948689"><ele>472.33333333333337</ele><time>2026-05-03T13:47:01.053Z</time></trkpt><trkpt lat="46.0451198" lon="10.8946401"><ele>472.66666666666663</ele><time>2026-05-03T13:47:02.053Z</time></trkpt><trkpt lat="46.0451741" lon="10.8944412"><ele>473.0</ele><time>2026-05-03T13:47:03.053Z</time></trkpt><trkpt lat="46.0452509" lon="10.8942489"><ele>473.0</ele><time>2026-05-03T13:47:04.053Z</time></trkpt><trkpt lat="46.0453299" lon="10.8940818"><ele>473.0</ele><time>2026-05-03T13:47:05.052Z</time></trkpt><trkpt lat="46.0454144" lon="10.89395"><ele>473.0</ele><time>2026-05-03T13:47:06.052Z</time></trkpt><trkpt lat="46.0454965" lon="10.8938592"><ele>473.0</ele><time>2026-05-03T13:47:07.053Z</time></trkpt><trkpt lat="46.0455768" lon="10.8937973"><ele>472.99999999999994</ele><time>2026-05-03T13:47:08.053Z</time></trkpt><trkpt lat="46.0456565" lon="10.8937637"><ele>473.0</ele><time>2026-05-03T13:47:09.052Z</time></trkpt><trkpt lat="46.0457277" lon="10.8937633"><ele>473.0</ele><time>2026-05-03T13:47:10.053Z</time></trkpt><trkpt lat="46.0458053" lon="10.8937581"><ele>473.0</ele><time>2026-05-03T13:47:11.052Z</time></trkpt><trkpt lat="46.0459139" lon="10.8937167"><ele>472.99999999999994</ele><time>2026-05-03T13:47:13.053Z</time></trkpt><trkpt lat="46.0459398" lon="10.8935872"><ele>473.0</ele><time>2026-05-03T13:47:15.052Z</time></trkpt><trkpt lat="46.0459061" lon="10.8934059"><ele>473.59999999999997</ele><time>2026-05-03T13:47:17.052Z</time></trkpt><trkpt lat="46.0458725" lon="10.8932957"><ele>474.19999999999993</ele><time>2026-05-03T13:47:18.052Z</time></trkpt><trkpt lat="46.0458384" lon="10.8931656"><ele>474.8</ele><time>2026-05-03T13:47:19.053Z</time></trkpt><trkpt lat="46.0458044" lon="10.8930204"><ele>475.4</ele><time>2026-05-03T13:47:20.053Z</time></trkpt><trkpt lat="46.0457607" lon="10.8928656"><ele>476.0</ele><time>2026-05-03T13:47:21.053Z</time></trkpt><trkpt lat="46.0457187" lon="10.8926889"><ele>471.25</ele><time>2026-05-03T13:47:22.052Z</time></trkpt><trkpt lat="46.0456761" lon="10.8925095"><ele>466.5</ele><time>2026-05-03T13:47:23.053Z</time></trkpt><trkpt lat="46.0456369" lon="10.8923247"><ele>461.75</ele><time>2026-05-03T13:47:24.053Z</time></trkpt><trkpt lat="46.0455919" lon="10.8921374"><ele>457.0</ele><time>2026-05-03T13:47:25.052Z</time></trkpt><trkpt lat="46.0455392" lon="10.8919617"><ele>457.0</ele><time>2026-05-03T13:47:26.052Z</time></trkpt><trkpt lat="46.0454676" lon="10.8918057"><ele>457.0</ele><time>2026-05-03T13:47:27.053Z</time></trkpt><trkpt lat="46.0453831" lon="10.8916689"><ele>457.0</ele><time>2026-05-03T13:47:28.053Z</time></trkpt><trkpt lat="46.0452954" lon="10.8915665"><ele>457.0</ele><time>2026-05-03T13:47:29.053Z</time></trkpt><trkpt lat="46.0451898" lon="10.8914964"><ele>453.0</ele><time>2026-05-03T13:47:30.053Z</time></trkpt><trkpt lat="46.0450716" lon="10.8914812"><ele>449.0</ele><time>2026-05-03T13:47:31.053Z</time></trkpt><trkpt lat="46.0449654" lon="10.8915079"><ele>445.0</ele><time>2026-05-03T13:47:32.052Z</time></trkpt><trkpt lat="46.0448634" lon="10.8915749"><ele>441.0</ele><time>2026-05-03T13:47:33.053Z</time></trkpt><trkpt lat="46.0447638" lon="10.8916795"><ele>445.20000000000005</ele><time>2026-05-03T13:47:34.052Z</time></trkpt><trkpt lat="46.044663" lon="10.8917838"><ele>449.40000000000003</ele><time>2026-05-03T13:47:35.053Z</time></trkpt><trkpt lat="46.04456" lon="10.8918651"><ele>453.6</ele><time>2026-05-03T13:47:36.052Z</time></trkpt><trkpt lat="46.0444654" lon="10.891895"><ele>457.8</ele><time>2026-05-03T13:47:37.052Z</time></trkpt><trkpt lat="46.0443712" lon="10.8918611"><ele>462.0</ele><time>2026-05-03T13:47:38.052Z</time></trkpt><trkpt lat="46.0442877" lon="10.8917863"><ele>456.75</ele><time>2026-05-03T13:47:39.052Z</time></trkpt><trkpt lat="46.0442215" lon="10.8916719"><ele>451.5</ele><time>2026-05-03T13:47:40.053Z</time></trkpt><trkpt lat="46.044172" lon="10.8915259"><ele>446.25</ele><time>2026-05-03T13:47:41.053Z</time></trkpt><trkpt lat="46.0441258" lon="10.8913464"><ele>441.0</ele><time>2026-05-03T13:47:42.053Z</time></trkpt><trkpt lat="46.0440915" lon="10.8911474"><ele>450.25</ele><time>2026-05-03T13:47:43.052Z</time></trkpt><trkpt lat="46.04406" lon="10.8909456"><ele>459.5</ele><time>2026-05-03T13:47:44.053Z</time></trkpt><trkpt lat="46.0440211" lon="10.8907367"><ele>468.75</ele><time>2026-05-03T13:47:45.053Z</time></trkpt><trkpt lat="46.0439829" lon="10.8905271"><ele>478.0</ele><time>2026-05-03T13:47:46.053Z</time></trkpt><trkpt lat="46.0439545" lon="10.8903129"><ele>474.33333333333337</ele><time>2026-05-03T13:47:47.052Z</time></trkpt><trkpt lat="46.0439392" lon="10.8900915"><ele>470.66666666666663</ele><time>2026-05-03T13:47:48.052Z</time></trkpt><trkpt lat="46.0439412" lon="10.8898703"><ele>467.0</ele><time>2026-05-03T13:47:49.053Z</time></trkpt><trkpt lat="46.0439614" lon="10.8896654"><ele>467.0</ele><time>2026-05-03T13:47:50.052Z</time></trkpt><trkpt lat="46.0439889" lon="10.8894555"><ele>467.0</ele><time>2026-05-03T13:47:51.053Z</time></trkpt><trkpt lat="46.0440171" lon="10.8892476"><ele>467.0</ele><time>2026-05-03T13:47:52.053Z</time></trkpt><trkpt lat="46.0440382" lon="10.8890465"><ele>467.0</ele><time>2026-05-03T13:47:53.052Z</time></trkpt><trkpt lat="46.0440381" lon="10.8888512"><ele>464.75</ele><time>2026-05-03T13:47:54.052Z</time></trkpt><trkpt lat="46.0440137" lon="10.888676"><ele>462.5</ele><time>2026-05-03T13:47:55.052Z</time></trkpt><trkpt lat="46.0439616" lon="10.888509"><ele>460.25</ele><time>2026-05-03T13:47:56.052Z</time></trkpt><trkpt lat="46.0438943" lon="10.8883573"><ele>458.0</ele><time>2026-05-03T13:47:57.053Z</time></trkpt><trkpt lat="46.0437981" lon="10.8882052"><ele>448.66666666666663</ele><time>2026-05-03T13:47:58.053Z</time></trkpt><trkpt lat="46.043686" lon="10.8880714"><ele>439.33333333333337</ele><time>2026-05-03T13:47:59.052Z</time></trkpt><trkpt lat="46.0435557" lon="10.8879573"><ele>430.0</ele><time>2026-05-03T13:48:00.053Z</time></trkpt><trkpt lat="46.0434159" lon="10.8878559"><ele>431.6666666666667</ele><time>2026-05-03T13:48:01.053Z</time></trkpt><trkpt lat="46.0432712" lon="10.887773"><ele>433.33333333333337</ele><time>2026-05-03T13:48:02.053Z</time></trkpt><trkpt lat="46.0431289" lon="10.8876843"><ele>435.0</ele><time>2026-05-03T13:48:03.053Z</time></trkpt><trkpt lat="46.0430043" lon="10.8875875"><ele>435.0</ele><time>2026-05-03T13:48:04.053Z</time></trkpt><trkpt lat="46.0428944" lon="10.8874851"><ele>435.0</ele><time>2026-05-03T13:48:05.053Z</time></trkpt><trkpt lat="46.0428101" lon="10.8873451"><ele>435.0</ele><time>2026-05-03T13:48:06.053Z</time></trkpt><trkpt lat="46.0427383" lon="10.8871841"><ele>435.0</ele><time>2026-05-03T13:48:07.053Z</time></trkpt><trkpt lat="46.0426769" lon="10.8870271"><ele>435.0</ele><time>2026-05-03T13:48:08.053Z</time></trkpt><trkpt lat="46.0425971" lon="10.8868913"><ele>435.0</ele><time>2026-05-03T13:48:09.053Z</time></trkpt><trkpt lat="46.0425119" lon="10.8867867"><ele>435.0</ele><time>2026-05-03T13:48:10.053Z</time></trkpt><trkpt lat="46.0424153" lon="10.8866982"><ele>435.0</ele><time>2026-05-03T13:48:11.053Z</time></trkpt><trkpt lat="46.0423133" lon="10.8866206"><ele>439.25</ele><time>2026-05-03T13:48:12.053Z</time></trkpt><trkpt lat="46.0422163" lon="10.8865319"><ele>443.5</ele><time>2026-05-03T13:48:13.053Z</time></trkpt><trkpt lat="46.0421258" lon="10.8864179"><ele>447.75</ele><time>2026-05-03T13:48:14.052Z</time></trkpt><trkpt lat="46.0420449" lon="10.8862806"><ele>452.0</ele><time>2026-05-03T13:48:15.052Z</time></trkpt><trkpt lat="46.0419747" lon="10.8861256"><ele>452.0</ele><time>2026-05-03T13:48:16.053Z</time></trkpt><trkpt lat="46.0419152" lon="10.885962"><ele>452.0</ele><time>2026-05-03T13:48:17.053Z</time></trkpt><trkpt lat="46.0418586" lon="10.8857807"><ele>452.0</ele><time>2026-05-03T13:48:18.053Z</time></trkpt><trkpt lat="46.0418058" lon="10.88559"><ele>452.0</ele><time>2026-05-03T13:48:19.052Z</time></trkpt><trkpt lat="46.0417587" lon="10.8853909"><ele>453.0</ele><time>2026-05-03T13:48:20.053Z</time></trkpt><trkpt lat="46.0417102" lon="10.8851979"><ele>454.0</ele><time>2026-05-03T13:48:21.053Z</time></trkpt><trkpt lat="46.041668" lon="10.8850031"><ele>455.0</ele><time>2026-05-03T13:48:22.052Z</time></trkpt><trkpt lat="46.0416277" lon="10.8848006"><ele>456.0</ele><time>2026-05-03T13:48:23.053Z</time></trkpt><trkpt lat="46.0415903" lon="10.884596"><ele>456.0</ele><time>2026-05-03T13:48:24.053Z</time></trkpt><trkpt lat="46.0415461" lon="10.8843889"><ele>456.0</ele><time>2026-05-03T13:48:25.053Z</time></trkpt><trkpt lat="46.0415008" lon="10.8841772"><ele>456.0</ele><time>2026-05-03T13:48:26.052Z</time></trkpt><trkpt lat="46.0414582" lon="10.8839687"><ele>452.66666666666663</ele><time>2026-05-03T13:48:27.052Z</time></trkpt><trkpt lat="46.0414206" lon="10.8837591"><ele>449.3333333333333</ele><time>2026-05-03T13:48:28.052Z</time></trkpt><trkpt lat="46.0413752" lon="10.8835512"><ele>446.0</ele><time>2026-05-03T13:48:29.053Z</time></trkpt><trkpt lat="46.0413385" lon="10.8833436"><ele>442.3333333333333</ele><time>2026-05-03T13:48:30.053Z</time></trkpt><trkpt lat="46.0412977" lon="10.8831326"><ele>438.66666666666663</ele><time>2026-05-03T13:48:31.053Z</time></trkpt><trkpt lat="46.0412581" lon="10.8829255"><ele>435.0</ele><time>2026-05-03T13:48:32.053Z</time></trkpt><trkpt lat="46.04122" lon="10.8827188"><ele>429.25</ele><time>2026-05-03T13:48:33.052Z</time></trkpt><trkpt lat="46.0411835" lon="10.8825115"><ele>423.5</ele><time>2026-05-03T13:48:34.052Z</time></trkpt><trkpt lat="46.0411493" lon="10.8822975"><ele>417.75</ele><time>2026-05-03T13:48:35.052Z</time></trkpt><trkpt lat="46.0411266" lon="10.8821019"><ele>412.0</ele><time>2026-05-03T13:48:36.053Z</time></trkpt><trkpt lat="46.0411052" lon="10.8819212"><ele>407.75</ele><time>2026-05-03T13:48:37.052Z</time></trkpt><trkpt lat="46.0410842" lon="10.8817407"><ele>403.5</ele><time>2026-05-03T13:48:38.053Z</time></trkpt><trkpt lat="46.0410638" lon="10.8815638"><ele>399.25</ele><time>2026-05-03T13:48:39.053Z</time></trkpt><trkpt lat="46.0410434" lon="10.8813885"><ele>395.0</ele><time>2026-05-03T13:48:40.052Z</time></trkpt><trkpt lat="46.0410219" lon="10.8812065"><ele>395.0</ele><time>2026-05-03T13:48:41.053Z</time></trkpt><trkpt lat="46.0409958" lon="10.881028"><ele>395.0</ele><time>2026-05-03T13:48:42.053Z</time></trkpt><trkpt lat="46.0409742" lon="10.8808422"><ele>395.0</ele><time>2026-05-03T13:48:43.052Z</time></trkpt><trkpt lat="46.0409501" lon="10.8806485"><ele>395.0</ele><time>2026-05-03T13:48:44.053Z</time></trkpt><trkpt lat="46.040925" lon="10.8804511"><ele>395.25</ele><time>2026-05-03T13:48:45.052Z</time></trkpt><trkpt lat="46.0408997" lon="10.8802494"><ele>395.5</ele><time>2026-05-03T13:48:46.053Z</time></trkpt><trkpt lat="46.0408711" lon="10.8800434"><ele>395.75</ele><time>2026-05-03T13:48:47.052Z</time></trkpt><trkpt lat="46.0408341" lon="10.8798311"><ele>396.0</ele><time>2026-05-03T13:48:48.052Z</time></trkpt><trkpt lat="46.0407871" lon="10.8796244"><ele>400.75</ele><time>2026-05-03T13:48:49.053Z</time></trkpt><trkpt lat="46.0407297" lon="10.8794361"><ele>405.5</ele><time>2026-05-03T13:48:50.053Z</time></trkpt><trkpt lat="46.0406558" lon="10.8792512"><ele>410.25</ele><time>2026-05-03T13:48:51.053Z</time></trkpt><trkpt lat="46.0405687" lon="10.8790763"><ele>415.0</ele><time>2026-05-03T13:48:52.053Z</time></trkpt><trkpt lat="46.0404664" lon="10.8789416"><ele>415.0</ele><time>2026-05-03T13:48:53.053Z</time></trkpt><trkpt lat="46.0403564" lon="10.8788112"><ele>415.0</ele><time>2026-05-03T13:48:54.053Z</time></trkpt><trkpt lat="46.0402414" lon="10.8786957"><ele>415.0</ele><time>2026-05-03T13:48:55.053Z</time></trkpt><trkpt lat="46.0401357" lon="10.8785887"><ele>415.0</ele><time>2026-05-03T13:48:56.053Z</time></trkpt><trkpt lat="46.0400275" lon="10.8784831"><ele>415.0</ele><time>2026-05-03T13:48:57.052Z</time></trkpt><trkpt lat="46.039919" lon="10.8783812"><ele>415.0</ele><time>2026-05-03T13:48:58.053Z</time></trkpt><trkpt lat="46.039809" lon="10.8782766"><ele>415.0</ele><time>2026-05-03T13:48:59.052Z</time></trkpt><trkpt lat="46.0397026" lon="10.8781644"><ele>415.0</ele><time>2026-05-03T13:49:00.053Z</time></trkpt><trkpt lat="46.0395966" lon="10.8780527"><ele>415.0</ele><time>2026-05-03T13:49:01.053Z</time></trkpt><trkpt lat="46.0394877" lon="10.8779356"><ele>415.0</ele><time>2026-05-03T13:49:02.053Z</time></trkpt><trkpt lat="46.0393812" lon="10.8778228"><ele>415.0</ele><time>2026-05-03T13:49:03.052Z</time></trkpt><trkpt lat="46.0392729" lon="10.8777155"><ele>415.0</ele><time>2026-05-03T13:49:04.053Z</time></trkpt><trkpt lat="46.0391647" lon="10.8775989"><ele>417.0</ele><time>2026-05-03T13:49:05.052Z</time></trkpt><trkpt lat="46.03906" lon="10.8774806"><ele>419.0</ele><time>2026-05-03T13:49:06.052Z</time></trkpt><trkpt lat="46.0389615" lon="10.8773559"><ele>421.0</ele><time>2026-05-03T13:49:07.053Z</time></trkpt><trkpt lat="46.0388601" lon="10.8772388"><ele>423.0</ele><time>2026-05-03T13:49:08.053Z</time></trkpt><trkpt lat="46.0387685" lon="10.8771323"><ele>423.0</ele><time>2026-05-03T13:49:09.053Z</time></trkpt><trkpt lat="46.0386807" lon="10.8770296"><ele>423.0</ele><time>2026-05-03T13:49:10.053Z</time></trkpt><trkpt lat="46.0385923" lon="10.8769244"><ele>423.0</ele><time>2026-05-03T13:49:11.053Z</time></trkpt><trkpt lat="46.0385047" lon="10.8768264"><ele>423.0</ele><time>2026-05-03T13:49:12.053Z</time></trkpt><trkpt lat="46.0384077" lon="10.8767288"><ele>419.5</ele><time>2026-05-03T13:49:13.053Z</time></trkpt><trkpt lat="46.0383073" lon="10.8766333"><ele>416.0</ele><time>2026-05-03T13:49:14.053Z</time></trkpt><trkpt lat="46.0381998" lon="10.8765452"><ele>412.5</ele><time>2026-05-03T13:49:15.053Z</time></trkpt><trkpt lat="46.0380886" lon="10.8764547"><ele>409.0</ele><time>2026-05-03T13:49:16.053Z</time></trkpt><trkpt lat="46.0379744" lon="10.876358"><ele>409.0</ele><time>2026-05-03T13:49:17.053Z</time></trkpt><trkpt lat="46.0378545" lon="10.8762595"><ele>409.0</ele><time>2026-05-03T13:49:18.053Z</time></trkpt><trkpt lat="46.0377404" lon="10.8761644"><ele>409.0</ele><time>2026-05-03T13:49:19.053Z</time></trkpt><trkpt lat="46.0376281" lon="10.8760709"><ele>409.0</ele><time>2026-05-03T13:49:20.052Z</time></trkpt><trkpt lat="46.0375173" lon="10.8759757"><ele>407.75</ele><time>2026-05-03T13:49:21.052Z</time></trkpt><trkpt lat="46.0374048" lon="10.8758744"><ele>406.5</ele><time>2026-05-03T13:49:22.052Z</time></trkpt><trkpt lat="46.0372909" lon="10.875774"><ele>405.25</ele><time>2026-05-03T13:49:23.053Z</time></trkpt><trkpt lat="46.0371801" lon="10.8756768"><ele>404.0</ele><time>2026-05-03T13:49:24.053Z</time></trkpt><trkpt lat="46.037065" lon="10.875579"><ele>404.0</ele><time>2026-05-03T13:49:25.053Z</time></trkpt><trkpt lat="46.0369554" lon="10.8754799"><ele>404.0</ele><time>2026-05-03T13:49:26.052Z</time></trkpt><trkpt lat="46.0368455" lon="10.8753822"><ele>404.0</ele><time>2026-05-03T13:49:27.053Z</time></trkpt><trkpt lat="46.0367358" lon="10.8752882"><ele>404.0</ele><time>2026-05-03T13:49:28.053Z</time></trkpt><trkpt lat="46.0366231" lon="10.8751926"><ele>404.75</ele><time>2026-05-03T13:49:29.053Z</time></trkpt><trkpt lat="46.0365097" lon="10.8750967"><ele>405.5</ele><time>2026-05-03T13:49:30.053Z</time></trkpt><trkpt lat="46.0364038" lon="10.8749995"><ele>406.25</ele><time>2026-05-03T13:49:31.053Z</time></trkpt><trkpt lat="46.0363071" lon="10.8748947"><ele>407.0</ele><time>2026-05-03T13:49:32.052Z</time></trkpt><trkpt lat="46.0362147" lon="10.8747788"><ele>407.0</ele><time>2026-05-03T13:49:33.053Z</time></trkpt><trkpt lat="46.0361336" lon="10.8746476"><ele>407.0</ele><time>2026-05-03T13:49:34.053Z</time></trkpt><trkpt lat="46.0360644" lon="10.8744991"><ele>407.0</ele><time>2026-05-03T13:49:35.053Z</time></trkpt><trkpt lat="46.0360034" lon="10.8743538"><ele>407.0</ele><time>2026-05-03T13:49:36.053Z</time></trkpt><trkpt lat="46.035941" lon="10.8742037"><ele>405.75</ele><time>2026-05-03T13:49:37.053Z</time></trkpt><trkpt lat="46.0358805" lon="10.874049"><ele>404.5</ele><time>2026-05-03T13:49:38.053Z</time></trkpt><trkpt lat="46.0358169" lon="10.8738973"><ele>403.25</ele><time>2026-05-03T13:49:39.053Z</time></trkpt><trkpt lat="46.0357546" lon="10.8737472"><ele>402.0</ele><time>2026-05-03T13:49:40.053Z</time></trkpt><trkpt lat="46.0356913" lon="10.8735997"><ele>402.5</ele><time>2026-05-03T13:49:41.053Z</time></trkpt><trkpt lat="46.0356359" lon="10.8734545"><ele>403.0</ele><time>2026-05-03T13:49:42.052Z</time></trkpt><trkpt lat="46.0355762" lon="10.8733134"><ele>403.5</ele><time>2026-05-03T13:49:43.053Z</time></trkpt><trkpt lat="46.0355151" lon="10.8731677"><ele>404.0</ele><time>2026-05-03T13:49:44.053Z</time></trkpt><trkpt lat="46.0354556" lon="10.8730206"><ele>404.0</ele><time>2026-05-03T13:49:45.053Z</time></trkpt><trkpt lat="46.0353929" lon="10.872871"><ele>404.0</ele><time>2026-05-03T13:49:46.052Z</time></trkpt><trkpt lat="46.0353331" lon="10.8727231"><ele>404.0</ele><time>2026-05-03T13:49:47.053Z</time></trkpt><trkpt lat="46.0352757" lon="10.8725791"><ele>404.0</ele><time>2026-05-03T13:49:48.053Z</time></trkpt><trkpt lat="46.035219" lon="10.8724341"><ele>403.79999999999995</ele><time>2026-05-03T13:49:49.053Z</time></trkpt><trkpt lat="46.035164" lon="10.8722937"><ele>403.59999999999997</ele><time>2026-05-03T13:49:50.052Z</time></trkpt><trkpt lat="46.0351064" lon="10.8721502"><ele>403.4</ele><time>2026-05-03T13:49:51.053Z</time></trkpt><trkpt lat="46.0350482" lon="10.872008"><ele>403.2</ele><time>2026-05-03T13:49:52.052Z</time></trkpt><trkpt lat="46.0349966" lon="10.8718729"><ele>403.0</ele><time>2026-05-03T13:49:53.053Z</time></trkpt><trkpt lat="46.0349499" lon="10.8717447"><ele>403.0</ele><time>2026-05-03T13:49:54.053Z</time></trkpt><trkpt lat="46.0349083" lon="10.8716256"><ele>403.0</ele><time>2026-05-03T13:49:55.052Z</time></trkpt><trkpt lat="46.0348794" lon="10.8714933"><ele>403.0</ele><time>2026-05-03T13:49:56.052Z</time></trkpt><trkpt lat="46.0348529" lon="10.8713491"><ele>403.0</ele><time>2026-05-03T13:49:57.053Z</time></trkpt><trkpt lat="46.0348334" lon="10.8711972"><ele>403.0</ele><time>2026-05-03T13:49:58.053Z</time></trkpt><trkpt lat="46.0348138" lon="10.8710396"><ele>402.83333333333337</ele><time>2026-05-03T13:49:59.053Z</time></trkpt><trkpt lat="46.0347917" lon="10.8708909"><ele>402.6666666666667</ele><time>2026-05-03T13:50:00.052Z</time></trkpt><trkpt lat="46.034776" lon="10.8707667"><ele>402.5</ele><time>2026-05-03T13:50:01.053Z</time></trkpt><trkpt lat="46.0347585" lon="10.870644"><ele>402.33333333333337</ele><time>2026-05-03T13:50:02.052Z</time></trkpt><trkpt lat="46.0347443" lon="10.8705318"><ele>402.1666666666667</ele><time>2026-05-03T13:50:03.053Z</time></trkpt><trkpt lat="46.0347343" lon="10.8704159"><ele>402.0</ele><time>2026-05-03T13:50:04.053Z</time></trkpt><trkpt lat="46.0347215" lon="10.8703191"><ele>402.0</ele><time>2026-05-03T13:50:05.053Z</time></trkpt><trkpt lat="46.0346682" lon="10.8701837"><ele>402.0</ele><time>2026-05-03T13:50:07.052Z</time></trkpt><trkpt lat="46.0345357" lon="10.8701572"><ele>402.0</ele><time>2026-05-03T13:50:09.053Z</time></trkpt><trkpt lat="46.0344492" lon="10.8701539"><ele>402.0</ele><time>2026-05-03T13:50:10.052Z</time></trkpt><trkpt lat="46.0343554" lon="10.8701505"><ele>402.0</ele><time>2026-05-03T13:50:11.053Z</time></trkpt><trkpt lat="46.0342569" lon="10.8701441"><ele>402.0</ele><time>2026-05-03T13:50:12.053Z</time></trkpt><trkpt lat="46.0341551" lon="10.8701347"><ele>402.0</ele><time>2026-05-03T13:50:13.052Z</time></trkpt><trkpt lat="46.0340502" lon="10.8701219"><ele>402.0</ele><time>2026-05-03T13:50:14.052Z</time></trkpt><trkpt lat="46.0339308" lon="10.8701141"><ele>402.0</ele><time>2026-05-03T13:50:15.053Z</time></trkpt><trkpt lat="46.0338121" lon="10.8701062"><ele>402.0</ele><time>2026-05-03T13:50:16.053Z</time></trkpt><trkpt lat="46.0336941" lon="10.8700945"><ele>402.75</ele><time>2026-05-03T13:50:17.053Z</time></trkpt><trkpt lat="46.0335696" lon="10.8700872"><ele>403.5</ele><time>2026-05-03T13:50:18.053Z</time></trkpt><trkpt lat="46.0334417" lon="10.870074"><ele>404.25</ele><time>2026-05-03T13:50:19.053Z</time></trkpt><trkpt lat="46.0333167" lon="10.8700621"><ele>405.0</ele><time>2026-05-03T13:50:20.053Z</time></trkpt><trkpt lat="46.0331957" lon="10.8700581"><ele>405.0</ele><time>2026-05-03T13:50:21.053Z</time></trkpt><trkpt lat="46.0330646" lon="10.870055"><ele>405.0</ele><time>2026-05-03T13:50:22.053Z</time></trkpt><trkpt lat="46.032946" lon="10.8700493"><ele>405.0</ele><time>2026-05-03T13:50:23.053Z</time></trkpt><trkpt lat="46.0328215" lon="10.8700429"><ele>405.0</ele><time>2026-05-03T13:50:24.053Z</time></trkpt><trkpt lat="46.0326939" lon="10.8700319"><ele>405.0</ele><time>2026-05-03T13:50:25.053Z</time></trkpt><trkpt lat="46.0325701" lon="10.8700113"><ele>405.0</ele><time>2026-05-03T13:50:26.053Z</time></trkpt><trkpt lat="46.0324555" lon="10.8699836"><ele>405.0</ele><time>2026-05-03T13:50:27.053Z</time></trkpt><trkpt lat="46.0323349" lon="10.869927"><ele>405.0</ele><time>2026-05-03T13:50:28.052Z</time></trkpt><trkpt lat="46.0322315" lon="10.8698353"><ele>404.5</ele><time>2026-05-03T13:50:29.053Z</time></trkpt><trkpt lat="46.0321371" lon="10.8697193"><ele>404.0</ele><time>2026-05-03T13:50:30.052Z</time></trkpt><trkpt lat="46.0320594" lon="10.8695811"><ele>403.5</ele><time>2026-05-03T13:50:31.053Z</time></trkpt><trkpt lat="46.0319875" lon="10.8694397"><ele>403.0</ele><time>2026-05-03T13:50:32.052Z</time></trkpt><trkpt lat="46.0319212" lon="10.8692892"><ele>403.2</ele><time>2026-05-03T13:50:33.053Z</time></trkpt><trkpt lat="46.0318569" lon="10.8691498"><ele>403.4</ele><time>2026-05-03T13:50:34.053Z</time></trkpt><trkpt lat="46.0317872" lon="10.8690248"><ele>403.59999999999997</ele><time>2026-05-03T13:50:35.053Z</time></trkpt><trkpt lat="46.03171" lon="10.8689136"><ele>403.79999999999995</ele><time>2026-05-03T13:50:36.053Z</time></trkpt><trkpt lat="46.0316185" lon="10.8688325"><ele>404.0</ele><time>2026-05-03T13:50:37.053Z</time></trkpt><trkpt lat="46.0315184" lon="10.8687657"><ele>405.0</ele><time>2026-05-03T13:50:38.052Z</time></trkpt><trkpt lat="46.031405" lon="10.868721"><ele>406.0</ele><time>2026-05-03T13:50:39.052Z</time></trkpt><trkpt lat="46.0312863" lon="10.868683"><ele>407.0</ele><time>2026-05-03T13:50:40.052Z</time></trkpt><trkpt lat="46.0311683" lon="10.8686437"><ele>408.0</ele><time>2026-05-03T13:50:41.053Z</time></trkpt><trkpt lat="46.0310546" lon="10.8685993"><ele>408.0</ele><time>2026-05-03T13:50:42.052Z</time></trkpt><trkpt lat="46.0309452" lon="10.8685502"><ele>408.0</ele><time>2026-05-03T13:50:43.053Z</time></trkpt><trkpt lat="46.0308297" lon="10.8685023"><ele>408.0</ele><time>2026-05-03T13:50:44.052Z</time></trkpt><trkpt lat="46.0307204" lon="10.8684621"><ele>408.0</ele><time>2026-05-03T13:50:45.053Z</time></trkpt><trkpt lat="46.0306224" lon="10.8684269"><ele>408.0</ele><time>2026-05-03T13:50:46.053Z</time></trkpt><trkpt lat="46.0305379" lon="10.8683913"><ele>411.5</ele><time>2026-05-03T13:50:47.052Z</time></trkpt><trkpt lat="46.0304578" lon="10.868369"><ele>415.0</ele><time>2026-05-03T13:50:48.053Z</time></trkpt><trkpt lat="46.0303795" lon="10.8683725"><ele>418.5</ele><time>2026-05-03T13:50:49.053Z</time></trkpt><trkpt lat="46.030309" lon="10.8684083"><ele>422.0</ele><time>2026-05-03T13:50:50.052Z</time></trkpt><trkpt lat="46.030256" lon="10.868482"><ele>425.5</ele><time>2026-05-03T13:50:51.052Z</time></trkpt><trkpt lat="46.0302225" lon="10.8685831"><ele>429.0</ele><time>2026-05-03T13:50:52.053Z</time></trkpt><trkpt lat="46.0302161" lon="10.8687098"><ele>429.0</ele><time>2026-05-03T13:50:53.053Z</time></trkpt><trkpt lat="46.0302302" lon="10.868838"><ele>429.0</ele><time>2026-05-03T13:50:54.053Z</time></trkpt><trkpt lat="46.0302552" lon="10.8689666"><ele>429.0</ele><time>2026-05-03T13:50:55.052Z</time></trkpt><trkpt lat="46.0302828" lon="10.869081"><ele>429.0</ele><time>2026-05-03T13:50:56.053Z</time></trkpt><trkpt lat="46.0302791" lon="10.869183"><ele>429.0</ele><time>2026-05-03T13:50:57.052Z</time></trkpt><trkpt lat="46.0301772" lon="10.8692605"><ele>429.0</ele><time>2026-05-03T13:50:59.053Z</time></trkpt><trkpt lat="46.0301087" lon="10.8692095"><ele>429.0</ele><time>2026-05-03T13:51:00.052Z</time></trkpt><trkpt lat="46.0300615" lon="10.8690287"><ele>429.0</ele><time>2026-05-03T13:51:02.053Z</time></trkpt><trkpt lat="46.0300625" lon="10.8689075"><ele>429.0</ele><time>2026-05-03T13:51:03.053Z</time></trkpt><trkpt lat="46.0300693" lon="10.8687753"><ele>429.0</ele><time>2026-05-03T13:51:04.052Z</time></trkpt><trkpt lat="46.0300713" lon="10.8686275"><ele>429.0</ele><time>2026-05-03T13:51:05.053Z</time></trkpt><trkpt lat="46.0300603" lon="10.8684747"><ele>429.0</ele><time>2026-05-03T13:51:06.052Z</time></trkpt><trkpt lat="46.0300443" lon="10.8683178"><ele>429.0</ele><time>2026-05-03T13:51:07.053Z</time></trkpt><trkpt lat="46.0300223" lon="10.8681496"><ele>429.0</ele><time>2026-05-03T13:51:08.053Z</time></trkpt><trkpt lat="46.0299904" lon="10.867984"><ele>436.0</ele><time>2026-05-03T13:51:09.053Z</time></trkpt><trkpt lat="46.029948" lon="10.8678391"><ele>443.0</ele><time>2026-05-03T13:51:10.053Z</time></trkpt><trkpt lat="46.0298878" lon="10.8676974"><ele>450.0</ele><time>2026-05-03T13:51:11.052Z</time></trkpt><trkpt lat="46.0298205" lon="10.86756"><ele>457.0</ele><time>2026-05-03T13:51:12.053Z</time></trkpt><trkpt lat="46.0297412" lon="10.8674251"><ele>457.0</ele><time>2026-05-03T13:51:13.053Z</time></trkpt><trkpt lat="46.0296536" lon="10.8672882"><ele>457.0</ele><time>2026-05-03T13:51:14.053Z</time></trkpt><trkpt lat="46.0295626" lon="10.8671541"><ele>457.0</ele><time>2026-05-03T13:51:15.052Z</time></trkpt><trkpt lat="46.02947" lon="10.8670174"><ele>457.0</ele><time>2026-05-03T13:51:16.053Z</time></trkpt><trkpt lat="46.0293776" lon="10.8668816"><ele>457.0</ele><time>2026-05-03T13:51:17.052Z</time></trkpt><trkpt lat="46.0292814" lon="10.8667454"><ele>457.0</ele><time>2026-05-03T13:51:18.052Z</time></trkpt><trkpt lat="46.0291832" lon="10.8665989"><ele>457.0</ele><time>2026-05-03T13:51:19.052Z</time></trkpt><trkpt lat="46.0290826" lon="10.866461"><ele>457.0</ele><time>2026-05-03T13:51:20.052Z</time></trkpt><trkpt lat="46.0289804" lon="10.8663233"><ele>457.0</ele><time>2026-05-03T13:51:21.051Z</time></trkpt><trkpt lat="46.028878" lon="10.8661783"><ele>457.0</ele><time>2026-05-03T13:51:22.051Z</time></trkpt><trkpt lat="46.0287712" lon="10.8660409"><ele>457.0</ele><time>2026-05-03T13:51:23.052Z</time></trkpt><trkpt lat="46.028671" lon="10.8659083"><ele>457.0</ele><time>2026-05-03T13:51:24.052Z</time></trkpt><trkpt lat="46.0285728" lon="10.865782"><ele>455.40000000000003</ele><time>2026-05-03T13:51:25.052Z</time></trkpt><trkpt lat="46.0284789" lon="10.8656615"><ele>453.80000000000007</ele><time>2026-05-03T13:51:26.051Z</time></trkpt><trkpt lat="46.0283925" lon="10.8655446"><ele>452.2</ele><time>2026-05-03T13:51:27.052Z</time></trkpt><trkpt lat="46.028317" lon="10.8654346"><ele>450.6</ele><time>2026-05-03T13:51:28.052Z</time></trkpt><trkpt lat="46.028255" lon="10.8653433"><ele>449.0</ele><time>2026-05-03T13:51:29.052Z</time></trkpt><trkpt lat="46.0281978" lon="10.8652737"><ele>451.66666666666663</ele><time>2026-05-03T13:51:30.051Z</time></trkpt><trkpt lat="46.0281301" lon="10.8652525"><ele>454.3333333333333</ele><time>2026-05-03T13:51:31.051Z</time></trkpt><trkpt lat="46.0280477" lon="10.8653818"><ele>457.0</ele><time>2026-05-03T13:51:33.051Z</time></trkpt><trkpt lat="46.0280471" lon="10.8654788"><ele>459.66666666666663</ele><time>2026-05-03T13:51:34.052Z</time></trkpt><trkpt lat="46.0280681" lon="10.8655841"><ele>462.3333333333333</ele><time>2026-05-03T13:51:35.052Z</time></trkpt><trkpt lat="46.0281008" lon="10.865705"><ele>465.0</ele><time>2026-05-03T13:51:36.051Z</time></trkpt><trkpt lat="46.0281299" lon="10.8658391"><ele>465.4</ele><time>2026-05-03T13:51:37.051Z</time></trkpt><trkpt lat="46.0281538" lon="10.8659798"><ele>465.8</ele><time>2026-05-03T13:51:38.051Z</time></trkpt><trkpt lat="46.0281712" lon="10.8661315"><ele>466.20000000000005</ele><time>2026-05-03T13:51:39.052Z</time></trkpt><trkpt lat="46.0281856" lon="10.8662909"><ele>466.6</ele><time>2026-05-03T13:51:40.051Z</time></trkpt><trkpt lat="46.0282036" lon="10.8664537"><ele>467.0</ele><time>2026-05-03T13:51:41.052Z</time></trkpt><trkpt lat="46.0282224" lon="10.8666247"><ele>467.5</ele><time>2026-05-03T13:51:42.052Z</time></trkpt><trkpt lat="46.0282478" lon="10.8667979"><ele>468.0</ele><time>2026-05-03T13:51:43.051Z</time></trkpt><trkpt lat="46.0282783" lon="10.8669714"><ele>468.5</ele><time>2026-05-03T13:51:44.052Z</time></trkpt><trkpt lat="46.0283183" lon="10.8671343"><ele>469.0</ele><time>2026-05-03T13:51:45.052Z</time></trkpt><trkpt lat="46.028375" lon="10.8672887"><ele>469.0</ele><time>2026-05-03T13:51:46.051Z</time></trkpt><trkpt lat="46.0284489" lon="10.8674275"><ele>469.0</ele><time>2026-05-03T13:51:47.052Z</time></trkpt><trkpt lat="46.0285437" lon="10.8675561"><ele>469.0</ele><time>2026-05-03T13:51:48.051Z</time></trkpt><trkpt lat="46.0286427" lon="10.8676761"><ele>469.0</ele><time>2026-05-03T13:51:49.052Z</time></trkpt><trkpt lat="46.0287442" lon="10.8677752"><ele>471.4</ele><time>2026-05-03T13:51:50.052Z</time></trkpt><trkpt lat="46.0288476" lon="10.8678588"><ele>473.79999999999995</ele><time>2026-05-03T13:51:51.052Z</time></trkpt><trkpt lat="46.0289468" lon="10.8679218"><ele>476.20000000000005</ele><time>2026-05-03T13:51:52.051Z</time></trkpt><trkpt lat="46.0290291" lon="10.8679755"><ele>478.6</ele><time>2026-05-03T13:51:53.052Z</time></trkpt><trkpt lat="46.0291008" lon="10.8680204"><ele>481.0</ele><time>2026-05-03T13:51:54.052Z</time></trkpt><trkpt lat="46.0291397" lon="10.8681355"><ele>481.00000000000006</ele><time>2026-05-03T13:51:56.052Z</time></trkpt><trkpt lat="46.02907" lon="10.8681902"><ele>481.0</ele><time>2026-05-03T13:51:58.052Z</time></trkpt><trkpt lat="46.0289556" lon="10.8681163"><ele>481.0</ele><time>2026-05-03T13:52:00.052Z</time></trkpt><trkpt lat="46.0288933" lon="10.8680565"><ele>481.0</ele><time>2026-05-03T13:52:01.052Z</time></trkpt><trkpt lat="46.0288275" lon="10.8680056"><ele>481.00000000000006</ele><time>2026-05-03T13:52:02.052Z</time></trkpt><trkpt lat="46.0287458" lon="10.8679596"><ele>481.0</ele><time>2026-05-03T13:52:03.052Z</time></trkpt><trkpt lat="46.0286516" lon="10.8679161"><ele>481.0</ele><time>2026-05-03T13:52:04.051Z</time></trkpt><trkpt lat="46.0285543" lon="10.8678819"><ele>481.0</ele><time>2026-05-03T13:52:05.052Z</time></trkpt><trkpt lat="46.0284497" lon="10.8678598"><ele>481.0</ele><time>2026-05-03T13:52:06.052Z</time></trkpt><trkpt lat="46.0283438" lon="10.8678607"><ele>481.0</ele><time>2026-05-03T13:52:07.052Z</time></trkpt><trkpt lat="46.0282377" lon="10.8678789"><ele>481.0</ele><time>2026-05-03T13:52:08.052Z</time></trkpt><trkpt lat="46.0281282" lon="10.8679126"><ele>479.75</ele><time>2026-05-03T13:52:09.051Z</time></trkpt><trkpt lat="46.0280134" lon="10.8679629"><ele>478.5</ele><time>2026-05-03T13:52:10.052Z</time></trkpt><trkpt lat="46.0278956" lon="10.8680354"><ele>477.25</ele><time>2026-05-03T13:52:11.052Z</time></trkpt><trkpt lat="46.0277837" lon="10.8680903"><ele>476.0</ele><time>2026-05-03T13:52:12.052Z</time></trkpt><trkpt lat="46.0276727" lon="10.8681143"><ele>476.0</ele><time>2026-05-03T13:52:13.051Z</time></trkpt><trkpt lat="46.0275611" lon="10.8681097"><ele>476.0</ele><time>2026-05-03T13:52:14.052Z</time></trkpt><trkpt lat="46.0274493" lon="10.8680708"><ele>476.0</ele><time>2026-05-03T13:52:15.052Z</time></trkpt><trkpt lat="46.0273389" lon="10.8680252"><ele>476.0</ele><time>2026-05-03T13:52:16.052Z</time></trkpt><trkpt lat="46.0272245" lon="10.8679772"><ele>477.5</ele><time>2026-05-03T13:52:17.052Z</time></trkpt><trkpt lat="46.0271089" lon="10.8679215"><ele>479.0</ele><time>2026-05-03T13:52:18.051Z</time></trkpt><trkpt lat="46.0270032" lon="10.8678543"><ele>480.5</ele><time>2026-05-03T13:52:19.052Z</time></trkpt><trkpt lat="46.0269074" lon="10.8677722"><ele>482.0</ele><time>2026-05-03T13:52:20.051Z</time></trkpt><trkpt lat="46.0268131" lon="10.8676682"><ele>481.75</ele><time>2026-05-03T13:52:21.052Z</time></trkpt><trkpt lat="46.0267388" lon="10.8675535"><ele>481.5</ele><time>2026-05-03T13:52:22.052Z</time></trkpt><trkpt lat="46.0266684" lon="10.8674154"><ele>481.25</ele><time>2026-05-03T13:52:23.052Z</time></trkpt><trkpt lat="46.0265929" lon="10.8672927"><ele>481.0</ele><time>2026-05-03T13:52:24.052Z</time></trkpt><trkpt lat="46.0265114" lon="10.8671709"><ele>482.25</ele><time>2026-05-03T13:52:25.051Z</time></trkpt><trkpt lat="46.0264278" lon="10.8670513"><ele>483.5</ele><time>2026-05-03T13:52:26.052Z</time></trkpt><trkpt lat="46.0263392" lon="10.8669397"><ele>484.75</ele><time>2026-05-03T13:52:27.052Z</time></trkpt><trkpt lat="46.0262463" lon="10.8668213"><ele>486.0</ele><time>2026-05-03T13:52:28.052Z</time></trkpt><trkpt lat="46.0261499" lon="10.86671"><ele>486.0</ele><time>2026-05-03T13:52:29.052Z</time></trkpt><trkpt lat="46.0260518" lon="10.866597"><ele>486.0</ele><time>2026-05-03T13:52:30.051Z</time></trkpt><trkpt lat="46.0259569" lon="10.8664774"><ele>486.0</ele><time>2026-05-03T13:52:31.052Z</time></trkpt><trkpt lat="46.0258615" lon="10.8663553"><ele>486.0</ele><time>2026-05-03T13:52:32.051Z</time></trkpt><trkpt lat="46.0257623" lon="10.8662349"><ele>486.25</ele><time>2026-05-03T13:52:33.052Z</time></trkpt><trkpt lat="46.0256624" lon="10.8661169"><ele>486.5</ele><time>2026-05-03T13:52:34.051Z</time></trkpt><trkpt lat="46.0255629" lon="10.8659994"><ele>486.75</ele><time>2026-05-03T13:52:35.052Z</time></trkpt><trkpt lat="46.025468" lon="10.8658904"><ele>487.0</ele><time>2026-05-03T13:52:36.051Z</time></trkpt><trkpt lat="46.0253797" lon="10.865783"><ele>487.6</ele><time>2026-05-03T13:52:37.051Z</time></trkpt><trkpt lat="46.0253012" lon="10.8656911"><ele>488.20000000000005</ele><time>2026-05-03T13:52:38.052Z</time></trkpt><trkpt lat="46.0252207" lon="10.8656109"><ele>488.8</ele><time>2026-05-03T13:52:39.052Z</time></trkpt><trkpt lat="46.0251466" lon="10.8655334"><ele>489.4</ele><time>2026-05-03T13:52:40.052Z</time></trkpt><trkpt lat="46.0250733" lon="10.8654622"><ele>490.0</ele><time>2026-05-03T13:52:41.051Z</time></trkpt><trkpt lat="46.0249979" lon="10.8653946"><ele>490.1666666666667</ele><time>2026-05-03T13:52:42.052Z</time></trkpt><trkpt lat="46.0249237" lon="10.8653281"><ele>490.33333333333337</ele><time>2026-05-03T13:52:43.052Z</time></trkpt><trkpt lat="46.0248491" lon="10.8652666"><ele>490.5</ele><time>2026-05-03T13:52:44.052Z</time></trkpt><trkpt lat="46.0247753" lon="10.8652131"><ele>490.66666666666663</ele><time>2026-05-03T13:52:45.052Z</time></trkpt><trkpt lat="46.0247035" lon="10.8651664"><ele>490.8333333333333</ele><time>2026-05-03T13:52:46.052Z</time></trkpt><trkpt lat="46.0246344" lon="10.8651209"><ele>491.0</ele><time>2026-05-03T13:52:47.052Z</time></trkpt><trkpt lat="46.0245672" lon="10.8650831"><ele>490.99999999999994</ele><time>2026-05-03T13:52:48.051Z</time></trkpt><trkpt lat="46.0245031" lon="10.8650709"><ele>491.0</ele><time>2026-05-03T13:52:49.052Z</time></trkpt><trkpt lat="46.0243808" lon="10.8651306"><ele>491.0</ele><time>2026-05-03T13:52:51.052Z</time></trkpt><trkpt lat="46.0243093" lon="10.8651963"><ele>491.0</ele><time>2026-05-03T13:52:52.051Z</time></trkpt><trkpt lat="46.024249" lon="10.8652731"><ele>490.99999999999994</ele><time>2026-05-03T13:52:53.052Z</time></trkpt><trkpt lat="46.0241848" lon="10.865356"><ele>491.0</ele><time>2026-05-03T13:52:54.052Z</time></trkpt><trkpt lat="46.0241174" lon="10.8654393"><ele>491.4</ele><time>2026-05-03T13:52:55.052Z</time></trkpt><trkpt lat="46.0240479" lon="10.8655172"><ele>491.8</ele><time>2026-05-03T13:52:56.051Z</time></trkpt><trkpt lat="46.0239747" lon="10.8655907"><ele>492.19999999999993</ele><time>2026-05-03T13:52:57.052Z</time></trkpt><trkpt lat="46.0238932" lon="10.8656578"><ele>492.59999999999997</ele><time>2026-05-03T13:52:58.051Z</time></trkpt><trkpt lat="46.0238029" lon="10.8657127"><ele>493.0</ele><time>2026-05-03T13:52:59.052Z</time></trkpt><trkpt lat="46.0237096" lon="10.8657625"><ele>493.0</ele><time>2026-05-03T13:53:00.051Z</time></trkpt><trkpt lat="46.0236101" lon="10.8658166"><ele>492.99999999999994</ele><time>2026-05-03T13:53:01.052Z</time></trkpt><trkpt lat="46.0235116" lon="10.8658694"><ele>492.99999999999994</ele><time>2026-05-03T13:53:02.052Z</time></trkpt><trkpt lat="46.0234052" lon="10.8659213"><ele>493.0</ele><time>2026-05-03T13:53:03.052Z</time></trkpt><trkpt lat="46.0233011" lon="10.8659743"><ele>493.0</ele><time>2026-05-03T13:53:04.051Z</time></trkpt><trkpt lat="46.023195" lon="10.8660254"><ele>492.75</ele><time>2026-05-03T13:53:05.052Z</time></trkpt><trkpt lat="46.0230838" lon="10.8660845"><ele>492.5</ele><time>2026-05-03T13:53:06.051Z</time></trkpt><trkpt lat="46.0229726" lon="10.8661411"><ele>492.25</ele><time>2026-05-03T13:53:07.051Z</time></trkpt><trkpt lat="46.0228596" lon="10.8662003"><ele>492.0</ele><time>2026-05-03T13:53:08.052Z</time></trkpt><trkpt lat="46.022748" lon="10.8662591"><ele>492.0</ele><time>2026-05-03T13:53:09.051Z</time></trkpt><trkpt lat="46.0226376" lon="10.8663165"><ele>492.0</ele><time>2026-05-03T13:53:10.052Z</time></trkpt><trkpt lat="46.0225258" lon="10.866374"><ele>492.0</ele><time>2026-05-03T13:53:11.051Z</time></trkpt><trkpt lat="46.0224151" lon="10.8664301"><ele>492.0</ele><time>2026-05-03T13:53:12.052Z</time></trkpt><trkpt lat="46.0223009" lon="10.8664857"><ele>492.25</ele><time>2026-05-03T13:53:13.052Z</time></trkpt><trkpt lat="46.0221886" lon="10.8665459"><ele>492.5</ele><time>2026-05-03T13:53:14.051Z</time></trkpt><trkpt lat="46.0220728" lon="10.8666079"><ele>492.75</ele><time>2026-05-03T13:53:15.052Z</time></trkpt><trkpt lat="46.0219574" lon="10.8666665"><ele>493.0</ele><time>2026-05-03T13:53:16.051Z</time></trkpt><trkpt lat="46.0218433" lon="10.8667219"><ele>493.0</ele><time>2026-05-03T13:53:17.052Z</time></trkpt><trkpt lat="46.0217236" lon="10.8667768"><ele>493.0</ele><time>2026-05-03T13:53:18.052Z</time></trkpt><trkpt lat="46.0216015" lon="10.8668281"><ele>493.0</ele><time>2026-05-03T13:53:19.052Z</time></trkpt><trkpt lat="46.021481" lon="10.8668726"><ele>493.0</ele><time>2026-05-03T13:53:20.052Z</time></trkpt><trkpt lat="46.0213583" lon="10.8669267"><ele>492.5</ele><time>2026-05-03T13:53:21.052Z</time></trkpt><trkpt lat="46.0212418" lon="10.8669839"><ele>492.0</ele><time>2026-05-03T13:53:22.051Z</time></trkpt><trkpt lat="46.0211288" lon="10.8670386"><ele>491.5</ele><time>2026-05-03T13:53:23.052Z</time></trkpt><trkpt lat="46.0210208" lon="10.8670979"><ele>491.0</ele><time>2026-05-03T13:53:24.052Z</time></trkpt><trkpt lat="46.0209068" lon="10.8671665"><ele>490.75</ele><time>2026-05-03T13:53:25.051Z</time></trkpt><trkpt lat="46.0207923" lon="10.8672404"><ele>490.5</ele><time>2026-05-03T13:53:26.052Z</time></trkpt><trkpt lat="46.0206816" lon="10.8673166"><ele>490.25</ele><time>2026-05-03T13:53:27.052Z</time></trkpt><trkpt lat="46.0205621" lon="10.8673953"><ele>490.0</ele><time>2026-05-03T13:53:28.051Z</time></trkpt><trkpt lat="46.0204446" lon="10.8674743"><ele>490.0</ele><time>2026-05-03T13:53:29.051Z</time></trkpt><trkpt lat="46.0203206" lon="10.8675623"><ele>490.0</ele><time>2026-05-03T13:53:30.051Z</time></trkpt><trkpt lat="46.0201942" lon="10.8676462"><ele>490.0</ele><time>2026-05-03T13:53:31.052Z</time></trkpt><trkpt lat="46.0200632" lon="10.8677334"><ele>490.0</ele><time>2026-05-03T13:53:32.052Z</time></trkpt><trkpt lat="46.0199329" lon="10.8678157"><ele>489.25</ele><time>2026-05-03T13:53:33.052Z</time></trkpt><trkpt lat="46.0198011" lon="10.8678974"><ele>488.5</ele><time>2026-05-03T13:53:34.052Z</time></trkpt><trkpt lat="46.0196639" lon="10.8679752"><ele>487.75</ele><time>2026-05-03T13:53:35.052Z</time></trkpt><trkpt lat="46.0195267" lon="10.8680472"><ele>487.0</ele><time>2026-05-03T13:53:36.051Z</time></trkpt><trkpt lat="46.019383" lon="10.8681036"><ele>487.0</ele><time>2026-05-03T13:53:37.052Z</time></trkpt><trkpt lat="46.0192373" lon="10.8681524"><ele>487.0</ele><time>2026-05-03T13:53:38.052Z</time></trkpt><trkpt lat="46.0190867" lon="10.868187"><ele>487.0</ele><time>2026-05-03T13:53:39.051Z</time></trkpt><trkpt lat="46.0189357" lon="10.8682108"><ele>487.33333333333337</ele><time>2026-05-03T13:53:40.052Z</time></trkpt><trkpt lat="46.0187863" lon="10.8682229"><ele>487.66666666666663</ele><time>2026-05-03T13:53:41.052Z</time></trkpt><trkpt lat="46.018634" lon="10.8682196"><ele>488.0</ele><time>2026-05-03T13:53:42.051Z</time></trkpt><trkpt lat="46.0184791" lon="10.8682086"><ele>488.0</ele><time>2026-05-03T13:53:43.052Z</time></trkpt><trkpt lat="46.018324" lon="10.8681949"><ele>488.0</ele><time>2026-05-03T13:53:44.052Z</time></trkpt><trkpt lat="46.0181654" lon="10.8681737"><ele>488.0</ele><time>2026-05-03T13:53:45.051Z</time></trkpt><trkpt lat="46.018013" lon="10.8681619"><ele>487.66666666666663</ele><time>2026-05-03T13:53:46.051Z</time></trkpt><trkpt lat="46.0178595" lon="10.8681533"><ele>487.33333333333337</ele><time>2026-05-03T13:53:47.052Z</time></trkpt><trkpt lat="46.017706" lon="10.8681373"><ele>487.0</ele><time>2026-05-03T13:53:48.052Z</time></trkpt><trkpt lat="46.0175568" lon="10.8681197"><ele>486.5</ele><time>2026-05-03T13:53:49.052Z</time></trkpt><trkpt lat="46.0174123" lon="10.8680816"><ele>486.0</ele><time>2026-05-03T13:53:50.052Z</time></trkpt><trkpt lat="46.0172759" lon="10.8680217"><ele>485.5</ele><time>2026-05-03T13:53:51.052Z</time></trkpt><trkpt lat="46.0171436" lon="10.8679309"><ele>485.0</ele><time>2026-05-03T13:53:52.051Z</time></trkpt><trkpt lat="46.0170237" lon="10.8678187"><ele>485.0</ele><time>2026-05-03T13:53:53.052Z</time></trkpt><trkpt lat="46.0169058" lon="10.8676874"><ele>485.0</ele><time>2026-05-03T13:53:54.051Z</time></trkpt><trkpt lat="46.016786" lon="10.8675486"><ele>485.0</ele><time>2026-05-03T13:53:55.052Z</time></trkpt><trkpt lat="46.0166732" lon="10.8674164"><ele>485.0</ele><time>2026-05-03T13:53:56.051Z</time></trkpt><trkpt lat="46.0165548" lon="10.867284"><ele>485.5</ele><time>2026-05-03T13:53:57.052Z</time></trkpt><trkpt lat="46.0164427" lon="10.8671566"><ele>486.0</ele><time>2026-05-03T13:53:58.052Z</time></trkpt><trkpt lat="46.0163307" lon="10.8670504"><ele>486.5</ele><time>2026-05-03T13:53:59.052Z</time></trkpt><trkpt lat="46.0162186" lon="10.8669784"><ele>487.0</ele><time>2026-05-03T13:54:00.052Z</time></trkpt><trkpt lat="46.0160977" lon="10.8669443"><ele>487.0</ele><time>2026-05-03T13:54:01.052Z</time></trkpt><trkpt lat="46.0159701" lon="10.8669429"><ele>487.0</ele><time>2026-05-03T13:54:02.051Z</time></trkpt><trkpt lat="46.0158358" lon="10.8669837"><ele>487.0</ele><time>2026-05-03T13:54:03.052Z</time></trkpt><trkpt lat="46.0157141" lon="10.8670443"><ele>487.0</ele><time>2026-05-03T13:54:04.051Z</time></trkpt><trkpt lat="46.0155897" lon="10.8671099"><ele>487.0</ele><time>2026-05-03T13:54:05.052Z</time></trkpt><trkpt lat="46.0154664" lon="10.8671764"><ele>487.0</ele><time>2026-05-03T13:54:06.051Z</time></trkpt><trkpt lat="46.0153418" lon="10.8672302"><ele>487.0</ele><time>2026-05-03T13:54:07.052Z</time></trkpt><trkpt lat="46.0152172" lon="10.8672669"><ele>487.0</ele><time>2026-05-03T13:54:08.052Z</time></trkpt><trkpt lat="46.0150978" lon="10.8672995"><ele>487.40000000000003</ele><time>2026-05-03T13:54:09.052Z</time></trkpt><trkpt lat="46.0149797" lon="10.8673238"><ele>487.80000000000007</ele><time>2026-05-03T13:54:10.052Z</time></trkpt><trkpt lat="46.0148725" lon="10.8673326"><ele>488.2</ele><time>2026-05-03T13:54:11.051Z</time></trkpt><trkpt lat="46.0147702" lon="10.8673307"><ele>488.6</ele><time>2026-05-03T13:54:12.052Z</time></trkpt><trkpt lat="46.0146756" lon="10.8673295"><ele>489.0</ele><time>2026-05-03T13:54:13.052Z</time></trkpt><trkpt lat="46.0145819" lon="10.8673266"><ele>489.0</ele><time>2026-05-03T13:54:14.052Z</time></trkpt><trkpt lat="46.0144868" lon="10.8673272"><ele>489.0</ele><time>2026-05-03T13:54:15.052Z</time></trkpt><trkpt lat="46.0143889" lon="10.8673348"><ele>489.0</ele><time>2026-05-03T13:54:16.052Z</time></trkpt><trkpt lat="46.014287" lon="10.8673583"><ele>489.0</ele><time>2026-05-03T13:54:17.051Z</time></trkpt><trkpt lat="46.0141897" lon="10.8673959"><ele>489.0</ele><time>2026-05-03T13:54:18.051Z</time></trkpt><trkpt lat="46.0140894" lon="10.8674369"><ele>488.6</ele><time>2026-05-03T13:54:19.052Z</time></trkpt><trkpt lat="46.013992" lon="10.8674939"><ele>488.2</ele><time>2026-05-03T13:54:20.051Z</time></trkpt><trkpt lat="46.0138952" lon="10.8675558"><ele>487.80000000000007</ele><time>2026-05-03T13:54:21.052Z</time></trkpt><trkpt lat="46.0138049" lon="10.8676213"><ele>487.40000000000003</ele><time>2026-05-03T13:54:22.052Z</time></trkpt><trkpt lat="46.0137123" lon="10.8676765"><ele>487.0</ele><time>2026-05-03T13:54:23.051Z</time></trkpt><trkpt lat="46.0136242" lon="10.8677398"><ele>486.40000000000003</ele><time>2026-05-03T13:54:24.052Z</time></trkpt><trkpt lat="46.0135364" lon="10.8677987"><ele>485.80000000000007</ele><time>2026-05-03T13:54:25.052Z</time></trkpt><trkpt lat="46.0134427" lon="10.867855"><ele>485.2</ele><time>2026-05-03T13:54:26.052Z</time></trkpt><trkpt lat="46.0133485" lon="10.8678818"><ele>484.6</ele><time>2026-05-03T13:54:27.052Z</time></trkpt><trkpt lat="46.0132572" lon="10.8678833"><ele>484.0</ele><time>2026-05-03T13:54:28.051Z</time></trkpt><trkpt lat="46.0131789" lon="10.8678377"><ele>483.79999999999995</ele><time>2026-05-03T13:54:29.052Z</time></trkpt><trkpt lat="46.0131219" lon="10.8677606"><ele>483.59999999999997</ele><time>2026-05-03T13:54:30.051Z</time></trkpt><trkpt lat="46.0130657" lon="10.8676464"><ele>483.4</ele><time>2026-05-03T13:54:31.052Z</time></trkpt><trkpt lat="46.0130309" lon="10.8675231"><ele>483.2</ele><time>2026-05-03T13:54:32.051Z</time></trkpt><trkpt lat="46.0130008" lon="10.867396"><ele>483.0</ele><time>2026-05-03T13:54:33.052Z</time></trkpt><trkpt lat="46.0129716" lon="10.8672602"><ele>483.79999999999995</ele><time>2026-05-03T13:54:34.052Z</time></trkpt><trkpt lat="46.012935" lon="10.8671165"><ele>484.59999999999997</ele><time>2026-05-03T13:54:35.051Z</time></trkpt><trkpt lat="46.0128944" lon="10.8669734"><ele>485.40000000000003</ele><time>2026-05-03T13:54:36.052Z</time></trkpt><trkpt lat="46.0128552" lon="10.8668241"><ele>486.20000000000005</ele><time>2026-05-03T13:54:37.052Z</time></trkpt><trkpt lat="46.0128165" lon="10.8666717"><ele>487.0</ele><time>2026-05-03T13:54:38.052Z</time></trkpt><trkpt lat="46.012777" lon="10.8665152"><ele>487.0</ele><time>2026-05-03T13:54:39.052Z</time></trkpt><trkpt lat="46.0127295" lon="10.8663574"><ele>487.0</ele><time>2026-05-03T13:54:40.052Z</time></trkpt><trkpt lat="46.0126815" lon="10.8661951"><ele>487.0</ele><time>2026-05-03T13:54:41.052Z</time></trkpt><trkpt lat="46.0126247" lon="10.8660292"><ele>487.0</ele><time>2026-05-03T13:54:42.051Z</time></trkpt><trkpt lat="46.0125628" lon="10.8658665"><ele>487.0</ele><time>2026-05-03T13:54:43.052Z</time></trkpt><trkpt lat="46.012502" lon="10.8657032"><ele>487.0</ele><time>2026-05-03T13:54:44.052Z</time></trkpt><trkpt lat="46.0124389" lon="10.8655408"><ele>487.0</ele><time>2026-05-03T13:54:45.052Z</time></trkpt><trkpt lat="46.0123726" lon="10.8653797"><ele>487.0</ele><time>2026-05-03T13:54:46.052Z</time></trkpt><trkpt lat="46.0123029" lon="10.8652201"><ele>488.0</ele><time>2026-05-03T13:54:47.051Z</time></trkpt><trkpt lat="46.0122245" lon="10.8650639"><ele>489.0</ele><time>2026-05-03T13:54:48.052Z</time></trkpt><trkpt lat="46.012141" lon="10.8649147"><ele>490.0</ele><time>2026-05-03T13:54:49.052Z</time></trkpt><trkpt lat="46.0120516" lon="10.8647754"><ele>491.0</ele><time>2026-05-03T13:54:50.052Z</time></trkpt><trkpt lat="46.0119617" lon="10.864641"><ele>491.0</ele><time>2026-05-03T13:54:51.052Z</time></trkpt><trkpt lat="46.0118683" lon="10.8645119"><ele>491.0</ele><time>2026-05-03T13:54:52.051Z</time></trkpt><trkpt lat="46.0117831" lon="10.8643755"><ele>491.0</ele><time>2026-05-03T13:54:53.052Z</time></trkpt><trkpt lat="46.0117111" lon="10.8642232"><ele>491.0</ele><time>2026-05-03T13:54:54.052Z</time></trkpt><trkpt lat="46.0116567" lon="10.8640523"><ele>491.75</ele><time>2026-05-03T13:54:55.052Z</time></trkpt><trkpt lat="46.0116243" lon="10.8638829"><ele>492.5</ele><time>2026-05-03T13:54:56.052Z</time></trkpt><trkpt lat="46.0116062" lon="10.8637175"><ele>493.25</ele><time>2026-05-03T13:54:57.052Z</time></trkpt><trkpt lat="46.0115941" lon="10.8635572"><ele>494.0</ele><time>2026-05-03T13:54:58.051Z</time></trkpt><trkpt lat="46.0115751" lon="10.8633904"><ele>495.0</ele><time>2026-05-03T13:54:59.051Z</time></trkpt><trkpt lat="46.0115554" lon="10.8632274"><ele>496.0</ele><time>2026-05-03T13:55:00.052Z</time></trkpt><trkpt lat="46.0115316" lon="10.8630595"><ele>497.0</ele><time>2026-05-03T13:55:01.052Z</time></trkpt><trkpt lat="46.0115132" lon="10.8628905"><ele>498.0</ele><time>2026-05-03T13:55:02.052Z</time></trkpt><trkpt lat="46.0114937" lon="10.8627194"><ele>498.25</ele><time>2026-05-03T13:55:03.052Z</time></trkpt><trkpt lat="46.0114676" lon="10.8625584"><ele>498.5</ele><time>2026-05-03T13:55:04.052Z</time></trkpt><trkpt lat="46.0114451" lon="10.8623871"><ele>498.75</ele><time>2026-05-03T13:55:05.051Z</time></trkpt><trkpt lat="46.0114243" lon="10.8622221"><ele>499.0</ele><time>2026-05-03T13:55:06.051Z</time></trkpt><trkpt lat="46.011407" lon="10.8620473"><ele>499.0</ele><time>2026-05-03T13:55:07.051Z</time></trkpt><trkpt lat="46.0113914" lon="10.861876"><ele>499.0</ele><time>2026-05-03T13:55:08.052Z</time></trkpt><trkpt lat="46.011373" lon="10.8617134"><ele>499.0</ele><time>2026-05-03T13:55:09.051Z</time></trkpt><trkpt lat="46.0113623" lon="10.8615595"><ele>499.0</ele><time>2026-05-03T13:55:10.051Z</time></trkpt><trkpt lat="46.0113718" lon="10.8614123"><ele>499.0</ele><time>2026-05-03T13:55:11.052Z</time></trkpt><trkpt lat="46.0114028" lon="10.8612696"><ele>499.4</ele><time>2026-05-03T13:55:12.052Z</time></trkpt><trkpt lat="46.0114469" lon="10.8611283"><ele>499.79999999999995</ele><time>2026-05-03T13:55:13.052Z</time></trkpt><trkpt lat="46.0115012" lon="10.8609918"><ele>500.20000000000005</ele><time>2026-05-03T13:55:14.052Z</time></trkpt><trkpt lat="46.0115631" lon="10.8608662"><ele>500.6</ele><time>2026-05-03T13:55:15.051Z</time></trkpt><trkpt lat="46.0116261" lon="10.8607417"><ele>501.0</ele><time>2026-05-03T13:55:16.052Z</time></trkpt><trkpt lat="46.0116802" lon="10.860629"><ele>501.6</ele><time>2026-05-03T13:55:17.052Z</time></trkpt><trkpt lat="46.0117467" lon="10.8605156"><ele>502.20000000000005</ele><time>2026-05-03T13:55:18.052Z</time></trkpt><trkpt lat="46.0118282" lon="10.8604118"><ele>502.79999999999995</ele><time>2026-05-03T13:55:19.051Z</time></trkpt><trkpt lat="46.01192" lon="10.8603236"><ele>503.4</ele><time>2026-05-03T13:55:20.052Z</time></trkpt><trkpt lat="46.0120101" lon="10.8602482"><ele>504.0</ele><time>2026-05-03T13:55:21.052Z</time></trkpt><trkpt lat="46.0121001" lon="10.8601751"><ele>506.0</ele><time>2026-05-03T13:55:22.052Z</time></trkpt><trkpt lat="46.0121964" lon="10.8600952"><ele>508.0</ele><time>2026-05-03T13:55:23.052Z</time></trkpt><trkpt lat="46.0122928" lon="10.8600066"><ele>510.0</ele><time>2026-05-03T13:55:24.052Z</time></trkpt><trkpt lat="46.0123842" lon="10.8598936"><ele>512.0</ele><time>2026-05-03T13:55:25.052Z</time></trkpt><trkpt lat="46.0124624" lon="10.8597689"><ele>512.25</ele><time>2026-05-03T13:55:26.051Z</time></trkpt><trkpt lat="46.0125316" lon="10.8596153"><ele>512.5</ele><time>2026-05-03T13:55:27.051Z</time></trkpt><trkpt lat="46.0125958" lon="10.859458"><ele>512.75</ele><time>2026-05-03T13:55:28.051Z</time></trkpt><trkpt lat="46.0126652" lon="10.859296"><ele>513.0</ele><time>2026-05-03T13:55:29.051Z</time></trkpt><trkpt lat="46.012733" lon="10.8591262"><ele>513.0</ele><time>2026-05-03T13:55:30.052Z</time></trkpt><trkpt lat="46.012804" lon="10.8589537"><ele>513.0</ele><time>2026-05-03T13:55:31.052Z</time></trkpt><trkpt lat="46.0128747" lon="10.8587854"><ele>513.0</ele><time>2026-05-03T13:55:32.051Z</time></trkpt><trkpt lat="46.0129462" lon="10.8586163"><ele>513.0</ele><time>2026-05-03T13:55:33.052Z</time></trkpt><trkpt lat="46.0130196" lon="10.8584462"><ele>511.75</ele><time>2026-05-03T13:55:34.051Z</time></trkpt><trkpt lat="46.0130964" lon="10.8582697"><ele>510.5</ele><time>2026-05-03T13:55:35.052Z</time></trkpt><trkpt lat="46.0131747" lon="10.8580875"><ele>509.25</ele><time>2026-05-03T13:55:36.052Z</time></trkpt><trkpt lat="46.0132564" lon="10.8579021"><ele>508.0</ele><time>2026-05-03T13:55:37.052Z</time></trkpt><trkpt lat="46.0133386" lon="10.8577172"><ele>511.6666666666667</ele><time>2026-05-03T13:55:38.052Z</time></trkpt><trkpt lat="46.0134227" lon="10.85753"><ele>515.3333333333334</ele><time>2026-05-03T13:55:39.051Z</time></trkpt><trkpt lat="46.0135062" lon="10.8573441"><ele>519.0</ele><time>2026-05-03T13:55:40.052Z</time></trkpt><trkpt lat="46.0135879" lon="10.8571564"><ele>519.0</ele><time>2026-05-03T13:55:41.052Z</time></trkpt><trkpt lat="46.0136689" lon="10.8569686"><ele>519.0</ele><time>2026-05-03T13:55:42.051Z</time></trkpt><trkpt lat="46.0137453" lon="10.8567837"><ele>519.0</ele><time>2026-05-03T13:55:43.052Z</time></trkpt><trkpt lat="46.0138283" lon="10.8565945"><ele>521.6666666666666</ele><time>2026-05-03T13:55:44.052Z</time></trkpt><trkpt lat="46.0139111" lon="10.8564085"><ele>524.3333333333333</ele><time>2026-05-03T13:55:45.051Z</time></trkpt><trkpt lat="46.0139931" lon="10.8562242"><ele>527.0</ele><time>2026-05-03T13:55:46.051Z</time></trkpt><trkpt lat="46.0140714" lon="10.8560486"><ele>526.75</ele><time>2026-05-03T13:55:47.051Z</time></trkpt><trkpt lat="46.0141524" lon="10.8558628"><ele>526.5</ele><time>2026-05-03T13:55:48.051Z</time></trkpt><trkpt lat="46.0142289" lon="10.8556852"><ele>526.25</ele><time>2026-05-03T13:55:49.052Z</time></trkpt><trkpt lat="46.014298" lon="10.8555268"><ele>526.0</ele><time>2026-05-03T13:55:50.052Z</time></trkpt><trkpt lat="46.0143592" lon="10.8553817"><ele>526.0</ele><time>2026-05-03T13:55:51.052Z</time></trkpt><trkpt lat="46.0144011" lon="10.8552487"><ele>526.0</ele><time>2026-05-03T13:55:52.052Z</time></trkpt><trkpt lat="46.0144009" lon="10.8551287"><ele>526.0</ele><time>2026-05-03T13:55:53.052Z</time></trkpt><trkpt lat="46.0143755" lon="10.8550312"><ele>526.0</ele><time>2026-05-03T13:55:54.052Z</time></trkpt><trkpt lat="46.0143216" lon="10.8549509"><ele>526.0</ele><time>2026-05-03T13:55:55.052Z</time></trkpt><trkpt lat="46.0142487" lon="10.8549025"><ele>526.0</ele><time>2026-05-03T13:55:56.052Z</time></trkpt><trkpt lat="46.0141537" lon="10.8549004"><ele>529.2</ele><time>2026-05-03T13:55:57.051Z</time></trkpt><trkpt lat="46.014068" lon="10.8549165"><ele>532.4000000000001</ele><time>2026-05-03T13:55:58.051Z</time></trkpt><trkpt lat="46.0139699" lon="10.8549584"><ele>535.6</ele><time>2026-05-03T13:55:59.051Z</time></trkpt><trkpt lat="46.0138611" lon="10.8550025"><ele>538.8000000000001</ele><time>2026-05-03T13:56:00.052Z</time></trkpt><trkpt lat="46.0137497" lon="10.8550461"><ele>542.0</ele><time>2026-05-03T13:56:01.05Z</time></trkpt><trkpt lat="46.0136317" lon="10.8550963"><ele>542.0</ele><time>2026-05-03T13:56:02.051Z</time></trkpt><trkpt lat="46.0135076" lon="10.8551507"><ele>542.0</ele><time>2026-05-03T13:56:03.051Z</time></trkpt><trkpt lat="46.0133802" lon="10.8551974"><ele>542.0</ele><time>2026-05-03T13:56:04.05Z</time></trkpt><trkpt lat="46.0132555" lon="10.8552285"><ele>542.0</ele><time>2026-05-03T13:56:05.051Z</time></trkpt><trkpt lat="46.0131308" lon="10.8552495"><ele>542.0</ele><time>2026-05-03T13:56:06.051Z</time></trkpt><trkpt lat="46.0129982" lon="10.855254"><ele>542.0</ele><time>2026-05-03T13:56:07.05Z</time></trkpt><trkpt lat="46.0128671" lon="10.8552598"><ele>542.0</ele><time>2026-05-03T13:56:08.05Z</time></trkpt><trkpt lat="46.0127309" lon="10.8552629"><ele>542.0</ele><time>2026-05-03T13:56:09.05Z</time></trkpt><trkpt lat="46.0125882" lon="10.8552666"><ele>544.0</ele><time>2026-05-03T13:56:10.05Z</time></trkpt><trkpt lat="46.0124459" lon="10.8552625"><ele>546.0</ele><time>2026-05-03T13:56:11.051Z</time></trkpt><trkpt lat="46.0123014" lon="10.8552617"><ele>548.0</ele><time>2026-05-03T13:56:12.051Z</time></trkpt><trkpt lat="46.0121573" lon="10.8552646"><ele>550.0</ele><time>2026-05-03T13:56:13.051Z</time></trkpt><trkpt lat="46.0120121" lon="10.8552665"><ele>550.0</ele><time>2026-05-03T13:56:14.05Z</time></trkpt><trkpt lat="46.0118748" lon="10.8552644"><ele>550.0</ele><time>2026-05-03T13:56:15.05Z</time></trkpt><trkpt lat="46.0117468" lon="10.8552636"><ele>550.0</ele><time>2026-05-03T13:56:16.05Z</time></trkpt><trkpt lat="46.0116309" lon="10.8552599"><ele>550.0</ele><time>2026-05-03T13:56:17.05Z</time></trkpt><trkpt lat="46.0115212" lon="10.8552601"><ele>551.1666666666667</ele><time>2026-05-03T13:56:18.051Z</time></trkpt><trkpt lat="46.0114129" lon="10.855259"><ele>552.3333333333334</ele><time>2026-05-03T13:56:19.051Z</time></trkpt><trkpt lat="46.0113211" lon="10.8552456"><ele>553.5</ele><time>2026-05-03T13:56:20.051Z</time></trkpt><trkpt lat="46.011242" lon="10.8552092"><ele>554.6666666666666</ele><time>2026-05-03T13:56:21.05Z</time></trkpt><trkpt lat="46.0111781" lon="10.8551321"><ele>555.8333333333333</ele><time>2026-05-03T13:56:22.051Z</time></trkpt><trkpt lat="46.0111443" lon="10.8550277"><ele>557.0</ele><time>2026-05-03T13:56:23.051Z</time></trkpt><trkpt lat="46.0111316" lon="10.8548889"><ele>558.4</ele><time>2026-05-03T13:56:24.051Z</time></trkpt><trkpt lat="46.0111407" lon="10.8547433"><ele>559.8000000000001</ele><time>2026-05-03T13:56:25.05Z</time></trkpt><trkpt lat="46.0111545" lon="10.8545922"><ele>561.2</ele><time>2026-05-03T13:56:26.051Z</time></trkpt><trkpt lat="46.0111565" lon="10.8544363"><ele>562.6</ele><time>2026-05-03T13:56:27.051Z</time></trkpt><trkpt lat="46.0111315" lon="10.854289"><ele>564.0</ele><time>2026-05-03T13:56:28.05Z</time></trkpt><trkpt lat="46.01109" lon="10.8541464"><ele>564.25</ele><time>2026-05-03T13:56:29.051Z</time></trkpt><trkpt lat="46.0110203" lon="10.8540143"><ele>564.5</ele><time>2026-05-03T13:56:30.051Z</time></trkpt><trkpt lat="46.0109315" lon="10.8538891"><ele>564.75</ele><time>2026-05-03T13:56:31.051Z</time></trkpt><trkpt lat="46.0108329" lon="10.8537525"><ele>565.0</ele><time>2026-05-03T13:56:32.051Z</time></trkpt><trkpt lat="46.0107291" lon="10.8536279"><ele>566.5</ele><time>2026-05-03T13:56:33.05Z</time></trkpt><trkpt lat="46.0106292" lon="10.8535023"><ele>568.0</ele><time>2026-05-03T13:56:34.051Z</time></trkpt><trkpt lat="46.0105259" lon="10.8533713"><ele>569.5</ele><time>2026-05-03T13:56:35.05Z</time></trkpt><trkpt lat="46.0104293" lon="10.8532407"><ele>571.0</ele><time>2026-05-03T13:56:36.051Z</time></trkpt><trkpt lat="46.0103249" lon="10.8531099"><ele>571.75</ele><time>2026-05-03T13:56:37.051Z</time></trkpt><trkpt lat="46.0102197" lon="10.8529795"><ele>572.5</ele><time>2026-05-03T13:56:38.05Z</time></trkpt><trkpt lat="46.0101162" lon="10.8528445"><ele>573.25</ele><time>2026-05-03T13:56:39.051Z</time></trkpt><trkpt lat="46.0100129" lon="10.8527161"><ele>574.0</ele><time>2026-05-03T13:56:40.051Z</time></trkpt><trkpt lat="46.0099125" lon="10.8525856"><ele>575.75</ele><time>2026-05-03T13:56:41.05Z</time></trkpt><trkpt lat="46.0098089" lon="10.852463"><ele>577.5</ele><time>2026-05-03T13:56:42.051Z</time></trkpt><trkpt lat="46.0097069" lon="10.8523579"><ele>579.25</ele><time>2026-05-03T13:56:43.05Z</time></trkpt><trkpt lat="46.0096037" lon="10.8522625"><ele>581.0</ele><time>2026-05-03T13:56:44.051Z</time></trkpt><trkpt lat="46.0094964" lon="10.8521712"><ele>581.0</ele><time>2026-05-03T13:56:45.05Z</time></trkpt><trkpt lat="46.0093836" lon="10.8520883"><ele>581.0</ele><time>2026-05-03T13:56:46.05Z</time></trkpt><trkpt lat="46.0092735" lon="10.8520116"><ele>581.0</ele><time>2026-05-03T13:56:47.051Z</time></trkpt><trkpt lat="46.0091663" lon="10.8519256"><ele>581.0</ele><time>2026-05-03T13:56:48.051Z</time></trkpt><trkpt lat="46.0090584" lon="10.8518391"><ele>583.0</ele><time>2026-05-03T13:56:49.05Z</time></trkpt><trkpt lat="46.0089508" lon="10.8517609"><ele>585.0</ele><time>2026-05-03T13:56:50.051Z</time></trkpt><trkpt lat="46.0088442" lon="10.8516846"><ele>587.0</ele><time>2026-05-03T13:56:51.051Z</time></trkpt><trkpt lat="46.0087365" lon="10.8516041"><ele>589.0</ele><time>2026-05-03T13:56:52.051Z</time></trkpt><trkpt lat="46.0086258" lon="10.8515249"><ele>589.0</ele><time>2026-05-03T13:56:53.051Z</time></trkpt><trkpt lat="46.0085207" lon="10.8514501"><ele>589.0</ele><time>2026-05-03T13:56:54.051Z</time></trkpt><trkpt lat="46.0084126" lon="10.8513771"><ele>589.0</ele><time>2026-05-03T13:56:55.051Z</time></trkpt><trkpt lat="46.0083114" lon="10.8513003"><ele>589.0</ele><time>2026-05-03T13:56:56.05Z</time></trkpt><trkpt lat="46.0082171" lon="10.8512223"><ele>590.0</ele><time>2026-05-03T13:56:57.051Z</time></trkpt><trkpt lat="46.008141" lon="10.8511444"><ele>591.0</ele><time>2026-05-03T13:56:58.05Z</time></trkpt><trkpt lat="46.0080845" lon="10.8510581"><ele>592.0</ele><time>2026-05-03T13:56:59.051Z</time></trkpt><trkpt lat="46.0080516" lon="10.8509462"><ele>593.0</ele><time>2026-05-03T13:57:00.051Z</time></trkpt><trkpt lat="46.0080388" lon="10.8508267"><ele>594.0</ele><time>2026-05-03T13:57:01.051Z</time></trkpt><trkpt lat="46.0080367" lon="10.850699"><ele>595.0</ele><time>2026-05-03T13:57:02.051Z</time></trkpt><trkpt lat="46.0080532" lon="10.850568"><ele>595.6666666666667</ele><time>2026-05-03T13:57:03.051Z</time></trkpt><trkpt lat="46.0080804" lon="10.8504421"><ele>596.3333333333334</ele><time>2026-05-03T13:57:04.051Z</time></trkpt><trkpt lat="46.0081141" lon="10.8503312"><ele>597.0</ele><time>2026-05-03T13:57:05.051Z</time></trkpt><trkpt lat="46.0081469" lon="10.8502261"><ele>597.6666666666666</ele><time>2026-05-03T13:57:06.051Z</time></trkpt><trkpt lat="46.0081779" lon="10.8501239"><ele>598.3333333333333</ele><time>2026-05-03T13:57:07.051Z</time></trkpt><trkpt lat="46.0081997" lon="10.8500345"><ele>599.0</ele><time>2026-05-03T13:57:08.051Z</time></trkpt><trkpt lat="46.0082093" lon="10.8499425"><ele>599.8333333333333</ele><time>2026-05-03T13:57:09.05Z</time></trkpt><trkpt lat="46.0081912" lon="10.8498371"><ele>600.6666666666666</ele><time>2026-05-03T13:57:10.051Z</time></trkpt><trkpt lat="46.0081576" lon="10.8497421"><ele>601.5</ele><time>2026-05-03T13:57:11.05Z</time></trkpt><trkpt lat="46.0081026" lon="10.8496443"><ele>602.3333333333334</ele><time>2026-05-03T13:57:12.051Z</time></trkpt><trkpt lat="46.0080457" lon="10.8495524"><ele>603.1666666666667</ele><time>2026-05-03T13:57:13.051Z</time></trkpt><trkpt lat="46.0079834" lon="10.8494651"><ele>604.0</ele><time>2026-05-03T13:57:14.051Z</time></trkpt><trkpt lat="46.0079134" lon="10.8493887"><ele>604.0</ele><time>2026-05-03T13:57:15.05Z</time></trkpt><trkpt lat="46.0078358" lon="10.8493251"><ele>604.0</ele><time>2026-05-03T13:57:16.05Z</time></trkpt><trkpt lat="46.007743" lon="10.8492814"><ele>604.0</ele><time>2026-05-03T13:57:17.051Z</time></trkpt><trkpt lat="46.0076391" lon="10.8492606"><ele>604.0</ele><time>2026-05-03T13:57:18.051Z</time></trkpt><trkpt lat="46.0075284" lon="10.8492413"><ele>604.0</ele><time>2026-05-03T13:57:19.05Z</time></trkpt><trkpt lat="46.0074165" lon="10.8492085"><ele>606.5</ele><time>2026-05-03T13:57:20.051Z</time></trkpt><trkpt lat="46.0073069" lon="10.8491683"><ele>609.0</ele><time>2026-05-03T13:57:21.051Z</time></trkpt><trkpt lat="46.0071916" lon="10.8491108"><ele>611.5</ele><time>2026-05-03T13:57:22.051Z</time></trkpt><trkpt lat="46.0070835" lon="10.8490615"><ele>614.0</ele><time>2026-05-03T13:57:23.051Z</time></trkpt><trkpt lat="46.0069772" lon="10.8490036"><ele>614.0</ele><time>2026-05-03T13:57:24.051Z</time></trkpt><trkpt lat="46.0068738" lon="10.8489476"><ele>614.0</ele><time>2026-05-03T13:57:25.051Z</time></trkpt><trkpt lat="46.0067651" lon="10.8488874"><ele>614.0</ele><time>2026-05-03T13:57:26.05Z</time></trkpt><trkpt lat="46.0066551" lon="10.8488395"><ele>614.0</ele><time>2026-05-03T13:57:27.05Z</time></trkpt><trkpt lat="46.0065449" lon="10.8487872"><ele>614.0</ele><time>2026-05-03T13:57:28.051Z</time></trkpt><trkpt lat="46.0064366" lon="10.8487337"><ele>614.0</ele><time>2026-05-03T13:57:29.05Z</time></trkpt><trkpt lat="46.006325" lon="10.8486739"><ele>614.0</ele><time>2026-05-03T13:57:30.051Z</time></trkpt><trkpt lat="46.0062113" lon="10.8486151"><ele>614.0</ele><time>2026-05-03T13:57:31.051Z</time></trkpt><trkpt lat="46.0061018" lon="10.8485528"><ele>614.0</ele><time>2026-05-03T13:57:32.051Z</time></trkpt><trkpt lat="46.0059849" lon="10.8484968"><ele>614.0</ele><time>2026-05-03T13:57:33.051Z</time></trkpt><trkpt lat="46.0058705" lon="10.8484452"><ele>614.0</ele><time>2026-05-03T13:57:34.05Z</time></trkpt><trkpt lat="46.0057537" lon="10.8483953"><ele>614.0</ele><time>2026-05-03T13:57:35.051Z</time></trkpt><trkpt lat="46.0056379" lon="10.8483381"><ele>615.25</ele><time>2026-05-03T13:57:36.051Z</time></trkpt><trkpt lat="46.0055208" lon="10.8482795"><ele>616.5</ele><time>2026-05-03T13:57:37.05Z</time></trkpt><trkpt lat="46.005402" lon="10.8482224"><ele>617.75</ele><time>2026-05-03T13:57:38.05Z</time></trkpt><trkpt lat="46.0052841" lon="10.8481616"><ele>619.0</ele><time>2026-05-03T13:57:39.05Z</time></trkpt><trkpt lat="46.0051627" lon="10.8480976"><ele>619.0</ele><time>2026-05-03T13:57:40.05Z</time></trkpt><trkpt lat="46.0050396" lon="10.8480377"><ele>619.0</ele><time>2026-05-03T13:57:41.051Z</time></trkpt><trkpt lat="46.0049176" lon="10.8479815"><ele>619.0</ele><time>2026-05-03T13:57:42.051Z</time></trkpt><trkpt lat="46.0047969" lon="10.8479266"><ele>619.0</ele><time>2026-05-03T13:57:43.05Z</time></trkpt><trkpt lat="46.0046717" lon="10.8478613"><ele>619.0</ele><time>2026-05-03T13:57:44.05Z</time></trkpt><trkpt lat="46.0045454" lon="10.8478018"><ele>619.0</ele><time>2026-05-03T13:57:45.051Z</time></trkpt><trkpt lat="46.0044183" lon="10.8477341"><ele>619.0</ele><time>2026-05-03T13:57:46.05Z</time></trkpt><trkpt lat="46.0042874" lon="10.8476633"><ele>619.0</ele><time>2026-05-03T13:57:47.051Z</time></trkpt><trkpt lat="46.0041514" lon="10.8475874"><ele>621.5</ele><time>2026-05-03T13:57:48.051Z</time></trkpt><trkpt lat="46.0040156" lon="10.8475104"><ele>624.0</ele><time>2026-05-03T13:57:49.05Z</time></trkpt><trkpt lat="46.0038812" lon="10.8474283"><ele>626.5</ele><time>2026-05-03T13:57:50.051Z</time></trkpt><trkpt lat="46.0037457" lon="10.8473443"><ele>629.0</ele><time>2026-05-03T13:57:51.051Z</time></trkpt><trkpt lat="46.003617" lon="10.8472599"><ele>629.0</ele><time>2026-05-03T13:57:52.051Z</time></trkpt><trkpt lat="46.003481" lon="10.8471765"><ele>629.0</ele><time>2026-05-03T13:57:53.051Z</time></trkpt><trkpt lat="46.0033491" lon="10.8471021"><ele>629.0</ele><time>2026-05-03T13:57:54.05Z</time></trkpt><trkpt lat="46.0032196" lon="10.8470286"><ele>629.0</ele><time>2026-05-03T13:57:55.051Z</time></trkpt><trkpt lat="46.0030939" lon="10.846953"><ele>629.5</ele><time>2026-05-03T13:57:56.05Z</time></trkpt><trkpt lat="46.002969" lon="10.8468827"><ele>630.0</ele><time>2026-05-03T13:57:57.051Z</time></trkpt><trkpt lat="46.0028452" lon="10.8468103"><ele>630.5</ele><time>2026-05-03T13:57:58.051Z</time></trkpt><trkpt lat="46.0027218" lon="10.8467376"><ele>631.0</ele><time>2026-05-03T13:57:59.051Z</time></trkpt><trkpt lat="46.0025958" lon="10.8466654"><ele>632.5</ele><time>2026-05-03T13:58:00.05Z</time></trkpt><trkpt lat="46.00247" lon="10.8465933"><ele>634.0</ele><time>2026-05-03T13:58:01.05Z</time></trkpt><trkpt lat="46.0023449" lon="10.846521"><ele>635.5</ele><time>2026-05-03T13:58:02.051Z</time></trkpt><trkpt lat="46.0022167" lon="10.8464487"><ele>637.0</ele><time>2026-05-03T13:58:03.05Z</time></trkpt><trkpt lat="46.0020888" lon="10.846377"><ele>637.0</ele><time>2026-05-03T13:58:04.051Z</time></trkpt><trkpt lat="46.0019632" lon="10.846305"><ele>637.0</ele><time>2026-05-03T13:58:05.051Z</time></trkpt><trkpt lat="46.0018336" lon="10.8462337"><ele>637.0</ele><time>2026-05-03T13:58:06.051Z</time></trkpt><trkpt lat="46.0017101" lon="10.8461586"><ele>637.0</ele><time>2026-05-03T13:58:07.051Z</time></trkpt><trkpt lat="46.0015792" lon="10.846084"><ele>636.25</ele><time>2026-05-03T13:58:08.051Z</time></trkpt><trkpt lat="46.0014502" lon="10.8460077"><ele>635.5</ele><time>2026-05-03T13:58:09.051Z</time></trkpt><trkpt lat="46.0013216" lon="10.8459294"><ele>634.75</ele><time>2026-05-03T13:58:10.051Z</time></trkpt><trkpt lat="46.0011927" lon="10.8458521"><ele>634.0</ele><time>2026-05-03T13:58:11.051Z</time></trkpt><trkpt lat="46.0010619" lon="10.8457762"><ele>635.25</ele><time>2026-05-03T13:58:12.051Z</time></trkpt><trkpt lat="46.0009257" lon="10.8456976"><ele>636.5</ele><time>2026-05-03T13:58:13.05Z</time></trkpt><trkpt lat="46.0007891" lon="10.8456199"><ele>637.75</ele><time>2026-05-03T13:58:14.05Z</time></trkpt><trkpt lat="46.0006537" lon="10.8455406"><ele>639.0</ele><time>2026-05-03T13:58:15.05Z</time></trkpt><trkpt lat="46.0005192" lon="10.8454637"><ele>639.0</ele><time>2026-05-03T13:58:16.05Z</time></trkpt><trkpt lat="46.0003831" lon="10.8453836"><ele>639.0</ele><time>2026-05-03T13:58:17.05Z</time></trkpt><trkpt lat="46.0002448" lon="10.8453093"><ele>639.0</ele><time>2026-05-03T13:58:18.051Z</time></trkpt><trkpt lat="46.0001067" lon="10.8452354"><ele>639.0</ele><time>2026-05-03T13:58:19.05Z</time></trkpt><trkpt lat="45.9999722" lon="10.8451578"><ele>642.0</ele><time>2026-05-03T13:58:20.051Z</time></trkpt><trkpt lat="45.9998343" lon="10.8450755"><ele>645.0</ele><time>2026-05-03T13:58:21.051Z</time></trkpt><trkpt lat="45.9996967" lon="10.8449965"><ele>648.0</ele><time>2026-05-03T13:58:22.051Z</time></trkpt><trkpt lat="45.9995586" lon="10.8449097"><ele>651.0</ele><time>2026-05-03T13:58:23.051Z</time></trkpt><trkpt lat="45.9994258" lon="10.8448089"><ele>651.0</ele><time>2026-05-03T13:58:24.05Z</time></trkpt><trkpt lat="45.9992933" lon="10.8447009"><ele>651.0</ele><time>2026-05-03T13:58:25.051Z</time></trkpt><trkpt lat="45.9991572" lon="10.8445889"><ele>651.0</ele><time>2026-05-03T13:58:26.05Z</time></trkpt><trkpt lat="45.9990226" lon="10.8444821"><ele>650.3333333333334</ele><time>2026-05-03T13:58:27.051Z</time></trkpt><trkpt lat="45.9988839" lon="10.8443819"><ele>649.6666666666667</ele><time>2026-05-03T13:58:28.051Z</time></trkpt><trkpt lat="45.9987461" lon="10.8442822"><ele>649.0</ele><time>2026-05-03T13:58:29.05Z</time></trkpt><trkpt lat="45.998613" lon="10.8441679"><ele>649.3333333333334</ele><time>2026-05-03T13:58:30.051Z</time></trkpt><trkpt lat="45.9984841" lon="10.8440427"><ele>649.6666666666666</ele><time>2026-05-03T13:58:31.051Z</time></trkpt><trkpt lat="45.9983539" lon="10.8439327"><ele>650.0</ele><time>2026-05-03T13:58:32.05Z</time></trkpt><trkpt lat="45.9982268" lon="10.843826"><ele>650.0</ele><time>2026-05-03T13:58:33.051Z</time></trkpt><trkpt lat="45.9980978" lon="10.843717"><ele>650.0</ele><time>2026-05-03T13:58:34.051Z</time></trkpt><trkpt lat="45.9979713" lon="10.8436137"><ele>650.0</ele><time>2026-05-03T13:58:35.05Z</time></trkpt><trkpt lat="45.9978464" lon="10.8435141"><ele>650.0</ele><time>2026-05-03T13:58:36.051Z</time></trkpt><trkpt lat="45.9977191" lon="10.843411"><ele>650.75</ele><time>2026-05-03T13:58:37.05Z</time></trkpt><trkpt lat="45.9975915" lon="10.8433102"><ele>651.5</ele><time>2026-05-03T13:58:38.051Z</time></trkpt><trkpt lat="45.9974642" lon="10.8432143"><ele>652.25</ele><time>2026-05-03T13:58:39.051Z</time></trkpt><trkpt lat="45.9973384" lon="10.8431121"><ele>653.0</ele><time>2026-05-03T13:58:40.051Z</time></trkpt><trkpt lat="45.9972133" lon="10.843014"><ele>654.0</ele><time>2026-05-03T13:58:41.051Z</time></trkpt><trkpt lat="45.9970847" lon="10.8429241"><ele>655.0</ele><time>2026-05-03T13:58:42.051Z</time></trkpt><trkpt lat="45.9969622" lon="10.8428234"><ele>656.0</ele><time>2026-05-03T13:58:43.051Z</time></trkpt><trkpt lat="45.9968397" lon="10.8427225"><ele>657.0</ele><time>2026-05-03T13:58:44.05Z</time></trkpt><trkpt lat="45.9967271" lon="10.8426175"><ele>656.25</ele><time>2026-05-03T13:58:45.05Z</time></trkpt><trkpt lat="45.9966222" lon="10.8424998"><ele>655.5</ele><time>2026-05-03T13:58:46.05Z</time></trkpt><trkpt lat="45.9965303" lon="10.842363"><ele>654.75</ele><time>2026-05-03T13:58:47.05Z</time></trkpt><trkpt lat="45.9964587" lon="10.8422053"><ele>654.0</ele><time>2026-05-03T13:58:48.05Z</time></trkpt><trkpt lat="45.9964089" lon="10.8420358"><ele>654.0</ele><time>2026-05-03T13:58:49.051Z</time></trkpt><trkpt lat="45.9963759" lon="10.8418331"><ele>654.0</ele><time>2026-05-03T13:58:50.051Z</time></trkpt><trkpt lat="45.9963578" lon="10.8416335"><ele>654.0</ele><time>2026-05-03T13:58:51.05Z</time></trkpt><trkpt lat="45.9963458" lon="10.8414375"><ele>654.0</ele><time>2026-05-03T13:58:52.051Z</time></trkpt><trkpt lat="45.9963325" lon="10.8412394"><ele>654.25</ele><time>2026-05-03T13:58:53.051Z</time></trkpt><trkpt lat="45.9963163" lon="10.8410625"><ele>654.5</ele><time>2026-05-03T13:58:54.051Z</time></trkpt><trkpt lat="45.9962933" lon="10.8408967"><ele>654.75</ele><time>2026-05-03T13:58:55.051Z</time></trkpt><trkpt lat="45.9962539" lon="10.8407552"><ele>655.0</ele><time>2026-05-03T13:58:56.051Z</time></trkpt><trkpt lat="45.9961839" lon="10.8406273"><ele>654.25</ele><time>2026-05-03T13:58:57.051Z</time></trkpt><trkpt lat="45.9960972" lon="10.8405315"><ele>653.5</ele><time>2026-05-03T13:58:58.05Z</time></trkpt><trkpt lat="45.995985" lon="10.8404562"><ele>652.75</ele><time>2026-05-03T13:58:59.051Z</time></trkpt><trkpt lat="45.995851" lon="10.840402"><ele>652.0</ele><time>2026-05-03T13:59:00.051Z</time></trkpt><trkpt lat="45.995727" lon="10.8403626"><ele>651.5</ele><time>2026-05-03T13:59:01.05Z</time></trkpt><trkpt lat="45.9955938" lon="10.8403212"><ele>651.0</ele><time>2026-05-03T13:59:02.051Z</time></trkpt><trkpt lat="45.9954598" lon="10.8402785"><ele>650.5</ele><time>2026-05-03T13:59:03.051Z</time></trkpt><trkpt lat="45.9953236" lon="10.8402365"><ele>650.0</ele><time>2026-05-03T13:59:04.051Z</time></trkpt><trkpt lat="45.9951858" lon="10.8401926"><ele>650.0</ele><time>2026-05-03T13:59:05.051Z</time></trkpt><trkpt lat="45.9950463" lon="10.8401469"><ele>650.0</ele><time>2026-05-03T13:59:06.051Z</time></trkpt><trkpt lat="45.9949139" lon="10.840104"><ele>650.0</ele><time>2026-05-03T13:59:07.051Z</time></trkpt><trkpt lat="45.9947787" lon="10.8400425"><ele>650.0</ele><time>2026-05-03T13:59:08.051Z</time></trkpt><trkpt lat="45.9946456" lon="10.8399803"><ele>650.0</ele><time>2026-05-03T13:59:09.05Z</time></trkpt><trkpt lat="45.9945161" lon="10.8399088"><ele>650.0</ele><time>2026-05-03T13:59:10.05Z</time></trkpt><trkpt lat="45.9943811" lon="10.8398296"><ele>650.0</ele><time>2026-05-03T13:59:11.05Z</time></trkpt><trkpt lat="45.9942575" lon="10.8397332"><ele>650.0</ele><time>2026-05-03T13:59:12.051Z</time></trkpt><trkpt lat="45.9941318" lon="10.8396344"><ele>650.0</ele><time>2026-05-03T13:59:13.051Z</time></trkpt><trkpt lat="45.9940091" lon="10.8395231"><ele>650.0</ele><time>2026-05-03T13:59:14.051Z</time></trkpt><trkpt lat="45.9938861" lon="10.8394024"><ele>650.0</ele><time>2026-05-03T13:59:15.051Z</time></trkpt><trkpt lat="45.9937643" lon="10.8392805"><ele>650.0</ele><time>2026-05-03T13:59:16.051Z</time></trkpt><trkpt lat="45.9936421" lon="10.8391631"><ele>651.0</ele><time>2026-05-03T13:59:17.05Z</time></trkpt><trkpt lat="45.9935222" lon="10.839046"><ele>652.0</ele><time>2026-05-03T13:59:18.051Z</time></trkpt><trkpt lat="45.9933981" lon="10.8389197"><ele>653.0</ele><time>2026-05-03T13:59:19.051Z</time></trkpt><trkpt lat="45.9932766" lon="10.8387978"><ele>654.0</ele><time>2026-05-03T13:59:20.051Z</time></trkpt><trkpt lat="45.9931574" lon="10.8386728"><ele>654.0</ele><time>2026-05-03T13:59:21.05Z</time></trkpt><trkpt lat="45.993038" lon="10.8385465"><ele>654.0</ele><time>2026-05-03T13:59:22.051Z</time></trkpt><trkpt lat="45.9929243" lon="10.8384278"><ele>654.0</ele><time>2026-05-03T13:59:23.05Z</time></trkpt><trkpt lat="45.992814" lon="10.8383082"><ele>654.0</ele><time>2026-05-03T13:59:24.051Z</time></trkpt><trkpt lat="45.9927095" lon="10.8381929"><ele>654.5</ele><time>2026-05-03T13:59:25.051Z</time></trkpt><trkpt lat="45.9926054" lon="10.8380894"><ele>655.0</ele><time>2026-05-03T13:59:26.051Z</time></trkpt><trkpt lat="45.992494" lon="10.8380042"><ele>655.5</ele><time>2026-05-03T13:59:27.051Z</time></trkpt><trkpt lat="45.9923731" lon="10.8379647"><ele>656.0</ele><time>2026-05-03T13:59:28.051Z</time></trkpt><trkpt lat="45.9922446" lon="10.8379622"><ele>655.0</ele><time>2026-05-03T13:59:29.051Z</time></trkpt><trkpt lat="45.9921077" lon="10.8379833"><ele>654.0</ele><time>2026-05-03T13:59:30.05Z</time></trkpt><trkpt lat="45.9919733" lon="10.8380192"><ele>653.0</ele><time>2026-05-03T13:59:31.051Z</time></trkpt><trkpt lat="45.9918348" lon="10.8380494"><ele>652.0</ele><time>2026-05-03T13:59:32.051Z</time></trkpt><trkpt lat="45.9916971" lon="10.8380754"><ele>654.0</ele><time>2026-05-03T13:59:33.051Z</time></trkpt><trkpt lat="45.9915521" lon="10.8381038"><ele>656.0</ele><time>2026-05-03T13:59:34.051Z</time></trkpt><trkpt lat="45.9914121" lon="10.8381253"><ele>658.0</ele><time>2026-05-03T13:59:35.048Z</time></trkpt><trkpt lat="45.9912701" lon="10.8381218"><ele>660.0</ele><time>2026-05-03T13:59:36.051Z</time></trkpt><trkpt lat="45.9911432" lon="10.8380751"><ele>660.0</ele><time>2026-05-03T13:59:37.051Z</time></trkpt><trkpt lat="45.9910275" lon="10.8379836"><ele>660.0</ele><time>2026-05-03T13:59:38.05Z</time></trkpt><trkpt lat="45.9909277" lon="10.8378503"><ele>660.0</ele><time>2026-05-03T13:59:39.051Z</time></trkpt><trkpt lat="45.9908407" lon="10.8377018"><ele>660.0</ele><time>2026-05-03T13:59:40.051Z</time></trkpt><trkpt lat="45.9907645" lon="10.8375552"><ele>659.75</ele><time>2026-05-03T13:59:41.05Z</time></trkpt><trkpt lat="45.9906793" lon="10.8374002"><ele>659.5</ele><time>2026-05-03T13:59:42.051Z</time></trkpt><trkpt lat="45.9905922" lon="10.8372357"><ele>659.25</ele><time>2026-05-03T13:59:43.051Z</time></trkpt><trkpt lat="45.9905048" lon="10.8370839"><ele>659.0</ele><time>2026-05-03T13:59:44.05Z</time></trkpt><trkpt lat="45.9904123" lon="10.8369315"><ele>657.0</ele><time>2026-05-03T13:59:45.05Z</time></trkpt><trkpt lat="45.9903232" lon="10.8367827"><ele>655.0</ele><time>2026-05-03T13:59:46.05Z</time></trkpt><trkpt lat="45.9902347" lon="10.8366367"><ele>653.0</ele><time>2026-05-03T13:59:47.051Z</time></trkpt><trkpt lat="45.9901433" lon="10.8364912"><ele>651.0</ele><time>2026-05-03T13:59:48.051Z</time></trkpt><trkpt lat="45.9900578" lon="10.8363428"><ele>651.25</ele><time>2026-05-03T13:59:49.05Z</time></trkpt><trkpt lat="45.9899676" lon="10.8361942"><ele>651.5</ele><time>2026-05-03T13:59:50.051Z</time></trkpt><trkpt lat="45.9898761" lon="10.8360533"><ele>651.75</ele><time>2026-05-03T13:59:51.05Z</time></trkpt><trkpt lat="45.9897867" lon="10.835904"><ele>652.0</ele><time>2026-05-03T13:59:52.05Z</time></trkpt><trkpt lat="45.9896982" lon="10.8357503"><ele>652.0</ele><time>2026-05-03T13:59:53.05Z</time></trkpt><trkpt lat="45.9896127" lon="10.835595"><ele>652.0</ele><time>2026-05-03T13:59:54.05Z</time></trkpt><trkpt lat="45.9895252" lon="10.8354411"><ele>652.0</ele><time>2026-05-03T13:59:55.051Z</time></trkpt><trkpt lat="45.9894374" lon="10.8352874"><ele>652.0</ele><time>2026-05-03T13:59:56.05Z</time></trkpt><trkpt lat="45.9893495" lon="10.8351313"><ele>651.5</ele><time>2026-05-03T13:59:57.05Z</time></trkpt><trkpt lat="45.989259" lon="10.8349739"><ele>651.0</ele><time>2026-05-03T13:59:58.051Z</time></trkpt><trkpt lat="45.9891662" lon="10.8348173"><ele>650.5</ele><time>2026-05-03T13:59:59.051Z</time></trkpt><trkpt lat="45.9890734" lon="10.8346661"><ele>650.0</ele><time>2026-05-03T14:00:00.05Z</time></trkpt><trkpt lat="45.988977" lon="10.8345166"><ele>650.0</ele><time>2026-05-03T14:00:01.051Z</time></trkpt><trkpt lat="45.9888781" lon="10.834359"><ele>650.0</ele><time>2026-05-03T14:00:02.05Z</time></trkpt><trkpt lat="45.988776" lon="10.8342024"><ele>650.0</ele><time>2026-05-03T14:00:03.051Z</time></trkpt><trkpt lat="45.9886712" lon="10.8340499"><ele>650.0</ele><time>2026-05-03T14:00:04.051Z</time></trkpt><trkpt lat="45.9885659" lon="10.833893"><ele>650.0</ele><time>2026-05-03T14:00:05.05Z</time></trkpt><trkpt lat="45.9884554" lon="10.8337327"><ele>650.0</ele><time>2026-05-03T14:00:06.05Z</time></trkpt><trkpt lat="45.9883498" lon="10.8335663"><ele>650.0</ele><time>2026-05-03T14:00:07.05Z</time></trkpt><trkpt lat="45.9882534" lon="10.833385"><ele>651.0</ele><time>2026-05-03T14:00:08.051Z</time></trkpt><trkpt lat="45.9881688" lon="10.8331999"><ele>652.0</ele><time>2026-05-03T14:00:09.051Z</time></trkpt><trkpt lat="45.988085" lon="10.8330099"><ele>653.0</ele><time>2026-05-03T14:00:10.051Z</time></trkpt><trkpt lat="45.988011" lon="10.8328132"><ele>652.3333333333333</ele><time>2026-05-03T14:00:11.051Z</time></trkpt><trkpt lat="45.9879426" lon="10.8326146"><ele>651.6666666666666</ele><time>2026-05-03T14:00:12.051Z</time></trkpt><trkpt lat="45.9878751" lon="10.8324207"><ele>651.0</ele><time>2026-05-03T14:00:13.051Z</time></trkpt><trkpt lat="45.9878029" lon="10.8322214"><ele>651.0</ele><time>2026-05-03T14:00:14.051Z</time></trkpt><trkpt lat="45.9877359" lon="10.8320261"><ele>651.0</ele><time>2026-05-03T14:00:15.05Z</time></trkpt><trkpt lat="45.9876685" lon="10.8318277"><ele>651.0</ele><time>2026-05-03T14:00:16.051Z</time></trkpt><trkpt lat="45.9876057" lon="10.831632"><ele>651.5</ele><time>2026-05-03T14:00:17.05Z</time></trkpt><trkpt lat="45.9875448" lon="10.8314359"><ele>652.0</ele><time>2026-05-03T14:00:18.05Z</time></trkpt><trkpt lat="45.9874817" lon="10.8312457"><ele>652.5</ele><time>2026-05-03T14:00:19.051Z</time></trkpt><trkpt lat="45.9874198" lon="10.8310537"><ele>653.0</ele><time>2026-05-03T14:00:20.05Z</time></trkpt><trkpt lat="45.9873553" lon="10.830869"><ele>654.75</ele><time>2026-05-03T14:00:21.051Z</time></trkpt><trkpt lat="45.9872873" lon="10.8306893"><ele>656.5</ele><time>2026-05-03T14:00:22.051Z</time></trkpt><trkpt lat="45.9872187" lon="10.8305176"><ele>658.25</ele><time>2026-05-03T14:00:23.051Z</time></trkpt><trkpt lat="45.9871474" lon="10.8303441"><ele>660.0</ele><time>2026-05-03T14:00:24.05Z</time></trkpt><trkpt lat="45.9870715" lon="10.8301747"><ele>660.75</ele><time>2026-05-03T14:00:25.051Z</time></trkpt><trkpt lat="45.9869888" lon="10.8300129"><ele>661.5</ele><time>2026-05-03T14:00:26.05Z</time></trkpt><trkpt lat="45.9869039" lon="10.8298668"><ele>662.25</ele><time>2026-05-03T14:00:27.051Z</time></trkpt><trkpt lat="45.9868119" lon="10.8297323"><ele>663.0</ele><time>2026-05-03T14:00:28.05Z</time></trkpt><trkpt lat="45.9867209" lon="10.8296023"><ele>664.0</ele><time>2026-05-03T14:00:29.05Z</time></trkpt><trkpt lat="45.9866208" lon="10.8294701"><ele>665.0</ele><time>2026-05-03T14:00:30.051Z</time></trkpt><trkpt lat="45.9865266" lon="10.8293344"><ele>666.0</ele><time>2026-05-03T14:00:31.051Z</time></trkpt><trkpt lat="45.9864361" lon="10.8291929"><ele>667.0</ele><time>2026-05-03T14:00:32.05Z</time></trkpt><trkpt lat="45.986354" lon="10.8290428"><ele>667.0</ele><time>2026-05-03T14:00:33.051Z</time></trkpt><trkpt lat="45.9862825" lon="10.8288757"><ele>667.0</ele><time>2026-05-03T14:00:34.051Z</time></trkpt><trkpt lat="45.9862202" lon="10.8287035"><ele>667.0</ele><time>2026-05-03T14:00:35.051Z</time></trkpt><trkpt lat="45.9861621" lon="10.8285239"><ele>667.0</ele><time>2026-05-03T14:00:36.051Z</time></trkpt><trkpt lat="45.9861115" lon="10.8283395"><ele>666.5</ele><time>2026-05-03T14:00:37.051Z</time></trkpt><trkpt lat="45.9860685" lon="10.8281506"><ele>666.0</ele><time>2026-05-03T14:00:38.051Z</time></trkpt><trkpt lat="45.9860248" lon="10.8279672"><ele>665.5</ele><time>2026-05-03T14:00:39.05Z</time></trkpt><trkpt lat="45.985976" lon="10.8277884"><ele>665.0</ele><time>2026-05-03T14:00:40.05Z</time></trkpt><trkpt lat="45.9859178" lon="10.8276198"><ele>668.25</ele><time>2026-05-03T14:00:41.051Z</time></trkpt><trkpt lat="45.9858537" lon="10.8274551"><ele>671.5</ele><time>2026-05-03T14:00:42.05Z</time></trkpt><trkpt lat="45.9857767" lon="10.8273037"><ele>674.75</ele><time>2026-05-03T14:00:43.051Z</time></trkpt><trkpt lat="45.9856891" lon="10.8271713"><ele>678.0</ele><time>2026-05-03T14:00:44.051Z</time></trkpt><trkpt lat="45.9855812" lon="10.8270601"><ele>678.75</ele><time>2026-05-03T14:00:45.051Z</time></trkpt><trkpt lat="45.9854625" lon="10.8269539"><ele>679.5</ele><time>2026-05-03T14:00:46.051Z</time></trkpt><trkpt lat="45.9853408" lon="10.8268386"><ele>680.25</ele><time>2026-05-03T14:00:47.05Z</time></trkpt><trkpt lat="45.9852211" lon="10.8267167"><ele>681.0</ele><time>2026-05-03T14:00:48.051Z</time></trkpt><trkpt lat="45.9851052" lon="10.8265929"><ele>682.5</ele><time>2026-05-03T14:00:49.051Z</time></trkpt><trkpt lat="45.9849902" lon="10.8264662"><ele>684.0</ele><time>2026-05-03T14:00:50.051Z</time></trkpt><trkpt lat="45.9848694" lon="10.8263367"><ele>685.5</ele><time>2026-05-03T14:00:51.051Z</time></trkpt><trkpt lat="45.9847562" lon="10.8262142"><ele>687.0</ele><time>2026-05-03T14:00:52.051Z</time></trkpt><trkpt lat="45.9846383" lon="10.8261096"><ele>687.0</ele><time>2026-05-03T14:00:53.051Z</time></trkpt><trkpt lat="45.9845046" lon="10.8260306"><ele>687.0</ele><time>2026-05-03T14:00:54.051Z</time></trkpt><trkpt lat="45.9843691" lon="10.8259835"><ele>687.0</ele><time>2026-05-03T14:00:55.051Z</time></trkpt><trkpt lat="45.9842268" lon="10.825962"><ele>687.0</ele><time>2026-05-03T14:00:56.051Z</time></trkpt><trkpt lat="45.9840841" lon="10.8259687"><ele>691.25</ele><time>2026-05-03T14:00:57.051Z</time></trkpt><trkpt lat="45.9839391" lon="10.8259744"><ele>695.5</ele><time>2026-05-03T14:00:58.051Z</time></trkpt><trkpt lat="45.9837965" lon="10.8259722"><ele>699.75</ele><time>2026-05-03T14:00:59.051Z</time></trkpt><trkpt lat="45.9836493" lon="10.8259542"><ele>704.0</ele><time>2026-05-03T14:01:00.051Z</time></trkpt><trkpt lat="45.9835001" lon="10.8259272"><ele>704.0</ele><time>2026-05-03T14:01:01.051Z</time></trkpt><trkpt lat="45.9833528" lon="10.8258962"><ele>704.0</ele><time>2026-05-03T14:01:02.051Z</time></trkpt><trkpt lat="45.9832027" lon="10.8258582"><ele>704.0</ele><time>2026-05-03T14:01:03.051Z</time></trkpt><trkpt lat="45.9830537" lon="10.82582"><ele>704.6666666666666</ele><time>2026-05-03T14:01:04.051Z</time></trkpt><trkpt lat="45.9829011" lon="10.8257839"><ele>705.3333333333334</ele><time>2026-05-03T14:01:05.051Z</time></trkpt><trkpt lat="45.9827571" lon="10.8257356"><ele>706.0</ele><time>2026-05-03T14:01:06.051Z</time></trkpt><trkpt lat="45.9826087" lon="10.8256915"><ele>704.5</ele><time>2026-05-03T14:01:07.05Z</time></trkpt><trkpt lat="45.9824709" lon="10.8256243"><ele>703.0</ele><time>2026-05-03T14:01:08.05Z</time></trkpt><trkpt lat="45.9823409" lon="10.8255437"><ele>701.5</ele><time>2026-05-03T14:01:09.051Z</time></trkpt><trkpt lat="45.982213" lon="10.8254411"><ele>700.0</ele><time>2026-05-03T14:01:10.051Z</time></trkpt><trkpt lat="45.9820871" lon="10.825329"><ele>700.0</ele><time>2026-05-03T14:01:11.051Z</time></trkpt><trkpt lat="45.9819589" lon="10.8252175"><ele>700.0</ele><time>2026-05-03T14:01:12.051Z</time></trkpt><trkpt lat="45.9818242" lon="10.8251125"><ele>700.0</ele><time>2026-05-03T14:01:13.051Z</time></trkpt><trkpt lat="45.9816945" lon="10.8249912"><ele>702.75</ele><time>2026-05-03T14:01:14.051Z</time></trkpt><trkpt lat="45.9815671" lon="10.8248881"><ele>705.5</ele><time>2026-05-03T14:01:15.05Z</time></trkpt><trkpt lat="45.9814283" lon="10.8248073"><ele>708.25</ele><time>2026-05-03T14:01:16.051Z</time></trkpt><trkpt lat="45.9812838" lon="10.824752"><ele>711.0</ele><time>2026-05-03T14:01:17.051Z</time></trkpt><trkpt lat="45.9811332" lon="10.8247233"><ele>711.0</ele><time>2026-05-03T14:01:18.051Z</time></trkpt><trkpt lat="45.9809748" lon="10.8247145"><ele>711.0</ele><time>2026-05-03T14:01:19.051Z</time></trkpt><trkpt lat="45.9808151" lon="10.8247182"><ele>711.0</ele><time>2026-05-03T14:01:20.051Z</time></trkpt><trkpt lat="45.9806592" lon="10.8247315"><ele>711.25</ele><time>2026-05-03T14:01:21.051Z</time></trkpt><trkpt lat="45.9805108" lon="10.824742"><ele>711.5</ele><time>2026-05-03T14:01:22.051Z</time></trkpt><trkpt lat="45.9803645" lon="10.8247486"><ele>711.75</ele><time>2026-05-03T14:01:23.05Z</time></trkpt><trkpt lat="45.9802265" lon="10.8247418"><ele>712.0</ele><time>2026-05-03T14:01:24.051Z</time></trkpt><trkpt lat="45.9800853" lon="10.824712"><ele>714.5</ele><time>2026-05-03T14:01:25.05Z</time></trkpt><trkpt lat="45.9799466" lon="10.8246617"><ele>717.0</ele><time>2026-05-03T14:01:26.05Z</time></trkpt><trkpt lat="45.9798166" lon="10.8245922"><ele>719.5</ele><time>2026-05-03T14:01:27.05Z</time></trkpt><trkpt lat="45.9796929" lon="10.8244978"><ele>722.0</ele><time>2026-05-03T14:01:28.05Z</time></trkpt><trkpt lat="45.979577" lon="10.8243867"><ele>725.5</ele><time>2026-05-03T14:01:29.05Z</time></trkpt><trkpt lat="45.9794657" lon="10.8242648"><ele>729.0</ele><time>2026-05-03T14:01:30.05Z</time></trkpt><trkpt lat="45.9793497" lon="10.8241366"><ele>732.5</ele><time>2026-05-03T14:01:31.049Z</time></trkpt><trkpt lat="45.9792458" lon="10.823997"><ele>736.0</ele><time>2026-05-03T14:01:32.05Z</time></trkpt><trkpt lat="45.9791485" lon="10.8238405"><ele>736.0</ele><time>2026-05-03T14:01:33.05Z</time></trkpt><trkpt lat="45.9790498" lon="10.8236829"><ele>736.0</ele><time>2026-05-03T14:01:34.05Z</time></trkpt><trkpt lat="45.9789512" lon="10.8235166"><ele>736.0</ele><time>2026-05-03T14:01:35.05Z</time></trkpt><trkpt lat="45.9788535" lon="10.8233606"><ele>736.0</ele><time>2026-05-03T14:01:36.05Z</time></trkpt><trkpt lat="45.978765" lon="10.8232072"><ele>738.25</ele><time>2026-05-03T14:01:37.049Z</time></trkpt><trkpt lat="45.9786721" lon="10.8230663"><ele>740.5</ele><time>2026-05-03T14:01:38.049Z</time></trkpt><trkpt lat="45.9785698" lon="10.8229398"><ele>742.75</ele><time>2026-05-03T14:01:39.05Z</time></trkpt><trkpt lat="45.9784674" lon="10.8228232"><ele>745.0</ele><time>2026-05-03T14:01:40.049Z</time></trkpt><trkpt lat="45.9783543" lon="10.8227288"><ele>745.75</ele><time>2026-05-03T14:01:41.05Z</time></trkpt><trkpt lat="45.97824" lon="10.8226386"><ele>746.5</ele><time>2026-05-03T14:01:42.05Z</time></trkpt><trkpt lat="45.9781188" lon="10.8225665"><ele>747.25</ele><time>2026-05-03T14:01:43.049Z</time></trkpt><trkpt lat="45.9779912" lon="10.8225115"><ele>748.0</ele><time>2026-05-03T14:01:44.05Z</time></trkpt><trkpt lat="45.9778591" lon="10.8224636"><ele>748.0</ele><time>2026-05-03T14:01:45.049Z</time></trkpt><trkpt lat="45.9777226" lon="10.8224175"><ele>748.0</ele><time>2026-05-03T14:01:46.05Z</time></trkpt><trkpt lat="45.9775979" lon="10.8223607"><ele>748.0</ele><time>2026-05-03T14:01:47.049Z</time></trkpt><trkpt lat="45.9774731" lon="10.8223034"><ele>748.0</ele><time>2026-05-03T14:01:48.05Z</time></trkpt><trkpt lat="45.9773507" lon="10.8222524"><ele>747.75</ele><time>2026-05-03T14:01:49.05Z</time></trkpt><trkpt lat="45.9772255" lon="10.8222002"><ele>747.5</ele><time>2026-05-03T14:01:50.05Z</time></trkpt><trkpt lat="45.9770984" lon="10.8221499"><ele>747.25</ele><time>2026-05-03T14:01:51.049Z</time></trkpt><trkpt lat="45.9769672" lon="10.8220954"><ele>747.0</ele><time>2026-05-03T14:01:52.05Z</time></trkpt><trkpt lat="45.9768363" lon="10.8220442"><ele>747.0</ele><time>2026-05-03T14:01:53.05Z</time></trkpt><trkpt lat="45.9767042" lon="10.8219931"><ele>747.0</ele><time>2026-05-03T14:01:54.05Z</time></trkpt><trkpt lat="45.9765722" lon="10.8219398"><ele>747.0</ele><time>2026-05-03T14:01:55.05Z</time></trkpt><trkpt lat="45.9764504" lon="10.8218735"><ele>747.0</ele><time>2026-05-03T14:01:56.05Z</time></trkpt><trkpt lat="45.9763279" lon="10.8218015"><ele>749.0</ele><time>2026-05-03T14:01:57.05Z</time></trkpt><trkpt lat="45.9762041" lon="10.8217283"><ele>751.0</ele><time>2026-05-03T14:01:58.05Z</time></trkpt><trkpt lat="45.976087" lon="10.8216586"><ele>753.0</ele><time>2026-05-03T14:01:59.05Z</time></trkpt><trkpt lat="45.9759707" lon="10.8215876"><ele>755.0</ele><time>2026-05-03T14:02:00.05Z</time></trkpt><trkpt lat="45.9758526" lon="10.8215076"><ele>757.0</ele><time>2026-05-03T14:02:01.05Z</time></trkpt><trkpt lat="45.9757368" lon="10.8214183"><ele>759.0</ele><time>2026-05-03T14:02:02.05Z</time></trkpt><trkpt lat="45.9756226" lon="10.8213144"><ele>761.0</ele><time>2026-05-03T14:02:03.05Z</time></trkpt><trkpt lat="45.9755081" lon="10.8212032"><ele>763.0</ele><time>2026-05-03T14:02:04.05Z</time></trkpt><trkpt lat="45.9753974" lon="10.8210894"><ele>763.0</ele><time>2026-05-03T14:02:05.05Z</time></trkpt><trkpt lat="45.975288" lon="10.8209727"><ele>763.0</ele><time>2026-05-03T14:02:06.049Z</time></trkpt><trkpt lat="45.9751787" lon="10.8208534"><ele>763.0</ele><time>2026-05-03T14:02:07.05Z</time></trkpt><trkpt lat="45.9750706" lon="10.820729"><ele>763.0</ele><time>2026-05-03T14:02:08.05Z</time></trkpt><trkpt lat="45.9749635" lon="10.8206042"><ele>764.0</ele><time>2026-05-03T14:02:09.05Z</time></trkpt><trkpt lat="45.974858" lon="10.8204818"><ele>765.0</ele><time>2026-05-03T14:02:10.05Z</time></trkpt><trkpt lat="45.9747526" lon="10.820359"><ele>766.0</ele><time>2026-05-03T14:02:11.05Z</time></trkpt><trkpt lat="45.9746511" lon="10.82024"><ele>767.0</ele><time>2026-05-03T14:02:12.05Z</time></trkpt><trkpt lat="45.9745514" lon="10.8201259"><ele>768.25</ele><time>2026-05-03T14:02:13.049Z</time></trkpt><trkpt lat="45.9744567" lon="10.8200105"><ele>769.5</ele><time>2026-05-03T14:02:14.05Z</time></trkpt><trkpt lat="45.9743648" lon="10.8198934"><ele>770.75</ele><time>2026-05-03T14:02:15.049Z</time></trkpt><trkpt lat="45.9742757" lon="10.8197695"><ele>772.0</ele><time>2026-05-03T14:02:16.05Z</time></trkpt><trkpt lat="45.9741895" lon="10.8196378"><ele>772.5</ele><time>2026-05-03T14:02:17.049Z</time></trkpt><trkpt lat="45.9741025" lon="10.8195029"><ele>773.0</ele><time>2026-05-03T14:02:18.049Z</time></trkpt><trkpt lat="45.9740175" lon="10.8193644"><ele>773.5</ele><time>2026-05-03T14:02:19.05Z</time></trkpt><trkpt lat="45.9739306" lon="10.8192195"><ele>774.0</ele><time>2026-05-03T14:02:20.05Z</time></trkpt><trkpt lat="45.9738434" lon="10.8190702"><ele>774.0</ele><time>2026-05-03T14:02:21.05Z</time></trkpt><trkpt lat="45.973753" lon="10.8189157"><ele>774.0</ele><time>2026-05-03T14:02:22.05Z</time></trkpt><trkpt lat="45.9736648" lon="10.8187622"><ele>774.0</ele><time>2026-05-03T14:02:23.05Z</time></trkpt><trkpt lat="45.973575" lon="10.8186159"><ele>774.0</ele><time>2026-05-03T14:02:24.049Z</time></trkpt><trkpt lat="45.9734786" lon="10.8184633"><ele>774.0</ele><time>2026-05-03T14:02:25.049Z</time></trkpt><trkpt lat="45.9733856" lon="10.8183147"><ele>774.0</ele><time>2026-05-03T14:02:26.05Z</time></trkpt><trkpt lat="45.9732914" lon="10.8181633"><ele>774.0</ele><time>2026-05-03T14:02:27.049Z</time></trkpt><trkpt lat="45.9731916" lon="10.8180136"><ele>774.0</ele><time>2026-05-03T14:02:28.049Z</time></trkpt><trkpt lat="45.9730903" lon="10.8178694"><ele>772.25</ele><time>2026-05-03T14:02:29.05Z</time></trkpt><trkpt lat="45.9729789" lon="10.8177436"><ele>770.5</ele><time>2026-05-03T14:02:30.05Z</time></trkpt><trkpt lat="45.9728613" lon="10.8176265"><ele>768.75</ele><time>2026-05-03T14:02:31.05Z</time></trkpt><trkpt lat="45.9727374" lon="10.8175249"><ele>767.0</ele><time>2026-05-03T14:02:32.05Z</time></trkpt><trkpt lat="45.9726101" lon="10.817429"><ele>764.75</ele><time>2026-05-03T14:02:33.049Z</time></trkpt><trkpt lat="45.9724802" lon="10.8173366"><ele>762.5</ele><time>2026-05-03T14:02:34.049Z</time></trkpt><trkpt lat="45.9723483" lon="10.8172431"><ele>760.25</ele><time>2026-05-03T14:02:35.049Z</time></trkpt><trkpt lat="45.972209" lon="10.8171464"><ele>758.0</ele><time>2026-05-03T14:02:36.05Z</time></trkpt><trkpt lat="45.9720764" lon="10.8170564"><ele>758.0</ele><time>2026-05-03T14:02:37.049Z</time></trkpt><trkpt lat="45.9719448" lon="10.8169582"><ele>758.0</ele><time>2026-05-03T14:02:38.049Z</time></trkpt><trkpt lat="45.9718165" lon="10.8168651"><ele>758.0</ele><time>2026-05-03T14:02:39.05Z</time></trkpt><trkpt lat="45.9716844" lon="10.8167754"><ele>758.0</ele><time>2026-05-03T14:02:40.049Z</time></trkpt><trkpt lat="45.9715528" lon="10.8166836"><ele>758.0</ele><time>2026-05-03T14:02:41.05Z</time></trkpt><trkpt lat="45.971424" lon="10.816588"><ele>758.0</ele><time>2026-05-03T14:02:42.049Z</time></trkpt><trkpt lat="45.9712977" lon="10.8164886"><ele>758.0</ele><time>2026-05-03T14:02:43.05Z</time></trkpt><trkpt lat="45.9711698" lon="10.8163746"><ele>758.0</ele><time>2026-05-03T14:02:44.049Z</time></trkpt><trkpt lat="45.971056" lon="10.8162491"><ele>758.0</ele><time>2026-05-03T14:02:45.05Z</time></trkpt><trkpt lat="45.970948" lon="10.8161001"><ele>758.0</ele><time>2026-05-03T14:02:46.049Z</time></trkpt><trkpt lat="45.9708489" lon="10.8159339"><ele>758.0</ele><time>2026-05-03T14:02:47.05Z</time></trkpt><trkpt lat="45.9707566" lon="10.8157657"><ele>757.0</ele><time>2026-05-03T14:02:48.05Z</time></trkpt><trkpt lat="45.9706705" lon="10.815586"><ele>756.0</ele><time>2026-05-03T14:02:49.05Z</time></trkpt><trkpt lat="45.9705848" lon="10.8153953"><ele>755.0</ele><time>2026-05-03T14:02:50.05Z</time></trkpt><trkpt lat="45.970504" lon="10.815206"><ele>755.3333333333333</ele><time>2026-05-03T14:02:51.05Z</time></trkpt><trkpt lat="45.9704166" lon="10.8150196"><ele>755.6666666666666</ele><time>2026-05-03T14:02:52.05Z</time></trkpt><trkpt lat="45.9703336" lon="10.814833"><ele>756.0</ele><time>2026-05-03T14:02:53.05Z</time></trkpt><trkpt lat="45.9702438" lon="10.8146517"><ele>756.0</ele><time>2026-05-03T14:02:54.05Z</time></trkpt><trkpt lat="45.9701509" lon="10.8144617"><ele>756.0</ele><time>2026-05-03T14:02:55.05Z</time></trkpt><trkpt lat="45.970066" lon="10.8142705"><ele>756.0</ele><time>2026-05-03T14:02:56.049Z</time></trkpt><trkpt lat="45.9699728" lon="10.814079"><ele>755.3333333333334</ele><time>2026-05-03T14:02:57.049Z</time></trkpt><trkpt lat="45.9698865" lon="10.8138825"><ele>754.6666666666667</ele><time>2026-05-03T14:02:58.049Z</time></trkpt><trkpt lat="45.9697996" lon="10.8136868"><ele>754.0</ele><time>2026-05-03T14:02:59.05Z</time></trkpt><trkpt lat="45.9697086" lon="10.8134991"><ele>755.0</ele><time>2026-05-03T14:03:00.049Z</time></trkpt><trkpt lat="45.9696111" lon="10.8133208"><ele>756.0</ele><time>2026-05-03T14:03:01.05Z</time></trkpt><trkpt lat="45.9694966" lon="10.813163"><ele>757.0</ele><time>2026-05-03T14:03:02.05Z</time></trkpt><trkpt lat="45.9693708" lon="10.8130166"><ele>757.0</ele><time>2026-05-03T14:03:03.05Z</time></trkpt><trkpt lat="45.9692368" lon="10.8128894"><ele>757.0</ele><time>2026-05-03T14:03:04.05Z</time></trkpt><trkpt lat="45.9690954" lon="10.8127742"><ele>757.0</ele><time>2026-05-03T14:03:05.05Z</time></trkpt><trkpt lat="45.968955" lon="10.8126506"><ele>756.6666666666667</ele><time>2026-05-03T14:03:06.05Z</time></trkpt><trkpt lat="45.9688112" lon="10.8125279"><ele>756.3333333333334</ele><time>2026-05-03T14:03:07.05Z</time></trkpt><trkpt lat="45.9686655" lon="10.8124235"><ele>756.0</ele><time>2026-05-03T14:03:08.049Z</time></trkpt><trkpt lat="45.9685065" lon="10.8123509"><ele>753.0</ele><time>2026-05-03T14:03:09.049Z</time></trkpt><trkpt lat="45.9683432" lon="10.8123077"><ele>750.0</ele><time>2026-05-03T14:03:10.049Z</time></trkpt><trkpt lat="45.9681858" lon="10.8122699"><ele>747.0</ele><time>2026-05-03T14:03:11.05Z</time></trkpt><trkpt lat="45.9680306" lon="10.8122362"><ele>747.0</ele><time>2026-05-03T14:03:12.049Z</time></trkpt><trkpt lat="45.9678751" lon="10.8122073"><ele>747.0</ele><time>2026-05-03T14:03:13.05Z</time></trkpt><trkpt lat="45.967723" lon="10.8121773"><ele>747.0</ele><time>2026-05-03T14:03:14.049Z</time></trkpt><trkpt lat="45.9675745" lon="10.8121513"><ele>745.5</ele><time>2026-05-03T14:03:15.05Z</time></trkpt><trkpt lat="45.9674385" lon="10.8121233"><ele>744.0</ele><time>2026-05-03T14:03:16.05Z</time></trkpt><trkpt lat="45.9673062" lon="10.812096"><ele>742.5</ele><time>2026-05-03T14:03:17.049Z</time></trkpt><trkpt lat="45.9671776" lon="10.8120673"><ele>741.0</ele><time>2026-05-03T14:03:18.05Z</time></trkpt><trkpt lat="45.9670564" lon="10.8120419"><ele>741.0</ele><time>2026-05-03T14:03:19.05Z</time></trkpt><trkpt lat="45.9669415" lon="10.8120067"><ele>741.0</ele><time>2026-05-03T14:03:20.05Z</time></trkpt><trkpt lat="45.9668408" lon="10.8119753"><ele>741.0</ele><time>2026-05-03T14:03:21.05Z</time></trkpt><trkpt lat="45.9667455" lon="10.8119463"><ele>741.0</ele><time>2026-05-03T14:03:22.05Z</time></trkpt><trkpt lat="45.9666522" lon="10.8119171"><ele>741.0</ele><time>2026-05-03T14:03:23.049Z</time></trkpt><trkpt lat="45.9665567" lon="10.8118849"><ele>740.8</ele><time>2026-05-03T14:03:24.049Z</time></trkpt><trkpt lat="45.9664608" lon="10.8118504"><ele>740.5999999999999</ele><time>2026-05-03T14:03:25.05Z</time></trkpt><trkpt lat="45.9663637" lon="10.8118255"><ele>740.4</ele><time>2026-05-03T14:03:26.049Z</time></trkpt><trkpt lat="45.9662647" lon="10.8117901"><ele>740.2</ele><time>2026-05-03T14:03:27.049Z</time></trkpt><trkpt lat="45.9661664" lon="10.8117587"><ele>740.0</ele><time>2026-05-03T14:03:28.049Z</time></trkpt><trkpt lat="45.9660703" lon="10.8117252"><ele>741.4</ele><time>2026-05-03T14:03:29.05Z</time></trkpt><trkpt lat="45.965981" lon="10.8116877"><ele>742.8</ele><time>2026-05-03T14:03:30.05Z</time></trkpt><trkpt lat="45.9658944" lon="10.81164"><ele>744.2</ele><time>2026-05-03T14:03:31.05Z</time></trkpt><trkpt lat="45.9658055" lon="10.811598"><ele>745.6</ele><time>2026-05-03T14:03:32.05Z</time></trkpt><trkpt lat="45.9657158" lon="10.8115578"><ele>747.0</ele><time>2026-05-03T14:03:33.05Z</time></trkpt><trkpt lat="45.965634" lon="10.8115254"><ele>747.9999999999999</ele><time>2026-05-03T14:03:34.05Z</time></trkpt><trkpt lat="45.9655527" lon="10.8114918"><ele>749.0</ele><time>2026-05-03T14:03:35.05Z</time></trkpt><trkpt lat="45.9654768" lon="10.8114592"><ele>750.0</ele><time>2026-05-03T14:03:36.05Z</time></trkpt><trkpt lat="45.9654075" lon="10.8114308"><ele>751.0</ele><time>2026-05-03T14:03:37.05Z</time></trkpt><trkpt lat="45.965345" lon="10.8114064"><ele>752.0</ele><time>2026-05-03T14:03:38.049Z</time></trkpt><trkpt lat="45.9652814" lon="10.8113903"><ele>752.9999999999999</ele><time>2026-05-03T14:03:39.05Z</time></trkpt><trkpt lat="45.9652111" lon="10.8113784"><ele>754.0</ele><time>2026-05-03T14:03:40.05Z</time></trkpt><trkpt lat="45.9651315" lon="10.8113832"><ele>754.0</ele><time>2026-05-03T14:03:41.05Z</time></trkpt><trkpt lat="45.9650531" lon="10.8113758"><ele>754.0</ele><time>2026-05-03T14:03:42.05Z</time></trkpt><trkpt lat="45.9649679" lon="10.8113643"><ele>754.0</ele><time>2026-05-03T14:03:43.049Z</time></trkpt><trkpt lat="45.9648834" lon="10.8113303"><ele>754.0</ele><time>2026-05-03T14:03:44.05Z</time></trkpt><trkpt lat="45.9647958" lon="10.8112903"><ele>754.0</ele><time>2026-05-03T14:03:45.05Z</time></trkpt><trkpt lat="45.9647167" lon="10.8112329"><ele>754.0</ele><time>2026-05-03T14:03:46.05Z</time></trkpt><trkpt lat="45.9646337" lon="10.8111663"><ele>754.2</ele><time>2026-05-03T14:03:47.05Z</time></trkpt><trkpt lat="45.9645595" lon="10.8110915"><ele>754.4000000000001</ele><time>2026-05-03T14:03:48.05Z</time></trkpt><trkpt lat="45.9644774" lon="10.8110401"><ele>754.6</ele><time>2026-05-03T14:03:49.05Z</time></trkpt><trkpt lat="45.9643721" lon="10.8110244"><ele>754.8</ele><time>2026-05-03T14:03:50.049Z</time></trkpt><trkpt lat="45.9642679" lon="10.811029"><ele>755.0</ele><time>2026-05-03T14:03:51.05Z</time></trkpt><trkpt lat="45.9641505" lon="10.8110457"><ele>752.0</ele><time>2026-05-03T14:03:52.05Z</time></trkpt><trkpt lat="45.9640215" lon="10.8110707"><ele>749.0</ele><time>2026-05-03T14:03:53.05Z</time></trkpt><trkpt lat="45.9638857" lon="10.8110958"><ele>746.0</ele><time>2026-05-03T14:03:54.05Z</time></trkpt><trkpt lat="45.9637488" lon="10.8111223"><ele>743.0</ele><time>2026-05-03T14:03:55.05Z</time></trkpt><trkpt lat="45.9636107" lon="10.8111502"><ele>743.0</ele><time>2026-05-03T14:03:56.05Z</time></trkpt><trkpt lat="45.9634672" lon="10.8111717"><ele>743.0</ele><time>2026-05-03T14:03:57.05Z</time></trkpt><trkpt lat="45.963325" lon="10.8111842"><ele>743.0</ele><time>2026-05-03T14:03:58.05Z</time></trkpt><trkpt lat="45.9631758" lon="10.81117"><ele>743.0</ele><time>2026-05-03T14:03:59.05Z</time></trkpt><trkpt lat="45.9630326" lon="10.811115"><ele>742.5</ele><time>2026-05-03T14:04:00.049Z</time></trkpt><trkpt lat="45.9629062" lon="10.8110262"><ele>742.0</ele><time>2026-05-03T14:04:01.049Z</time></trkpt><trkpt lat="45.9627841" lon="10.81092"><ele>741.5</ele><time>2026-05-03T14:04:02.05Z</time></trkpt><trkpt lat="45.9626634" lon="10.8108064"><ele>741.0</ele><time>2026-05-03T14:04:03.049Z</time></trkpt><trkpt lat="45.9625469" lon="10.8106913"><ele>740.0</ele><time>2026-05-03T14:04:04.05Z</time></trkpt><trkpt lat="45.9624271" lon="10.8105792"><ele>739.0</ele><time>2026-05-03T14:04:05.049Z</time></trkpt><trkpt lat="45.9623112" lon="10.8104643"><ele>738.0</ele><time>2026-05-03T14:04:06.05Z</time></trkpt><trkpt lat="45.9621911" lon="10.8103571"><ele>737.0</ele><time>2026-05-03T14:04:07.05Z</time></trkpt><trkpt lat="45.9620721" lon="10.8102427"><ele>736.5</ele><time>2026-05-03T14:04:08.049Z</time></trkpt><trkpt lat="45.9619569" lon="10.8101203"><ele>736.0</ele><time>2026-05-03T14:04:09.05Z</time></trkpt><trkpt lat="45.9618369" lon="10.8100051"><ele>735.5</ele><time>2026-05-03T14:04:10.05Z</time></trkpt><trkpt lat="45.9617174" lon="10.8098907"><ele>735.0</ele><time>2026-05-03T14:04:11.049Z</time></trkpt><trkpt lat="45.9615967" lon="10.8097694"><ele>733.75</ele><time>2026-05-03T14:04:12.049Z</time></trkpt><trkpt lat="45.9614747" lon="10.8096466"><ele>732.5</ele><time>2026-05-03T14:04:13.049Z</time></trkpt><trkpt lat="45.961353" lon="10.8095229"><ele>731.25</ele><time>2026-05-03T14:04:14.049Z</time></trkpt><trkpt lat="45.9612369" lon="10.8093923"><ele>730.0</ele><time>2026-05-03T14:04:15.05Z</time></trkpt><trkpt lat="45.961118" lon="10.809269"><ele>728.0</ele><time>2026-05-03T14:04:16.05Z</time></trkpt><trkpt lat="45.9610051" lon="10.8091489"><ele>726.0</ele><time>2026-05-03T14:04:17.05Z</time></trkpt><trkpt lat="45.9609025" lon="10.8090474"><ele>724.0</ele><time>2026-05-03T14:04:18.049Z</time></trkpt><trkpt lat="45.9608023" lon="10.8089709"><ele>722.0</ele><time>2026-05-03T14:04:19.049Z</time></trkpt><trkpt lat="45.9607047" lon="10.808953"><ele>721.0</ele><time>2026-05-03T14:04:20.05Z</time></trkpt><trkpt lat="45.9606153" lon="10.808981"><ele>720.0</ele><time>2026-05-03T14:04:21.049Z</time></trkpt><trkpt lat="45.960516" lon="10.8090497"><ele>719.0</ele><time>2026-05-03T14:04:22.05Z</time></trkpt><trkpt lat="45.9604264" lon="10.8091503"><ele>718.0</ele><time>2026-05-03T14:04:23.05Z</time></trkpt><trkpt lat="45.9603263" lon="10.8092659"><ele>717.0</ele><time>2026-05-03T14:04:24.05Z</time></trkpt><trkpt lat="45.9602199" lon="10.8093638"><ele>719.75</ele><time>2026-05-03T14:04:25.05Z</time></trkpt><trkpt lat="45.9601091" lon="10.8094601"><ele>722.5</ele><time>2026-05-03T14:04:26.05Z</time></trkpt><trkpt lat="45.9599956" lon="10.8095539"><ele>725.25</ele><time>2026-05-03T14:04:27.05Z</time></trkpt><trkpt lat="45.9598805" lon="10.8096362"><ele>728.0</ele><time>2026-05-03T14:04:28.05Z</time></trkpt><trkpt lat="45.9597614" lon="10.8097116"><ele>728.0</ele><time>2026-05-03T14:04:29.05Z</time></trkpt><trkpt lat="45.9596466" lon="10.809766"><ele>728.0</ele><time>2026-05-03T14:04:30.05Z</time></trkpt><trkpt lat="45.9595255" lon="10.8097814"><ele>728.0</ele><time>2026-05-03T14:04:31.05Z</time></trkpt><trkpt lat="45.9594074" lon="10.8097369"><ele>728.0</ele><time>2026-05-03T14:04:32.05Z</time></trkpt><trkpt lat="45.9592921" lon="10.8096546"><ele>728.0</ele><time>2026-05-03T14:04:33.049Z</time></trkpt><trkpt lat="45.9592042" lon="10.8095576"><ele>728.0</ele><time>2026-05-03T14:04:34.049Z</time></trkpt><trkpt lat="45.9591095" lon="10.8094546"><ele>728.0</ele><time>2026-05-03T14:04:35.05Z</time></trkpt><trkpt lat="45.9590028" lon="10.8093434"><ele>728.0</ele><time>2026-05-03T14:04:36.05Z</time></trkpt><trkpt lat="45.9588997" lon="10.8092377"><ele>725.25</ele><time>2026-05-03T14:04:37.05Z</time></trkpt><trkpt lat="45.9587948" lon="10.8091267"><ele>722.5</ele><time>2026-05-03T14:04:38.049Z</time></trkpt><trkpt lat="45.9586812" lon="10.8090196"><ele>719.75</ele><time>2026-05-03T14:04:39.05Z</time></trkpt><trkpt lat="45.9585677" lon="10.8089067"><ele>717.0</ele><time>2026-05-03T14:04:40.05Z</time></trkpt><trkpt lat="45.9584547" lon="10.8088015"><ele>717.0</ele><time>2026-05-03T14:04:41.05Z</time></trkpt><trkpt lat="45.9583558" lon="10.8086864"><ele>717.0</ele><time>2026-05-03T14:04:42.05Z</time></trkpt><trkpt lat="45.9582612" lon="10.8085744"><ele>717.0</ele><time>2026-05-03T14:04:43.049Z</time></trkpt><trkpt lat="45.9581882" lon="10.8084418"><ele>717.0</ele><time>2026-05-03T14:04:44.049Z</time></trkpt><trkpt lat="45.9581285" lon="10.8082967"><ele>715.75</ele><time>2026-05-03T14:04:45.05Z</time></trkpt><trkpt lat="45.9580817" lon="10.8081335"><ele>714.5</ele><time>2026-05-03T14:04:46.05Z</time></trkpt><trkpt lat="45.9580439" lon="10.8079762"><ele>713.25</ele><time>2026-05-03T14:04:47.05Z</time></trkpt><trkpt lat="45.9580089" lon="10.8078174"><ele>712.0</ele><time>2026-05-03T14:04:48.05Z</time></trkpt><trkpt lat="45.9579694" lon="10.8076796"><ele>714.2</ele><time>2026-05-03T14:04:49.049Z</time></trkpt><trkpt lat="45.95792" lon="10.8075667"><ele>716.4000000000001</ele><time>2026-05-03T14:04:50.049Z</time></trkpt><trkpt lat="45.9578541" lon="10.807482"><ele>718.5999999999999</ele><time>2026-05-03T14:04:51.05Z</time></trkpt><trkpt lat="45.9577696" lon="10.807418"><ele>720.8</ele><time>2026-05-03T14:04:52.05Z</time></trkpt><trkpt lat="45.9576694" lon="10.8073917"><ele>723.0</ele><time>2026-05-03T14:04:53.05Z</time></trkpt><trkpt lat="45.9575613" lon="10.8073664"><ele>716.75</ele><time>2026-05-03T14:04:54.05Z</time></trkpt><trkpt lat="45.9574503" lon="10.8073312"><ele>710.5</ele><time>2026-05-03T14:04:55.05Z</time></trkpt><trkpt lat="45.9573323" lon="10.807296"><ele>704.25</ele><time>2026-05-03T14:04:56.049Z</time></trkpt><trkpt lat="45.9572042" lon="10.8072685"><ele>698.0</ele><time>2026-05-03T14:04:57.05Z</time></trkpt><trkpt lat="45.9570775" lon="10.8072581"><ele>698.0</ele><time>2026-05-03T14:04:58.05Z</time></trkpt><trkpt lat="45.9569454" lon="10.807278"><ele>698.0</ele><time>2026-05-03T14:04:59.05Z</time></trkpt><trkpt lat="45.9568132" lon="10.8073348"><ele>698.0</ele><time>2026-05-03T14:05:00.05Z</time></trkpt><trkpt lat="45.9566871" lon="10.8074171"><ele>698.0</ele><time>2026-05-03T14:05:01.049Z</time></trkpt><trkpt lat="45.9565568" lon="10.8075381"><ele>693.6666666666666</ele><time>2026-05-03T14:05:02.049Z</time></trkpt><trkpt lat="45.9564298" lon="10.8076883"><ele>689.3333333333334</ele><time>2026-05-03T14:05:03.049Z</time></trkpt><trkpt lat="45.9563039" lon="10.8078466"><ele>685.0</ele><time>2026-05-03T14:05:04.05Z</time></trkpt><trkpt lat="45.9561786" lon="10.8080087"><ele>685.0</ele><time>2026-05-03T14:05:05.05Z</time></trkpt><trkpt lat="45.956062" lon="10.8081647"><ele>685.0</ele><time>2026-05-03T14:05:06.049Z</time></trkpt><trkpt lat="45.9559532" lon="10.8083386"><ele>685.0</ele><time>2026-05-03T14:05:07.05Z</time></trkpt><trkpt lat="45.9558548" lon="10.808524"><ele>686.0</ele><time>2026-05-03T14:05:08.05Z</time></trkpt><trkpt lat="45.9557648" lon="10.80872"><ele>687.0</ele><time>2026-05-03T14:05:09.049Z</time></trkpt><trkpt lat="45.9556753" lon="10.8089165"><ele>688.0</ele><time>2026-05-03T14:05:10.049Z</time></trkpt><trkpt lat="45.955586" lon="10.8091029"><ele>688.0</ele><time>2026-05-03T14:05:11.049Z</time></trkpt><trkpt lat="45.955488" lon="10.8092817"><ele>688.0</ele><time>2026-05-03T14:05:12.049Z</time></trkpt><trkpt lat="45.9553793" lon="10.8094571"><ele>688.0</ele><time>2026-05-03T14:05:13.05Z</time></trkpt><trkpt lat="45.9552579" lon="10.8096278"><ele>690.3333333333334</ele><time>2026-05-03T14:05:14.05Z</time></trkpt><trkpt lat="45.9551258" lon="10.8097943"><ele>692.6666666666666</ele><time>2026-05-03T14:05:15.05Z</time></trkpt><trkpt lat="45.9549916" lon="10.8099658"><ele>695.0</ele><time>2026-05-03T14:05:16.05Z</time></trkpt><trkpt lat="45.9548556" lon="10.810136"><ele>688.3333333333333</ele><time>2026-05-03T14:05:17.049Z</time></trkpt><trkpt lat="45.9547194" lon="10.8103082"><ele>681.6666666666666</ele><time>2026-05-03T14:05:18.049Z</time></trkpt><trkpt lat="45.9545824" lon="10.8104838"><ele>675.0</ele><time>2026-05-03T14:05:19.05Z</time></trkpt><trkpt lat="45.9544427" lon="10.8106643"><ele>675.0</ele><time>2026-05-03T14:05:20.05Z</time></trkpt><trkpt lat="45.9543062" lon="10.8108408"><ele>675.0</ele><time>2026-05-03T14:05:21.05Z</time></trkpt><trkpt lat="45.9541673" lon="10.8110099"><ele>675.0</ele><time>2026-05-03T14:05:22.05Z</time></trkpt><trkpt lat="45.9540352" lon="10.8111752"><ele>674.0</ele><time>2026-05-03T14:05:23.05Z</time></trkpt><trkpt lat="45.9539125" lon="10.8113214"><ele>673.0</ele><time>2026-05-03T14:05:24.049Z</time></trkpt><trkpt lat="45.9538019" lon="10.8114587"><ele>672.0</ele><time>2026-05-03T14:05:25.049Z</time></trkpt><trkpt lat="45.9536918" lon="10.811583"><ele>671.0</ele><time>2026-05-03T14:05:26.05Z</time></trkpt><trkpt lat="45.9535771" lon="10.8116903"><ele>671.0</ele><time>2026-05-03T14:05:27.049Z</time></trkpt><trkpt lat="45.953452" lon="10.8117654"><ele>671.0</ele><time>2026-05-03T14:05:28.049Z</time></trkpt><trkpt lat="45.9533313" lon="10.8118146"><ele>671.0</ele><time>2026-05-03T14:05:29.049Z</time></trkpt><trkpt lat="45.9532109" lon="10.8118124"><ele>671.0</ele><time>2026-05-03T14:05:30.05Z</time></trkpt><trkpt lat="45.9530986" lon="10.8117734"><ele>672.0</ele><time>2026-05-03T14:05:31.05Z</time></trkpt><trkpt lat="45.9529847" lon="10.8117421"><ele>673.0</ele><time>2026-05-03T14:05:32.05Z</time></trkpt><trkpt lat="45.9528623" lon="10.8117534"><ele>674.0</ele><time>2026-05-03T14:05:33.05Z</time></trkpt><trkpt lat="45.9527412" lon="10.8118105"><ele>675.0</ele><time>2026-05-03T14:05:34.05Z</time></trkpt><trkpt lat="45.9526146" lon="10.8118869"><ele>671.5</ele><time>2026-05-03T14:05:35.05Z</time></trkpt><trkpt lat="45.9524931" lon="10.8119822"><ele>668.0</ele><time>2026-05-03T14:05:36.049Z</time></trkpt><trkpt lat="45.9523616" lon="10.8120709"><ele>664.5</ele><time>2026-05-03T14:05:37.05Z</time></trkpt><trkpt lat="45.9522241" lon="10.812142"><ele>661.0</ele><time>2026-05-03T14:05:38.049Z</time></trkpt><trkpt lat="45.9520816" lon="10.8121996"><ele>661.0</ele><time>2026-05-03T14:05:39.049Z</time></trkpt><trkpt lat="45.9519404" lon="10.8122578"><ele>661.0</ele><time>2026-05-03T14:05:40.05Z</time></trkpt><trkpt lat="45.951811" lon="10.8123093"><ele>661.0</ele><time>2026-05-03T14:05:41.049Z</time></trkpt><trkpt lat="45.9517051" lon="10.812329"><ele>661.0</ele><time>2026-05-03T14:05:42.049Z</time></trkpt><trkpt lat="45.9515973" lon="10.8123084"><ele>659.5999999999999</ele><time>2026-05-03T14:05:43.05Z</time></trkpt><trkpt lat="45.9515027" lon="10.8122419"><ele>658.2</ele><time>2026-05-03T14:05:44.05Z</time></trkpt><trkpt lat="45.9514111" lon="10.8121627"><ele>656.8</ele><time>2026-05-03T14:05:45.05Z</time></trkpt><trkpt lat="45.9513098" lon="10.8121062"><ele>655.4000000000001</ele><time>2026-05-03T14:05:46.05Z</time></trkpt><trkpt lat="45.9512008" lon="10.8121013"><ele>654.0</ele><time>2026-05-03T14:05:47.05Z</time></trkpt><trkpt lat="45.951097" lon="10.812139"><ele>654.0</ele><time>2026-05-03T14:05:48.05Z</time></trkpt><trkpt lat="45.9509909" lon="10.8121985"><ele>654.0</ele><time>2026-05-03T14:05:49.05Z</time></trkpt><trkpt lat="45.9508737" lon="10.8122607"><ele>654.0</ele><time>2026-05-03T14:05:50.049Z</time></trkpt><trkpt lat="45.9507526" lon="10.8122854"><ele>654.0</ele><time>2026-05-03T14:05:51.05Z</time></trkpt><trkpt lat="45.9506261" lon="10.8122673"><ele>651.5</ele><time>2026-05-03T14:05:52.049Z</time></trkpt><trkpt lat="45.9504914" lon="10.8122318"><ele>649.0</ele><time>2026-05-03T14:05:53.05Z</time></trkpt><trkpt lat="45.950357" lon="10.8121724"><ele>646.5</ele><time>2026-05-03T14:05:54.05Z</time></trkpt><trkpt lat="45.9502202" lon="10.8121105"><ele>644.0</ele><time>2026-05-03T14:05:55.05Z</time></trkpt><trkpt lat="45.9500754" lon="10.8120409"><ele>642.6666666666666</ele><time>2026-05-03T14:05:56.05Z</time></trkpt><trkpt lat="45.9499315" lon="10.8119762"><ele>641.3333333333334</ele><time>2026-05-03T14:05:57.05Z</time></trkpt><trkpt lat="45.9497812" lon="10.8119162"><ele>640.0</ele><time>2026-05-03T14:05:58.049Z</time></trkpt><trkpt lat="45.9496294" lon="10.8118808"><ele>640.0</ele><time>2026-05-03T14:05:59.05Z</time></trkpt><trkpt lat="45.9494748" lon="10.8118586"><ele>640.0</ele><time>2026-05-03T14:06:00.05Z</time></trkpt><trkpt lat="45.9493222" lon="10.8118322"><ele>640.0</ele><time>2026-05-03T14:06:01.05Z</time></trkpt><trkpt lat="45.9491699" lon="10.8118133"><ele>647.3333333333334</ele><time>2026-05-03T14:06:02.049Z</time></trkpt><trkpt lat="45.9490151" lon="10.8117976"><ele>654.6666666666666</ele><time>2026-05-03T14:06:03.05Z</time></trkpt><trkpt lat="45.9488604" lon="10.8117919"><ele>662.0</ele><time>2026-05-03T14:06:04.05Z</time></trkpt><trkpt lat="45.9487039" lon="10.8118079"><ele>657.25</ele><time>2026-05-03T14:06:05.05Z</time></trkpt><trkpt lat="45.9485591" lon="10.8118389"><ele>652.5</ele><time>2026-05-03T14:06:06.05Z</time></trkpt><trkpt lat="45.9484196" lon="10.8118836"><ele>647.75</ele><time>2026-05-03T14:06:07.05Z</time></trkpt><trkpt lat="45.9482878" lon="10.8119384"><ele>643.0</ele><time>2026-05-03T14:06:08.05Z</time></trkpt><trkpt lat="45.9481596" lon="10.811984"><ele>643.0</ele><time>2026-05-03T14:06:09.05Z</time></trkpt><trkpt lat="45.948029" lon="10.8120184"><ele>643.0</ele><time>2026-05-03T14:06:10.049Z</time></trkpt><trkpt lat="45.9479004" lon="10.8120364"><ele>643.0</ele><time>2026-05-03T14:06:11.049Z</time></trkpt><trkpt lat="45.9477682" lon="10.8120295"><ele>643.0</ele><time>2026-05-03T14:06:12.05Z</time></trkpt><trkpt lat="45.9476381" lon="10.8120191"><ele>647.5</ele><time>2026-05-03T14:06:13.05Z</time></trkpt><trkpt lat="45.9475109" lon="10.8120317"><ele>652.0</ele><time>2026-05-03T14:06:14.049Z</time></trkpt><trkpt lat="45.9473847" lon="10.8120676"><ele>656.5</ele><time>2026-05-03T14:06:15.05Z</time></trkpt><trkpt lat="45.9472527" lon="10.8121255"><ele>661.0</ele><time>2026-05-03T14:06:16.05Z</time></trkpt><trkpt lat="45.9471133" lon="10.8121891"><ele>661.0</ele><time>2026-05-03T14:06:17.05Z</time></trkpt><trkpt lat="45.9469708" lon="10.8122311"><ele>661.0</ele><time>2026-05-03T14:06:18.05Z</time></trkpt><trkpt lat="45.9468219" lon="10.8122494"><ele>661.0</ele><time>2026-05-03T14:06:19.05Z</time></trkpt><trkpt lat="45.9466694" lon="10.8122435"><ele>661.0</ele><time>2026-05-03T14:06:20.05Z</time></trkpt><trkpt lat="45.9465004" lon="10.8122113"><ele>657.6666666666667</ele><time>2026-05-03T14:06:21.049Z</time></trkpt><trkpt lat="45.9463349" lon="10.8121872"><ele>654.3333333333334</ele><time>2026-05-03T14:06:22.049Z</time></trkpt><trkpt lat="45.9461716" lon="10.812163"><ele>651.0</ele><time>2026-05-03T14:06:23.05Z</time></trkpt><trkpt lat="45.9460004" lon="10.8121385"><ele>648.3333333333334</ele><time>2026-05-03T14:06:24.05Z</time></trkpt><trkpt lat="45.9458237" lon="10.812113"><ele>645.6666666666667</ele><time>2026-05-03T14:06:25.049Z</time></trkpt><trkpt lat="45.9456477" lon="10.8120912"><ele>643.0</ele><time>2026-05-03T14:06:26.05Z</time></trkpt><trkpt lat="45.945468" lon="10.8120653"><ele>643.0</ele><time>2026-05-03T14:06:27.05Z</time></trkpt><trkpt lat="45.9452861" lon="10.8120444"><ele>643.0</ele><time>2026-05-03T14:06:28.05Z</time></trkpt><trkpt lat="45.9451047" lon="10.8120251"><ele>643.0</ele><time>2026-05-03T14:06:29.05Z</time></trkpt><trkpt lat="45.9449256" lon="10.8120155"><ele>639.6666666666667</ele><time>2026-05-03T14:06:30.049Z</time></trkpt><trkpt lat="45.9447412" lon="10.8120259"><ele>636.3333333333334</ele><time>2026-05-03T14:06:31.049Z</time></trkpt><trkpt lat="45.944572" lon="10.8120547"><ele>633.0</ele><time>2026-05-03T14:06:32.049Z</time></trkpt><trkpt lat="45.9444087" lon="10.8120815"><ele>633.0</ele><time>2026-05-03T14:06:33.049Z</time></trkpt><trkpt lat="45.9442552" lon="10.8121173"><ele>633.0</ele><time>2026-05-03T14:06:34.05Z</time></trkpt><trkpt lat="45.944112" lon="10.8121358"><ele>633.0</ele><time>2026-05-03T14:06:35.05Z</time></trkpt><trkpt lat="45.9439749" lon="10.8121456"><ele>633.0</ele><time>2026-05-03T14:06:36.05Z</time></trkpt><trkpt lat="45.9438462" lon="10.8121433"><ele>633.0</ele><time>2026-05-03T14:06:37.05Z</time></trkpt><trkpt lat="45.9437163" lon="10.8121223"><ele>633.0</ele><time>2026-05-03T14:06:38.05Z</time></trkpt><trkpt lat="45.9435862" lon="10.8120904"><ele>633.0</ele><time>2026-05-03T14:06:39.049Z</time></trkpt><trkpt lat="45.9434517" lon="10.8120466"><ele>633.0</ele><time>2026-05-03T14:06:40.05Z</time></trkpt><trkpt lat="45.9433168" lon="10.8119959"><ele>633.0</ele><time>2026-05-03T14:06:41.05Z</time></trkpt><trkpt lat="45.9431749" lon="10.8119477"><ele>633.0</ele><time>2026-05-03T14:06:42.05Z</time></trkpt><trkpt lat="45.9430351" lon="10.8119039"><ele>633.0</ele><time>2026-05-03T14:06:43.049Z</time></trkpt><trkpt lat="45.9428904" lon="10.8118531"><ele>633.0</ele><time>2026-05-03T14:06:44.05Z</time></trkpt><trkpt lat="45.942744" lon="10.8118069"><ele>638.6666666666666</ele><time>2026-05-03T14:06:45.05Z</time></trkpt><trkpt lat="45.9425901" lon="10.8117678"><ele>644.3333333333333</ele><time>2026-05-03T14:06:46.05Z</time></trkpt><trkpt lat="45.9424325" lon="10.8117258"><ele>650.0</ele><time>2026-05-03T14:06:47.05Z</time></trkpt><trkpt lat="45.9422682" lon="10.8116851"><ele>650.0</ele><time>2026-05-03T14:06:48.05Z</time></trkpt><trkpt lat="45.9421029" lon="10.8116386"><ele>650.0</ele><time>2026-05-03T14:06:49.05Z</time></trkpt><trkpt lat="45.9419406" lon="10.8115975"><ele>650.0</ele><time>2026-05-03T14:06:50.05Z</time></trkpt><trkpt lat="45.9417821" lon="10.8115625"><ele>646.6666666666666</ele><time>2026-05-03T14:06:51.05Z</time></trkpt><trkpt lat="45.9416231" lon="10.8115407"><ele>643.3333333333334</ele><time>2026-05-03T14:06:52.05Z</time></trkpt><trkpt lat="45.9414606" lon="10.8115245"><ele>640.0</ele><time>2026-05-03T14:06:53.05Z</time></trkpt><trkpt lat="45.9412986" lon="10.811516"><ele>640.0</ele><time>2026-05-03T14:06:54.049Z</time></trkpt><trkpt lat="45.9411346" lon="10.8115146"><ele>640.0</ele><time>2026-05-03T14:06:55.05Z</time></trkpt><trkpt lat="45.940975" lon="10.8115135"><ele>640.0</ele><time>2026-05-03T14:06:56.05Z</time></trkpt><trkpt lat="45.9408211" lon="10.8115203"><ele>639.3333333333334</ele><time>2026-05-03T14:06:57.05Z</time></trkpt><trkpt lat="45.9406681" lon="10.8115335"><ele>638.6666666666666</ele><time>2026-05-03T14:06:58.05Z</time></trkpt><trkpt lat="45.9405138" lon="10.8115519"><ele>638.0</ele><time>2026-05-03T14:06:59.049Z</time></trkpt><trkpt lat="45.9403586" lon="10.8115732"><ele>638.0</ele><time>2026-05-03T14:07:00.05Z</time></trkpt><trkpt lat="45.9402034" lon="10.8115916"><ele>638.0</ele><time>2026-05-03T14:07:01.05Z</time></trkpt><trkpt lat="45.9400484" lon="10.8116029"><ele>638.0</ele><time>2026-05-03T14:07:02.05Z</time></trkpt><trkpt lat="45.9398985" lon="10.8116182"><ele>636.5</ele><time>2026-05-03T14:07:03.05Z</time></trkpt><trkpt lat="45.9397482" lon="10.8116272"><ele>635.0</ele><time>2026-05-03T14:07:04.049Z</time></trkpt><trkpt lat="45.9396016" lon="10.8116407"><ele>633.5</ele><time>2026-05-03T14:07:05.049Z</time></trkpt><trkpt lat="45.9394566" lon="10.8116571"><ele>632.0</ele><time>2026-05-03T14:07:06.05Z</time></trkpt><trkpt lat="45.9393073" lon="10.8116731"><ele>630.6666666666666</ele><time>2026-05-03T14:07:07.049Z</time></trkpt><trkpt lat="45.9391555" lon="10.8116809"><ele>629.3333333333334</ele><time>2026-05-03T14:07:08.05Z</time></trkpt><trkpt lat="45.9390031" lon="10.8116764"><ele>628.0</ele><time>2026-05-03T14:07:09.05Z</time></trkpt><trkpt lat="45.9388543" lon="10.8116616"><ele>628.0</ele><time>2026-05-03T14:07:10.049Z</time></trkpt><trkpt lat="45.9387083" lon="10.8116479"><ele>628.0</ele><time>2026-05-03T14:07:11.05Z</time></trkpt><trkpt lat="45.9385658" lon="10.8116476"><ele>628.0</ele><time>2026-05-03T14:07:12.05Z</time></trkpt><trkpt lat="45.9384218" lon="10.811655"><ele>628.0</ele><time>2026-05-03T14:07:13.05Z</time></trkpt><trkpt lat="45.9382805" lon="10.8116715"><ele>627.0</ele><time>2026-05-03T14:07:14.05Z</time></trkpt><trkpt lat="45.9381431" lon="10.8116711"><ele>626.0</ele><time>2026-05-03T14:07:15.049Z</time></trkpt><trkpt lat="45.9380062" lon="10.8116519"><ele>625.0</ele><time>2026-05-03T14:07:16.05Z</time></trkpt><trkpt lat="45.9378667" lon="10.8116128"><ele>624.0</ele><time>2026-05-03T14:07:17.05Z</time></trkpt><trkpt lat="45.9377325" lon="10.8115751"><ele>624.0</ele><time>2026-05-03T14:07:18.05Z</time></trkpt><trkpt lat="45.9375975" lon="10.8115408"><ele>624.0</ele><time>2026-05-03T14:07:19.049Z</time></trkpt><trkpt lat="45.9374615" lon="10.8114973"><ele>624.0</ele><time>2026-05-03T14:07:20.05Z</time></trkpt><trkpt lat="45.9373259" lon="10.8114619"><ele>624.0</ele><time>2026-05-03T14:07:21.05Z</time></trkpt><trkpt lat="45.937195" lon="10.811424"><ele>620.0</ele><time>2026-05-03T14:07:22.049Z</time></trkpt><trkpt lat="45.9370697" lon="10.8113877"><ele>616.0</ele><time>2026-05-03T14:07:23.049Z</time></trkpt><trkpt lat="45.9369411" lon="10.8113513"><ele>612.0</ele><time>2026-05-03T14:07:24.05Z</time></trkpt><trkpt lat="45.9368205" lon="10.8113263"><ele>608.0</ele><time>2026-05-03T14:07:25.05Z</time></trkpt><trkpt lat="45.9366952" lon="10.8113121"><ele>606.1999999999999</ele><time>2026-05-03T14:07:26.05Z</time></trkpt><trkpt lat="45.9365719" lon="10.8113183"><ele>604.4</ele><time>2026-05-03T14:07:27.05Z</time></trkpt><trkpt lat="45.9364536" lon="10.8113513"><ele>602.5999999999999</ele><time>2026-05-03T14:07:28.05Z</time></trkpt><trkpt lat="45.9363502" lon="10.8113977"><ele>600.8</ele><time>2026-05-03T14:07:29.05Z</time></trkpt><trkpt lat="45.9362643" lon="10.811439"><ele>599.0</ele><time>2026-05-03T14:07:30.05Z</time></trkpt><trkpt lat="45.9361814" lon="10.811482"><ele>599.0</ele><time>2026-05-03T14:07:31.05Z</time></trkpt><trkpt lat="45.9361047" lon="10.8115256"><ele>599.0</ele><time>2026-05-03T14:07:32.049Z</time></trkpt><trkpt lat="45.9360417" lon="10.8115587"><ele>599.0</ele><time>2026-05-03T14:07:33.05Z</time></trkpt><trkpt lat="45.9359669" lon="10.8115941"><ele>599.0</ele><time>2026-05-03T14:07:35.05Z</time></trkpt><trkpt lat="45.9358694" lon="10.8116314"><ele>599.0</ele><time>2026-05-03T14:07:38.05Z</time></trkpt><trkpt lat="45.9357859" lon="10.8116968"><ele>599.0</ele><time>2026-05-03T14:07:40.05Z</time></trkpt><trkpt lat="45.9357281" lon="10.8117426"><ele>599.0</ele><time>2026-05-03T14:07:41.05Z</time></trkpt><trkpt lat="45.9356633" lon="10.811793"><ele>599.0</ele><time>2026-05-03T14:07:42.049Z</time></trkpt><trkpt lat="45.9355887" lon="10.8118374"><ele>599.0</ele><time>2026-05-03T14:07:43.049Z</time></trkpt><trkpt lat="45.9354998" lon="10.8118817"><ele>599.0</ele><time>2026-05-03T14:07:44.049Z</time></trkpt><trkpt lat="45.9354055" lon="10.8119338"><ele>599.0</ele><time>2026-05-03T14:07:45.05Z</time></trkpt><trkpt lat="45.9353037" lon="10.8119928"><ele>599.0</ele><time>2026-05-03T14:07:46.049Z</time></trkpt><trkpt lat="45.9352002" lon="10.8120558"><ele>599.0</ele><time>2026-05-03T14:07:47.05Z</time></trkpt><trkpt lat="45.9350991" lon="10.812112"><ele>599.0</ele><time>2026-05-03T14:07:48.049Z</time></trkpt><trkpt lat="45.9349988" lon="10.8121716"><ele>599.0</ele><time>2026-05-03T14:07:49.05Z</time></trkpt><trkpt lat="45.9349041" lon="10.8122257"><ele>599.0</ele><time>2026-05-03T14:07:50.049Z</time></trkpt><trkpt lat="45.9348134" lon="10.8122796"><ele>598.8</ele><time>2026-05-03T14:07:51.05Z</time></trkpt><trkpt lat="45.9347284" lon="10.8123444"><ele>598.5999999999999</ele><time>2026-05-03T14:07:52.049Z</time></trkpt><trkpt lat="45.9346516" lon="10.8124213"><ele>598.4</ele><time>2026-05-03T14:07:53.05Z</time></trkpt><trkpt lat="45.9345887" lon="10.8125258"><ele>598.1999999999999</ele><time>2026-05-03T14:07:54.05Z</time></trkpt><trkpt lat="45.9345385" lon="10.8126509"><ele>598.0</ele><time>2026-05-03T14:07:55.05Z</time></trkpt><trkpt lat="45.934498" lon="10.8127999"><ele>599.0</ele><time>2026-05-03T14:07:56.05Z</time></trkpt><trkpt lat="45.9344581" lon="10.8129596"><ele>600.0</ele><time>2026-05-03T14:07:57.05Z</time></trkpt><trkpt lat="45.9344153" lon="10.8131276"><ele>601.0</ele><time>2026-05-03T14:07:58.05Z</time></trkpt><trkpt lat="45.934371" lon="10.8132895"><ele>602.0</ele><time>2026-05-03T14:07:59.05Z</time></trkpt><trkpt lat="45.9343248" lon="10.8134541"><ele>602.75</ele><time>2026-05-03T14:08:00.049Z</time></trkpt><trkpt lat="45.934282" lon="10.8136137"><ele>603.5</ele><time>2026-05-03T14:08:01.049Z</time></trkpt><trkpt lat="45.9342275" lon="10.8137592"><ele>604.25</ele><time>2026-05-03T14:08:02.05Z</time></trkpt><trkpt lat="45.9341616" lon="10.8138885"><ele>605.0</ele><time>2026-05-03T14:08:03.05Z</time></trkpt><trkpt lat="45.934085" lon="10.8139914"><ele>605.2</ele><time>2026-05-03T14:08:04.05Z</time></trkpt><trkpt lat="45.9340066" lon="10.8140809"><ele>605.4</ele><time>2026-05-03T14:08:05.05Z</time></trkpt><trkpt lat="45.9339265" lon="10.8141621"><ele>605.6</ele><time>2026-05-03T14:08:06.05Z</time></trkpt><trkpt lat="45.9338449" lon="10.8142418"><ele>605.8</ele><time>2026-05-03T14:08:07.049Z</time></trkpt><trkpt lat="45.9337704" lon="10.8143198"><ele>606.0</ele><time>2026-05-03T14:08:08.05Z</time></trkpt><trkpt lat="45.9336933" lon="10.8143994"><ele>606.0</ele><time>2026-05-03T14:08:09.049Z</time></trkpt><trkpt lat="45.9336166" lon="10.8144828"><ele>606.0</ele><time>2026-05-03T14:08:10.049Z</time></trkpt><trkpt lat="45.9335405" lon="10.814564"><ele>606.0</ele><time>2026-05-03T14:08:11.05Z</time></trkpt><trkpt lat="45.9334732" lon="10.8146447"><ele>606.0</ele><time>2026-05-03T14:08:12.049Z</time></trkpt><trkpt lat="45.9334145" lon="10.8147026"><ele>606.0</ele><time>2026-05-03T14:08:13.05Z</time></trkpt><trkpt lat="45.9333375" lon="10.8147839"><ele>606.0</ele><time>2026-05-03T14:08:15.05Z</time></trkpt><trkpt lat="45.9332906" lon="10.8148662"><ele>605.6666666666666</ele><time>2026-05-03T14:08:17.05Z</time></trkpt><trkpt lat="45.9332419" lon="10.8149273"><ele>605.3333333333334</ele><time>2026-05-03T14:08:19.049Z</time></trkpt><trkpt lat="45.9331833" lon="10.8150173"><ele>605.0</ele><time>2026-05-03T14:08:22.05Z</time></trkpt><trkpt lat="45.9331248" lon="10.8151039"><ele>604.6666666666667</ele><time>2026-05-03T14:08:24.05Z</time></trkpt><trkpt lat="45.9330432" lon="10.815237"><ele>604.3333333333334</ele><time>2026-05-03T14:08:26.05Z</time></trkpt><trkpt lat="45.9329988" lon="10.8153064"><ele>604.0</ele><time>2026-05-03T14:08:27.05Z</time></trkpt><trkpt lat="45.932956" lon="10.8153855"><ele>604.0</ele><time>2026-05-03T14:08:28.05Z</time></trkpt><trkpt lat="45.9329116" lon="10.8154629"><ele>604.0</ele><time>2026-05-03T14:08:29.05Z</time></trkpt><trkpt lat="45.9328602" lon="10.8155386"><ele>604.0</ele><time>2026-05-03T14:08:30.049Z</time></trkpt><trkpt lat="45.9328061" lon="10.8156169"><ele>604.0</ele><time>2026-05-03T14:08:31.05Z</time></trkpt><trkpt lat="45.9327419" lon="10.815684"><ele>604.0</ele><time>2026-05-03T14:08:32.049Z</time></trkpt><trkpt lat="45.9326679" lon="10.8157453"><ele>604.0</ele><time>2026-05-03T14:08:33.048Z</time></trkpt><trkpt lat="45.9325833" lon="10.8157904"><ele>601.2</ele><time>2026-05-03T14:08:34.049Z</time></trkpt><trkpt lat="45.9324943" lon="10.8158215"><ele>598.4</ele><time>2026-05-03T14:08:35.049Z</time></trkpt><trkpt lat="45.9324024" lon="10.8158466"><ele>595.6</ele><time>2026-05-03T14:08:36.049Z</time></trkpt><trkpt lat="45.9323017" lon="10.8158623"><ele>592.8</ele><time>2026-05-03T14:08:37.049Z</time></trkpt><trkpt lat="45.9321971" lon="10.8158858"><ele>590.0</ele><time>2026-05-03T14:08:38.049Z</time></trkpt><trkpt lat="45.9320867" lon="10.8159113"><ele>590.0</ele><time>2026-05-03T14:08:39.049Z</time></trkpt><trkpt lat="45.931972" lon="10.815941"><ele>590.0</ele><time>2026-05-03T14:08:40.049Z</time></trkpt><trkpt lat="45.9318532" lon="10.8159701"><ele>590.0</ele><time>2026-05-03T14:08:41.049Z</time></trkpt><trkpt lat="45.9317329" lon="10.8159951"><ele>590.0</ele><time>2026-05-03T14:08:42.049Z</time></trkpt><trkpt lat="45.9316171" lon="10.8160234"><ele>590.6</ele><time>2026-05-03T14:08:43.048Z</time></trkpt><trkpt lat="45.9315101" lon="10.8160546"><ele>591.2</ele><time>2026-05-03T14:08:44.048Z</time></trkpt><trkpt lat="45.9314076" lon="10.8160763"><ele>591.8</ele><time>2026-05-03T14:08:45.048Z</time></trkpt><trkpt lat="45.9313068" lon="10.8161022"><ele>592.4</ele><time>2026-05-03T14:08:46.048Z</time></trkpt><trkpt lat="45.9312136" lon="10.8161278"><ele>593.0</ele><time>2026-05-03T14:08:47.049Z</time></trkpt><trkpt lat="45.9311251" lon="10.8161543"><ele>593.0</ele><time>2026-05-03T14:08:48.049Z</time></trkpt><trkpt lat="45.9310471" lon="10.8161924"><ele>593.0</ele><time>2026-05-03T14:08:49.049Z</time></trkpt><trkpt lat="45.9309786" lon="10.8162392"><ele>593.0</ele><time>2026-05-03T14:08:50.048Z</time></trkpt><trkpt lat="45.930917" lon="10.8163036"><ele>593.0</ele><time>2026-05-03T14:08:51.049Z</time></trkpt><trkpt lat="45.9308616" lon="10.8163814"><ele>593.0</ele><time>2026-05-03T14:08:52.049Z</time></trkpt><trkpt lat="45.9308065" lon="10.8164696"><ele>593.0</ele><time>2026-05-03T14:08:53.048Z</time></trkpt><trkpt lat="45.9307532" lon="10.8165634"><ele>592.0</ele><time>2026-05-03T14:08:54.048Z</time></trkpt><trkpt lat="45.9306968" lon="10.8166675"><ele>591.0</ele><time>2026-05-03T14:08:55.049Z</time></trkpt><trkpt lat="45.930638" lon="10.8167658"><ele>590.0</ele><time>2026-05-03T14:08:56.049Z</time></trkpt><trkpt lat="45.9305837" lon="10.816864"><ele>589.0</ele><time>2026-05-03T14:08:57.049Z</time></trkpt><trkpt lat="45.9305251" lon="10.8169663"><ele>588.0</ele><time>2026-05-03T14:08:58.049Z</time></trkpt><trkpt lat="45.9304659" lon="10.8170589"><ele>587.0</ele><time>2026-05-03T14:08:59.048Z</time></trkpt><trkpt lat="45.9304074" lon="10.8171534"><ele>587.0</ele><time>2026-05-03T14:09:00.048Z</time></trkpt><trkpt lat="45.9303458" lon="10.8172467"><ele>587.0</ele><time>2026-05-03T14:09:01.048Z</time></trkpt><trkpt lat="45.9302848" lon="10.8173347"><ele>587.0</ele><time>2026-05-03T14:09:02.049Z</time></trkpt><trkpt lat="45.9302239" lon="10.8174304"><ele>587.0</ele><time>2026-05-03T14:09:03.048Z</time></trkpt><trkpt lat="45.9301582" lon="10.8175344"><ele>587.0</ele><time>2026-05-03T14:09:04.049Z</time></trkpt><trkpt lat="45.9300801" lon="10.8176428"><ele>584.0</ele><time>2026-05-03T14:09:05.049Z</time></trkpt><trkpt lat="45.9299975" lon="10.8177523"><ele>581.0</ele><time>2026-05-03T14:09:06.049Z</time></trkpt><trkpt lat="45.92991" lon="10.8178628"><ele>578.0</ele><time>2026-05-03T14:09:07.049Z</time></trkpt><trkpt lat="45.9298129" lon="10.8179684"><ele>575.0</ele><time>2026-05-03T14:09:08.048Z</time></trkpt><trkpt lat="45.9297191" lon="10.8180715"><ele>575.0</ele><time>2026-05-03T14:09:09.049Z</time></trkpt><trkpt lat="45.9296352" lon="10.8181752"><ele>575.0</ele><time>2026-05-03T14:09:10.049Z</time></trkpt><trkpt lat="45.929556" lon="10.8182661"><ele>575.0</ele><time>2026-05-03T14:09:11.049Z</time></trkpt><trkpt lat="45.9294925" lon="10.8183632"><ele>575.0</ele><time>2026-05-03T14:09:12.049Z</time></trkpt><trkpt lat="45.9294412" lon="10.8184641"><ele>575.0</ele><time>2026-05-03T14:09:13.049Z</time></trkpt><trkpt lat="45.929398" lon="10.8185818"><ele>574.8</ele><time>2026-05-03T14:09:14.048Z</time></trkpt><trkpt lat="45.9293757" lon="10.81871"><ele>574.6</ele><time>2026-05-03T14:09:15.049Z</time></trkpt><trkpt lat="45.9293702" lon="10.8188482"><ele>574.4</ele><time>2026-05-03T14:09:16.048Z</time></trkpt><trkpt lat="45.9293832" lon="10.8189947"><ele>574.2</ele><time>2026-05-03T14:09:17.049Z</time></trkpt><trkpt lat="45.9294076" lon="10.8191398"><ele>574.0</ele><time>2026-05-03T14:09:18.049Z</time></trkpt><trkpt lat="45.9294416" lon="10.8192833"><ele>573.25</ele><time>2026-05-03T14:09:19.048Z</time></trkpt><trkpt lat="45.9294846" lon="10.8194385"><ele>572.5</ele><time>2026-05-03T14:09:20.049Z</time></trkpt><trkpt lat="45.9295239" lon="10.8195977"><ele>571.75</ele><time>2026-05-03T14:09:21.048Z</time></trkpt><trkpt lat="45.9295641" lon="10.8197675"><ele>571.0</ele><time>2026-05-03T14:09:22.049Z</time></trkpt><trkpt lat="45.9296006" lon="10.8199371"><ele>571.0</ele><time>2026-05-03T14:09:23.049Z</time></trkpt><trkpt lat="45.9296379" lon="10.8201036"><ele>571.0</ele><time>2026-05-03T14:09:24.049Z</time></trkpt><trkpt lat="45.9296721" lon="10.8202658"><ele>571.0</ele><time>2026-05-03T14:09:25.049Z</time></trkpt><trkpt lat="45.9297056" lon="10.8204266"><ele>571.0</ele><time>2026-05-03T14:09:26.049Z</time></trkpt><trkpt lat="45.9297384" lon="10.8205891"><ele>570.0</ele><time>2026-05-03T14:09:27.049Z</time></trkpt><trkpt lat="45.9297725" lon="10.8207409"><ele>569.0</ele><time>2026-05-03T14:09:28.049Z</time></trkpt><trkpt lat="45.9298108" lon="10.8208921"><ele>568.0</ele><time>2026-05-03T14:09:29.049Z</time></trkpt><trkpt lat="45.9298558" lon="10.8210359"><ele>567.0</ele><time>2026-05-03T14:09:30.049Z</time></trkpt><trkpt lat="45.9298984" lon="10.8211817"><ele>566.0</ele><time>2026-05-03T14:09:31.048Z</time></trkpt><trkpt lat="45.9299471" lon="10.8213332"><ele>565.5</ele><time>2026-05-03T14:09:32.049Z</time></trkpt><trkpt lat="45.9299987" lon="10.8214912"><ele>565.0</ele><time>2026-05-03T14:09:33.048Z</time></trkpt><trkpt lat="45.9300507" lon="10.8216467"><ele>564.5</ele><time>2026-05-03T14:09:34.048Z</time></trkpt><trkpt lat="45.9301023" lon="10.8218036"><ele>564.0</ele><time>2026-05-03T14:09:35.049Z</time></trkpt><trkpt lat="45.9301556" lon="10.8219637"><ele>564.0</ele><time>2026-05-03T14:09:36.049Z</time></trkpt><trkpt lat="45.9302069" lon="10.8221259"><ele>564.0</ele><time>2026-05-03T14:09:37.049Z</time></trkpt><trkpt lat="45.9302573" lon="10.822279"><ele>564.0</ele><time>2026-05-03T14:09:38.049Z</time></trkpt><trkpt lat="45.9303118" lon="10.8224367"><ele>564.0</ele><time>2026-05-03T14:09:39.048Z</time></trkpt><trkpt lat="45.930358" lon="10.8225793"><ele>562.8</ele><time>2026-05-03T14:09:40.049Z</time></trkpt><trkpt lat="45.9304035" lon="10.8227269"><ele>561.5999999999999</ele><time>2026-05-03T14:09:41.049Z</time></trkpt><trkpt lat="45.930452" lon="10.8228648"><ele>560.4</ele><time>2026-05-03T14:09:42.049Z</time></trkpt><trkpt lat="45.9304917" lon="10.8230058"><ele>559.1999999999999</ele><time>2026-05-03T14:09:43.048Z</time></trkpt><trkpt lat="45.9305187" lon="10.823154"><ele>558.0</ele><time>2026-05-03T14:09:44.048Z</time></trkpt><trkpt lat="45.9305266" lon="10.8233166"><ele>558.0</ele><time>2026-05-03T14:09:45.048Z</time></trkpt><trkpt lat="45.9305148" lon="10.8234674"><ele>558.0</ele><time>2026-05-03T14:09:46.048Z</time></trkpt><trkpt lat="45.9304927" lon="10.8236103"><ele>558.0</ele><time>2026-05-03T14:09:47.048Z</time></trkpt><trkpt lat="45.9304577" lon="10.8237385"><ele>558.0</ele><time>2026-05-03T14:09:48.048Z</time></trkpt><trkpt lat="45.9304058" lon="10.8238449"><ele>558.0</ele><time>2026-05-03T14:09:49.049Z</time></trkpt><trkpt lat="45.9303353" lon="10.8239102"><ele>557.3333333333334</ele><time>2026-05-03T14:09:50.048Z</time></trkpt><trkpt lat="45.9302649" lon="10.8239598"><ele>556.6666666666666</ele><time>2026-05-03T14:09:51.049Z</time></trkpt><trkpt lat="45.9301903" lon="10.823989"><ele>556.0</ele><time>2026-05-03T14:09:52.048Z</time></trkpt><trkpt lat="45.930112" lon="10.8239886"><ele>555.3333333333333</ele><time>2026-05-03T14:09:53.049Z</time></trkpt><trkpt lat="45.9300325" lon="10.8239749"><ele>554.6666666666666</ele><time>2026-05-03T14:09:54.049Z</time></trkpt><trkpt lat="45.929956" lon="10.8239504"><ele>554.0</ele><time>2026-05-03T14:09:55.049Z</time></trkpt><trkpt lat="45.9298718" lon="10.8239256"><ele>554.0</ele><time>2026-05-03T14:09:56.049Z</time></trkpt><trkpt lat="45.9297929" lon="10.823894"><ele>554.0</ele><time>2026-05-03T14:09:57.048Z</time></trkpt><trkpt lat="45.9297155" lon="10.8238597"><ele>554.0</ele><time>2026-05-03T14:09:58.048Z</time></trkpt><trkpt lat="45.9296319" lon="10.8238392"><ele>554.0</ele><time>2026-05-03T14:09:59.049Z</time></trkpt><trkpt lat="45.929549" lon="10.8238143"><ele>554.0</ele><time>2026-05-03T14:10:00.049Z</time></trkpt><trkpt lat="45.929464" lon="10.8237936"><ele>554.0</ele><time>2026-05-03T14:10:01.049Z</time></trkpt><trkpt lat="45.9293803" lon="10.8237873"><ele>554.0</ele><time>2026-05-03T14:10:02.048Z</time></trkpt><trkpt lat="45.9292994" lon="10.8238048"><ele>554.0</ele><time>2026-05-03T14:10:03.049Z</time></trkpt><trkpt lat="45.9292166" lon="10.8238581"><ele>554.0</ele><time>2026-05-03T14:10:04.048Z</time></trkpt><trkpt lat="45.9291496" lon="10.8239452"><ele>554.0</ele><time>2026-05-03T14:10:05.049Z</time></trkpt><trkpt lat="45.9290998" lon="10.8240461"><ele>554.0</ele><time>2026-05-03T14:10:06.049Z</time></trkpt><trkpt lat="45.9290807" lon="10.8241687"><ele>554.0</ele><time>2026-05-03T14:10:07.049Z</time></trkpt><trkpt lat="45.9290705" lon="10.824302"><ele>555.8</ele><time>2026-05-03T14:10:08.049Z</time></trkpt><trkpt lat="45.9290567" lon="10.8244398"><ele>557.5999999999999</ele><time>2026-05-03T14:10:09.049Z</time></trkpt><trkpt lat="45.9290196" lon="10.8245625"><ele>559.4</ele><time>2026-05-03T14:10:10.049Z</time></trkpt><trkpt lat="45.9289491" lon="10.8246576"><ele>561.1999999999999</ele><time>2026-05-03T14:10:11.048Z</time></trkpt><trkpt lat="45.9288689" lon="10.8247084"><ele>563.0</ele><time>2026-05-03T14:10:12.049Z</time></trkpt><trkpt lat="45.9287778" lon="10.824727"><ele>563.0</ele><time>2026-05-03T14:10:13.049Z</time></trkpt><trkpt lat="45.9286771" lon="10.8247263"><ele>563.0</ele><time>2026-05-03T14:10:14.049Z</time></trkpt><trkpt lat="45.9285552" lon="10.8247305"><ele>563.0</ele><time>2026-05-03T14:10:15.049Z</time></trkpt><trkpt lat="45.9284353" lon="10.8247389"><ele>563.0</ele><time>2026-05-03T14:10:16.048Z</time></trkpt><trkpt lat="45.9283179" lon="10.8247488"><ele>558.0</ele><time>2026-05-03T14:10:17.048Z</time></trkpt><trkpt lat="45.9281994" lon="10.8247842"><ele>553.0</ele><time>2026-05-03T14:10:18.049Z</time></trkpt><trkpt lat="45.9280965" lon="10.8248517"><ele>548.0</ele><time>2026-05-03T14:10:19.049Z</time></trkpt><trkpt lat="45.9280033" lon="10.8249446"><ele>543.0</ele><time>2026-05-03T14:10:20.048Z</time></trkpt><trkpt lat="45.9279167" lon="10.8250454"><ele>546.5</ele><time>2026-05-03T14:10:21.048Z</time></trkpt><trkpt lat="45.9278297" lon="10.8251502"><ele>550.0</ele><time>2026-05-03T14:10:22.049Z</time></trkpt><trkpt lat="45.9277434" lon="10.8252638"><ele>553.5</ele><time>2026-05-03T14:10:23.049Z</time></trkpt><trkpt lat="45.9276551" lon="10.825374"><ele>557.0</ele><time>2026-05-03T14:10:24.049Z</time></trkpt><trkpt lat="45.9275627" lon="10.8254842"><ele>551.5</ele><time>2026-05-03T14:10:25.048Z</time></trkpt><trkpt lat="45.9274721" lon="10.8255964"><ele>546.0</ele><time>2026-05-03T14:10:26.049Z</time></trkpt><trkpt lat="45.9273803" lon="10.8257045"><ele>540.5</ele><time>2026-05-03T14:10:27.048Z</time></trkpt><trkpt lat="45.9272883" lon="10.8258129"><ele>535.0</ele><time>2026-05-03T14:10:28.049Z</time></trkpt><trkpt lat="45.927193" lon="10.8259117"><ele>537.4</ele><time>2026-05-03T14:10:29.048Z</time></trkpt><trkpt lat="45.9271053" lon="10.8260186"><ele>539.8</ele><time>2026-05-03T14:10:30.049Z</time></trkpt><trkpt lat="45.9270339" lon="10.8261334"><ele>542.2</ele><time>2026-05-03T14:10:31.049Z</time></trkpt><trkpt lat="45.926977" lon="10.8262667"><ele>544.6</ele><time>2026-05-03T14:10:32.048Z</time></trkpt><trkpt lat="45.9269511" lon="10.8264157"><ele>547.0</ele><time>2026-05-03T14:10:33.049Z</time></trkpt><trkpt lat="45.9269546" lon="10.8265579"><ele>547.0</ele><time>2026-05-03T14:10:34.049Z</time></trkpt><trkpt lat="45.926968" lon="10.8267215"><ele>547.0</ele><time>2026-05-03T14:10:35.048Z</time></trkpt><trkpt lat="45.926979" lon="10.8268731"><ele>547.0</ele><time>2026-05-03T14:10:36.048Z</time></trkpt><trkpt lat="45.9269732" lon="10.8270263"><ele>547.0</ele><time>2026-05-03T14:10:37.049Z</time></trkpt><trkpt lat="45.9269428" lon="10.8271632"><ele>547.0</ele><time>2026-05-03T14:10:38.048Z</time></trkpt><trkpt lat="45.9268906" lon="10.8272811"><ele>549.0</ele><time>2026-05-03T14:10:39.049Z</time></trkpt><trkpt lat="45.9268122" lon="10.8273756"><ele>551.0</ele><time>2026-05-03T14:10:40.049Z</time></trkpt><trkpt lat="45.9267111" lon="10.8274257"><ele>553.0</ele><time>2026-05-03T14:10:41.049Z</time></trkpt><trkpt lat="45.9266062" lon="10.8274343"><ele>555.0</ele><time>2026-05-03T14:10:42.049Z</time></trkpt><trkpt lat="45.9264945" lon="10.8274246"><ele>557.0</ele><time>2026-05-03T14:10:43.049Z</time></trkpt><trkpt lat="45.9263882" lon="10.8274214"><ele>556.0</ele><time>2026-05-03T14:10:44.049Z</time></trkpt><trkpt lat="45.9262872" lon="10.8274436"><ele>555.0</ele><time>2026-05-03T14:10:45.049Z</time></trkpt><trkpt lat="45.9261875" lon="10.8274973"><ele>554.0</ele><time>2026-05-03T14:10:46.049Z</time></trkpt><trkpt lat="45.9260994" lon="10.8276029"><ele>553.0</ele><time>2026-05-03T14:10:47.048Z</time></trkpt><trkpt lat="45.926017" lon="10.8277231"><ele>552.0</ele><time>2026-05-03T14:10:48.049Z</time></trkpt><trkpt lat="45.9259384" lon="10.8278417"><ele>544.5</ele><time>2026-05-03T14:10:49.048Z</time></trkpt><trkpt lat="45.925859" lon="10.8279639"><ele>537.0</ele><time>2026-05-03T14:10:50.049Z</time></trkpt><trkpt lat="45.9257801" lon="10.82808"><ele>529.5</ele><time>2026-05-03T14:10:51.048Z</time></trkpt><trkpt lat="45.9257025" lon="10.8281935"><ele>522.0</ele><time>2026-05-03T14:10:52.049Z</time></trkpt><trkpt lat="45.9256204" lon="10.8283031"><ele>522.0</ele><time>2026-05-03T14:10:53.049Z</time></trkpt><trkpt lat="45.9255364" lon="10.8284049"><ele>522.0</ele><time>2026-05-03T14:10:54.049Z</time></trkpt><trkpt lat="45.9254501" lon="10.8285038"><ele>522.0</ele><time>2026-05-03T14:10:55.049Z</time></trkpt><trkpt lat="45.9253583" lon="10.8285972"><ele>522.0</ele><time>2026-05-03T14:10:56.048Z</time></trkpt><trkpt lat="45.9252699" lon="10.828691"><ele>522.0</ele><time>2026-05-03T14:10:57.049Z</time></trkpt><trkpt lat="45.9251847" lon="10.8287794"><ele>520.6</ele><time>2026-05-03T14:10:58.049Z</time></trkpt><trkpt lat="45.9251003" lon="10.8288687"><ele>519.2</ele><time>2026-05-03T14:10:59.049Z</time></trkpt><trkpt lat="45.9250243" lon="10.8289574"><ele>517.8</ele><time>2026-05-03T14:11:00.049Z</time></trkpt><trkpt lat="45.9249572" lon="10.829047"><ele>516.4</ele><time>2026-05-03T14:11:01.049Z</time></trkpt><trkpt lat="45.9248948" lon="10.8291347"><ele>515.0</ele><time>2026-05-03T14:11:02.048Z</time></trkpt><trkpt lat="45.9248481" lon="10.8292092"><ele>515.0</ele><time>2026-05-03T14:11:03.048Z</time></trkpt><trkpt lat="45.9247714" lon="10.8292727"><ele>515.0</ele><time>2026-05-03T14:11:05.049Z</time></trkpt><trkpt lat="45.9247218" lon="10.8291995"><ele>515.0</ele><time>2026-05-03T14:11:07.049Z</time></trkpt><trkpt lat="45.9247741" lon="10.8290612"><ele>515.0</ele><time>2026-05-03T14:11:09.049Z</time></trkpt><trkpt lat="45.9248288" lon="10.8289733"><ele>515.0</ele><time>2026-05-03T14:11:10.049Z</time></trkpt><trkpt lat="45.924904" lon="10.8288824"><ele>515.0</ele><time>2026-05-03T14:11:11.049Z</time></trkpt><trkpt lat="45.9250001" lon="10.828765"><ele>516.75</ele><time>2026-05-03T14:11:12.048Z</time></trkpt><trkpt lat="45.9250963" lon="10.8286306"><ele>518.5</ele><time>2026-05-03T14:11:13.048Z</time></trkpt><trkpt lat="45.9251956" lon="10.8284735"><ele>520.25</ele><time>2026-05-03T14:11:14.049Z</time></trkpt><trkpt lat="45.9252946" lon="10.8283077"><ele>522.0</ele><time>2026-05-03T14:11:15.049Z</time></trkpt><trkpt lat="45.9253857" lon="10.8281398"><ele>522.0</ele><time>2026-05-03T14:11:16.049Z</time></trkpt><trkpt lat="45.925479" lon="10.8279687"><ele>522.0</ele><time>2026-05-03T14:11:17.049Z</time></trkpt><trkpt lat="45.9255719" lon="10.8278147"><ele>522.0</ele><time>2026-05-03T14:11:18.049Z</time></trkpt><trkpt lat="45.9256636" lon="10.8276709"><ele>522.0</ele><time>2026-05-03T14:11:19.048Z</time></trkpt><trkpt lat="45.9257474" lon="10.8275312"><ele>522.4</ele><time>2026-05-03T14:11:20.049Z</time></trkpt><trkpt lat="45.9258284" lon="10.8274113"><ele>522.8000000000001</ele><time>2026-05-03T14:11:21.048Z</time></trkpt><trkpt lat="45.9258942" lon="10.8273137"><ele>523.2</ele><time>2026-05-03T14:11:22.048Z</time></trkpt><trkpt lat="45.9259507" lon="10.827237"><ele>523.6</ele><time>2026-05-03T14:11:23.048Z</time></trkpt><trkpt lat="45.9259937" lon="10.8271525"><ele>524.0</ele><time>2026-05-03T14:11:24.049Z</time></trkpt><trkpt lat="45.9259703" lon="10.8270071"><ele>519.4</ele><time>2026-05-03T14:11:26.049Z</time></trkpt><trkpt lat="45.9258394" lon="10.8269631"><ele>514.8</ele><time>2026-05-03T14:11:28.048Z</time></trkpt><trkpt lat="45.9257782" lon="10.8270131"><ele>510.20000000000005</ele><time>2026-05-03T14:11:29.049Z</time></trkpt><trkpt lat="45.9257346" lon="10.8271184"><ele>505.6</ele><time>2026-05-03T14:11:30.049Z</time></trkpt><trkpt lat="45.9256875" lon="10.8272312"><ele>501.0</ele><time>2026-05-03T14:11:31.049Z</time></trkpt><trkpt lat="45.925632" lon="10.8273642"><ele>501.0</ele><time>2026-05-03T14:11:32.048Z</time></trkpt><trkpt lat="45.9255564" lon="10.8274963"><ele>501.0</ele><time>2026-05-03T14:11:33.048Z</time></trkpt><trkpt lat="45.9254719" lon="10.8276276"><ele>501.0</ele><time>2026-05-03T14:11:34.048Z</time></trkpt><trkpt lat="45.9253756" lon="10.8277574"><ele>501.0</ele><time>2026-05-03T14:11:35.048Z</time></trkpt><trkpt lat="45.9252773" lon="10.8278977"><ele>498.0</ele><time>2026-05-03T14:11:36.049Z</time></trkpt><trkpt lat="45.9251762" lon="10.8280439"><ele>495.0</ele><time>2026-05-03T14:11:37.049Z</time></trkpt><trkpt lat="45.9250699" lon="10.8281831"><ele>492.0</ele><time>2026-05-03T14:11:38.049Z</time></trkpt><trkpt lat="45.9249566" lon="10.8283153"><ele>489.0</ele><time>2026-05-03T14:11:39.048Z</time></trkpt><trkpt lat="45.9248431" lon="10.8284494"><ele>497.66666666666663</ele><time>2026-05-03T14:11:40.048Z</time></trkpt><trkpt lat="45.9247244" lon="10.8285825"><ele>506.3333333333333</ele><time>2026-05-03T14:11:41.049Z</time></trkpt><trkpt lat="45.9246047" lon="10.8287235"><ele>515.0</ele><time>2026-05-03T14:11:42.049Z</time></trkpt><trkpt lat="45.9244841" lon="10.8288644"><ele>515.0</ele><time>2026-05-03T14:11:43.048Z</time></trkpt><trkpt lat="45.9243567" lon="10.8290091"><ele>515.0</ele><time>2026-05-03T14:11:44.049Z</time></trkpt><trkpt lat="45.924227" lon="10.8291482"><ele>515.0</ele><time>2026-05-03T14:11:45.049Z</time></trkpt><trkpt lat="45.924101" lon="10.8292928"><ele>515.3333333333333</ele><time>2026-05-03T14:11:46.049Z</time></trkpt><trkpt lat="45.9239736" lon="10.8294305"><ele>515.6666666666666</ele><time>2026-05-03T14:11:47.049Z</time></trkpt><trkpt lat="45.9238475" lon="10.8295582"><ele>516.0</ele><time>2026-05-03T14:11:48.048Z</time></trkpt><trkpt lat="45.9237217" lon="10.8296779"><ele>516.0</ele><time>2026-05-03T14:11:49.049Z</time></trkpt><trkpt lat="45.9235965" lon="10.8297899"><ele>516.0</ele><time>2026-05-03T14:11:50.048Z</time></trkpt><trkpt lat="45.9234698" lon="10.8299024"><ele>516.0</ele><time>2026-05-03T14:11:51.049Z</time></trkpt><trkpt lat="45.9233509" lon="10.8300143"><ele>516.0</ele><time>2026-05-03T14:11:52.049Z</time></trkpt><trkpt lat="45.9232425" lon="10.8301415"><ele>510.75</ele><time>2026-05-03T14:11:53.049Z</time></trkpt><trkpt lat="45.9231504" lon="10.8302912"><ele>505.5</ele><time>2026-05-03T14:11:54.048Z</time></trkpt><trkpt lat="45.9230766" lon="10.8304626"><ele>500.25</ele><time>2026-05-03T14:11:55.049Z</time></trkpt><trkpt lat="45.9230074" lon="10.830644"><ele>495.0</ele><time>2026-05-03T14:11:56.049Z</time></trkpt><trkpt lat="45.9229435" lon="10.8308326"><ele>500.25</ele><time>2026-05-03T14:11:57.049Z</time></trkpt><trkpt lat="45.9228734" lon="10.8310138"><ele>505.5</ele><time>2026-05-03T14:11:58.049Z</time></trkpt><trkpt lat="45.9227963" lon="10.831176"><ele>510.75</ele><time>2026-05-03T14:11:59.049Z</time></trkpt><trkpt lat="45.9226967" lon="10.8312944"><ele>516.0</ele><time>2026-05-03T14:12:00.049Z</time></trkpt><trkpt lat="45.9225859" lon="10.831378"><ele>506.25</ele><time>2026-05-03T14:12:01.049Z</time></trkpt><trkpt lat="45.9224643" lon="10.8314311"><ele>496.5</ele><time>2026-05-03T14:12:02.048Z</time></trkpt><trkpt lat="45.9223405" lon="10.8314748"><ele>486.75</ele><time>2026-05-03T14:12:03.049Z</time></trkpt><trkpt lat="45.9222105" lon="10.8315231"><ele>477.0</ele><time>2026-05-03T14:12:04.049Z</time></trkpt><trkpt lat="45.9220908" lon="10.8315761"><ele>477.0</ele><time>2026-05-03T14:12:05.049Z</time></trkpt><trkpt lat="45.9219807" lon="10.8316564"><ele>477.0</ele><time>2026-05-03T14:12:06.049Z</time></trkpt><trkpt lat="45.9218787" lon="10.831772"><ele>477.0</ele><time>2026-05-03T14:12:07.049Z</time></trkpt><trkpt lat="45.9217833" lon="10.8319078"><ele>477.0</ele><time>2026-05-03T14:12:08.048Z</time></trkpt><trkpt lat="45.9216996" lon="10.8320613"><ele>474.25</ele><time>2026-05-03T14:12:09.049Z</time></trkpt><trkpt lat="45.9216097" lon="10.8322101"><ele>471.5</ele><time>2026-05-03T14:12:10.049Z</time></trkpt><trkpt lat="45.9215259" lon="10.8323414"><ele>468.75</ele><time>2026-05-03T14:12:11.048Z</time></trkpt><trkpt lat="45.9214523" lon="10.8324592"><ele>466.0</ele><time>2026-05-03T14:12:12.049Z</time></trkpt><trkpt lat="45.9213914" lon="10.8325527"><ele>466.00000000000006</ele><time>2026-05-03T14:12:13.049Z</time></trkpt><trkpt lat="45.9213368" lon="10.8326017"><ele>466.0</ele><time>2026-05-03T14:12:14.049Z</time></trkpt><trkpt lat="45.9212516" lon="10.8325236"><ele>466.0</ele><time>2026-05-03T14:12:16.049Z</time></trkpt><trkpt lat="45.921246" lon="10.8324201"><ele>466.0</ele><time>2026-05-03T14:12:17.048Z</time></trkpt><trkpt lat="45.9212802" lon="10.8323094"><ele>466.00000000000006</ele><time>2026-05-03T14:12:18.049Z</time></trkpt><trkpt lat="45.9213283" lon="10.8321966"><ele>466.0</ele><time>2026-05-03T14:12:19.049Z</time></trkpt><trkpt lat="45.9213855" lon="10.8320527"><ele>466.0</ele><time>2026-05-03T14:12:20.049Z</time></trkpt><trkpt lat="45.9214462" lon="10.8319054"><ele>466.0</ele><time>2026-05-03T14:12:21.049Z</time></trkpt><trkpt lat="45.9215168" lon="10.831742"><ele>466.0</ele><time>2026-05-03T14:12:22.049Z</time></trkpt><trkpt lat="45.9215826" lon="10.8315653"><ele>466.0</ele><time>2026-05-03T14:12:23.048Z</time></trkpt><trkpt lat="45.9216472" lon="10.8313818"><ele>464.0</ele><time>2026-05-03T14:12:24.049Z</time></trkpt><trkpt lat="45.9217146" lon="10.8312078"><ele>462.0</ele><time>2026-05-03T14:12:25.048Z</time></trkpt><trkpt lat="45.9217878" lon="10.8310481"><ele>460.0</ele><time>2026-05-03T14:12:26.049Z</time></trkpt><trkpt lat="45.9218754" lon="10.8309237"><ele>458.0</ele><time>2026-05-03T14:12:27.049Z</time></trkpt><trkpt lat="45.921977" lon="10.8308341"><ele>458.0</ele><time>2026-05-03T14:12:28.049Z</time></trkpt><trkpt lat="45.9220956" lon="10.8307727"><ele>457.99999999999994</ele><time>2026-05-03T14:12:29.049Z</time></trkpt><trkpt lat="45.9222091" lon="10.8307598"><ele>457.99999999999994</ele><time>2026-05-03T14:12:30.049Z</time></trkpt><trkpt lat="45.9223133" lon="10.8307846"><ele>458.0</ele><time>2026-05-03T14:12:31.049Z</time></trkpt><trkpt lat="45.9224112" lon="10.8308057"><ele>458.0</ele><time>2026-05-03T14:12:32.049Z</time></trkpt><trkpt lat="45.9224911" lon="10.830813"><ele>458.0</ele><time>2026-05-03T14:12:33.049Z</time></trkpt><trkpt lat="45.9225588" lon="10.8307751"><ele>457.99999999999994</ele><time>2026-05-03T14:12:34.048Z</time></trkpt><trkpt lat="45.9226014" lon="10.830622"><ele>457.99999999999994</ele><time>2026-05-03T14:12:36.048Z</time></trkpt><trkpt lat="45.9225025" lon="10.8305315"><ele>458.0</ele><time>2026-05-03T14:12:38.049Z</time></trkpt><trkpt lat="45.9224212" lon="10.8305096"><ele>458.0</ele><time>2026-05-03T14:12:39.048Z</time></trkpt><trkpt lat="45.9223328" lon="10.83049"><ele>458.0</ele><time>2026-05-03T14:12:40.049Z</time></trkpt><trkpt lat="45.9222374" lon="10.8304504"><ele>457.99999999999994</ele><time>2026-05-03T14:12:41.049Z</time></trkpt><trkpt lat="45.9221417" lon="10.8304052"><ele>457.99999999999994</ele><time>2026-05-03T14:12:42.048Z</time></trkpt><trkpt lat="45.922041" lon="10.8303749"><ele>458.0</ele><time>2026-05-03T14:12:43.049Z</time></trkpt><trkpt lat="45.9219363" lon="10.8303807"><ele>458.0</ele><time>2026-05-03T14:12:44.049Z</time></trkpt><trkpt lat="45.9218294" lon="10.8304232"><ele>454.0</ele><time>2026-05-03T14:12:45.049Z</time></trkpt><trkpt lat="45.9217283" lon="10.8304979"><ele>450.0</ele><time>2026-05-03T14:12:46.048Z</time></trkpt><trkpt lat="45.9216347" lon="10.8306035"><ele>446.0</ele><time>2026-05-03T14:12:47.049Z</time></trkpt><trkpt lat="45.9215539" lon="10.8307225"><ele>442.0</ele><time>2026-05-03T14:12:48.049Z</time></trkpt><trkpt lat="45.9214737" lon="10.8308367"><ele>442.0</ele><time>2026-05-03T14:12:49.049Z</time></trkpt><trkpt lat="45.921394" lon="10.8309438"><ele>442.00000000000006</ele><time>2026-05-03T14:12:50.049Z</time></trkpt><trkpt lat="45.9213121" lon="10.8310505"><ele>442.00000000000006</ele><time>2026-05-03T14:12:51.049Z</time></trkpt><trkpt lat="45.9212345" lon="10.8311405"><ele>442.0</ele><time>2026-05-03T14:12:52.049Z</time></trkpt><trkpt lat="45.9211646" lon="10.8312337"><ele>442.0</ele><time>2026-05-03T14:12:53.049Z</time></trkpt><trkpt lat="45.9210982" lon="10.8313196"><ele>441.6666666666667</ele><time>2026-05-03T14:12:54.049Z</time></trkpt><trkpt lat="45.9210381" lon="10.8313956"><ele>441.33333333333337</ele><time>2026-05-03T14:12:55.048Z</time></trkpt><trkpt lat="45.9209838" lon="10.831448"><ele>441.0</ele><time>2026-05-03T14:12:56.049Z</time></trkpt><trkpt lat="45.9208945" lon="10.8314156"><ele>440.66666666666663</ele><time>2026-05-03T14:12:58.048Z</time></trkpt><trkpt lat="45.9209045" lon="10.8312572"><ele>440.3333333333333</ele><time>2026-05-03T14:13:00.048Z</time></trkpt><trkpt lat="45.9209627" lon="10.8311674"><ele>440.0</ele><time>2026-05-03T14:13:01.048Z</time></trkpt><trkpt lat="45.9210339" lon="10.8310798"><ele>440.5</ele><time>2026-05-03T14:13:02.049Z</time></trkpt><trkpt lat="45.9211186" lon="10.8309847"><ele>441.0</ele><time>2026-05-03T14:13:03.048Z</time></trkpt><trkpt lat="45.921218" lon="10.830879"><ele>441.5</ele><time>2026-05-03T14:13:04.048Z</time></trkpt><trkpt lat="45.9213109" lon="10.8307771"><ele>442.0</ele><time>2026-05-03T14:13:05.049Z</time></trkpt><trkpt lat="45.9213945" lon="10.8306875"><ele>442.00000000000006</ele><time>2026-05-03T14:13:06.049Z</time></trkpt><trkpt lat="45.9214592" lon="10.8306032"><ele>442.0</ele><time>2026-05-03T14:13:07.049Z</time></trkpt><trkpt lat="45.921476" lon="10.8305092"><ele>442.0</ele><time>2026-05-03T14:13:08.048Z</time></trkpt><trkpt lat="45.9213963" lon="10.8303808"><ele>442.0</ele><time>2026-05-03T14:13:10.049Z</time></trkpt><trkpt lat="45.9213128" lon="10.8304031"><ele>442.00000000000006</ele><time>2026-05-03T14:13:11.048Z</time></trkpt><trkpt lat="45.9212296" lon="10.8304433"><ele>442.0</ele><time>2026-05-03T14:13:12.049Z</time></trkpt><trkpt lat="45.9211342" lon="10.8305095"><ele>442.0</ele><time>2026-05-03T14:13:13.049Z</time></trkpt><trkpt lat="45.9210291" lon="10.8305828"><ele>442.0</ele><time>2026-05-03T14:13:14.049Z</time></trkpt><trkpt lat="45.9209132" lon="10.8306589"><ele>442.0</ele><time>2026-05-03T14:13:15.049Z</time></trkpt><trkpt lat="45.9207896" lon="10.830736"><ele>442.0</ele><time>2026-05-03T14:13:16.048Z</time></trkpt><trkpt lat="45.9206648" lon="10.8308206"><ele>441.5</ele><time>2026-05-03T14:13:17.049Z</time></trkpt><trkpt lat="45.9205416" lon="10.8309038"><ele>441.0</ele><time>2026-05-03T14:13:18.049Z</time></trkpt><trkpt lat="45.9204254" lon="10.8309809"><ele>440.5</ele><time>2026-05-03T14:13:19.048Z</time></trkpt><trkpt lat="45.9203307" lon="10.83105"><ele>440.0</ele><time>2026-05-03T14:13:20.048Z</time></trkpt><trkpt lat="45.9202578" lon="10.8311249"><ele>439.99999999999994</ele><time>2026-05-03T14:13:21.049Z</time></trkpt><trkpt lat="45.9202023" lon="10.8311983"><ele>440.0</ele><time>2026-05-03T14:13:22.049Z</time></trkpt><trkpt lat="45.9201362" lon="10.8312976"><ele>440.0</ele><time>2026-05-03T14:13:24.048Z</time></trkpt><trkpt lat="45.9200912" lon="10.8313634"><ele>440.0</ele><time>2026-05-03T14:13:26.048Z</time></trkpt><trkpt lat="45.9200276" lon="10.8314727"><ele>439.99999999999994</ele><time>2026-05-03T14:13:41.048Z</time></trkpt><trkpt lat="45.9199897" lon="10.8315459"><ele>440.0</ele><time>2026-05-03T14:13:42.048Z</time></trkpt><trkpt lat="45.9199318" lon="10.8316471"><ele>438.8</ele><time>2026-05-03T14:13:43.048Z</time></trkpt><trkpt lat="45.9198672" lon="10.8317513"><ele>437.6</ele><time>2026-05-03T14:13:44.047Z</time></trkpt><trkpt lat="45.9198024" lon="10.8318686"><ele>436.4</ele><time>2026-05-03T14:13:45.047Z</time></trkpt><trkpt lat="45.9197365" lon="10.8319811"><ele>435.2</ele><time>2026-05-03T14:13:46.048Z</time></trkpt><trkpt lat="45.9196676" lon="10.8320839"><ele>434.0</ele><time>2026-05-03T14:13:47.048Z</time></trkpt><trkpt lat="45.9195901" lon="10.8321618"><ele>434.0</ele><time>2026-05-03T14:13:48.048Z</time></trkpt><trkpt lat="45.9195071" lon="10.8322169"><ele>434.0</ele><time>2026-05-03T14:13:49.047Z</time></trkpt><trkpt lat="45.919421" lon="10.8322615"><ele>434.0</ele><time>2026-05-03T14:13:50.048Z</time></trkpt><trkpt lat="45.9193271" lon="10.8323002"><ele>434.0</ele><time>2026-05-03T14:13:51.048Z</time></trkpt><trkpt lat="45.9192335" lon="10.8323392"><ele>434.0</ele><time>2026-05-03T14:13:52.048Z</time></trkpt><trkpt lat="45.9191396" lon="10.8323858"><ele>431.6</ele><time>2026-05-03T14:13:53.047Z</time></trkpt><trkpt lat="45.9190414" lon="10.8324285"><ele>429.2</ele><time>2026-05-03T14:13:54.048Z</time></trkpt><trkpt lat="45.91894" lon="10.8324723"><ele>426.8</ele><time>2026-05-03T14:13:55.047Z</time></trkpt><trkpt lat="45.9188368" lon="10.83251"><ele>424.40000000000003</ele><time>2026-05-03T14:13:56.048Z</time></trkpt><trkpt lat="45.9187323" lon="10.8325614"><ele>422.0</ele><time>2026-05-03T14:13:57.048Z</time></trkpt><trkpt lat="45.9186272" lon="10.8326054"><ele>421.20000000000005</ele><time>2026-05-03T14:13:58.048Z</time></trkpt><trkpt lat="45.9185182" lon="10.8326457"><ele>420.4</ele><time>2026-05-03T14:13:59.048Z</time></trkpt><trkpt lat="45.9184126" lon="10.8326969"><ele>419.6</ele><time>2026-05-03T14:14:00.048Z</time></trkpt><trkpt lat="45.918312" lon="10.8327479"><ele>418.79999999999995</ele><time>2026-05-03T14:14:01.048Z</time></trkpt><trkpt lat="45.9182079" lon="10.8327877"><ele>418.0</ele><time>2026-05-03T14:14:02.048Z</time></trkpt><trkpt lat="45.9181084" lon="10.8328294"><ele>418.0</ele><time>2026-05-03T14:14:03.047Z</time></trkpt><trkpt lat="45.9180126" lon="10.8328686"><ele>418.0</ele><time>2026-05-03T14:14:04.047Z</time></trkpt><trkpt lat="45.9179199" lon="10.8329086"><ele>418.0</ele><time>2026-05-03T14:14:05.047Z</time></trkpt><trkpt lat="45.9178301" lon="10.8329454"><ele>418.0</ele><time>2026-05-03T14:14:06.048Z</time></trkpt><trkpt lat="45.9177481" lon="10.8329849"><ele>418.0</ele><time>2026-05-03T14:14:07.048Z</time></trkpt><trkpt lat="45.9176671" lon="10.8330225"><ele>418.00000000000006</ele><time>2026-05-03T14:14:08.047Z</time></trkpt><trkpt lat="45.9175906" lon="10.8330656"><ele>418.0</ele><time>2026-05-03T14:14:09.048Z</time></trkpt><trkpt lat="45.9175121" lon="10.8331205"><ele>418.0</ele><time>2026-05-03T14:14:10.048Z</time></trkpt><trkpt lat="45.9174476" lon="10.8331815"><ele>418.0</ele><time>2026-05-03T14:14:11.048Z</time></trkpt><trkpt lat="45.9173936" lon="10.8332502"><ele>418.00000000000006</ele><time>2026-05-03T14:14:12.048Z</time></trkpt><trkpt lat="45.9173565" lon="10.833324"><ele>418.0</ele><time>2026-05-03T14:14:13.047Z</time></trkpt><trkpt lat="45.9173341" lon="10.8334307"><ele>416.79999999999995</ele><time>2026-05-03T14:14:14.048Z</time></trkpt><trkpt lat="45.9173451" lon="10.8335425"><ele>415.6</ele><time>2026-05-03T14:14:15.048Z</time></trkpt><trkpt lat="45.9173686" lon="10.8336739"><ele>414.4</ele><time>2026-05-03T14:14:16.048Z</time></trkpt><trkpt lat="45.9173906" lon="10.8338213"><ele>413.20000000000005</ele><time>2026-05-03T14:14:17.048Z</time></trkpt><trkpt lat="45.9174058" lon="10.8339613"><ele>412.0</ele><time>2026-05-03T14:14:18.048Z</time></trkpt><trkpt lat="45.9174133" lon="10.8341024"><ele>412.0</ele><time>2026-05-03T14:14:19.048Z</time></trkpt><trkpt lat="45.9174038" lon="10.8342487"><ele>412.0</ele><time>2026-05-03T14:14:20.048Z</time></trkpt><trkpt lat="45.917371" lon="10.834388"><ele>412.0</ele><time>2026-05-03T14:14:21.048Z</time></trkpt><trkpt lat="45.9173164" lon="10.8345122"><ele>412.0</ele><time>2026-05-03T14:14:22.048Z</time></trkpt><trkpt lat="45.9172405" lon="10.8346194"><ele>412.0</ele><time>2026-05-03T14:14:23.048Z</time></trkpt><trkpt lat="45.9171424" lon="10.8347124"><ele>407.75</ele><time>2026-05-03T14:14:24.048Z</time></trkpt><trkpt lat="45.9170326" lon="10.8348009"><ele>403.5</ele><time>2026-05-03T14:14:25.048Z</time></trkpt><trkpt lat="45.9169279" lon="10.8348904"><ele>399.25</ele><time>2026-05-03T14:14:26.047Z</time></trkpt><trkpt lat="45.9168268" lon="10.8349791"><ele>395.0</ele><time>2026-05-03T14:14:27.048Z</time></trkpt><trkpt lat="45.9167289" lon="10.8350663"><ele>400.8</ele><time>2026-05-03T14:14:28.047Z</time></trkpt><trkpt lat="45.9166288" lon="10.8351535"><ele>406.6</ele><time>2026-05-03T14:14:29.048Z</time></trkpt><trkpt lat="45.9165283" lon="10.8352345"><ele>412.4</ele><time>2026-05-03T14:14:30.048Z</time></trkpt><trkpt lat="45.9164334" lon="10.8353111"><ele>418.2</ele><time>2026-05-03T14:14:31.047Z</time></trkpt><trkpt lat="45.9163466" lon="10.8354011"><ele>424.0</ele><time>2026-05-03T14:14:32.048Z</time></trkpt><trkpt lat="45.9162705" lon="10.8355021"><ele>424.0</ele><time>2026-05-03T14:14:33.048Z</time></trkpt><trkpt lat="45.9162088" lon="10.835626"><ele>424.0</ele><time>2026-05-03T14:14:34.048Z</time></trkpt><trkpt lat="45.9161525" lon="10.8357637"><ele>424.0</ele><time>2026-05-03T14:14:35.048Z</time></trkpt><trkpt lat="45.9161106" lon="10.8359112"><ele>424.0</ele><time>2026-05-03T14:14:36.047Z</time></trkpt><trkpt lat="45.9160706" lon="10.8360545"><ele>424.0</ele><time>2026-05-03T14:14:37.047Z</time></trkpt><trkpt lat="45.9160256" lon="10.8361951"><ele>426.4</ele><time>2026-05-03T14:14:38.048Z</time></trkpt><trkpt lat="45.9159846" lon="10.8363277"><ele>428.79999999999995</ele><time>2026-05-03T14:14:39.047Z</time></trkpt><trkpt lat="45.9159633" lon="10.8364536"><ele>431.20000000000005</ele><time>2026-05-03T14:14:40.048Z</time></trkpt><trkpt lat="45.9159737" lon="10.8365882"><ele>433.6</ele><time>2026-05-03T14:14:41.047Z</time></trkpt><trkpt lat="45.9160139" lon="10.83672"><ele>436.0</ele><time>2026-05-03T14:14:42.047Z</time></trkpt><trkpt lat="45.9160798" lon="10.8368427"><ele>427.75</ele><time>2026-05-03T14:14:43.047Z</time></trkpt><trkpt lat="45.916158" lon="10.8369697"><ele>419.5</ele><time>2026-05-03T14:14:44.048Z</time></trkpt><trkpt lat="45.9162422" lon="10.8371174"><ele>411.25</ele><time>2026-05-03T14:14:45.048Z</time></trkpt><trkpt lat="45.9163161" lon="10.8372688"><ele>403.0</ele><time>2026-05-03T14:14:46.048Z</time></trkpt><trkpt lat="45.9163701" lon="10.8374247"><ele>403.0</ele><time>2026-05-03T14:14:47.048Z</time></trkpt><trkpt lat="45.9163939" lon="10.8375853"><ele>403.0</ele><time>2026-05-03T14:14:48.048Z</time></trkpt><trkpt lat="45.916384" lon="10.837756"><ele>403.0</ele><time>2026-05-03T14:14:49.048Z</time></trkpt><trkpt lat="45.9163415" lon="10.837897"><ele>403.0</ele><time>2026-05-03T14:14:50.048Z</time></trkpt><trkpt lat="45.9162806" lon="10.8380246"><ele>403.0</ele><time>2026-05-03T14:14:51.047Z</time></trkpt><trkpt lat="45.9162074" lon="10.8381452"><ele>401.0</ele><time>2026-05-03T14:14:52.048Z</time></trkpt><trkpt lat="45.9161383" lon="10.8382636"><ele>399.0</ele><time>2026-05-03T14:14:53.048Z</time></trkpt><trkpt lat="45.9160855" lon="10.8383962"><ele>397.0</ele><time>2026-05-03T14:14:54.048Z</time></trkpt><trkpt lat="45.9160541" lon="10.8385303"><ele>395.0</ele><time>2026-05-03T14:14:55.048Z</time></trkpt><trkpt lat="45.9160537" lon="10.8386769"><ele>393.0</ele><time>2026-05-03T14:14:56.048Z</time></trkpt><trkpt lat="45.9160741" lon="10.8388228"><ele>390.2</ele><time>2026-05-03T14:14:57.048Z</time></trkpt><trkpt lat="45.9161258" lon="10.8389547"><ele>387.4</ele><time>2026-05-03T14:14:58.048Z</time></trkpt><trkpt lat="45.9162005" lon="10.8390709"><ele>384.59999999999997</ele><time>2026-05-03T14:14:59.048Z</time></trkpt><trkpt lat="45.9162943" lon="10.8391604"><ele>381.79999999999995</ele><time>2026-05-03T14:15:00.048Z</time></trkpt><trkpt lat="45.9164058" lon="10.8392205"><ele>379.0</ele><time>2026-05-03T14:15:01.047Z</time></trkpt><trkpt lat="45.9165196" lon="10.8392572"><ele>379.0</ele><time>2026-05-03T14:15:02.047Z</time></trkpt><trkpt lat="45.9166359" lon="10.8392679"><ele>379.0</ele><time>2026-05-03T14:15:03.048Z</time></trkpt><trkpt lat="45.916758" lon="10.8392601"><ele>379.0</ele><time>2026-05-03T14:15:04.048Z</time></trkpt><trkpt lat="45.9168759" lon="10.8392295"><ele>379.0</ele><time>2026-05-03T14:15:05.048Z</time></trkpt><trkpt lat="45.9169972" lon="10.839187"><ele>377.5</ele><time>2026-05-03T14:15:06.048Z</time></trkpt><trkpt lat="45.9171143" lon="10.8391592"><ele>376.0</ele><time>2026-05-03T14:15:07.048Z</time></trkpt><trkpt lat="45.9172327" lon="10.8391427"><ele>374.5</ele><time>2026-05-03T14:15:08.047Z</time></trkpt><trkpt lat="45.9173429" lon="10.8391464"><ele>373.0</ele><time>2026-05-03T14:15:09.048Z</time></trkpt><trkpt lat="45.9174463" lon="10.8391904"><ele>373.0</ele><time>2026-05-03T14:15:10.048Z</time></trkpt><trkpt lat="45.9175329" lon="10.8392635"><ele>373.0</ele><time>2026-05-03T14:15:11.048Z</time></trkpt><trkpt lat="45.9175946" lon="10.8393752"><ele>373.0</ele><time>2026-05-03T14:15:12.048Z</time></trkpt><trkpt lat="45.9176292" lon="10.8395156"><ele>373.0</ele><time>2026-05-03T14:15:13.048Z</time></trkpt><trkpt lat="45.9176316" lon="10.8396772"><ele>373.0</ele><time>2026-05-03T14:15:14.047Z</time></trkpt><trkpt lat="45.9176174" lon="10.839835"><ele>374.79999999999995</ele><time>2026-05-03T14:15:15.047Z</time></trkpt><trkpt lat="45.9175894" lon="10.8399964"><ele>376.6</ele><time>2026-05-03T14:15:16.048Z</time></trkpt><trkpt lat="45.9175738" lon="10.8401453"><ele>378.4</ele><time>2026-05-03T14:15:17.048Z</time></trkpt><trkpt lat="45.9175891" lon="10.8402948"><ele>380.20000000000005</ele><time>2026-05-03T14:15:18.047Z</time></trkpt><trkpt lat="45.9176188" lon="10.8404436"><ele>382.0</ele><time>2026-05-03T14:15:19.047Z</time></trkpt><trkpt lat="45.9176669" lon="10.840595"><ele>382.0</ele><time>2026-05-03T14:15:20.048Z</time></trkpt><trkpt lat="45.9177285" lon="10.840742"><ele>382.0</ele><time>2026-05-03T14:15:21.048Z</time></trkpt><trkpt lat="45.9177914" lon="10.8408918"><ele>382.0</ele><time>2026-05-03T14:15:22.048Z</time></trkpt><trkpt lat="45.9178513" lon="10.8410384"><ele>382.0</ele><time>2026-05-03T14:15:23.048Z</time></trkpt><trkpt lat="45.9178997" lon="10.8411922"><ele>381.75</ele><time>2026-05-03T14:15:24.048Z</time></trkpt><trkpt lat="45.9179203" lon="10.8413496"><ele>381.5</ele><time>2026-05-03T14:15:25.048Z</time></trkpt><trkpt lat="45.9179105" lon="10.8415176"><ele>381.25</ele><time>2026-05-03T14:15:26.048Z</time></trkpt><trkpt lat="45.9178772" lon="10.8416759"><ele>381.0</ele><time>2026-05-03T14:15:27.048Z</time></trkpt><trkpt lat="45.917829" lon="10.8418264"><ele>381.0</ele><time>2026-05-03T14:15:28.047Z</time></trkpt><trkpt lat="45.9177748" lon="10.8419817"><ele>381.0</ele><time>2026-05-03T14:15:29.048Z</time></trkpt><trkpt lat="45.9177251" lon="10.8421509"><ele>381.0</ele><time>2026-05-03T14:15:30.047Z</time></trkpt><trkpt lat="45.9176794" lon="10.8423217"><ele>381.0</ele><time>2026-05-03T14:15:31.047Z</time></trkpt><trkpt lat="45.9176296" lon="10.8424837"><ele>381.0</ele><time>2026-05-03T14:15:32.048Z</time></trkpt><trkpt lat="45.9175704" lon="10.8426273"><ele>381.0</ele><time>2026-05-03T14:15:33.047Z</time></trkpt><trkpt lat="45.9174914" lon="10.8427465"><ele>381.0</ele><time>2026-05-03T14:15:34.048Z</time></trkpt><trkpt lat="45.9173983" lon="10.8428305"><ele>381.0</ele><time>2026-05-03T14:15:35.048Z</time></trkpt><trkpt lat="45.9172901" lon="10.8428729"><ele>376.75</ele><time>2026-05-03T14:15:36.048Z</time></trkpt><trkpt lat="45.917181" lon="10.8429061"><ele>372.5</ele><time>2026-05-03T14:15:37.048Z</time></trkpt><trkpt lat="45.91706" lon="10.8429304"><ele>368.25</ele><time>2026-05-03T14:15:38.047Z</time></trkpt><trkpt lat="45.9169336" lon="10.8429545"><ele>364.0</ele><time>2026-05-03T14:15:39.047Z</time></trkpt><trkpt lat="45.9168034" lon="10.8429843"><ele>359.25</ele><time>2026-05-03T14:15:40.047Z</time></trkpt><trkpt lat="45.9166755" lon="10.8430097"><ele>354.5</ele><time>2026-05-03T14:15:41.048Z</time></trkpt><trkpt lat="45.9165587" lon="10.8430549"><ele>349.75</ele><time>2026-05-03T14:15:42.047Z</time></trkpt><trkpt lat="45.9164492" lon="10.84312"><ele>345.0</ele><time>2026-05-03T14:15:43.047Z</time></trkpt><trkpt lat="45.9163476" lon="10.8432039"><ele>345.0</ele><time>2026-05-03T14:15:44.048Z</time></trkpt><trkpt lat="45.9162509" lon="10.8433115"><ele>345.0</ele><time>2026-05-03T14:15:45.048Z</time></trkpt><trkpt lat="45.9161529" lon="10.8434208"><ele>345.0</ele><time>2026-05-03T14:15:46.048Z</time></trkpt><trkpt lat="45.9160518" lon="10.8435272"><ele>345.0</ele><time>2026-05-03T14:15:47.048Z</time></trkpt><trkpt lat="45.9159509" lon="10.8436417"><ele>342.5</ele><time>2026-05-03T14:15:48.048Z</time></trkpt><trkpt lat="45.9158484" lon="10.8437556"><ele>340.0</ele><time>2026-05-03T14:15:49.047Z</time></trkpt><trkpt lat="45.9157462" lon="10.843866"><ele>337.5</ele><time>2026-05-03T14:15:50.047Z</time></trkpt><trkpt lat="45.9156487" lon="10.8439695"><ele>335.0</ele><time>2026-05-03T14:15:51.048Z</time></trkpt><trkpt lat="45.9155586" lon="10.8440812"><ele>335.0</ele><time>2026-05-03T14:15:52.048Z</time></trkpt><trkpt lat="45.9154765" lon="10.8442019"><ele>335.0</ele><time>2026-05-03T14:15:53.048Z</time></trkpt><trkpt lat="45.9154129" lon="10.8443466"><ele>335.0</ele><time>2026-05-03T14:15:54.047Z</time></trkpt><trkpt lat="45.9153649" lon="10.8445034"><ele>335.0</ele><time>2026-05-03T14:15:55.047Z</time></trkpt><trkpt lat="45.9153371" lon="10.8446725"><ele>336.25</ele><time>2026-05-03T14:15:56.048Z</time></trkpt><trkpt lat="45.9153271" lon="10.8448459"><ele>337.5</ele><time>2026-05-03T14:15:57.047Z</time></trkpt><trkpt lat="45.9153373" lon="10.8450278"><ele>338.75</ele><time>2026-05-03T14:15:58.048Z</time></trkpt><trkpt lat="45.9153747" lon="10.8451961"><ele>340.0</ele><time>2026-05-03T14:15:59.048Z</time></trkpt><trkpt lat="45.9154295" lon="10.8453695"><ele>334.25</ele><time>2026-05-03T14:16:00.047Z</time></trkpt><trkpt lat="45.9155099" lon="10.8455286"><ele>328.5</ele><time>2026-05-03T14:16:01.047Z</time></trkpt><trkpt lat="45.9156041" lon="10.8456759"><ele>322.75</ele><time>2026-05-03T14:16:02.048Z</time></trkpt><trkpt lat="45.9157056" lon="10.8458135"><ele>317.0</ele><time>2026-05-03T14:16:03.047Z</time></trkpt><trkpt lat="45.9158063" lon="10.8459534"><ele>316.5</ele><time>2026-05-03T14:16:04.048Z</time></trkpt><trkpt lat="45.9159044" lon="10.8460944"><ele>316.0</ele><time>2026-05-03T14:16:05.047Z</time></trkpt><trkpt lat="45.9160041" lon="10.8462438"><ele>315.5</ele><time>2026-05-03T14:16:06.048Z</time></trkpt><trkpt lat="45.9161014" lon="10.8463903"><ele>315.0</ele><time>2026-05-03T14:16:07.048Z</time></trkpt><trkpt lat="45.9161965" lon="10.8465342"><ele>315.0</ele><time>2026-05-03T14:16:08.047Z</time></trkpt><trkpt lat="45.916292" lon="10.8466712"><ele>315.0</ele><time>2026-05-03T14:16:09.047Z</time></trkpt><trkpt lat="45.9163971" lon="10.8467963"><ele>315.0</ele><time>2026-05-03T14:16:10.048Z</time></trkpt><trkpt lat="45.9165107" lon="10.8468904"><ele>315.0</ele><time>2026-05-03T14:16:11.048Z</time></trkpt><trkpt lat="45.9166332" lon="10.846955"><ele>313.5</ele><time>2026-05-03T14:16:12.048Z</time></trkpt><trkpt lat="45.9167587" lon="10.8469999"><ele>312.0</ele><time>2026-05-03T14:16:13.048Z</time></trkpt><trkpt lat="45.9168861" lon="10.847023"><ele>310.5</ele><time>2026-05-03T14:16:14.047Z</time></trkpt><trkpt lat="45.917011" lon="10.8470417"><ele>309.0</ele><time>2026-05-03T14:16:15.048Z</time></trkpt><trkpt lat="45.9171222" lon="10.8470593"><ele>309.0</ele><time>2026-05-03T14:16:16.048Z</time></trkpt><trkpt lat="45.9172185" lon="10.8470862"><ele>309.0</ele><time>2026-05-03T14:16:17.048Z</time></trkpt><trkpt lat="45.9172927" lon="10.8471278"><ele>309.0</ele><time>2026-05-03T14:16:18.047Z</time></trkpt><trkpt lat="45.917362" lon="10.8472626"><ele>309.0</ele><time>2026-05-03T14:16:20.048Z</time></trkpt><trkpt lat="45.9173128" lon="10.847404"><ele>309.0</ele><time>2026-05-03T14:16:22.048Z</time></trkpt><trkpt lat="45.9172179" lon="10.847448"><ele>309.0</ele><time>2026-05-03T14:16:24.047Z</time></trkpt><trkpt lat="45.9170756" lon="10.8474021"><ele>309.0</ele><time>2026-05-03T14:16:26.048Z</time></trkpt><trkpt lat="45.9169943" lon="10.8473587"><ele>309.0</ele><time>2026-05-03T14:16:27.048Z</time></trkpt><trkpt lat="45.9169067" lon="10.8472997"><ele>309.0</ele><time>2026-05-03T14:16:28.048Z</time></trkpt><trkpt lat="45.916815" lon="10.8472494"><ele>309.0</ele><time>2026-05-03T14:16:29.048Z</time></trkpt><trkpt lat="45.9167162" lon="10.8472045"><ele>304.0</ele><time>2026-05-03T14:16:30.048Z</time></trkpt><trkpt lat="45.9166082" lon="10.8471851"><ele>299.0</ele><time>2026-05-03T14:16:31.048Z</time></trkpt><trkpt lat="45.9164899" lon="10.8471968"><ele>294.0</ele><time>2026-05-03T14:16:32.048Z</time></trkpt><trkpt lat="45.9163756" lon="10.8472266"><ele>289.0</ele><time>2026-05-03T14:16:33.048Z</time></trkpt><trkpt lat="45.9162697" lon="10.8472621"><ele>289.0</ele><time>2026-05-03T14:16:34.048Z</time></trkpt><trkpt lat="45.9161633" lon="10.847279"><ele>289.0</ele><time>2026-05-03T14:16:35.047Z</time></trkpt><trkpt lat="45.916057" lon="10.8472734"><ele>289.0</ele><time>2026-05-03T14:16:36.048Z</time></trkpt><trkpt lat="45.9159509" lon="10.8472459"><ele>289.0</ele><time>2026-05-03T14:16:37.047Z</time></trkpt><trkpt lat="45.9158427" lon="10.8472029"><ele>289.0</ele><time>2026-05-03T14:16:38.047Z</time></trkpt><trkpt lat="45.9157347" lon="10.8471475"><ele>287.25</ele><time>2026-05-03T14:16:39.048Z</time></trkpt><trkpt lat="45.9156235" lon="10.847084"><ele>285.5</ele><time>2026-05-03T14:16:40.048Z</time></trkpt><trkpt lat="45.9155062" lon="10.8470332"><ele>283.75</ele><time>2026-05-03T14:16:41.048Z</time></trkpt><trkpt lat="45.9153844" lon="10.8469772"><ele>282.0</ele><time>2026-05-03T14:16:42.048Z</time></trkpt><trkpt lat="45.9152661" lon="10.846916"><ele>282.0</ele><time>2026-05-03T14:16:43.048Z</time></trkpt><trkpt lat="45.9151522" lon="10.8468561"><ele>282.0</ele><time>2026-05-03T14:16:44.047Z</time></trkpt><trkpt lat="45.9150355" lon="10.8467979"><ele>282.0</ele><time>2026-05-03T14:16:45.048Z</time></trkpt><trkpt lat="45.9149205" lon="10.846737"><ele>282.0</ele><time>2026-05-03T14:16:46.048Z</time></trkpt><trkpt lat="45.9148056" lon="10.8466778"><ele>282.0</ele><time>2026-05-03T14:16:47.048Z</time></trkpt><trkpt lat="45.9146875" lon="10.8466192"><ele>282.0</ele><time>2026-05-03T14:16:48.048Z</time></trkpt><trkpt lat="45.9145739" lon="10.8465638"><ele>282.0</ele><time>2026-05-03T14:16:49.048Z</time></trkpt><trkpt lat="45.9144558" lon="10.8464946"><ele>282.0</ele><time>2026-05-03T14:16:50.048Z</time></trkpt><trkpt lat="45.9143605" lon="10.8463966"><ele>282.0</ele><time>2026-05-03T14:16:51.048Z</time></trkpt><trkpt lat="45.9142864" lon="10.8462722"><ele>282.0</ele><time>2026-05-03T14:16:52.047Z</time></trkpt><trkpt lat="45.91424" lon="10.8461228"><ele>282.0</ele><time>2026-05-03T14:16:53.048Z</time></trkpt><trkpt lat="45.9142094" lon="10.8459688"><ele>282.0</ele><time>2026-05-03T14:16:54.048Z</time></trkpt><trkpt lat="45.9142003" lon="10.8458085"><ele>285.0</ele><time>2026-05-03T14:16:55.048Z</time></trkpt><trkpt lat="45.9142097" lon="10.8456521"><ele>288.0</ele><time>2026-05-03T14:16:56.047Z</time></trkpt><trkpt lat="45.9142295" lon="10.8454958"><ele>291.0</ele><time>2026-05-03T14:16:57.048Z</time></trkpt><trkpt lat="45.9142541" lon="10.8453294"><ele>294.0</ele><time>2026-05-03T14:16:58.048Z</time></trkpt><trkpt lat="45.9142749" lon="10.8451581"><ele>296.0</ele><time>2026-05-03T14:16:59.048Z</time></trkpt><trkpt lat="45.9142964" lon="10.844982"><ele>298.0</ele><time>2026-05-03T14:17:00.047Z</time></trkpt><trkpt lat="45.9143224" lon="10.8447973"><ele>300.0</ele><time>2026-05-03T14:17:01.048Z</time></trkpt><trkpt lat="45.9143469" lon="10.8446137"><ele>302.0</ele><time>2026-05-03T14:17:02.048Z</time></trkpt><trkpt lat="45.9143741" lon="10.8444258"><ele>300.25</ele><time>2026-05-03T14:17:03.047Z</time></trkpt><trkpt lat="45.9143936" lon="10.8442444"><ele>298.5</ele><time>2026-05-03T14:17:04.047Z</time></trkpt><trkpt lat="45.9144168" lon="10.8440607"><ele>296.75</ele><time>2026-05-03T14:17:05.048Z</time></trkpt><trkpt lat="45.9144378" lon="10.8438849"><ele>295.0</ele><time>2026-05-03T14:17:06.048Z</time></trkpt><trkpt lat="45.9144658" lon="10.8437035"><ele>295.0</ele><time>2026-05-03T14:17:07.047Z</time></trkpt><trkpt lat="45.9144945" lon="10.843527"><ele>295.0</ele><time>2026-05-03T14:17:08.047Z</time></trkpt><trkpt lat="45.9145266" lon="10.8433667"><ele>295.0</ele><time>2026-05-03T14:17:09.048Z</time></trkpt><trkpt lat="45.9145645" lon="10.8432104"><ele>295.0</ele><time>2026-05-03T14:17:10.048Z</time></trkpt><trkpt lat="45.9146099" lon="10.8430598"><ele>291.8</ele><time>2026-05-03T14:17:11.048Z</time></trkpt><trkpt lat="45.9146664" lon="10.8429316"><ele>288.6</ele><time>2026-05-03T14:17:12.048Z</time></trkpt><trkpt lat="45.9147312" lon="10.8428221"><ele>285.4</ele><time>2026-05-03T14:17:13.048Z</time></trkpt><trkpt lat="45.9147873" lon="10.8427186"><ele>282.2</ele><time>2026-05-03T14:17:14.048Z</time></trkpt><trkpt lat="45.9148393" lon="10.842618"><ele>279.0</ele><time>2026-05-03T14:17:15.047Z</time></trkpt><trkpt lat="45.9148691" lon="10.8425275"><ele>275.8</ele><time>2026-05-03T14:17:16.048Z</time></trkpt><trkpt lat="45.9148397" lon="10.8423691"><ele>272.59999999999997</ele><time>2026-05-03T14:17:18.048Z</time></trkpt><trkpt lat="45.9147256" lon="10.8423299"><ele>269.4</ele><time>2026-05-03T14:17:20.048Z</time></trkpt><trkpt lat="45.914661" lon="10.8423543"><ele>266.2</ele><time>2026-05-03T14:17:21.047Z</time></trkpt><trkpt lat="45.9145881" lon="10.8424031"><ele>263.0</ele><time>2026-05-03T14:17:22.047Z</time></trkpt><trkpt lat="45.9145114" lon="10.8424655"><ele>263.0</ele><time>2026-05-03T14:17:23.048Z</time></trkpt><trkpt lat="45.9144327" lon="10.8425305"><ele>263.0</ele><time>2026-05-03T14:17:24.048Z</time></trkpt><trkpt lat="45.9143537" lon="10.8425995"><ele>263.0</ele><time>2026-05-03T14:17:25.048Z</time></trkpt><trkpt lat="45.9142721" lon="10.8426646"><ele>263.0</ele><time>2026-05-03T14:17:26.048Z</time></trkpt><trkpt lat="45.9141941" lon="10.8427329"><ele>263.0</ele><time>2026-05-03T14:17:27.047Z</time></trkpt><trkpt lat="45.9141178" lon="10.8428132"><ele>260.5</ele><time>2026-05-03T14:17:28.047Z</time></trkpt><trkpt lat="45.9140551" lon="10.8429046"><ele>258.0</ele><time>2026-05-03T14:17:29.048Z</time></trkpt><trkpt lat="45.9140055" lon="10.8430081"><ele>255.5</ele><time>2026-05-03T14:17:30.048Z</time></trkpt><trkpt lat="45.9139868" lon="10.8431196"><ele>253.0</ele><time>2026-05-03T14:17:31.047Z</time></trkpt><trkpt lat="45.9139947" lon="10.8432387"><ele>250.50000000000003</ele><time>2026-05-03T14:17:32.047Z</time></trkpt><trkpt lat="45.9140008" lon="10.8433496"><ele>248.0</ele><time>2026-05-03T14:17:33.048Z</time></trkpt><trkpt lat="45.9139899" lon="10.8434394"><ele>248.00000000000003</ele><time>2026-05-03T14:17:34.048Z</time></trkpt><trkpt lat="45.9139139" lon="10.8434979"><ele>248.0</ele><time>2026-05-03T14:17:36.047Z</time></trkpt><trkpt lat="45.9138488" lon="10.8433717"><ele>248.0</ele><time>2026-05-03T14:17:38.047Z</time></trkpt><trkpt lat="45.9138487" lon="10.843273"><ele>248.0</ele><time>2026-05-03T14:17:39.047Z</time></trkpt><trkpt lat="45.9138617" lon="10.8431547"><ele>248.00000000000003</ele><time>2026-05-03T14:17:40.046Z</time></trkpt><trkpt lat="45.9138767" lon="10.8430343"><ele>248.0</ele><time>2026-05-03T14:17:41.047Z</time></trkpt><trkpt lat="45.9138849" lon="10.8429133"><ele>248.0</ele><time>2026-05-03T14:17:42.047Z</time></trkpt><trkpt lat="45.9138981" lon="10.8427885"><ele>248.0</ele><time>2026-05-03T14:17:43.047Z</time></trkpt><trkpt lat="45.9139218" lon="10.84266"><ele>248.0</ele><time>2026-05-03T14:17:44.047Z</time></trkpt><trkpt lat="45.9139561" lon="10.8425292"><ele>248.0</ele><time>2026-05-03T14:17:45.046Z</time></trkpt><trkpt lat="45.9140012" lon="10.8423995"><ele>248.0</ele><time>2026-05-03T14:17:46.046Z</time></trkpt><trkpt lat="45.9140523" lon="10.8422642"><ele>248.8</ele><time>2026-05-03T14:17:47.047Z</time></trkpt><trkpt lat="45.914104" lon="10.8421342"><ele>249.60000000000002</ele><time>2026-05-03T14:17:48.047Z</time></trkpt><trkpt lat="45.9141576" lon="10.8420091"><ele>250.39999999999998</ele><time>2026-05-03T14:17:49.047Z</time></trkpt><trkpt lat="45.9142095" lon="10.8418889"><ele>251.2</ele><time>2026-05-03T14:17:50.047Z</time></trkpt><trkpt lat="45.9142584" lon="10.8417654"><ele>252.0</ele><time>2026-05-03T14:17:51.047Z</time></trkpt><trkpt lat="45.9142922" lon="10.8416395"><ele>252.0</ele><time>2026-05-03T14:17:52.047Z</time></trkpt><trkpt lat="45.9143047" lon="10.8415187"><ele>252.0</ele><time>2026-05-03T14:17:53.047Z</time></trkpt><trkpt lat="45.9142855" lon="10.8414185"><ele>252.0</ele><time>2026-05-03T14:17:54.046Z</time></trkpt><trkpt lat="45.914252" lon="10.8413165"><ele>252.0</ele><time>2026-05-03T14:17:55.046Z</time></trkpt><trkpt lat="45.9142042" lon="10.841222"><ele>252.0</ele><time>2026-05-03T14:17:56.047Z</time></trkpt><trkpt lat="45.914149" lon="10.8411514"><ele>252.0</ele><time>2026-05-03T14:17:57.046Z</time></trkpt><trkpt lat="45.9140237" lon="10.8411489"><ele>249.8</ele><time>2026-05-03T14:17:59.046Z</time></trkpt><trkpt lat="45.9139527" lon="10.841298"><ele>247.6</ele><time>2026-05-03T14:18:01.047Z</time></trkpt><trkpt lat="45.9139292" lon="10.8414218"><ele>245.40000000000003</ele><time>2026-05-03T14:18:02.047Z</time></trkpt><trkpt lat="45.9139019" lon="10.8415441"><ele>243.20000000000002</ele><time>2026-05-03T14:18:03.046Z</time></trkpt><trkpt lat="45.9138594" lon="10.8416742"><ele>241.0</ele><time>2026-05-03T14:18:04.047Z</time></trkpt><trkpt lat="45.913807" lon="10.8418116"><ele>241.0</ele><time>2026-05-03T14:18:05.047Z</time></trkpt><trkpt lat="45.9137437" lon="10.8419471"><ele>241.0</ele><time>2026-05-03T14:18:06.047Z</time></trkpt><trkpt lat="45.9136736" lon="10.842082"><ele>241.0</ele><time>2026-05-03T14:18:07.046Z</time></trkpt><trkpt lat="45.9136072" lon="10.8422264"><ele>241.0</ele><time>2026-05-03T14:18:08.047Z</time></trkpt><trkpt lat="45.9135435" lon="10.842377"><ele>241.0</ele><time>2026-05-03T14:18:09.047Z</time></trkpt><trkpt lat="45.9134861" lon="10.8425294"><ele>241.0</ele><time>2026-05-03T14:18:10.047Z</time></trkpt><trkpt lat="45.9134298" lon="10.8426814"><ele>241.0</ele><time>2026-05-03T14:18:11.047Z</time></trkpt><trkpt lat="45.9133771" lon="10.8428392"><ele>241.0</ele><time>2026-05-03T14:18:12.046Z</time></trkpt><trkpt lat="45.9133242" lon="10.8429949"><ele>236.25</ele><time>2026-05-03T14:18:13.047Z</time></trkpt><trkpt lat="45.9132697" lon="10.8431513"><ele>231.5</ele><time>2026-05-03T14:18:14.047Z</time></trkpt><trkpt lat="45.913219" lon="10.843306"><ele>226.75</ele><time>2026-05-03T14:18:15.046Z</time></trkpt><trkpt lat="45.9131664" lon="10.8434572"><ele>222.0</ele><time>2026-05-03T14:18:16.046Z</time></trkpt><trkpt lat="45.9131202" lon="10.843598"><ele>222.0</ele><time>2026-05-03T14:18:17.047Z</time></trkpt><trkpt lat="45.9130756" lon="10.8437328"><ele>222.0</ele><time>2026-05-03T14:18:18.047Z</time></trkpt><trkpt lat="45.9130269" lon="10.8438626"><ele>222.0</ele><time>2026-05-03T14:18:19.047Z</time></trkpt><trkpt lat="45.912979" lon="10.8439991"><ele>222.0</ele><time>2026-05-03T14:18:20.046Z</time></trkpt><trkpt lat="45.9129362" lon="10.8441397"><ele>222.0</ele><time>2026-05-03T14:18:21.046Z</time></trkpt><trkpt lat="45.9128996" lon="10.8442893"><ele>222.6</ele><time>2026-05-03T14:18:22.047Z</time></trkpt><trkpt lat="45.9128781" lon="10.8444504"><ele>223.2</ele><time>2026-05-03T14:18:23.047Z</time></trkpt><trkpt lat="45.912869" lon="10.8446056"><ele>223.8</ele><time>2026-05-03T14:18:24.047Z</time></trkpt><trkpt lat="45.9128609" lon="10.8447586"><ele>224.4</ele><time>2026-05-03T14:18:25.047Z</time></trkpt><trkpt lat="45.9128519" lon="10.8448973"><ele>225.0</ele><time>2026-05-03T14:18:26.047Z</time></trkpt><trkpt lat="45.9128375" lon="10.845031"><ele>225.0</ele><time>2026-05-03T14:18:27.047Z</time></trkpt><trkpt lat="45.9128224" lon="10.8451513"><ele>225.0</ele><time>2026-05-03T14:18:28.046Z</time></trkpt><trkpt lat="45.9127934" lon="10.8452326"><ele>225.0</ele><time>2026-05-03T14:18:29.047Z</time></trkpt><trkpt lat="45.9126927" lon="10.8452523"><ele>225.0</ele><time>2026-05-03T14:18:31.047Z</time></trkpt><trkpt lat="45.9126061" lon="10.8451138"><ele>225.0</ele><time>2026-05-03T14:18:33.047Z</time></trkpt><trkpt lat="45.9125876" lon="10.8449921"><ele>225.0</ele><time>2026-05-03T14:18:34.047Z</time></trkpt><trkpt lat="45.9125842" lon="10.8448575"><ele>225.0</ele><time>2026-05-03T14:18:35.047Z</time></trkpt><trkpt lat="45.9125746" lon="10.8447067"><ele>225.0</ele><time>2026-05-03T14:18:36.047Z</time></trkpt><trkpt lat="45.9125711" lon="10.8445469"><ele>225.0</ele><time>2026-05-03T14:18:37.046Z</time></trkpt><trkpt lat="45.9125603" lon="10.8443896"><ele>225.0</ele><time>2026-05-03T14:18:38.047Z</time></trkpt><trkpt lat="45.9125497" lon="10.8442259"><ele>217.75</ele><time>2026-05-03T14:18:39.047Z</time></trkpt><trkpt lat="45.9125374" lon="10.8440622"><ele>210.5</ele><time>2026-05-03T14:18:40.047Z</time></trkpt><trkpt lat="45.9125209" lon="10.8438895"><ele>203.25</ele><time>2026-05-03T14:18:41.047Z</time></trkpt><trkpt lat="45.9125086" lon="10.8437256"><ele>196.0</ele><time>2026-05-03T14:18:42.047Z</time></trkpt><trkpt lat="45.9124954" lon="10.8435617"><ele>196.60000000000002</ele><time>2026-05-03T14:18:43.047Z</time></trkpt><trkpt lat="45.9124682" lon="10.8434108"><ele>197.2</ele><time>2026-05-03T14:18:44.047Z</time></trkpt><trkpt lat="45.912434" lon="10.8432689"><ele>197.8</ele><time>2026-05-03T14:18:45.047Z</time></trkpt><trkpt lat="45.9124039" lon="10.8431345"><ele>198.39999999999998</ele><time>2026-05-03T14:18:46.046Z</time></trkpt><trkpt lat="45.912378" lon="10.8430178"><ele>199.0</ele><time>2026-05-03T14:18:47.047Z</time></trkpt><trkpt lat="45.9123717" lon="10.8428915"><ele>199.0</ele><time>2026-05-03T14:18:48.046Z</time></trkpt><trkpt lat="45.9123746" lon="10.8427644"><ele>199.0</ele><time>2026-05-03T14:18:49.047Z</time></trkpt><trkpt lat="45.9124075" lon="10.8426321"><ele>199.0</ele><time>2026-05-03T14:18:50.047Z</time></trkpt><trkpt lat="45.9124479" lon="10.8425113"><ele>199.0</ele><time>2026-05-03T14:18:51.047Z</time></trkpt><trkpt lat="45.9124935" lon="10.8423798"><ele>199.0</ele><time>2026-05-03T14:18:52.047Z</time></trkpt><trkpt lat="45.9125467" lon="10.8422302"><ele>200.0</ele><time>2026-05-03T14:18:53.046Z</time></trkpt><trkpt lat="45.9125961" lon="10.8420762"><ele>201.0</ele><time>2026-05-03T14:18:54.046Z</time></trkpt><trkpt lat="45.9126463" lon="10.8419285"><ele>202.0</ele><time>2026-05-03T14:18:55.046Z</time></trkpt><trkpt lat="45.9126871" lon="10.8417883"><ele>203.0</ele><time>2026-05-03T14:18:56.046Z</time></trkpt><trkpt lat="45.9127203" lon="10.8416487"><ele>204.0</ele><time>2026-05-03T14:18:57.047Z</time></trkpt><trkpt lat="45.9127264" lon="10.8415129"><ele>204.0</ele><time>2026-05-03T14:18:58.047Z</time></trkpt><trkpt lat="45.9127076" lon="10.8413923"><ele>204.0</ele><time>2026-05-03T14:18:59.046Z</time></trkpt><trkpt lat="45.9126736" lon="10.8412681"><ele>204.0</ele><time>2026-05-03T14:19:00.047Z</time></trkpt><trkpt lat="45.912628" lon="10.8411428"><ele>204.0</ele><time>2026-05-03T14:19:01.047Z</time></trkpt><trkpt lat="45.9125891" lon="10.8410256"><ele>204.0</ele><time>2026-05-03T14:19:02.046Z</time></trkpt><trkpt lat="45.9125488" lon="10.8409021"><ele>200.5</ele><time>2026-05-03T14:19:03.046Z</time></trkpt><trkpt lat="45.9125118" lon="10.8407714"><ele>197.0</ele><time>2026-05-03T14:19:04.047Z</time></trkpt><trkpt lat="45.9124861" lon="10.8406489"><ele>193.5</ele><time>2026-05-03T14:19:05.047Z</time></trkpt><trkpt lat="45.9124709" lon="10.8405283"><ele>190.0</ele><time>2026-05-03T14:19:06.046Z</time></trkpt><trkpt lat="45.9124815" lon="10.8404044"><ele>186.5</ele><time>2026-05-03T14:19:07.047Z</time></trkpt><trkpt lat="45.9125141" lon="10.8402865"><ele>183.0</ele><time>2026-05-03T14:19:08.047Z</time></trkpt><trkpt lat="45.912566" lon="10.8401724"><ele>186.0</ele><time>2026-05-03T14:19:09.047Z</time></trkpt><trkpt lat="45.9126246" lon="10.8400672"><ele>189.0</ele><time>2026-05-03T14:19:10.046Z</time></trkpt><trkpt lat="45.9126845" lon="10.8399557"><ele>192.0</ele><time>2026-05-03T14:19:11.046Z</time></trkpt><trkpt lat="45.9127432" lon="10.8398348"><ele>195.0</ele><time>2026-05-03T14:19:12.047Z</time></trkpt><trkpt lat="45.912794" lon="10.8397204"><ele>198.0</ele><time>2026-05-03T14:19:13.047Z</time></trkpt><trkpt lat="45.9128353" lon="10.8396073"><ele>198.0</ele><time>2026-05-03T14:19:14.047Z</time></trkpt><trkpt lat="45.91286" lon="10.8394873"><ele>198.0</ele><time>2026-05-03T14:19:15.047Z</time></trkpt><trkpt lat="45.9128519" lon="10.8393718"><ele>198.0</ele><time>2026-05-03T14:19:16.047Z</time></trkpt><trkpt lat="45.9128139" lon="10.8392486"><ele>198.0</ele><time>2026-05-03T14:19:17.047Z</time></trkpt><trkpt lat="45.9127724" lon="10.8391281"><ele>198.0</ele><time>2026-05-03T14:19:18.047Z</time></trkpt><trkpt lat="45.9127481" lon="10.8389917"><ele>198.2</ele><time>2026-05-03T14:19:19.047Z</time></trkpt><trkpt lat="45.9127301" lon="10.8388456"><ele>198.4</ele><time>2026-05-03T14:19:20.047Z</time></trkpt><trkpt lat="45.9127284" lon="10.8386985"><ele>198.6</ele><time>2026-05-03T14:19:21.046Z</time></trkpt><trkpt lat="45.9127313" lon="10.8385546"><ele>198.79999999999998</ele><time>2026-05-03T14:19:22.046Z</time></trkpt><trkpt lat="45.9127369" lon="10.8384097"><ele>199.0</ele><time>2026-05-03T14:19:23.047Z</time></trkpt><trkpt lat="45.9127254" lon="10.8382788"><ele>198.0</ele><time>2026-05-03T14:19:24.047Z</time></trkpt><trkpt lat="45.9126955" lon="10.8381436"><ele>197.0</ele><time>2026-05-03T14:19:25.047Z</time></trkpt><trkpt lat="45.9126546" lon="10.8380233"><ele>196.0</ele><time>2026-05-03T14:19:26.047Z</time></trkpt><trkpt lat="45.9126035" lon="10.8379052"><ele>195.0</ele><time>2026-05-03T14:19:27.047Z</time></trkpt><trkpt lat="45.912555" lon="10.8377879"><ele>194.0</ele><time>2026-05-03T14:19:28.046Z</time></trkpt><trkpt lat="45.9125066" lon="10.8376727"><ele>188.0</ele><time>2026-05-03T14:19:29.047Z</time></trkpt><trkpt lat="45.9124587" lon="10.8375525"><ele>182.0</ele><time>2026-05-03T14:19:30.047Z</time></trkpt><trkpt lat="45.912411" lon="10.8374284"><ele>176.0</ele><time>2026-05-03T14:19:31.046Z</time></trkpt><trkpt lat="45.91237" lon="10.8373018"><ele>170.0</ele><time>2026-05-03T14:19:32.047Z</time></trkpt><trkpt lat="45.9123422" lon="10.8371757"><ele>164.0</ele><time>2026-05-03T14:19:33.047Z</time></trkpt><trkpt lat="45.912314" lon="10.8370445"><ele>164.0</ele><time>2026-05-03T14:19:34.047Z</time></trkpt><trkpt lat="45.9122856" lon="10.8369157"><ele>164.0</ele><time>2026-05-03T14:19:35.046Z</time></trkpt><trkpt lat="45.9122597" lon="10.8367822"><ele>164.0</ele><time>2026-05-03T14:19:36.047Z</time></trkpt><trkpt lat="45.9122343" lon="10.8366454"><ele>164.0</ele><time>2026-05-03T14:19:37.047Z</time></trkpt><trkpt lat="45.9122058" lon="10.8365051"><ele>164.0</ele><time>2026-05-03T14:19:38.047Z</time></trkpt><trkpt lat="45.912178" lon="10.8363634"><ele>166.0</ele><time>2026-05-03T14:19:39.046Z</time></trkpt><trkpt lat="45.9121471" lon="10.8362296"><ele>168.0</ele><time>2026-05-03T14:19:40.047Z</time></trkpt><trkpt lat="45.9121066" lon="10.8361074"><ele>170.0</ele><time>2026-05-03T14:19:41.047Z</time></trkpt><trkpt lat="45.9120512" lon="10.8360067"><ele>172.0</ele><time>2026-05-03T14:19:42.047Z</time></trkpt><trkpt lat="45.9119904" lon="10.8359225"><ele>174.0</ele><time>2026-05-03T14:19:43.046Z</time></trkpt><trkpt lat="45.9119238" lon="10.8358512"><ele>176.0</ele><time>2026-05-03T14:19:44.047Z</time></trkpt><trkpt lat="45.9118515" lon="10.8357942"><ele>173.33333333333331</ele><time>2026-05-03T14:19:45.047Z</time></trkpt><trkpt lat="45.9117735" lon="10.8357492"><ele>170.66666666666666</ele><time>2026-05-03T14:19:46.047Z</time></trkpt><trkpt lat="45.9116911" lon="10.8357194"><ele>168.0</ele><time>2026-05-03T14:19:47.047Z</time></trkpt><trkpt lat="45.911608" lon="10.8356922"><ele>165.33333333333334</ele><time>2026-05-03T14:19:48.046Z</time></trkpt><trkpt lat="45.9115194" lon="10.8356886"><ele>162.66666666666669</ele><time>2026-05-03T14:19:49.047Z</time></trkpt><trkpt lat="45.9114292" lon="10.8356959"><ele>160.0</ele><time>2026-05-03T14:19:50.047Z</time></trkpt><trkpt lat="45.9113442" lon="10.8357257"><ele>160.0</ele><time>2026-05-03T14:19:51.047Z</time></trkpt><trkpt lat="45.911259" lon="10.8357778"><ele>160.0</ele><time>2026-05-03T14:19:52.047Z</time></trkpt><trkpt lat="45.9111736" lon="10.8358648"><ele>160.0</ele><time>2026-05-03T14:19:53.047Z</time></trkpt><trkpt lat="45.911098" lon="10.8359695"><ele>160.0</ele><time>2026-05-03T14:19:54.047Z</time></trkpt><trkpt lat="45.9110282" lon="10.8360839"><ele>160.0</ele><time>2026-05-03T14:19:55.047Z</time></trkpt><trkpt lat="45.9109654" lon="10.8362108"><ele>156.5</ele><time>2026-05-03T14:19:56.047Z</time></trkpt><trkpt lat="45.9109042" lon="10.8363501"><ele>153.0</ele><time>2026-05-03T14:19:57.046Z</time></trkpt><trkpt lat="45.9108439" lon="10.8364925"><ele>149.5</ele><time>2026-05-03T14:19:58.047Z</time></trkpt><trkpt lat="45.910782" lon="10.8366289"><ele>146.0</ele><time>2026-05-03T14:19:59.046Z</time></trkpt><trkpt lat="45.9107135" lon="10.836751"><ele>145.25</ele><time>2026-05-03T14:20:00.047Z</time></trkpt><trkpt lat="45.9106343" lon="10.8368738"><ele>144.5</ele><time>2026-05-03T14:20:01.047Z</time></trkpt><trkpt lat="45.9105539" lon="10.8369956"><ele>143.75</ele><time>2026-05-03T14:20:02.047Z</time></trkpt><trkpt lat="45.9104681" lon="10.8371059"><ele>143.0</ele><time>2026-05-03T14:20:03.047Z</time></trkpt><trkpt lat="45.9103767" lon="10.8372066"><ele>143.0</ele><time>2026-05-03T14:20:04.047Z</time></trkpt><trkpt lat="45.9102863" lon="10.8373017"><ele>143.0</ele><time>2026-05-03T14:20:05.046Z</time></trkpt><trkpt lat="45.910192" lon="10.8373923"><ele>143.0</ele><time>2026-05-03T14:20:06.046Z</time></trkpt><trkpt lat="45.910095" lon="10.837466"><ele>143.0</ele><time>2026-05-03T14:20:07.047Z</time></trkpt><trkpt lat="45.9099976" lon="10.8375346"><ele>143.0</ele><time>2026-05-03T14:20:08.046Z</time></trkpt><trkpt lat="45.9098961" lon="10.8375909"><ele>142.0</ele><time>2026-05-03T14:20:09.047Z</time></trkpt><trkpt lat="45.9097954" lon="10.8376484"><ele>141.0</ele><time>2026-05-03T14:20:10.047Z</time></trkpt><trkpt lat="45.9096903" lon="10.837696"><ele>140.0</ele><time>2026-05-03T14:20:11.046Z</time></trkpt><trkpt lat="45.9095871" lon="10.8377368"><ele>139.0</ele><time>2026-05-03T14:20:12.047Z</time></trkpt><trkpt lat="45.909486" lon="10.8377806"><ele>138.0</ele><time>2026-05-03T14:20:13.047Z</time></trkpt><trkpt lat="45.9093816" lon="10.8378264"><ele>138.0</ele><time>2026-05-03T14:20:14.047Z</time></trkpt><trkpt lat="45.9092825" lon="10.8378769"><ele>138.0</ele><time>2026-05-03T14:20:15.047Z</time></trkpt><trkpt lat="45.9091779" lon="10.8379317"><ele>138.0</ele><time>2026-05-03T14:20:16.047Z</time></trkpt><trkpt lat="45.9090784" lon="10.8379854"><ele>138.0</ele><time>2026-05-03T14:20:17.046Z</time></trkpt><trkpt lat="45.9089797" lon="10.8380356"><ele>138.0</ele><time>2026-05-03T14:20:18.047Z</time></trkpt><trkpt lat="45.9088808" lon="10.8380875"><ele>138.0</ele><time>2026-05-03T14:20:19.047Z</time></trkpt><trkpt lat="45.908784" lon="10.8381478"><ele>138.0</ele><time>2026-05-03T14:20:20.046Z</time></trkpt><trkpt lat="45.9086889" lon="10.8382151"><ele>138.0</ele><time>2026-05-03T14:20:21.046Z</time></trkpt><trkpt lat="45.9086" lon="10.8383009"><ele>138.0</ele><time>2026-05-03T14:20:22.047Z</time></trkpt><trkpt lat="45.9085153" lon="10.8383994"><ele>138.0</ele><time>2026-05-03T14:20:23.046Z</time></trkpt><trkpt lat="45.9084372" lon="10.8385118"><ele>136.6</ele><time>2026-05-03T14:20:24.047Z</time></trkpt><trkpt lat="45.9083589" lon="10.8386247"><ele>135.20000000000002</ele><time>2026-05-03T14:20:25.047Z</time></trkpt><trkpt lat="45.9082827" lon="10.8387482"><ele>133.8</ele><time>2026-05-03T14:20:26.047Z</time></trkpt><trkpt lat="45.9082068" lon="10.8388637"><ele>132.4</ele><time>2026-05-03T14:20:27.047Z</time></trkpt><trkpt lat="45.9081329" lon="10.838976"><ele>131.0</ele><time>2026-05-03T14:20:28.047Z</time></trkpt><trkpt lat="45.9080588" lon="10.8390857"><ele>131.0</ele><time>2026-05-03T14:20:29.047Z</time></trkpt><trkpt lat="45.9079866" lon="10.8391968"><ele>131.0</ele><time>2026-05-03T14:20:30.046Z</time></trkpt><trkpt lat="45.9079127" lon="10.8393124"><ele>131.0</ele><time>2026-05-03T14:20:31.047Z</time></trkpt><trkpt lat="45.9078322" lon="10.8394236"><ele>131.0</ele><time>2026-05-03T14:20:32.047Z</time></trkpt><trkpt lat="45.9077517" lon="10.8395302"><ele>131.0</ele><time>2026-05-03T14:20:33.046Z</time></trkpt><trkpt lat="45.9076698" lon="10.8396416"><ele>130.6</ele><time>2026-05-03T14:20:34.046Z</time></trkpt><trkpt lat="45.9075869" lon="10.8397486"><ele>130.2</ele><time>2026-05-03T14:20:35.046Z</time></trkpt><trkpt lat="45.9075072" lon="10.8398555"><ele>129.8</ele><time>2026-05-03T14:20:36.046Z</time></trkpt><trkpt lat="45.9074282" lon="10.8399573"><ele>129.4</ele><time>2026-05-03T14:20:37.047Z</time></trkpt><trkpt lat="45.9073466" lon="10.840052"><ele>129.0</ele><time>2026-05-03T14:20:38.047Z</time></trkpt><trkpt lat="45.907266" lon="10.8401436"><ele>128.4</ele><time>2026-05-03T14:20:39.047Z</time></trkpt><trkpt lat="45.9071932" lon="10.8402292"><ele>127.80000000000001</ele><time>2026-05-03T14:20:40.046Z</time></trkpt><trkpt lat="45.9071197" lon="10.8403214"><ele>127.19999999999999</ele><time>2026-05-03T14:20:41.047Z</time></trkpt><trkpt lat="45.9070471" lon="10.8404038"><ele>126.6</ele><time>2026-05-03T14:20:42.046Z</time></trkpt><trkpt lat="45.9069737" lon="10.8404753"><ele>126.0</ele><time>2026-05-03T14:20:43.047Z</time></trkpt><trkpt lat="45.9068953" lon="10.8405377"><ele>126.0</ele><time>2026-05-03T14:20:44.046Z</time></trkpt><trkpt lat="45.9068097" lon="10.8405952"><ele>126.0</ele><time>2026-05-03T14:20:45.046Z</time></trkpt><trkpt lat="45.9067222" lon="10.840632"><ele>126.0</ele><time>2026-05-03T14:20:46.046Z</time></trkpt><trkpt lat="45.9066291" lon="10.8406696"><ele>126.0</ele><time>2026-05-03T14:20:47.046Z</time></trkpt><trkpt lat="45.9065286" lon="10.8407095"><ele>126.0</ele><time>2026-05-03T14:20:48.047Z</time></trkpt><trkpt lat="45.9064279" lon="10.8407414"><ele>125.6</ele><time>2026-05-03T14:20:49.047Z</time></trkpt><trkpt lat="45.9063209" lon="10.8407825"><ele>125.19999999999999</ele><time>2026-05-03T14:20:50.047Z</time></trkpt><trkpt lat="45.9062211" lon="10.8408273"><ele>124.80000000000001</ele><time>2026-05-03T14:20:51.047Z</time></trkpt><trkpt lat="45.9061228" lon="10.8408715"><ele>124.4</ele><time>2026-05-03T14:20:52.047Z</time></trkpt><trkpt lat="45.9060231" lon="10.8409099"><ele>124.0</ele><time>2026-05-03T14:20:53.047Z</time></trkpt><trkpt lat="45.9059173" lon="10.8409449"><ele>123.4</ele><time>2026-05-03T14:20:54.047Z</time></trkpt><trkpt lat="45.9058145" lon="10.8409785"><ele>122.80000000000001</ele><time>2026-05-03T14:20:55.047Z</time></trkpt><trkpt lat="45.905717" lon="10.8410133"><ele>122.19999999999999</ele><time>2026-05-03T14:20:56.046Z</time></trkpt><trkpt lat="45.9056174" lon="10.8410542"><ele>121.6</ele><time>2026-05-03T14:20:57.047Z</time></trkpt><trkpt lat="45.9055146" lon="10.8410962"><ele>121.0</ele><time>2026-05-03T14:20:58.047Z</time></trkpt><trkpt lat="45.9054098" lon="10.8411355"><ele>121.0</ele><time>2026-05-03T14:20:59.047Z</time></trkpt><trkpt lat="45.9053074" lon="10.8411792"><ele>121.0</ele><time>2026-05-03T14:21:00.047Z</time></trkpt><trkpt lat="45.9052056" lon="10.8412202"><ele>121.0</ele><time>2026-05-03T14:21:01.046Z</time></trkpt><trkpt lat="45.9051007" lon="10.8412634"><ele>121.0</ele><time>2026-05-03T14:21:02.047Z</time></trkpt><trkpt lat="45.9049977" lon="10.841312"><ele>121.0</ele><time>2026-05-03T14:21:03.047Z</time></trkpt><trkpt lat="45.9048929" lon="10.8413662"><ele>120.4</ele><time>2026-05-03T14:21:04.047Z</time></trkpt><trkpt lat="45.9047917" lon="10.8414275"><ele>119.8</ele><time>2026-05-03T14:21:05.047Z</time></trkpt><trkpt lat="45.904698" lon="10.8414951"><ele>119.20000000000002</ele><time>2026-05-03T14:21:06.047Z</time></trkpt><trkpt lat="45.9046144" lon="10.8415749"><ele>118.60000000000001</ele><time>2026-05-03T14:21:07.047Z</time></trkpt><trkpt lat="45.9045395" lon="10.8416601"><ele>118.0</ele><time>2026-05-03T14:21:08.047Z</time></trkpt><trkpt lat="45.9044687" lon="10.841739"><ele>118.0</ele><time>2026-05-03T14:21:09.046Z</time></trkpt><trkpt lat="45.9044066" lon="10.8418331"><ele>118.00000000000001</ele><time>2026-05-03T14:21:10.047Z</time></trkpt><trkpt lat="45.904349" lon="10.8419354"><ele>118.00000000000001</ele><time>2026-05-03T14:21:11.047Z</time></trkpt><trkpt lat="45.9042926" lon="10.8420457"><ele>118.0</ele><time>2026-05-03T14:21:12.047Z</time></trkpt><trkpt lat="45.9042345" lon="10.8421596"><ele>118.0</ele><time>2026-05-03T14:21:13.046Z</time></trkpt><trkpt lat="45.904178" lon="10.8422724"><ele>117.4</ele><time>2026-05-03T14:21:14.047Z</time></trkpt><trkpt lat="45.9041178" lon="10.8423938"><ele>116.80000000000001</ele><time>2026-05-03T14:21:15.047Z</time></trkpt><trkpt lat="45.9040536" lon="10.8425098"><ele>116.2</ele><time>2026-05-03T14:21:16.047Z</time></trkpt><trkpt lat="45.9039921" lon="10.8426299"><ele>115.6</ele><time>2026-05-03T14:21:17.047Z</time></trkpt><trkpt lat="45.9039257" lon="10.8427433"><ele>115.0</ele><time>2026-05-03T14:21:18.047Z</time></trkpt><trkpt lat="45.903855" lon="10.8428579"><ele>115.0</ele><time>2026-05-03T14:21:19.047Z</time></trkpt><trkpt lat="45.9037751" lon="10.8429639"><ele>115.0</ele><time>2026-05-03T14:21:20.046Z</time></trkpt><trkpt lat="45.9036915" lon="10.8430589"><ele>115.0</ele><time>2026-05-03T14:21:21.047Z</time></trkpt><trkpt lat="45.9035979" lon="10.8431419"><ele>115.0</ele><time>2026-05-03T14:21:22.047Z</time></trkpt><trkpt lat="45.9035067" lon="10.8432143"><ele>115.0</ele><time>2026-05-03T14:21:23.047Z</time></trkpt><trkpt lat="45.9034112" lon="10.8432837"><ele>114.4</ele><time>2026-05-03T14:21:24.047Z</time></trkpt><trkpt lat="45.9033169" lon="10.8433491"><ele>113.8</ele><time>2026-05-03T14:21:25.046Z</time></trkpt><trkpt lat="45.903222" lon="10.8434076"><ele>113.19999999999999</ele><time>2026-05-03T14:21:26.047Z</time></trkpt><trkpt lat="45.9031297" lon="10.8434623"><ele>112.6</ele><time>2026-05-03T14:21:27.047Z</time></trkpt><trkpt lat="45.9030427" lon="10.843518"><ele>112.0</ele><time>2026-05-03T14:21:28.047Z</time></trkpt><trkpt lat="45.9029564" lon="10.843566"><ele>112.00000000000001</ele><time>2026-05-03T14:21:29.047Z</time></trkpt><trkpt lat="45.902873" lon="10.8436038"><ele>112.0</ele><time>2026-05-03T14:21:30.047Z</time></trkpt><trkpt lat="45.9027946" lon="10.8436489"><ele>112.0</ele><time>2026-05-03T14:21:31.046Z</time></trkpt><trkpt lat="45.9027173" lon="10.8436932"><ele>112.0</ele><time>2026-05-03T14:21:32.046Z</time></trkpt><trkpt lat="45.9026409" lon="10.8437374"><ele>112.00000000000001</ele><time>2026-05-03T14:21:33.047Z</time></trkpt><trkpt lat="45.9025606" lon="10.8437887"><ele>112.0</ele><time>2026-05-03T14:21:34.046Z</time></trkpt><trkpt lat="45.9024728" lon="10.8438398"><ele>111.0</ele><time>2026-05-03T14:21:35.046Z</time></trkpt><trkpt lat="45.9023873" lon="10.8438854"><ele>109.99999999999999</ele><time>2026-05-03T14:21:36.046Z</time></trkpt><trkpt lat="45.9023014" lon="10.8439374"><ele>108.99999999999999</ele><time>2026-05-03T14:21:37.046Z</time></trkpt><trkpt lat="45.9022205" lon="10.8439807"><ele>108.0</ele><time>2026-05-03T14:21:38.047Z</time></trkpt><trkpt lat="45.9021359" lon="10.8440301"><ele>107.0</ele><time>2026-05-03T14:21:39.047Z</time></trkpt><trkpt lat="45.9020453" lon="10.8440818"><ele>107.0</ele><time>2026-05-03T14:21:40.047Z</time></trkpt><trkpt lat="45.9019566" lon="10.844136"><ele>106.99999999999999</ele><time>2026-05-03T14:21:41.046Z</time></trkpt><trkpt lat="45.9018638" lon="10.8441865"><ele>106.99999999999999</ele><time>2026-05-03T14:21:42.047Z</time></trkpt><trkpt lat="45.9017646" lon="10.8442372"><ele>107.0</ele><time>2026-05-03T14:21:43.047Z</time></trkpt><trkpt lat="45.9016629" lon="10.8442813"><ele>107.0</ele><time>2026-05-03T14:21:44.047Z</time></trkpt><trkpt lat="45.9015616" lon="10.8443186"><ele>106.6</ele><time>2026-05-03T14:21:45.047Z</time></trkpt><trkpt lat="45.901463" lon="10.8443475"><ele>106.19999999999999</ele><time>2026-05-03T14:21:46.047Z</time></trkpt><trkpt lat="45.9013662" lon="10.8443691"><ele>105.8</ele><time>2026-05-03T14:21:47.047Z</time></trkpt><trkpt lat="45.901267" lon="10.8443884"><ele>105.4</ele><time>2026-05-03T14:21:48.047Z</time></trkpt><trkpt lat="45.9011654" lon="10.8444087"><ele>105.0</ele><time>2026-05-03T14:21:49.047Z</time></trkpt><trkpt lat="45.9010615" lon="10.8444326"><ele>105.0</ele><time>2026-05-03T14:21:50.047Z</time></trkpt><trkpt lat="45.900966" lon="10.8444635"><ele>105.0</ele><time>2026-05-03T14:21:51.047Z</time></trkpt><trkpt lat="45.9008727" lon="10.8444868"><ele>105.0</ele><time>2026-05-03T14:21:52.047Z</time></trkpt><trkpt lat="45.9007884" lon="10.844506"><ele>105.0</ele><time>2026-05-03T14:21:53.047Z</time></trkpt><trkpt lat="45.9007037" lon="10.8445213"><ele>105.0</ele><time>2026-05-03T14:21:54.047Z</time></trkpt><trkpt lat="45.9006154" lon="10.844531"><ele>104.0</ele><time>2026-05-03T14:21:55.046Z</time></trkpt><trkpt lat="45.9005244" lon="10.844553"><ele>103.0</ele><time>2026-05-03T14:21:56.047Z</time></trkpt><trkpt lat="45.9004327" lon="10.8445694"><ele>102.0</ele><time>2026-05-03T14:21:57.047Z</time></trkpt><trkpt lat="45.9003319" lon="10.8445824"><ele>101.0</ele><time>2026-05-03T14:21:58.045Z</time></trkpt><trkpt lat="45.9002307" lon="10.8445839"><ele>100.0</ele><time>2026-05-03T14:21:59.046Z</time></trkpt><trkpt lat="45.9001292" lon="10.8445837"><ele>99.8</ele><time>2026-05-03T14:22:00.046Z</time></trkpt><trkpt lat="45.9000253" lon="10.8445614"><ele>99.6</ele><time>2026-05-03T14:22:01.045Z</time></trkpt><trkpt lat="45.8999227" lon="10.8445381"><ele>99.4</ele><time>2026-05-03T14:22:02.045Z</time></trkpt><trkpt lat="45.8998217" lon="10.8445182"><ele>99.2</ele><time>2026-05-03T14:22:03.045Z</time></trkpt><trkpt lat="45.8997156" lon="10.8444996"><ele>99.0</ele><time>2026-05-03T14:22:04.046Z</time></trkpt><trkpt lat="45.8996183" lon="10.8444792"><ele>99.0</ele><time>2026-05-03T14:22:05.046Z</time></trkpt><trkpt lat="45.8995231" lon="10.8444549"><ele>99.0</ele><time>2026-05-03T14:22:06.045Z</time></trkpt><trkpt lat="45.8994359" lon="10.8444215"><ele>99.0</ele><time>2026-05-03T14:22:07.046Z</time></trkpt><trkpt lat="45.8993546" lon="10.844399"><ele>99.0</ele><time>2026-05-03T14:22:08.046Z</time></trkpt><trkpt lat="45.8992808" lon="10.8443774"><ele>99.0</ele><time>2026-05-03T14:22:09.045Z</time></trkpt><trkpt lat="45.8992001" lon="10.8443617"><ele>99.0</ele><time>2026-05-03T14:22:10.045Z</time></trkpt><trkpt lat="45.8991086" lon="10.8443468"><ele>98.66666666666667</ele><time>2026-05-03T14:22:11.045Z</time></trkpt><trkpt lat="45.8990191" lon="10.8443218"><ele>98.33333333333334</ele><time>2026-05-03T14:22:12.045Z</time></trkpt><trkpt lat="45.8989271" lon="10.8443011"><ele>98.0</ele><time>2026-05-03T14:22:13.045Z</time></trkpt><trkpt lat="45.8988403" lon="10.8442746"><ele>97.66666666666667</ele><time>2026-05-03T14:22:14.046Z</time></trkpt><trkpt lat="45.8987581" lon="10.8442552"><ele>97.33333333333334</ele><time>2026-05-03T14:22:15.046Z</time></trkpt><trkpt lat="45.898686" lon="10.8442339"><ele>97.0</ele><time>2026-05-03T14:22:16.045Z</time></trkpt><trkpt lat="45.8986178" lon="10.8442073"><ele>97.00000000000001</ele><time>2026-05-03T14:22:17.046Z</time></trkpt><trkpt lat="45.8985628" lon="10.8441466"><ele>97.0</ele><time>2026-05-03T14:22:18.046Z</time></trkpt><trkpt lat="45.8985358" lon="10.8440641"><ele>97.0</ele><time>2026-05-03T14:22:19.046Z</time></trkpt><trkpt lat="45.8985119" lon="10.8439787"><ele>97.0</ele><time>2026-05-03T14:22:20.046Z</time></trkpt><trkpt lat="45.8984999" lon="10.8438074"><ele>97.00000000000001</ele><time>2026-05-03T14:22:22.046Z</time></trkpt><trkpt lat="45.8985423" lon="10.8436412"><ele>97.0</ele><time>2026-05-03T14:22:24.045Z</time></trkpt><trkpt lat="45.8985801" lon="10.8435152"><ele>97.0</ele><time>2026-05-03T14:22:26.046Z</time></trkpt><trkpt lat="45.8985163" lon="10.843516"><ele>97.0</ele><time>2026-05-03T14:22:30.046Z</time></trkpt><trkpt lat="45.8984914" lon="10.8436616"><ele>97.0</ele><time>2026-05-03T14:23:36.045Z</time></trkpt><trkpt lat="45.8984469" lon="10.8437782"><ele>97.0</ele><time>2026-05-03T14:23:38.046Z</time></trkpt><trkpt lat="45.8983904" lon="10.8438923"><ele>97.0</ele><time>2026-05-03T14:23:40.045Z</time></trkpt><trkpt lat="45.8983121" lon="10.8440076"><ele>96.16666666666667</ele><time>2026-05-03T14:23:42.046Z</time></trkpt><trkpt lat="45.8982123" lon="10.8440856"><ele>95.33333333333334</ele><time>2026-05-03T14:23:44.045Z</time></trkpt><trkpt lat="45.89809" lon="10.8441047"><ele>94.5</ele><time>2026-05-03T14:23:46.045Z</time></trkpt><trkpt lat="45.8980236" lon="10.844096"><ele>93.66666666666667</ele><time>2026-05-03T14:23:47.046Z</time></trkpt><trkpt lat="45.8979607" lon="10.8440793"><ele>92.83333333333334</ele><time>2026-05-03T14:23:48.046Z</time></trkpt><trkpt lat="45.8978873" lon="10.8440599"><ele>92.0</ele><time>2026-05-03T14:23:49.045Z</time></trkpt><trkpt lat="45.8978103" lon="10.8440312"><ele>92.0</ele><time>2026-05-03T14:23:50.046Z</time></trkpt><trkpt lat="45.8977292" lon="10.8440042"><ele>92.0</ele><time>2026-05-03T14:23:51.046Z</time></trkpt><trkpt lat="45.8976421" lon="10.8439828"><ele>92.0</ele><time>2026-05-03T14:23:52.046Z</time></trkpt><trkpt lat="45.897554" lon="10.8439696"><ele>92.0</ele><time>2026-05-03T14:23:53.045Z</time></trkpt><trkpt lat="45.8974619" lon="10.843965"><ele>92.0</ele><time>2026-05-03T14:23:54.046Z</time></trkpt><trkpt lat="45.8973696" lon="10.8439675"><ele>92.0</ele><time>2026-05-03T14:23:55.045Z</time></trkpt><trkpt lat="45.8972731" lon="10.8439718"><ele>91.6</ele><time>2026-05-03T14:23:56.046Z</time></trkpt><trkpt lat="45.8971739" lon="10.8439844"><ele>91.19999999999999</ele><time>2026-05-03T14:23:57.046Z</time></trkpt><trkpt lat="45.8970767" lon="10.8440031"><ele>90.8</ele><time>2026-05-03T14:23:58.046Z</time></trkpt><trkpt lat="45.8969791" lon="10.8440226"><ele>90.4</ele><time>2026-05-03T14:23:59.046Z</time></trkpt><trkpt lat="45.8968838" lon="10.8440352"><ele>90.0</ele><time>2026-05-03T14:24:00.045Z</time></trkpt><trkpt lat="45.8967882" lon="10.844048"><ele>89.6</ele><time>2026-05-03T14:24:01.046Z</time></trkpt><trkpt lat="45.8966898" lon="10.8440588"><ele>89.2</ele><time>2026-05-03T14:24:02.045Z</time></trkpt><trkpt lat="45.8965949" lon="10.8440635"><ele>88.80000000000001</ele><time>2026-05-03T14:24:03.046Z</time></trkpt><trkpt lat="45.8964935" lon="10.8440702"><ele>88.4</ele><time>2026-05-03T14:24:04.046Z</time></trkpt><trkpt lat="45.8963867" lon="10.8440803"><ele>88.0</ele><time>2026-05-03T14:24:05.046Z</time></trkpt><trkpt lat="45.8962839" lon="10.844088"><ele>88.0</ele><time>2026-05-03T14:24:06.046Z</time></trkpt><trkpt lat="45.8961728" lon="10.8440909"><ele>88.0</ele><time>2026-05-03T14:24:07.046Z</time></trkpt><trkpt lat="45.8960635" lon="10.8441009"><ele>88.0</ele><time>2026-05-03T14:24:08.046Z</time></trkpt><trkpt lat="45.8959543" lon="10.8441096"><ele>88.0</ele><time>2026-05-03T14:24:09.046Z</time></trkpt><trkpt lat="45.8958489" lon="10.8441163"><ele>88.0</ele><time>2026-05-03T14:24:10.046Z</time></trkpt><trkpt lat="45.8957467" lon="10.844125"><ele>88.0</ele><time>2026-05-03T14:24:11.046Z</time></trkpt><trkpt lat="45.8956447" lon="10.8441286"><ele>88.0</ele><time>2026-05-03T14:24:12.046Z</time></trkpt><trkpt lat="45.8955413" lon="10.8441297"><ele>88.0</ele><time>2026-05-03T14:24:13.046Z</time></trkpt><trkpt lat="45.8954411" lon="10.8441362"><ele>88.0</ele><time>2026-05-03T14:24:14.045Z</time></trkpt><trkpt lat="45.8953418" lon="10.8441264"><ele>88.0</ele><time>2026-05-03T14:24:15.046Z</time></trkpt><trkpt lat="45.8952432" lon="10.8441067"><ele>88.0</ele><time>2026-05-03T14:24:16.046Z</time></trkpt><trkpt lat="45.8951393" lon="10.8440684"><ele>88.0</ele><time>2026-05-03T14:24:17.045Z</time></trkpt><trkpt lat="45.8950418" lon="10.8440193"><ele>88.0</ele><time>2026-05-03T14:24:18.045Z</time></trkpt><trkpt lat="45.8949433" lon="10.8439607"><ele>88.0</ele><time>2026-05-03T14:24:19.046Z</time></trkpt><trkpt lat="45.8948513" lon="10.8438949"><ele>88.0</ele><time>2026-05-03T14:24:20.046Z</time></trkpt><trkpt lat="45.8947671" lon="10.8438292"><ele>88.16666666666666</ele><time>2026-05-03T14:24:21.045Z</time></trkpt><trkpt lat="45.8946974" lon="10.8437683"><ele>88.33333333333333</ele><time>2026-05-03T14:24:22.046Z</time></trkpt><trkpt lat="45.894643" lon="10.8437127"><ele>88.5</ele><time>2026-05-03T14:24:23.045Z</time></trkpt><trkpt lat="45.8945873" lon="10.8436047"><ele>88.66666666666667</ele><time>2026-05-03T14:24:25.046Z</time></trkpt><trkpt lat="45.8945772" lon="10.8434766"><ele>88.83333333333334</ele><time>2026-05-03T14:24:28.046Z</time></trkpt><trkpt lat="45.8945632" lon="10.8433594"><ele>89.0</ele><time>2026-05-03T14:24:30.046Z</time></trkpt><trkpt lat="45.8944869" lon="10.8432639"><ele>89.33333333333334</ele><time>2026-05-03T14:24:32.046Z</time></trkpt><trkpt lat="45.8944174" lon="10.8432311"><ele>89.66666666666667</ele><time>2026-05-03T14:24:33.046Z</time></trkpt><trkpt lat="45.8943428" lon="10.8432197"><ele>90.0</ele><time>2026-05-03T14:24:34.045Z</time></trkpt><trkpt lat="45.8942751" lon="10.8432207"><ele>90.33333333333333</ele><time>2026-05-03T14:24:35.045Z</time></trkpt><trkpt lat="45.8942088" lon="10.843218"><ele>90.66666666666666</ele><time>2026-05-03T14:24:36.046Z</time></trkpt><trkpt lat="45.8940891" lon="10.843207"><ele>91.0</ele><time>2026-05-03T14:24:38.045Z</time></trkpt><trkpt lat="45.8940203" lon="10.8431891"><ele>90.42857142857143</ele><time>2026-05-03T14:24:39.046Z</time></trkpt><trkpt lat="45.8939467" lon="10.8431699"><ele>89.85714285714286</ele><time>2026-05-03T14:24:40.045Z</time></trkpt><trkpt lat="45.8938752" lon="10.843141"><ele>89.28571428571428</ele><time>2026-05-03T14:24:41.046Z</time></trkpt><trkpt lat="45.8938037" lon="10.8431075"><ele>88.71428571428572</ele><time>2026-05-03T14:24:42.046Z</time></trkpt><trkpt lat="45.8937365" lon="10.8430695"><ele>88.14285714285714</ele><time>2026-05-03T14:24:43.046Z</time></trkpt><trkpt lat="45.893674" lon="10.8430308"><ele>87.57142857142857</ele><time>2026-05-03T14:24:44.046Z</time></trkpt><trkpt lat="45.8936079" lon="10.8429976"><ele>87.0</ele><time>2026-05-03T14:24:45.045Z</time></trkpt><trkpt lat="45.8935434" lon="10.8429662"><ele>87.0</ele><time>2026-05-03T14:24:46.045Z</time></trkpt><trkpt lat="45.8934781" lon="10.8429413"><ele>87.0</ele><time>2026-05-03T14:24:47.045Z</time></trkpt><trkpt lat="45.8934131" lon="10.842918"><ele>87.0</ele><time>2026-05-03T14:24:48.045Z</time></trkpt><trkpt lat="45.8933448" lon="10.8429061"><ele>87.0</ele><time>2026-05-03T14:24:49.046Z</time></trkpt><trkpt lat="45.8932755" lon="10.8428957"><ele>87.0</ele><time>2026-05-03T14:24:50.045Z</time></trkpt><trkpt lat="45.8932007" lon="10.8428901"><ele>87.0</ele><time>2026-05-03T14:24:51.046Z</time></trkpt><trkpt lat="45.89312" lon="10.8428899"><ele>87.0</ele><time>2026-05-03T14:24:52.046Z</time></trkpt><trkpt lat="45.8930394" lon="10.8428901"><ele>86.83333333333333</ele><time>2026-05-03T14:24:53.045Z</time></trkpt><trkpt lat="45.8929603" lon="10.842886"><ele>86.66666666666667</ele><time>2026-05-03T14:24:54.046Z</time></trkpt><trkpt lat="45.8928806" lon="10.8428836"><ele>86.5</ele><time>2026-05-03T14:24:55.046Z</time></trkpt><trkpt lat="45.8928" lon="10.8428863"><ele>86.33333333333334</ele><time>2026-05-03T14:24:56.045Z</time></trkpt><trkpt lat="45.892718" lon="10.8428841"><ele>86.16666666666667</ele><time>2026-05-03T14:24:57.046Z</time></trkpt><trkpt lat="45.8926315" lon="10.8428899"><ele>86.0</ele><time>2026-05-03T14:24:58.045Z</time></trkpt><trkpt lat="45.8925452" lon="10.8429013"><ele>86.33333333333334</ele><time>2026-05-03T14:24:59.045Z</time></trkpt><trkpt lat="45.8924631" lon="10.8429046"><ele>86.66666666666667</ele><time>2026-05-03T14:25:00.045Z</time></trkpt><trkpt lat="45.892379" lon="10.8429037"><ele>87.0</ele><time>2026-05-03T14:25:01.045Z</time></trkpt><trkpt lat="45.8922991" lon="10.8429074"><ele>87.33333333333333</ele><time>2026-05-03T14:25:02.046Z</time></trkpt><trkpt lat="45.8922127" lon="10.8429127"><ele>87.66666666666666</ele><time>2026-05-03T14:25:03.046Z</time></trkpt><trkpt lat="45.8921305" lon="10.8429084"><ele>88.0</ele><time>2026-05-03T14:25:04.046Z</time></trkpt><trkpt lat="45.8920452" lon="10.8429128"><ele>88.0</ele><time>2026-05-03T14:25:05.045Z</time></trkpt><trkpt lat="45.8919643" lon="10.8429174"><ele>88.0</ele><time>2026-05-03T14:25:06.045Z</time></trkpt><trkpt lat="45.8918809" lon="10.8429209"><ele>88.0</ele><time>2026-05-03T14:25:07.046Z</time></trkpt><trkpt lat="45.8917947" lon="10.8429283"><ele>88.0</ele><time>2026-05-03T14:25:08.046Z</time></trkpt><trkpt lat="45.8917059" lon="10.8429303"><ele>88.0</ele><time>2026-05-03T14:25:09.046Z</time></trkpt><trkpt lat="45.8916186" lon="10.8429363"><ele>88.0</ele><time>2026-05-03T14:25:10.046Z</time></trkpt><trkpt lat="45.8915336" lon="10.8429433"><ele>87.5</ele><time>2026-05-03T14:25:11.046Z</time></trkpt><trkpt lat="45.8914495" lon="10.8429442"><ele>87.0</ele><time>2026-05-03T14:25:12.046Z</time></trkpt><trkpt lat="45.891365" lon="10.842941"><ele>86.5</ele><time>2026-05-03T14:25:13.046Z</time></trkpt><trkpt lat="45.8912825" lon="10.8429408"><ele>86.0</ele><time>2026-05-03T14:25:14.045Z</time></trkpt><trkpt lat="45.8911986" lon="10.8429528"><ele>85.5</ele><time>2026-05-03T14:25:15.046Z</time></trkpt><trkpt lat="45.891108" lon="10.8429527"><ele>85.0</ele><time>2026-05-03T14:25:16.046Z</time></trkpt><trkpt lat="45.8910215" lon="10.8429501"><ele>85.0</ele><time>2026-05-03T14:25:17.046Z</time></trkpt><trkpt lat="45.8909367" lon="10.8429475"><ele>85.0</ele><time>2026-05-03T14:25:18.046Z</time></trkpt><trkpt lat="45.8908502" lon="10.8429454"><ele>85.0</ele><time>2026-05-03T14:25:19.046Z</time></trkpt><trkpt lat="45.8907672" lon="10.8429492"><ele>85.0</ele><time>2026-05-03T14:25:20.046Z</time></trkpt><trkpt lat="45.8906819" lon="10.8429484"><ele>85.0</ele><time>2026-05-03T14:25:21.046Z</time></trkpt><trkpt lat="45.8905959" lon="10.8429548"><ele>85.0</ele><time>2026-05-03T14:25:22.046Z</time></trkpt><trkpt lat="45.8905114" lon="10.8429577"><ele>84.5</ele><time>2026-05-03T14:25:23.046Z</time></trkpt><trkpt lat="45.8904213" lon="10.8429624"><ele>84.0</ele><time>2026-05-03T14:25:24.046Z</time></trkpt><trkpt lat="45.8903357" lon="10.8429658"><ele>83.5</ele><time>2026-05-03T14:25:25.046Z</time></trkpt><trkpt lat="45.8902513" lon="10.8429749"><ele>83.0</ele><time>2026-05-03T14:25:26.046Z</time></trkpt><trkpt lat="45.8901619" lon="10.8429876"><ele>82.5</ele><time>2026-05-03T14:25:27.045Z</time></trkpt><trkpt lat="45.8900823" lon="10.842992"><ele>82.0</ele><time>2026-05-03T14:25:28.046Z</time></trkpt><trkpt lat="45.8900009" lon="10.842989"><ele>81.66666666666666</ele><time>2026-05-03T14:25:29.046Z</time></trkpt><trkpt lat="45.8899235" lon="10.8429945"><ele>81.33333333333333</ele><time>2026-05-03T14:25:30.046Z</time></trkpt><trkpt lat="45.889847" lon="10.8429931"><ele>81.0</ele><time>2026-05-03T14:25:31.046Z</time></trkpt><trkpt lat="45.8897642" lon="10.8429973"><ele>80.66666666666667</ele><time>2026-05-03T14:25:32.046Z</time></trkpt><trkpt lat="45.8896845" lon="10.8429965"><ele>80.33333333333334</ele><time>2026-05-03T14:25:33.046Z</time></trkpt><trkpt lat="45.8896121" lon="10.8430061"><ele>80.0</ele><time>2026-05-03T14:25:34.046Z</time></trkpt><trkpt lat="45.889537" lon="10.843005"><ele>80.0</ele><time>2026-05-03T14:25:35.045Z</time></trkpt><trkpt lat="45.8894677" lon="10.8430105"><ele>80.0</ele><time>2026-05-03T14:25:36.046Z</time></trkpt><trkpt lat="45.8894044" lon="10.8430118"><ele>80.0</ele><time>2026-05-03T14:25:37.046Z</time></trkpt><trkpt lat="45.8893014" lon="10.8429952"><ele>80.0</ele><time>2026-05-03T14:25:39.046Z</time></trkpt><trkpt lat="45.8892267" lon="10.8429435"><ele>80.0</ele><time>2026-05-03T14:25:41.046Z</time></trkpt><trkpt lat="45.8891501" lon="10.8429218"><ele>80.0</ele><time>2026-05-03T14:25:43.046Z</time></trkpt><trkpt lat="45.889085" lon="10.8429837"><ele>79.66666666666667</ele><time>2026-05-03T14:25:45.045Z</time></trkpt><trkpt lat="45.889073" lon="10.8431182"><ele>79.33333333333334</ele><time>2026-05-03T14:25:47.046Z</time></trkpt><trkpt lat="45.8891279" lon="10.843251"><ele>79.0</ele><time>2026-05-03T14:25:49.046Z</time></trkpt><trkpt lat="45.8891887" lon="10.8433291"><ele>78.66666666666667</ele><time>2026-05-03T14:25:51.046Z</time></trkpt><trkpt lat="45.8892283" lon="10.8434237"><ele>78.33333333333333</ele><time>2026-05-03T14:26:12.045Z</time></trkpt><trkpt lat="45.8892347" lon="10.8435208"><ele>78.0</ele><time>2026-05-03T14:26:20.045Z</time></trkpt><trkpt lat="45.8892136" lon="10.8436318"><ele>77.83333333333333</ele><time>2026-05-03T14:26:22.045Z</time></trkpt><trkpt lat="45.8891622" lon="10.8437634"><ele>77.66666666666667</ele><time>2026-05-03T14:26:24.044Z</time></trkpt><trkpt lat="45.8890994" lon="10.8439196"><ele>77.5</ele><time>2026-05-03T14:26:26.044Z</time></trkpt><trkpt lat="45.889071" lon="10.8440069"><ele>77.33333333333334</ele><time>2026-05-03T14:26:27.044Z</time></trkpt><trkpt lat="45.8890409" lon="10.8440875"><ele>77.16666666666667</ele><time>2026-05-03T14:26:28.044Z</time></trkpt><trkpt lat="45.8890091" lon="10.8441665"><ele>77.0</ele><time>2026-05-03T14:26:29.045Z</time></trkpt><trkpt lat="45.888951" lon="10.8443237"><ele>76.8</ele><time>2026-05-03T14:26:31.044Z</time></trkpt><trkpt lat="45.8888881" lon="10.844463"><ele>76.6</ele><time>2026-05-03T14:26:33.044Z</time></trkpt><trkpt lat="45.8888033" lon="10.8445632"><ele>76.39999999999999</ele><time>2026-05-03T14:26:35.044Z</time></trkpt><trkpt lat="45.888686" lon="10.8445674"><ele>76.2</ele><time>2026-05-03T14:26:37.045Z</time></trkpt><trkpt lat="45.8886145" lon="10.8445437"><ele>76.0</ele><time>2026-05-03T14:26:38.044Z</time></trkpt><trkpt lat="45.8885474" lon="10.8445125"><ele>76.0</ele><time>2026-05-03T14:26:39.045Z</time></trkpt><trkpt lat="45.8884811" lon="10.844481"><ele>76.0</ele><time>2026-05-03T14:26:40.044Z</time></trkpt><trkpt lat="45.8884123" lon="10.8444548"><ele>76.0</ele><time>2026-05-03T14:26:41.045Z</time></trkpt><trkpt lat="45.8883397" lon="10.844431"><ele>76.0</ele><time>2026-05-03T14:26:42.044Z</time></trkpt><trkpt lat="45.8882724" lon="10.8444033"><ele>76.0</ele><time>2026-05-03T14:26:43.045Z</time></trkpt><trkpt lat="45.888211" lon="10.8443789"><ele>76.0</ele><time>2026-05-03T14:26:44.045Z</time></trkpt><trkpt lat="45.8881429" lon="10.8443527"><ele>76.0</ele><time>2026-05-03T14:26:45.045Z</time></trkpt><trkpt lat="45.8880789" lon="10.8443233"><ele>76.0</ele><time>2026-05-03T14:26:46.045Z</time></trkpt><trkpt lat="45.8880133" lon="10.8442979"><ele>76.0</ele><time>2026-05-03T14:26:47.045Z</time></trkpt><trkpt lat="45.8879466" lon="10.8442697"><ele>76.0</ele><time>2026-05-03T14:26:48.045Z</time></trkpt><trkpt lat="45.8878793" lon="10.8442482"><ele>76.0</ele><time>2026-05-03T14:26:49.044Z</time></trkpt><trkpt lat="45.8878107" lon="10.8442272"><ele>76.0</ele><time>2026-05-03T14:26:50.044Z</time></trkpt><trkpt lat="45.8877399" lon="10.8442016"><ele>76.0</ele><time>2026-05-03T14:26:51.044Z</time></trkpt><trkpt lat="45.8876711" lon="10.8441689"><ele>76.0</ele><time>2026-05-03T14:26:52.044Z</time></trkpt><trkpt lat="45.8876039" lon="10.8441394"><ele>75.5</ele><time>2026-05-03T14:26:53.045Z</time></trkpt><trkpt lat="45.8875326" lon="10.8441111"><ele>75.0</ele><time>2026-05-03T14:26:54.044Z</time></trkpt><trkpt lat="45.8874651" lon="10.8440839"><ele>74.5</ele><time>2026-05-03T14:26:55.044Z</time></trkpt><trkpt lat="45.8874007" lon="10.8440596"><ele>74.0</ele><time>2026-05-03T14:26:56.044Z</time></trkpt><trkpt lat="45.8872937" lon="10.844012"><ele>73.5</ele><time>2026-05-03T14:26:58.045Z</time></trkpt><trkpt lat="45.8872121" lon="10.8439768"><ele>73.0</ele><time>2026-05-03T14:27:00.045Z</time></trkpt><trkpt lat="45.8871439" lon="10.8439573"><ele>73.0</ele><time>2026-05-03T14:27:02.045Z</time></trkpt><trkpt lat="45.8870742" lon="10.84394"><ele>73.0</ele><time>2026-05-03T14:27:04.045Z</time></trkpt><trkpt lat="45.8869936" lon="10.843911"><ele>73.0</ele><time>2026-05-03T14:27:06.045Z</time></trkpt><trkpt lat="45.8869135" lon="10.8438779"><ele>73.0</ele><time>2026-05-03T14:27:08.045Z</time></trkpt><trkpt lat="45.8868302" lon="10.843851"><ele>73.0</ele><time>2026-05-03T14:27:10.044Z</time></trkpt><trkpt lat="45.8867635" lon="10.8438131"><ele>73.0</ele><time>2026-05-03T14:27:12.045Z</time></trkpt><trkpt lat="45.8866952" lon="10.843793"><ele>72.85714285714286</ele><time>2026-05-03T14:27:15.045Z</time></trkpt><trkpt lat="45.8866309" lon="10.8437723"><ele>72.71428571428572</ele><time>2026-05-03T14:27:18.045Z</time></trkpt><trkpt lat="45.8865702" lon="10.8437437"><ele>72.57142857142858</ele><time>2026-05-03T14:27:22.045Z</time></trkpt><trkpt lat="45.8864894" lon="10.8437163"><ele>72.42857142857143</ele><time>2026-05-03T14:27:26.045Z</time></trkpt><trkpt lat="45.8864066" lon="10.8436962"><ele>72.28571428571429</ele><time>2026-05-03T14:27:29.044Z</time></trkpt><trkpt lat="45.8863446" lon="10.8436763"><ele>72.14285714285715</ele><time>2026-05-03T14:27:31.045Z</time></trkpt><trkpt lat="45.8862678" lon="10.8436833"><ele>72.0</ele><time>2026-05-03T14:27:34.045Z</time></trkpt><trkpt lat="45.88622" lon="10.8437757"><ele>72.0</ele><time>2026-05-03T14:27:38.045Z</time></trkpt><trkpt lat="45.8862115" lon="10.8438758"><ele>72.0</ele><time>2026-05-03T14:27:41.045Z</time></trkpt><trkpt lat="45.8862131" lon="10.8440039"><ele>72.0</ele><time>2026-05-03T14:27:45.045Z</time></trkpt><trkpt lat="45.8862012" lon="10.844141"><ele>72.0</ele><time>2026-05-03T14:27:48.044Z</time></trkpt><trkpt lat="45.8861924" lon="10.8442566"><ele>72.0</ele><time>2026-05-03T14:27:51.045Z</time></trkpt><trkpt lat="45.8861777" lon="10.8443561"><ele>72.0</ele><time>2026-05-03T14:27:54.044Z</time></trkpt><trkpt lat="45.8861607" lon="10.8444506"><ele>71.5</ele><time>2026-05-03T14:27:57.044Z</time></trkpt><trkpt lat="45.8861457" lon="10.8445435"><ele>71.0</ele><time>2026-05-03T14:28:00.044Z</time></trkpt><trkpt lat="45.8861267" lon="10.8446527"><ele>70.5</ele><time>2026-05-03T14:28:03.045Z</time></trkpt><trkpt lat="45.8861129" lon="10.8447554"><ele>70.0</ele><time>2026-05-03T14:28:06.045Z</time></trkpt><trkpt lat="45.8860908" lon="10.8448729"><ele>69.5</ele><time>2026-05-03T14:28:09.045Z</time></trkpt><trkpt lat="45.8860255" lon="10.8449449"><ele>69.0</ele><time>2026-05-03T14:28:12.045Z</time></trkpt><trkpt lat="45.8859405" lon="10.8450257"><ele>69.33333333333333</ele><time>2026-05-03T14:28:15.044Z</time></trkpt><trkpt lat="45.885869" lon="10.8451055"><ele>69.66666666666667</ele><time>2026-05-03T14:28:17.045Z</time></trkpt><trkpt lat="45.8858119" lon="10.8451487"><ele>70.0</ele><time>2026-05-03T14:28:21.045Z</time></trkpt><trkpt lat="45.8857126" lon="10.84517"><ele>70.33333333333334</ele><time>2026-05-03T14:28:25.045Z</time></trkpt><trkpt lat="45.8856334" lon="10.845151"><ele>70.66666666666667</ele><time>2026-05-03T14:28:27.045Z</time></trkpt><trkpt lat="45.8855377" lon="10.8451182"><ele>71.0</ele><time>2026-05-03T14:28:29.044Z</time></trkpt><trkpt lat="45.8854384" lon="10.8450836"><ele>71.0</ele><time>2026-05-03T14:28:31.045Z</time></trkpt><trkpt lat="45.8853413" lon="10.8450402"><ele>71.0</ele><time>2026-05-03T14:28:33.044Z</time></trkpt><trkpt lat="45.885247" lon="10.8449811"><ele>71.0</ele><time>2026-05-03T14:28:35.045Z</time></trkpt><trkpt lat="45.8851486" lon="10.8449236"><ele>71.0</ele><time>2026-05-03T14:28:37.045Z</time></trkpt><trkpt lat="45.8850708" lon="10.8448413"><ele>71.0</ele><time>2026-05-03T14:28:39.045Z</time></trkpt><trkpt lat="45.8849981" lon="10.8447783"><ele>71.0</ele><time>2026-05-03T14:28:41.044Z</time></trkpt><trkpt lat="45.8849373" lon="10.8447146"><ele>71.0</ele><time>2026-05-03T14:28:43.045Z</time></trkpt><trkpt lat="45.8848813" lon="10.8446721"><ele>71.0</ele><time>2026-05-03T14:28:45.044Z</time></trkpt><trkpt lat="45.8848256" lon="10.8447186"><ele>71.0</ele><time>2026-05-03T14:28:48.045Z</time></trkpt><trkpt lat="45.8848682" lon="10.8447958"><ele>71.0</ele><time>2026-05-03T14:28:51.045Z</time></trkpt><trkpt lat="45.8849349" lon="10.8448206"><ele>71.0</ele><time>2026-05-03T14:28:53.045Z</time></trkpt><trkpt lat="45.8850368" lon="10.8447997"><ele>71.0</ele><time>2026-05-03T14:28:55.044Z</time></trkpt><trkpt lat="45.8851405" lon="10.8447725"><ele>71.0</ele><time>2026-05-03T14:28:57.045Z</time></trkpt><trkpt lat="45.8852062" lon="10.8447699"><ele>71.0</ele><time>2026-05-03T14:28:59.045Z</time></trkpt><trkpt lat="45.8852903" lon="10.8447709"><ele>71.0</ele><time>2026-05-03T14:29:02.045Z</time></trkpt><trkpt lat="45.8853645" lon="10.8447718"><ele>71.0</ele><time>2026-05-03T14:29:06.045Z</time></trkpt><trkpt lat="45.8854047" lon="10.8446782"><ele>71.0</ele><time>2026-05-03T14:29:16.045Z</time></trkpt><trkpt lat="45.8853664" lon="10.8447527"><ele>71.0</ele><time>2026-05-03T14:31:35.044Z</time></trkpt><trkpt lat="45.8852914" lon="10.8447504"><ele>71.0</ele><time>2026-05-03T14:32:06.044Z</time></trkpt><trkpt lat="45.8852249" lon="10.8447625"><ele>71.0</ele><time>2026-05-03T14:32:20.063Z</time></trkpt><trkpt lat="45.8851614" lon="10.8447825"><ele>71.0</ele><time>2026-05-03T14:32:32.066Z</time></trkpt><trkpt lat="45.8851166" lon="10.8447025"><ele>71.0</ele><time>2026-05-03T14:32:38.043Z</time></trkpt><trkpt lat="45.8850473" lon="10.8446804"><ele>71.0</ele><time>2026-05-03T14:32:46.078Z</time></trkpt><trkpt lat="45.8849844" lon="10.8446375"><ele>71.0</ele><time>2026-05-03T14:32:52.194Z</time></trkpt><trkpt lat="45.8849425" lon="10.8445656"><ele>71.0</ele><time>2026-05-03T14:33:00.274Z</time></trkpt><trkpt lat="45.8848936" lon="10.8446266"><ele>71.0</ele><time>2026-05-03T14:33:05.19Z</time></trkpt><trkpt lat="45.8848262" lon="10.8446331"><ele>70.71428571428571</ele><time>2026-05-03T14:33:12.099Z</time></trkpt><trkpt lat="45.8847601" lon="10.8446208"><ele>70.42857142857142</ele><time>2026-05-03T14:33:19.198Z</time></trkpt><trkpt lat="45.8846928" lon="10.8446226"><ele>70.14285714285714</ele><time>2026-05-03T14:33:25.169Z</time></trkpt><trkpt lat="45.8846264" lon="10.8446049"><ele>69.85714285714286</ele><time>2026-05-03T14:33:30.822Z</time></trkpt><trkpt lat="45.8845609" lon="10.8445673"><ele>69.57142857142858</ele><time>2026-05-03T14:33:35.111Z</time></trkpt><trkpt lat="45.8844908" lon="10.8445447"><ele>69.28571428571429</ele><time>2026-05-03T14:33:39.133Z</time></trkpt><trkpt lat="45.8844129" lon="10.8445128"><ele>69.0</ele><time>2026-05-03T14:33:44.376Z</time></trkpt><trkpt lat="45.8843481" lon="10.8444763"><ele>69.0</ele><time>2026-05-03T14:33:50.215Z</time></trkpt><trkpt lat="45.8842886" lon="10.8444357"><ele>69.0</ele><time>2026-05-03T14:33:56.109Z</time></trkpt><trkpt lat="45.884224" lon="10.8444272"><ele>69.0</ele><time>2026-05-03T14:34:02.139Z</time></trkpt><trkpt lat="45.8841544" lon="10.8444"><ele>69.0</ele><time>2026-05-03T14:34:08.242Z</time></trkpt><trkpt lat="45.8840821" lon="10.8444004"><ele>69.0</ele><time>2026-05-03T14:34:15.108Z</time></trkpt><trkpt lat="45.8840143" lon="10.8444157"><ele>69.0</ele><time>2026-05-03T14:34:23.144Z</time></trkpt><trkpt lat="45.8839555" lon="10.8443805"><ele>69.0</ele><time>2026-05-03T14:34:30.174Z</time></trkpt><trkpt lat="45.8838873" lon="10.8444073"><ele>68.85714285714286</ele><time>2026-05-03T14:34:36.657Z</time></trkpt><trkpt lat="45.883814" lon="10.8444399"><ele>68.71428571428572</ele><time>2026-05-03T14:34:43.762Z</time></trkpt><trkpt lat="45.8837438" lon="10.8444565"><ele>68.57142857142857</ele><time>2026-05-03T14:34:50.1Z</time></trkpt><trkpt lat="45.8836739" lon="10.8444604"><ele>68.42857142857143</ele><time>2026-05-03T14:34:55.061Z</time></trkpt><trkpt lat="45.8836078" lon="10.8444231"><ele>68.28571428571428</ele><time>2026-05-03T14:35:01.098Z</time></trkpt><trkpt lat="45.8835456" lon="10.8443991"><ele>68.14285714285714</ele><time>2026-05-03T14:35:09.163Z</time></trkpt><trkpt lat="45.8834732" lon="10.8444086"><ele>68.0</ele><time>2026-05-03T14:35:16.195Z</time></trkpt><trkpt lat="45.883417" lon="10.8444544"><ele>67.85714285714285</ele><time>2026-05-03T14:35:22.179Z</time></trkpt><trkpt lat="45.8833751" lon="10.844541"><ele>67.71428571428571</ele><time>2026-05-03T14:35:29.117Z</time></trkpt><trkpt lat="45.8833415" lon="10.8446358"><ele>67.57142857142857</ele><time>2026-05-03T14:35:35.158Z</time></trkpt><trkpt lat="45.883299" lon="10.8447107"><ele>67.42857142857142</ele><time>2026-05-03T14:35:41.602Z</time></trkpt><trkpt lat="45.8832761" lon="10.8448042"><ele>67.28571428571428</ele><time>2026-05-03T14:35:47.096Z</time></trkpt><trkpt lat="45.8832549" lon="10.844906"><ele>67.14285714285714</ele><time>2026-05-03T14:35:53.097Z</time></trkpt><trkpt lat="45.8832218" lon="10.8450007"><ele>67.0</ele><time>2026-05-03T14:35:59.148Z</time></trkpt><trkpt lat="45.883182" lon="10.8450904"><ele>67.28571428571429</ele><time>2026-05-03T14:36:05.176Z</time></trkpt><trkpt lat="45.8831511" lon="10.8451698"><ele>67.57142857142857</ele><time>2026-05-03T14:36:11.118Z</time></trkpt><trkpt lat="45.8831136" lon="10.8452579"><ele>67.85714285714286</ele><time>2026-05-03T14:36:17.146Z</time></trkpt><trkpt lat="45.8830623" lon="10.8453385"><ele>68.14285714285714</ele><time>2026-05-03T14:36:23.295Z</time></trkpt><trkpt lat="45.8830177" lon="10.8454076"><ele>68.42857142857143</ele><time>2026-05-03T14:36:29.657Z</time></trkpt><trkpt lat="45.8829837" lon="10.8454887"><ele>68.71428571428572</ele><time>2026-05-03T14:36:36.014Z</time></trkpt><trkpt lat="45.8829366" lon="10.8455708"><ele>69.0</ele><time>2026-05-03T14:36:42.139Z</time></trkpt><trkpt lat="45.8828898" lon="10.8456481"><ele>69.0</ele><time>2026-05-03T14:36:48.096Z</time></trkpt><trkpt lat="45.8828521" lon="10.8457323"><ele>69.0</ele><time>2026-05-03T14:36:55.099Z</time></trkpt><trkpt lat="45.8827964" lon="10.845801"><ele>69.0</ele><time>2026-05-03T14:37:02.109Z</time></trkpt><trkpt lat="45.8827312" lon="10.8458238"><ele>69.0</ele><time>2026-05-03T14:37:08.137Z</time></trkpt><trkpt lat="45.8826771" lon="10.8458911"><ele>69.0</ele><time>2026-05-03T14:37:15.076Z</time></trkpt><trkpt lat="45.8826055" lon="10.8458935"><ele>69.0</ele><time>2026-05-03T14:37:22.877Z</time></trkpt><trkpt lat="45.8825362" lon="10.8458804"><ele>69.0</ele><time>2026-05-03T14:37:29.114Z</time></trkpt><trkpt lat="45.882489" lon="10.8457946"><ele>68.0</ele><time>2026-05-03T14:37:35.137Z</time></trkpt><trkpt lat="45.8825077" lon="10.8457024"><ele>68.0</ele><time>2026-05-03T14:37:45.069Z</time></trkpt><trkpt lat="45.8825734" lon="10.8457155"><ele>68.0</ele><time>2026-05-03T14:38:02.917Z</time></trkpt></trkseg><trkseg><trkpt lat="45.885446" lon="10.8446019"><ele>71.0</ele><time>2026-05-03T15:13:20.114Z</time></trkpt><trkpt lat="45.8853828" lon="10.8447579"><ele>71.0</ele><time>2026-05-03T15:13:28.06Z</time></trkpt><trkpt lat="45.885311" lon="10.844764"><ele>71.0</ele><time>2026-05-03T15:13:31.061Z</time></trkpt><trkpt lat="45.8852019" lon="10.8447676"><ele>71.0</ele><time>2026-05-03T15:13:33.06Z</time></trkpt><trkpt lat="45.885118" lon="10.8447609"><ele>71.0</ele><time>2026-05-03T15:13:35.06Z</time></trkpt><trkpt lat="45.8850336" lon="10.8447545"><ele>70.66666666666667</ele><time>2026-05-03T15:13:37.061Z</time></trkpt><trkpt lat="45.8849459" lon="10.8447234"><ele>70.33333333333334</ele><time>2026-05-03T15:13:39.061Z</time></trkpt><trkpt lat="45.8848761" lon="10.8446923"><ele>70.0</ele><time>2026-05-03T15:13:41.061Z</time></trkpt><trkpt lat="45.8848587" lon="10.8447924"><ele>69.66666666666667</ele><time>2026-05-03T15:13:44.061Z</time></trkpt><trkpt lat="45.8849585" lon="10.8448661"><ele>69.33333333333333</ele><time>2026-05-03T15:13:46.061Z</time></trkpt><trkpt lat="45.8850226" lon="10.8448937"><ele>69.0</ele><time>2026-05-03T15:13:47.061Z</time></trkpt><trkpt lat="45.885087" lon="10.8449204"><ele>69.28571428571429</ele><time>2026-05-03T15:13:48.061Z</time></trkpt><trkpt lat="45.8851517" lon="10.8449574"><ele>69.57142857142858</ele><time>2026-05-03T15:13:49.06Z</time></trkpt><trkpt lat="45.8852067" lon="10.8450037"><ele>69.85714285714286</ele><time>2026-05-03T15:13:50.06Z</time></trkpt><trkpt lat="45.8852694" lon="10.845046"><ele>70.14285714285714</ele><time>2026-05-03T15:13:51.061Z</time></trkpt><trkpt lat="45.8853421" lon="10.8450806"><ele>70.42857142857142</ele><time>2026-05-03T15:13:52.06Z</time></trkpt><trkpt lat="45.8854091" lon="10.8451184"><ele>70.71428571428571</ele><time>2026-05-03T15:13:53.061Z</time></trkpt><trkpt lat="45.8854833" lon="10.8451529"><ele>71.0</ele><time>2026-05-03T15:13:54.061Z</time></trkpt><trkpt lat="45.8855514" lon="10.8451825"><ele>71.0</ele><time>2026-05-03T15:13:55.06Z</time></trkpt><trkpt lat="45.8856137" lon="10.8452039"><ele>71.0</ele><time>2026-05-03T15:13:56.061Z</time></trkpt><trkpt lat="45.8857246" lon="10.8452443"><ele>71.0</ele><time>2026-05-03T15:13:58.061Z</time></trkpt><trkpt lat="45.8858107" lon="10.8453087"><ele>71.0</ele><time>2026-05-03T15:14:00.061Z</time></trkpt><trkpt lat="45.8858731" lon="10.8453821"><ele>71.0</ele><time>2026-05-03T15:14:02.061Z</time></trkpt><trkpt lat="45.8859447" lon="10.845451"><ele>71.0</ele><time>2026-05-03T15:14:04.061Z</time></trkpt><trkpt lat="45.886032" lon="10.8455048"><ele>71.0</ele><time>2026-05-03T15:14:06.061Z</time></trkpt><trkpt lat="45.8861268" lon="10.8455443"><ele>71.0</ele><time>2026-05-03T15:14:08.061Z</time></trkpt><trkpt lat="45.8862144" lon="10.8455809"><ele>71.0</ele><time>2026-05-03T15:14:10.06Z</time></trkpt><trkpt lat="45.8863135" lon="10.8456111"><ele>71.0</ele><time>2026-05-03T15:14:12.061Z</time></trkpt><trkpt lat="45.8864103" lon="10.845641"><ele>71.0</ele><time>2026-05-03T15:14:14.06Z</time></trkpt><trkpt lat="45.8864867" lon="10.8456619"><ele>71.0</ele><time>2026-05-03T15:14:16.061Z</time></trkpt><trkpt lat="45.8865536" lon="10.8457003"><ele>71.0</ele><time>2026-05-03T15:14:21.06Z</time></trkpt><trkpt lat="45.8866454" lon="10.8457427"><ele>71.0</ele><time>2026-05-03T15:14:24.06Z</time></trkpt><trkpt lat="45.8867295" lon="10.8457681"><ele>71.0</ele><time>2026-05-03T15:14:26.06Z</time></trkpt><trkpt lat="45.8868312" lon="10.8458018"><ele>71.0</ele><time>2026-05-03T15:14:28.061Z</time></trkpt><trkpt lat="45.8869379" lon="10.8458437"><ele>71.2</ele><time>2026-05-03T15:14:30.061Z</time></trkpt><trkpt lat="45.8870571" lon="10.8458859"><ele>71.39999999999999</ele><time>2026-05-03T15:14:32.061Z</time></trkpt><trkpt lat="45.8871205" lon="10.8459019"><ele>71.6</ele><time>2026-05-03T15:14:33.061Z</time></trkpt><trkpt lat="45.887241" lon="10.8459389"><ele>71.8</ele><time>2026-05-03T15:14:35.061Z</time></trkpt><trkpt lat="45.8873582" lon="10.8459686"><ele>72.0</ele><time>2026-05-03T15:14:37.059Z</time></trkpt><trkpt lat="45.8874636" lon="10.8460022"><ele>72.0</ele><time>2026-05-03T15:14:39.06Z</time></trkpt><trkpt lat="45.8875684" lon="10.8460381"><ele>72.0</ele><time>2026-05-03T15:14:41.06Z</time></trkpt><trkpt lat="45.8876897" lon="10.846084"><ele>72.0</ele><time>2026-05-03T15:14:43.059Z</time></trkpt><trkpt lat="45.8877578" lon="10.8461151"><ele>72.0</ele><time>2026-05-03T15:14:44.06Z</time></trkpt><trkpt lat="45.8878406" lon="10.8461502"><ele>72.0</ele><time>2026-05-03T15:14:45.06Z</time></trkpt><trkpt lat="45.8879242" lon="10.8461737"><ele>72.0</ele><time>2026-05-03T15:14:46.06Z</time></trkpt><trkpt lat="45.8880081" lon="10.8462053"><ele>72.0</ele><time>2026-05-03T15:14:47.06Z</time></trkpt><trkpt lat="45.888087" lon="10.8462383"><ele>72.0</ele><time>2026-05-03T15:14:48.06Z</time></trkpt><trkpt lat="45.8881662" lon="10.8462603"><ele>72.0</ele><time>2026-05-03T15:14:49.06Z</time></trkpt><trkpt lat="45.8882443" lon="10.8462519"><ele>72.0</ele><time>2026-05-03T15:14:50.06Z</time></trkpt><trkpt lat="45.8883175" lon="10.8462268"><ele>72.0</ele><time>2026-05-03T15:14:51.06Z</time></trkpt><trkpt lat="45.8883994" lon="10.8461956"><ele>72.33333333333333</ele><time>2026-05-03T15:14:52.06Z</time></trkpt><trkpt lat="45.8884854" lon="10.8461628"><ele>72.66666666666667</ele><time>2026-05-03T15:14:53.06Z</time></trkpt><trkpt lat="45.8885701" lon="10.8461271"><ele>73.0</ele><time>2026-05-03T15:14:54.06Z</time></trkpt><trkpt lat="45.8886566" lon="10.8460855"><ele>73.33333333333334</ele><time>2026-05-03T15:14:55.06Z</time></trkpt><trkpt lat="45.8887385" lon="10.8460506"><ele>73.66666666666667</ele><time>2026-05-03T15:14:56.06Z</time></trkpt><trkpt lat="45.8888226" lon="10.8460087"><ele>74.0</ele><time>2026-05-03T15:14:57.06Z</time></trkpt><trkpt lat="45.8889028" lon="10.8459657"><ele>74.0</ele><time>2026-05-03T15:14:58.06Z</time></trkpt><trkpt lat="45.888986" lon="10.8459391"><ele>74.0</ele><time>2026-05-03T15:14:59.059Z</time></trkpt><trkpt lat="45.8890655" lon="10.8459106"><ele>74.0</ele><time>2026-05-03T15:15:00.059Z</time></trkpt><trkpt lat="45.8891435" lon="10.84588"><ele>74.0</ele><time>2026-05-03T15:15:01.06Z</time></trkpt><trkpt lat="45.8892126" lon="10.8458455"><ele>74.0</ele><time>2026-05-03T15:15:02.059Z</time></trkpt><trkpt lat="45.8892841" lon="10.8458262"><ele>74.0</ele><time>2026-05-03T15:15:03.06Z</time></trkpt><trkpt lat="45.8893541" lon="10.8457956"><ele>74.28571428571429</ele><time>2026-05-03T15:15:04.06Z</time></trkpt><trkpt lat="45.8894232" lon="10.8457698"><ele>74.57142857142857</ele><time>2026-05-03T15:15:05.059Z</time></trkpt><trkpt lat="45.8894973" lon="10.8457503"><ele>74.85714285714286</ele><time>2026-05-03T15:15:06.059Z</time></trkpt><trkpt lat="45.8895696" lon="10.8457303"><ele>75.14285714285714</ele><time>2026-05-03T15:15:07.06Z</time></trkpt><trkpt lat="45.8896402" lon="10.8457071"><ele>75.42857142857143</ele><time>2026-05-03T15:15:08.06Z</time></trkpt><trkpt lat="45.8897099" lon="10.8456864"><ele>75.71428571428571</ele><time>2026-05-03T15:15:09.06Z</time></trkpt><trkpt lat="45.8897872" lon="10.8456577"><ele>76.0</ele><time>2026-05-03T15:15:10.06Z</time></trkpt><trkpt lat="45.8898587" lon="10.8456178"><ele>76.0</ele><time>2026-05-03T15:15:11.06Z</time></trkpt><trkpt lat="45.889928" lon="10.8455787"><ele>76.0</ele><time>2026-05-03T15:15:12.06Z</time></trkpt><trkpt lat="45.8899897" lon="10.8455388"><ele>76.0</ele><time>2026-05-03T15:15:13.06Z</time></trkpt><trkpt lat="45.890076" lon="10.8454335"><ele>76.0</ele><time>2026-05-03T15:15:15.06Z</time></trkpt><trkpt lat="45.8901304" lon="10.8453426"><ele>76.0</ele><time>2026-05-03T15:15:17.06Z</time></trkpt><trkpt lat="45.8901615" lon="10.8452469"><ele>76.0</ele><time>2026-05-03T15:15:19.06Z</time></trkpt><trkpt lat="45.8902029" lon="10.8451559"><ele>76.66666666666666</ele><time>2026-05-03T15:15:22.059Z</time></trkpt><trkpt lat="45.8902385" lon="10.8450751"><ele>77.33333333333333</ele><time>2026-05-03T15:15:27.059Z</time></trkpt><trkpt lat="45.8902899" lon="10.84499"><ele>78.0</ele><time>2026-05-03T15:15:33.06Z</time></trkpt><trkpt lat="45.8903476" lon="10.8449319"><ele>78.66666666666667</ele><time>2026-05-03T15:15:42.06Z</time></trkpt><trkpt lat="45.890435" lon="10.8448978"><ele>79.33333333333334</ele><time>2026-05-03T15:15:44.06Z</time></trkpt><trkpt lat="45.8905312" lon="10.8449307"><ele>80.0</ele><time>2026-05-03T15:15:46.06Z</time></trkpt><trkpt lat="45.8905925" lon="10.8449882"><ele>80.0</ele><time>2026-05-03T15:15:47.059Z</time></trkpt><trkpt lat="45.8906606" lon="10.8450705"><ele>80.0</ele><time>2026-05-03T15:15:48.06Z</time></trkpt><trkpt lat="45.8907321" lon="10.8451667"><ele>80.0</ele><time>2026-05-03T15:15:49.06Z</time></trkpt><trkpt lat="45.8908111" lon="10.845261"><ele>80.0</ele><time>2026-05-03T15:15:50.059Z</time></trkpt><trkpt lat="45.8908918" lon="10.8453553"><ele>80.0</ele><time>2026-05-03T15:15:51.06Z</time></trkpt><trkpt lat="45.8909731" lon="10.8454459"><ele>80.0</ele><time>2026-05-03T15:15:52.06Z</time></trkpt><trkpt lat="45.8910508" lon="10.8455348"><ele>80.0</ele><time>2026-05-03T15:15:53.059Z</time></trkpt><trkpt lat="45.8911243" lon="10.8456106"><ele>80.0</ele><time>2026-05-03T15:15:54.059Z</time></trkpt><trkpt lat="45.8911936" lon="10.8456917"><ele>80.0</ele><time>2026-05-03T15:15:55.06Z</time></trkpt><trkpt lat="45.8912592" lon="10.8457664"><ele>80.0</ele><time>2026-05-03T15:15:56.059Z</time></trkpt><trkpt lat="45.891325" lon="10.8458368"><ele>80.0</ele><time>2026-05-03T15:15:57.059Z</time></trkpt><trkpt lat="45.8913934" lon="10.8459043"><ele>80.16666666666667</ele><time>2026-05-03T15:15:58.06Z</time></trkpt><trkpt lat="45.8914591" lon="10.8459723"><ele>80.33333333333334</ele><time>2026-05-03T15:15:59.06Z</time></trkpt><trkpt lat="45.891528" lon="10.846041"><ele>80.5</ele><time>2026-05-03T15:16:00.059Z</time></trkpt><trkpt lat="45.8915983" lon="10.8461139"><ele>80.66666666666667</ele><time>2026-05-03T15:16:01.059Z</time></trkpt><trkpt lat="45.8916705" lon="10.8461838"><ele>80.83333333333333</ele><time>2026-05-03T15:16:02.06Z</time></trkpt><trkpt lat="45.8917443" lon="10.8462536"><ele>81.0</ele><time>2026-05-03T15:16:03.06Z</time></trkpt><trkpt lat="45.891814" lon="10.8463261"><ele>81.5</ele><time>2026-05-03T15:16:04.06Z</time></trkpt><trkpt lat="45.8918837" lon="10.8463939"><ele>82.0</ele><time>2026-05-03T15:16:05.06Z</time></trkpt><trkpt lat="45.8919515" lon="10.8464617"><ele>82.5</ele><time>2026-05-03T15:16:06.059Z</time></trkpt><trkpt lat="45.8920118" lon="10.8465249"><ele>83.0</ele><time>2026-05-03T15:16:07.06Z</time></trkpt><trkpt lat="45.8920707" lon="10.8466"><ele>83.5</ele><time>2026-05-03T15:16:08.06Z</time></trkpt><trkpt lat="45.8921294" lon="10.8466794"><ele>84.0</ele><time>2026-05-03T15:16:09.06Z</time></trkpt><trkpt lat="45.8921963" lon="10.8467564"><ele>83.4</ele><time>2026-05-03T15:16:10.06Z</time></trkpt><trkpt lat="45.8922694" lon="10.8468396"><ele>82.80000000000001</ele><time>2026-05-03T15:16:11.06Z</time></trkpt><trkpt lat="45.8923443" lon="10.8469202"><ele>82.19999999999999</ele><time>2026-05-03T15:16:12.06Z</time></trkpt><trkpt lat="45.8924214" lon="10.8470041"><ele>81.6</ele><time>2026-05-03T15:16:13.06Z</time></trkpt><trkpt lat="45.8924976" lon="10.8470927"><ele>81.0</ele><time>2026-05-03T15:16:14.06Z</time></trkpt><trkpt lat="45.8925741" lon="10.847175"><ele>81.6</ele><time>2026-05-03T15:16:15.06Z</time></trkpt><trkpt lat="45.8926532" lon="10.8472573"><ele>82.19999999999999</ele><time>2026-05-03T15:16:16.06Z</time></trkpt><trkpt lat="45.8927368" lon="10.8473395"><ele>82.80000000000001</ele><time>2026-05-03T15:16:17.06Z</time></trkpt><trkpt lat="45.8928191" lon="10.8474235"><ele>83.4</ele><time>2026-05-03T15:16:18.06Z</time></trkpt><trkpt lat="45.8929019" lon="10.8475101"><ele>84.0</ele><time>2026-05-03T15:16:19.059Z</time></trkpt><trkpt lat="45.8929837" lon="10.8475977"><ele>84.0</ele><time>2026-05-03T15:16:20.06Z</time></trkpt><trkpt lat="45.8930616" lon="10.8476891"><ele>84.0</ele><time>2026-05-03T15:16:21.06Z</time></trkpt><trkpt lat="45.8931393" lon="10.8477755"><ele>84.0</ele><time>2026-05-03T15:16:22.06Z</time></trkpt><trkpt lat="45.8932163" lon="10.8478641"><ele>84.0</ele><time>2026-05-03T15:16:23.06Z</time></trkpt><trkpt lat="45.8932958" lon="10.8479433"><ele>84.0</ele><time>2026-05-03T15:16:24.06Z</time></trkpt><trkpt lat="45.8933635" lon="10.8480216"><ele>84.0</ele><time>2026-05-03T15:16:25.059Z</time></trkpt><trkpt lat="45.8934298" lon="10.8480938"><ele>84.0</ele><time>2026-05-03T15:16:26.059Z</time></trkpt><trkpt lat="45.8934964" lon="10.8481541"><ele>84.0</ele><time>2026-05-03T15:16:27.06Z</time></trkpt><trkpt lat="45.8935504" lon="10.8482189"><ele>84.0</ele><time>2026-05-03T15:16:28.06Z</time></trkpt><trkpt lat="45.8936419" lon="10.8483255"><ele>84.0</ele><time>2026-05-03T15:16:30.06Z</time></trkpt><trkpt lat="45.8937077" lon="10.8483898"><ele>84.0</ele><time>2026-05-03T15:16:32.06Z</time></trkpt><trkpt lat="45.8937651" lon="10.8484498"><ele>83.83333333333333</ele><time>2026-05-03T15:16:36.06Z</time></trkpt><trkpt lat="45.8938204" lon="10.8485059"><ele>83.66666666666667</ele><time>2026-05-03T15:16:58.06Z</time></trkpt><trkpt lat="45.8938947" lon="10.8485761"><ele>83.5</ele><time>2026-05-03T15:17:00.061Z</time></trkpt><trkpt lat="45.8939678" lon="10.848661"><ele>83.33333333333334</ele><time>2026-05-03T15:17:02.061Z</time></trkpt><trkpt lat="45.8940339" lon="10.848744"><ele>83.16666666666667</ele><time>2026-05-03T15:17:04.061Z</time></trkpt><trkpt lat="45.8941094" lon="10.8488191"><ele>83.0</ele><time>2026-05-03T15:17:06.061Z</time></trkpt><trkpt lat="45.8941964" lon="10.848918"><ele>83.0</ele><time>2026-05-03T15:17:08.06Z</time></trkpt><trkpt lat="45.8942454" lon="10.848978"><ele>83.0</ele><time>2026-05-03T15:17:09.06Z</time></trkpt><trkpt lat="45.8943506" lon="10.849075"><ele>83.0</ele><time>2026-05-03T15:17:11.06Z</time></trkpt><trkpt lat="45.8944125" lon="10.8491393"><ele>83.0</ele><time>2026-05-03T15:17:12.061Z</time></trkpt><trkpt lat="45.8944857" lon="10.8492123"><ele>83.0</ele><time>2026-05-03T15:17:13.061Z</time></trkpt><trkpt lat="45.8945711" lon="10.8492912"><ele>83.80000000000001</ele><time>2026-05-03T15:17:14.06Z</time></trkpt><trkpt lat="45.8946533" lon="10.849375"><ele>84.6</ele><time>2026-05-03T15:17:15.061Z</time></trkpt><trkpt lat="45.8947287" lon="10.8494569"><ele>85.4</ele><time>2026-05-03T15:17:16.061Z</time></trkpt><trkpt lat="45.894811" lon="10.8495397"><ele>86.19999999999999</ele><time>2026-05-03T15:17:17.061Z</time></trkpt><trkpt lat="45.8948918" lon="10.8496309"><ele>87.0</ele><time>2026-05-03T15:17:18.061Z</time></trkpt><trkpt lat="45.8949733" lon="10.8497114"><ele>87.0</ele><time>2026-05-03T15:17:19.06Z</time></trkpt><trkpt lat="45.8950559" lon="10.8497981"><ele>87.0</ele><time>2026-05-03T15:17:20.061Z</time></trkpt><trkpt lat="45.8951358" lon="10.8498862"><ele>87.0</ele><time>2026-05-03T15:17:21.061Z</time></trkpt><trkpt lat="45.8952139" lon="10.8499722"><ele>87.0</ele><time>2026-05-03T15:17:22.061Z</time></trkpt><trkpt lat="45.895284" lon="10.8500508"><ele>87.0</ele><time>2026-05-03T15:17:23.061Z</time></trkpt><trkpt lat="45.8953523" lon="10.8501277"><ele>87.33333333333333</ele><time>2026-05-03T15:17:24.06Z</time></trkpt><trkpt lat="45.8954183" lon="10.8501987"><ele>87.66666666666667</ele><time>2026-05-03T15:17:25.061Z</time></trkpt><trkpt lat="45.8954841" lon="10.8502707"><ele>88.0</ele><time>2026-05-03T15:17:26.06Z</time></trkpt><trkpt lat="45.8955502" lon="10.8503429"><ele>88.33333333333334</ele><time>2026-05-03T15:17:27.06Z</time></trkpt><trkpt lat="45.8956098" lon="10.8504096"><ele>88.66666666666667</ele><time>2026-05-03T15:17:28.06Z</time></trkpt><trkpt lat="45.8956665" lon="10.8504774"><ele>89.0</ele><time>2026-05-03T15:17:30.06Z</time></trkpt><trkpt lat="45.8957246" lon="10.8505346"><ele>89.0</ele><time>2026-05-03T15:17:33.061Z</time></trkpt><trkpt lat="45.895797" lon="10.8506087"><ele>89.0</ele><time>2026-05-03T15:17:36.061Z</time></trkpt><trkpt lat="45.8958579" lon="10.8506699"><ele>89.0</ele><time>2026-05-03T15:17:38.06Z</time></trkpt><trkpt lat="45.8959314" lon="10.8507492"><ele>89.0</ele><time>2026-05-03T15:17:40.061Z</time></trkpt><trkpt lat="45.8960243" lon="10.8508302"><ele>89.0</ele><time>2026-05-03T15:17:42.061Z</time></trkpt><trkpt lat="45.8960786" lon="10.8508819"><ele>89.0</ele><time>2026-05-03T15:17:43.061Z</time></trkpt><trkpt lat="45.8961387" lon="10.8509429"><ele>89.33333333333334</ele><time>2026-05-03T15:17:44.061Z</time></trkpt><trkpt lat="45.8961969" lon="10.8510056"><ele>89.66666666666667</ele><time>2026-05-03T15:17:45.061Z</time></trkpt><trkpt lat="45.8962647" lon="10.8510735"><ele>90.0</ele><time>2026-05-03T15:17:46.061Z</time></trkpt><trkpt lat="45.8963319" lon="10.8511415"><ele>90.33333333333333</ele><time>2026-05-03T15:17:47.061Z</time></trkpt><trkpt lat="45.8964051" lon="10.8512162"><ele>90.66666666666666</ele><time>2026-05-03T15:17:48.06Z</time></trkpt><trkpt lat="45.8964854" lon="10.8513036"><ele>91.0</ele><time>2026-05-03T15:17:49.061Z</time></trkpt><trkpt lat="45.8965662" lon="10.8513916"><ele>91.0</ele><time>2026-05-03T15:17:50.061Z</time></trkpt><trkpt lat="45.8966447" lon="10.8514719"><ele>91.0</ele><time>2026-05-03T15:17:51.061Z</time></trkpt><trkpt lat="45.8967198" lon="10.8515485"><ele>91.0</ele><time>2026-05-03T15:17:52.06Z</time></trkpt><trkpt lat="45.8967906" lon="10.8516277"><ele>91.0</ele><time>2026-05-03T15:17:53.061Z</time></trkpt><trkpt lat="45.8968625" lon="10.8517057"><ele>91.0</ele><time>2026-05-03T15:17:54.061Z</time></trkpt><trkpt lat="45.8969355" lon="10.8517811"><ele>90.83333333333333</ele><time>2026-05-03T15:17:55.061Z</time></trkpt><trkpt lat="45.8970074" lon="10.8518538"><ele>90.66666666666666</ele><time>2026-05-03T15:17:56.061Z</time></trkpt><trkpt lat="45.8970791" lon="10.8519303"><ele>90.5</ele><time>2026-05-03T15:17:57.06Z</time></trkpt><trkpt lat="45.8971459" lon="10.8520018"><ele>90.33333333333333</ele><time>2026-05-03T15:17:58.061Z</time></trkpt><trkpt lat="45.8972004" lon="10.8520726"><ele>90.16666666666667</ele><time>2026-05-03T15:17:59.06Z</time></trkpt><trkpt lat="45.8972467" lon="10.8521452"><ele>90.0</ele><time>2026-05-03T15:18:00.061Z</time></trkpt><trkpt lat="45.897281" lon="10.8522214"><ele>90.0</ele><time>2026-05-03T15:18:01.061Z</time></trkpt><trkpt lat="45.8973496" lon="10.8523594"><ele>90.0</ele><time>2026-05-03T15:18:03.061Z</time></trkpt><trkpt lat="45.8974125" lon="10.8524059"><ele>90.0</ele><time>2026-05-03T15:18:04.061Z</time></trkpt><trkpt lat="45.8974932" lon="10.8524461"><ele>90.0</ele><time>2026-05-03T15:18:05.061Z</time></trkpt><trkpt lat="45.8975928" lon="10.8524878"><ele>90.0</ele><time>2026-05-03T15:18:06.061Z</time></trkpt><trkpt lat="45.897698" lon="10.8525447"><ele>90.16666666666667</ele><time>2026-05-03T15:18:07.061Z</time></trkpt><trkpt lat="45.8977991" lon="10.8526122"><ele>90.33333333333333</ele><time>2026-05-03T15:18:08.06Z</time></trkpt><trkpt lat="45.8978781" lon="10.8526862"><ele>90.5</ele><time>2026-05-03T15:18:09.061Z</time></trkpt><trkpt lat="45.8979581" lon="10.8527542"><ele>90.66666666666666</ele><time>2026-05-03T15:18:10.061Z</time></trkpt><trkpt lat="45.898019" lon="10.8528239"><ele>90.83333333333333</ele><time>2026-05-03T15:18:11.061Z</time></trkpt><trkpt lat="45.8980706" lon="10.8528848"><ele>91.0</ele><time>2026-05-03T15:18:12.06Z</time></trkpt><trkpt lat="45.8981425" lon="10.8529861"><ele>91.0</ele><time>2026-05-03T15:18:14.06Z</time></trkpt><trkpt lat="45.8981959" lon="10.8530428"><ele>91.0</ele><time>2026-05-03T15:18:18.061Z</time></trkpt><trkpt lat="45.8982605" lon="10.8531109"><ele>91.0</ele><time>2026-05-03T15:18:22.061Z</time></trkpt><trkpt lat="45.898354" lon="10.8532544"><ele>91.0</ele><time>2026-05-03T15:18:27.061Z</time></trkpt><trkpt lat="45.8984225" lon="10.8533575"><ele>91.0</ele><time>2026-05-03T15:18:28.06Z</time></trkpt><trkpt lat="45.898493" lon="10.8534767"><ele>90.5</ele><time>2026-05-03T15:18:29.061Z</time></trkpt><trkpt lat="45.8985723" lon="10.8536014"><ele>90.0</ele><time>2026-05-03T15:18:30.061Z</time></trkpt><trkpt lat="45.8986455" lon="10.8537287"><ele>89.5</ele><time>2026-05-03T15:18:31.061Z</time></trkpt><trkpt lat="45.898718" lon="10.8538568"><ele>89.0</ele><time>2026-05-03T15:18:32.061Z</time></trkpt><trkpt lat="45.8987898" lon="10.8539836"><ele>89.0</ele><time>2026-05-03T15:18:33.061Z</time></trkpt><trkpt lat="45.8988615" lon="10.8541063"><ele>89.0</ele><time>2026-05-03T15:18:34.061Z</time></trkpt><trkpt lat="45.898933" lon="10.8542283"><ele>89.0</ele><time>2026-05-03T15:18:35.06Z</time></trkpt><trkpt lat="45.8990011" lon="10.8543541"><ele>89.0</ele><time>2026-05-03T15:18:36.061Z</time></trkpt><trkpt lat="45.8990744" lon="10.8544736"><ele>89.0</ele><time>2026-05-03T15:18:37.061Z</time></trkpt><trkpt lat="45.8991481" lon="10.8545968"><ele>88.0</ele><time>2026-05-03T15:18:38.061Z</time></trkpt><trkpt lat="45.8992221" lon="10.8547276"><ele>87.0</ele><time>2026-05-03T15:18:39.06Z</time></trkpt><trkpt lat="45.8993012" lon="10.8548638"><ele>86.0</ele><time>2026-05-03T15:18:40.061Z</time></trkpt><trkpt lat="45.899381" lon="10.8550068"><ele>85.0</ele><time>2026-05-03T15:18:41.06Z</time></trkpt><trkpt lat="45.8994622" lon="10.8551446"><ele>84.75</ele><time>2026-05-03T15:18:42.06Z</time></trkpt><trkpt lat="45.8995416" lon="10.8552833"><ele>84.5</ele><time>2026-05-03T15:18:43.06Z</time></trkpt><trkpt lat="45.8996179" lon="10.8554155"><ele>84.25</ele><time>2026-05-03T15:18:44.061Z</time></trkpt><trkpt lat="45.8996975" lon="10.8555505"><ele>84.0</ele><time>2026-05-03T15:18:45.061Z</time></trkpt><trkpt lat="45.8997779" lon="10.8556921"><ele>84.0</ele><time>2026-05-03T15:18:46.06Z</time></trkpt><trkpt lat="45.8998559" lon="10.855823"><ele>84.0</ele><time>2026-05-03T15:18:47.06Z</time></trkpt><trkpt lat="45.899936" lon="10.8559486"><ele>84.0</ele><time>2026-05-03T15:18:48.06Z</time></trkpt><trkpt lat="45.9000114" lon="10.856082"><ele>84.0</ele><time>2026-05-03T15:18:49.061Z</time></trkpt><trkpt lat="45.9000911" lon="10.8562157"><ele>83.5</ele><time>2026-05-03T15:18:50.061Z</time></trkpt><trkpt lat="45.9001672" lon="10.8563465"><ele>83.0</ele><time>2026-05-03T15:18:51.061Z</time></trkpt><trkpt lat="45.9002456" lon="10.8564851"><ele>82.5</ele><time>2026-05-03T15:18:52.061Z</time></trkpt><trkpt lat="45.9003258" lon="10.856623"><ele>82.0</ele><time>2026-05-03T15:18:53.061Z</time></trkpt><trkpt lat="45.9004029" lon="10.8567594"><ele>81.75</ele><time>2026-05-03T15:18:54.06Z</time></trkpt><trkpt lat="45.9004812" lon="10.856898"><ele>81.5</ele><time>2026-05-03T15:18:55.06Z</time></trkpt><trkpt lat="45.9005593" lon="10.8570365"><ele>81.25</ele><time>2026-05-03T15:18:56.061Z</time></trkpt><trkpt lat="45.9006425" lon="10.8571758"><ele>81.0</ele><time>2026-05-03T15:18:57.061Z</time></trkpt><trkpt lat="45.9007253" lon="10.857311"><ele>81.0</ele><time>2026-05-03T15:18:58.06Z</time></trkpt><trkpt lat="45.9008082" lon="10.8574534"><ele>81.0</ele><time>2026-05-03T15:18:59.061Z</time></trkpt><trkpt lat="45.9008927" lon="10.8575953"><ele>81.0</ele><time>2026-05-03T15:19:00.061Z</time></trkpt><trkpt lat="45.9009741" lon="10.8577381"><ele>81.0</ele><time>2026-05-03T15:19:01.061Z</time></trkpt><trkpt lat="45.9010577" lon="10.8578796"><ele>81.0</ele><time>2026-05-03T15:19:02.061Z</time></trkpt><trkpt lat="45.9011365" lon="10.8580118"><ele>81.0</ele><time>2026-05-03T15:19:03.06Z</time></trkpt><trkpt lat="45.9012156" lon="10.8581544"><ele>81.0</ele><time>2026-05-03T15:19:04.06Z</time></trkpt><trkpt lat="45.9012913" lon="10.858283"><ele>81.0</ele><time>2026-05-03T15:19:05.061Z</time></trkpt><trkpt lat="45.9013669" lon="10.8584166"><ele>80.8</ele><time>2026-05-03T15:19:06.061Z</time></trkpt><trkpt lat="45.9014411" lon="10.8585363"><ele>80.6</ele><time>2026-05-03T15:19:07.061Z</time></trkpt><trkpt lat="45.9015145" lon="10.8586603"><ele>80.4</ele><time>2026-05-03T15:19:08.061Z</time></trkpt><trkpt lat="45.9015834" lon="10.8587728"><ele>80.2</ele><time>2026-05-03T15:19:09.06Z</time></trkpt><trkpt lat="45.9016492" lon="10.8588924"><ele>80.0</ele><time>2026-05-03T15:19:10.061Z</time></trkpt><trkpt lat="45.9017154" lon="10.8590122"><ele>80.0</ele><time>2026-05-03T15:19:11.061Z</time></trkpt><trkpt lat="45.9017878" lon="10.8591291"><ele>80.0</ele><time>2026-05-03T15:19:12.061Z</time></trkpt><trkpt lat="45.901858" lon="10.859247"><ele>80.0</ele><time>2026-05-03T15:19:13.061Z</time></trkpt><trkpt lat="45.9019263" lon="10.8593546"><ele>80.0</ele><time>2026-05-03T15:19:14.061Z</time></trkpt><trkpt lat="45.9019887" lon="10.8594617"><ele>80.0</ele><time>2026-05-03T15:19:15.059Z</time></trkpt><trkpt lat="45.9020516" lon="10.8595653"><ele>80.0</ele><time>2026-05-03T15:19:16.06Z</time></trkpt><trkpt lat="45.9021046" lon="10.8596616"><ele>80.0</ele><time>2026-05-03T15:19:17.059Z</time></trkpt><trkpt lat="45.9021602" lon="10.8597543"><ele>80.0</ele><time>2026-05-03T15:19:18.059Z</time></trkpt><trkpt lat="45.9022136" lon="10.8598445"><ele>80.0</ele><time>2026-05-03T15:19:19.059Z</time></trkpt><trkpt lat="45.9022591" lon="10.8599322"><ele>80.0</ele><time>2026-05-03T15:19:20.059Z</time></trkpt><trkpt lat="45.9023329" lon="10.8600554"><ele>80.0</ele><time>2026-05-03T15:19:22.06Z</time></trkpt><trkpt lat="45.9023796" lon="10.8601439"><ele>80.0</ele><time>2026-05-03T15:19:24.06Z</time></trkpt><trkpt lat="45.9024198" lon="10.8602306"><ele>80.0</ele><time>2026-05-03T15:19:36.06Z</time></trkpt><trkpt lat="45.9024624" lon="10.8603226"><ele>80.0</ele><time>2026-05-03T15:19:39.059Z</time></trkpt><trkpt lat="45.9025086" lon="10.8604169"><ele>80.0</ele><time>2026-05-03T15:19:42.06Z</time></trkpt><trkpt lat="45.9025548" lon="10.8604947"><ele>80.0</ele><time>2026-05-03T15:19:46.059Z</time></trkpt><trkpt lat="45.9026143" lon="10.8605645"><ele>80.0</ele><time>2026-05-03T15:19:50.06Z</time></trkpt><trkpt lat="45.9026633" lon="10.8606462"><ele>80.0</ele><time>2026-05-03T15:19:53.06Z</time></trkpt><trkpt lat="45.9027231" lon="10.8607403"><ele>80.0</ele><time>2026-05-03T15:19:55.059Z</time></trkpt><trkpt lat="45.9027999" lon="10.8608759"><ele>80.0</ele><time>2026-05-03T15:19:57.06Z</time></trkpt><trkpt lat="45.9028471" lon="10.8609564"><ele>80.0</ele><time>2026-05-03T15:19:58.06Z</time></trkpt><trkpt lat="45.9028976" lon="10.8610375"><ele>80.0</ele><time>2026-05-03T15:19:59.06Z</time></trkpt><trkpt lat="45.9029453" lon="10.8611226"><ele>80.0</ele><time>2026-05-03T15:20:00.059Z</time></trkpt><trkpt lat="45.9029989" lon="10.8612139"><ele>79.2</ele><time>2026-05-03T15:20:01.059Z</time></trkpt><trkpt lat="45.9030525" lon="10.8613109"><ele>78.4</ele><time>2026-05-03T15:20:02.059Z</time></trkpt><trkpt lat="45.9031141" lon="10.8614135"><ele>77.6</ele><time>2026-05-03T15:20:03.06Z</time></trkpt><trkpt lat="45.9031765" lon="10.8615199"><ele>76.8</ele><time>2026-05-03T15:20:04.06Z</time></trkpt><trkpt lat="45.903247" lon="10.8616364"><ele>76.0</ele><time>2026-05-03T15:20:05.06Z</time></trkpt><trkpt lat="45.9033177" lon="10.8617565"><ele>76.0</ele><time>2026-05-03T15:20:06.06Z</time></trkpt><trkpt lat="45.9033867" lon="10.8618724"><ele>76.0</ele><time>2026-05-03T15:20:07.059Z</time></trkpt><trkpt lat="45.9034554" lon="10.8619936"><ele>76.0</ele><time>2026-05-03T15:20:08.06Z</time></trkpt><trkpt lat="45.9035237" lon="10.8621102"><ele>76.0</ele><time>2026-05-03T15:20:09.06Z</time></trkpt><trkpt lat="45.9035916" lon="10.862234"><ele>76.0</ele><time>2026-05-03T15:20:10.06Z</time></trkpt><trkpt lat="45.9036576" lon="10.862351"><ele>76.0</ele><time>2026-05-03T15:20:11.06Z</time></trkpt><trkpt lat="45.9037275" lon="10.8624698"><ele>76.0</ele><time>2026-05-03T15:20:12.06Z</time></trkpt><trkpt lat="45.9037943" lon="10.8625915"><ele>76.0</ele><time>2026-05-03T15:20:13.06Z</time></trkpt><trkpt lat="45.9038616" lon="10.8627148"><ele>76.0</ele><time>2026-05-03T15:20:14.059Z</time></trkpt><trkpt lat="45.9039291" lon="10.862836"><ele>76.0</ele><time>2026-05-03T15:20:15.06Z</time></trkpt><trkpt lat="45.9040005" lon="10.8629558"><ele>76.0</ele><time>2026-05-03T15:20:16.059Z</time></trkpt><trkpt lat="45.9040702" lon="10.86308"><ele>76.0</ele><time>2026-05-03T15:20:17.06Z</time></trkpt><trkpt lat="45.9041434" lon="10.8631982"><ele>76.0</ele><time>2026-05-03T15:20:18.059Z</time></trkpt><trkpt lat="45.9042158" lon="10.8633198"><ele>76.0</ele><time>2026-05-03T15:20:19.06Z</time></trkpt><trkpt lat="45.9042926" lon="10.8634496"><ele>75.75</ele><time>2026-05-03T15:20:20.06Z</time></trkpt><trkpt lat="45.9043667" lon="10.8635749"><ele>75.5</ele><time>2026-05-03T15:20:21.06Z</time></trkpt><trkpt lat="45.9044416" lon="10.8637013"><ele>75.25</ele><time>2026-05-03T15:20:22.06Z</time></trkpt><trkpt lat="45.9045229" lon="10.8638308"><ele>75.0</ele><time>2026-05-03T15:20:23.06Z</time></trkpt><trkpt lat="45.9046058" lon="10.8639536"><ele>75.0</ele><time>2026-05-03T15:20:24.059Z</time></trkpt><trkpt lat="45.9046967" lon="10.8640703"><ele>75.0</ele><time>2026-05-03T15:20:25.059Z</time></trkpt><trkpt lat="45.9047888" lon="10.8641854"><ele>75.0</ele><time>2026-05-03T15:20:26.06Z</time></trkpt><trkpt lat="45.9048846" lon="10.8642983"><ele>75.0</ele><time>2026-05-03T15:20:27.059Z</time></trkpt><trkpt lat="45.9049769" lon="10.8644052"><ele>75.0</ele><time>2026-05-03T15:20:28.06Z</time></trkpt><trkpt lat="45.9050697" lon="10.8645143"><ele>75.0</ele><time>2026-05-03T15:20:29.06Z</time></trkpt><trkpt lat="45.9051633" lon="10.8646236"><ele>75.0</ele><time>2026-05-03T15:20:30.059Z</time></trkpt><trkpt lat="45.9052566" lon="10.8647389"><ele>75.0</ele><time>2026-05-03T15:20:31.06Z</time></trkpt><trkpt lat="45.905346" lon="10.8648506"><ele>75.0</ele><time>2026-05-03T15:20:32.06Z</time></trkpt><trkpt lat="45.9054434" lon="10.8649636"><ele>75.0</ele><time>2026-05-03T15:20:33.06Z</time></trkpt><trkpt lat="45.9055366" lon="10.8650803"><ele>75.0</ele><time>2026-05-03T15:20:34.06Z</time></trkpt><trkpt lat="45.9056279" lon="10.8652011"><ele>75.0</ele><time>2026-05-03T15:20:35.06Z</time></trkpt><trkpt lat="45.9057224" lon="10.8653227"><ele>75.5</ele><time>2026-05-03T15:20:36.06Z</time></trkpt><trkpt lat="45.9058163" lon="10.8654359"><ele>76.0</ele><time>2026-05-03T15:20:37.06Z</time></trkpt><trkpt lat="45.9059116" lon="10.865557"><ele>76.5</ele><time>2026-05-03T15:20:38.06Z</time></trkpt><trkpt lat="45.9060073" lon="10.865674"><ele>77.0</ele><time>2026-05-03T15:20:39.06Z</time></trkpt><trkpt lat="45.9061044" lon="10.8657829"><ele>77.0</ele><time>2026-05-03T15:20:40.06Z</time></trkpt><trkpt lat="45.9061973" lon="10.8659005"><ele>77.0</ele><time>2026-05-03T15:20:41.06Z</time></trkpt><trkpt lat="45.9062891" lon="10.8660212"><ele>77.0</ele><time>2026-05-03T15:20:42.059Z</time></trkpt><trkpt lat="45.9063761" lon="10.8661372"><ele>77.0</ele><time>2026-05-03T15:20:43.06Z</time></trkpt><trkpt lat="45.9064613" lon="10.8662503"><ele>76.8</ele><time>2026-05-03T15:20:44.06Z</time></trkpt><trkpt lat="45.9065467" lon="10.8663525"><ele>76.6</ele><time>2026-05-03T15:20:45.06Z</time></trkpt><trkpt lat="45.9066272" lon="10.8664532"><ele>76.39999999999999</ele><time>2026-05-03T15:20:46.059Z</time></trkpt><trkpt lat="45.9067068" lon="10.86655"><ele>76.2</ele><time>2026-05-03T15:20:47.059Z</time></trkpt><trkpt lat="45.9067791" lon="10.8666377"><ele>76.0</ele><time>2026-05-03T15:20:48.06Z</time></trkpt><trkpt lat="45.9068504" lon="10.866722"><ele>76.0</ele><time>2026-05-03T15:20:49.06Z</time></trkpt><trkpt lat="45.906915" lon="10.8668024"><ele>76.0</ele><time>2026-05-03T15:20:50.06Z</time></trkpt><trkpt lat="45.9069708" lon="10.8668761"><ele>76.0</ele><time>2026-05-03T15:20:51.06Z</time></trkpt><trkpt lat="45.907049" lon="10.867001"><ele>76.0</ele><time>2026-05-03T15:20:53.059Z</time></trkpt><trkpt lat="45.9070873" lon="10.867083"><ele>76.0</ele><time>2026-05-03T15:20:55.06Z</time></trkpt><trkpt lat="45.907119" lon="10.867168"><ele>76.0</ele><time>2026-05-03T15:21:02.059Z</time></trkpt><trkpt lat="45.9071485" lon="10.8672769"><ele>76.0</ele><time>2026-05-03T15:21:04.059Z</time></trkpt><trkpt lat="45.9071842" lon="10.8674409"><ele>76.0</ele><time>2026-05-03T15:21:06.06Z</time></trkpt><trkpt lat="45.907263" lon="10.867578"><ele>76.0</ele><time>2026-05-03T15:21:08.06Z</time></trkpt><trkpt lat="45.9073796" lon="10.867631"><ele>76.0</ele><time>2026-05-03T15:21:10.06Z</time></trkpt><trkpt lat="45.9074424" lon="10.8676086"><ele>76.0</ele><time>2026-05-03T15:21:11.06Z</time></trkpt><trkpt lat="45.9075028" lon="10.867545"><ele>76.0</ele><time>2026-05-03T15:21:12.06Z</time></trkpt><trkpt lat="45.9075408" lon="10.8674624"><ele>76.0</ele><time>2026-05-03T15:21:13.059Z</time></trkpt><trkpt lat="45.9075565" lon="10.8673654"><ele>76.0</ele><time>2026-05-03T15:21:14.06Z</time></trkpt><trkpt lat="45.9075513" lon="10.8672621"><ele>76.0</ele><time>2026-05-03T15:21:15.06Z</time></trkpt><trkpt lat="45.9075292" lon="10.8671725"><ele>76.0</ele><time>2026-05-03T15:21:16.059Z</time></trkpt><trkpt lat="45.9074856" lon="10.8671048"><ele>76.0</ele><time>2026-05-03T15:21:17.06Z</time></trkpt><trkpt lat="45.9074273" lon="10.8670587"><ele>76.0</ele><time>2026-05-03T15:21:18.06Z</time></trkpt><trkpt lat="45.9073552" lon="10.8670392"><ele>76.0</ele><time>2026-05-03T15:21:19.06Z</time></trkpt><trkpt lat="45.9072873" lon="10.8670682"><ele>76.0</ele><time>2026-05-03T15:21:20.06Z</time></trkpt><trkpt lat="45.9072309" lon="10.8671233"><ele>76.0</ele><time>2026-05-03T15:21:21.06Z</time></trkpt><trkpt lat="45.9071844" lon="10.8671951"><ele>76.0</ele><time>2026-05-03T15:21:22.06Z</time></trkpt><trkpt lat="45.9071529" lon="10.8672815"><ele>76.0</ele><time>2026-05-03T15:21:23.06Z</time></trkpt><trkpt lat="45.90713" lon="10.8673823"><ele>76.0</ele><time>2026-05-03T15:21:24.06Z</time></trkpt><trkpt lat="45.9071046" lon="10.867495"><ele>76.0</ele><time>2026-05-03T15:21:25.06Z</time></trkpt><trkpt lat="45.907069" lon="10.8676196"><ele>76.2</ele><time>2026-05-03T15:21:26.06Z</time></trkpt><trkpt lat="45.9070076" lon="10.8677462"><ele>76.39999999999999</ele><time>2026-05-03T15:21:27.06Z</time></trkpt><trkpt lat="45.9069351" lon="10.8678612"><ele>76.6</ele><time>2026-05-03T15:21:28.06Z</time></trkpt><trkpt lat="45.9068556" lon="10.8679716"><ele>76.8</ele><time>2026-05-03T15:21:29.06Z</time></trkpt><trkpt lat="45.9067747" lon="10.8680873"><ele>77.0</ele><time>2026-05-03T15:21:30.06Z</time></trkpt><trkpt lat="45.906696" lon="10.8682098"><ele>77.0</ele><time>2026-05-03T15:21:31.06Z</time></trkpt><trkpt lat="45.9066199" lon="10.8683463"><ele>77.0</ele><time>2026-05-03T15:21:32.06Z</time></trkpt><trkpt lat="45.9065399" lon="10.8684859"><ele>77.0</ele><time>2026-05-03T15:21:33.06Z</time></trkpt><trkpt lat="45.9064582" lon="10.868634"><ele>77.0</ele><time>2026-05-03T15:21:34.06Z</time></trkpt><trkpt lat="45.9063714" lon="10.868787"><ele>77.0</ele><time>2026-05-03T15:21:35.059Z</time></trkpt><trkpt lat="45.906287" lon="10.8689471"><ele>77.0</ele><time>2026-05-03T15:21:36.06Z</time></trkpt><trkpt lat="45.9062" lon="10.8691179"><ele>77.0</ele><time>2026-05-03T15:21:37.059Z</time></trkpt><trkpt lat="45.9061156" lon="10.8692928"><ele>77.0</ele><time>2026-05-03T15:21:38.059Z</time></trkpt><trkpt lat="45.9060319" lon="10.8694627"><ele>77.0</ele><time>2026-05-03T15:21:39.06Z</time></trkpt><trkpt lat="45.9059469" lon="10.8696405"><ele>77.0</ele><time>2026-05-03T15:21:40.06Z</time></trkpt><trkpt lat="45.9058619" lon="10.8698246"><ele>77.0</ele><time>2026-05-03T15:21:41.06Z</time></trkpt><trkpt lat="45.905771" lon="10.8700051"><ele>77.66666666666667</ele><time>2026-05-03T15:21:42.059Z</time></trkpt><trkpt lat="45.9056822" lon="10.8701853"><ele>78.33333333333333</ele><time>2026-05-03T15:21:43.06Z</time></trkpt><trkpt lat="45.9055903" lon="10.8703658"><ele>79.0</ele><time>2026-05-03T15:21:44.059Z</time></trkpt><trkpt lat="45.9055015" lon="10.8705546"><ele>79.0</ele><time>2026-05-03T15:21:45.06Z</time></trkpt><trkpt lat="45.9054146" lon="10.8707379"><ele>79.0</ele><time>2026-05-03T15:21:46.059Z</time></trkpt><trkpt lat="45.9053256" lon="10.8709219"><ele>79.0</ele><time>2026-05-03T15:21:47.06Z</time></trkpt><trkpt lat="45.9052447" lon="10.8711084"><ele>79.0</ele><time>2026-05-03T15:21:48.059Z</time></trkpt><trkpt lat="45.9051637" lon="10.8712996"><ele>79.0</ele><time>2026-05-03T15:21:49.06Z</time></trkpt><trkpt lat="45.9050876" lon="10.8714931"><ele>79.0</ele><time>2026-05-03T15:21:50.06Z</time></trkpt><trkpt lat="45.9050194" lon="10.8716828"><ele>79.0</ele><time>2026-05-03T15:21:51.06Z</time></trkpt><trkpt lat="45.9049495" lon="10.8718793"><ele>79.0</ele><time>2026-05-03T15:21:52.059Z</time></trkpt><trkpt lat="45.9048835" lon="10.8720711"><ele>79.0</ele><time>2026-05-03T15:21:53.06Z</time></trkpt><trkpt lat="45.9048161" lon="10.8722698"><ele>79.0</ele><time>2026-05-03T15:21:54.06Z</time></trkpt><trkpt lat="45.9047466" lon="10.8724632"><ele>79.0</ele><time>2026-05-03T15:21:55.06Z</time></trkpt><trkpt lat="45.9046796" lon="10.8726419"><ele>79.0</ele><time>2026-05-03T15:21:56.06Z</time></trkpt><trkpt lat="45.9046188" lon="10.8728162"><ele>79.0</ele><time>2026-05-03T15:21:57.059Z</time></trkpt><trkpt lat="45.9045614" lon="10.8729824"><ele>78.8</ele><time>2026-05-03T15:21:58.06Z</time></trkpt><trkpt lat="45.9045067" lon="10.8731428"><ele>78.60000000000001</ele><time>2026-05-03T15:21:59.06Z</time></trkpt><trkpt lat="45.9044534" lon="10.8732882"><ele>78.4</ele><time>2026-05-03T15:22:00.06Z</time></trkpt><trkpt lat="45.9044053" lon="10.8734123"><ele>78.2</ele><time>2026-05-03T15:22:01.06Z</time></trkpt><trkpt lat="45.9043554" lon="10.8735254"><ele>78.0</ele><time>2026-05-03T15:22:02.059Z</time></trkpt><trkpt lat="45.9042979" lon="10.8736215"><ele>78.0</ele><time>2026-05-03T15:22:03.06Z</time></trkpt><trkpt lat="45.9042355" lon="10.8737038"><ele>78.0</ele><time>2026-05-03T15:22:04.06Z</time></trkpt><trkpt lat="45.9041741" lon="10.8737873"><ele>78.0</ele><time>2026-05-03T15:22:05.06Z</time></trkpt><trkpt lat="45.9041244" lon="10.8738693"><ele>78.0</ele><time>2026-05-03T15:22:06.059Z</time></trkpt><trkpt lat="45.9040998" lon="10.8739641"><ele>78.0</ele><time>2026-05-03T15:22:07.06Z</time></trkpt><trkpt lat="45.9041074" lon="10.8740626"><ele>78.0</ele><time>2026-05-03T15:22:08.06Z</time></trkpt><trkpt lat="45.9041498" lon="10.8741392"><ele>78.0</ele><time>2026-05-03T15:22:09.059Z</time></trkpt><trkpt lat="45.904217" lon="10.8742032"><ele>78.0</ele><time>2026-05-03T15:22:10.06Z</time></trkpt><trkpt lat="45.9043051" lon="10.8742636"><ele>78.0</ele><time>2026-05-03T15:22:11.059Z</time></trkpt><trkpt lat="45.9043996" lon="10.8743241"><ele>78.0</ele><time>2026-05-03T15:22:12.06Z</time></trkpt><trkpt lat="45.9044975" lon="10.8744062"><ele>78.0</ele><time>2026-05-03T15:22:13.06Z</time></trkpt><trkpt lat="45.904591" lon="10.8745053"><ele>78.5</ele><time>2026-05-03T15:22:14.06Z</time></trkpt><trkpt lat="45.9046888" lon="10.8746139"><ele>79.0</ele><time>2026-05-03T15:22:15.06Z</time></trkpt><trkpt lat="45.9047922" lon="10.8747269"><ele>79.5</ele><time>2026-05-03T15:22:16.06Z</time></trkpt><trkpt lat="45.9048993" lon="10.8748404"><ele>80.0</ele><time>2026-05-03T15:22:17.06Z</time></trkpt><trkpt lat="45.9050142" lon="10.8749512"><ele>79.5</ele><time>2026-05-03T15:22:18.06Z</time></trkpt><trkpt lat="45.9051301" lon="10.875057"><ele>79.0</ele><time>2026-05-03T15:22:19.06Z</time></trkpt><trkpt lat="45.9052477" lon="10.8751618"><ele>78.5</ele><time>2026-05-03T15:22:20.06Z</time></trkpt><trkpt lat="45.9053698" lon="10.875263"><ele>78.0</ele><time>2026-05-03T15:22:21.06Z</time></trkpt><trkpt lat="45.9054864" lon="10.87536"><ele>78.0</ele><time>2026-05-03T15:22:22.059Z</time></trkpt><trkpt lat="45.9056068" lon="10.8754557"><ele>78.0</ele><time>2026-05-03T15:22:23.06Z</time></trkpt><trkpt lat="45.9057219" lon="10.8755521"><ele>78.0</ele><time>2026-05-03T15:22:24.06Z</time></trkpt><trkpt lat="45.9058389" lon="10.8756453"><ele>78.0</ele><time>2026-05-03T15:22:25.06Z</time></trkpt><trkpt lat="45.9059497" lon="10.8757418"><ele>77.75</ele><time>2026-05-03T15:22:26.059Z</time></trkpt><trkpt lat="45.9060646" lon="10.8758393"><ele>77.5</ele><time>2026-05-03T15:22:27.06Z</time></trkpt><trkpt lat="45.9061835" lon="10.8759382"><ele>77.25</ele><time>2026-05-03T15:22:28.06Z</time></trkpt><trkpt lat="45.9062997" lon="10.8760448"><ele>77.0</ele><time>2026-05-03T15:22:29.06Z</time></trkpt><trkpt lat="45.9064188" lon="10.8761497"><ele>77.0</ele><time>2026-05-03T15:22:30.06Z</time></trkpt><trkpt lat="45.9065331" lon="10.876256"><ele>77.0</ele><time>2026-05-03T15:22:31.06Z</time></trkpt><trkpt lat="45.9066451" lon="10.8763674"><ele>77.0</ele><time>2026-05-03T15:22:32.06Z</time></trkpt><trkpt lat="45.9067596" lon="10.8764741"><ele>77.0</ele><time>2026-05-03T15:22:33.059Z</time></trkpt><trkpt lat="45.9068753" lon="10.8765788"><ele>77.0</ele><time>2026-05-03T15:22:34.059Z</time></trkpt><trkpt lat="45.9069882" lon="10.8766864"><ele>77.0</ele><time>2026-05-03T15:22:35.06Z</time></trkpt><trkpt lat="45.9071031" lon="10.8768031"><ele>77.0</ele><time>2026-05-03T15:22:36.06Z</time></trkpt><trkpt lat="45.9072159" lon="10.8769101"><ele>77.0</ele><time>2026-05-03T15:22:37.06Z</time></trkpt><trkpt lat="45.9073266" lon="10.8770176"><ele>77.5</ele><time>2026-05-03T15:22:38.06Z</time></trkpt><trkpt lat="45.9074328" lon="10.8771253"><ele>78.0</ele><time>2026-05-03T15:22:39.06Z</time></trkpt><trkpt lat="45.9075377" lon="10.877229"><ele>78.5</ele><time>2026-05-03T15:22:40.059Z</time></trkpt><trkpt lat="45.9076411" lon="10.8773399"><ele>79.0</ele><time>2026-05-03T15:22:41.06Z</time></trkpt><trkpt lat="45.9077426" lon="10.8774425"><ele>79.0</ele><time>2026-05-03T15:22:42.06Z</time></trkpt><trkpt lat="45.907841" lon="10.8775462"><ele>79.0</ele><time>2026-05-03T15:22:43.059Z</time></trkpt><trkpt lat="45.9079336" lon="10.8776514"><ele>79.0</ele><time>2026-05-03T15:22:44.059Z</time></trkpt><trkpt lat="45.9080195" lon="10.8777583"><ele>79.0</ele><time>2026-05-03T15:22:45.06Z</time></trkpt><trkpt lat="45.9080985" lon="10.8778725"><ele>79.0</ele><time>2026-05-03T15:22:46.06Z</time></trkpt><trkpt lat="45.9081765" lon="10.8779763"><ele>79.0</ele><time>2026-05-03T15:22:47.059Z</time></trkpt><trkpt lat="45.9082506" lon="10.8780785"><ele>79.0</ele><time>2026-05-03T15:22:48.06Z</time></trkpt><trkpt lat="45.9083243" lon="10.8781738"><ele>79.0</ele><time>2026-05-03T15:22:49.06Z</time></trkpt><trkpt lat="45.9083976" lon="10.8782689"><ele>79.0</ele><time>2026-05-03T15:22:50.059Z</time></trkpt><trkpt lat="45.9084643" lon="10.8783612"><ele>79.16666666666666</ele><time>2026-05-03T15:22:51.06Z</time></trkpt><trkpt lat="45.9085268" lon="10.8784495"><ele>79.33333333333333</ele><time>2026-05-03T15:22:52.059Z</time></trkpt><trkpt lat="45.9085811" lon="10.8785283"><ele>79.5</ele><time>2026-05-03T15:22:53.059Z</time></trkpt><trkpt lat="45.9086241" lon="10.8786024"><ele>79.66666666666667</ele><time>2026-05-03T15:22:54.06Z</time></trkpt><trkpt lat="45.9086797" lon="10.8787134"><ele>79.83333333333334</ele><time>2026-05-03T15:22:56.059Z</time></trkpt><trkpt lat="45.9087078" lon="10.8788193"><ele>80.0</ele><time>2026-05-03T15:22:58.06Z</time></trkpt><trkpt lat="45.9087211" lon="10.8789228"><ele>80.0</ele><time>2026-05-03T15:23:00.06Z</time></trkpt><trkpt lat="45.9087309" lon="10.8790483"><ele>80.0</ele><time>2026-05-03T15:23:02.06Z</time></trkpt><trkpt lat="45.9087229" lon="10.8791545"><ele>80.0</ele><time>2026-05-03T15:23:03.06Z</time></trkpt><trkpt lat="45.9087017" lon="10.8792683"><ele>80.0</ele><time>2026-05-03T15:23:04.059Z</time></trkpt><trkpt lat="45.9086792" lon="10.8793885"><ele>80.0</ele><time>2026-05-03T15:23:05.06Z</time></trkpt><trkpt lat="45.9086563" lon="10.8795142"><ele>80.0</ele><time>2026-05-03T15:23:06.06Z</time></trkpt><trkpt lat="45.9086356" lon="10.8796239"><ele>80.0</ele><time>2026-05-03T15:23:07.06Z</time></trkpt><trkpt lat="45.9086151" lon="10.8797238"><ele>80.0</ele><time>2026-05-03T15:23:08.06Z</time></trkpt><trkpt lat="45.908603" lon="10.8798137"><ele>80.0</ele><time>2026-05-03T15:23:09.059Z</time></trkpt><trkpt lat="45.9086157" lon="10.8799792"><ele>80.0</ele><time>2026-05-03T15:23:11.059Z</time></trkpt><trkpt lat="45.9086422" lon="10.880065"><ele>80.0</ele><time>2026-05-03T15:23:12.06Z</time></trkpt><trkpt lat="45.9086802" lon="10.8801635"><ele>80.0</ele><time>2026-05-03T15:23:13.06Z</time></trkpt><trkpt lat="45.9087307" lon="10.8802742"><ele>80.0</ele><time>2026-05-03T15:23:14.06Z</time></trkpt><trkpt lat="45.9087806" lon="10.8803983"><ele>80.0</ele><time>2026-05-03T15:23:15.059Z</time></trkpt><trkpt lat="45.9088161" lon="10.8805409"><ele>80.0</ele><time>2026-05-03T15:23:16.059Z</time></trkpt><trkpt lat="45.9088319" lon="10.8807"><ele>80.0</ele><time>2026-05-03T15:23:17.06Z</time></trkpt><trkpt lat="45.9088392" lon="10.8808508"><ele>80.0</ele><time>2026-05-03T15:23:18.059Z</time></trkpt><trkpt lat="45.9088458" lon="10.8809815"><ele>80.0</ele><time>2026-05-03T15:23:19.059Z</time></trkpt><trkpt lat="45.9088616" lon="10.8811014"><ele>80.0</ele><time>2026-05-03T15:23:20.06Z</time></trkpt><trkpt lat="45.90888" lon="10.8812113"><ele>80.0</ele><time>2026-05-03T15:23:21.06Z</time></trkpt><trkpt lat="45.9089061" lon="10.8813314"><ele>80.0</ele><time>2026-05-03T15:23:22.06Z</time></trkpt><trkpt lat="45.9089423" lon="10.8814634"><ele>80.0</ele><time>2026-05-03T15:23:23.06Z</time></trkpt><trkpt lat="45.9089778" lon="10.881596"><ele>80.0</ele><time>2026-05-03T15:23:24.06Z</time></trkpt><trkpt lat="45.9090091" lon="10.8817212"><ele>80.0</ele><time>2026-05-03T15:23:25.059Z</time></trkpt><trkpt lat="45.9090402" lon="10.881841"><ele>80.0</ele><time>2026-05-03T15:23:26.059Z</time></trkpt><trkpt lat="45.9090757" lon="10.8819531"><ele>80.0</ele><time>2026-05-03T15:23:27.059Z</time></trkpt><trkpt lat="45.9091126" lon="10.8820719"><ele>80.0</ele><time>2026-05-03T15:23:28.06Z</time></trkpt><trkpt lat="45.9091512" lon="10.8821902"><ele>80.0</ele><time>2026-05-03T15:23:29.06Z</time></trkpt><trkpt lat="45.9091857" lon="10.8823036"><ele>80.0</ele><time>2026-05-03T15:23:30.058Z</time></trkpt><trkpt lat="45.9092198" lon="10.882421"><ele>80.0</ele><time>2026-05-03T15:23:31.059Z</time></trkpt><trkpt lat="45.9092601" lon="10.8825373"><ele>80.0</ele><time>2026-05-03T15:23:32.058Z</time></trkpt><trkpt lat="45.9093031" lon="10.8826676"><ele>80.0</ele><time>2026-05-03T15:23:33.059Z</time></trkpt><trkpt lat="45.9093571" lon="10.8828091"><ele>80.0</ele><time>2026-05-03T15:23:34.059Z</time></trkpt><trkpt lat="45.9094208" lon="10.8829562"><ele>80.0</ele><time>2026-05-03T15:23:35.059Z</time></trkpt><trkpt lat="45.9094971" lon="10.8830967"><ele>80.25</ele><time>2026-05-03T15:23:36.058Z</time></trkpt><trkpt lat="45.9095821" lon="10.8832426"><ele>80.5</ele><time>2026-05-03T15:23:37.059Z</time></trkpt><trkpt lat="45.9096794" lon="10.8833898"><ele>80.75</ele><time>2026-05-03T15:23:38.058Z</time></trkpt><trkpt lat="45.9097897" lon="10.8835289"><ele>81.0</ele><time>2026-05-03T15:23:39.058Z</time></trkpt><trkpt lat="45.9099169" lon="10.8836601"><ele>81.33333333333333</ele><time>2026-05-03T15:23:40.058Z</time></trkpt><trkpt lat="45.9100583" lon="10.8837798"><ele>81.66666666666666</ele><time>2026-05-03T15:23:41.059Z</time></trkpt><trkpt lat="45.9102038" lon="10.8838909"><ele>82.0</ele><time>2026-05-03T15:23:42.059Z</time></trkpt><trkpt lat="45.9103473" lon="10.8839916"><ele>82.0</ele><time>2026-05-03T15:23:43.058Z</time></trkpt><trkpt lat="45.9104884" lon="10.8840733"><ele>82.0</ele><time>2026-05-03T15:23:44.059Z</time></trkpt><trkpt lat="45.9106152" lon="10.884141"><ele>82.0</ele><time>2026-05-03T15:23:45.059Z</time></trkpt><trkpt lat="45.9107283" lon="10.8841929"><ele>82.0</ele><time>2026-05-03T15:23:46.059Z</time></trkpt><trkpt lat="45.9108273" lon="10.8842398"><ele>82.5</ele><time>2026-05-03T15:23:47.058Z</time></trkpt><trkpt lat="45.9109289" lon="10.8842931"><ele>83.0</ele><time>2026-05-03T15:23:48.059Z</time></trkpt><trkpt lat="45.9110355" lon="10.8843459"><ele>83.5</ele><time>2026-05-03T15:23:49.059Z</time></trkpt><trkpt lat="45.9111459" lon="10.8844062"><ele>84.0</ele><time>2026-05-03T15:23:50.058Z</time></trkpt><trkpt lat="45.9112617" lon="10.884475"><ele>84.0</ele><time>2026-05-03T15:23:51.059Z</time></trkpt><trkpt lat="45.9113758" lon="10.8845503"><ele>84.0</ele><time>2026-05-03T15:23:52.058Z</time></trkpt><trkpt lat="45.9114942" lon="10.8846283"><ele>84.0</ele><time>2026-05-03T15:23:53.058Z</time></trkpt><trkpt lat="45.9116006" lon="10.8847014"><ele>84.0</ele><time>2026-05-03T15:23:54.059Z</time></trkpt><trkpt lat="45.9117036" lon="10.8847825"><ele>84.25</ele><time>2026-05-03T15:23:55.058Z</time></trkpt><trkpt lat="45.9118119" lon="10.8848625"><ele>84.5</ele><time>2026-05-03T15:23:56.059Z</time></trkpt><trkpt lat="45.9119205" lon="10.8849658"><ele>84.75</ele><time>2026-05-03T15:23:57.059Z</time></trkpt><trkpt lat="45.9120273" lon="10.8850772"><ele>85.0</ele><time>2026-05-03T15:23:58.058Z</time></trkpt><trkpt lat="45.9121298" lon="10.8851912"><ele>84.5</ele><time>2026-05-03T15:23:59.059Z</time></trkpt><trkpt lat="45.9122291" lon="10.8853098"><ele>84.0</ele><time>2026-05-03T15:24:00.058Z</time></trkpt><trkpt lat="45.9123265" lon="10.8854359"><ele>83.5</ele><time>2026-05-03T15:24:01.058Z</time></trkpt><trkpt lat="45.9124217" lon="10.8855659"><ele>83.0</ele><time>2026-05-03T15:24:02.058Z</time></trkpt><trkpt lat="45.9125136" lon="10.8856936"><ele>82.75</ele><time>2026-05-03T15:24:03.059Z</time></trkpt><trkpt lat="45.9126027" lon="10.8858337"><ele>82.5</ele><time>2026-05-03T15:24:04.058Z</time></trkpt><trkpt lat="45.912683" lon="10.8859808"><ele>82.25</ele><time>2026-05-03T15:24:05.059Z</time></trkpt><trkpt lat="45.9127624" lon="10.8861298"><ele>82.0</ele><time>2026-05-03T15:24:06.059Z</time></trkpt><trkpt lat="45.9128429" lon="10.8862857"><ele>82.0</ele><time>2026-05-03T15:24:07.059Z</time></trkpt><trkpt lat="45.9129272" lon="10.8864613"><ele>82.0</ele><time>2026-05-03T15:24:08.059Z</time></trkpt><trkpt lat="45.9130145" lon="10.8866471"><ele>82.0</ele><time>2026-05-03T15:24:09.059Z</time></trkpt><trkpt lat="45.9131015" lon="10.8868333"><ele>82.33333333333333</ele><time>2026-05-03T15:24:10.059Z</time></trkpt><trkpt lat="45.9131966" lon="10.8870283"><ele>82.66666666666667</ele><time>2026-05-03T15:24:11.058Z</time></trkpt><trkpt lat="45.9132921" lon="10.8872279"><ele>83.0</ele><time>2026-05-03T15:24:12.059Z</time></trkpt><trkpt lat="45.9133883" lon="10.887426"><ele>83.33333333333334</ele><time>2026-05-03T15:24:13.058Z</time></trkpt><trkpt lat="45.9134773" lon="10.8876256"><ele>83.66666666666667</ele><time>2026-05-03T15:24:14.059Z</time></trkpt><trkpt lat="45.9135511" lon="10.887825"><ele>84.0</ele><time>2026-05-03T15:24:15.059Z</time></trkpt><trkpt lat="45.9136132" lon="10.8880248"><ele>84.0</ele><time>2026-05-03T15:24:16.059Z</time></trkpt><trkpt lat="45.9136597" lon="10.8882236"><ele>84.0</ele><time>2026-05-03T15:24:17.059Z</time></trkpt><trkpt lat="45.9136862" lon="10.8884091"><ele>84.0</ele><time>2026-05-03T15:24:18.059Z</time></trkpt><trkpt lat="45.9137069" lon="10.8885927"><ele>84.0</ele><time>2026-05-03T15:24:19.059Z</time></trkpt><trkpt lat="45.9137163" lon="10.8887807"><ele>84.25</ele><time>2026-05-03T15:24:20.058Z</time></trkpt><trkpt lat="45.9137187" lon="10.8889717"><ele>84.5</ele><time>2026-05-03T15:24:21.059Z</time></trkpt><trkpt lat="45.913718" lon="10.8891666"><ele>84.75</ele><time>2026-05-03T15:24:22.059Z</time></trkpt><trkpt lat="45.9137045" lon="10.8893747"><ele>85.0</ele><time>2026-05-03T15:24:23.059Z</time></trkpt><trkpt lat="45.9136778" lon="10.8895943"><ele>85.0</ele><time>2026-05-03T15:24:24.059Z</time></trkpt><trkpt lat="45.9136364" lon="10.8898006"><ele>85.0</ele><time>2026-05-03T15:24:25.059Z</time></trkpt><trkpt lat="45.9135931" lon="10.8900073"><ele>85.0</ele><time>2026-05-03T15:24:26.058Z</time></trkpt><trkpt lat="45.9135526" lon="10.8902132"><ele>85.0</ele><time>2026-05-03T15:24:27.058Z</time></trkpt><trkpt lat="45.9135052" lon="10.8904307"><ele>85.33333333333333</ele><time>2026-05-03T15:24:28.058Z</time></trkpt><trkpt lat="45.9134583" lon="10.8906692"><ele>85.66666666666667</ele><time>2026-05-03T15:24:29.059Z</time></trkpt><trkpt lat="45.9134076" lon="10.8909176"><ele>86.0</ele><time>2026-05-03T15:24:30.058Z</time></trkpt><trkpt lat="45.9133526" lon="10.8911965"><ele>88.0</ele><time>2026-05-03T15:24:31.058Z</time></trkpt><trkpt lat="45.9132933" lon="10.8914755"><ele>90.0</ele><time>2026-05-03T15:24:32.059Z</time></trkpt><trkpt lat="45.9132396" lon="10.891737"><ele>92.0</ele><time>2026-05-03T15:24:33.059Z</time></trkpt><trkpt lat="45.913189" lon="10.8919947"><ele>92.33333333333334</ele><time>2026-05-03T15:24:34.059Z</time></trkpt><trkpt lat="45.9131453" lon="10.8922283"><ele>92.66666666666667</ele><time>2026-05-03T15:24:35.059Z</time></trkpt><trkpt lat="45.9131111" lon="10.8924537"><ele>93.0</ele><time>2026-05-03T15:24:36.058Z</time></trkpt><trkpt lat="45.9130892" lon="10.8926793"><ele>93.33333333333333</ele><time>2026-05-03T15:24:37.059Z</time></trkpt><trkpt lat="45.913082" lon="10.8928991"><ele>93.66666666666666</ele><time>2026-05-03T15:24:38.059Z</time></trkpt><trkpt lat="45.9130931" lon="10.8931291"><ele>94.0</ele><time>2026-05-03T15:24:39.058Z</time></trkpt><trkpt lat="45.9131211" lon="10.8933538"><ele>94.66666666666666</ele><time>2026-05-03T15:24:40.058Z</time></trkpt><trkpt lat="45.913164" lon="10.8935695"><ele>95.33333333333333</ele><time>2026-05-03T15:24:41.058Z</time></trkpt><trkpt lat="45.913225" lon="10.8937777"><ele>96.0</ele><time>2026-05-03T15:24:42.059Z</time></trkpt><trkpt lat="45.9132981" lon="10.8939746"><ele>96.0</ele><time>2026-05-03T15:24:43.058Z</time></trkpt><trkpt lat="45.913379" lon="10.8941571"><ele>96.0</ele><time>2026-05-03T15:24:44.058Z</time></trkpt><trkpt lat="45.9134669" lon="10.8943194"><ele>96.0</ele><time>2026-05-03T15:24:45.058Z</time></trkpt><trkpt lat="45.9135554" lon="10.8944523"><ele>96.0</ele><time>2026-05-03T15:24:46.059Z</time></trkpt><trkpt lat="45.9136441" lon="10.8945713"><ele>96.4</ele><time>2026-05-03T15:24:47.059Z</time></trkpt><trkpt lat="45.9137331" lon="10.8946647"><ele>96.8</ele><time>2026-05-03T15:24:48.059Z</time></trkpt><trkpt lat="45.9138222" lon="10.8947517"><ele>97.2</ele><time>2026-05-03T15:24:49.058Z</time></trkpt><trkpt lat="45.9139086" lon="10.8948188"><ele>97.60000000000001</ele><time>2026-05-03T15:24:50.059Z</time></trkpt><trkpt lat="45.9139892" lon="10.8948776"><ele>98.0</ele><time>2026-05-03T15:24:51.058Z</time></trkpt><trkpt lat="45.91406" lon="10.8949373"><ele>97.99999999999999</ele><time>2026-05-03T15:24:52.059Z</time></trkpt><trkpt lat="45.9141235" lon="10.8950073"><ele>98.0</ele><time>2026-05-03T15:24:53.059Z</time></trkpt><trkpt lat="45.914171" lon="10.8950828"><ele>98.0</ele><time>2026-05-03T15:24:54.059Z</time></trkpt><trkpt lat="45.9142113" lon="10.8951645"><ele>98.0</ele><time>2026-05-03T15:24:55.059Z</time></trkpt><trkpt lat="45.9142527" lon="10.8952369"><ele>97.99999999999999</ele><time>2026-05-03T15:24:56.059Z</time></trkpt><trkpt lat="45.9143528" lon="10.8953439"><ele>98.0</ele><time>2026-05-03T15:24:58.058Z</time></trkpt><trkpt lat="45.9144746" lon="10.8953923"><ele>98.33333333333333</ele><time>2026-05-03T15:25:00.059Z</time></trkpt><trkpt lat="45.914545" lon="10.8954054"><ele>98.66666666666666</ele><time>2026-05-03T15:25:01.059Z</time></trkpt><trkpt lat="45.9146156" lon="10.8954163"><ele>99.0</ele><time>2026-05-03T15:25:02.059Z</time></trkpt><trkpt lat="45.9146954" lon="10.8954188"><ele>99.33333333333334</ele><time>2026-05-03T15:25:03.059Z</time></trkpt><trkpt lat="45.9147765" lon="10.8954034"><ele>99.66666666666667</ele><time>2026-05-03T15:25:04.059Z</time></trkpt><trkpt lat="45.914865" lon="10.8953734"><ele>100.0</ele><time>2026-05-03T15:25:05.059Z</time></trkpt><trkpt lat="45.9149694" lon="10.89535"><ele>100.0</ele><time>2026-05-03T15:25:06.059Z</time></trkpt><trkpt lat="45.9150932" lon="10.8953585"><ele>100.0</ele><time>2026-05-03T15:25:07.059Z</time></trkpt><trkpt lat="45.9152253" lon="10.895396"><ele>100.0</ele><time>2026-05-03T15:25:08.058Z</time></trkpt><trkpt lat="45.9153713" lon="10.8954571"><ele>100.0</ele><time>2026-05-03T15:25:09.058Z</time></trkpt><trkpt lat="45.9155288" lon="10.8955276"><ele>100.0</ele><time>2026-05-03T15:25:10.058Z</time></trkpt><trkpt lat="45.9156986" lon="10.8955854"><ele>100.0</ele><time>2026-05-03T15:25:11.059Z</time></trkpt><trkpt lat="45.915872" lon="10.8956404"><ele>100.0</ele><time>2026-05-03T15:25:12.059Z</time></trkpt><trkpt lat="45.9160537" lon="10.8956982"><ele>100.0</ele><time>2026-05-03T15:25:13.058Z</time></trkpt><trkpt lat="45.9162438" lon="10.895755"><ele>100.0</ele><time>2026-05-03T15:25:14.059Z</time></trkpt><trkpt lat="45.9164438" lon="10.8958092"><ele>100.0</ele><time>2026-05-03T15:25:15.059Z</time></trkpt><trkpt lat="45.9166536" lon="10.8958638"><ele>99.66666666666667</ele><time>2026-05-03T15:25:16.059Z</time></trkpt><trkpt lat="45.9168715" lon="10.895919"><ele>99.33333333333334</ele><time>2026-05-03T15:25:17.059Z</time></trkpt><trkpt lat="45.9170928" lon="10.8959741"><ele>99.0</ele><time>2026-05-03T15:25:18.059Z</time></trkpt><trkpt lat="45.9173177" lon="10.896029"><ele>100.0</ele><time>2026-05-03T15:25:19.059Z</time></trkpt><trkpt lat="45.9175441" lon="10.8960881"><ele>101.0</ele><time>2026-05-03T15:25:20.059Z</time></trkpt><trkpt lat="45.9177704" lon="10.8961497"><ele>101.5</ele><time>2026-05-03T15:25:21.059Z</time></trkpt><trkpt lat="45.917994" lon="10.8962093"><ele>102.0</ele><time>2026-05-03T15:25:22.058Z</time></trkpt><trkpt lat="45.9182203" lon="10.8962686"><ele>101.33333333333334</ele><time>2026-05-03T15:25:23.059Z</time></trkpt><trkpt lat="45.9184377" lon="10.8963293"><ele>100.66666666666667</ele><time>2026-05-03T15:25:24.059Z</time></trkpt><trkpt lat="45.9186465" lon="10.8963898"><ele>100.0</ele><time>2026-05-03T15:25:25.059Z</time></trkpt><trkpt lat="45.9188532" lon="10.8964482"><ele>100.0</ele><time>2026-05-03T15:25:26.059Z</time></trkpt><trkpt lat="45.9190539" lon="10.8965014"><ele>100.0</ele><time>2026-05-03T15:25:27.059Z</time></trkpt><trkpt lat="45.9192478" lon="10.8965543"><ele>100.0</ele><time>2026-05-03T15:25:28.058Z</time></trkpt><trkpt lat="45.9194431" lon="10.8965965"><ele>100.0</ele><time>2026-05-03T15:25:29.059Z</time></trkpt><trkpt lat="45.9196297" lon="10.896634"><ele>100.0</ele><time>2026-05-03T15:25:30.058Z</time></trkpt><trkpt lat="45.9198152" lon="10.8966483"><ele>100.0</ele><time>2026-05-03T15:25:31.058Z</time></trkpt><trkpt lat="45.9200015" lon="10.89664"><ele>100.0</ele><time>2026-05-03T15:25:32.058Z</time></trkpt><trkpt lat="45.9201818" lon="10.8966119"><ele>100.0</ele><time>2026-05-03T15:25:33.059Z</time></trkpt><trkpt lat="45.9203504" lon="10.8965573"><ele>100.0</ele><time>2026-05-03T15:25:34.058Z</time></trkpt><trkpt lat="45.9205138" lon="10.896478"><ele>100.0</ele><time>2026-05-03T15:25:35.058Z</time></trkpt><trkpt lat="45.9206775" lon="10.8963789"><ele>100.0</ele><time>2026-05-03T15:25:36.059Z</time></trkpt><trkpt lat="45.9208341" lon="10.8962667"><ele>100.0</ele><time>2026-05-03T15:25:37.058Z</time></trkpt><trkpt lat="45.9209874" lon="10.8961399"><ele>100.0</ele><time>2026-05-03T15:25:38.058Z</time></trkpt><trkpt lat="45.921134" lon="10.8959768"><ele>100.0</ele><time>2026-05-03T15:25:39.058Z</time></trkpt><trkpt lat="45.9212626" lon="10.8957943"><ele>100.0</ele><time>2026-05-03T15:25:40.059Z</time></trkpt><trkpt lat="45.9213742" lon="10.895601"><ele>99.33333333333334</ele><time>2026-05-03T15:25:41.059Z</time></trkpt><trkpt lat="45.921492" lon="10.8954001"><ele>98.66666666666666</ele><time>2026-05-03T15:25:42.059Z</time></trkpt><trkpt lat="45.921602" lon="10.8952038"><ele>98.0</ele><time>2026-05-03T15:25:43.058Z</time></trkpt><trkpt lat="45.9217039" lon="10.8950082"><ele>98.0</ele><time>2026-05-03T15:25:44.058Z</time></trkpt><trkpt lat="45.9217731" lon="10.894757"><ele>98.0</ele><time>2026-05-03T15:25:45.059Z</time></trkpt><trkpt lat="45.9218467" lon="10.8945406"><ele>98.0</ele><time>2026-05-03T15:25:46.059Z</time></trkpt><trkpt lat="45.921948" lon="10.8943302"><ele>96.33333333333333</ele><time>2026-05-03T15:25:47.059Z</time></trkpt><trkpt lat="45.9220657" lon="10.8941433"><ele>94.66666666666666</ele><time>2026-05-03T15:25:48.058Z</time></trkpt><trkpt lat="45.9221886" lon="10.8939802"><ele>93.0</ele><time>2026-05-03T15:25:49.059Z</time></trkpt><trkpt lat="45.9223246" lon="10.8938474"><ele>93.0</ele><time>2026-05-03T15:25:50.059Z</time></trkpt><trkpt lat="45.9224592" lon="10.8937394"><ele>93.0</ele><time>2026-05-03T15:25:51.059Z</time></trkpt><trkpt lat="45.9225926" lon="10.8936538"><ele>93.0</ele><time>2026-05-03T15:25:52.059Z</time></trkpt><trkpt lat="45.9227088" lon="10.893599"><ele>93.0</ele><time>2026-05-03T15:25:53.059Z</time></trkpt><trkpt lat="45.9228151" lon="10.8935669"><ele>93.16666666666667</ele><time>2026-05-03T15:25:54.059Z</time></trkpt><trkpt lat="45.9229097" lon="10.8935378"><ele>93.33333333333333</ele><time>2026-05-03T15:25:55.059Z</time></trkpt><trkpt lat="45.9229965" lon="10.8935118"><ele>93.5</ele><time>2026-05-03T15:25:56.059Z</time></trkpt><trkpt lat="45.9230679" lon="10.8934874"><ele>93.66666666666666</ele><time>2026-05-03T15:25:57.059Z</time></trkpt><trkpt lat="45.9231335" lon="10.8934624"><ele>93.83333333333333</ele><time>2026-05-03T15:25:58.059Z</time></trkpt><trkpt lat="45.9232371" lon="10.8934185"><ele>94.0</ele><time>2026-05-03T15:26:00.058Z</time></trkpt><trkpt lat="45.9233312" lon="10.8933971"><ele>93.80000000000001</ele><time>2026-05-03T15:26:02.059Z</time></trkpt><trkpt lat="45.9234555" lon="10.8934003"><ele>93.60000000000001</ele><time>2026-05-03T15:26:04.059Z</time></trkpt><trkpt lat="45.9235401" lon="10.8934258"><ele>93.4</ele><time>2026-05-03T15:26:05.059Z</time></trkpt><trkpt lat="45.9236315" lon="10.8934531"><ele>93.2</ele><time>2026-05-03T15:26:06.059Z</time></trkpt><trkpt lat="45.923724" lon="10.893492"><ele>93.0</ele><time>2026-05-03T15:26:07.058Z</time></trkpt><trkpt lat="45.9238136" lon="10.8935468"><ele>93.0</ele><time>2026-05-03T15:26:08.059Z</time></trkpt><trkpt lat="45.9238981" lon="10.8936112"><ele>93.0</ele><time>2026-05-03T15:26:09.059Z</time></trkpt><trkpt lat="45.9239761" lon="10.8936767"><ele>93.0</ele><time>2026-05-03T15:26:10.059Z</time></trkpt><trkpt lat="45.9240471" lon="10.893744"><ele>93.0</ele><time>2026-05-03T15:26:11.059Z</time></trkpt><trkpt lat="45.9241154" lon="10.8937947"><ele>93.0</ele><time>2026-05-03T15:26:12.058Z</time></trkpt><trkpt lat="45.9241799" lon="10.8938447"><ele>93.0</ele><time>2026-05-03T15:26:13.059Z</time></trkpt><trkpt lat="45.9242412" lon="10.8938962"><ele>92.66666666666667</ele><time>2026-05-03T15:26:14.059Z</time></trkpt><trkpt lat="45.9243035" lon="10.8939463"><ele>92.33333333333333</ele><time>2026-05-03T15:26:15.059Z</time></trkpt><trkpt lat="45.9243652" lon="10.8939982"><ele>92.0</ele><time>2026-05-03T15:26:16.059Z</time></trkpt><trkpt lat="45.9244355" lon="10.8940501"><ele>91.66666666666666</ele><time>2026-05-03T15:26:17.059Z</time></trkpt><trkpt lat="45.9245131" lon="10.8941013"><ele>91.33333333333333</ele><time>2026-05-03T15:26:18.059Z</time></trkpt><trkpt lat="45.924595" lon="10.8941521"><ele>91.0</ele><time>2026-05-03T15:26:19.059Z</time></trkpt><trkpt lat="45.9246756" lon="10.8941938"><ele>91.0</ele><time>2026-05-03T15:26:20.058Z</time></trkpt><trkpt lat="45.9247564" lon="10.8942234"><ele>91.0</ele><time>2026-05-03T15:26:21.059Z</time></trkpt><trkpt lat="45.9248277" lon="10.8942581"><ele>91.0</ele><time>2026-05-03T15:26:22.059Z</time></trkpt><trkpt lat="45.9249031" lon="10.8942926"><ele>91.0</ele><time>2026-05-03T15:26:23.059Z</time></trkpt><trkpt lat="45.924982" lon="10.8943262"><ele>91.0</ele><time>2026-05-03T15:26:24.059Z</time></trkpt><trkpt lat="45.9250709" lon="10.8943657"><ele>91.0</ele><time>2026-05-03T15:26:25.059Z</time></trkpt><trkpt lat="45.9251636" lon="10.8944104"><ele>91.19999999999999</ele><time>2026-05-03T15:26:26.058Z</time></trkpt><trkpt lat="45.9252556" lon="10.8944569"><ele>91.39999999999999</ele><time>2026-05-03T15:26:27.058Z</time></trkpt><trkpt lat="45.9253469" lon="10.8944995"><ele>91.6</ele><time>2026-05-03T15:26:28.059Z</time></trkpt><trkpt lat="45.9254374" lon="10.8945447"><ele>91.8</ele><time>2026-05-03T15:26:29.059Z</time></trkpt><trkpt lat="45.9255285" lon="10.8945923"><ele>92.0</ele><time>2026-05-03T15:26:30.059Z</time></trkpt><trkpt lat="45.925623" lon="10.894635"><ele>92.0</ele><time>2026-05-03T15:26:31.058Z</time></trkpt><trkpt lat="45.925722" lon="10.8946839"><ele>92.0</ele><time>2026-05-03T15:26:32.058Z</time></trkpt><trkpt lat="45.9258221" lon="10.8947345"><ele>92.0</ele><time>2026-05-03T15:26:33.058Z</time></trkpt><trkpt lat="45.9259204" lon="10.8947857"><ele>92.0</ele><time>2026-05-03T15:26:34.059Z</time></trkpt><trkpt lat="45.9260193" lon="10.8948322"><ele>92.0</ele><time>2026-05-03T15:26:35.059Z</time></trkpt><trkpt lat="45.9261124" lon="10.8948781"><ele>92.0</ele><time>2026-05-03T15:26:36.059Z</time></trkpt><trkpt lat="45.9262057" lon="10.8949233"><ele>92.0</ele><time>2026-05-03T15:26:37.058Z</time></trkpt><trkpt lat="45.926305" lon="10.894974"><ele>92.0</ele><time>2026-05-03T15:26:38.059Z</time></trkpt><trkpt lat="45.9264024" lon="10.8950259"><ele>92.0</ele><time>2026-05-03T15:26:39.059Z</time></trkpt><trkpt lat="45.9264973" lon="10.8950702"><ele>92.0</ele><time>2026-05-03T15:26:40.058Z</time></trkpt><trkpt lat="45.9265971" lon="10.8951245"><ele>92.19999999999999</ele><time>2026-05-03T15:26:41.058Z</time></trkpt><trkpt lat="45.9267006" lon="10.8951774"><ele>92.4</ele><time>2026-05-03T15:26:42.059Z</time></trkpt><trkpt lat="45.9268" lon="10.8952349"><ele>92.6</ele><time>2026-05-03T15:26:43.059Z</time></trkpt><trkpt lat="45.926904" lon="10.8952925"><ele>92.80000000000001</ele><time>2026-05-03T15:26:44.058Z</time></trkpt><trkpt lat="45.9270131" lon="10.8953466"><ele>93.0</ele><time>2026-05-03T15:26:45.059Z</time></trkpt><trkpt lat="45.9271176" lon="10.8954072"><ele>93.0</ele><time>2026-05-03T15:26:46.059Z</time></trkpt><trkpt lat="45.927221" lon="10.895462"><ele>93.0</ele><time>2026-05-03T15:26:47.059Z</time></trkpt><trkpt lat="45.9273228" lon="10.8955141"><ele>93.0</ele><time>2026-05-03T15:26:48.059Z</time></trkpt><trkpt lat="45.9274235" lon="10.8955599"><ele>93.0</ele><time>2026-05-03T15:26:49.059Z</time></trkpt><trkpt lat="45.9275223" lon="10.895609"><ele>93.0</ele><time>2026-05-03T15:26:50.059Z</time></trkpt><trkpt lat="45.9276191" lon="10.895654"><ele>92.80000000000001</ele><time>2026-05-03T15:26:51.059Z</time></trkpt><trkpt lat="45.9277173" lon="10.8957012"><ele>92.6</ele><time>2026-05-03T15:26:52.058Z</time></trkpt><trkpt lat="45.9278135" lon="10.8957437"><ele>92.4</ele><time>2026-05-03T15:26:53.058Z</time></trkpt><trkpt lat="45.9279056" lon="10.8957842"><ele>92.19999999999999</ele><time>2026-05-03T15:26:54.058Z</time></trkpt><trkpt lat="45.9279879" lon="10.8958091"><ele>92.0</ele><time>2026-05-03T15:26:55.059Z</time></trkpt><trkpt lat="45.9280616" lon="10.8958271"><ele>92.0</ele><time>2026-05-03T15:26:56.059Z</time></trkpt><trkpt lat="45.9281357" lon="10.8958441"><ele>92.0</ele><time>2026-05-03T15:26:57.059Z</time></trkpt><trkpt lat="45.9282149" lon="10.8958502"><ele>92.0</ele><time>2026-05-03T15:26:58.058Z</time></trkpt><trkpt lat="45.9283125" lon="10.8958566"><ele>92.0</ele><time>2026-05-03T15:26:59.059Z</time></trkpt><trkpt lat="45.9284211" lon="10.8958779"><ele>92.0</ele><time>2026-05-03T15:27:00.059Z</time></trkpt><trkpt lat="45.9285256" lon="10.895902"><ele>92.16666666666667</ele><time>2026-05-03T15:27:01.059Z</time></trkpt><trkpt lat="45.9286145" lon="10.8959298"><ele>92.33333333333334</ele><time>2026-05-03T15:27:02.059Z</time></trkpt><trkpt lat="45.9286991" lon="10.895948"><ele>92.5</ele><time>2026-05-03T15:27:03.058Z</time></trkpt><trkpt lat="45.9287769" lon="10.8959601"><ele>92.66666666666667</ele><time>2026-05-03T15:27:04.058Z</time></trkpt><trkpt lat="45.9288503" lon="10.8959779"><ele>92.83333333333333</ele><time>2026-05-03T15:27:05.058Z</time></trkpt><trkpt lat="45.9289168" lon="10.8959912"><ele>93.0</ele><time>2026-05-03T15:27:06.059Z</time></trkpt><trkpt lat="45.9289916" lon="10.8959944"><ele>93.0</ele><time>2026-05-03T15:27:07.059Z</time></trkpt><trkpt lat="45.9290668" lon="10.8960057"><ele>93.0</ele><time>2026-05-03T15:27:08.059Z</time></trkpt><trkpt lat="45.9291447" lon="10.896019"><ele>93.0</ele><time>2026-05-03T15:27:09.058Z</time></trkpt><trkpt lat="45.9292222" lon="10.8960277"><ele>93.0</ele><time>2026-05-03T15:27:10.059Z</time></trkpt><trkpt lat="45.9292951" lon="10.8960481"><ele>93.0</ele><time>2026-05-03T15:27:11.059Z</time></trkpt><trkpt lat="45.9293701" lon="10.8960637"><ele>93.0</ele><time>2026-05-03T15:27:12.059Z</time></trkpt><trkpt lat="45.9294394" lon="10.8960726"><ele>93.71428571428572</ele><time>2026-05-03T15:27:13.059Z</time></trkpt><trkpt lat="45.9295089" lon="10.8960854"><ele>94.42857142857143</ele><time>2026-05-03T15:27:14.058Z</time></trkpt><trkpt lat="45.9295781" lon="10.8960936"><ele>95.14285714285714</ele><time>2026-05-03T15:27:15.059Z</time></trkpt><trkpt lat="45.9296463" lon="10.8961147"><ele>95.85714285714286</ele><time>2026-05-03T15:27:16.059Z</time></trkpt><trkpt lat="45.929718" lon="10.8961312"><ele>96.57142857142857</ele><time>2026-05-03T15:27:17.058Z</time></trkpt><trkpt lat="45.9297956" lon="10.8961425"><ele>97.28571428571429</ele><time>2026-05-03T15:27:18.059Z</time></trkpt><trkpt lat="45.9298748" lon="10.896156"><ele>98.0</ele><time>2026-05-03T15:27:19.059Z</time></trkpt><trkpt lat="45.9299553" lon="10.8961668"><ele>97.99999999999999</ele><time>2026-05-03T15:27:20.059Z</time></trkpt><trkpt lat="45.9300357" lon="10.8961766"><ele>98.0</ele><time>2026-05-03T15:27:21.059Z</time></trkpt><trkpt lat="45.9301154" lon="10.8961868"><ele>98.0</ele><time>2026-05-03T15:27:22.059Z</time></trkpt><trkpt lat="45.9301913" lon="10.8961964"><ele>98.0</ele><time>2026-05-03T15:27:23.059Z</time></trkpt><trkpt lat="45.9302706" lon="10.8962083"><ele>97.99999999999999</ele><time>2026-05-03T15:27:24.058Z</time></trkpt><trkpt lat="45.9303538" lon="10.8962212"><ele>98.0</ele><time>2026-05-03T15:27:25.059Z</time></trkpt><trkpt lat="45.9304324" lon="10.8962314"><ele>98.66666666666666</ele><time>2026-05-03T15:27:26.059Z</time></trkpt><trkpt lat="45.9305133" lon="10.8962474"><ele>99.33333333333333</ele><time>2026-05-03T15:27:27.059Z</time></trkpt><trkpt lat="45.9305942" lon="10.8962599"><ele>100.0</ele><time>2026-05-03T15:27:28.059Z</time></trkpt><trkpt lat="45.930668" lon="10.8962717"><ele>100.66666666666666</ele><time>2026-05-03T15:27:29.058Z</time></trkpt><trkpt lat="45.9307432" lon="10.8962821"><ele>101.33333333333333</ele><time>2026-05-03T15:27:30.059Z</time></trkpt><trkpt lat="45.930817" lon="10.8962963"><ele>102.0</ele><time>2026-05-03T15:27:31.058Z</time></trkpt><trkpt lat="45.9308882" lon="10.8963118"><ele>101.33333333333333</ele><time>2026-05-03T15:27:32.058Z</time></trkpt><trkpt lat="45.9309605" lon="10.8963216"><ele>100.66666666666666</ele><time>2026-05-03T15:27:33.058Z</time></trkpt><trkpt lat="45.9310332" lon="10.8963316"><ele>100.0</ele><time>2026-05-03T15:27:34.058Z</time></trkpt><trkpt lat="45.9311072" lon="10.8963485"><ele>99.33333333333333</ele><time>2026-05-03T15:27:35.058Z</time></trkpt><trkpt lat="45.931183" lon="10.8963612"><ele>98.66666666666666</ele><time>2026-05-03T15:27:36.058Z</time></trkpt><trkpt lat="45.9312571" lon="10.8963729"><ele>98.0</ele><time>2026-05-03T15:27:37.058Z</time></trkpt><trkpt lat="45.9313356" lon="10.8963895"><ele>98.0</ele><time>2026-05-03T15:27:38.058Z</time></trkpt><trkpt lat="45.9314239" lon="10.8963992"><ele>98.0</ele><time>2026-05-03T15:27:39.058Z</time></trkpt><trkpt lat="45.9315168" lon="10.8964103"><ele>98.0</ele><time>2026-05-03T15:27:40.058Z</time></trkpt><trkpt lat="45.9316184" lon="10.8964242"><ele>98.0</ele><time>2026-05-03T15:27:41.058Z</time></trkpt><trkpt lat="45.9317206" lon="10.8964414"><ele>98.0</ele><time>2026-05-03T15:27:42.058Z</time></trkpt><trkpt lat="45.9318267" lon="10.8964586"><ele>97.2</ele><time>2026-05-03T15:27:43.058Z</time></trkpt><trkpt lat="45.9319321" lon="10.8964789"><ele>96.4</ele><time>2026-05-03T15:27:44.058Z</time></trkpt><trkpt lat="45.9320365" lon="10.8965029"><ele>95.60000000000001</ele><time>2026-05-03T15:27:45.058Z</time></trkpt><trkpt lat="45.932143" lon="10.8965199"><ele>94.80000000000001</ele><time>2026-05-03T15:27:46.058Z</time></trkpt><trkpt lat="45.9322476" lon="10.8965414"><ele>94.0</ele><time>2026-05-03T15:27:47.058Z</time></trkpt><trkpt lat="45.9323561" lon="10.8965598"><ele>94.0</ele><time>2026-05-03T15:27:48.058Z</time></trkpt><trkpt lat="45.9324673" lon="10.8965916"><ele>94.0</ele><time>2026-05-03T15:27:49.058Z</time></trkpt><trkpt lat="45.9325755" lon="10.8966321"><ele>94.0</ele><time>2026-05-03T15:27:50.058Z</time></trkpt><trkpt lat="45.9326892" lon="10.8966716"><ele>94.0</ele><time>2026-05-03T15:27:51.058Z</time></trkpt><trkpt lat="45.9328172" lon="10.8967198"><ele>94.25</ele><time>2026-05-03T15:27:52.058Z</time></trkpt><trkpt lat="45.9329545" lon="10.8967732"><ele>94.5</ele><time>2026-05-03T15:27:53.058Z</time></trkpt><trkpt lat="45.9330915" lon="10.8968303"><ele>94.75</ele><time>2026-05-03T15:27:54.058Z</time></trkpt><trkpt lat="45.9332281" lon="10.8968883"><ele>95.0</ele><time>2026-05-03T15:27:55.058Z</time></trkpt><trkpt lat="45.9333628" lon="10.896948"><ele>94.5</ele><time>2026-05-03T15:27:56.058Z</time></trkpt><trkpt lat="45.9334949" lon="10.8970024"><ele>94.0</ele><time>2026-05-03T15:27:57.057Z</time></trkpt><trkpt lat="45.9336322" lon="10.8970574"><ele>93.5</ele><time>2026-05-03T15:27:58.058Z</time></trkpt><trkpt lat="45.933784" lon="10.8971158"><ele>93.0</ele><time>2026-05-03T15:27:59.058Z</time></trkpt><trkpt lat="45.9339375" lon="10.8971898"><ele>93.0</ele><time>2026-05-03T15:28:00.058Z</time></trkpt><trkpt lat="45.9340893" lon="10.8972671"><ele>93.0</ele><time>2026-05-03T15:28:01.058Z</time></trkpt><trkpt lat="45.9342354" lon="10.8973396"><ele>93.0</ele><time>2026-05-03T15:28:02.058Z</time></trkpt><trkpt lat="45.9343682" lon="10.89741"><ele>93.25</ele><time>2026-05-03T15:28:03.058Z</time></trkpt><trkpt lat="45.9344988" lon="10.8974703"><ele>93.5</ele><time>2026-05-03T15:28:04.058Z</time></trkpt><trkpt lat="45.9346211" lon="10.8975269"><ele>93.75</ele><time>2026-05-03T15:28:05.058Z</time></trkpt><trkpt lat="45.9347452" lon="10.8975881"><ele>94.0</ele><time>2026-05-03T15:28:06.058Z</time></trkpt><trkpt lat="45.9348759" lon="10.8976441"><ele>93.66666666666666</ele><time>2026-05-03T15:28:07.058Z</time></trkpt><trkpt lat="45.9350102" lon="10.8977027"><ele>93.33333333333333</ele><time>2026-05-03T15:28:08.058Z</time></trkpt><trkpt lat="45.9351579" lon="10.8977624"><ele>93.0</ele><time>2026-05-03T15:28:09.058Z</time></trkpt><trkpt lat="45.9353224" lon="10.8978242"><ele>93.0</ele><time>2026-05-03T15:28:10.058Z</time></trkpt><trkpt lat="45.9355009" lon="10.8979037"><ele>93.0</ele><time>2026-05-03T15:28:11.058Z</time></trkpt><trkpt lat="45.9356719" lon="10.8979869"><ele>93.0</ele><time>2026-05-03T15:28:12.058Z</time></trkpt><trkpt lat="45.9358357" lon="10.8980752"><ele>92.33333333333333</ele><time>2026-05-03T15:28:13.058Z</time></trkpt><trkpt lat="45.9359835" lon="10.8981778"><ele>91.66666666666666</ele><time>2026-05-03T15:28:14.057Z</time></trkpt><trkpt lat="45.9361207" lon="10.8983006"><ele>91.0</ele><time>2026-05-03T15:28:15.058Z</time></trkpt><trkpt lat="45.9362518" lon="10.8984362"><ele>92.66666666666666</ele><time>2026-05-03T15:28:16.058Z</time></trkpt><trkpt lat="45.936379" lon="10.8985906"><ele>94.33333333333333</ele><time>2026-05-03T15:28:17.058Z</time></trkpt><trkpt lat="45.9365049" lon="10.8987443"><ele>96.0</ele><time>2026-05-03T15:28:18.057Z</time></trkpt><trkpt lat="45.9366366" lon="10.8988965"><ele>95.66666666666667</ele><time>2026-05-03T15:28:19.058Z</time></trkpt><trkpt lat="45.9367677" lon="10.8990532"><ele>95.33333333333334</ele><time>2026-05-03T15:28:20.058Z</time></trkpt><trkpt lat="45.9369046" lon="10.8992143"><ele>95.0</ele><time>2026-05-03T15:28:21.058Z</time></trkpt><trkpt lat="45.9370399" lon="10.8993793"><ele>96.0</ele><time>2026-05-03T15:28:22.058Z</time></trkpt><trkpt lat="45.9371756" lon="10.8995434"><ele>97.0</ele><time>2026-05-03T15:28:23.057Z</time></trkpt><trkpt lat="45.937316" lon="10.8997055"><ele>98.0</ele><time>2026-05-03T15:28:24.057Z</time></trkpt><trkpt lat="45.9374601" lon="10.899864"><ele>97.66666666666666</ele><time>2026-05-03T15:28:25.058Z</time></trkpt><trkpt lat="45.9376089" lon="10.9000063"><ele>97.33333333333334</ele><time>2026-05-03T15:28:26.057Z</time></trkpt><trkpt lat="45.9377623" lon="10.9001283"><ele>97.0</ele><time>2026-05-03T15:28:27.058Z</time></trkpt><trkpt lat="45.9379228" lon="10.9002398"><ele>97.0</ele><time>2026-05-03T15:28:28.058Z</time></trkpt><trkpt lat="45.9380844" lon="10.9003561"><ele>97.0</ele><time>2026-05-03T15:28:29.058Z</time></trkpt><trkpt lat="45.9382471" lon="10.9004708"><ele>97.0</ele><time>2026-05-03T15:28:30.058Z</time></trkpt><trkpt lat="45.9384076" lon="10.9005791"><ele>96.66666666666667</ele><time>2026-05-03T15:28:31.058Z</time></trkpt><trkpt lat="45.9385651" lon="10.9006763"><ele>96.33333333333334</ele><time>2026-05-03T15:28:32.058Z</time></trkpt><trkpt lat="45.9387201" lon="10.9007615"><ele>96.0</ele><time>2026-05-03T15:28:33.058Z</time></trkpt><trkpt lat="45.9388754" lon="10.9008334"><ele>96.0</ele><time>2026-05-03T15:28:34.058Z</time></trkpt><trkpt lat="45.9390216" lon="10.9008957"><ele>96.0</ele><time>2026-05-03T15:28:35.058Z</time></trkpt><trkpt lat="45.9391627" lon="10.9009455"><ele>96.0</ele><time>2026-05-03T15:28:36.058Z</time></trkpt><trkpt lat="45.9392893" lon="10.9009905"><ele>96.0</ele><time>2026-05-03T15:28:37.057Z</time></trkpt><trkpt lat="45.9394069" lon="10.9010243"><ele>96.4</ele><time>2026-05-03T15:28:38.058Z</time></trkpt><trkpt lat="45.9395068" lon="10.901056"><ele>96.8</ele><time>2026-05-03T15:28:39.057Z</time></trkpt><trkpt lat="45.9395927" lon="10.9010823"><ele>97.2</ele><time>2026-05-03T15:28:40.058Z</time></trkpt><trkpt lat="45.9396687" lon="10.9010999"><ele>97.60000000000001</ele><time>2026-05-03T15:28:41.057Z</time></trkpt><trkpt lat="45.9397825" lon="10.9011257"><ele>98.0</ele><time>2026-05-03T15:28:43.058Z</time></trkpt><trkpt lat="45.9398763" lon="10.9011678"><ele>98.0</ele><time>2026-05-03T15:28:45.057Z</time></trkpt><trkpt lat="45.9399651" lon="10.9012741"><ele>98.0</ele><time>2026-05-03T15:28:47.058Z</time></trkpt><trkpt lat="45.9400536" lon="10.9013694"><ele>98.0</ele><time>2026-05-03T15:28:49.058Z</time></trkpt><trkpt lat="45.9401675" lon="10.9013634"><ele>98.0</ele><time>2026-05-03T15:28:51.058Z</time></trkpt><trkpt lat="45.9402327" lon="10.9013267"><ele>98.0</ele><time>2026-05-03T15:28:52.058Z</time></trkpt><trkpt lat="45.9403107" lon="10.9012807"><ele>98.2</ele><time>2026-05-03T15:28:53.057Z</time></trkpt><trkpt lat="45.940396" lon="10.9012643"><ele>98.4</ele><time>2026-05-03T15:28:54.058Z</time></trkpt><trkpt lat="45.9404874" lon="10.9012628"><ele>98.60000000000001</ele><time>2026-05-03T15:28:55.058Z</time></trkpt><trkpt lat="45.9405931" lon="10.9012662"><ele>98.80000000000001</ele><time>2026-05-03T15:28:56.058Z</time></trkpt><trkpt lat="45.9407035" lon="10.9012747"><ele>99.0</ele><time>2026-05-03T15:28:57.058Z</time></trkpt><trkpt lat="45.9408207" lon="10.9012875"><ele>99.25</ele><time>2026-05-03T15:28:58.058Z</time></trkpt><trkpt lat="45.9409448" lon="10.9013008"><ele>99.5</ele><time>2026-05-03T15:28:59.057Z</time></trkpt><trkpt lat="45.9410765" lon="10.9013145"><ele>99.75</ele><time>2026-05-03T15:29:00.058Z</time></trkpt><trkpt lat="45.9412146" lon="10.9013342"><ele>100.0</ele><time>2026-05-03T15:29:01.058Z</time></trkpt><trkpt lat="45.9413539" lon="10.901362"><ele>100.0</ele><time>2026-05-03T15:29:02.058Z</time></trkpt><trkpt lat="45.9415002" lon="10.9013982"><ele>100.0</ele><time>2026-05-03T15:29:03.058Z</time></trkpt><trkpt lat="45.941659" lon="10.9014409"><ele>100.0</ele><time>2026-05-03T15:29:04.058Z</time></trkpt><trkpt lat="45.9418351" lon="10.901491"><ele>100.33333333333334</ele><time>2026-05-03T15:29:05.058Z</time></trkpt><trkpt lat="45.9420196" lon="10.9015639"><ele>100.66666666666666</ele><time>2026-05-03T15:29:06.058Z</time></trkpt><trkpt lat="45.942205" lon="10.9016434"><ele>101.0</ele><time>2026-05-03T15:29:07.057Z</time></trkpt><trkpt lat="45.9423753" lon="10.9017198"><ele>100.5</ele><time>2026-05-03T15:29:08.058Z</time></trkpt><trkpt lat="45.9425317" lon="10.9017852"><ele>100.0</ele><time>2026-05-03T15:29:09.058Z</time></trkpt><trkpt lat="45.9426668" lon="10.9018437"><ele>99.5</ele><time>2026-05-03T15:29:10.058Z</time></trkpt><trkpt lat="45.9427928" lon="10.901894"><ele>99.0</ele><time>2026-05-03T15:29:11.057Z</time></trkpt><trkpt lat="45.9429146" lon="10.9019468"><ele>99.0</ele><time>2026-05-03T15:29:12.058Z</time></trkpt><trkpt lat="45.9430394" lon="10.9019964"><ele>99.0</ele><time>2026-05-03T15:29:13.058Z</time></trkpt><trkpt lat="45.9431721" lon="10.9020488"><ele>99.0</ele><time>2026-05-03T15:29:14.057Z</time></trkpt><trkpt lat="45.943309" lon="10.9021003"><ele>99.0</ele><time>2026-05-03T15:29:15.057Z</time></trkpt><trkpt lat="45.9434517" lon="10.9021475"><ele>99.0</ele><time>2026-05-03T15:29:16.058Z</time></trkpt><trkpt lat="45.9435951" lon="10.9022098"><ele>99.0</ele><time>2026-05-03T15:29:17.058Z</time></trkpt><trkpt lat="45.9437391" lon="10.9022696"><ele>99.0</ele><time>2026-05-03T15:29:18.058Z</time></trkpt><trkpt lat="45.9438839" lon="10.9023285"><ele>99.0</ele><time>2026-05-03T15:29:19.058Z</time></trkpt><trkpt lat="45.9440252" lon="10.9023852"><ele>99.0</ele><time>2026-05-03T15:29:20.058Z</time></trkpt><trkpt lat="45.9441654" lon="10.9024414"><ele>99.0</ele><time>2026-05-03T15:29:21.058Z</time></trkpt><trkpt lat="45.9443051" lon="10.9025005"><ele>99.0</ele><time>2026-05-03T15:29:22.058Z</time></trkpt><trkpt lat="45.9444444" lon="10.9025544"><ele>99.5</ele><time>2026-05-03T15:29:23.057Z</time></trkpt><trkpt lat="45.9445823" lon="10.9026104"><ele>100.0</ele><time>2026-05-03T15:29:24.057Z</time></trkpt><trkpt lat="45.9447184" lon="10.902662"><ele>100.5</ele><time>2026-05-03T15:29:25.058Z</time></trkpt><trkpt lat="45.9448534" lon="10.902715"><ele>101.0</ele><time>2026-05-03T15:29:26.058Z</time></trkpt><trkpt lat="45.9449882" lon="10.9027745"><ele>101.25</ele><time>2026-05-03T15:29:27.058Z</time></trkpt><trkpt lat="45.9451254" lon="10.9028302"><ele>101.5</ele><time>2026-05-03T15:29:28.057Z</time></trkpt><trkpt lat="45.9452632" lon="10.9028819"><ele>101.75</ele><time>2026-05-03T15:29:29.057Z</time></trkpt><trkpt lat="45.945399" lon="10.9029381"><ele>102.0</ele><time>2026-05-03T15:29:30.057Z</time></trkpt><trkpt lat="45.945537" lon="10.9029947"><ele>102.0</ele><time>2026-05-03T15:29:31.058Z</time></trkpt><trkpt lat="45.9456798" lon="10.9030512"><ele>102.0</ele><time>2026-05-03T15:29:32.058Z</time></trkpt><trkpt lat="45.9458241" lon="10.9031141"><ele>102.0</ele><time>2026-05-03T15:29:33.058Z</time></trkpt><trkpt lat="45.9459709" lon="10.9031758"><ele>102.0</ele><time>2026-05-03T15:29:34.057Z</time></trkpt><trkpt lat="45.9461199" lon="10.9032312"><ele>102.0</ele><time>2026-05-03T15:29:35.058Z</time></trkpt><trkpt lat="45.946268" lon="10.903293"><ele>102.0</ele><time>2026-05-03T15:29:36.058Z</time></trkpt><trkpt lat="45.9464152" lon="10.9033559"><ele>102.0</ele><time>2026-05-03T15:29:37.058Z</time></trkpt><trkpt lat="45.9465622" lon="10.9034221"><ele>102.0</ele><time>2026-05-03T15:29:38.057Z</time></trkpt><trkpt lat="45.9467078" lon="10.9034867"><ele>102.0</ele><time>2026-05-03T15:29:39.058Z</time></trkpt><trkpt lat="45.9468564" lon="10.9035546"><ele>102.33333333333334</ele><time>2026-05-03T15:29:40.058Z</time></trkpt><trkpt lat="45.9470059" lon="10.9036163"><ele>102.66666666666667</ele><time>2026-05-03T15:29:41.058Z</time></trkpt><trkpt lat="45.9471484" lon="10.9036731"><ele>103.0</ele><time>2026-05-03T15:29:42.057Z</time></trkpt><trkpt lat="45.9472918" lon="10.9037345"><ele>103.0</ele><time>2026-05-03T15:29:43.058Z</time></trkpt><trkpt lat="45.9474403" lon="10.9037916"><ele>103.0</ele><time>2026-05-03T15:29:44.058Z</time></trkpt><trkpt lat="45.9475881" lon="10.9038519"><ele>103.0</ele><time>2026-05-03T15:29:45.058Z</time></trkpt><trkpt lat="45.9477328" lon="10.9039166"><ele>103.66666666666667</ele><time>2026-05-03T15:29:46.058Z</time></trkpt><trkpt lat="45.9478801" lon="10.9039804"><ele>104.33333333333334</ele><time>2026-05-03T15:29:47.057Z</time></trkpt><trkpt lat="45.9480327" lon="10.9040487"><ele>105.0</ele><time>2026-05-03T15:29:48.058Z</time></trkpt><trkpt lat="45.948197" lon="10.9041286"><ele>105.0</ele><time>2026-05-03T15:29:49.058Z</time></trkpt><trkpt lat="45.9483702" lon="10.9042224"><ele>105.0</ele><time>2026-05-03T15:29:50.058Z</time></trkpt><trkpt lat="45.9485534" lon="10.9043513"><ele>105.0</ele><time>2026-05-03T15:29:51.057Z</time></trkpt><trkpt lat="45.9487494" lon="10.9044891"><ele>105.0</ele><time>2026-05-03T15:29:52.058Z</time></trkpt><trkpt lat="45.9489372" lon="10.9046363"><ele>105.0</ele><time>2026-05-03T15:29:53.058Z</time></trkpt><trkpt lat="45.9491173" lon="10.9047721"><ele>105.0</ele><time>2026-05-03T15:29:54.057Z</time></trkpt><trkpt lat="45.9492885" lon="10.904904"><ele>105.33333333333334</ele><time>2026-05-03T15:29:55.057Z</time></trkpt><trkpt lat="45.9494566" lon="10.905017"><ele>105.66666666666667</ele><time>2026-05-03T15:29:56.057Z</time></trkpt><trkpt lat="45.9496148" lon="10.9051333"><ele>106.0</ele><time>2026-05-03T15:29:57.058Z</time></trkpt><trkpt lat="45.9497764" lon="10.9052477"><ele>106.0</ele><time>2026-05-03T15:29:58.057Z</time></trkpt><trkpt lat="45.9499413" lon="10.9053664"><ele>106.0</ele><time>2026-05-03T15:29:59.058Z</time></trkpt><trkpt lat="45.9501144" lon="10.9054869"><ele>106.0</ele><time>2026-05-03T15:30:00.057Z</time></trkpt><trkpt lat="45.9503042" lon="10.9056196"><ele>106.66666666666667</ele><time>2026-05-03T15:30:01.057Z</time></trkpt><trkpt lat="45.9504977" lon="10.9057565"><ele>107.33333333333334</ele><time>2026-05-03T15:30:02.058Z</time></trkpt><trkpt lat="45.9506826" lon="10.9058896"><ele>108.0</ele><time>2026-05-03T15:30:03.058Z</time></trkpt><trkpt lat="45.9508553" lon="10.9060159"><ele>109.66666666666666</ele><time>2026-05-03T15:30:04.058Z</time></trkpt><trkpt lat="45.9510177" lon="10.9061361"><ele>111.33333333333333</ele><time>2026-05-03T15:30:05.058Z</time></trkpt><trkpt lat="45.9511795" lon="10.9062501"><ele>113.0</ele><time>2026-05-03T15:30:06.058Z</time></trkpt><trkpt lat="45.9513515" lon="10.9063657"><ele>113.0</ele><time>2026-05-03T15:30:07.057Z</time></trkpt><trkpt lat="45.9515411" lon="10.9064873"><ele>113.0</ele><time>2026-05-03T15:30:08.057Z</time></trkpt><trkpt lat="45.95174" lon="10.906625"><ele>113.0</ele><time>2026-05-03T15:30:09.058Z</time></trkpt><trkpt lat="45.9519552" lon="10.9067788"><ele>111.5</ele><time>2026-05-03T15:30:10.058Z</time></trkpt><trkpt lat="45.9521824" lon="10.90695"><ele>110.0</ele><time>2026-05-03T15:30:11.057Z</time></trkpt><trkpt lat="45.9524212" lon="10.9071373"><ele>109.5</ele><time>2026-05-03T15:30:12.057Z</time></trkpt><trkpt lat="45.952674" lon="10.9073321"><ele>109.0</ele><time>2026-05-03T15:30:13.058Z</time></trkpt><trkpt lat="45.9529288" lon="10.9075239"><ele>109.0</ele><time>2026-05-03T15:30:14.058Z</time></trkpt><trkpt lat="45.953186" lon="10.9077014"><ele>109.0</ele><time>2026-05-03T15:30:15.058Z</time></trkpt><trkpt lat="45.953431" lon="10.9078687"><ele>109.0</ele><time>2026-05-03T15:30:16.058Z</time></trkpt><trkpt lat="45.9536611" lon="10.9080333"><ele>109.0</ele><time>2026-05-03T15:30:17.058Z</time></trkpt><trkpt lat="45.953879" lon="10.9081893"><ele>109.0</ele><time>2026-05-03T15:30:18.058Z</time></trkpt><trkpt lat="45.9540832" lon="10.9083353"><ele>109.0</ele><time>2026-05-03T15:30:19.058Z</time></trkpt><trkpt lat="45.9542784" lon="10.9084805"><ele>109.0</ele><time>2026-05-03T15:30:20.057Z</time></trkpt><trkpt lat="45.9544796" lon="10.9086223"><ele>111.5</ele><time>2026-05-03T15:30:21.058Z</time></trkpt><trkpt lat="45.9546819" lon="10.908766"><ele>114.0</ele><time>2026-05-03T15:30:22.057Z</time></trkpt><trkpt lat="45.9548873" lon="10.9089096"><ele>116.5</ele><time>2026-05-03T15:30:23.058Z</time></trkpt><trkpt lat="45.9550961" lon="10.9090588"><ele>119.0</ele><time>2026-05-03T15:30:24.058Z</time></trkpt><trkpt lat="45.9553064" lon="10.9092041"><ele>118.5</ele><time>2026-05-03T15:30:25.058Z</time></trkpt><trkpt lat="45.9555152" lon="10.9093528"><ele>118.0</ele><time>2026-05-03T15:30:26.058Z</time></trkpt><trkpt lat="45.9557252" lon="10.9095051"><ele>119.0</ele><time>2026-05-03T15:30:27.057Z</time></trkpt><trkpt lat="45.9559294" lon="10.9096532"><ele>120.0</ele><time>2026-05-03T15:30:28.057Z</time></trkpt><trkpt lat="45.9561223" lon="10.9097989"><ele>121.0</ele><time>2026-05-03T15:30:29.058Z</time></trkpt><trkpt lat="45.956313" lon="10.9099353"><ele>121.0</ele><time>2026-05-03T15:30:30.058Z</time></trkpt><trkpt lat="45.9564992" lon="10.9100679"><ele>121.0</ele><time>2026-05-03T15:30:31.058Z</time></trkpt><trkpt lat="45.9566817" lon="10.9101947"><ele>121.0</ele><time>2026-05-03T15:30:32.057Z</time></trkpt><trkpt lat="45.9568627" lon="10.9103207"><ele>120.66666666666667</ele><time>2026-05-03T15:30:33.058Z</time></trkpt><trkpt lat="45.9570404" lon="10.9104479"><ele>120.33333333333334</ele><time>2026-05-03T15:30:34.057Z</time></trkpt><trkpt lat="45.957211" lon="10.9105757"><ele>120.0</ele><time>2026-05-03T15:30:35.058Z</time></trkpt><trkpt lat="45.9573806" lon="10.9107058"><ele>120.0</ele><time>2026-05-03T15:30:36.058Z</time></trkpt><trkpt lat="45.957548" lon="10.9108268"><ele>120.0</ele><time>2026-05-03T15:30:37.058Z</time></trkpt><trkpt lat="45.9577093" lon="10.9109529"><ele>120.0</ele><time>2026-05-03T15:30:38.058Z</time></trkpt><trkpt lat="45.9578603" lon="10.9110835"><ele>119.5</ele><time>2026-05-03T15:30:39.058Z</time></trkpt><trkpt lat="45.9579908" lon="10.9112084"><ele>119.0</ele><time>2026-05-03T15:30:40.058Z</time></trkpt><trkpt lat="45.95811" lon="10.9113325"><ele>118.5</ele><time>2026-05-03T15:30:41.058Z</time></trkpt><trkpt lat="45.9582226" lon="10.9114555"><ele>118.0</ele><time>2026-05-03T15:30:42.057Z</time></trkpt><trkpt lat="45.9583255" lon="10.911574"><ele>118.2</ele><time>2026-05-03T15:30:43.058Z</time></trkpt><trkpt lat="45.9584167" lon="10.9116871"><ele>118.4</ele><time>2026-05-03T15:30:44.058Z</time></trkpt><trkpt lat="45.9584956" lon="10.9117965"><ele>118.60000000000001</ele><time>2026-05-03T15:30:45.058Z</time></trkpt><trkpt lat="45.9585602" lon="10.9118893"><ele>118.80000000000001</ele><time>2026-05-03T15:30:46.058Z</time></trkpt><trkpt lat="45.9586182" lon="10.9119702"><ele>119.0</ele><time>2026-05-03T15:30:47.057Z</time></trkpt><trkpt lat="45.9586704" lon="10.9120433"><ele>118.99999999999999</ele><time>2026-05-03T15:30:48.058Z</time></trkpt><trkpt lat="45.9587183" lon="10.9121144"><ele>119.0</ele><time>2026-05-03T15:30:49.058Z</time></trkpt><trkpt lat="45.9587598" lon="10.9121831"><ele>119.0</ele><time>2026-05-03T15:30:50.058Z</time></trkpt><trkpt lat="45.9588275" lon="10.9123197"><ele>119.0</ele><time>2026-05-03T15:30:52.058Z</time></trkpt><trkpt lat="45.9588614" lon="10.9124012"><ele>118.99999999999999</ele><time>2026-05-03T15:30:53.058Z</time></trkpt><trkpt lat="45.9588896" lon="10.9124889"><ele>119.0</ele><time>2026-05-03T15:30:54.057Z</time></trkpt><trkpt lat="45.9589257" lon="10.9125748"><ele>118.99999999999999</ele><time>2026-05-03T15:30:55.058Z</time></trkpt><trkpt lat="45.9589744" lon="10.9126447"><ele>119.0</ele><time>2026-05-03T15:30:56.058Z</time></trkpt><trkpt lat="45.9590439" lon="10.9126974"><ele>119.0</ele><time>2026-05-03T15:30:57.058Z</time></trkpt><trkpt lat="45.9591222" lon="10.9127467"><ele>119.0</ele><time>2026-05-03T15:30:58.058Z</time></trkpt><trkpt lat="45.9591974" lon="10.9128067"><ele>118.99999999999999</ele><time>2026-05-03T15:30:59.057Z</time></trkpt><trkpt lat="45.959273" lon="10.9128879"><ele>119.0</ele><time>2026-05-03T15:31:00.058Z</time></trkpt><trkpt lat="45.959353" lon="10.9129902"><ele>120.0</ele><time>2026-05-03T15:31:01.058Z</time></trkpt><trkpt lat="45.9594309" lon="10.913102"><ele>121.0</ele><time>2026-05-03T15:31:02.058Z</time></trkpt><trkpt lat="45.9595118" lon="10.9132145"><ele>122.0</ele><time>2026-05-03T15:31:03.057Z</time></trkpt><trkpt lat="45.959594" lon="10.9133319"><ele>123.0</ele><time>2026-05-03T15:31:04.058Z</time></trkpt><trkpt lat="45.9596765" lon="10.9134501"><ele>123.25</ele><time>2026-05-03T15:31:05.057Z</time></trkpt><trkpt lat="45.959764" lon="10.9135745"><ele>123.5</ele><time>2026-05-03T15:31:06.058Z</time></trkpt><trkpt lat="45.9598553" lon="10.9137026"><ele>123.75</ele><time>2026-05-03T15:31:07.058Z</time></trkpt><trkpt lat="45.9599461" lon="10.9138345"><ele>124.0</ele><time>2026-05-03T15:31:08.058Z</time></trkpt><trkpt lat="45.9600387" lon="10.9139663"><ele>123.75</ele><time>2026-05-03T15:31:09.057Z</time></trkpt><trkpt lat="45.9601376" lon="10.9141027"><ele>123.5</ele><time>2026-05-03T15:31:10.058Z</time></trkpt><trkpt lat="45.9602415" lon="10.9142476"><ele>123.25</ele><time>2026-05-03T15:31:11.058Z</time></trkpt><trkpt lat="45.960353" lon="10.9143947"><ele>123.0</ele><time>2026-05-03T15:31:12.057Z</time></trkpt><trkpt lat="45.9604698" lon="10.9145509"><ele>123.0</ele><time>2026-05-03T15:31:13.058Z</time></trkpt><trkpt lat="45.9605896" lon="10.9147167"><ele>123.0</ele><time>2026-05-03T15:31:14.058Z</time></trkpt><trkpt lat="45.960703" lon="10.9148836"><ele>123.0</ele><time>2026-05-03T15:31:15.058Z</time></trkpt><trkpt lat="45.960812" lon="10.9150558"><ele>123.0</ele><time>2026-05-03T15:31:16.058Z</time></trkpt><trkpt lat="45.9609222" lon="10.91522"><ele>123.0</ele><time>2026-05-03T15:31:17.058Z</time></trkpt><trkpt lat="45.9610344" lon="10.9153788"><ele>123.0</ele><time>2026-05-03T15:31:18.057Z</time></trkpt><trkpt lat="45.9611492" lon="10.9155388"><ele>123.0</ele><time>2026-05-03T15:31:19.058Z</time></trkpt><trkpt lat="45.9612596" lon="10.9156956"><ele>123.0</ele><time>2026-05-03T15:31:20.058Z</time></trkpt><trkpt lat="45.9613732" lon="10.9158548"><ele>123.0</ele><time>2026-05-03T15:31:21.057Z</time></trkpt><trkpt lat="45.9614862" lon="10.9160104"><ele>123.0</ele><time>2026-05-03T15:31:22.057Z</time></trkpt><trkpt lat="45.9615923" lon="10.9161613"><ele>123.0</ele><time>2026-05-03T15:31:23.058Z</time></trkpt><trkpt lat="45.9616934" lon="10.9163001"><ele>123.0</ele><time>2026-05-03T15:31:24.058Z</time></trkpt><trkpt lat="45.9617813" lon="10.9164294"><ele>123.0</ele><time>2026-05-03T15:31:25.057Z</time></trkpt><trkpt lat="45.9618708" lon="10.9165504"><ele>123.0</ele><time>2026-05-03T15:31:26.057Z</time></trkpt><trkpt lat="45.9619591" lon="10.9166807"><ele>123.0</ele><time>2026-05-03T15:31:27.057Z</time></trkpt><trkpt lat="45.9620615" lon="10.916822"><ele>123.0</ele><time>2026-05-03T15:31:28.058Z</time></trkpt><trkpt lat="45.9621831" lon="10.9169789"><ele>123.0</ele><time>2026-05-03T15:31:29.058Z</time></trkpt><trkpt lat="45.9623128" lon="10.9171566"><ele>122.66666666666666</ele><time>2026-05-03T15:31:30.058Z</time></trkpt><trkpt lat="45.9624493" lon="10.9173407"><ele>122.33333333333333</ele><time>2026-05-03T15:31:31.058Z</time></trkpt><trkpt lat="45.9625872" lon="10.9175317"><ele>122.0</ele><time>2026-05-03T15:31:32.058Z</time></trkpt><trkpt lat="45.9627276" lon="10.9177312"><ele>122.66666666666666</ele><time>2026-05-03T15:31:33.058Z</time></trkpt><trkpt lat="45.962871" lon="10.917931"><ele>123.33333333333334</ele><time>2026-05-03T15:31:34.057Z</time></trkpt><trkpt lat="45.9630247" lon="10.9181379"><ele>124.0</ele><time>2026-05-03T15:31:35.058Z</time></trkpt><trkpt lat="45.9631862" lon="10.918362"><ele>124.0</ele><time>2026-05-03T15:31:36.058Z</time></trkpt><trkpt lat="45.963359" lon="10.918595"><ele>124.0</ele><time>2026-05-03T15:31:37.058Z</time></trkpt><trkpt lat="45.9635325" lon="10.9188335"><ele>124.5</ele><time>2026-05-03T15:31:38.058Z</time></trkpt><trkpt lat="45.9637038" lon="10.9190703"><ele>125.0</ele><time>2026-05-03T15:31:39.058Z</time></trkpt><trkpt lat="45.9638626" lon="10.9192894"><ele>125.33333333333333</ele><time>2026-05-03T15:31:40.058Z</time></trkpt><trkpt lat="45.9640158" lon="10.9195007"><ele>125.66666666666666</ele><time>2026-05-03T15:31:41.057Z</time></trkpt><trkpt lat="45.9641589" lon="10.9196969"><ele>126.0</ele><time>2026-05-03T15:31:42.058Z</time></trkpt><trkpt lat="45.9642888" lon="10.9198797"><ele>126.66666666666666</ele><time>2026-05-03T15:31:43.058Z</time></trkpt><trkpt lat="45.9644161" lon="10.9200603"><ele>127.33333333333333</ele><time>2026-05-03T15:31:44.058Z</time></trkpt><trkpt lat="45.9645424" lon="10.9202418"><ele>128.0</ele><time>2026-05-03T15:31:45.058Z</time></trkpt><trkpt lat="45.9646705" lon="10.9204212"><ele>128.0</ele><time>2026-05-03T15:31:46.058Z</time></trkpt><trkpt lat="45.9647968" lon="10.9205963"><ele>128.0</ele><time>2026-05-03T15:31:47.058Z</time></trkpt><trkpt lat="45.9649241" lon="10.9207759"><ele>128.0</ele><time>2026-05-03T15:31:48.058Z</time></trkpt><trkpt lat="45.9650533" lon="10.9209439"><ele>129.66666666666666</ele><time>2026-05-03T15:31:49.058Z</time></trkpt><trkpt lat="45.965183" lon="10.9210976"><ele>131.33333333333334</ele><time>2026-05-03T15:31:50.058Z</time></trkpt><trkpt lat="45.9653095" lon="10.9212396"><ele>133.0</ele><time>2026-05-03T15:31:51.058Z</time></trkpt><trkpt lat="45.9654424" lon="10.9213694"><ele>133.0</ele><time>2026-05-03T15:31:52.057Z</time></trkpt><trkpt lat="45.9655746" lon="10.9214886"><ele>133.0</ele><time>2026-05-03T15:31:53.058Z</time></trkpt><trkpt lat="45.9657095" lon="10.9216029"><ele>133.0</ele><time>2026-05-03T15:31:54.058Z</time></trkpt><trkpt lat="45.9658459" lon="10.9217074"><ele>133.0</ele><time>2026-05-03T15:31:55.057Z</time></trkpt><trkpt lat="45.9659831" lon="10.9218091"><ele>133.0</ele><time>2026-05-03T15:31:56.058Z</time></trkpt><trkpt lat="45.9661243" lon="10.921901"><ele>133.0</ele><time>2026-05-03T15:31:57.058Z</time></trkpt><trkpt lat="45.9662692" lon="10.921986"><ele>133.0</ele><time>2026-05-03T15:31:58.058Z</time></trkpt><trkpt lat="45.966418" lon="10.9220702"><ele>133.0</ele><time>2026-05-03T15:31:59.057Z</time></trkpt><trkpt lat="45.9665736" lon="10.9221485"><ele>133.0</ele><time>2026-05-03T15:32:00.058Z</time></trkpt><trkpt lat="45.9667488" lon="10.9222177"><ele>133.0</ele><time>2026-05-03T15:32:01.057Z</time></trkpt><trkpt lat="45.9669427" lon="10.9222792"><ele>133.0</ele><time>2026-05-03T15:32:02.057Z</time></trkpt><trkpt lat="45.9671528" lon="10.9223465"><ele>133.0</ele><time>2026-05-03T15:32:03.058Z</time></trkpt><trkpt lat="45.9673798" lon="10.9224266"><ele>131.0</ele><time>2026-05-03T15:32:04.058Z</time></trkpt><trkpt lat="45.9676139" lon="10.9225148"><ele>129.0</ele><time>2026-05-03T15:32:05.058Z</time></trkpt><trkpt lat="45.9678386" lon="10.9226055"><ele>129.0</ele><time>2026-05-03T15:32:06.058Z</time></trkpt><trkpt lat="45.9680502" lon="10.9226854"><ele>129.0</ele><time>2026-05-03T15:32:07.058Z</time></trkpt><trkpt lat="45.9682486" lon="10.92275"><ele>129.0</ele><time>2026-05-03T15:32:08.058Z</time></trkpt><trkpt lat="45.9684374" lon="10.9228205"><ele>130.33333333333334</ele><time>2026-05-03T15:32:09.058Z</time></trkpt><trkpt lat="45.9686229" lon="10.9228848"><ele>131.66666666666669</ele><time>2026-05-03T15:32:10.058Z</time></trkpt><trkpt lat="45.9688057" lon="10.9229517"><ele>133.0</ele><time>2026-05-03T15:32:11.057Z</time></trkpt><trkpt lat="45.9689921" lon="10.9230165"><ele>133.0</ele><time>2026-05-03T15:32:12.057Z</time></trkpt><trkpt lat="45.969178" lon="10.923083"><ele>133.0</ele><time>2026-05-03T15:32:13.057Z</time></trkpt><trkpt lat="45.9693677" lon="10.9231511"><ele>133.0</ele><time>2026-05-03T15:32:14.058Z</time></trkpt><trkpt lat="45.9695613" lon="10.9232169"><ele>134.66666666666669</ele><time>2026-05-03T15:32:15.058Z</time></trkpt><trkpt lat="45.9697593" lon="10.9232845"><ele>136.33333333333334</ele><time>2026-05-03T15:32:16.057Z</time></trkpt><trkpt lat="45.969962" lon="10.9233536"><ele>138.0</ele><time>2026-05-03T15:32:17.058Z</time></trkpt><trkpt lat="45.9701689" lon="10.9234266"><ele>138.5</ele><time>2026-05-03T15:32:18.057Z</time></trkpt><trkpt lat="45.970383" lon="10.9234965"><ele>139.0</ele><time>2026-05-03T15:32:19.058Z</time></trkpt><trkpt lat="45.9706103" lon="10.9235793"><ele>139.0</ele><time>2026-05-03T15:32:20.058Z</time></trkpt><trkpt lat="45.9708403" lon="10.9236678"><ele>139.0</ele><time>2026-05-03T15:32:21.058Z</time></trkpt><trkpt lat="45.9710707" lon="10.9237571"><ele>140.5</ele><time>2026-05-03T15:32:22.057Z</time></trkpt><trkpt lat="45.9712998" lon="10.9238468"><ele>142.0</ele><time>2026-05-03T15:32:23.058Z</time></trkpt><trkpt lat="45.9715244" lon="10.9239357"><ele>142.0</ele><time>2026-05-03T15:32:24.057Z</time></trkpt><trkpt lat="45.9717478" lon="10.9240208"><ele>142.0</ele><time>2026-05-03T15:32:25.058Z</time></trkpt><trkpt lat="45.9719742" lon="10.924101"><ele>142.0</ele><time>2026-05-03T15:32:26.058Z</time></trkpt><trkpt lat="45.9721907" lon="10.9241789"><ele>142.0</ele><time>2026-05-03T15:32:27.058Z</time></trkpt><trkpt lat="45.9724069" lon="10.9242596"><ele>142.0</ele><time>2026-05-03T15:32:28.057Z</time></trkpt><trkpt lat="45.9726203" lon="10.9243336"><ele>142.66666666666669</ele><time>2026-05-03T15:32:29.058Z</time></trkpt><trkpt lat="45.9728317" lon="10.9244129"><ele>143.33333333333334</ele><time>2026-05-03T15:32:30.057Z</time></trkpt><trkpt lat="45.9730369" lon="10.9244871"><ele>144.0</ele><time>2026-05-03T15:32:31.058Z</time></trkpt><trkpt lat="45.973241" lon="10.9245605"><ele>145.66666666666666</ele><time>2026-05-03T15:32:32.058Z</time></trkpt><trkpt lat="45.9734447" lon="10.9246302"><ele>147.33333333333331</ele><time>2026-05-03T15:32:33.057Z</time></trkpt><trkpt lat="45.9736475" lon="10.9247055"><ele>149.0</ele><time>2026-05-03T15:32:34.058Z</time></trkpt><trkpt lat="45.9738474" lon="10.9247841"><ele>149.0</ele><time>2026-05-03T15:32:35.056Z</time></trkpt><trkpt lat="45.974044" lon="10.9248635"><ele>149.0</ele><time>2026-05-03T15:32:36.057Z</time></trkpt><trkpt lat="45.9742409" lon="10.9249351"><ele>149.0</ele><time>2026-05-03T15:32:37.057Z</time></trkpt><trkpt lat="45.9744335" lon="10.9250013"><ele>149.33333333333331</ele><time>2026-05-03T15:32:38.056Z</time></trkpt><trkpt lat="45.9746185" lon="10.9250662"><ele>149.66666666666666</ele><time>2026-05-03T15:32:39.056Z</time></trkpt><trkpt lat="45.9747996" lon="10.9251293"><ele>150.0</ele><time>2026-05-03T15:32:40.056Z</time></trkpt><trkpt lat="45.9749749" lon="10.9251919"><ele>150.0</ele><time>2026-05-03T15:32:41.057Z</time></trkpt><trkpt lat="45.9751459" lon="10.9252544"><ele>150.0</ele><time>2026-05-03T15:32:42.057Z</time></trkpt><trkpt lat="45.9753153" lon="10.9253142"><ele>150.0</ele><time>2026-05-03T15:32:43.057Z</time></trkpt><trkpt lat="45.9754758" lon="10.9253728"><ele>150.0</ele><time>2026-05-03T15:32:44.057Z</time></trkpt><trkpt lat="45.9756282" lon="10.9254313"><ele>150.0</ele><time>2026-05-03T15:32:45.057Z</time></trkpt><trkpt lat="45.9757823" lon="10.9254801"><ele>150.0</ele><time>2026-05-03T15:32:46.056Z</time></trkpt><trkpt lat="45.9759349" lon="10.9255231"><ele>150.75</ele><time>2026-05-03T15:32:47.057Z</time></trkpt><trkpt lat="45.9760862" lon="10.925546"><ele>151.5</ele><time>2026-05-03T15:32:48.057Z</time></trkpt><trkpt lat="45.9762291" lon="10.925527"><ele>152.25</ele><time>2026-05-03T15:32:49.057Z</time></trkpt><trkpt lat="45.9763725" lon="10.925484"><ele>153.0</ele><time>2026-05-03T15:32:50.056Z</time></trkpt><trkpt lat="45.9765149" lon="10.9254161"><ele>153.0</ele><time>2026-05-03T15:32:51.057Z</time></trkpt><trkpt lat="45.9766638" lon="10.9253454"><ele>153.0</ele><time>2026-05-03T15:32:52.057Z</time></trkpt><trkpt lat="45.9768005" lon="10.925263"><ele>153.0</ele><time>2026-05-03T15:32:53.057Z</time></trkpt><trkpt lat="45.9769335" lon="10.9251715"><ele>154.5</ele><time>2026-05-03T15:32:54.056Z</time></trkpt><trkpt lat="45.9770557" lon="10.9250888"><ele>156.0</ele><time>2026-05-03T15:32:55.057Z</time></trkpt><trkpt lat="45.9771708" lon="10.9250126"><ele>157.5</ele><time>2026-05-03T15:32:56.056Z</time></trkpt><trkpt lat="45.9772822" lon="10.9249261"><ele>159.0</ele><time>2026-05-03T15:32:57.057Z</time></trkpt><trkpt lat="45.9773921" lon="10.9248213"><ele>159.25</ele><time>2026-05-03T15:32:58.056Z</time></trkpt><trkpt lat="45.9774869" lon="10.9246928"><ele>159.5</ele><time>2026-05-03T15:32:59.057Z</time></trkpt><trkpt lat="45.9775703" lon="10.9245563"><ele>159.75</ele><time>2026-05-03T15:33:00.057Z</time></trkpt><trkpt lat="45.9776609" lon="10.9244068"><ele>160.0</ele><time>2026-05-03T15:33:01.057Z</time></trkpt><trkpt lat="45.9777506" lon="10.924253"><ele>159.25</ele><time>2026-05-03T15:33:02.057Z</time></trkpt><trkpt lat="45.9778469" lon="10.9241034"><ele>158.5</ele><time>2026-05-03T15:33:03.056Z</time></trkpt><trkpt lat="45.9779442" lon="10.9239403"><ele>157.75</ele><time>2026-05-03T15:33:04.056Z</time></trkpt><trkpt lat="45.9780446" lon="10.9237874"><ele>157.0</ele><time>2026-05-03T15:33:05.057Z</time></trkpt><trkpt lat="45.9781533" lon="10.9236426"><ele>157.0</ele><time>2026-05-03T15:33:06.056Z</time></trkpt><trkpt lat="45.9782779" lon="10.9235237"><ele>157.0</ele><time>2026-05-03T15:33:07.057Z</time></trkpt><trkpt lat="45.9784159" lon="10.9234306"><ele>157.0</ele><time>2026-05-03T15:33:08.057Z</time></trkpt><trkpt lat="45.9785678" lon="10.9233535"><ele>162.66666666666669</ele><time>2026-05-03T15:33:09.057Z</time></trkpt><trkpt lat="45.9787193" lon="10.923287"><ele>168.33333333333334</ele><time>2026-05-03T15:33:10.057Z</time></trkpt><trkpt lat="45.9788875" lon="10.9232488"><ele>174.0</ele><time>2026-05-03T15:33:11.057Z</time></trkpt><trkpt lat="45.9790612" lon="10.923229"><ele>175.33333333333334</ele><time>2026-05-03T15:33:12.057Z</time></trkpt><trkpt lat="45.9792344" lon="10.9232297"><ele>176.66666666666669</ele><time>2026-05-03T15:33:13.056Z</time></trkpt><trkpt lat="45.979409" lon="10.9232564"><ele>178.0</ele><time>2026-05-03T15:33:14.056Z</time></trkpt><trkpt lat="45.9795809" lon="10.9233122"><ele>178.0</ele><time>2026-05-03T15:33:15.057Z</time></trkpt><trkpt lat="45.9797541" lon="10.9233846"><ele>178.0</ele><time>2026-05-03T15:33:16.057Z</time></trkpt><trkpt lat="45.9799212" lon="10.9234642"><ele>178.0</ele><time>2026-05-03T15:33:17.056Z</time></trkpt><trkpt lat="45.980079" lon="10.9235414"><ele>175.25</ele><time>2026-05-03T15:33:18.056Z</time></trkpt><trkpt lat="45.9802231" lon="10.9236182"><ele>172.5</ele><time>2026-05-03T15:33:19.057Z</time></trkpt><trkpt lat="45.9803575" lon="10.9236916"><ele>169.75</ele><time>2026-05-03T15:33:20.057Z</time></trkpt><trkpt lat="45.9804906" lon="10.9237659"><ele>167.0</ele><time>2026-05-03T15:33:21.056Z</time></trkpt><trkpt lat="45.9806276" lon="10.9238452"><ele>167.0</ele><time>2026-05-03T15:33:22.056Z</time></trkpt><trkpt lat="45.9807655" lon="10.9239302"><ele>167.0</ele><time>2026-05-03T15:33:23.057Z</time></trkpt><trkpt lat="45.9809064" lon="10.9240233"><ele>167.0</ele><time>2026-05-03T15:33:24.056Z</time></trkpt><trkpt lat="45.9810438" lon="10.9241178"><ele>169.0</ele><time>2026-05-03T15:33:25.057Z</time></trkpt><trkpt lat="45.9811852" lon="10.9242071"><ele>171.0</ele><time>2026-05-03T15:33:26.057Z</time></trkpt><trkpt lat="45.9813246" lon="10.9242894"><ele>173.0</ele><time>2026-05-03T15:33:27.057Z</time></trkpt><trkpt lat="45.9814667" lon="10.9243745"><ele>173.0</ele><time>2026-05-03T15:33:28.057Z</time></trkpt><trkpt lat="45.9816048" lon="10.9244606"><ele>173.0</ele><time>2026-05-03T15:33:29.056Z</time></trkpt><trkpt lat="45.9817472" lon="10.9245491"><ele>173.0</ele><time>2026-05-03T15:33:30.056Z</time></trkpt><trkpt lat="45.9818853" lon="10.9246397"><ele>173.66666666666666</ele><time>2026-05-03T15:33:31.057Z</time></trkpt><trkpt lat="45.9820254" lon="10.9247295"><ele>174.33333333333334</ele><time>2026-05-03T15:33:32.057Z</time></trkpt><trkpt lat="45.9821653" lon="10.9248204"><ele>175.0</ele><time>2026-05-03T15:33:33.057Z</time></trkpt><trkpt lat="45.9823048" lon="10.9249105"><ele>175.0</ele><time>2026-05-03T15:33:34.056Z</time></trkpt><trkpt lat="45.9824429" lon="10.9249929"><ele>175.0</ele><time>2026-05-03T15:33:35.057Z</time></trkpt><trkpt lat="45.9825825" lon="10.9250821"><ele>175.0</ele><time>2026-05-03T15:33:36.056Z</time></trkpt><trkpt lat="45.9827244" lon="10.9251697"><ele>175.66666666666669</ele><time>2026-05-03T15:33:37.057Z</time></trkpt><trkpt lat="45.9828681" lon="10.9252567"><ele>176.33333333333334</ele><time>2026-05-03T15:33:38.057Z</time></trkpt><trkpt lat="45.9830138" lon="10.9253467"><ele>177.0</ele><time>2026-05-03T15:33:39.056Z</time></trkpt><trkpt lat="45.9831577" lon="10.9254333"><ele>177.0</ele><time>2026-05-03T15:33:40.056Z</time></trkpt><trkpt lat="45.9833026" lon="10.9255303"><ele>177.0</ele><time>2026-05-03T15:33:41.056Z</time></trkpt><trkpt lat="45.9834504" lon="10.9256204"><ele>177.0</ele><time>2026-05-03T15:33:42.056Z</time></trkpt><trkpt lat="45.9836017" lon="10.9257173"><ele>177.33333333333334</ele><time>2026-05-03T15:33:43.057Z</time></trkpt><trkpt lat="45.9837564" lon="10.925812"><ele>177.66666666666669</ele><time>2026-05-03T15:33:44.057Z</time></trkpt><trkpt lat="45.9839144" lon="10.9259083"><ele>178.0</ele><time>2026-05-03T15:33:45.057Z</time></trkpt><trkpt lat="45.9840739" lon="10.9260114"><ele>179.33333333333334</ele><time>2026-05-03T15:33:46.057Z</time></trkpt><trkpt lat="45.9842433" lon="10.9261145"><ele>180.66666666666666</ele><time>2026-05-03T15:33:47.057Z</time></trkpt><trkpt lat="45.9844152" lon="10.9262265"><ele>182.0</ele><time>2026-05-03T15:33:48.057Z</time></trkpt><trkpt lat="45.9845887" lon="10.9263397"><ele>182.0</ele><time>2026-05-03T15:33:49.057Z</time></trkpt><trkpt lat="45.9847646" lon="10.9264439"><ele>182.0</ele><time>2026-05-03T15:33:50.056Z</time></trkpt><trkpt lat="45.984935" lon="10.9265535"><ele>182.0</ele><time>2026-05-03T15:33:51.057Z</time></trkpt><trkpt lat="45.9850953" lon="10.9266529"><ele>181.33333333333331</ele><time>2026-05-03T15:33:52.057Z</time></trkpt><trkpt lat="45.9852477" lon="10.926753"><ele>180.66666666666666</ele><time>2026-05-03T15:33:53.057Z</time></trkpt><trkpt lat="45.9853978" lon="10.9268416"><ele>180.0</ele><time>2026-05-03T15:33:54.057Z</time></trkpt><trkpt lat="45.9855557" lon="10.9269014"><ele>180.0</ele><time>2026-05-03T15:33:55.056Z</time></trkpt><trkpt lat="45.9857242" lon="10.9269409"><ele>180.0</ele><time>2026-05-03T15:33:56.057Z</time></trkpt><trkpt lat="45.9859014" lon="10.9269537"><ele>180.0</ele><time>2026-05-03T15:33:57.056Z</time></trkpt><trkpt lat="45.9860832" lon="10.9269551"><ele>182.33333333333334</ele><time>2026-05-03T15:33:58.056Z</time></trkpt><trkpt lat="45.9862673" lon="10.9269525"><ele>184.66666666666669</ele><time>2026-05-03T15:33:59.057Z</time></trkpt><trkpt lat="45.9864456" lon="10.9269479"><ele>187.0</ele><time>2026-05-03T15:34:00.056Z</time></trkpt><trkpt lat="45.9866221" lon="10.9269403"><ele>187.0</ele><time>2026-05-03T15:34:01.057Z</time></trkpt><trkpt lat="45.9867971" lon="10.9269295"><ele>187.0</ele><time>2026-05-03T15:34:02.057Z</time></trkpt><trkpt lat="45.9869711" lon="10.9269247"><ele>187.0</ele><time>2026-05-03T15:34:03.057Z</time></trkpt><trkpt lat="45.987145" lon="10.9269218"><ele>187.0</ele><time>2026-05-03T15:34:04.057Z</time></trkpt><trkpt lat="45.9873174" lon="10.92692"><ele>187.0</ele><time>2026-05-03T15:34:05.057Z</time></trkpt><trkpt lat="45.9874901" lon="10.9269113"><ele>187.0</ele><time>2026-05-03T15:34:06.057Z</time></trkpt><trkpt lat="45.9876643" lon="10.9269027"><ele>188.33333333333334</ele><time>2026-05-03T15:34:07.056Z</time></trkpt><trkpt lat="45.9878309" lon="10.9268952"><ele>189.66666666666666</ele><time>2026-05-03T15:34:08.057Z</time></trkpt><trkpt lat="45.9879998" lon="10.926882"><ele>191.0</ele><time>2026-05-03T15:34:09.057Z</time></trkpt><trkpt lat="45.9881623" lon="10.9268686"><ele>191.0</ele><time>2026-05-03T15:34:10.056Z</time></trkpt><trkpt lat="45.988323" lon="10.9268579"><ele>191.0</ele><time>2026-05-03T15:34:11.057Z</time></trkpt><trkpt lat="45.9884761" lon="10.9268526"><ele>191.0</ele><time>2026-05-03T15:34:12.057Z</time></trkpt><trkpt lat="45.988621" lon="10.9268488"><ele>190.75</ele><time>2026-05-03T15:34:13.057Z</time></trkpt><trkpt lat="45.9887615" lon="10.9268338"><ele>190.5</ele><time>2026-05-03T15:34:14.057Z</time></trkpt><trkpt lat="45.9889036" lon="10.9268065"><ele>190.25</ele><time>2026-05-03T15:34:15.057Z</time></trkpt><trkpt lat="45.9890397" lon="10.9267651"><ele>190.0</ele><time>2026-05-03T15:34:16.057Z</time></trkpt><trkpt lat="45.9891758" lon="10.9267102"><ele>192.75</ele><time>2026-05-03T15:34:17.057Z</time></trkpt><trkpt lat="45.9893139" lon="10.9266427"><ele>195.5</ele><time>2026-05-03T15:34:18.057Z</time></trkpt><trkpt lat="45.9894441" lon="10.9265637"><ele>198.25</ele><time>2026-05-03T15:34:19.057Z</time></trkpt><trkpt lat="45.9895638" lon="10.9264711"><ele>201.0</ele><time>2026-05-03T15:34:20.057Z</time></trkpt><trkpt lat="45.9896785" lon="10.9263711"><ele>201.0</ele><time>2026-05-03T15:34:21.057Z</time></trkpt><trkpt lat="45.9897829" lon="10.9262692"><ele>201.0</ele><time>2026-05-03T15:34:22.057Z</time></trkpt><trkpt lat="45.9898795" lon="10.92617"><ele>201.0</ele><time>2026-05-03T15:34:23.056Z</time></trkpt><trkpt lat="45.9899797" lon="10.9260799"><ele>201.0</ele><time>2026-05-03T15:34:24.057Z</time></trkpt><trkpt lat="45.9900802" lon="10.9260085"><ele>202.75</ele><time>2026-05-03T15:34:25.057Z</time></trkpt><trkpt lat="45.9901927" lon="10.9259516"><ele>204.5</ele><time>2026-05-03T15:34:26.057Z</time></trkpt><trkpt lat="45.9903172" lon="10.9259214"><ele>206.25</ele><time>2026-05-03T15:34:27.056Z</time></trkpt><trkpt lat="45.9904418" lon="10.9259358"><ele>208.0</ele><time>2026-05-03T15:34:28.056Z</time></trkpt><trkpt lat="45.9905623" lon="10.9259913"><ele>208.0</ele><time>2026-05-03T15:34:29.057Z</time></trkpt><trkpt lat="45.9906766" lon="10.9260616"><ele>208.0</ele><time>2026-05-03T15:34:30.056Z</time></trkpt><trkpt lat="45.9907921" lon="10.9261427"><ele>208.0</ele><time>2026-05-03T15:34:31.057Z</time></trkpt><trkpt lat="45.9909153" lon="10.9262277"><ele>208.0</ele><time>2026-05-03T15:34:32.056Z</time></trkpt><trkpt lat="45.9910473" lon="10.9263251"><ele>210.0</ele><time>2026-05-03T15:34:33.057Z</time></trkpt><trkpt lat="45.9911914" lon="10.9264114"><ele>212.0</ele><time>2026-05-03T15:34:34.056Z</time></trkpt><trkpt lat="45.9913397" lon="10.9264949"><ele>214.0</ele><time>2026-05-03T15:34:35.057Z</time></trkpt><trkpt lat="45.9914921" lon="10.9265626"><ele>214.0</ele><time>2026-05-03T15:34:36.057Z</time></trkpt><trkpt lat="45.9916416" lon="10.9266006"><ele>214.0</ele><time>2026-05-03T15:34:37.057Z</time></trkpt><trkpt lat="45.991791" lon="10.9266231"><ele>214.0</ele><time>2026-05-03T15:34:38.057Z</time></trkpt><trkpt lat="45.9919411" lon="10.9266261"><ele>214.75</ele><time>2026-05-03T15:34:39.056Z</time></trkpt><trkpt lat="45.9920897" lon="10.926624"><ele>215.5</ele><time>2026-05-03T15:34:40.057Z</time></trkpt><trkpt lat="45.9922318" lon="10.9266252"><ele>216.25</ele><time>2026-05-03T15:34:41.057Z</time></trkpt><trkpt lat="45.992364" lon="10.9266177"><ele>217.0</ele><time>2026-05-03T15:34:42.057Z</time></trkpt><trkpt lat="45.9924938" lon="10.9266151"><ele>217.0</ele><time>2026-05-03T15:34:43.057Z</time></trkpt><trkpt lat="45.9926208" lon="10.9266151"><ele>217.0</ele><time>2026-05-03T15:34:44.056Z</time></trkpt><trkpt lat="45.9927454" lon="10.9266134"><ele>217.0</ele><time>2026-05-03T15:34:45.056Z</time></trkpt><trkpt lat="45.9928682" lon="10.926612"><ele>217.0</ele><time>2026-05-03T15:34:46.057Z</time></trkpt><trkpt lat="45.9929871" lon="10.9266132"><ele>217.0</ele><time>2026-05-03T15:34:47.056Z</time></trkpt><trkpt lat="45.9931015" lon="10.9266139"><ele>217.0</ele><time>2026-05-03T15:34:48.057Z</time></trkpt><trkpt lat="45.9932142" lon="10.9266111"><ele>217.0</ele><time>2026-05-03T15:34:49.057Z</time></trkpt><trkpt lat="45.9933274" lon="10.9266113"><ele>217.0</ele><time>2026-05-03T15:34:50.057Z</time></trkpt><trkpt lat="45.9934404" lon="10.9266134"><ele>217.0</ele><time>2026-05-03T15:34:51.057Z</time></trkpt><trkpt lat="45.9935519" lon="10.9266132"><ele>217.0</ele><time>2026-05-03T15:34:52.057Z</time></trkpt><trkpt lat="45.993666" lon="10.9266162"><ele>217.0</ele><time>2026-05-03T15:34:53.057Z</time></trkpt><trkpt lat="45.9937788" lon="10.9266153"><ele>217.0</ele><time>2026-05-03T15:34:54.056Z</time></trkpt><trkpt lat="45.9939016" lon="10.9266172"><ele>217.0</ele><time>2026-05-03T15:34:55.057Z</time></trkpt><trkpt lat="45.9940277" lon="10.9266127"><ele>217.0</ele><time>2026-05-03T15:34:56.057Z</time></trkpt><trkpt lat="45.9941604" lon="10.926613"><ele>217.0</ele><time>2026-05-03T15:34:57.056Z</time></trkpt><trkpt lat="45.9942984" lon="10.9266125"><ele>217.0</ele><time>2026-05-03T15:34:58.057Z</time></trkpt><trkpt lat="45.9944339" lon="10.926617"><ele>217.5</ele><time>2026-05-03T15:34:59.057Z</time></trkpt><trkpt lat="45.9945672" lon="10.9266191"><ele>218.0</ele><time>2026-05-03T15:35:00.057Z</time></trkpt><trkpt lat="45.9946962" lon="10.9266183"><ele>218.5</ele><time>2026-05-03T15:35:01.056Z</time></trkpt><trkpt lat="45.9948307" lon="10.9266135"><ele>219.0</ele><time>2026-05-03T15:35:02.056Z</time></trkpt><trkpt lat="45.9949672" lon="10.9266155"><ele>220.0</ele><time>2026-05-03T15:35:03.056Z</time></trkpt><trkpt lat="45.9951124" lon="10.926615"><ele>221.0</ele><time>2026-05-03T15:35:04.057Z</time></trkpt><trkpt lat="45.9952653" lon="10.9266169"><ele>222.0</ele><time>2026-05-03T15:35:05.057Z</time></trkpt><trkpt lat="45.995427" lon="10.9266101"><ele>222.0</ele><time>2026-05-03T15:35:06.056Z</time></trkpt><trkpt lat="45.9956104" lon="10.9265857"><ele>222.0</ele><time>2026-05-03T15:35:07.056Z</time></trkpt><trkpt lat="45.995816" lon="10.9265479"><ele>222.0</ele><time>2026-05-03T15:35:08.057Z</time></trkpt><trkpt lat="45.9960291" lon="10.926516"><ele>221.66666666666669</ele><time>2026-05-03T15:35:09.057Z</time></trkpt><trkpt lat="45.9962397" lon="10.9264784"><ele>221.33333333333334</ele><time>2026-05-03T15:35:10.057Z</time></trkpt><trkpt lat="45.9964346" lon="10.9264523"><ele>221.0</ele><time>2026-05-03T15:35:11.056Z</time></trkpt><trkpt lat="45.9966069" lon="10.9264363"><ele>221.25</ele><time>2026-05-03T15:35:12.057Z</time></trkpt><trkpt lat="45.9967489" lon="10.926408"><ele>221.5</ele><time>2026-05-03T15:35:13.057Z</time></trkpt><trkpt lat="45.996881" lon="10.926366"><ele>221.75</ele><time>2026-05-03T15:35:14.057Z</time></trkpt><trkpt lat="45.9970053" lon="10.9263002"><ele>222.0</ele><time>2026-05-03T15:35:15.057Z</time></trkpt><trkpt lat="45.9971286" lon="10.9262103"><ele>222.0</ele><time>2026-05-03T15:35:16.057Z</time></trkpt><trkpt lat="45.9972466" lon="10.926111"><ele>222.0</ele><time>2026-05-03T15:35:17.057Z</time></trkpt><trkpt lat="45.9973518" lon="10.9260027"><ele>222.0</ele><time>2026-05-03T15:35:18.057Z</time></trkpt><trkpt lat="45.9974514" lon="10.9258933"><ele>222.0</ele><time>2026-05-03T15:35:19.057Z</time></trkpt><trkpt lat="45.9975555" lon="10.9257772"><ele>221.75</ele><time>2026-05-03T15:35:20.056Z</time></trkpt><trkpt lat="45.9976603" lon="10.9256556"><ele>221.5</ele><time>2026-05-03T15:35:21.057Z</time></trkpt><trkpt lat="45.9977738" lon="10.9255473"><ele>221.25</ele><time>2026-05-03T15:35:22.057Z</time></trkpt><trkpt lat="45.9979085" lon="10.9254587"><ele>221.0</ele><time>2026-05-03T15:35:23.057Z</time></trkpt><trkpt lat="45.9980649" lon="10.9253998"><ele>221.0</ele><time>2026-05-03T15:35:24.056Z</time></trkpt><trkpt lat="45.9982433" lon="10.9253617"><ele>221.0</ele><time>2026-05-03T15:35:25.057Z</time></trkpt><trkpt lat="45.9984422" lon="10.9253515"><ele>221.0</ele><time>2026-05-03T15:35:26.057Z</time></trkpt><trkpt lat="45.9986464" lon="10.9253436"><ele>221.66666666666669</ele><time>2026-05-03T15:35:27.056Z</time></trkpt><trkpt lat="45.9988621" lon="10.9253314"><ele>222.33333333333331</ele><time>2026-05-03T15:35:28.057Z</time></trkpt><trkpt lat="45.9990808" lon="10.9253208"><ele>223.0</ele><time>2026-05-03T15:35:29.057Z</time></trkpt><trkpt lat="45.9993159" lon="10.9253003"><ele>224.0</ele><time>2026-05-03T15:35:30.057Z</time></trkpt><trkpt lat="45.9995582" lon="10.9252822"><ele>225.0</ele><time>2026-05-03T15:35:31.056Z</time></trkpt><trkpt lat="45.9998049" lon="10.9252623"><ele>225.0</ele><time>2026-05-03T15:35:32.057Z</time></trkpt><trkpt lat="46.0000372" lon="10.9252429"><ele>225.0</ele><time>2026-05-03T15:35:33.057Z</time></trkpt><trkpt lat="46.0002555" lon="10.9252311"><ele>225.0</ele><time>2026-05-03T15:35:34.056Z</time></trkpt><trkpt lat="46.0004669" lon="10.925224"><ele>225.0</ele><time>2026-05-03T15:35:35.057Z</time></trkpt><trkpt lat="46.0006619" lon="10.9252131"><ele>225.0</ele><time>2026-05-03T15:35:36.057Z</time></trkpt><trkpt lat="46.0008382" lon="10.9252116"><ele>225.0</ele><time>2026-05-03T15:35:37.057Z</time></trkpt><trkpt lat="46.0010115" lon="10.9252294"><ele>225.0</ele><time>2026-05-03T15:35:38.056Z</time></trkpt><trkpt lat="46.0011784" lon="10.9252852"><ele>225.0</ele><time>2026-05-03T15:35:39.057Z</time></trkpt><trkpt lat="46.0013249" lon="10.9253784"><ele>225.0</ele><time>2026-05-03T15:35:40.057Z</time></trkpt><trkpt lat="46.0014615" lon="10.9254955"><ele>225.0</ele><time>2026-05-03T15:35:41.056Z</time></trkpt><trkpt lat="46.00159" lon="10.9256264"><ele>225.0</ele><time>2026-05-03T15:35:42.056Z</time></trkpt><trkpt lat="46.0017182" lon="10.9257623"><ele>225.33333333333331</ele><time>2026-05-03T15:35:43.056Z</time></trkpt><trkpt lat="46.0018413" lon="10.9259024"><ele>225.66666666666666</ele><time>2026-05-03T15:35:44.057Z</time></trkpt><trkpt lat="46.0019574" lon="10.9260486"><ele>226.0</ele><time>2026-05-03T15:35:45.057Z</time></trkpt><trkpt lat="46.002064" lon="10.9262119"><ele>226.0</ele><time>2026-05-03T15:35:46.057Z</time></trkpt><trkpt lat="46.0021628" lon="10.9263973"><ele>226.0</ele><time>2026-05-03T15:35:47.057Z</time></trkpt><trkpt lat="46.0022474" lon="10.9265937"><ele>226.0</ele><time>2026-05-03T15:35:48.057Z</time></trkpt><trkpt lat="46.0023237" lon="10.9267861"><ele>226.75</ele><time>2026-05-03T15:35:49.057Z</time></trkpt><trkpt lat="46.0023913" lon="10.9269775"><ele>227.5</ele><time>2026-05-03T15:35:50.056Z</time></trkpt><trkpt lat="46.0024599" lon="10.927167"><ele>228.25</ele><time>2026-05-03T15:35:51.057Z</time></trkpt><trkpt lat="46.0025306" lon="10.9273508"><ele>229.0</ele><time>2026-05-03T15:35:52.057Z</time></trkpt><trkpt lat="46.0025997" lon="10.9275348"><ele>229.0</ele><time>2026-05-03T15:35:53.056Z</time></trkpt><trkpt lat="46.0026685" lon="10.9277187"><ele>229.0</ele><time>2026-05-03T15:35:54.057Z</time></trkpt><trkpt lat="46.0027444" lon="10.9278994"><ele>229.0</ele><time>2026-05-03T15:35:55.056Z</time></trkpt><trkpt lat="46.0028158" lon="10.9280853"><ele>229.0</ele><time>2026-05-03T15:35:56.056Z</time></trkpt><trkpt lat="46.0028847" lon="10.9282718"><ele>230.66666666666666</ele><time>2026-05-03T15:35:57.057Z</time></trkpt><trkpt lat="46.0029518" lon="10.928466"><ele>232.33333333333331</ele><time>2026-05-03T15:35:58.056Z</time></trkpt><trkpt lat="46.0030154" lon="10.9286686"><ele>234.0</ele><time>2026-05-03T15:35:59.056Z</time></trkpt><trkpt lat="46.0030772" lon="10.9288684"><ele>234.0</ele><time>2026-05-03T15:36:00.057Z</time></trkpt><trkpt lat="46.0031442" lon="10.9290645"><ele>234.0</ele><time>2026-05-03T15:36:01.057Z</time></trkpt><trkpt lat="46.0032053" lon="10.9292683"><ele>234.0</ele><time>2026-05-03T15:36:02.056Z</time></trkpt><trkpt lat="46.0032534" lon="10.929479"><ele>235.0</ele><time>2026-05-03T15:36:03.057Z</time></trkpt><trkpt lat="46.0032785" lon="10.9297114"><ele>236.0</ele><time>2026-05-03T15:36:04.056Z</time></trkpt><trkpt lat="46.0032755" lon="10.9299461"><ele>237.0</ele><time>2026-05-03T15:36:05.057Z</time></trkpt><trkpt lat="46.0032636" lon="10.9301924"><ele>238.0</ele><time>2026-05-03T15:36:06.057Z</time></trkpt><trkpt lat="46.0032507" lon="10.9304424"><ele>239.0</ele><time>2026-05-03T15:36:07.057Z</time></trkpt><trkpt lat="46.0032359" lon="10.9306936"><ele>240.0</ele><time>2026-05-03T15:36:08.057Z</time></trkpt><trkpt lat="46.003232" lon="10.9309372"><ele>243.0</ele><time>2026-05-03T15:36:09.057Z</time></trkpt><trkpt lat="46.003239" lon="10.9311728"><ele>246.0</ele><time>2026-05-03T15:36:10.057Z</time></trkpt><trkpt lat="46.0032643" lon="10.9314112"><ele>249.0</ele><time>2026-05-03T15:36:11.057Z</time></trkpt><trkpt lat="46.0033132" lon="10.9316443"><ele>246.0</ele><time>2026-05-03T15:36:12.057Z</time></trkpt><trkpt lat="46.0033871" lon="10.9318761"><ele>243.0</ele><time>2026-05-03T15:36:13.057Z</time></trkpt><trkpt lat="46.0034854" lon="10.9320929"><ele>240.0</ele><time>2026-05-03T15:36:14.057Z</time></trkpt><trkpt lat="46.0035952" lon="10.9322954"><ele>240.0</ele><time>2026-05-03T15:36:15.057Z</time></trkpt><trkpt lat="46.0037205" lon="10.9324736"><ele>240.0</ele><time>2026-05-03T15:36:16.057Z</time></trkpt><trkpt lat="46.0038565" lon="10.9326264"><ele>240.0</ele><time>2026-05-03T15:36:17.056Z</time></trkpt><trkpt lat="46.004" lon="10.9327477"><ele>240.0</ele><time>2026-05-03T15:36:18.057Z</time></trkpt><trkpt lat="46.0041676" lon="10.9328497"><ele>240.0</ele><time>2026-05-03T15:36:19.056Z</time></trkpt><trkpt lat="46.0043595" lon="10.9329378"><ele>240.0</ele><time>2026-05-03T15:36:20.057Z</time></trkpt><trkpt lat="46.0045641" lon="10.9330242"><ele>240.0</ele><time>2026-05-03T15:36:21.057Z</time></trkpt><trkpt lat="46.0047807" lon="10.9331335"><ele>240.0</ele><time>2026-05-03T15:36:22.056Z</time></trkpt><trkpt lat="46.0049929" lon="10.9332548"><ele>241.33333333333331</ele><time>2026-05-03T15:36:23.057Z</time></trkpt><trkpt lat="46.0051884" lon="10.9333705"><ele>242.66666666666666</ele><time>2026-05-03T15:36:24.057Z</time></trkpt><trkpt lat="46.0053699" lon="10.9334708"><ele>244.0</ele><time>2026-05-03T15:36:25.057Z</time></trkpt><trkpt lat="46.005542" lon="10.9335625"><ele>244.0</ele><time>2026-05-03T15:36:26.057Z</time></trkpt><trkpt lat="46.0056983" lon="10.9336483"><ele>244.0</ele><time>2026-05-03T15:36:27.056Z</time></trkpt><trkpt lat="46.0058452" lon="10.9337218"><ele>244.0</ele><time>2026-05-03T15:36:28.056Z</time></trkpt><trkpt lat="46.0059814" lon="10.9337722"><ele>243.75</ele><time>2026-05-03T15:36:29.057Z</time></trkpt><trkpt lat="46.0061186" lon="10.9337912"><ele>243.5</ele><time>2026-05-03T15:36:30.057Z</time></trkpt><trkpt lat="46.0062559" lon="10.9337788"><ele>243.25</ele><time>2026-05-03T15:36:31.056Z</time></trkpt><trkpt lat="46.006401" lon="10.9337313"><ele>243.0</ele><time>2026-05-03T15:36:32.057Z</time></trkpt><trkpt lat="46.006546" lon="10.9336749"><ele>241.75</ele><time>2026-05-03T15:36:33.057Z</time></trkpt><trkpt lat="46.006689" lon="10.9336252"><ele>240.5</ele><time>2026-05-03T15:36:34.057Z</time></trkpt><trkpt lat="46.006833" lon="10.9335714"><ele>239.25</ele><time>2026-05-03T15:36:35.057Z</time></trkpt><trkpt lat="46.006976" lon="10.9335249"><ele>238.0</ele><time>2026-05-03T15:36:36.056Z</time></trkpt><trkpt lat="46.0071153" lon="10.9334855"><ele>238.0</ele><time>2026-05-03T15:36:37.057Z</time></trkpt><trkpt lat="46.0072554" lon="10.9334607"><ele>238.0</ele><time>2026-05-03T15:36:38.056Z</time></trkpt><trkpt lat="46.0073866" lon="10.9334667"><ele>238.0</ele><time>2026-05-03T15:36:39.057Z</time></trkpt><trkpt lat="46.0075088" lon="10.9335201"><ele>238.0</ele><time>2026-05-03T15:36:40.056Z</time></trkpt><trkpt lat="46.0076235" lon="10.9336186"><ele>239.0</ele><time>2026-05-03T15:36:41.057Z</time></trkpt><trkpt lat="46.0077137" lon="10.9337438"><ele>240.0</ele><time>2026-05-03T15:36:42.056Z</time></trkpt><trkpt lat="46.0077835" lon="10.9339077"><ele>241.0</ele><time>2026-05-03T15:36:43.056Z</time></trkpt><trkpt lat="46.0078265" lon="10.9340896"><ele>242.0</ele><time>2026-05-03T15:36:44.057Z</time></trkpt><trkpt lat="46.0078617" lon="10.9342685"><ele>242.0</ele><time>2026-05-03T15:36:45.057Z</time></trkpt><trkpt lat="46.0078965" lon="10.93444"><ele>242.0</ele><time>2026-05-03T15:36:46.057Z</time></trkpt><trkpt lat="46.007931" lon="10.9346111"><ele>242.0</ele><time>2026-05-03T15:36:47.056Z</time></trkpt><trkpt lat="46.0079751" lon="10.934784"><ele>242.0</ele><time>2026-05-03T15:36:48.057Z</time></trkpt><trkpt lat="46.0080279" lon="10.9349577"><ele>241.25</ele><time>2026-05-03T15:36:49.057Z</time></trkpt><trkpt lat="46.0080933" lon="10.9351115"><ele>240.5</ele><time>2026-05-03T15:36:50.057Z</time></trkpt><trkpt lat="46.0081807" lon="10.9352383"><ele>239.75</ele><time>2026-05-03T15:36:51.057Z</time></trkpt><trkpt lat="46.0082948" lon="10.9353485"><ele>239.0</ele><time>2026-05-03T15:36:52.057Z</time></trkpt><trkpt lat="46.0084334" lon="10.9354242"><ele>241.0</ele><time>2026-05-03T15:36:53.056Z</time></trkpt><trkpt lat="46.0085973" lon="10.9354793"><ele>243.0</ele><time>2026-05-03T15:36:54.057Z</time></trkpt><trkpt lat="46.0087563" lon="10.9355586"><ele>245.0</ele><time>2026-05-03T15:36:55.057Z</time></trkpt><trkpt lat="46.0089212" lon="10.9356544"><ele>245.0</ele><time>2026-05-03T15:36:56.057Z</time></trkpt><trkpt lat="46.0090814" lon="10.935756"><ele>245.0</ele><time>2026-05-03T15:36:57.057Z</time></trkpt><trkpt lat="46.0092345" lon="10.935865"><ele>245.0</ele><time>2026-05-03T15:36:58.057Z</time></trkpt><trkpt lat="46.0093824" lon="10.935974"><ele>244.66666666666669</ele><time>2026-05-03T15:36:59.057Z</time></trkpt><trkpt lat="46.0095285" lon="10.9360865"><ele>244.33333333333331</ele><time>2026-05-03T15:37:00.057Z</time></trkpt><trkpt lat="46.0096899" lon="10.9361923"><ele>244.0</ele><time>2026-05-03T15:37:01.057Z</time></trkpt><trkpt lat="46.0098726" lon="10.936296"><ele>245.33333333333331</ele><time>2026-05-03T15:37:02.057Z</time></trkpt><trkpt lat="46.0100741" lon="10.9364049"><ele>246.66666666666669</ele><time>2026-05-03T15:37:03.056Z</time></trkpt><trkpt lat="46.0102803" lon="10.9365304"><ele>248.0</ele><time>2026-05-03T15:37:04.057Z</time></trkpt><trkpt lat="46.0104864" lon="10.9366618"><ele>246.66666666666669</ele><time>2026-05-03T15:37:05.057Z</time></trkpt><trkpt lat="46.0106844" lon="10.9367841"><ele>245.33333333333331</ele><time>2026-05-03T15:37:06.057Z</time></trkpt><trkpt lat="46.0108791" lon="10.9368674"><ele>244.0</ele><time>2026-05-03T15:37:07.056Z</time></trkpt><trkpt lat="46.0110721" lon="10.9369106"><ele>244.0</ele><time>2026-05-03T15:37:08.057Z</time></trkpt><trkpt lat="46.0112516" lon="10.9369182"><ele>244.0</ele><time>2026-05-03T15:37:09.057Z</time></trkpt><trkpt lat="46.01143" lon="10.9369192"><ele>244.0</ele><time>2026-05-03T15:37:10.057Z</time></trkpt><trkpt lat="46.0115952" lon="10.9369559"><ele>245.0</ele><time>2026-05-03T15:37:11.057Z</time></trkpt><trkpt lat="46.0117421" lon="10.9370402"><ele>246.0</ele><time>2026-05-03T15:37:12.057Z</time></trkpt><trkpt lat="46.0118642" lon="10.9371703"><ele>247.0</ele><time>2026-05-03T15:37:13.057Z</time></trkpt><trkpt lat="46.0119906" lon="10.937319"><ele>247.0</ele><time>2026-05-03T15:37:14.057Z</time></trkpt><trkpt lat="46.0121102" lon="10.9374829"><ele>247.0</ele><time>2026-05-03T15:37:15.056Z</time></trkpt><trkpt lat="46.0122419" lon="10.9376322"><ele>247.0</ele><time>2026-05-03T15:37:16.057Z</time></trkpt><trkpt lat="46.0123792" lon="10.9377814"><ele>246.33333333333331</ele><time>2026-05-03T15:37:17.057Z</time></trkpt><trkpt lat="46.0125213" lon="10.9379173"><ele>245.66666666666669</ele><time>2026-05-03T15:37:18.057Z</time></trkpt><trkpt lat="46.0126588" lon="10.9380494"><ele>245.0</ele><time>2026-05-03T15:37:19.057Z</time></trkpt><trkpt lat="46.0127937" lon="10.938184"><ele>245.0</ele><time>2026-05-03T15:37:20.057Z</time></trkpt><trkpt lat="46.0129064" lon="10.9383283"><ele>245.0</ele><time>2026-05-03T15:37:21.056Z</time></trkpt><trkpt lat="46.0130053" lon="10.9384726"><ele>245.0</ele><time>2026-05-03T15:37:22.057Z</time></trkpt><trkpt lat="46.013099" lon="10.93862"><ele>245.0</ele><time>2026-05-03T15:37:23.057Z</time></trkpt><trkpt lat="46.0131807" lon="10.9387685"><ele>245.0</ele><time>2026-05-03T15:37:24.056Z</time></trkpt><trkpt lat="46.0132578" lon="10.9389052"><ele>245.0</ele><time>2026-05-03T15:37:25.056Z</time></trkpt><trkpt lat="46.013334" lon="10.9390274"><ele>245.0</ele><time>2026-05-03T15:37:26.057Z</time></trkpt><trkpt lat="46.013422" lon="10.9391471"><ele>245.0</ele><time>2026-05-03T15:37:27.057Z</time></trkpt><trkpt lat="46.0135045" lon="10.9392565"><ele>245.0</ele><time>2026-05-03T15:37:28.056Z</time></trkpt><trkpt lat="46.0135936" lon="10.9393554"><ele>245.0</ele><time>2026-05-03T15:37:29.057Z</time></trkpt><trkpt lat="46.0136842" lon="10.9394517"><ele>245.0</ele><time>2026-05-03T15:37:30.056Z</time></trkpt><trkpt lat="46.0137758" lon="10.9395452"><ele>245.0</ele><time>2026-05-03T15:37:31.057Z</time></trkpt><trkpt lat="46.0138657" lon="10.9396385"><ele>245.0</ele><time>2026-05-03T15:37:32.057Z</time></trkpt><trkpt lat="46.0139582" lon="10.9397228"><ele>245.0</ele><time>2026-05-03T15:37:33.057Z</time></trkpt><trkpt lat="46.0140622" lon="10.9398044"><ele>245.0</ele><time>2026-05-03T15:37:34.056Z</time></trkpt><trkpt lat="46.0141712" lon="10.9398838"><ele>245.0</ele><time>2026-05-03T15:37:35.057Z</time></trkpt><trkpt lat="46.0142898" lon="10.9399477"><ele>245.0</ele><time>2026-05-03T15:37:36.056Z</time></trkpt><trkpt lat="46.0144156" lon="10.9399951"><ele>244.5</ele><time>2026-05-03T15:37:37.057Z</time></trkpt><trkpt lat="46.0145437" lon="10.9400319"><ele>244.0</ele><time>2026-05-03T15:37:38.057Z</time></trkpt><trkpt lat="46.0146725" lon="10.9400622"><ele>243.5</ele><time>2026-05-03T15:37:39.056Z</time></trkpt><trkpt lat="46.0147961" lon="10.9401101"><ele>243.0</ele><time>2026-05-03T15:37:40.056Z</time></trkpt><trkpt lat="46.014917" lon="10.940174"><ele>243.0</ele><time>2026-05-03T15:37:41.057Z</time></trkpt><trkpt lat="46.0150253" lon="10.940259"><ele>243.0</ele><time>2026-05-03T15:37:42.057Z</time></trkpt><trkpt lat="46.0151318" lon="10.940358"><ele>243.0</ele><time>2026-05-03T15:37:43.056Z</time></trkpt><trkpt lat="46.0152315" lon="10.9404595"><ele>243.0</ele><time>2026-05-03T15:37:44.057Z</time></trkpt><trkpt lat="46.015336" lon="10.9405696"><ele>243.0</ele><time>2026-05-03T15:37:45.057Z</time></trkpt><trkpt lat="46.0154376" lon="10.940672"><ele>243.0</ele><time>2026-05-03T15:37:46.056Z</time></trkpt><trkpt lat="46.0155464" lon="10.9407706"><ele>243.0</ele><time>2026-05-03T15:37:47.057Z</time></trkpt><trkpt lat="46.0156571" lon="10.9408674"><ele>243.0</ele><time>2026-05-03T15:37:48.057Z</time></trkpt><trkpt lat="46.01577" lon="10.9409571"><ele>243.75</ele><time>2026-05-03T15:37:49.057Z</time></trkpt><trkpt lat="46.0158807" lon="10.9410526"><ele>244.5</ele><time>2026-05-03T15:37:50.057Z</time></trkpt><trkpt lat="46.0159839" lon="10.9411459"><ele>245.25</ele><time>2026-05-03T15:37:51.056Z</time></trkpt><trkpt lat="46.0160918" lon="10.9412336"><ele>246.0</ele><time>2026-05-03T15:37:52.057Z</time></trkpt><trkpt lat="46.0161947" lon="10.9413205"><ele>246.0</ele><time>2026-05-03T15:37:53.056Z</time></trkpt><trkpt lat="46.0162912" lon="10.9413953"><ele>246.00000000000003</ele><time>2026-05-03T15:37:54.057Z</time></trkpt><trkpt lat="46.0163866" lon="10.9414719"><ele>246.00000000000003</ele><time>2026-05-03T15:37:55.057Z</time></trkpt><trkpt lat="46.0164759" lon="10.9415464"><ele>246.0</ele><time>2026-05-03T15:37:56.057Z</time></trkpt><trkpt lat="46.0165601" lon="10.941616"><ele>246.0</ele><time>2026-05-03T15:37:57.057Z</time></trkpt><trkpt lat="46.0166362" lon="10.9416704"><ele>246.14285714285717</ele><time>2026-05-03T15:37:58.057Z</time></trkpt><trkpt lat="46.0167028" lon="10.9417244"><ele>246.28571428571428</ele><time>2026-05-03T15:37:59.057Z</time></trkpt><trkpt lat="46.016761" lon="10.9417769"><ele>246.42857142857144</ele><time>2026-05-03T15:38:00.056Z</time></trkpt><trkpt lat="46.0168243" lon="10.9418201"><ele>246.57142857142858</ele><time>2026-05-03T15:38:01.057Z</time></trkpt><trkpt lat="46.0168973" lon="10.9418639"><ele>246.71428571428572</ele><time>2026-05-03T15:38:02.055Z</time></trkpt><trkpt lat="46.0169707" lon="10.9418932"><ele>246.85714285714286</ele><time>2026-05-03T15:38:03.055Z</time></trkpt><trkpt lat="46.0170483" lon="10.9419126"><ele>247.0</ele><time>2026-05-03T15:38:04.055Z</time></trkpt><trkpt lat="46.01713" lon="10.9419276"><ele>247.0</ele><time>2026-05-03T15:38:05.056Z</time></trkpt><trkpt lat="46.0172183" lon="10.9419392"><ele>247.0</ele><time>2026-05-03T15:38:06.056Z</time></trkpt><trkpt lat="46.0173192" lon="10.9419503"><ele>247.0</ele><time>2026-05-03T15:38:07.056Z</time></trkpt><trkpt lat="46.0174296" lon="10.9419643"><ele>247.0</ele><time>2026-05-03T15:38:08.056Z</time></trkpt><trkpt lat="46.0175464" lon="10.9419729"><ele>247.0</ele><time>2026-05-03T15:38:09.056Z</time></trkpt><trkpt lat="46.0176646" lon="10.9419781"><ele>247.5</ele><time>2026-05-03T15:38:10.056Z</time></trkpt><trkpt lat="46.0177792" lon="10.9419792"><ele>248.0</ele><time>2026-05-03T15:38:11.055Z</time></trkpt><trkpt lat="46.0178961" lon="10.9419659"><ele>248.5</ele><time>2026-05-03T15:38:12.056Z</time></trkpt><trkpt lat="46.0180117" lon="10.9419347"><ele>249.0</ele><time>2026-05-03T15:38:13.055Z</time></trkpt><trkpt lat="46.0181279" lon="10.9418799"><ele>249.0</ele><time>2026-05-03T15:38:14.056Z</time></trkpt><trkpt lat="46.0182425" lon="10.9418053"><ele>249.0</ele><time>2026-05-03T15:38:15.056Z</time></trkpt><trkpt lat="46.0183475" lon="10.9417267"><ele>249.0</ele><time>2026-05-03T15:38:16.055Z</time></trkpt><trkpt lat="46.0184476" lon="10.9416471"><ele>249.0</ele><time>2026-05-03T15:38:17.055Z</time></trkpt><trkpt lat="46.0185505" lon="10.941568"><ele>250.5</ele><time>2026-05-03T15:38:18.056Z</time></trkpt><trkpt lat="46.0186488" lon="10.9414843"><ele>252.0</ele><time>2026-05-03T15:38:19.055Z</time></trkpt><trkpt lat="46.0187546" lon="10.941401"><ele>253.5</ele><time>2026-05-03T15:38:20.056Z</time></trkpt><trkpt lat="46.0188602" lon="10.9413229"><ele>255.0</ele><time>2026-05-03T15:38:21.056Z</time></trkpt><trkpt lat="46.0189701" lon="10.9412546"><ele>255.0</ele><time>2026-05-03T15:38:22.056Z</time></trkpt><trkpt lat="46.0190872" lon="10.9411902"><ele>255.0</ele><time>2026-05-03T15:38:23.055Z</time></trkpt><trkpt lat="46.0192185" lon="10.9411498"><ele>255.0</ele><time>2026-05-03T15:38:24.055Z</time></trkpt><trkpt lat="46.0193561" lon="10.941138"><ele>255.0</ele><time>2026-05-03T15:38:25.055Z</time></trkpt><trkpt lat="46.019489" lon="10.9411524"><ele>254.5</ele><time>2026-05-03T15:38:26.056Z</time></trkpt><trkpt lat="46.019626" lon="10.9411938"><ele>254.0</ele><time>2026-05-03T15:38:27.056Z</time></trkpt><trkpt lat="46.0197625" lon="10.9412443"><ele>253.5</ele><time>2026-05-03T15:38:28.056Z</time></trkpt><trkpt lat="46.0199011" lon="10.9413049"><ele>253.0</ele><time>2026-05-03T15:38:29.056Z</time></trkpt><trkpt lat="46.0200354" lon="10.9413829"><ele>254.5</ele><time>2026-05-03T15:38:30.056Z</time></trkpt><trkpt lat="46.0201674" lon="10.9414773"><ele>256.0</ele><time>2026-05-03T15:38:31.055Z</time></trkpt><trkpt lat="46.0202958" lon="10.9415767"><ele>257.5</ele><time>2026-05-03T15:38:32.056Z</time></trkpt><trkpt lat="46.0204193" lon="10.9416685"><ele>259.0</ele><time>2026-05-03T15:38:33.055Z</time></trkpt><trkpt lat="46.0205374" lon="10.9417607"><ele>259.0</ele><time>2026-05-03T15:38:34.056Z</time></trkpt><trkpt lat="46.0206536" lon="10.941845"><ele>259.0</ele><time>2026-05-03T15:38:35.056Z</time></trkpt><trkpt lat="46.0207628" lon="10.941928"><ele>259.0</ele><time>2026-05-03T15:38:36.056Z</time></trkpt><trkpt lat="46.0208726" lon="10.942003"><ele>259.0</ele><time>2026-05-03T15:38:37.055Z</time></trkpt><trkpt lat="46.0209806" lon="10.9420777"><ele>258.0</ele><time>2026-05-03T15:38:38.056Z</time></trkpt><trkpt lat="46.0210889" lon="10.9421549"><ele>257.0</ele><time>2026-05-03T15:38:39.056Z</time></trkpt><trkpt lat="46.0211945" lon="10.9422313"><ele>256.0</ele><time>2026-05-03T15:38:40.056Z</time></trkpt><trkpt lat="46.0213064" lon="10.942307"><ele>255.0</ele><time>2026-05-03T15:38:41.055Z</time></trkpt><trkpt lat="46.0214147" lon="10.9423886"><ele>255.0</ele><time>2026-05-03T15:38:42.056Z</time></trkpt><trkpt lat="46.0215235" lon="10.9424621"><ele>255.0</ele><time>2026-05-03T15:38:43.056Z</time></trkpt><trkpt lat="46.0216305" lon="10.9425408"><ele>255.0</ele><time>2026-05-03T15:38:44.056Z</time></trkpt><trkpt lat="46.0217368" lon="10.9426208"><ele>255.0</ele><time>2026-05-03T15:38:45.056Z</time></trkpt><trkpt lat="46.02185" lon="10.9426993"><ele>254.75</ele><time>2026-05-03T15:38:46.056Z</time></trkpt><trkpt lat="46.0219609" lon="10.9427762"><ele>254.5</ele><time>2026-05-03T15:38:47.055Z</time></trkpt><trkpt lat="46.0220693" lon="10.9428572"><ele>254.25</ele><time>2026-05-03T15:38:48.055Z</time></trkpt><trkpt lat="46.022183" lon="10.9429395"><ele>254.0</ele><time>2026-05-03T15:38:49.055Z</time></trkpt><trkpt lat="46.0222964" lon="10.9430278"><ele>254.00000000000003</ele><time>2026-05-03T15:38:50.056Z</time></trkpt><trkpt lat="46.0224051" lon="10.9431045"><ele>254.0</ele><time>2026-05-03T15:38:51.056Z</time></trkpt><trkpt lat="46.0224809" lon="10.9431537"><ele>254.0</ele><time>2026-05-03T15:38:52.055Z</time></trkpt><trkpt lat="46.0225368" lon="10.9432027"><ele>254.0</ele><time>2026-05-03T15:38:55.056Z</time></trkpt><trkpt lat="46.0226202" lon="10.9432394"><ele>254.00000000000003</ele><time>2026-05-03T15:39:09.056Z</time></trkpt><trkpt lat="46.0226846" lon="10.9432906"><ele>254.0</ele><time>2026-05-03T15:39:11.055Z</time></trkpt><trkpt lat="46.022754" lon="10.943334"><ele>254.2</ele><time>2026-05-03T15:39:13.055Z</time></trkpt><trkpt lat="46.022833" lon="10.9433767"><ele>254.39999999999998</ele><time>2026-05-03T15:39:15.056Z</time></trkpt><trkpt lat="46.0229367" lon="10.9434445"><ele>254.6</ele><time>2026-05-03T15:39:17.055Z</time></trkpt><trkpt lat="46.0230422" lon="10.9435218"><ele>254.8</ele><time>2026-05-03T15:39:19.055Z</time></trkpt><trkpt lat="46.0231423" lon="10.9435976"><ele>255.0</ele><time>2026-05-03T15:39:21.056Z</time></trkpt><trkpt lat="46.0232485" lon="10.9436698"><ele>254.83333333333334</ele><time>2026-05-03T15:39:23.056Z</time></trkpt><trkpt lat="46.0233072" lon="10.9437122"><ele>254.66666666666669</ele><time>2026-05-03T15:39:24.055Z</time></trkpt><trkpt lat="46.0233673" lon="10.9437532"><ele>254.5</ele><time>2026-05-03T15:39:25.056Z</time></trkpt><trkpt lat="46.0234247" lon="10.9437923"><ele>254.33333333333334</ele><time>2026-05-03T15:39:26.055Z</time></trkpt><trkpt lat="46.0234814" lon="10.9438356"><ele>254.16666666666669</ele><time>2026-05-03T15:39:27.056Z</time></trkpt><trkpt lat="46.0235921" lon="10.9439073"><ele>254.0</ele><time>2026-05-03T15:39:29.055Z</time></trkpt><trkpt lat="46.023677" lon="10.943969"><ele>254.0</ele><time>2026-05-03T15:39:31.056Z</time></trkpt><trkpt lat="46.0238001" lon="10.9440568"><ele>254.0</ele><time>2026-05-03T15:39:37.056Z</time></trkpt><trkpt lat="46.0238968" lon="10.9441314"><ele>254.0</ele><time>2026-05-03T15:39:39.056Z</time></trkpt><trkpt lat="46.0239951" lon="10.9441951"><ele>254.0</ele><time>2026-05-03T15:39:41.055Z</time></trkpt><trkpt lat="46.0240938" lon="10.9442436"><ele>253.66666666666669</ele><time>2026-05-03T15:39:43.055Z</time></trkpt><trkpt lat="46.0241873" lon="10.9442894"><ele>253.33333333333334</ele><time>2026-05-03T15:39:45.056Z</time></trkpt><trkpt lat="46.0242668" lon="10.9443298"><ele>253.0</ele><time>2026-05-03T15:39:47.055Z</time></trkpt><trkpt lat="46.0243614" lon="10.944356"><ele>252.66666666666669</ele><time>2026-05-03T15:39:56.056Z</time></trkpt><trkpt lat="46.0244226" lon="10.9443863"><ele>252.33333333333334</ele><time>2026-05-03T15:39:57.055Z</time></trkpt><trkpt lat="46.0245164" lon="10.9444474"><ele>252.0</ele><time>2026-05-03T15:39:59.056Z</time></trkpt><trkpt lat="46.0246258" lon="10.9444974"><ele>252.0</ele><time>2026-05-03T15:40:08.056Z</time></trkpt><trkpt lat="46.0247327" lon="10.9445489"><ele>252.0</ele><time>2026-05-03T15:40:10.056Z</time></trkpt><trkpt lat="46.0248408" lon="10.9446005"><ele>252.0</ele><time>2026-05-03T15:40:12.056Z</time></trkpt><trkpt lat="46.0249031" lon="10.9446195"><ele>252.0</ele><time>2026-05-03T15:40:13.056Z</time></trkpt><trkpt lat="46.024968" lon="10.9446442"><ele>252.0</ele><time>2026-05-03T15:40:14.056Z</time></trkpt><trkpt lat="46.0250755" lon="10.9446862"><ele>252.0</ele><time>2026-05-03T15:40:16.056Z</time></trkpt><trkpt lat="46.0251394" lon="10.9447291"><ele>252.0</ele><time>2026-05-03T15:40:18.056Z</time></trkpt><trkpt lat="46.0252236" lon="10.9447443"><ele>252.0</ele><time>2026-05-03T15:40:23.056Z</time></trkpt><trkpt lat="46.0253138" lon="10.9447793"><ele>252.0</ele><time>2026-05-03T15:40:25.055Z</time></trkpt><trkpt lat="46.0254038" lon="10.9448045"><ele>252.0</ele><time>2026-05-03T15:40:27.056Z</time></trkpt><trkpt lat="46.0254829" lon="10.9448297"><ele>252.0</ele><time>2026-05-03T15:40:29.055Z</time></trkpt><trkpt lat="46.0255466" lon="10.9448584"><ele>252.0</ele><time>2026-05-03T15:40:31.056Z</time></trkpt><trkpt lat="46.025645" lon="10.9448776"><ele>252.0</ele><time>2026-05-03T15:40:34.055Z</time></trkpt><trkpt lat="46.0257445" lon="10.9449064"><ele>252.0</ele><time>2026-05-03T15:40:36.056Z</time></trkpt><trkpt lat="46.0258077" lon="10.9449213"><ele>252.0</ele><time>2026-05-03T15:40:37.056Z</time></trkpt><trkpt lat="46.0258727" lon="10.944939"><ele>252.0</ele><time>2026-05-03T15:40:38.055Z</time></trkpt><trkpt lat="46.0259599" lon="10.9449772"><ele>252.0</ele><time>2026-05-03T15:40:40.056Z</time></trkpt><trkpt lat="46.0260548" lon="10.9450056"><ele>251.6</ele><time>2026-05-03T15:40:44.056Z</time></trkpt><trkpt lat="46.0261897" lon="10.9450512"><ele>251.2</ele><time>2026-05-03T15:40:46.055Z</time></trkpt><trkpt lat="46.026277" lon="10.9450638"><ele>250.8</ele><time>2026-05-03T15:40:47.056Z</time></trkpt><trkpt lat="46.0263632" lon="10.9450909"><ele>250.4</ele><time>2026-05-03T15:40:48.056Z</time></trkpt><trkpt lat="46.0264513" lon="10.9451258"><ele>250.0</ele><time>2026-05-03T15:40:49.055Z</time></trkpt><trkpt lat="46.0265422" lon="10.9451586"><ele>250.0</ele><time>2026-05-03T15:40:50.056Z</time></trkpt><trkpt lat="46.0266412" lon="10.9451962"><ele>250.0</ele><time>2026-05-03T15:40:51.056Z</time></trkpt><trkpt lat="46.0267419" lon="10.9452213"><ele>250.0</ele><time>2026-05-03T15:40:52.056Z</time></trkpt><trkpt lat="46.0268422" lon="10.945246"><ele>250.0</ele><time>2026-05-03T15:40:53.056Z</time></trkpt><trkpt lat="46.0269445" lon="10.945274"><ele>250.0</ele><time>2026-05-03T15:40:54.056Z</time></trkpt><trkpt lat="46.0270459" lon="10.9452918"><ele>250.0</ele><time>2026-05-03T15:40:55.056Z</time></trkpt><trkpt lat="46.0271509" lon="10.9453169"><ele>250.0</ele><time>2026-05-03T15:40:56.056Z</time></trkpt><trkpt lat="46.0272544" lon="10.945342"><ele>250.0</ele><time>2026-05-03T15:40:57.056Z</time></trkpt><trkpt lat="46.0273637" lon="10.9453645"><ele>250.0</ele><time>2026-05-03T15:40:58.056Z</time></trkpt><trkpt lat="46.0274631" lon="10.9453888"><ele>250.0</ele><time>2026-05-03T15:40:59.055Z</time></trkpt><trkpt lat="46.0275604" lon="10.9454119"><ele>250.2</ele><time>2026-05-03T15:41:00.056Z</time></trkpt><trkpt lat="46.0276519" lon="10.9454332"><ele>250.4</ele><time>2026-05-03T15:41:01.056Z</time></trkpt><trkpt lat="46.0277313" lon="10.9454514"><ele>250.60000000000002</ele><time>2026-05-03T15:41:02.055Z</time></trkpt><trkpt lat="46.0278009" lon="10.9454678"><ele>250.8</ele><time>2026-05-03T15:41:03.056Z</time></trkpt><trkpt lat="46.0279108" lon="10.9454876"><ele>251.0</ele><time>2026-05-03T15:41:05.055Z</time></trkpt><trkpt lat="46.0280401" lon="10.9455081"><ele>251.0</ele><time>2026-05-03T15:41:07.056Z</time></trkpt><trkpt lat="46.0281241" lon="10.945521"><ele>251.00000000000003</ele><time>2026-05-03T15:41:08.055Z</time></trkpt><trkpt lat="46.0282161" lon="10.9455323"><ele>251.00000000000003</ele><time>2026-05-03T15:41:09.056Z</time></trkpt><trkpt lat="46.0283125" lon="10.9455602"><ele>251.0</ele><time>2026-05-03T15:41:10.056Z</time></trkpt><trkpt lat="46.0284096" lon="10.9455844"><ele>251.0</ele><time>2026-05-03T15:41:11.056Z</time></trkpt><trkpt lat="46.0285127" lon="10.9456117"><ele>250.60000000000002</ele><time>2026-05-03T15:41:12.056Z</time></trkpt><trkpt lat="46.0286236" lon="10.9456351"><ele>250.20000000000002</ele><time>2026-05-03T15:41:13.056Z</time></trkpt><trkpt lat="46.0287347" lon="10.9456579"><ele>249.79999999999998</ele><time>2026-05-03T15:41:14.055Z</time></trkpt><trkpt lat="46.0288422" lon="10.9456922"><ele>249.39999999999998</ele><time>2026-05-03T15:41:15.056Z</time></trkpt><trkpt lat="46.0289449" lon="10.9457145"><ele>249.0</ele><time>2026-05-03T15:41:16.055Z</time></trkpt><trkpt lat="46.0290411" lon="10.9457447"><ele>249.0</ele><time>2026-05-03T15:41:17.055Z</time></trkpt><trkpt lat="46.0291302" lon="10.9457766"><ele>248.99999999999997</ele><time>2026-05-03T15:41:18.056Z</time></trkpt><trkpt lat="46.0292195" lon="10.9458066"><ele>248.99999999999997</ele><time>2026-05-03T15:41:19.056Z</time></trkpt><trkpt lat="46.0293081" lon="10.9458372"><ele>249.0</ele><time>2026-05-03T15:41:20.055Z</time></trkpt><trkpt lat="46.0293959" lon="10.9458602"><ele>249.0</ele><time>2026-05-03T15:41:21.056Z</time></trkpt><trkpt lat="46.0294844" lon="10.9458695"><ele>249.2</ele><time>2026-05-03T15:41:22.055Z</time></trkpt><trkpt lat="46.0295718" lon="10.9458761"><ele>249.39999999999998</ele><time>2026-05-03T15:41:23.056Z</time></trkpt><trkpt lat="46.0296552" lon="10.9458794"><ele>249.6</ele><time>2026-05-03T15:41:24.056Z</time></trkpt><trkpt lat="46.0297433" lon="10.9458942"><ele>249.8</ele><time>2026-05-03T15:41:25.056Z</time></trkpt><trkpt lat="46.0298416" lon="10.9459174"><ele>250.0</ele><time>2026-05-03T15:41:26.055Z</time></trkpt><trkpt lat="46.0299503" lon="10.9459381"><ele>249.4</ele><time>2026-05-03T15:41:27.056Z</time></trkpt><trkpt lat="46.0300644" lon="10.9459633"><ele>248.8</ele><time>2026-05-03T15:41:28.056Z</time></trkpt><trkpt lat="46.0301802" lon="10.9459886"><ele>248.2</ele><time>2026-05-03T15:41:29.055Z</time></trkpt><trkpt lat="46.0302918" lon="10.9460153"><ele>247.6</ele><time>2026-05-03T15:41:30.056Z</time></trkpt><trkpt lat="46.0303935" lon="10.9460393"><ele>247.0</ele><time>2026-05-03T15:41:31.056Z</time></trkpt><trkpt lat="46.0304914" lon="10.946064"><ele>246.99999999999997</ele><time>2026-05-03T15:41:32.055Z</time></trkpt><trkpt lat="46.0305847" lon="10.9460811"><ele>247.0</ele><time>2026-05-03T15:41:33.056Z</time></trkpt><trkpt lat="46.0306715" lon="10.9461031"><ele>247.0</ele><time>2026-05-03T15:41:34.056Z</time></trkpt><trkpt lat="46.0307556" lon="10.946118"><ele>247.0</ele><time>2026-05-03T15:41:35.056Z</time></trkpt><trkpt lat="46.0308309" lon="10.9461422"><ele>246.99999999999997</ele><time>2026-05-03T15:41:36.056Z</time></trkpt><trkpt lat="46.0309036" lon="10.9461662"><ele>247.0</ele><time>2026-05-03T15:41:37.055Z</time></trkpt><trkpt lat="46.0309834" lon="10.9461879"><ele>246.99999999999997</ele><time>2026-05-03T15:41:38.056Z</time></trkpt><trkpt lat="46.031065" lon="10.9462068"><ele>247.0</ele><time>2026-05-03T15:41:39.056Z</time></trkpt><trkpt lat="46.031154" lon="10.9462305"><ele>247.0</ele><time>2026-05-03T15:41:40.056Z</time></trkpt><trkpt lat="46.0312489" lon="10.9462455"><ele>247.0</ele><time>2026-05-03T15:41:41.056Z</time></trkpt><trkpt lat="46.0313407" lon="10.9462674"><ele>246.99999999999997</ele><time>2026-05-03T15:41:42.055Z</time></trkpt><trkpt lat="46.0314222" lon="10.9462866"><ele>247.0</ele><time>2026-05-03T15:41:43.056Z</time></trkpt><trkpt lat="46.0314987" lon="10.9462951"><ele>246.99999999999997</ele><time>2026-05-03T15:41:44.056Z</time></trkpt><trkpt lat="46.031574" lon="10.9462966"><ele>247.0</ele><time>2026-05-03T15:41:45.056Z</time></trkpt><trkpt lat="46.0316534" lon="10.9462966"><ele>247.0</ele><time>2026-05-03T15:41:46.055Z</time></trkpt><trkpt lat="46.0317363" lon="10.9462874"><ele>247.0</ele><time>2026-05-03T15:41:47.056Z</time></trkpt><trkpt lat="46.0318152" lon="10.9462734"><ele>246.99999999999997</ele><time>2026-05-03T15:41:48.056Z</time></trkpt><trkpt lat="46.0318896" lon="10.9462578"><ele>247.0</ele><time>2026-05-03T15:41:49.056Z</time></trkpt><trkpt lat="46.031954" lon="10.9462354"><ele>247.0</ele><time>2026-05-03T15:41:50.056Z</time></trkpt><trkpt lat="46.0320638" lon="10.9462214"><ele>247.0</ele><time>2026-05-03T15:41:52.056Z</time></trkpt><trkpt lat="46.0321269" lon="10.9462124"><ele>247.0</ele><time>2026-05-03T15:41:54.055Z</time></trkpt><trkpt lat="46.0322127" lon="10.9461776"><ele>247.0</ele><time>2026-05-03T15:41:58.056Z</time></trkpt><trkpt lat="46.0323259" lon="10.946147"><ele>247.0</ele><time>2026-05-03T15:42:00.056Z</time></trkpt><trkpt lat="46.0323986" lon="10.9461242"><ele>246.99999999999997</ele><time>2026-05-03T15:42:01.056Z</time></trkpt><trkpt lat="46.0324744" lon="10.9461062"><ele>247.0</ele><time>2026-05-03T15:42:02.055Z</time></trkpt><trkpt lat="46.0325387" lon="10.9460996"><ele>247.0</ele><time>2026-05-03T15:42:03.056Z</time></trkpt><trkpt lat="46.0326304" lon="10.9460896"><ele>247.0</ele><time>2026-05-03T15:42:05.055Z</time></trkpt><trkpt lat="46.0326996" lon="10.9460754"><ele>246.99999999999997</ele><time>2026-05-03T15:42:08.056Z</time></trkpt><trkpt lat="46.0327796" lon="10.9460612"><ele>247.0</ele><time>2026-05-03T15:42:13.055Z</time></trkpt><trkpt lat="46.0328527" lon="10.9460859"><ele>247.0</ele><time>2026-05-03T15:42:16.056Z</time></trkpt><trkpt lat="46.0329233" lon="10.9461375"><ele>247.0</ele><time>2026-05-03T15:42:19.056Z</time></trkpt><trkpt lat="46.0329671" lon="10.9462273"><ele>247.0</ele><time>2026-05-03T15:42:24.055Z</time></trkpt><trkpt lat="46.0329873" lon="10.9463198"><ele>247.0</ele><time>2026-05-03T15:42:28.056Z</time></trkpt><trkpt lat="46.033007" lon="10.9464088"><ele>247.0</ele><time>2026-05-03T15:42:33.056Z</time></trkpt><trkpt lat="46.0330449" lon="10.9465004"><ele>247.0</ele><time>2026-05-03T15:42:38.056Z</time></trkpt><trkpt lat="46.0330707" lon="10.9466083"><ele>247.0</ele><time>2026-05-03T15:42:43.056Z</time></trkpt><trkpt lat="46.0331086" lon="10.9467142"><ele>247.2</ele><time>2026-05-03T15:42:45.056Z</time></trkpt><trkpt lat="46.0331443" lon="10.946874"><ele>247.39999999999998</ele><time>2026-05-03T15:42:47.056Z</time></trkpt><trkpt lat="46.0331688" lon="10.9469618"><ele>247.60000000000002</ele><time>2026-05-03T15:42:48.055Z</time></trkpt><trkpt lat="46.0331994" lon="10.947052"><ele>247.8</ele><time>2026-05-03T15:42:49.055Z</time></trkpt><trkpt lat="46.0332709" lon="10.9471939"><ele>248.0</ele><time>2026-05-03T15:42:51.055Z</time></trkpt><trkpt lat="46.033329" lon="10.9472785"><ele>248.0</ele><time>2026-05-03T15:42:53.054Z</time></trkpt><trkpt lat="46.0334557" lon="10.947367"><ele>248.0</ele><time>2026-05-03T15:43:06.055Z</time></trkpt><trkpt lat="46.0335346" lon="10.9474175"><ele>248.0</ele><time>2026-05-03T15:43:11.055Z</time></trkpt><trkpt lat="46.0336343" lon="10.9474731"><ele>248.0</ele><time>2026-05-03T15:43:13.054Z</time></trkpt><trkpt lat="46.0337399" lon="10.9475579"><ele>247.8</ele><time>2026-05-03T15:43:15.055Z</time></trkpt><trkpt lat="46.033841" lon="10.9476322"><ele>247.60000000000002</ele><time>2026-05-03T15:43:17.055Z</time></trkpt><trkpt lat="46.0339034" lon="10.9476908"><ele>247.39999999999998</ele><time>2026-05-03T15:43:19.055Z</time></trkpt><trkpt lat="46.0339795" lon="10.9477311"><ele>247.2</ele><time>2026-05-03T15:43:35.055Z</time></trkpt><trkpt lat="46.0340852" lon="10.9478058"><ele>247.0</ele><time>2026-05-03T15:43:37.055Z</time></trkpt><trkpt lat="46.0341773" lon="10.947886"><ele>246.8</ele><time>2026-05-03T15:43:39.055Z</time></trkpt><trkpt lat="46.0342696" lon="10.9479359"><ele>246.6</ele><time>2026-05-03T15:43:41.054Z</time></trkpt><trkpt lat="46.0343737" lon="10.9479817"><ele>246.40000000000003</ele><time>2026-05-03T15:43:43.055Z</time></trkpt><trkpt lat="46.0344922" lon="10.9480391"><ele>246.20000000000002</ele><time>2026-05-03T15:43:45.054Z</time></trkpt><trkpt lat="46.0345575" lon="10.9480655"><ele>246.0</ele><time>2026-05-03T15:43:46.055Z</time></trkpt><trkpt lat="46.0346322" lon="10.9481009"><ele>246.0</ele><time>2026-05-03T15:43:47.055Z</time></trkpt><trkpt lat="46.0347107" lon="10.9481391"><ele>246.0</ele><time>2026-05-03T15:43:48.055Z</time></trkpt><trkpt lat="46.0347905" lon="10.948171"><ele>246.0</ele><time>2026-05-03T15:43:49.055Z</time></trkpt><trkpt lat="46.0348728" lon="10.9482015"><ele>246.0</ele><time>2026-05-03T15:43:50.055Z</time></trkpt><trkpt lat="46.0349563" lon="10.9482334"><ele>246.0</ele><time>2026-05-03T15:43:51.055Z</time></trkpt><trkpt lat="46.0350402" lon="10.948266"><ele>246.0</ele><time>2026-05-03T15:43:52.055Z</time></trkpt><trkpt lat="46.0351231" lon="10.9482982"><ele>245.5</ele><time>2026-05-03T15:43:53.055Z</time></trkpt><trkpt lat="46.0352033" lon="10.9483284"><ele>245.0</ele><time>2026-05-03T15:43:54.055Z</time></trkpt><trkpt lat="46.0352788" lon="10.94836"><ele>244.5</ele><time>2026-05-03T15:43:55.055Z</time></trkpt><trkpt lat="46.0353497" lon="10.9483898"><ele>244.0</ele><time>2026-05-03T15:43:56.055Z</time></trkpt><trkpt lat="46.0354502" lon="10.9484449"><ele>243.5</ele><time>2026-05-03T15:43:58.055Z</time></trkpt><trkpt lat="46.035548" lon="10.9484858"><ele>243.0</ele><time>2026-05-03T15:44:06.054Z</time></trkpt><trkpt lat="46.0356103" lon="10.9485038"><ele>243.0</ele><time>2026-05-03T15:44:07.055Z</time></trkpt><trkpt lat="46.0356755" lon="10.9485314"><ele>243.0</ele><time>2026-05-03T15:44:08.054Z</time></trkpt><trkpt lat="46.0357511" lon="10.9485633"><ele>243.0</ele><time>2026-05-03T15:44:09.055Z</time></trkpt><trkpt lat="46.0358369" lon="10.9485954"><ele>243.0</ele><time>2026-05-03T15:44:10.055Z</time></trkpt><trkpt lat="46.0359304" lon="10.9486324"><ele>243.0</ele><time>2026-05-03T15:44:11.055Z</time></trkpt><trkpt lat="46.0360332" lon="10.9486718"><ele>243.0</ele><time>2026-05-03T15:44:12.055Z</time></trkpt><trkpt lat="46.0361353" lon="10.9487151"><ele>243.25</ele><time>2026-05-03T15:44:13.055Z</time></trkpt><trkpt lat="46.036245" lon="10.9487643"><ele>243.5</ele><time>2026-05-03T15:44:14.055Z</time></trkpt><trkpt lat="46.0363566" lon="10.9488134"><ele>243.75</ele><time>2026-05-03T15:44:15.054Z</time></trkpt><trkpt lat="46.0364772" lon="10.9488646"><ele>244.0</ele><time>2026-05-03T15:44:16.054Z</time></trkpt><trkpt lat="46.036609" lon="10.9489266"><ele>243.75</ele><time>2026-05-03T15:44:17.055Z</time></trkpt><trkpt lat="46.0367516" lon="10.9489906"><ele>243.5</ele><time>2026-05-03T15:44:18.055Z</time></trkpt><trkpt lat="46.0368851" lon="10.9490388"><ele>243.25</ele><time>2026-05-03T15:44:19.055Z</time></trkpt><trkpt lat="46.0369952" lon="10.9490861"><ele>243.0</ele><time>2026-05-03T15:44:20.055Z</time></trkpt><trkpt lat="46.03708" lon="10.9491265"><ele>243.0</ele><time>2026-05-03T15:44:21.055Z</time></trkpt><trkpt lat="46.0371516" lon="10.949168"><ele>243.0</ele><time>2026-05-03T15:44:22.055Z</time></trkpt><trkpt lat="46.0372129" lon="10.9492069"><ele>243.0</ele><time>2026-05-03T15:44:23.055Z</time></trkpt><trkpt lat="46.0372867" lon="10.9492312"><ele>243.0</ele><time>2026-05-03T15:44:25.054Z</time></trkpt><trkpt lat="46.0373803" lon="10.9492641"><ele>243.0</ele><time>2026-05-03T15:44:28.055Z</time></trkpt><trkpt lat="46.0374787" lon="10.9493151"><ele>243.0</ele><time>2026-05-03T15:44:30.055Z</time></trkpt><trkpt lat="46.0375517" lon="10.9493514"><ele>243.5</ele><time>2026-05-03T15:44:31.055Z</time></trkpt><trkpt lat="46.0376537" lon="10.9493883"><ele>244.0</ele><time>2026-05-03T15:44:32.055Z</time></trkpt><trkpt lat="46.0377654" lon="10.9494338"><ele>244.5</ele><time>2026-05-03T15:44:33.054Z</time></trkpt><trkpt lat="46.0378967" lon="10.9494906"><ele>245.0</ele><time>2026-05-03T15:44:34.055Z</time></trkpt><trkpt lat="46.0380507" lon="10.9495463"><ele>245.0</ele><time>2026-05-03T15:44:35.055Z</time></trkpt><trkpt lat="46.0382163" lon="10.9496078"><ele>245.0</ele><time>2026-05-03T15:44:36.055Z</time></trkpt><trkpt lat="46.0383807" lon="10.9496783"><ele>245.0</ele><time>2026-05-03T15:44:37.054Z</time></trkpt><trkpt lat="46.0385349" lon="10.9497476"><ele>245.0</ele><time>2026-05-03T15:44:38.055Z</time></trkpt><trkpt lat="46.0386806" lon="10.9498171"><ele>245.0</ele><time>2026-05-03T15:44:39.055Z</time></trkpt><trkpt lat="46.0388185" lon="10.9498776"><ele>245.0</ele><time>2026-05-03T15:44:40.055Z</time></trkpt><trkpt lat="46.0389423" lon="10.9499319"><ele>245.0</ele><time>2026-05-03T15:44:41.055Z</time></trkpt><trkpt lat="46.0390603" lon="10.949985"><ele>245.2</ele><time>2026-05-03T15:44:42.055Z</time></trkpt><trkpt lat="46.0391702" lon="10.9500351"><ele>245.4</ele><time>2026-05-03T15:44:43.055Z</time></trkpt><trkpt lat="46.039278" lon="10.9500841"><ele>245.60000000000002</ele><time>2026-05-03T15:44:44.054Z</time></trkpt><trkpt lat="46.0393813" lon="10.9501293"><ele>245.8</ele><time>2026-05-03T15:44:45.055Z</time></trkpt><trkpt lat="46.0394857" lon="10.9501696"><ele>246.0</ele><time>2026-05-03T15:44:46.055Z</time></trkpt><trkpt lat="46.0395865" lon="10.9502076"><ele>246.20000000000002</ele><time>2026-05-03T15:44:47.055Z</time></trkpt><trkpt lat="46.0396847" lon="10.9502476"><ele>246.40000000000003</ele><time>2026-05-03T15:44:48.055Z</time></trkpt><trkpt lat="46.0397751" lon="10.9502841"><ele>246.6</ele><time>2026-05-03T15:44:49.055Z</time></trkpt><trkpt lat="46.0398652" lon="10.9503182"><ele>246.8</ele><time>2026-05-03T15:44:50.054Z</time></trkpt><trkpt lat="46.0399668" lon="10.9503502"><ele>247.0</ele><time>2026-05-03T15:44:51.054Z</time></trkpt><trkpt lat="46.0400836" lon="10.9503875"><ele>247.5</ele><time>2026-05-03T15:44:52.055Z</time></trkpt><trkpt lat="46.0402108" lon="10.9504257"><ele>248.0</ele><time>2026-05-03T15:44:53.055Z</time></trkpt><trkpt lat="46.0403534" lon="10.9504719"><ele>248.5</ele><time>2026-05-03T15:44:54.055Z</time></trkpt><trkpt lat="46.0405035" lon="10.9505127"><ele>249.0</ele><time>2026-05-03T15:44:55.055Z</time></trkpt><trkpt lat="46.0406442" lon="10.9505543"><ele>249.0</ele><time>2026-05-03T15:44:56.055Z</time></trkpt><trkpt lat="46.0407715" lon="10.9505949"><ele>249.0</ele><time>2026-05-03T15:44:57.055Z</time></trkpt><trkpt lat="46.0408875" lon="10.9506376"><ele>249.0</ele><time>2026-05-03T15:44:58.054Z</time></trkpt><trkpt lat="46.0409976" lon="10.9506697"><ele>249.0</ele><time>2026-05-03T15:44:59.055Z</time></trkpt><trkpt lat="46.041126" lon="10.9506903"><ele>249.0</ele><time>2026-05-03T15:45:00.055Z</time></trkpt><trkpt lat="46.0412704" lon="10.9507161"><ele>249.0</ele><time>2026-05-03T15:45:01.055Z</time></trkpt><trkpt lat="46.0414342" lon="10.9507713"><ele>249.0</ele><time>2026-05-03T15:45:02.055Z</time></trkpt><trkpt lat="46.0416015" lon="10.950831"><ele>248.75</ele><time>2026-05-03T15:45:03.054Z</time></trkpt><trkpt lat="46.041752" lon="10.9508805"><ele>248.5</ele><time>2026-05-03T15:45:04.055Z</time></trkpt><trkpt lat="46.0418709" lon="10.9509231"><ele>248.25</ele><time>2026-05-03T15:45:05.055Z</time></trkpt><trkpt lat="46.0419626" lon="10.9509415"><ele>248.0</ele><time>2026-05-03T15:45:06.055Z</time></trkpt><trkpt lat="46.0420501" lon="10.9509567"><ele>248.00000000000003</ele><time>2026-05-03T15:45:07.055Z</time></trkpt><trkpt lat="46.0421332" lon="10.9509711"><ele>248.0</ele><time>2026-05-03T15:45:08.055Z</time></trkpt><trkpt lat="46.0422127" lon="10.9509865"><ele>248.0</ele><time>2026-05-03T15:45:09.054Z</time></trkpt><trkpt lat="46.0422844" lon="10.9510078"><ele>248.0</ele><time>2026-05-03T15:45:10.055Z</time></trkpt><trkpt lat="46.0423526" lon="10.9510278"><ele>248.00000000000003</ele><time>2026-05-03T15:45:11.055Z</time></trkpt><trkpt lat="46.0424148" lon="10.9510441"><ele>248.0</ele><time>2026-05-03T15:45:12.055Z</time></trkpt><trkpt lat="46.0425286" lon="10.9510773"><ele>247.85714285714286</ele><time>2026-05-03T15:45:14.055Z</time></trkpt><trkpt lat="46.0425909" lon="10.9510976"><ele>247.71428571428572</ele><time>2026-05-03T15:45:15.055Z</time></trkpt><trkpt lat="46.0426593" lon="10.951116"><ele>247.57142857142858</ele><time>2026-05-03T15:45:16.055Z</time></trkpt><trkpt lat="46.0427289" lon="10.951136"><ele>247.42857142857144</ele><time>2026-05-03T15:45:17.054Z</time></trkpt><trkpt lat="46.0428016" lon="10.9511542"><ele>247.28571428571428</ele><time>2026-05-03T15:45:18.055Z</time></trkpt><trkpt lat="46.0428786" lon="10.9511748"><ele>247.14285714285717</ele><time>2026-05-03T15:45:19.055Z</time></trkpt><trkpt lat="46.0429538" lon="10.9511981"><ele>247.0</ele><time>2026-05-03T15:45:20.055Z</time></trkpt><trkpt lat="46.043031" lon="10.9512161"><ele>247.0</ele><time>2026-05-03T15:45:21.055Z</time></trkpt><trkpt lat="46.0431137" lon="10.9512343"><ele>247.0</ele><time>2026-05-03T15:45:22.055Z</time></trkpt><trkpt lat="46.043196" lon="10.9512582"><ele>247.0</ele><time>2026-05-03T15:45:23.055Z</time></trkpt><trkpt lat="46.0432681" lon="10.9512862"><ele>247.0</ele><time>2026-05-03T15:45:24.055Z</time></trkpt><trkpt lat="46.0433385" lon="10.9513085"><ele>247.0</ele><time>2026-05-03T15:45:25.055Z</time></trkpt><trkpt lat="46.0434035" lon="10.9513243"><ele>247.0</ele><time>2026-05-03T15:45:26.055Z</time></trkpt><trkpt lat="46.0434684" lon="10.9513443"><ele>247.0</ele><time>2026-05-03T15:45:27.054Z</time></trkpt><trkpt lat="46.043563" lon="10.9513789"><ele>247.33333333333331</ele><time>2026-05-03T15:45:29.054Z</time></trkpt><trkpt lat="46.0436417" lon="10.9514"><ele>247.66666666666666</ele><time>2026-05-03T15:45:32.055Z</time></trkpt><trkpt lat="46.043717" lon="10.9514176"><ele>248.0</ele><time>2026-05-03T15:45:36.054Z</time></trkpt><trkpt lat="46.0437945" lon="10.9514302"><ele>248.33333333333331</ele><time>2026-05-03T15:45:38.055Z</time></trkpt><trkpt lat="46.0438614" lon="10.951455"><ele>248.66666666666666</ele><time>2026-05-03T15:45:40.055Z</time></trkpt><trkpt lat="46.0439629" lon="10.9514696"><ele>249.0</ele><time>2026-05-03T15:45:49.055Z</time></trkpt><trkpt lat="46.0440278" lon="10.9514835"><ele>249.0</ele><time>2026-05-03T15:45:50.055Z</time></trkpt><trkpt lat="46.0441021" lon="10.9515082"><ele>248.99999999999997</ele><time>2026-05-03T15:45:51.055Z</time></trkpt><trkpt lat="46.0441796" lon="10.9515357"><ele>248.99999999999997</ele><time>2026-05-03T15:45:52.055Z</time></trkpt><trkpt lat="46.044248" lon="10.9515628"><ele>249.0</ele><time>2026-05-03T15:45:53.055Z</time></trkpt><trkpt lat="46.0443699" lon="10.9515953"><ele>249.0</ele><time>2026-05-03T15:45:55.054Z</time></trkpt><trkpt lat="46.0444749" lon="10.9516361"><ele>249.0</ele><time>2026-05-03T15:45:57.054Z</time></trkpt><trkpt lat="46.0445423" lon="10.9516936"><ele>249.0</ele><time>2026-05-03T15:45:59.055Z</time></trkpt><trkpt lat="46.0445948" lon="10.9517664"><ele>249.0</ele><time>2026-05-03T15:46:03.055Z</time></trkpt><trkpt lat="46.0446513" lon="10.9518767"><ele>249.0</ele><time>2026-05-03T15:46:06.055Z</time></trkpt><trkpt lat="46.0447147" lon="10.9519274"><ele>249.0</ele><time>2026-05-03T15:46:08.055Z</time></trkpt><trkpt lat="46.0447912" lon="10.9519359"><ele>249.0</ele><time>2026-05-03T15:46:10.055Z</time></trkpt><trkpt lat="46.044862" lon="10.9519028"><ele>249.16666666666666</ele><time>2026-05-03T15:46:12.055Z</time></trkpt><trkpt lat="46.0449323" lon="10.9518158"><ele>249.33333333333331</ele><time>2026-05-03T15:46:14.055Z</time></trkpt><trkpt lat="46.0450189" lon="10.9517816"><ele>249.5</ele><time>2026-05-03T15:46:16.055Z</time></trkpt><trkpt lat="46.0450916" lon="10.9518026"><ele>249.66666666666666</ele><time>2026-05-03T15:46:18.055Z</time></trkpt><trkpt lat="46.045185" lon="10.9518258"><ele>249.83333333333331</ele><time>2026-05-03T15:46:20.054Z</time></trkpt><trkpt lat="46.0452662" lon="10.9518545"><ele>250.0</ele><time>2026-05-03T15:46:22.054Z</time></trkpt><trkpt lat="46.0453348" lon="10.9518696"><ele>250.0</ele><time>2026-05-03T15:46:24.055Z</time></trkpt><trkpt lat="46.045463" lon="10.9518853"><ele>250.0</ele><time>2026-05-03T15:46:32.055Z</time></trkpt><trkpt lat="46.0455325" lon="10.9519083"><ele>250.0</ele><time>2026-05-03T15:46:34.055Z</time></trkpt><trkpt lat="46.0456168" lon="10.9519443"><ele>250.0</ele><time>2026-05-03T15:46:58.055Z</time></trkpt><trkpt lat="46.0456826" lon="10.9519645"><ele>250.0</ele><time>2026-05-03T15:47:01.055Z</time></trkpt><trkpt lat="46.0457839" lon="10.9519688"><ele>249.71428571428572</ele><time>2026-05-03T15:47:14.054Z</time></trkpt><trkpt lat="46.0458498" lon="10.9519903"><ele>249.42857142857144</ele><time>2026-05-03T15:47:15.054Z</time></trkpt><trkpt lat="46.045921" lon="10.9520059"><ele>249.14285714285717</ele><time>2026-05-03T15:47:16.054Z</time></trkpt><trkpt lat="46.0459907" lon="10.9520281"><ele>248.85714285714286</ele><time>2026-05-03T15:47:17.054Z</time></trkpt><trkpt lat="46.0460657" lon="10.9520555"><ele>248.5714285714286</ele><time>2026-05-03T15:47:18.054Z</time></trkpt><trkpt lat="46.0461391" lon="10.952076"><ele>248.2857142857143</ele><time>2026-05-03T15:47:19.054Z</time></trkpt><trkpt lat="46.0462147" lon="10.9520984"><ele>248.0</ele><time>2026-05-03T15:47:20.054Z</time></trkpt><trkpt lat="46.0462898" lon="10.9521127"><ele>248.00000000000003</ele><time>2026-05-03T15:47:21.054Z</time></trkpt><trkpt lat="46.0463641" lon="10.9521262"><ele>248.0</ele><time>2026-05-03T15:47:22.054Z</time></trkpt><trkpt lat="46.0464329" lon="10.9521439"><ele>248.0</ele><time>2026-05-03T15:47:23.054Z</time></trkpt><trkpt lat="46.0465475" lon="10.952174"><ele>248.0</ele><time>2026-05-03T15:47:25.054Z</time></trkpt><trkpt lat="46.0466265" lon="10.9522072"><ele>248.00000000000003</ele><time>2026-05-03T15:47:27.054Z</time></trkpt><trkpt lat="46.0466894" lon="10.9522372"><ele>248.0</ele><time>2026-05-03T15:47:33.053Z</time></trkpt><trkpt lat="46.0467521" lon="10.9522507"><ele>248.0</ele><time>2026-05-03T15:47:48.054Z</time></trkpt><trkpt lat="46.0468239" lon="10.9522616"><ele>248.0</ele><time>2026-05-03T15:48:02.053Z</time></trkpt><trkpt lat="46.0468941" lon="10.9522901"><ele>248.0</ele><time>2026-05-03T15:48:06.054Z</time></trkpt><trkpt lat="46.0469614" lon="10.9523103"><ele>248.0</ele><time>2026-05-03T15:48:10.054Z</time></trkpt><trkpt lat="46.0471588" lon="10.9524544"><ele>248.0</ele><time>2026-05-03T15:48:40.053Z</time></trkpt><trkpt lat="46.047217" lon="10.9525456"><ele>248.0</ele><time>2026-05-03T15:48:43.054Z</time></trkpt><trkpt lat="46.0472799" lon="10.9526465"><ele>248.0</ele><time>2026-05-03T15:48:45.054Z</time></trkpt><trkpt lat="46.0473246" lon="10.9527553"><ele>248.0</ele><time>2026-05-03T15:48:47.053Z</time></trkpt><trkpt lat="46.0473664" lon="10.9528631"><ele>248.0</ele><time>2026-05-03T15:48:49.054Z</time></trkpt><trkpt lat="46.0474415" lon="10.9530434"><ele>248.0</ele><time>2026-05-03T15:48:51.054Z</time></trkpt><trkpt lat="46.0475051" lon="10.9531703"><ele>248.0</ele><time>2026-05-03T15:48:52.054Z</time></trkpt><trkpt lat="46.0475884" lon="10.9533098"><ele>248.0</ele><time>2026-05-03T15:48:53.053Z</time></trkpt><trkpt lat="46.0476861" lon="10.9534651"><ele>248.0</ele><time>2026-05-03T15:48:54.054Z</time></trkpt><trkpt lat="46.0477882" lon="10.9536188"><ele>248.0</ele><time>2026-05-03T15:48:55.054Z</time></trkpt><trkpt lat="46.0478906" lon="10.9537709"><ele>248.0</ele><time>2026-05-03T15:48:56.054Z</time></trkpt><trkpt lat="46.0479857" lon="10.9539239"><ele>248.0</ele><time>2026-05-03T15:48:57.054Z</time></trkpt><trkpt lat="46.0480699" lon="10.9540657"><ele>248.0</ele><time>2026-05-03T15:48:58.053Z</time></trkpt><trkpt lat="46.0481481" lon="10.9542001"><ele>248.0</ele><time>2026-05-03T15:48:59.053Z</time></trkpt><trkpt lat="46.0482225" lon="10.9543195"><ele>248.0</ele><time>2026-05-03T15:49:00.054Z</time></trkpt><trkpt lat="46.0482837" lon="10.9544222"><ele>248.0</ele><time>2026-05-03T15:49:01.053Z</time></trkpt><trkpt lat="46.0483432" lon="10.9545307"><ele>248.0</ele><time>2026-05-03T15:49:02.053Z</time></trkpt><trkpt lat="46.0484067" lon="10.9546331"><ele>248.0</ele><time>2026-05-03T15:49:03.053Z</time></trkpt><trkpt lat="46.0484724" lon="10.9547392"><ele>248.0</ele><time>2026-05-03T15:49:04.054Z</time></trkpt><trkpt lat="46.0485447" lon="10.9548533"><ele>248.2</ele><time>2026-05-03T15:49:05.054Z</time></trkpt><trkpt lat="46.0486185" lon="10.9549693"><ele>248.4</ele><time>2026-05-03T15:49:06.054Z</time></trkpt><trkpt lat="46.0486962" lon="10.9550893"><ele>248.59999999999997</ele><time>2026-05-03T15:49:07.054Z</time></trkpt><trkpt lat="46.0487727" lon="10.9552074"><ele>248.79999999999998</ele><time>2026-05-03T15:49:08.053Z</time></trkpt><trkpt lat="46.0488449" lon="10.9553211"><ele>249.0</ele><time>2026-05-03T15:49:09.053Z</time></trkpt><trkpt lat="46.0489208" lon="10.9554409"><ele>248.6</ele><time>2026-05-03T15:49:10.054Z</time></trkpt><trkpt lat="46.0489956" lon="10.9555542"><ele>248.2</ele><time>2026-05-03T15:49:11.054Z</time></trkpt><trkpt lat="46.0490671" lon="10.9556591"><ele>247.79999999999998</ele><time>2026-05-03T15:49:12.054Z</time></trkpt><trkpt lat="46.0491332" lon="10.955774"><ele>247.39999999999998</ele><time>2026-05-03T15:49:13.054Z</time></trkpt><trkpt lat="46.0492016" lon="10.9558898"><ele>247.0</ele><time>2026-05-03T15:49:14.054Z</time></trkpt><trkpt lat="46.0492714" lon="10.9560012"><ele>246.6</ele><time>2026-05-03T15:49:15.054Z</time></trkpt><trkpt lat="46.0493383" lon="10.9561019"><ele>246.2</ele><time>2026-05-03T15:49:16.054Z</time></trkpt><trkpt lat="46.0494064" lon="10.9561974"><ele>245.8</ele><time>2026-05-03T15:49:17.054Z</time></trkpt><trkpt lat="46.0494851" lon="10.9562818"><ele>245.4</ele><time>2026-05-03T15:49:18.053Z</time></trkpt><trkpt lat="46.0495664" lon="10.9563572"><ele>245.0</ele><time>2026-05-03T15:49:19.053Z</time></trkpt><trkpt lat="46.0496497" lon="10.9564391"><ele>245.0</ele><time>2026-05-03T15:49:20.054Z</time></trkpt><trkpt lat="46.0497352" lon="10.9565233"><ele>245.0</ele><time>2026-05-03T15:49:21.053Z</time></trkpt><trkpt lat="46.0498156" lon="10.9566019"><ele>245.0</ele><time>2026-05-03T15:49:22.053Z</time></trkpt><trkpt lat="46.0499007" lon="10.9566809"><ele>245.0</ele><time>2026-05-03T15:49:23.053Z</time></trkpt><trkpt lat="46.049989" lon="10.9567671"><ele>245.0</ele><time>2026-05-03T15:49:24.053Z</time></trkpt><trkpt lat="46.0500803" lon="10.9568569"><ele>245.16666666666669</ele><time>2026-05-03T15:49:25.054Z</time></trkpt><trkpt lat="46.0501461" lon="10.9569413"><ele>245.33333333333334</ele><time>2026-05-03T15:49:26.054Z</time></trkpt><trkpt lat="46.0501934" lon="10.9570104"><ele>245.5</ele><time>2026-05-03T15:49:27.053Z</time></trkpt><trkpt lat="46.0502643" lon="10.9570973"><ele>245.66666666666669</ele><time>2026-05-03T15:49:29.053Z</time></trkpt><trkpt lat="46.0503192" lon="10.9571543"><ele>245.83333333333334</ele><time>2026-05-03T15:49:31.054Z</time></trkpt><trkpt lat="46.0503931" lon="10.9572131"><ele>246.0</ele><time>2026-05-03T15:49:34.054Z</time></trkpt><trkpt lat="46.0504809" lon="10.9572741"><ele>246.0</ele><time>2026-05-03T15:49:36.054Z</time></trkpt><trkpt lat="46.0505369" lon="10.9573246"><ele>246.0</ele><time>2026-05-03T15:49:37.054Z</time></trkpt><trkpt lat="46.0505973" lon="10.9573806"><ele>246.0</ele><time>2026-05-03T15:49:38.054Z</time></trkpt><trkpt lat="46.0506518" lon="10.9574361"><ele>246.0</ele><time>2026-05-03T15:49:39.054Z</time></trkpt><trkpt lat="46.0507076" lon="10.9574988"><ele>246.0</ele><time>2026-05-03T15:49:43.053Z</time></trkpt><trkpt lat="46.0507766" lon="10.9575455"><ele>246.0</ele><time>2026-05-03T15:50:05.054Z</time></trkpt><trkpt lat="46.0508893" lon="10.9576592"><ele>246.16666666666666</ele><time>2026-05-03T15:50:07.053Z</time></trkpt><trkpt lat="46.0509539" lon="10.9577258"><ele>246.33333333333331</ele><time>2026-05-03T15:50:08.054Z</time></trkpt><trkpt lat="46.0510223" lon="10.9577953"><ele>246.5</ele><time>2026-05-03T15:50:09.054Z</time></trkpt><trkpt lat="46.0510907" lon="10.9578618"><ele>246.66666666666666</ele><time>2026-05-03T15:50:10.054Z</time></trkpt><trkpt lat="46.0511567" lon="10.9579279"><ele>246.83333333333331</ele><time>2026-05-03T15:50:11.054Z</time></trkpt><trkpt lat="46.0512158" lon="10.9579857"><ele>247.0</ele><time>2026-05-03T15:50:12.053Z</time></trkpt><trkpt lat="46.0512716" lon="10.958048"><ele>246.99999999999997</ele><time>2026-05-03T15:50:13.053Z</time></trkpt><trkpt lat="46.0513267" lon="10.958104"><ele>247.0</ele><time>2026-05-03T15:50:14.053Z</time></trkpt><trkpt lat="46.0513788" lon="10.958155"><ele>247.0</ele><time>2026-05-03T15:50:15.054Z</time></trkpt><trkpt lat="46.0514332" lon="10.9582008"><ele>247.0</ele><time>2026-05-03T15:50:16.053Z</time></trkpt><trkpt lat="46.051546" lon="10.9582829"><ele>246.99999999999997</ele><time>2026-05-03T15:50:18.054Z</time></trkpt><trkpt lat="46.0516091" lon="10.9583215"><ele>247.0</ele><time>2026-05-03T15:50:19.054Z</time></trkpt><trkpt lat="46.0516895" lon="10.958356"><ele>246.75</ele><time>2026-05-03T15:50:20.054Z</time></trkpt><trkpt lat="46.0517879" lon="10.9583894"><ele>246.5</ele><time>2026-05-03T15:50:21.054Z</time></trkpt><trkpt lat="46.0518963" lon="10.9584217"><ele>246.25</ele><time>2026-05-03T15:50:22.054Z</time></trkpt><trkpt lat="46.0520139" lon="10.9584553"><ele>246.0</ele><time>2026-05-03T15:50:23.054Z</time></trkpt><trkpt lat="46.0521423" lon="10.9584961"><ele>246.0</ele><time>2026-05-03T15:50:24.054Z</time></trkpt><trkpt lat="46.0522768" lon="10.9585404"><ele>246.0</ele><time>2026-05-03T15:50:25.054Z</time></trkpt><trkpt lat="46.0524159" lon="10.9585886"><ele>246.0</ele><time>2026-05-03T15:50:26.054Z</time></trkpt><trkpt lat="46.05256" lon="10.9586331"><ele>246.0</ele><time>2026-05-03T15:50:27.054Z</time></trkpt><trkpt lat="46.052706" lon="10.9586792"><ele>246.5</ele><time>2026-05-03T15:50:28.054Z</time></trkpt><trkpt lat="46.052846" lon="10.9587232"><ele>247.0</ele><time>2026-05-03T15:50:29.054Z</time></trkpt><trkpt lat="46.0529809" lon="10.9587649"><ele>247.5</ele><time>2026-05-03T15:50:30.054Z</time></trkpt><trkpt lat="46.0531039" lon="10.9588102"><ele>248.0</ele><time>2026-05-03T15:50:31.053Z</time></trkpt><trkpt lat="46.0532259" lon="10.9588483"><ele>248.60000000000002</ele><time>2026-05-03T15:50:32.053Z</time></trkpt><trkpt lat="46.0533411" lon="10.9588898"><ele>249.20000000000002</ele><time>2026-05-03T15:50:33.054Z</time></trkpt><trkpt lat="46.0534491" lon="10.9589305"><ele>249.8</ele><time>2026-05-03T15:50:34.054Z</time></trkpt><trkpt lat="46.0535537" lon="10.9589712"><ele>250.4</ele><time>2026-05-03T15:50:35.054Z</time></trkpt><trkpt lat="46.0536555" lon="10.9590035"><ele>251.0</ele><time>2026-05-03T15:50:36.053Z</time></trkpt><trkpt lat="46.0537513" lon="10.9590373"><ele>251.00000000000003</ele><time>2026-05-03T15:50:37.054Z</time></trkpt><trkpt lat="46.0538362" lon="10.9590756"><ele>251.0</ele><time>2026-05-03T15:50:38.053Z</time></trkpt><trkpt lat="46.053904" lon="10.9591317"><ele>251.0</ele><time>2026-05-03T15:50:39.054Z</time></trkpt><trkpt lat="46.053954" lon="10.959188"><ele>251.0</ele><time>2026-05-03T15:50:40.054Z</time></trkpt><trkpt lat="46.054033" lon="10.9592745"><ele>251.00000000000003</ele><time>2026-05-03T15:50:42.054Z</time></trkpt><trkpt lat="46.0540831" lon="10.9593301"><ele>251.0</ele><time>2026-05-03T15:50:43.053Z</time></trkpt><trkpt lat="46.05414" lon="10.9594208"><ele>251.8</ele><time>2026-05-03T15:50:44.054Z</time></trkpt><trkpt lat="46.0542068" lon="10.9595296"><ele>252.60000000000002</ele><time>2026-05-03T15:50:45.053Z</time></trkpt><trkpt lat="46.0542747" lon="10.9596494"><ele>253.4</ele><time>2026-05-03T15:50:46.054Z</time></trkpt><trkpt lat="46.0543336" lon="10.9597689"><ele>254.2</ele><time>2026-05-03T15:50:47.054Z</time></trkpt><trkpt lat="46.0543777" lon="10.9598713"><ele>255.0</ele><time>2026-05-03T15:50:48.053Z</time></trkpt><trkpt lat="46.0544121" lon="10.9599494"><ele>253.0</ele><time>2026-05-03T15:50:49.053Z</time></trkpt><trkpt lat="46.0544573" lon="10.9600648"><ele>251.0</ele><time>2026-05-03T15:50:51.054Z</time></trkpt><trkpt lat="46.0545216" lon="10.9601668"><ele>249.0</ele><time>2026-05-03T15:51:15.054Z</time></trkpt><trkpt lat="46.0545822" lon="10.9602959"><ele>247.0</ele><time>2026-05-03T15:51:17.054Z</time></trkpt><trkpt lat="46.0546261" lon="10.9603943"><ele>245.0</ele><time>2026-05-03T15:51:22.053Z</time></trkpt><trkpt lat="46.0546596" lon="10.9604982"><ele>245.00000000000003</ele><time>2026-05-03T15:51:23.054Z</time></trkpt><trkpt lat="46.0547008" lon="10.9606041"><ele>245.0</ele><time>2026-05-03T15:51:24.053Z</time></trkpt><trkpt lat="46.0547379" lon="10.9607036"><ele>245.0</ele><time>2026-05-03T15:51:25.054Z</time></trkpt><trkpt lat="46.054767" lon="10.9608196"><ele>245.0</ele><time>2026-05-03T15:51:27.053Z</time></trkpt><trkpt lat="46.0548322" lon="10.9609644"><ele>245.00000000000003</ele><time>2026-05-03T15:51:30.054Z</time></trkpt><trkpt lat="46.0548687" lon="10.9610575"><ele>245.0</ele><time>2026-05-03T15:51:31.054Z</time></trkpt><trkpt lat="46.0549087" lon="10.9611945"><ele>245.4</ele><time>2026-05-03T15:51:32.054Z</time></trkpt><trkpt lat="46.0549584" lon="10.9613524"><ele>245.8</ele><time>2026-05-03T15:51:33.054Z</time></trkpt><trkpt lat="46.0550131" lon="10.9615025"><ele>246.2</ele><time>2026-05-03T15:51:34.053Z</time></trkpt><trkpt lat="46.0550564" lon="10.9616308"><ele>246.6</ele><time>2026-05-03T15:51:35.054Z</time></trkpt><trkpt lat="46.0550981" lon="10.9617491"><ele>247.0</ele><time>2026-05-03T15:51:36.054Z</time></trkpt><trkpt lat="46.0551393" lon="10.9618709"><ele>246.99999999999997</ele><time>2026-05-03T15:51:37.054Z</time></trkpt><trkpt lat="46.0551835" lon="10.9620006"><ele>247.0</ele><time>2026-05-03T15:51:38.054Z</time></trkpt><trkpt lat="46.0552252" lon="10.9621225"><ele>247.0</ele><time>2026-05-03T15:51:39.054Z</time></trkpt><trkpt lat="46.0552539" lon="10.9622382"><ele>247.0</ele><time>2026-05-03T15:51:40.054Z</time></trkpt><trkpt lat="46.0552893" lon="10.96233"><ele>246.99999999999997</ele><time>2026-05-03T15:51:41.053Z</time></trkpt><trkpt lat="46.0553351" lon="10.9624214"><ele>247.0</ele><time>2026-05-03T15:51:42.053Z</time></trkpt><trkpt lat="46.0553793" lon="10.962518"><ele>246.33333333333331</ele><time>2026-05-03T15:51:43.054Z</time></trkpt><trkpt lat="46.0554162" lon="10.9626243"><ele>245.66666666666666</ele><time>2026-05-03T15:51:44.054Z</time></trkpt><trkpt lat="46.0554592" lon="10.9627173"><ele>245.0</ele><time>2026-05-03T15:51:45.053Z</time></trkpt><trkpt lat="46.0555049" lon="10.9628015"><ele>244.33333333333331</ele><time>2026-05-03T15:51:46.054Z</time></trkpt><trkpt lat="46.0555576" lon="10.9628891"><ele>243.66666666666666</ele><time>2026-05-03T15:51:47.054Z</time></trkpt><trkpt lat="46.0556178" lon="10.9629966"><ele>243.0</ele><time>2026-05-03T15:51:48.053Z</time></trkpt><trkpt lat="46.0556784" lon="10.963117"><ele>243.0</ele><time>2026-05-03T15:51:49.054Z</time></trkpt><trkpt lat="46.0557438" lon="10.9632328"><ele>243.0</ele><time>2026-05-03T15:51:50.054Z</time></trkpt><trkpt lat="46.0558099" lon="10.9633421"><ele>243.0</ele><time>2026-05-03T15:51:51.054Z</time></trkpt><trkpt lat="46.0558706" lon="10.9634486"><ele>243.0</ele><time>2026-05-03T15:51:52.053Z</time></trkpt><trkpt lat="46.055933" lon="10.9635516"><ele>243.0</ele><time>2026-05-03T15:51:53.054Z</time></trkpt><trkpt lat="46.0559975" lon="10.9636676"><ele>244.2</ele><time>2026-05-03T15:51:54.054Z</time></trkpt><trkpt lat="46.0560631" lon="10.963784"><ele>245.4</ele><time>2026-05-03T15:51:55.054Z</time></trkpt><trkpt lat="46.0561274" lon="10.9639012"><ele>246.59999999999997</ele><time>2026-05-03T15:51:56.054Z</time></trkpt><trkpt lat="46.0561885" lon="10.9640147"><ele>247.79999999999998</ele><time>2026-05-03T15:51:57.054Z</time></trkpt><trkpt lat="46.056246" lon="10.9641199"><ele>249.0</ele><time>2026-05-03T15:51:58.054Z</time></trkpt><trkpt lat="46.0562956" lon="10.9642298"><ele>249.0</ele><time>2026-05-03T15:51:59.054Z</time></trkpt><trkpt lat="46.0563421" lon="10.9643325"><ele>249.0</ele><time>2026-05-03T15:52:00.053Z</time></trkpt><trkpt lat="46.0563843" lon="10.9644396"><ele>249.0</ele><time>2026-05-03T15:52:01.054Z</time></trkpt><trkpt lat="46.056414" lon="10.9645598"><ele>249.0</ele><time>2026-05-03T15:52:02.054Z</time></trkpt><trkpt lat="46.0564252" lon="10.9646892"><ele>249.0</ele><time>2026-05-03T15:52:03.053Z</time></trkpt><trkpt lat="46.0564173" lon="10.9648265"><ele>249.0</ele><time>2026-05-03T15:52:04.054Z</time></trkpt><trkpt lat="46.0564058" lon="10.9649724"><ele>248.6</ele><time>2026-05-03T15:52:05.054Z</time></trkpt><trkpt lat="46.0563953" lon="10.9651236"><ele>248.2</ele><time>2026-05-03T15:52:06.053Z</time></trkpt><trkpt lat="46.0563827" lon="10.9652726"><ele>247.79999999999998</ele><time>2026-05-03T15:52:07.052Z</time></trkpt><trkpt lat="46.0563705" lon="10.9654218"><ele>247.39999999999998</ele><time>2026-05-03T15:52:08.053Z</time></trkpt><trkpt lat="46.056361" lon="10.9655712"><ele>247.0</ele><time>2026-05-03T15:52:09.052Z</time></trkpt><trkpt lat="46.0563552" lon="10.9657109"><ele>246.99999999999997</ele><time>2026-05-03T15:52:10.053Z</time></trkpt><trkpt lat="46.0563446" lon="10.9658391"><ele>247.0</ele><time>2026-05-03T15:52:11.052Z</time></trkpt><trkpt lat="46.0563311" lon="10.9659338"><ele>247.0</ele><time>2026-05-03T15:52:12.053Z</time></trkpt><trkpt lat="46.0563091" lon="10.9660607"><ele>247.0</ele><time>2026-05-03T15:52:14.052Z</time></trkpt><trkpt lat="46.0563109" lon="10.9661542"><ele>246.99999999999997</ele><time>2026-05-03T15:52:17.053Z</time></trkpt><trkpt lat="46.0563178" lon="10.966286"><ele>247.0</ele><time>2026-05-03T15:52:20.052Z</time></trkpt><trkpt lat="46.0563044" lon="10.9663989"><ele>246.8</ele><time>2026-05-03T15:52:22.053Z</time></trkpt><trkpt lat="46.0562903" lon="10.9664906"><ele>246.6</ele><time>2026-05-03T15:52:26.053Z</time></trkpt><trkpt lat="46.0563037" lon="10.9666256"><ele>246.40000000000003</ele><time>2026-05-03T15:52:34.053Z</time></trkpt><trkpt lat="46.0563082" lon="10.9668217"><ele>246.20000000000002</ele><time>2026-05-03T15:52:36.053Z</time></trkpt><trkpt lat="46.0563195" lon="10.9669544"><ele>246.0</ele><time>2026-05-03T15:52:37.053Z</time></trkpt><trkpt lat="46.0563493" lon="10.9671079"><ele>245.33333333333331</ele><time>2026-05-03T15:52:38.052Z</time></trkpt><trkpt lat="46.0564043" lon="10.9672907"><ele>244.66666666666666</ele><time>2026-05-03T15:52:39.053Z</time></trkpt><trkpt lat="46.0564817" lon="10.9674841"><ele>244.0</ele><time>2026-05-03T15:52:40.053Z</time></trkpt><trkpt lat="46.0565718" lon="10.9676831"><ele>244.33333333333331</ele><time>2026-05-03T15:52:41.053Z</time></trkpt><trkpt lat="46.0566746" lon="10.9678811"><ele>244.66666666666669</ele><time>2026-05-03T15:52:42.052Z</time></trkpt><trkpt lat="46.0567713" lon="10.9680759"><ele>245.0</ele><time>2026-05-03T15:52:43.052Z</time></trkpt><trkpt lat="46.0568563" lon="10.96826"><ele>244.33333333333334</ele><time>2026-05-03T15:52:44.053Z</time></trkpt><trkpt lat="46.0569449" lon="10.9684377"><ele>243.66666666666669</ele><time>2026-05-03T15:52:45.053Z</time></trkpt><trkpt lat="46.0570339" lon="10.9686272"><ele>243.0</ele><time>2026-05-03T15:52:46.053Z</time></trkpt><trkpt lat="46.0571222" lon="10.9688227"><ele>243.0</ele><time>2026-05-03T15:52:47.053Z</time></trkpt><trkpt lat="46.0572133" lon="10.9690092"><ele>243.0</ele><time>2026-05-03T15:52:48.053Z</time></trkpt><trkpt lat="46.0573089" lon="10.9691877"><ele>243.0</ele><time>2026-05-03T15:52:49.053Z</time></trkpt><trkpt lat="46.0574078" lon="10.9693528"><ele>244.0</ele><time>2026-05-03T15:52:50.053Z</time></trkpt><trkpt lat="46.0575072" lon="10.9695042"><ele>245.0</ele><time>2026-05-03T15:52:51.053Z</time></trkpt><trkpt lat="46.0576024" lon="10.9696499"><ele>246.0</ele><time>2026-05-03T15:52:52.053Z</time></trkpt><trkpt lat="46.0576939" lon="10.9697912"><ele>247.0</ele><time>2026-05-03T15:52:53.053Z</time></trkpt><trkpt lat="46.0577754" lon="10.9699249"><ele>246.2</ele><time>2026-05-03T15:52:54.053Z</time></trkpt><trkpt lat="46.0578483" lon="10.9700416"><ele>245.39999999999998</ele><time>2026-05-03T15:52:55.053Z</time></trkpt><trkpt lat="46.0579139" lon="10.9701465"><ele>244.60000000000002</ele><time>2026-05-03T15:52:56.053Z</time></trkpt><trkpt lat="46.057975" lon="10.9702448"><ele>243.8</ele><time>2026-05-03T15:52:57.053Z</time></trkpt><trkpt lat="46.0580333" lon="10.970319"><ele>243.0</ele><time>2026-05-03T15:52:58.053Z</time></trkpt><trkpt lat="46.0580827" lon="10.9704009"><ele>243.0</ele><time>2026-05-03T15:52:59.052Z</time></trkpt><trkpt lat="46.0581333" lon="10.9704774"><ele>243.0</ele><time>2026-05-03T15:53:00.052Z</time></trkpt><trkpt lat="46.0581836" lon="10.9705525"><ele>243.0</ele><time>2026-05-03T15:53:01.052Z</time></trkpt><trkpt lat="46.0582294" lon="10.9706292"><ele>243.0</ele><time>2026-05-03T15:53:02.053Z</time></trkpt><trkpt lat="46.0583035" lon="10.9707412"><ele>243.0</ele><time>2026-05-03T15:53:04.053Z</time></trkpt><trkpt lat="46.0583516" lon="10.9708357"><ele>243.0</ele><time>2026-05-03T15:53:06.053Z</time></trkpt><trkpt lat="46.0583884" lon="10.9709273"><ele>244.33333333333334</ele><time>2026-05-03T15:53:08.053Z</time></trkpt><trkpt lat="46.0584161" lon="10.9710092"><ele>245.66666666666669</ele><time>2026-05-03T15:53:10.053Z</time></trkpt><trkpt lat="46.0584519" lon="10.9711228"><ele>247.0</ele><time>2026-05-03T15:53:13.053Z</time></trkpt><trkpt lat="46.0584838" lon="10.9712353"><ele>248.33333333333334</ele><time>2026-05-03T15:53:16.053Z</time></trkpt><trkpt lat="46.0584975" lon="10.9713598"><ele>249.66666666666669</ele><time>2026-05-03T15:53:19.053Z</time></trkpt><trkpt lat="46.0584949" lon="10.9714912"><ele>251.0</ele><time>2026-05-03T15:53:22.052Z</time></trkpt><trkpt lat="46.0584692" lon="10.9716181"><ele>251.50000000000003</ele><time>2026-05-03T15:53:25.053Z</time></trkpt><trkpt lat="46.0584351" lon="10.9717319"><ele>252.0</ele><time>2026-05-03T15:53:28.052Z</time></trkpt><trkpt lat="46.0583872" lon="10.9718365"><ele>252.5</ele><time>2026-05-03T15:53:31.053Z</time></trkpt><trkpt lat="46.0583227" lon="10.9719278"><ele>253.0</ele><time>2026-05-03T15:53:34.053Z</time></trkpt><trkpt lat="46.0582463" lon="10.9720029"><ele>253.50000000000003</ele><time>2026-05-03T15:53:37.052Z</time></trkpt><trkpt lat="46.0581591" lon="10.97205"><ele>254.0</ele><time>2026-05-03T15:53:39.053Z</time></trkpt><trkpt lat="46.0580414" lon="10.9720874"><ele>252.66666666666669</ele><time>2026-05-03T15:53:41.052Z</time></trkpt><trkpt lat="46.0579304" lon="10.9721088"><ele>251.33333333333334</ele><time>2026-05-03T15:53:43.052Z</time></trkpt><trkpt lat="46.0578654" lon="10.9721326"><ele>250.0</ele><time>2026-05-03T15:53:44.053Z</time></trkpt><trkpt lat="46.0577979" lon="10.9721578"><ele>248.66666666666669</ele><time>2026-05-03T15:53:45.052Z</time></trkpt><trkpt lat="46.0577326" lon="10.9722007"><ele>247.33333333333334</ele><time>2026-05-03T15:53:46.052Z</time></trkpt><trkpt lat="46.0576761" lon="10.9722545"><ele>246.0</ele><time>2026-05-03T15:53:47.052Z</time></trkpt><trkpt lat="46.057628" lon="10.9723312"><ele>246.0</ele><time>2026-05-03T15:53:48.053Z</time></trkpt><trkpt lat="46.0575964" lon="10.9724231"><ele>246.0</ele><time>2026-05-03T15:53:49.052Z</time></trkpt><trkpt lat="46.0575808" lon="10.9725148"><ele>246.0</ele><time>2026-05-03T15:53:50.052Z</time></trkpt><trkpt lat="46.0575909" lon="10.9726776"><ele>246.0</ele><time>2026-05-03T15:53:52.052Z</time></trkpt><trkpt lat="46.0576071" lon="10.9727826"><ele>246.0</ele><time>2026-05-03T15:53:53.053Z</time></trkpt><trkpt lat="46.0576271" lon="10.972912"><ele>246.0</ele><time>2026-05-03T15:53:54.053Z</time></trkpt><trkpt lat="46.0576453" lon="10.9730522"><ele>246.0</ele><time>2026-05-03T15:53:55.052Z</time></trkpt><trkpt lat="46.0576649" lon="10.9731952"><ele>246.0</ele><time>2026-05-03T15:53:56.052Z</time></trkpt><trkpt lat="46.057684" lon="10.9733277"><ele>246.0</ele><time>2026-05-03T15:53:57.053Z</time></trkpt><trkpt lat="46.0577032" lon="10.9734564"><ele>246.0</ele><time>2026-05-03T15:53:58.053Z</time></trkpt><trkpt lat="46.0577127" lon="10.9735504"><ele>246.0</ele><time>2026-05-03T15:53:59.053Z</time></trkpt><trkpt lat="46.0577104" lon="10.9736472"><ele>246.0</ele><time>2026-05-03T15:54:01.053Z</time></trkpt><trkpt lat="46.0577593" lon="10.973931"><ele>246.20000000000002</ele><time>2026-05-03T15:54:18.052Z</time></trkpt><trkpt lat="46.0577835" lon="10.9740724"><ele>246.40000000000003</ele><time>2026-05-03T15:54:20.053Z</time></trkpt><trkpt lat="46.0577901" lon="10.974221"><ele>246.6</ele><time>2026-05-03T15:54:22.052Z</time></trkpt><trkpt lat="46.0577956" lon="10.9743172"><ele>246.8</ele><time>2026-05-03T15:54:24.053Z</time></trkpt><trkpt lat="46.0578289" lon="10.9744642"><ele>247.0</ele><time>2026-05-03T15:54:47.053Z</time></trkpt><trkpt lat="46.0578371" lon="10.9746151"><ele>246.99999999999997</ele><time>2026-05-03T15:54:49.052Z</time></trkpt><trkpt lat="46.0578634" lon="10.9747974"><ele>247.0</ele><time>2026-05-03T15:54:51.053Z</time></trkpt><trkpt lat="46.0578804" lon="10.9749121"><ele>247.0</ele><time>2026-05-03T15:54:52.053Z</time></trkpt><trkpt lat="46.0578955" lon="10.9750233"><ele>247.0</ele><time>2026-05-03T15:54:53.053Z</time></trkpt><trkpt lat="46.0579079" lon="10.9751224"><ele>246.99999999999997</ele><time>2026-05-03T15:54:54.053Z</time></trkpt><trkpt lat="46.0579177" lon="10.9752331"><ele>247.0</ele><time>2026-05-03T15:54:55.053Z</time></trkpt><trkpt lat="46.0579338" lon="10.9753263"><ele>247.0</ele><time>2026-05-03T15:54:56.053Z</time></trkpt><trkpt lat="46.057975" lon="10.9754809"><ele>247.0</ele><time>2026-05-03T15:54:58.053Z</time></trkpt><trkpt lat="46.0580232" lon="10.9756002"><ele>247.0</ele><time>2026-05-03T15:55:00.053Z</time></trkpt><trkpt lat="46.0580834" lon="10.9757295"><ele>247.0</ele><time>2026-05-03T15:55:02.053Z</time></trkpt><trkpt lat="46.0581539" lon="10.9758758"><ele>247.0</ele><time>2026-05-03T15:55:04.053Z</time></trkpt><trkpt lat="46.0582191" lon="10.975981"><ele>246.8</ele><time>2026-05-03T15:55:06.052Z</time></trkpt><trkpt lat="46.0582801" lon="10.9760665"><ele>246.6</ele><time>2026-05-03T15:55:09.052Z</time></trkpt><trkpt lat="46.0583618" lon="10.9761966"><ele>246.40000000000003</ele><time>2026-05-03T15:55:11.052Z</time></trkpt><trkpt lat="46.0584303" lon="10.9762739"><ele>246.20000000000002</ele><time>2026-05-03T15:55:12.052Z</time></trkpt><trkpt lat="46.0584932" lon="10.9763555"><ele>246.0</ele><time>2026-05-03T15:55:13.053Z</time></trkpt><trkpt lat="46.0585526" lon="10.9764425"><ele>246.0</ele><time>2026-05-03T15:55:14.053Z</time></trkpt><trkpt lat="46.0586143" lon="10.9765285"><ele>246.00000000000003</ele><time>2026-05-03T15:55:15.053Z</time></trkpt><trkpt lat="46.0586722" lon="10.9766026"><ele>246.00000000000003</ele><time>2026-05-03T15:55:16.052Z</time></trkpt><trkpt lat="46.0587203" lon="10.9766759"><ele>246.0</ele><time>2026-05-03T15:55:17.052Z</time></trkpt><trkpt lat="46.0587967" lon="10.9768092"><ele>246.0</ele><time>2026-05-03T15:55:19.053Z</time></trkpt><trkpt lat="46.0588581" lon="10.9769402"><ele>246.16666666666666</ele><time>2026-05-03T15:55:21.053Z</time></trkpt><trkpt lat="46.0589251" lon="10.9771043"><ele>246.33333333333331</ele><time>2026-05-03T15:55:23.053Z</time></trkpt><trkpt lat="46.0589608" lon="10.977197"><ele>246.5</ele><time>2026-05-03T15:55:24.053Z</time></trkpt><trkpt lat="46.0589894" lon="10.9772823"><ele>246.66666666666666</ele><time>2026-05-03T15:55:25.052Z</time></trkpt><trkpt lat="46.0590152" lon="10.9773771"><ele>246.83333333333331</ele><time>2026-05-03T15:55:26.053Z</time></trkpt><trkpt lat="46.0590307" lon="10.9774817"><ele>247.0</ele><time>2026-05-03T15:55:27.053Z</time></trkpt><trkpt lat="46.0590311" lon="10.9776046"><ele>247.16666666666666</ele><time>2026-05-03T15:55:28.053Z</time></trkpt><trkpt lat="46.0590203" lon="10.9777422"><ele>247.33333333333331</ele><time>2026-05-03T15:55:29.052Z</time></trkpt><trkpt lat="46.0589986" lon="10.9778832"><ele>247.5</ele><time>2026-05-03T15:55:30.053Z</time></trkpt><trkpt lat="46.0589803" lon="10.9780048"><ele>247.66666666666669</ele><time>2026-05-03T15:55:31.052Z</time></trkpt><trkpt lat="46.0589644" lon="10.9781101"><ele>247.83333333333334</ele><time>2026-05-03T15:55:32.053Z</time></trkpt><trkpt lat="46.0589481" lon="10.9782014"><ele>248.0</ele><time>2026-05-03T15:55:33.053Z</time></trkpt><trkpt lat="46.0589261" lon="10.978374"><ele>248.00000000000003</ele><time>2026-05-03T15:55:35.053Z</time></trkpt><trkpt lat="46.0589119" lon="10.9784716"><ele>248.0</ele><time>2026-05-03T15:55:36.052Z</time></trkpt><trkpt lat="46.0589004" lon="10.9785819"><ele>248.0</ele><time>2026-05-03T15:55:37.053Z</time></trkpt><trkpt lat="46.0588847" lon="10.9786955"><ele>248.0</ele><time>2026-05-03T15:55:38.053Z</time></trkpt><trkpt lat="46.0588694" lon="10.9788086"><ele>248.00000000000003</ele><time>2026-05-03T15:55:39.052Z</time></trkpt><trkpt lat="46.0588526" lon="10.9789312"><ele>248.0</ele><time>2026-05-03T15:55:40.053Z</time></trkpt><trkpt lat="46.058834" lon="10.9790503"><ele>248.00000000000003</ele><time>2026-05-03T15:55:41.052Z</time></trkpt><trkpt lat="46.0588161" lon="10.9791659"><ele>248.0</ele><time>2026-05-03T15:55:42.053Z</time></trkpt><trkpt lat="46.058799" lon="10.9792817"><ele>248.0</ele><time>2026-05-03T15:55:43.053Z</time></trkpt><trkpt lat="46.0587826" lon="10.9794062"><ele>248.0</ele><time>2026-05-03T15:55:44.053Z</time></trkpt><trkpt lat="46.0587671" lon="10.9795349"><ele>248.00000000000003</ele><time>2026-05-03T15:55:45.053Z</time></trkpt><trkpt lat="46.0587532" lon="10.9796541"><ele>248.0</ele><time>2026-05-03T15:55:46.052Z</time></trkpt><trkpt lat="46.0587315" lon="10.9797674"><ele>248.33333333333334</ele><time>2026-05-03T15:55:47.053Z</time></trkpt><trkpt lat="46.0587201" lon="10.9798744"><ele>248.66666666666669</ele><time>2026-05-03T15:55:48.052Z</time></trkpt><trkpt lat="46.0587071" lon="10.9799886"><ele>249.0</ele><time>2026-05-03T15:55:49.053Z</time></trkpt><trkpt lat="46.058697" lon="10.9801138"><ele>249.33333333333331</ele><time>2026-05-03T15:55:50.052Z</time></trkpt><trkpt lat="46.0586855" lon="10.9802449"><ele>249.66666666666666</ele><time>2026-05-03T15:55:51.053Z</time></trkpt><trkpt lat="46.0586685" lon="10.98039"><ele>250.0</ele><time>2026-05-03T15:55:52.053Z</time></trkpt><trkpt lat="46.058651" lon="10.9805361"><ele>250.0</ele><time>2026-05-03T15:55:53.053Z</time></trkpt><trkpt lat="46.0586414" lon="10.9806781"><ele>250.0</ele><time>2026-05-03T15:55:54.052Z</time></trkpt><trkpt lat="46.0586429" lon="10.9808291"><ele>250.0</ele><time>2026-05-03T15:55:55.052Z</time></trkpt><trkpt lat="46.0586494" lon="10.9809816"><ele>250.0</ele><time>2026-05-03T15:55:56.052Z</time></trkpt><trkpt lat="46.058665" lon="10.9811377"><ele>250.0</ele><time>2026-05-03T15:55:57.053Z</time></trkpt><trkpt lat="46.0586883" lon="10.9812916"><ele>250.5</ele><time>2026-05-03T15:55:58.053Z</time></trkpt><trkpt lat="46.0587222" lon="10.9814465"><ele>251.0</ele><time>2026-05-03T15:55:59.053Z</time></trkpt><trkpt lat="46.0587583" lon="10.9816027"><ele>251.5</ele><time>2026-05-03T15:56:00.052Z</time></trkpt><trkpt lat="46.0587995" lon="10.9817529"><ele>252.0</ele><time>2026-05-03T15:56:01.053Z</time></trkpt><trkpt lat="46.0588487" lon="10.9819049"><ele>251.39999999999998</ele><time>2026-05-03T15:56:02.053Z</time></trkpt><trkpt lat="46.0589103" lon="10.9820451"><ele>250.79999999999998</ele><time>2026-05-03T15:56:03.053Z</time></trkpt><trkpt lat="46.0589788" lon="10.9821763"><ele>250.2</ele><time>2026-05-03T15:56:04.053Z</time></trkpt><trkpt lat="46.0590512" lon="10.9822974"><ele>249.6</ele><time>2026-05-03T15:56:05.053Z</time></trkpt><trkpt lat="46.0591256" lon="10.9824087"><ele>249.0</ele><time>2026-05-03T15:56:06.053Z</time></trkpt><trkpt lat="46.0592001" lon="10.9825176"><ele>250.0</ele><time>2026-05-03T15:56:07.053Z</time></trkpt><trkpt lat="46.0592715" lon="10.9826146"><ele>251.0</ele><time>2026-05-03T15:56:08.052Z</time></trkpt><trkpt lat="46.0593361" lon="10.9827069"><ele>252.0</ele><time>2026-05-03T15:56:09.053Z</time></trkpt><trkpt lat="46.0593942" lon="10.9827839"><ele>253.0</ele><time>2026-05-03T15:56:10.052Z</time></trkpt><trkpt lat="46.0594534" lon="10.9828542"><ele>254.0</ele><time>2026-05-03T15:56:11.053Z</time></trkpt><trkpt lat="46.0595056" lon="10.9829245"><ele>255.0</ele><time>2026-05-03T15:56:12.053Z</time></trkpt><trkpt lat="46.059561" lon="10.9829997"><ele>255.0</ele><time>2026-05-03T15:56:13.053Z</time></trkpt><trkpt lat="46.0596233" lon="10.9830781"><ele>255.0</ele><time>2026-05-03T15:56:14.052Z</time></trkpt><trkpt lat="46.0596969" lon="10.9831694"><ele>255.0</ele><time>2026-05-03T15:56:15.053Z</time></trkpt><trkpt lat="46.0597798" lon="10.9832781"><ele>255.0</ele><time>2026-05-03T15:56:16.053Z</time></trkpt><trkpt lat="46.0598799" lon="10.9834028"><ele>255.0</ele><time>2026-05-03T15:56:17.053Z</time></trkpt><trkpt lat="46.0599918" lon="10.983543"><ele>257.0</ele><time>2026-05-03T15:56:18.053Z</time></trkpt><trkpt lat="46.0601077" lon="10.9836906"><ele>259.0</ele><time>2026-05-03T15:56:19.053Z</time></trkpt><trkpt lat="46.0602393" lon="10.9838592"><ele>261.0</ele><time>2026-05-03T15:56:20.052Z</time></trkpt><trkpt lat="46.0603772" lon="10.9840528"><ele>262.3333333333333</ele><time>2026-05-03T15:56:21.053Z</time></trkpt><trkpt lat="46.0605301" lon="10.984255"><ele>263.66666666666663</ele><time>2026-05-03T15:56:22.053Z</time></trkpt><trkpt lat="46.0606897" lon="10.9844548"><ele>265.0</ele><time>2026-05-03T15:56:23.053Z</time></trkpt><trkpt lat="46.0608661" lon="10.9846762"><ele>267.0</ele><time>2026-05-03T15:56:24.053Z</time></trkpt><trkpt lat="46.061052" lon="10.9849079"><ele>269.0</ele><time>2026-05-03T15:56:25.053Z</time></trkpt><trkpt lat="46.0612352" lon="10.9851382"><ele>269.0</ele><time>2026-05-03T15:56:26.053Z</time></trkpt><trkpt lat="46.0614229" lon="10.9853746"><ele>269.0</ele><time>2026-05-03T15:56:27.053Z</time></trkpt><trkpt lat="46.0616039" lon="10.9856173"><ele>269.6666666666667</ele><time>2026-05-03T15:56:28.053Z</time></trkpt><trkpt lat="46.0617695" lon="10.9858497"><ele>270.3333333333333</ele><time>2026-05-03T15:56:29.053Z</time></trkpt><trkpt lat="46.0619081" lon="10.9860633"><ele>271.0</ele><time>2026-05-03T15:56:30.052Z</time></trkpt><trkpt lat="46.0620255" lon="10.9862689"><ele>271.0</ele><time>2026-05-03T15:56:31.052Z</time></trkpt><trkpt lat="46.0621294" lon="10.9864524"><ele>271.0</ele><time>2026-05-03T15:56:32.052Z</time></trkpt><trkpt lat="46.0622292" lon="10.9866431"><ele>271.0</ele><time>2026-05-03T15:56:33.052Z</time></trkpt><trkpt lat="46.0623273" lon="10.9868301"><ele>272.66666666666663</ele><time>2026-05-03T15:56:34.053Z</time></trkpt><trkpt lat="46.0624315" lon="10.9870282"><ele>274.3333333333333</ele><time>2026-05-03T15:56:35.053Z</time></trkpt><trkpt lat="46.0625307" lon="10.9872466"><ele>276.0</ele><time>2026-05-03T15:56:36.053Z</time></trkpt><trkpt lat="46.0626257" lon="10.9874509"><ele>279.6666666666667</ele><time>2026-05-03T15:56:37.053Z</time></trkpt><trkpt lat="46.0627204" lon="10.9876343"><ele>283.33333333333337</ele><time>2026-05-03T15:56:38.053Z</time></trkpt><trkpt lat="46.0628249" lon="10.987807"><ele>287.0</ele><time>2026-05-03T15:56:39.052Z</time></trkpt><trkpt lat="46.0629349" lon="10.9879425"><ele>287.0</ele><time>2026-05-03T15:56:40.052Z</time></trkpt><trkpt lat="46.0630558" lon="10.9880624"><ele>287.0</ele><time>2026-05-03T15:56:41.052Z</time></trkpt><trkpt lat="46.0631904" lon="10.9881647"><ele>287.0</ele><time>2026-05-03T15:56:42.052Z</time></trkpt><trkpt lat="46.0633299" lon="10.9882591"><ele>293.0</ele><time>2026-05-03T15:56:43.051Z</time></trkpt><trkpt lat="46.0634717" lon="10.9883549"><ele>299.0</ele><time>2026-05-03T15:56:44.052Z</time></trkpt><trkpt lat="46.06361" lon="10.9884415"><ele>305.0</ele><time>2026-05-03T15:56:45.052Z</time></trkpt><trkpt lat="46.0637484" lon="10.9885339"><ele>305.0</ele><time>2026-05-03T15:56:46.051Z</time></trkpt><trkpt lat="46.0638848" lon="10.9886234"><ele>305.0</ele><time>2026-05-03T15:56:47.051Z</time></trkpt><trkpt lat="46.0640104" lon="10.9887114"><ele>305.0</ele><time>2026-05-03T15:56:48.051Z</time></trkpt><trkpt lat="46.0641343" lon="10.9888024"><ele>305.0</ele><time>2026-05-03T15:56:49.052Z</time></trkpt><trkpt lat="46.0642585" lon="10.9888844"><ele>306.5</ele><time>2026-05-03T15:56:50.051Z</time></trkpt><trkpt lat="46.0643757" lon="10.988959"><ele>308.0</ele><time>2026-05-03T15:56:51.051Z</time></trkpt><trkpt lat="46.0644929" lon="10.989036"><ele>309.5</ele><time>2026-05-03T15:56:52.052Z</time></trkpt><trkpt lat="46.0646057" lon="10.9891144"><ele>311.0</ele><time>2026-05-03T15:56:53.051Z</time></trkpt><trkpt lat="46.0647154" lon="10.9891993"><ele>311.0</ele><time>2026-05-03T15:56:54.051Z</time></trkpt><trkpt lat="46.0648301" lon="10.9892738"><ele>311.0</ele><time>2026-05-03T15:56:55.052Z</time></trkpt><trkpt lat="46.0649416" lon="10.9893511"><ele>311.0</ele><time>2026-05-03T15:56:56.051Z</time></trkpt><trkpt lat="46.0650514" lon="10.9894223"><ele>311.0</ele><time>2026-05-03T15:56:57.052Z</time></trkpt><trkpt lat="46.0651647" lon="10.9894873"><ele>306.75</ele><time>2026-05-03T15:56:58.052Z</time></trkpt><trkpt lat="46.0652918" lon="10.989549"><ele>302.5</ele><time>2026-05-03T15:56:59.051Z</time></trkpt><trkpt lat="46.0654257" lon="10.9896051"><ele>298.25</ele><time>2026-05-03T15:57:00.052Z</time></trkpt><trkpt lat="46.0655691" lon="10.9896536"><ele>294.0</ele><time>2026-05-03T15:57:01.051Z</time></trkpt><trkpt lat="46.0657089" lon="10.9896867"><ele>293.4</ele><time>2026-05-03T15:57:02.052Z</time></trkpt><trkpt lat="46.0658265" lon="10.989718"><ele>292.79999999999995</ele><time>2026-05-03T15:57:03.052Z</time></trkpt><trkpt lat="46.0659244" lon="10.9897442"><ele>292.20000000000005</ele><time>2026-05-03T15:57:04.052Z</time></trkpt><trkpt lat="46.0660003" lon="10.9897726"><ele>291.6</ele><time>2026-05-03T15:57:05.052Z</time></trkpt><trkpt lat="46.0660953" lon="10.9897858"><ele>291.0</ele><time>2026-05-03T15:57:07.052Z</time></trkpt><trkpt lat="46.0661648" lon="10.9898037"><ele>291.0</ele><time>2026-05-03T15:57:10.051Z</time></trkpt><trkpt lat="46.0662327" lon="10.9898233"><ele>291.0</ele><time>2026-05-03T15:57:13.052Z</time></trkpt><trkpt lat="46.0663167" lon="10.9898499"><ele>291.0</ele><time>2026-05-03T15:57:16.051Z</time></trkpt><trkpt lat="46.066393" lon="10.9898821"><ele>291.0</ele><time>2026-05-03T15:57:19.052Z</time></trkpt><trkpt lat="46.0664819" lon="10.9899265"><ele>291.0</ele><time>2026-05-03T15:57:22.052Z</time></trkpt><trkpt lat="46.0665618" lon="10.9899636"><ele>291.0</ele><time>2026-05-03T15:57:24.051Z</time></trkpt><trkpt lat="46.0666769" lon="10.9900217"><ele>292.2</ele><time>2026-05-03T15:57:26.051Z</time></trkpt><trkpt lat="46.0667503" lon="10.9900632"><ele>293.40000000000003</ele><time>2026-05-03T15:57:27.052Z</time></trkpt><trkpt lat="46.0668331" lon="10.9901053"><ele>294.6</ele><time>2026-05-03T15:57:28.052Z</time></trkpt><trkpt lat="46.0669197" lon="10.9901686"><ele>295.8</ele><time>2026-05-03T15:57:29.051Z</time></trkpt><trkpt lat="46.0670064" lon="10.9902383"><ele>297.0</ele><time>2026-05-03T15:57:30.052Z</time></trkpt><trkpt lat="46.0671018" lon="10.9903022"><ele>297.0</ele><time>2026-05-03T15:57:31.052Z</time></trkpt><trkpt lat="46.0672059" lon="10.9903622"><ele>297.0</ele><time>2026-05-03T15:57:32.052Z</time></trkpt><trkpt lat="46.0673143" lon="10.9904338"><ele>297.0</ele><time>2026-05-03T15:57:33.052Z</time></trkpt><trkpt lat="46.0674218" lon="10.9905066"><ele>297.0</ele><time>2026-05-03T15:57:34.052Z</time></trkpt><trkpt lat="46.067531" lon="10.9905858"><ele>298.5</ele><time>2026-05-03T15:57:35.052Z</time></trkpt><trkpt lat="46.0676391" lon="10.990663"><ele>300.0</ele><time>2026-05-03T15:57:36.052Z</time></trkpt><trkpt lat="46.0677472" lon="10.9907331"><ele>301.5</ele><time>2026-05-03T15:57:37.052Z</time></trkpt><trkpt lat="46.0678548" lon="10.9908073"><ele>303.0</ele><time>2026-05-03T15:57:38.051Z</time></trkpt><trkpt lat="46.0679632" lon="10.9908736"><ele>303.0</ele><time>2026-05-03T15:57:39.051Z</time></trkpt><trkpt lat="46.0680693" lon="10.9909388"><ele>303.0</ele><time>2026-05-03T15:57:40.051Z</time></trkpt><trkpt lat="46.0681757" lon="10.9910103"><ele>303.0</ele><time>2026-05-03T15:57:41.051Z</time></trkpt><trkpt lat="46.0682804" lon="10.9910845"><ele>303.0</ele><time>2026-05-03T15:57:42.051Z</time></trkpt><trkpt lat="46.0683852" lon="10.9911618"><ele>305.8</ele><time>2026-05-03T15:57:43.052Z</time></trkpt><trkpt lat="46.0684834" lon="10.9912371"><ele>308.6</ele><time>2026-05-03T15:57:44.051Z</time></trkpt><trkpt lat="46.0685805" lon="10.9913176"><ele>311.4</ele><time>2026-05-03T15:57:45.052Z</time></trkpt><trkpt lat="46.0686759" lon="10.9913919"><ele>314.2</ele><time>2026-05-03T15:57:46.052Z</time></trkpt><trkpt lat="46.0687609" lon="10.9914675"><ele>317.0</ele><time>2026-05-03T15:57:47.052Z</time></trkpt><trkpt lat="46.0688361" lon="10.9915337"><ele>317.0</ele><time>2026-05-03T15:57:48.052Z</time></trkpt><trkpt lat="46.068943" lon="10.9916282"><ele>317.0</ele><time>2026-05-03T15:57:50.052Z</time></trkpt><trkpt lat="46.0690056" lon="10.9916758"><ele>317.0</ele><time>2026-05-03T15:57:51.052Z</time></trkpt><trkpt lat="46.0690739" lon="10.9917423"><ele>317.0</ele><time>2026-05-03T15:57:52.052Z</time></trkpt><trkpt lat="46.0691545" lon="10.9918141"><ele>317.0</ele><time>2026-05-03T15:57:53.052Z</time></trkpt><trkpt lat="46.0692464" lon="10.9918936"><ele>319.4</ele><time>2026-05-03T15:57:54.052Z</time></trkpt><trkpt lat="46.0693397" lon="10.9919785"><ele>321.79999999999995</ele><time>2026-05-03T15:57:55.052Z</time></trkpt><trkpt lat="46.0694339" lon="10.9920656"><ele>324.2</ele><time>2026-05-03T15:57:56.052Z</time></trkpt><trkpt lat="46.0695236" lon="10.9921582"><ele>326.59999999999997</ele><time>2026-05-03T15:57:57.052Z</time></trkpt><trkpt lat="46.06961" lon="10.9922398"><ele>329.0</ele><time>2026-05-03T15:57:58.052Z</time></trkpt><trkpt lat="46.0696839" lon="10.9923099"><ele>329.0</ele><time>2026-05-03T15:57:59.052Z</time></trkpt><trkpt lat="46.0697564" lon="10.9923719"><ele>329.0</ele><time>2026-05-03T15:58:00.052Z</time></trkpt><trkpt lat="46.069829" lon="10.9924352"><ele>329.0</ele><time>2026-05-03T15:58:01.052Z</time></trkpt><trkpt lat="46.0699035" lon="10.9925075"><ele>329.0</ele><time>2026-05-03T15:58:02.052Z</time></trkpt><trkpt lat="46.0699859" lon="10.9925819"><ele>329.0</ele><time>2026-05-03T15:58:03.052Z</time></trkpt><trkpt lat="46.0700721" lon="10.992658"><ele>331.5</ele><time>2026-05-03T15:58:04.052Z</time></trkpt><trkpt lat="46.0701637" lon="10.9927416"><ele>334.0</ele><time>2026-05-03T15:58:05.052Z</time></trkpt><trkpt lat="46.0702593" lon="10.9928218"><ele>336.5</ele><time>2026-05-03T15:58:06.052Z</time></trkpt><trkpt lat="46.070358" lon="10.9929092"><ele>339.0</ele><time>2026-05-03T15:58:07.052Z</time></trkpt><trkpt lat="46.0704618" lon="10.9929854"><ele>339.0</ele><time>2026-05-03T15:58:08.052Z</time></trkpt><trkpt lat="46.0705674" lon="10.9930618"><ele>339.0</ele><time>2026-05-03T15:58:09.051Z</time></trkpt><trkpt lat="46.0706704" lon="10.9931417"><ele>339.0</ele><time>2026-05-03T15:58:10.052Z</time></trkpt><trkpt lat="46.0707672" lon="10.9932164"><ele>339.0</ele><time>2026-05-03T15:58:11.051Z</time></trkpt><trkpt lat="46.0708594" lon="10.9932797"><ele>339.0</ele><time>2026-05-03T15:58:12.052Z</time></trkpt><trkpt lat="46.0709538" lon="10.9933341"><ele>341.79999999999995</ele><time>2026-05-03T15:58:13.052Z</time></trkpt><trkpt lat="46.0710516" lon="10.9933857"><ele>344.59999999999997</ele><time>2026-05-03T15:58:14.051Z</time></trkpt><trkpt lat="46.0711488" lon="10.9934425"><ele>347.4</ele><time>2026-05-03T15:58:15.052Z</time></trkpt><trkpt lat="46.0712495" lon="10.9934948"><ele>350.2</ele><time>2026-05-03T15:58:16.051Z</time></trkpt><trkpt lat="46.0713465" lon="10.9935575"><ele>353.0</ele><time>2026-05-03T15:58:17.052Z</time></trkpt><trkpt lat="46.0714458" lon="10.9936104"><ele>353.0</ele><time>2026-05-03T15:58:18.051Z</time></trkpt><trkpt lat="46.0715375" lon="10.993654"><ele>353.0</ele><time>2026-05-03T15:58:19.052Z</time></trkpt><trkpt lat="46.0716176" lon="10.9937059"><ele>353.0</ele><time>2026-05-03T15:58:20.052Z</time></trkpt><trkpt lat="46.0716852" lon="10.9937433"><ele>353.0</ele><time>2026-05-03T15:58:21.051Z</time></trkpt><trkpt lat="46.0718073" lon="10.9938065"><ele>353.0</ele><time>2026-05-03T15:58:23.052Z</time></trkpt><trkpt lat="46.0718815" lon="10.9938428"><ele>353.79999999999995</ele><time>2026-05-03T15:58:24.052Z</time></trkpt><trkpt lat="46.0719669" lon="10.9938834"><ele>354.6</ele><time>2026-05-03T15:58:25.052Z</time></trkpt><trkpt lat="46.0720601" lon="10.9939331"><ele>355.4</ele><time>2026-05-03T15:58:26.052Z</time></trkpt><trkpt lat="46.0721603" lon="10.9939869"><ele>356.20000000000005</ele><time>2026-05-03T15:58:27.052Z</time></trkpt><trkpt lat="46.0722722" lon="10.9940519"><ele>357.0</ele><time>2026-05-03T15:58:28.05Z</time></trkpt><trkpt lat="46.0723878" lon="10.9941139"><ele>359.5</ele><time>2026-05-03T15:58:29.052Z</time></trkpt><trkpt lat="46.0725133" lon="10.9941825"><ele>362.0</ele><time>2026-05-03T15:58:30.052Z</time></trkpt><trkpt lat="46.0726355" lon="10.9942472"><ele>364.5</ele><time>2026-05-03T15:58:31.052Z</time></trkpt><trkpt lat="46.0727572" lon="10.9943177"><ele>367.0</ele><time>2026-05-03T15:58:32.052Z</time></trkpt><trkpt lat="46.0728702" lon="10.9943823"><ele>367.0</ele><time>2026-05-03T15:58:33.052Z</time></trkpt><trkpt lat="46.0729748" lon="10.9944456"><ele>367.0</ele><time>2026-05-03T15:58:34.051Z</time></trkpt><trkpt lat="46.0730806" lon="10.9945063"><ele>367.0</ele><time>2026-05-03T15:58:35.052Z</time></trkpt><trkpt lat="46.0731933" lon="10.9945664"><ele>367.0</ele><time>2026-05-03T15:58:36.052Z</time></trkpt><trkpt lat="46.0733055" lon="10.9946208"><ele>367.0</ele><time>2026-05-03T15:58:37.052Z</time></trkpt><trkpt lat="46.073414" lon="10.9946871"><ele>367.0</ele><time>2026-05-03T15:58:38.052Z</time></trkpt><trkpt lat="46.0735238" lon="10.994746"><ele>367.0</ele><time>2026-05-03T15:58:39.052Z</time></trkpt><trkpt lat="46.0736266" lon="10.9948035"><ele>367.0</ele><time>2026-05-03T15:58:40.051Z</time></trkpt><trkpt lat="46.0737278" lon="10.9948645"><ele>367.0</ele><time>2026-05-03T15:58:41.052Z</time></trkpt><trkpt lat="46.0738248" lon="10.9949103"><ele>367.0</ele><time>2026-05-03T15:58:42.052Z</time></trkpt><trkpt lat="46.0739155" lon="10.9949585"><ele>367.0</ele><time>2026-05-03T15:58:43.051Z</time></trkpt><trkpt lat="46.0739985" lon="10.9950058"><ele>367.0</ele><time>2026-05-03T15:58:44.051Z</time></trkpt><trkpt lat="46.0740834" lon="10.9950517"><ele>367.0</ele><time>2026-05-03T15:58:45.052Z</time></trkpt><trkpt lat="46.0741725" lon="10.9950969"><ele>367.0</ele><time>2026-05-03T15:58:46.052Z</time></trkpt><trkpt lat="46.0742595" lon="10.9951458"><ele>367.0</ele><time>2026-05-03T15:58:47.052Z</time></trkpt><trkpt lat="46.0743339" lon="10.9951938"><ele>367.0</ele><time>2026-05-03T15:58:48.051Z</time></trkpt><trkpt lat="46.0744066" lon="10.9952434"><ele>367.0</ele><time>2026-05-03T15:58:49.052Z</time></trkpt><trkpt lat="46.0744786" lon="10.9952865"><ele>367.0</ele><time>2026-05-03T15:58:50.052Z</time></trkpt><trkpt lat="46.0745516" lon="10.9953342"><ele>367.0</ele><time>2026-05-03T15:58:51.052Z</time></trkpt><trkpt lat="46.0746277" lon="10.9953818"><ele>367.0</ele><time>2026-05-03T15:58:52.052Z</time></trkpt><trkpt lat="46.0747097" lon="10.9954433"><ele>367.0</ele><time>2026-05-03T15:58:53.052Z</time></trkpt><trkpt lat="46.0747965" lon="10.9955109"><ele>367.0</ele><time>2026-05-03T15:58:54.051Z</time></trkpt><trkpt lat="46.0748932" lon="10.9955878"><ele>367.0</ele><time>2026-05-03T15:58:55.052Z</time></trkpt><trkpt lat="46.0749952" lon="10.995674"><ele>367.0</ele><time>2026-05-03T15:58:56.052Z</time></trkpt><trkpt lat="46.0750999" lon="10.9957591"><ele>367.25</ele><time>2026-05-03T15:58:57.052Z</time></trkpt><trkpt lat="46.0752149" lon="10.9958542"><ele>367.5</ele><time>2026-05-03T15:58:58.051Z</time></trkpt><trkpt lat="46.0753343" lon="10.9959547"><ele>367.75</ele><time>2026-05-03T15:58:59.052Z</time></trkpt><trkpt lat="46.075462" lon="10.9960521"><ele>368.0</ele><time>2026-05-03T15:59:00.052Z</time></trkpt><trkpt lat="46.0755911" lon="10.9961557"><ele>368.0</ele><time>2026-05-03T15:59:01.052Z</time></trkpt><trkpt lat="46.0757202" lon="10.9962694"><ele>368.0</ele><time>2026-05-03T15:59:02.051Z</time></trkpt><trkpt lat="46.0758517" lon="10.9963875"><ele>368.0</ele><time>2026-05-03T15:59:03.051Z</time></trkpt><trkpt lat="46.0759862" lon="10.9965043"><ele>368.33333333333337</ele><time>2026-05-03T15:59:04.052Z</time></trkpt><trkpt lat="46.0761236" lon="10.9966136"><ele>368.6666666666667</ele><time>2026-05-03T15:59:05.051Z</time></trkpt><trkpt lat="46.076267" lon="10.9967191"><ele>369.0</ele><time>2026-05-03T15:59:06.052Z</time></trkpt><trkpt lat="46.0764166" lon="10.9968212"><ele>370.0</ele><time>2026-05-03T15:59:07.052Z</time></trkpt><trkpt lat="46.0765706" lon="10.9969291"><ele>371.0</ele><time>2026-05-03T15:59:08.052Z</time></trkpt><trkpt lat="46.0767203" lon="10.9970426"><ele>372.0</ele><time>2026-05-03T15:59:09.051Z</time></trkpt><trkpt lat="46.0768674" lon="10.9971534"><ele>372.6666666666667</ele><time>2026-05-03T15:59:10.052Z</time></trkpt><trkpt lat="46.0770143" lon="10.9972655"><ele>373.33333333333337</ele><time>2026-05-03T15:59:11.052Z</time></trkpt><trkpt lat="46.0771562" lon="10.9973781"><ele>374.0</ele><time>2026-05-03T15:59:12.052Z</time></trkpt><trkpt lat="46.0772962" lon="10.9974894"><ele>374.0</ele><time>2026-05-03T15:59:13.052Z</time></trkpt><trkpt lat="46.0774284" lon="10.9975958"><ele>374.0</ele><time>2026-05-03T15:59:14.052Z</time></trkpt><trkpt lat="46.0775586" lon="10.9977105"><ele>374.0</ele><time>2026-05-03T15:59:15.052Z</time></trkpt><trkpt lat="46.0776856" lon="10.9978138"><ele>375.5</ele><time>2026-05-03T15:59:16.051Z</time></trkpt><trkpt lat="46.0778145" lon="10.9979134"><ele>377.0</ele><time>2026-05-03T15:59:17.052Z</time></trkpt><trkpt lat="46.0779454" lon="10.9980154"><ele>378.5</ele><time>2026-05-03T15:59:18.052Z</time></trkpt><trkpt lat="46.0780712" lon="10.9981117"><ele>380.0</ele><time>2026-05-03T15:59:19.052Z</time></trkpt><trkpt lat="46.0781949" lon="10.9982092"><ele>380.5</ele><time>2026-05-03T15:59:20.051Z</time></trkpt><trkpt lat="46.0783152" lon="10.9983044"><ele>381.0</ele><time>2026-05-03T15:59:21.051Z</time></trkpt><trkpt lat="46.0784362" lon="10.9984025"><ele>381.5</ele><time>2026-05-03T15:59:22.052Z</time></trkpt><trkpt lat="46.0785588" lon="10.998495"><ele>382.0</ele><time>2026-05-03T15:59:23.051Z</time></trkpt><trkpt lat="46.0786804" lon="10.9985857"><ele>382.25</ele><time>2026-05-03T15:59:24.052Z</time></trkpt><trkpt lat="46.0788071" lon="10.9986843"><ele>382.5</ele><time>2026-05-03T15:59:25.052Z</time></trkpt><trkpt lat="46.0789337" lon="10.9987864"><ele>382.75</ele><time>2026-05-03T15:59:26.052Z</time></trkpt><trkpt lat="46.0790626" lon="10.9988826"><ele>383.0</ele><time>2026-05-03T15:59:27.052Z</time></trkpt><trkpt lat="46.0791832" lon="10.9989702"><ele>383.5</ele><time>2026-05-03T15:59:28.051Z</time></trkpt><trkpt lat="46.0792994" lon="10.9990587"><ele>384.0</ele><time>2026-05-03T15:59:29.051Z</time></trkpt><trkpt lat="46.0794157" lon="10.9991498"><ele>384.5</ele><time>2026-05-03T15:59:30.052Z</time></trkpt><trkpt lat="46.0795123" lon="10.9992444"><ele>385.0</ele><time>2026-05-03T15:59:31.052Z</time></trkpt><trkpt lat="46.0796331" lon="10.9993342"><ele>385.75</ele><time>2026-05-03T15:59:32.051Z</time></trkpt><trkpt lat="46.0797485" lon="10.9994013"><ele>386.5</ele><time>2026-05-03T15:59:33.052Z</time></trkpt><trkpt lat="46.0798527" lon="10.9994973"><ele>387.25</ele><time>2026-05-03T15:59:34.052Z</time></trkpt><trkpt lat="46.0799445" lon="10.9996007"><ele>388.0</ele><time>2026-05-03T15:59:35.051Z</time></trkpt><trkpt lat="46.0800244" lon="10.999733"><ele>388.75</ele><time>2026-05-03T15:59:36.052Z</time></trkpt><trkpt lat="46.0800902" lon="10.9998849"><ele>389.5</ele><time>2026-05-03T15:59:37.051Z</time></trkpt><trkpt lat="46.0801413" lon="11.0000402"><ele>390.25</ele><time>2026-05-03T15:59:38.051Z</time></trkpt><trkpt lat="46.0801787" lon="11.0002044"><ele>391.0</ele><time>2026-05-03T15:59:39.052Z</time></trkpt><trkpt lat="46.0802019" lon="11.0003744"><ele>391.0</ele><time>2026-05-03T15:59:40.051Z</time></trkpt><trkpt lat="46.0802148" lon="11.0005733"><ele>391.0</ele><time>2026-05-03T15:59:41.052Z</time></trkpt><trkpt lat="46.080219" lon="11.0007745"><ele>391.0</ele><time>2026-05-03T15:59:42.052Z</time></trkpt><trkpt lat="46.0802138" lon="11.0009676"><ele>391.0</ele><time>2026-05-03T15:59:43.052Z</time></trkpt><trkpt lat="46.0802065" lon="11.001152"><ele>391.25</ele><time>2026-05-03T15:59:44.051Z</time></trkpt><trkpt lat="46.0802066" lon="11.0013233"><ele>391.5</ele><time>2026-05-03T15:59:45.052Z</time></trkpt><trkpt lat="46.0802094" lon="11.0015059"><ele>391.75</ele><time>2026-05-03T15:59:46.052Z</time></trkpt><trkpt lat="46.0802176" lon="11.0016885"><ele>392.0</ele><time>2026-05-03T15:59:47.052Z</time></trkpt><trkpt lat="46.0802172" lon="11.0018819"><ele>392.0</ele><time>2026-05-03T15:59:48.051Z</time></trkpt><trkpt lat="46.0802125" lon="11.0020668"><ele>392.0</ele><time>2026-05-03T15:59:49.052Z</time></trkpt><trkpt lat="46.0802083" lon="11.0022514"><ele>392.0</ele><time>2026-05-03T15:59:50.052Z</time></trkpt><trkpt lat="46.0802037" lon="11.0024359"><ele>392.0</ele><time>2026-05-03T15:59:51.052Z</time></trkpt><trkpt lat="46.0800271" lon="11.0026507"><ele>393.75</ele><time>2026-05-03T15:59:53.052Z</time></trkpt><trkpt lat="46.079882" lon="11.0027295"><ele>395.5</ele><time>2026-05-03T15:59:54.052Z</time></trkpt><trkpt lat="46.0797362" lon="11.0027721"><ele>397.25</ele><time>2026-05-03T15:59:55.052Z</time></trkpt><trkpt lat="46.0796051" lon="11.00278"><ele>399.0</ele><time>2026-05-03T15:59:56.052Z</time></trkpt><trkpt lat="46.0794822" lon="11.0027694"><ele>399.0</ele><time>2026-05-03T15:59:57.052Z</time></trkpt><trkpt lat="46.0793334" lon="11.0027497"><ele>399.0</ele><time>2026-05-03T15:59:58.052Z</time></trkpt><trkpt lat="46.0791705" lon="11.0027089"><ele>399.0</ele><time>2026-05-03T15:59:59.052Z</time></trkpt><trkpt lat="46.0789793" lon="11.0026728"><ele>399.33333333333337</ele><time>2026-05-03T16:00:00.052Z</time></trkpt><trkpt lat="46.0788001" lon="11.0026318"><ele>399.6666666666667</ele><time>2026-05-03T16:00:01.052Z</time></trkpt><trkpt lat="46.0786207" lon="11.0026013"><ele>400.0</ele><time>2026-05-03T16:00:02.051Z</time></trkpt><trkpt lat="46.0784387" lon="11.0026109"><ele>400.33333333333337</ele><time>2026-05-03T16:00:03.052Z</time></trkpt><trkpt lat="46.078258" lon="11.0026387"><ele>400.66666666666663</ele><time>2026-05-03T16:00:04.051Z</time></trkpt><trkpt lat="46.0780718" lon="11.0026775"><ele>401.0</ele><time>2026-05-03T16:00:05.052Z</time></trkpt><trkpt lat="46.0778931" lon="11.0027284"><ele>401.0</ele><time>2026-05-03T16:00:06.052Z</time></trkpt><trkpt lat="46.0777246" lon="11.0027845"><ele>401.0</ele><time>2026-05-03T16:00:07.052Z</time></trkpt><trkpt lat="46.0775635" lon="11.0028352"><ele>401.0</ele><time>2026-05-03T16:00:08.052Z</time></trkpt><trkpt lat="46.0774071" lon="11.0028841"><ele>403.75</ele><time>2026-05-03T16:00:09.052Z</time></trkpt><trkpt lat="46.0772581" lon="11.0029406"><ele>406.5</ele><time>2026-05-03T16:00:10.051Z</time></trkpt><trkpt lat="46.0771237" lon="11.0030097"><ele>409.25</ele><time>2026-05-03T16:00:11.052Z</time></trkpt><trkpt lat="46.0770013" lon="11.003103"><ele>412.0</ele><time>2026-05-03T16:00:12.052Z</time></trkpt><trkpt lat="46.0768987" lon="11.0032348"><ele>414.5</ele><time>2026-05-03T16:00:13.052Z</time></trkpt><trkpt lat="46.0768148" lon="11.0034043"><ele>417.0</ele><time>2026-05-03T16:00:14.052Z</time></trkpt><trkpt lat="46.0767593" lon="11.0035943"><ele>419.5</ele><time>2026-05-03T16:00:15.051Z</time></trkpt><trkpt lat="46.0767363" lon="11.0038175"><ele>422.0</ele><time>2026-05-03T16:00:16.052Z</time></trkpt><trkpt lat="46.076737" lon="11.004017"><ele>424.3333333333333</ele><time>2026-05-03T16:00:17.051Z</time></trkpt><trkpt lat="46.0767627" lon="11.0042441"><ele>426.66666666666663</ele><time>2026-05-03T16:00:18.052Z</time></trkpt><trkpt lat="46.07683" lon="11.0044558"><ele>429.0</ele><time>2026-05-03T16:00:19.051Z</time></trkpt><trkpt lat="46.0769279" lon="11.0046583"><ele>429.0</ele><time>2026-05-03T16:00:20.052Z</time></trkpt><trkpt lat="46.0770663" lon="11.0048365"><ele>429.0</ele><time>2026-05-03T16:00:21.052Z</time></trkpt><trkpt lat="46.0771985" lon="11.005002"><ele>429.0</ele><time>2026-05-03T16:00:22.052Z</time></trkpt><trkpt lat="46.0773324" lon="11.0051646"><ele>426.33333333333337</ele><time>2026-05-03T16:00:23.052Z</time></trkpt><trkpt lat="46.0774608" lon="11.0053297"><ele>423.6666666666667</ele><time>2026-05-03T16:00:24.052Z</time></trkpt><trkpt lat="46.0775781" lon="11.0054897"><ele>421.0</ele><time>2026-05-03T16:00:25.051Z</time></trkpt><trkpt lat="46.0776941" lon="11.0056302"><ele>421.0</ele><time>2026-05-03T16:00:26.051Z</time></trkpt><trkpt lat="46.0778019" lon="11.0057694"><ele>421.0</ele><time>2026-05-03T16:00:27.051Z</time></trkpt><trkpt lat="46.0778995" lon="11.0059098"><ele>421.0</ele><time>2026-05-03T16:00:28.051Z</time></trkpt><trkpt lat="46.0779917" lon="11.0060656"><ele>421.0</ele><time>2026-05-03T16:00:29.05Z</time></trkpt><trkpt lat="46.0780693" lon="11.006246"><ele>427.33333333333337</ele><time>2026-05-03T16:00:30.051Z</time></trkpt><trkpt lat="46.0781293" lon="11.0064589"><ele>433.66666666666663</ele><time>2026-05-03T16:00:31.051Z</time></trkpt><trkpt lat="46.0781438" lon="11.0067055"><ele>440.0</ele><time>2026-05-03T16:00:32.05Z</time></trkpt><trkpt lat="46.0781432" lon="11.0069648"><ele>443.66666666666663</ele><time>2026-05-03T16:00:33.051Z</time></trkpt><trkpt lat="46.0781261" lon="11.0072214"><ele>447.33333333333337</ele><time>2026-05-03T16:00:34.051Z</time></trkpt><trkpt lat="46.078107" lon="11.0074566"><ele>451.0</ele><time>2026-05-03T16:00:35.051Z</time></trkpt><trkpt lat="46.0780993" lon="11.0076695"><ele>451.5</ele><time>2026-05-03T16:00:36.051Z</time></trkpt><trkpt lat="46.078091" lon="11.0078649"><ele>452.0</ele><time>2026-05-03T16:00:37.051Z</time></trkpt><trkpt lat="46.0780804" lon="11.0080562"><ele>452.5</ele><time>2026-05-03T16:00:38.051Z</time></trkpt><trkpt lat="46.0780706" lon="11.008247"><ele>453.0</ele><time>2026-05-03T16:00:39.051Z</time></trkpt><trkpt lat="46.0780608" lon="11.0084359"><ele>450.75</ele><time>2026-05-03T16:00:40.051Z</time></trkpt><trkpt lat="46.0780492" lon="11.0086269"><ele>448.5</ele><time>2026-05-03T16:00:41.051Z</time></trkpt><trkpt lat="46.0780316" lon="11.0088184"><ele>446.25</ele><time>2026-05-03T16:00:42.051Z</time></trkpt><trkpt lat="46.0780132" lon="11.0089952"><ele>444.0</ele><time>2026-05-03T16:00:43.05Z</time></trkpt><trkpt lat="46.078007" lon="11.0091626"><ele>442.5</ele><time>2026-05-03T16:00:44.051Z</time></trkpt><trkpt lat="46.0779936" lon="11.0093243"><ele>441.0</ele><time>2026-05-03T16:00:45.051Z</time></trkpt><trkpt lat="46.0779669" lon="11.009491"><ele>439.5</ele><time>2026-05-03T16:00:46.051Z</time></trkpt><trkpt lat="46.077919" lon="11.0096459"><ele>438.0</ele><time>2026-05-03T16:00:47.051Z</time></trkpt><trkpt lat="46.0778536" lon="11.0098071"><ele>438.0</ele><time>2026-05-03T16:00:48.051Z</time></trkpt><trkpt lat="46.0777574" lon="11.0099612"><ele>438.0</ele><time>2026-05-03T16:00:49.051Z</time></trkpt><trkpt lat="46.0776459" lon="11.0100832"><ele>438.0</ele><time>2026-05-03T16:00:50.051Z</time></trkpt><trkpt lat="46.0775332" lon="11.0101796"><ele>438.0</ele><time>2026-05-03T16:00:51.051Z</time></trkpt><trkpt lat="46.0774135" lon="11.0102735"><ele>442.5</ele><time>2026-05-03T16:00:52.05Z</time></trkpt><trkpt lat="46.0773" lon="11.0103651"><ele>447.0</ele><time>2026-05-03T16:00:53.051Z</time></trkpt><trkpt lat="46.0771919" lon="11.0104541"><ele>451.5</ele><time>2026-05-03T16:00:54.051Z</time></trkpt><trkpt lat="46.0770878" lon="11.0105338"><ele>456.0</ele><time>2026-05-03T16:00:55.05Z</time></trkpt><trkpt lat="46.0769919" lon="11.010615"><ele>456.0</ele><time>2026-05-03T16:00:56.05Z</time></trkpt><trkpt lat="46.0769031" lon="11.0106876"><ele>456.0</ele><time>2026-05-03T16:00:57.051Z</time></trkpt><trkpt lat="46.0768133" lon="11.0107662"><ele>456.0</ele><time>2026-05-03T16:00:58.051Z</time></trkpt><trkpt lat="46.076716" lon="11.0108591"><ele>456.0</ele><time>2026-05-03T16:00:59.051Z</time></trkpt><trkpt lat="46.0766184" lon="11.0109461"><ele>456.0</ele><time>2026-05-03T16:01:00.05Z</time></trkpt><trkpt lat="46.0765034" lon="11.011031"><ele>460.0</ele><time>2026-05-03T16:01:01.051Z</time></trkpt><trkpt lat="46.0763923" lon="11.0111142"><ele>464.0</ele><time>2026-05-03T16:01:02.051Z</time></trkpt><trkpt lat="46.076284" lon="11.0112152"><ele>468.0</ele><time>2026-05-03T16:01:03.051Z</time></trkpt><trkpt lat="46.0761864" lon="11.0113406"><ele>472.0</ele><time>2026-05-03T16:01:04.051Z</time></trkpt><trkpt lat="46.0760901" lon="11.0114887"><ele>472.0</ele><time>2026-05-03T16:01:05.051Z</time></trkpt><trkpt lat="46.0760056" lon="11.0116556"><ele>472.0</ele><time>2026-05-03T16:01:06.051Z</time></trkpt><trkpt lat="46.0759205" lon="11.0118238"><ele>472.0</ele><time>2026-05-03T16:01:07.051Z</time></trkpt><trkpt lat="46.0758351" lon="11.0119973"><ele>472.0</ele><time>2026-05-03T16:01:08.051Z</time></trkpt><trkpt lat="46.0757533" lon="11.012169"><ele>481.5</ele><time>2026-05-03T16:01:09.051Z</time></trkpt><trkpt lat="46.075681" lon="11.0123289"><ele>491.0</ele><time>2026-05-03T16:01:10.051Z</time></trkpt><trkpt lat="46.0756162" lon="11.0124759"><ele>500.5</ele><time>2026-05-03T16:01:11.05Z</time></trkpt><trkpt lat="46.0755472" lon="11.0126079"><ele>510.0</ele><time>2026-05-03T16:01:12.051Z</time></trkpt><trkpt lat="46.0754996" lon="11.0127439"><ele>510.0</ele><time>2026-05-03T16:01:13.051Z</time></trkpt><trkpt lat="46.0754684" lon="11.0128797"><ele>510.0</ele><time>2026-05-03T16:01:14.051Z</time></trkpt><trkpt lat="46.0754512" lon="11.0130224"><ele>510.0</ele><time>2026-05-03T16:01:15.051Z</time></trkpt><trkpt lat="46.0754441" lon="11.0131899"><ele>510.0</ele><time>2026-05-03T16:01:16.05Z</time></trkpt><trkpt lat="46.0754449" lon="11.0133718"><ele>510.0</ele><time>2026-05-03T16:01:17.051Z</time></trkpt><trkpt lat="46.0754569" lon="11.0135555"><ele>507.75</ele><time>2026-05-03T16:01:18.051Z</time></trkpt><trkpt lat="46.0754735" lon="11.0137503"><ele>505.5</ele><time>2026-05-03T16:01:19.051Z</time></trkpt><trkpt lat="46.0754922" lon="11.0139506"><ele>503.25</ele><time>2026-05-03T16:01:20.05Z</time></trkpt><trkpt lat="46.0755071" lon="11.0141565"><ele>501.0</ele><time>2026-05-03T16:01:21.051Z</time></trkpt><trkpt lat="46.0755224" lon="11.0143534"><ele>500.0</ele><time>2026-05-03T16:01:22.05Z</time></trkpt><trkpt lat="46.0755355" lon="11.0145496"><ele>499.0</ele><time>2026-05-03T16:01:23.051Z</time></trkpt><trkpt lat="46.0755548" lon="11.0147405"><ele>498.0</ele><time>2026-05-03T16:01:24.051Z</time></trkpt><trkpt lat="46.0755704" lon="11.0149315"><ele>497.0</ele><time>2026-05-03T16:01:25.051Z</time></trkpt><trkpt lat="46.0755776" lon="11.0150978"><ele>495.8</ele><time>2026-05-03T16:01:26.051Z</time></trkpt><trkpt lat="46.0755805" lon="11.0152332"><ele>494.6</ele><time>2026-05-03T16:01:27.051Z</time></trkpt><trkpt lat="46.0755827" lon="11.0153495"><ele>493.40000000000003</ele><time>2026-05-03T16:01:28.05Z</time></trkpt><trkpt lat="46.0755877" lon="11.0155163"><ele>492.20000000000005</ele><time>2026-05-03T16:01:30.051Z</time></trkpt><trkpt lat="46.075592" lon="11.0156278"><ele>491.0</ele><time>2026-05-03T16:01:32.05Z</time></trkpt><trkpt lat="46.0756143" lon="11.0157424"><ele>490.99999999999994</ele><time>2026-05-03T16:01:34.051Z</time></trkpt><trkpt lat="46.07564" lon="11.0159192"><ele>491.0</ele><time>2026-05-03T16:01:36.051Z</time></trkpt><trkpt lat="46.0756492" lon="11.0160312"><ele>491.0</ele><time>2026-05-03T16:01:37.051Z</time></trkpt><trkpt lat="46.0756583" lon="11.0161456"><ele>491.0</ele><time>2026-05-03T16:01:38.051Z</time></trkpt><trkpt lat="46.0756605" lon="11.0162368"><ele>490.99999999999994</ele><time>2026-05-03T16:01:39.051Z</time></trkpt><trkpt lat="46.075665" lon="11.016342"><ele>491.0</ele><time>2026-05-03T16:01:41.051Z</time></trkpt><trkpt lat="46.0756766" lon="11.0164548"><ele>490.99999999999994</ele><time>2026-05-03T16:01:44.05Z</time></trkpt><trkpt lat="46.0756907" lon="11.0165662"><ele>491.0</ele><time>2026-05-03T16:01:47.051Z</time></trkpt><trkpt lat="46.0757232" lon="11.0166995"><ele>491.0</ele><time>2026-05-03T16:01:50.051Z</time></trkpt><trkpt lat="46.0757384" lon="11.0168158"><ele>491.0</ele><time>2026-05-03T16:01:52.051Z</time></trkpt><trkpt lat="46.0757648" lon="11.0169095"><ele>490.99999999999994</ele><time>2026-05-03T16:01:54.05Z</time></trkpt><trkpt lat="46.0757887" lon="11.0170245"><ele>491.0</ele><time>2026-05-03T16:01:56.051Z</time></trkpt><trkpt lat="46.0758109" lon="11.0171325"><ele>486.0</ele><time>2026-05-03T16:01:58.051Z</time></trkpt><trkpt lat="46.0758579" lon="11.0172651"><ele>481.0</ele><time>2026-05-03T16:02:00.051Z</time></trkpt><trkpt lat="46.0758868" lon="11.0173825"><ele>476.0</ele><time>2026-05-03T16:02:01.051Z</time></trkpt><trkpt lat="46.0759172" lon="11.0175319"><ele>471.0</ele><time>2026-05-03T16:02:02.051Z</time></trkpt><trkpt lat="46.0759705" lon="11.0176951"><ele>466.0</ele><time>2026-05-03T16:02:03.051Z</time></trkpt><trkpt lat="46.0760236" lon="11.017885"><ele>466.0</ele><time>2026-05-03T16:02:04.05Z</time></trkpt><trkpt lat="46.0760778" lon="11.0180932"><ele>466.0</ele><time>2026-05-03T16:02:05.05Z</time></trkpt><trkpt lat="46.0761334" lon="11.018295"><ele>466.0</ele><time>2026-05-03T16:02:06.05Z</time></trkpt><trkpt lat="46.076187" lon="11.0184908"><ele>467.0</ele><time>2026-05-03T16:02:07.051Z</time></trkpt><trkpt lat="46.0762267" lon="11.018671"><ele>468.0</ele><time>2026-05-03T16:02:08.051Z</time></trkpt><trkpt lat="46.076259" lon="11.0188104"><ele>469.0</ele><time>2026-05-03T16:02:09.051Z</time></trkpt><trkpt lat="46.076287" lon="11.0189404"><ele>470.0</ele><time>2026-05-03T16:02:10.051Z</time></trkpt><trkpt lat="46.0763099" lon="11.0190428"><ele>471.0</ele><time>2026-05-03T16:02:11.051Z</time></trkpt><trkpt lat="46.0763353" lon="11.0191335"><ele>473.20000000000005</ele><time>2026-05-03T16:02:12.051Z</time></trkpt><trkpt lat="46.0763646" lon="11.0192246"><ele>475.40000000000003</ele><time>2026-05-03T16:02:13.051Z</time></trkpt><trkpt lat="46.076397" lon="11.0193428"><ele>477.6</ele><time>2026-05-03T16:02:14.051Z</time></trkpt><trkpt lat="46.0764339" lon="11.0194728"><ele>479.8</ele><time>2026-05-03T16:02:15.051Z</time></trkpt><trkpt lat="46.0764757" lon="11.0196127"><ele>482.0</ele><time>2026-05-03T16:02:16.051Z</time></trkpt><trkpt lat="46.0765221" lon="11.0197676"><ele>482.0</ele><time>2026-05-03T16:02:17.05Z</time></trkpt><trkpt lat="46.0765656" lon="11.019919"><ele>482.00000000000006</ele><time>2026-05-03T16:02:18.051Z</time></trkpt><trkpt lat="46.0766003" lon="11.0200638"><ele>482.00000000000006</ele><time>2026-05-03T16:02:19.051Z</time></trkpt><trkpt lat="46.076633" lon="11.0201941"><ele>482.0</ele><time>2026-05-03T16:02:20.051Z</time></trkpt><trkpt lat="46.0766664" lon="11.0203172"><ele>482.0</ele><time>2026-05-03T16:02:21.051Z</time></trkpt><trkpt lat="46.0766968" lon="11.0204416"><ele>482.8</ele><time>2026-05-03T16:02:22.051Z</time></trkpt><trkpt lat="46.0767261" lon="11.0205746"><ele>483.6</ele><time>2026-05-03T16:02:23.051Z</time></trkpt><trkpt lat="46.0767608" lon="11.0207228"><ele>484.40000000000003</ele><time>2026-05-03T16:02:24.051Z</time></trkpt><trkpt lat="46.0767949" lon="11.0208782"><ele>485.20000000000005</ele><time>2026-05-03T16:02:25.051Z</time></trkpt><trkpt lat="46.0768196" lon="11.0210356"><ele>486.0</ele><time>2026-05-03T16:02:26.051Z</time></trkpt><trkpt lat="46.0768314" lon="11.0212029"><ele>486.0</ele><time>2026-05-03T16:02:27.05Z</time></trkpt><trkpt lat="46.0768316" lon="11.0213646"><ele>486.0</ele><time>2026-05-03T16:02:28.051Z</time></trkpt><trkpt lat="46.0768319" lon="11.0215356"><ele>486.0</ele><time>2026-05-03T16:02:29.051Z</time></trkpt><trkpt lat="46.076825" lon="11.0217245"><ele>486.0</ele><time>2026-05-03T16:02:30.05Z</time></trkpt><trkpt lat="46.0768164" lon="11.0219093"><ele>485.75</ele><time>2026-05-03T16:02:31.05Z</time></trkpt><trkpt lat="46.0767979" lon="11.0220992"><ele>485.5</ele><time>2026-05-03T16:02:32.051Z</time></trkpt><trkpt lat="46.0767609" lon="11.0222759"><ele>485.25</ele><time>2026-05-03T16:02:33.051Z</time></trkpt><trkpt lat="46.0767161" lon="11.0224413"><ele>485.0</ele><time>2026-05-03T16:02:34.05Z</time></trkpt><trkpt lat="46.076675" lon="11.0225897"><ele>485.2</ele><time>2026-05-03T16:02:35.05Z</time></trkpt><trkpt lat="46.0766371" lon="11.0227292"><ele>485.4</ele><time>2026-05-03T16:02:36.051Z</time></trkpt><trkpt lat="46.0765979" lon="11.022855"><ele>485.6</ele><time>2026-05-03T16:02:37.05Z</time></trkpt><trkpt lat="46.0765617" lon="11.022972"><ele>485.8</ele><time>2026-05-03T16:02:38.051Z</time></trkpt><trkpt lat="46.0765307" lon="11.0230859"><ele>486.0</ele><time>2026-05-03T16:02:39.051Z</time></trkpt><trkpt lat="46.0765059" lon="11.0231907"><ele>486.0</ele><time>2026-05-03T16:02:40.051Z</time></trkpt><trkpt lat="46.0764848" lon="11.0232885"><ele>486.0</ele><time>2026-05-03T16:02:41.05Z</time></trkpt><trkpt lat="46.076462" lon="11.0234146"><ele>486.0</ele><time>2026-05-03T16:02:43.051Z</time></trkpt><trkpt lat="46.0764471" lon="11.0235028"><ele>486.0</ele><time>2026-05-03T16:02:45.05Z</time></trkpt><trkpt lat="46.0764429" lon="11.0236047"><ele>486.0</ele><time>2026-05-03T16:02:47.051Z</time></trkpt><trkpt lat="46.0764505" lon="11.023777"><ele>486.0</ele><time>2026-05-03T16:02:49.05Z</time></trkpt><trkpt lat="46.0764582" lon="11.0239265"><ele>487.20000000000005</ele><time>2026-05-03T16:02:51.05Z</time></trkpt><trkpt lat="46.0764631" lon="11.0240674"><ele>488.40000000000003</ele><time>2026-05-03T16:02:53.05Z</time></trkpt><trkpt lat="46.07648" lon="11.024205"><ele>489.6</ele><time>2026-05-03T16:02:55.051Z</time></trkpt><trkpt lat="46.0765018" lon="11.0244082"><ele>490.8</ele><time>2026-05-03T16:02:57.051Z</time></trkpt><trkpt lat="46.0765185" lon="11.0245565"><ele>492.0</ele><time>2026-05-03T16:02:58.051Z</time></trkpt><trkpt lat="46.0765366" lon="11.0247283"><ele>492.5</ele><time>2026-05-03T16:02:59.05Z</time></trkpt><trkpt lat="46.0765498" lon="11.0249089"><ele>493.0</ele><time>2026-05-03T16:03:00.05Z</time></trkpt><trkpt lat="46.0765753" lon="11.0251123"><ele>493.5</ele><time>2026-05-03T16:03:01.051Z</time></trkpt><trkpt lat="46.0765939" lon="11.0253338"><ele>494.0</ele><time>2026-05-03T16:03:02.051Z</time></trkpt><trkpt lat="46.0766094" lon="11.0255612"><ele>491.0</ele><time>2026-05-03T16:03:03.051Z</time></trkpt><trkpt lat="46.0766274" lon="11.025782"><ele>488.0</ele><time>2026-05-03T16:03:04.05Z</time></trkpt><trkpt lat="46.0766368" lon="11.0259843"><ele>485.0</ele><time>2026-05-03T16:03:05.051Z</time></trkpt><trkpt lat="46.0766458" lon="11.0261707"><ele>482.0</ele><time>2026-05-03T16:03:06.051Z</time></trkpt><trkpt lat="46.0766582" lon="11.0263395"><ele>481.8</ele><time>2026-05-03T16:03:07.051Z</time></trkpt><trkpt lat="46.0766743" lon="11.0264992"><ele>481.6</ele><time>2026-05-03T16:03:08.051Z</time></trkpt><trkpt lat="46.0766967" lon="11.0266514"><ele>481.40000000000003</ele><time>2026-05-03T16:03:09.051Z</time></trkpt><trkpt lat="46.0767195" lon="11.0267846"><ele>481.20000000000005</ele><time>2026-05-03T16:03:10.05Z</time></trkpt><trkpt lat="46.0767504" lon="11.0268983"><ele>481.0</ele><time>2026-05-03T16:03:11.05Z</time></trkpt><trkpt lat="46.0767809" lon="11.0269898"><ele>481.50000000000006</ele><time>2026-05-03T16:03:12.051Z</time></trkpt><trkpt lat="46.0768113" lon="11.0270703"><ele>482.0</ele><time>2026-05-03T16:03:13.051Z</time></trkpt><trkpt lat="46.0768635" lon="11.0271748"><ele>482.5</ele><time>2026-05-03T16:03:15.05Z</time></trkpt><trkpt lat="46.0769239" lon="11.0272411"><ele>483.0</ele><time>2026-05-03T16:03:17.051Z</time></trkpt><trkpt lat="46.0769835" lon="11.0273083"><ele>483.50000000000006</ele><time>2026-05-03T16:03:19.051Z</time></trkpt><trkpt lat="46.0770528" lon="11.0273776"><ele>484.0</ele><time>2026-05-03T16:03:21.05Z</time></trkpt><trkpt lat="46.0771364" lon="11.0274477"><ele>484.0</ele><time>2026-05-03T16:03:23.051Z</time></trkpt><trkpt lat="46.0772329" lon="11.0275113"><ele>484.0</ele><time>2026-05-03T16:03:25.051Z</time></trkpt><trkpt lat="46.0773375" lon="11.027557"><ele>484.0</ele><time>2026-05-03T16:03:27.05Z</time></trkpt><trkpt lat="46.0774798" lon="11.0275942"><ele>484.0</ele><time>2026-05-03T16:03:29.051Z</time></trkpt><trkpt lat="46.0775801" lon="11.0276253"><ele>484.00000000000006</ele><time>2026-05-03T16:03:30.051Z</time></trkpt><trkpt lat="46.0776789" lon="11.0276655"><ele>484.0</ele><time>2026-05-03T16:03:31.051Z</time></trkpt><trkpt lat="46.0777649" lon="11.0277057"><ele>484.0</ele><time>2026-05-03T16:03:32.051Z</time></trkpt><trkpt lat="46.0778453" lon="11.0277458"><ele>484.0</ele><time>2026-05-03T16:03:33.051Z</time></trkpt><trkpt lat="46.0779213" lon="11.0277675"><ele>484.00000000000006</ele><time>2026-05-03T16:03:34.05Z</time></trkpt><trkpt lat="46.0779904" lon="11.0277958"><ele>484.0</ele><time>2026-05-03T16:03:35.051Z</time></trkpt><trkpt lat="46.0780565" lon="11.0278184"><ele>484.00000000000006</ele><time>2026-05-03T16:03:36.051Z</time></trkpt><trkpt lat="46.0781779" lon="11.0278636"><ele>484.0</ele><time>2026-05-03T16:03:38.051Z</time></trkpt><trkpt lat="46.0782496" lon="11.0278927"><ele>484.0</ele><time>2026-05-03T16:03:39.051Z</time></trkpt><trkpt lat="46.0783283" lon="11.0279186"><ele>484.0</ele><time>2026-05-03T16:03:40.05Z</time></trkpt><trkpt lat="46.0784046" lon="11.027948"><ele>484.00000000000006</ele><time>2026-05-03T16:03:41.051Z</time></trkpt><trkpt lat="46.0784761" lon="11.0279766"><ele>484.0</ele><time>2026-05-03T16:03:42.051Z</time></trkpt><trkpt lat="46.0785525" lon="11.0280056"><ele>483.4</ele><time>2026-05-03T16:03:43.05Z</time></trkpt><trkpt lat="46.0786305" lon="11.0280351"><ele>482.79999999999995</ele><time>2026-05-03T16:03:44.051Z</time></trkpt><trkpt lat="46.0787178" lon="11.0280697"><ele>482.20000000000005</ele><time>2026-05-03T16:03:45.051Z</time></trkpt><trkpt lat="46.0788076" lon="11.0280981"><ele>481.6</ele><time>2026-05-03T16:03:46.051Z</time></trkpt><trkpt lat="46.078899" lon="11.0281374"><ele>481.0</ele><time>2026-05-03T16:03:47.05Z</time></trkpt><trkpt lat="46.078991" lon="11.0281889"><ele>481.0</ele><time>2026-05-03T16:03:48.05Z</time></trkpt><trkpt lat="46.0790831" lon="11.0282553"><ele>481.0</ele><time>2026-05-03T16:03:49.05Z</time></trkpt><trkpt lat="46.0791653" lon="11.0283509"><ele>481.0</ele><time>2026-05-03T16:03:50.051Z</time></trkpt><trkpt lat="46.0792439" lon="11.0284553"><ele>481.0</ele><time>2026-05-03T16:03:51.051Z</time></trkpt><trkpt lat="46.0793102" lon="11.0285767"><ele>481.0</ele><time>2026-05-03T16:03:52.051Z</time></trkpt><trkpt lat="46.0793673" lon="11.0287215"><ele>483.5</ele><time>2026-05-03T16:03:53.051Z</time></trkpt><trkpt lat="46.0794175" lon="11.0288637"><ele>486.0</ele><time>2026-05-03T16:03:54.051Z</time></trkpt><trkpt lat="46.0794506" lon="11.0290194"><ele>488.5</ele><time>2026-05-03T16:03:55.051Z</time></trkpt><trkpt lat="46.0794615" lon="11.0291814"><ele>491.0</ele><time>2026-05-03T16:03:56.05Z</time></trkpt><trkpt lat="46.0794487" lon="11.0293575"><ele>491.25</ele><time>2026-05-03T16:03:57.051Z</time></trkpt><trkpt lat="46.0794076" lon="11.0295342"><ele>491.5</ele><time>2026-05-03T16:03:58.05Z</time></trkpt><trkpt lat="46.0793496" lon="11.0297226"><ele>491.75</ele><time>2026-05-03T16:03:59.051Z</time></trkpt><trkpt lat="46.0792777" lon="11.0299062"><ele>492.0</ele><time>2026-05-03T16:04:00.05Z</time></trkpt><trkpt lat="46.0791921" lon="11.030084"><ele>493.0</ele><time>2026-05-03T16:04:01.051Z</time></trkpt><trkpt lat="46.07909" lon="11.030267"><ele>494.0</ele><time>2026-05-03T16:04:02.051Z</time></trkpt><trkpt lat="46.0789605" lon="11.0304587"><ele>495.0</ele><time>2026-05-03T16:04:03.051Z</time></trkpt><trkpt lat="46.0788164" lon="11.0306571"><ele>493.66666666666663</ele><time>2026-05-03T16:04:04.051Z</time></trkpt><trkpt lat="46.0786486" lon="11.0308567"><ele>492.3333333333333</ele><time>2026-05-03T16:04:05.051Z</time></trkpt><trkpt lat="46.0784694" lon="11.0310593"><ele>491.0</ele><time>2026-05-03T16:04:06.051Z</time></trkpt><trkpt lat="46.0783009" lon="11.0312634"><ele>492.3333333333333</ele><time>2026-05-03T16:04:07.051Z</time></trkpt><trkpt lat="46.0781438" lon="11.0314643"><ele>493.66666666666663</ele><time>2026-05-03T16:04:08.051Z</time></trkpt><trkpt lat="46.0780018" lon="11.0316422"><ele>495.0</ele><time>2026-05-03T16:04:09.051Z</time></trkpt><trkpt lat="46.0778801" lon="11.0318036"><ele>495.0</ele><time>2026-05-03T16:04:10.05Z</time></trkpt><trkpt lat="46.0777778" lon="11.0319574"><ele>495.0</ele><time>2026-05-03T16:04:11.051Z</time></trkpt><trkpt lat="46.0776861" lon="11.0321263"><ele>495.0</ele><time>2026-05-03T16:04:12.051Z</time></trkpt><trkpt lat="46.0776183" lon="11.0322972"><ele>495.0</ele><time>2026-05-03T16:04:13.05Z</time></trkpt><trkpt lat="46.0775739" lon="11.0324821"><ele>493.66666666666663</ele><time>2026-05-03T16:04:14.05Z</time></trkpt><trkpt lat="46.0775441" lon="11.0326863"><ele>492.3333333333333</ele><time>2026-05-03T16:04:15.051Z</time></trkpt><trkpt lat="46.0775272" lon="11.0329254"><ele>491.0</ele><time>2026-05-03T16:04:16.051Z</time></trkpt><trkpt lat="46.0775086" lon="11.0331607"><ele>490.0</ele><time>2026-05-03T16:04:17.051Z</time></trkpt><trkpt lat="46.0774833" lon="11.0333887"><ele>489.0</ele><time>2026-05-03T16:04:18.051Z</time></trkpt><trkpt lat="46.0774653" lon="11.0336124"><ele>488.0</ele><time>2026-05-03T16:04:19.051Z</time></trkpt><trkpt lat="46.0774499" lon="11.0338341"><ele>490.25</ele><time>2026-05-03T16:04:20.05Z</time></trkpt><trkpt lat="46.07743" lon="11.0340488"><ele>492.5</ele><time>2026-05-03T16:04:21.051Z</time></trkpt><trkpt lat="46.077406" lon="11.0342564"><ele>494.75</ele><time>2026-05-03T16:04:22.051Z</time></trkpt><trkpt lat="46.0773705" lon="11.0344471"><ele>497.0</ele><time>2026-05-03T16:04:23.051Z</time></trkpt><trkpt lat="46.0773285" lon="11.0346125"><ele>497.0</ele><time>2026-05-03T16:04:24.05Z</time></trkpt><trkpt lat="46.0772835" lon="11.0347607"><ele>497.0</ele><time>2026-05-03T16:04:25.051Z</time></trkpt><trkpt lat="46.0772409" lon="11.0349044"><ele>497.0</ele><time>2026-05-03T16:04:26.05Z</time></trkpt><trkpt lat="46.0771982" lon="11.0350634"><ele>497.0</ele><time>2026-05-03T16:04:27.05Z</time></trkpt><trkpt lat="46.0771568" lon="11.0352306"><ele>496.25</ele><time>2026-05-03T16:04:28.051Z</time></trkpt><trkpt lat="46.0771197" lon="11.0354052"><ele>495.5</ele><time>2026-05-03T16:04:29.051Z</time></trkpt><trkpt lat="46.0770923" lon="11.0355867"><ele>494.75</ele><time>2026-05-03T16:04:30.051Z</time></trkpt><trkpt lat="46.0770773" lon="11.0357803"><ele>494.0</ele><time>2026-05-03T16:04:31.051Z</time></trkpt><trkpt lat="46.0770822" lon="11.0359803"><ele>494.0</ele><time>2026-05-03T16:04:32.051Z</time></trkpt><trkpt lat="46.0770955" lon="11.0361875"><ele>494.0</ele><time>2026-05-03T16:04:33.051Z</time></trkpt><trkpt lat="46.0771251" lon="11.0363839"><ele>494.0</ele><time>2026-05-03T16:04:34.05Z</time></trkpt><trkpt lat="46.0771652" lon="11.0365789"><ele>494.0</ele><time>2026-05-03T16:04:35.05Z</time></trkpt><trkpt lat="46.0772276" lon="11.0367739"><ele>496.66666666666663</ele><time>2026-05-03T16:04:36.05Z</time></trkpt><trkpt lat="46.0772998" lon="11.0369619"><ele>499.33333333333337</ele><time>2026-05-03T16:04:37.051Z</time></trkpt><trkpt lat="46.0773807" lon="11.0371501"><ele>502.0</ele><time>2026-05-03T16:04:38.051Z</time></trkpt><trkpt lat="46.0774687" lon="11.0373394"><ele>498.6666666666667</ele><time>2026-05-03T16:04:39.051Z</time></trkpt><trkpt lat="46.0775668" lon="11.0375276"><ele>495.33333333333337</ele><time>2026-05-03T16:04:40.051Z</time></trkpt><trkpt lat="46.0776657" lon="11.0377094"><ele>492.0</ele><time>2026-05-03T16:04:41.05Z</time></trkpt><trkpt lat="46.0777651" lon="11.0378811"><ele>492.0</ele><time>2026-05-03T16:04:42.051Z</time></trkpt><trkpt lat="46.0778617" lon="11.0380461"><ele>492.0</ele><time>2026-05-03T16:04:43.051Z</time></trkpt><trkpt lat="46.0779744" lon="11.0381917"><ele>492.0</ele><time>2026-05-03T16:04:44.051Z</time></trkpt><trkpt lat="46.0780951" lon="11.0383237"><ele>490.25</ele><time>2026-05-03T16:04:45.051Z</time></trkpt><trkpt lat="46.0782155" lon="11.0384447"><ele>488.5</ele><time>2026-05-03T16:04:46.051Z</time></trkpt><trkpt lat="46.0783388" lon="11.0385688"><ele>486.75</ele><time>2026-05-03T16:04:47.05Z</time></trkpt><trkpt lat="46.0784539" lon="11.0386868"><ele>485.0</ele><time>2026-05-03T16:04:48.051Z</time></trkpt><trkpt lat="46.0785672" lon="11.0388046"><ele>485.0</ele><time>2026-05-03T16:04:49.051Z</time></trkpt><trkpt lat="46.0786744" lon="11.0389198"><ele>485.0</ele><time>2026-05-03T16:04:50.051Z</time></trkpt><trkpt lat="46.0787721" lon="11.0390334"><ele>485.0</ele><time>2026-05-03T16:04:51.051Z</time></trkpt><trkpt lat="46.0788684" lon="11.0391591"><ele>485.0</ele><time>2026-05-03T16:04:52.05Z</time></trkpt><trkpt lat="46.0789557" lon="11.0392984"><ele>484.5</ele><time>2026-05-03T16:04:53.051Z</time></trkpt><trkpt lat="46.0790294" lon="11.0394488"><ele>484.0</ele><time>2026-05-03T16:04:54.051Z</time></trkpt><trkpt lat="46.0790976" lon="11.0396033"><ele>483.5</ele><time>2026-05-03T16:04:55.051Z</time></trkpt><trkpt lat="46.0791654" lon="11.039759"><ele>483.0</ele><time>2026-05-03T16:04:56.051Z</time></trkpt><trkpt lat="46.0792282" lon="11.0399143"><ele>485.25</ele><time>2026-05-03T16:04:57.05Z</time></trkpt><trkpt lat="46.0792914" lon="11.0400611"><ele>487.5</ele><time>2026-05-03T16:04:58.05Z</time></trkpt><trkpt lat="46.0793569" lon="11.0402144"><ele>489.75</ele><time>2026-05-03T16:04:59.05Z</time></trkpt><trkpt lat="46.079424" lon="11.0403679"><ele>492.0</ele><time>2026-05-03T16:05:00.051Z</time></trkpt><trkpt lat="46.0794934" lon="11.0405144"><ele>492.0</ele><time>2026-05-03T16:05:01.051Z</time></trkpt><trkpt lat="46.0795582" lon="11.0406604"><ele>492.0</ele><time>2026-05-03T16:05:02.051Z</time></trkpt><trkpt lat="46.0796214" lon="11.0408021"><ele>492.0</ele><time>2026-05-03T16:05:03.051Z</time></trkpt><trkpt lat="46.0796802" lon="11.0409416"><ele>492.0</ele><time>2026-05-03T16:05:04.051Z</time></trkpt><trkpt lat="46.079744" lon="11.0410762"><ele>491.25</ele><time>2026-05-03T16:05:05.05Z</time></trkpt><trkpt lat="46.0798026" lon="11.0412265"><ele>490.5</ele><time>2026-05-03T16:05:06.05Z</time></trkpt><trkpt lat="46.0798631" lon="11.0413707"><ele>489.75</ele><time>2026-05-03T16:05:07.051Z</time></trkpt><trkpt lat="46.0799264" lon="11.0415022"><ele>489.0</ele><time>2026-05-03T16:05:08.051Z</time></trkpt><trkpt lat="46.0799863" lon="11.0416334"><ele>489.0</ele><time>2026-05-03T16:05:09.051Z</time></trkpt><trkpt lat="46.0800458" lon="11.0417645"><ele>489.0</ele><time>2026-05-03T16:05:10.05Z</time></trkpt><trkpt lat="46.0801043" lon="11.0418937"><ele>489.0</ele><time>2026-05-03T16:05:11.05Z</time></trkpt><trkpt lat="46.0801609" lon="11.0420208"><ele>489.0</ele><time>2026-05-03T16:05:12.051Z</time></trkpt><trkpt lat="46.0802148" lon="11.0421428"><ele>489.0</ele><time>2026-05-03T16:05:13.05Z</time></trkpt><trkpt lat="46.0802705" lon="11.0422656"><ele>489.0</ele><time>2026-05-03T16:05:14.051Z</time></trkpt><trkpt lat="46.080325" lon="11.0423887"><ele>489.0</ele><time>2026-05-03T16:05:15.05Z</time></trkpt><trkpt lat="46.0803787" lon="11.0425083"><ele>489.0</ele><time>2026-05-03T16:05:16.05Z</time></trkpt><trkpt lat="46.0804315" lon="11.0426344"><ele>489.0</ele><time>2026-05-03T16:05:17.05Z</time></trkpt><trkpt lat="46.0804861" lon="11.0427614"><ele>489.0</ele><time>2026-05-03T16:05:18.051Z</time></trkpt><trkpt lat="46.0805437" lon="11.0428911"><ele>489.2</ele><time>2026-05-03T16:05:19.051Z</time></trkpt><trkpt lat="46.0806012" lon="11.0430118"><ele>489.4</ele><time>2026-05-03T16:05:20.051Z</time></trkpt><trkpt lat="46.0806554" lon="11.0431399"><ele>489.6</ele><time>2026-05-03T16:05:21.051Z</time></trkpt><trkpt lat="46.0807103" lon="11.0432753"><ele>489.8</ele><time>2026-05-03T16:05:22.05Z</time></trkpt><trkpt lat="46.0807641" lon="11.0434102"><ele>490.0</ele><time>2026-05-03T16:05:23.051Z</time></trkpt><trkpt lat="46.080821" lon="11.0435387"><ele>490.0</ele><time>2026-05-03T16:05:24.051Z</time></trkpt><trkpt lat="46.0808833" lon="11.0436718"><ele>490.0</ele><time>2026-05-03T16:05:25.051Z</time></trkpt><trkpt lat="46.0809455" lon="11.0438118"><ele>490.0</ele><time>2026-05-03T16:05:26.051Z</time></trkpt><trkpt lat="46.0810099" lon="11.0439523"><ele>490.0</ele><time>2026-05-03T16:05:27.051Z</time></trkpt><trkpt lat="46.0810642" lon="11.0441053"><ele>492.25</ele><time>2026-05-03T16:05:28.051Z</time></trkpt><trkpt lat="46.0811061" lon="11.0442652"><ele>494.5</ele><time>2026-05-03T16:05:29.051Z</time></trkpt><trkpt lat="46.0811433" lon="11.0444311"><ele>496.75</ele><time>2026-05-03T16:05:30.051Z</time></trkpt><trkpt lat="46.0811728" lon="11.0446073"><ele>499.0</ele><time>2026-05-03T16:05:31.051Z</time></trkpt><trkpt lat="46.0811975" lon="11.0447933"><ele>502.25</ele><time>2026-05-03T16:05:32.051Z</time></trkpt><trkpt lat="46.0812189" lon="11.0449783"><ele>505.5</ele><time>2026-05-03T16:05:33.05Z</time></trkpt><trkpt lat="46.0812399" lon="11.0451747"><ele>508.75</ele><time>2026-05-03T16:05:34.051Z</time></trkpt><trkpt lat="46.0812617" lon="11.0453699"><ele>512.0</ele><time>2026-05-03T16:05:35.051Z</time></trkpt><trkpt lat="46.0812796" lon="11.0455687"><ele>512.0</ele><time>2026-05-03T16:05:36.051Z</time></trkpt><trkpt lat="46.0812951" lon="11.0457749"><ele>512.0</ele><time>2026-05-03T16:05:37.051Z</time></trkpt><trkpt lat="46.0813144" lon="11.0459851"><ele>512.0</ele><time>2026-05-03T16:05:38.051Z</time></trkpt><trkpt lat="46.0813351" lon="11.0461904"><ele>512.0</ele><time>2026-05-03T16:05:39.051Z</time></trkpt><trkpt lat="46.081355" lon="11.0463902"><ele>512.75</ele><time>2026-05-03T16:05:40.051Z</time></trkpt><trkpt lat="46.0813738" lon="11.0465869"><ele>513.5</ele><time>2026-05-03T16:05:41.051Z</time></trkpt><trkpt lat="46.0813925" lon="11.0467886"><ele>514.25</ele><time>2026-05-03T16:05:42.05Z</time></trkpt><trkpt lat="46.0814103" lon="11.0469926"><ele>515.0</ele><time>2026-05-03T16:05:43.05Z</time></trkpt><trkpt lat="46.0814342" lon="11.0471874"><ele>515.0</ele><time>2026-05-03T16:05:44.051Z</time></trkpt><trkpt lat="46.0814756" lon="11.0473808"><ele>515.0</ele><time>2026-05-03T16:05:45.051Z</time></trkpt><trkpt lat="46.0815303" lon="11.0475657"><ele>515.0</ele><time>2026-05-03T16:05:46.051Z</time></trkpt><trkpt lat="46.0816061" lon="11.0477419"><ele>515.0</ele><time>2026-05-03T16:05:47.05Z</time></trkpt><trkpt lat="46.0816986" lon="11.0479148"><ele>509.3333333333333</ele><time>2026-05-03T16:05:48.05Z</time></trkpt><trkpt lat="46.0817948" lon="11.0480688"><ele>503.66666666666663</ele><time>2026-05-03T16:05:49.051Z</time></trkpt><trkpt lat="46.0819102" lon="11.0482169"><ele>498.0</ele><time>2026-05-03T16:05:50.05Z</time></trkpt><trkpt lat="46.0820302" lon="11.048358"><ele>498.0</ele><time>2026-05-03T16:05:51.05Z</time></trkpt><trkpt lat="46.0821606" lon="11.0484872"><ele>498.0</ele><time>2026-05-03T16:05:52.05Z</time></trkpt><trkpt lat="46.0823038" lon="11.0485993"><ele>498.0</ele><time>2026-05-03T16:05:53.05Z</time></trkpt><trkpt lat="46.0824522" lon="11.0487016"><ele>493.0</ele><time>2026-05-03T16:05:54.05Z</time></trkpt><trkpt lat="46.0825986" lon="11.0487933"><ele>488.0</ele><time>2026-05-03T16:05:55.049Z</time></trkpt><trkpt lat="46.0827457" lon="11.0488832"><ele>483.0</ele><time>2026-05-03T16:05:56.05Z</time></trkpt><trkpt lat="46.08289" lon="11.0489732"><ele>483.0</ele><time>2026-05-03T16:05:57.05Z</time></trkpt><trkpt lat="46.0830322" lon="11.0490661"><ele>483.0</ele><time>2026-05-03T16:05:58.05Z</time></trkpt><trkpt lat="46.0831823" lon="11.0491606"><ele>483.0</ele><time>2026-05-03T16:05:59.05Z</time></trkpt><trkpt lat="46.0833365" lon="11.0492618"><ele>483.0</ele><time>2026-05-03T16:06:00.049Z</time></trkpt><trkpt lat="46.0834829" lon="11.0493724"><ele>483.0</ele><time>2026-05-03T16:06:01.05Z</time></trkpt><trkpt lat="46.0836229" lon="11.049493"><ele>483.0</ele><time>2026-05-03T16:06:02.049Z</time></trkpt><trkpt lat="46.0837587" lon="11.0496248"><ele>483.0</ele><time>2026-05-03T16:06:03.049Z</time></trkpt><trkpt lat="46.0838914" lon="11.049766"><ele>483.0</ele><time>2026-05-03T16:06:04.05Z</time></trkpt><trkpt lat="46.0840109" lon="11.0499067"><ele>483.0</ele><time>2026-05-03T16:06:05.05Z</time></trkpt><trkpt lat="46.0841346" lon="11.0500524"><ele>484.33333333333337</ele><time>2026-05-03T16:06:06.05Z</time></trkpt><trkpt lat="46.0842558" lon="11.0502009"><ele>485.6666666666667</ele><time>2026-05-03T16:06:07.05Z</time></trkpt><trkpt lat="46.0843818" lon="11.0503314"><ele>487.0</ele><time>2026-05-03T16:06:08.049Z</time></trkpt><trkpt lat="46.0845067" lon="11.0504554"><ele>487.0</ele><time>2026-05-03T16:06:09.05Z</time></trkpt><trkpt lat="46.0846418" lon="11.0505674"><ele>487.0</ele><time>2026-05-03T16:06:10.05Z</time></trkpt><trkpt lat="46.084784" lon="11.0506658"><ele>487.0</ele><time>2026-05-03T16:06:11.05Z</time></trkpt><trkpt lat="46.0849266" lon="11.0507521"><ele>488.6666666666667</ele><time>2026-05-03T16:06:12.049Z</time></trkpt><trkpt lat="46.0850757" lon="11.0508328"><ele>490.33333333333337</ele><time>2026-05-03T16:06:13.05Z</time></trkpt><trkpt lat="46.0852256" lon="11.0509082"><ele>492.0</ele><time>2026-05-03T16:06:14.049Z</time></trkpt><trkpt lat="46.0853746" lon="11.0509766"><ele>492.0</ele><time>2026-05-03T16:06:15.05Z</time></trkpt><trkpt lat="46.0855256" lon="11.0510404"><ele>492.0</ele><time>2026-05-03T16:06:16.049Z</time></trkpt><trkpt lat="46.0856673" lon="11.0511054"><ele>492.0</ele><time>2026-05-03T16:06:17.049Z</time></trkpt><trkpt lat="46.0858088" lon="11.0511742"><ele>487.66666666666663</ele><time>2026-05-03T16:06:18.05Z</time></trkpt><trkpt lat="46.0859528" lon="11.0512484"><ele>483.3333333333333</ele><time>2026-05-03T16:06:19.05Z</time></trkpt><trkpt lat="46.0861043" lon="11.0513259"><ele>479.0</ele><time>2026-05-03T16:06:20.05Z</time></trkpt><trkpt lat="46.0862581" lon="11.0513947"><ele>479.0</ele><time>2026-05-03T16:06:21.05Z</time></trkpt><trkpt lat="46.0864036" lon="11.0514637"><ele>479.0</ele><time>2026-05-03T16:06:22.049Z</time></trkpt><trkpt lat="46.0865503" lon="11.0515383"><ele>479.0</ele><time>2026-05-03T16:06:23.05Z</time></trkpt><trkpt lat="46.0866991" lon="11.0516094"><ele>483.3333333333333</ele><time>2026-05-03T16:06:24.05Z</time></trkpt><trkpt lat="46.086851" lon="11.0516753"><ele>487.66666666666663</ele><time>2026-05-03T16:06:25.05Z</time></trkpt><trkpt lat="46.0869981" lon="11.0517484"><ele>492.0</ele><time>2026-05-03T16:06:26.049Z</time></trkpt><trkpt lat="46.0871473" lon="11.0518178"><ele>492.0</ele><time>2026-05-03T16:06:27.05Z</time></trkpt><trkpt lat="46.087298" lon="11.0518875"><ele>492.0</ele><time>2026-05-03T16:06:28.05Z</time></trkpt><trkpt lat="46.0874473" lon="11.051963"><ele>492.0</ele><time>2026-05-03T16:06:29.05Z</time></trkpt><trkpt lat="46.0875988" lon="11.0520393"><ele>488.0</ele><time>2026-05-03T16:06:30.049Z</time></trkpt><trkpt lat="46.087753" lon="11.0521111"><ele>484.0</ele><time>2026-05-03T16:06:31.05Z</time></trkpt><trkpt lat="46.087906" lon="11.0521842"><ele>480.0</ele><time>2026-05-03T16:06:32.05Z</time></trkpt><trkpt lat="46.0880563" lon="11.0522593"><ele>480.0</ele><time>2026-05-03T16:06:33.049Z</time></trkpt><trkpt lat="46.0881989" lon="11.0523278"><ele>480.0</ele><time>2026-05-03T16:06:34.049Z</time></trkpt><trkpt lat="46.0883367" lon="11.0524048"><ele>480.0</ele><time>2026-05-03T16:06:35.05Z</time></trkpt><trkpt lat="46.0884771" lon="11.0524744"><ele>480.0</ele><time>2026-05-03T16:06:36.05Z</time></trkpt><trkpt lat="46.0886205" lon="11.0525476"><ele>484.66666666666663</ele><time>2026-05-03T16:06:37.049Z</time></trkpt><trkpt lat="46.0887615" lon="11.0526167"><ele>489.3333333333333</ele><time>2026-05-03T16:06:38.049Z</time></trkpt><trkpt lat="46.0889087" lon="11.0526855"><ele>494.0</ele><time>2026-05-03T16:06:39.049Z</time></trkpt><trkpt lat="46.0890521" lon="11.0527611"><ele>487.66666666666663</ele><time>2026-05-03T16:06:40.05Z</time></trkpt><trkpt lat="46.0891942" lon="11.0528363"><ele>481.33333333333337</ele><time>2026-05-03T16:06:41.05Z</time></trkpt><trkpt lat="46.0893385" lon="11.05291"><ele>475.0</ele><time>2026-05-03T16:06:42.049Z</time></trkpt><trkpt lat="46.0894824" lon="11.0529783"><ele>475.0</ele><time>2026-05-03T16:06:43.049Z</time></trkpt><trkpt lat="46.0896156" lon="11.0530425"><ele>475.0</ele><time>2026-05-03T16:06:44.05Z</time></trkpt><trkpt lat="46.0897443" lon="11.0531077"><ele>475.0</ele><time>2026-05-03T16:06:45.049Z</time></trkpt><trkpt lat="46.0898658" lon="11.0531762"><ele>475.0</ele><time>2026-05-03T16:06:46.05Z</time></trkpt><trkpt lat="46.0899911" lon="11.0532476"><ele>478.75</ele><time>2026-05-03T16:06:47.049Z</time></trkpt><trkpt lat="46.090109" lon="11.0533414"><ele>482.5</ele><time>2026-05-03T16:06:48.05Z</time></trkpt><trkpt lat="46.0902162" lon="11.0534492"><ele>486.25</ele><time>2026-05-03T16:06:49.049Z</time></trkpt><trkpt lat="46.0903152" lon="11.0535534"><ele>490.0</ele><time>2026-05-03T16:06:50.05Z</time></trkpt><trkpt lat="46.0903937" lon="11.0536449"><ele>490.0</ele><time>2026-05-03T16:06:51.05Z</time></trkpt><trkpt lat="46.0904647" lon="11.0537155"><ele>490.0</ele><time>2026-05-03T16:06:52.049Z</time></trkpt><trkpt lat="46.090523" lon="11.0537676"><ele>490.0</ele><time>2026-05-03T16:06:53.05Z</time></trkpt><trkpt lat="46.0906112" lon="11.0538787"><ele>490.0</ele><time>2026-05-03T16:06:55.049Z</time></trkpt><trkpt lat="46.0906959" lon="11.0539639"><ele>490.0</ele><time>2026-05-03T16:06:57.049Z</time></trkpt><trkpt lat="46.0907927" lon="11.0540578"><ele>491.33333333333337</ele><time>2026-05-03T16:06:59.05Z</time></trkpt><trkpt lat="46.0908959" lon="11.0541738"><ele>492.6666666666667</ele><time>2026-05-03T16:07:01.05Z</time></trkpt><trkpt lat="46.0909532" lon="11.0542404"><ele>494.0</ele><time>2026-05-03T16:07:02.05Z</time></trkpt><trkpt lat="46.0910126" lon="11.0543134"><ele>495.33333333333337</ele><time>2026-05-03T16:07:03.049Z</time></trkpt><trkpt lat="46.0910757" lon="11.0543869"><ele>496.6666666666667</ele><time>2026-05-03T16:07:04.05Z</time></trkpt><trkpt lat="46.0911422" lon="11.0544593"><ele>498.0</ele><time>2026-05-03T16:07:05.05Z</time></trkpt><trkpt lat="46.0912135" lon="11.0545416"><ele>498.0</ele><time>2026-05-03T16:07:06.049Z</time></trkpt><trkpt lat="46.0912854" lon="11.0546338"><ele>497.99999999999994</ele><time>2026-05-03T16:07:07.049Z</time></trkpt><trkpt lat="46.0913522" lon="11.0547229"><ele>497.99999999999994</ele><time>2026-05-03T16:07:08.05Z</time></trkpt><trkpt lat="46.0914141" lon="11.0548237"><ele>498.0</ele><time>2026-05-03T16:07:09.05Z</time></trkpt><trkpt lat="46.091478" lon="11.0549204"><ele>498.0</ele><time>2026-05-03T16:07:10.05Z</time></trkpt><trkpt lat="46.0915345" lon="11.0550177"><ele>496.6666666666667</ele><time>2026-05-03T16:07:11.05Z</time></trkpt><trkpt lat="46.0915861" lon="11.0551062"><ele>495.33333333333337</ele><time>2026-05-03T16:07:12.05Z</time></trkpt><trkpt lat="46.0916331" lon="11.0552021"><ele>494.0</ele><time>2026-05-03T16:07:13.049Z</time></trkpt><trkpt lat="46.0916804" lon="11.0552949"><ele>492.6666666666667</ele><time>2026-05-03T16:07:14.049Z</time></trkpt><trkpt lat="46.0917262" lon="11.0553772"><ele>491.33333333333337</ele><time>2026-05-03T16:07:15.049Z</time></trkpt><trkpt lat="46.0917726" lon="11.0554635"><ele>490.0</ele><time>2026-05-03T16:07:16.049Z</time></trkpt><trkpt lat="46.0918154" lon="11.0555486"><ele>490.00000000000006</ele><time>2026-05-03T16:07:17.049Z</time></trkpt><trkpt lat="46.0918611" lon="11.0556348"><ele>490.0</ele><time>2026-05-03T16:07:18.049Z</time></trkpt><trkpt lat="46.0919062" lon="11.0557133"><ele>490.0</ele><time>2026-05-03T16:07:19.05Z</time></trkpt><trkpt lat="46.0919518" lon="11.0558015"><ele>490.0</ele><time>2026-05-03T16:07:20.05Z</time></trkpt><trkpt lat="46.0919976" lon="11.0558893"><ele>490.00000000000006</ele><time>2026-05-03T16:07:21.049Z</time></trkpt><trkpt lat="46.092051" lon="11.055987"><ele>490.0</ele><time>2026-05-03T16:07:22.049Z</time></trkpt><trkpt lat="46.0921091" lon="11.0560888"><ele>493.4</ele><time>2026-05-03T16:07:23.05Z</time></trkpt><trkpt lat="46.0921669" lon="11.0561919"><ele>496.8</ele><time>2026-05-03T16:07:24.05Z</time></trkpt><trkpt lat="46.092228" lon="11.0562977"><ele>500.20000000000005</ele><time>2026-05-03T16:07:25.05Z</time></trkpt><trkpt lat="46.0922899" lon="11.0564101"><ele>503.6</ele><time>2026-05-03T16:07:26.05Z</time></trkpt><trkpt lat="46.0923496" lon="11.0565227"><ele>507.0</ele><time>2026-05-03T16:07:27.05Z</time></trkpt><trkpt lat="46.0924067" lon="11.0566488"><ele>502.0</ele><time>2026-05-03T16:07:28.05Z</time></trkpt><trkpt lat="46.0924523" lon="11.0567795"><ele>497.00000000000006</ele><time>2026-05-03T16:07:29.049Z</time></trkpt><trkpt lat="46.0924789" lon="11.056918"><ele>492.00000000000006</ele><time>2026-05-03T16:07:30.049Z</time></trkpt><trkpt lat="46.0924949" lon="11.0570591"><ele>487.0</ele><time>2026-05-03T16:07:31.05Z</time></trkpt><trkpt lat="46.0924956" lon="11.0572025"><ele>482.0</ele><time>2026-05-03T16:07:32.05Z</time></trkpt><trkpt lat="46.0924729" lon="11.0573439"><ele>482.0</ele><time>2026-05-03T16:07:33.05Z</time></trkpt><trkpt lat="46.0924353" lon="11.0574798"><ele>482.00000000000006</ele><time>2026-05-03T16:07:34.05Z</time></trkpt><trkpt lat="46.092388" lon="11.0576013"><ele>482.00000000000006</ele><time>2026-05-03T16:07:35.049Z</time></trkpt><trkpt lat="46.0923285" lon="11.0577241"><ele>482.0</ele><time>2026-05-03T16:07:36.05Z</time></trkpt><trkpt lat="46.0922765" lon="11.0578249"><ele>482.0</ele><time>2026-05-03T16:07:37.05Z</time></trkpt><trkpt lat="46.0922235" lon="11.05794"><ele>486.99999999999994</ele><time>2026-05-03T16:07:38.049Z</time></trkpt><trkpt lat="46.0921785" lon="11.0580506"><ele>492.0</ele><time>2026-05-03T16:07:39.05Z</time></trkpt><trkpt lat="46.0921277" lon="11.0581463"><ele>497.0</ele><time>2026-05-03T16:07:40.05Z</time></trkpt><trkpt lat="46.0920838" lon="11.0582465"><ele>502.0</ele><time>2026-05-03T16:07:41.049Z</time></trkpt><trkpt lat="46.0920381" lon="11.0583495"><ele>506.99999999999994</ele><time>2026-05-03T16:07:42.049Z</time></trkpt><trkpt lat="46.0919949" lon="11.0584526"><ele>512.0</ele><time>2026-05-03T16:07:43.05Z</time></trkpt><trkpt lat="46.09195" lon="11.0585547"><ele>511.99999999999994</ele><time>2026-05-03T16:07:44.05Z</time></trkpt><trkpt lat="46.0919058" lon="11.0586613"><ele>512.0</ele><time>2026-05-03T16:07:45.049Z</time></trkpt><trkpt lat="46.0918642" lon="11.0587648"><ele>512.0</ele><time>2026-05-03T16:07:46.049Z</time></trkpt><trkpt lat="46.0918198" lon="11.05887"><ele>512.0</ele><time>2026-05-03T16:07:47.05Z</time></trkpt><trkpt lat="46.0917735" lon="11.0589862"><ele>511.99999999999994</ele><time>2026-05-03T16:07:48.049Z</time></trkpt><trkpt lat="46.091725" lon="11.0591062"><ele>512.0</ele><time>2026-05-03T16:07:49.05Z</time></trkpt><trkpt lat="46.0916737" lon="11.0592342"><ele>509.6</ele><time>2026-05-03T16:07:50.05Z</time></trkpt><trkpt lat="46.0916234" lon="11.0593629"><ele>507.20000000000005</ele><time>2026-05-03T16:07:51.05Z</time></trkpt><trkpt lat="46.0915708" lon="11.059492"><ele>504.8</ele><time>2026-05-03T16:07:52.05Z</time></trkpt><trkpt lat="46.0915155" lon="11.0596289"><ele>502.4</ele><time>2026-05-03T16:07:53.049Z</time></trkpt><trkpt lat="46.091465" lon="11.0597651"><ele>500.0</ele><time>2026-05-03T16:07:54.049Z</time></trkpt><trkpt lat="46.0914144" lon="11.0599024"><ele>505.25</ele><time>2026-05-03T16:07:55.05Z</time></trkpt><trkpt lat="46.0913572" lon="11.060042"><ele>510.5</ele><time>2026-05-03T16:07:56.049Z</time></trkpt><trkpt lat="46.0912932" lon="11.0602093"><ele>515.75</ele><time>2026-05-03T16:07:57.05Z</time></trkpt><trkpt lat="46.0912239" lon="11.0603946"><ele>521.0</ele><time>2026-05-03T16:07:58.05Z</time></trkpt><trkpt lat="46.0911351" lon="11.0605935"><ele>513.0</ele><time>2026-05-03T16:07:59.049Z</time></trkpt><trkpt lat="46.091039" lon="11.0608026"><ele>505.0</ele><time>2026-05-03T16:08:00.049Z</time></trkpt><trkpt lat="46.0909331" lon="11.0610085"><ele>497.0</ele><time>2026-05-03T16:08:01.05Z</time></trkpt><trkpt lat="46.0908339" lon="11.0612141"><ele>498.66666666666663</ele><time>2026-05-03T16:08:02.05Z</time></trkpt><trkpt lat="46.0907311" lon="11.0614284"><ele>500.33333333333337</ele><time>2026-05-03T16:08:03.049Z</time></trkpt><trkpt lat="46.0906208" lon="11.0616668"><ele>502.0</ele><time>2026-05-03T16:08:04.05Z</time></trkpt><trkpt lat="46.09051" lon="11.0619071"><ele>502.0</ele><time>2026-05-03T16:08:05.05Z</time></trkpt><trkpt lat="46.0904006" lon="11.0621419"><ele>502.0</ele><time>2026-05-03T16:08:06.05Z</time></trkpt><trkpt lat="46.0902919" lon="11.0623697"><ele>502.0</ele><time>2026-05-03T16:08:07.05Z</time></trkpt><trkpt lat="46.0901874" lon="11.0626098"><ele>443.0</ele><time>2026-05-03T16:08:08.05Z</time></trkpt><trkpt lat="46.0866462" lon="11.0692402"><ele>440.0</ele><time>2026-05-03T16:08:34.049Z</time></trkpt><trkpt lat="46.0864717" lon="11.0694352"><ele>437.0</ele><time>2026-05-03T16:08:35.05Z</time></trkpt><trkpt lat="46.0862866" lon="11.0696354"><ele>437.0</ele><time>2026-05-03T16:08:36.05Z</time></trkpt><trkpt lat="46.0861112" lon="11.0698174"><ele>437.0</ele><time>2026-05-03T16:08:37.05Z</time></trkpt><trkpt lat="46.0859069" lon="11.0699933"><ele>439.5</ele><time>2026-05-03T16:08:38.049Z</time></trkpt><trkpt lat="46.0857072" lon="11.0701562"><ele>442.0</ele><time>2026-05-03T16:08:39.049Z</time></trkpt><trkpt lat="46.0855063" lon="11.0703031"><ele>442.0</ele><time>2026-05-03T16:08:40.05Z</time></trkpt><trkpt lat="46.0853105" lon="11.0704596"><ele>442.0</ele><time>2026-05-03T16:08:41.05Z</time></trkpt><trkpt lat="46.0851289" lon="11.070622"><ele>442.0</ele><time>2026-05-03T16:08:42.049Z</time></trkpt><trkpt lat="46.084953" lon="11.0708029"><ele>442.33333333333337</ele><time>2026-05-03T16:08:43.05Z</time></trkpt><trkpt lat="46.0847966" lon="11.0709952"><ele>442.66666666666663</ele><time>2026-05-03T16:08:44.05Z</time></trkpt><trkpt lat="46.0846428" lon="11.071205"><ele>443.0</ele><time>2026-05-03T16:08:45.05Z</time></trkpt><trkpt lat="46.0845018" lon="11.0714265"><ele>438.0</ele><time>2026-05-03T16:08:46.05Z</time></trkpt><trkpt lat="46.0843649" lon="11.07166"><ele>433.0</ele><time>2026-05-03T16:08:47.05Z</time></trkpt><trkpt lat="46.0842444" lon="11.0718986"><ele>428.0</ele><time>2026-05-03T16:08:48.049Z</time></trkpt><trkpt lat="46.0841319" lon="11.0721335"><ele>426.0</ele><time>2026-05-03T16:08:49.05Z</time></trkpt><trkpt lat="46.081605" lon="11.0759839"><ele>429.0</ele><time>2026-05-03T16:09:08.05Z</time></trkpt><trkpt lat="46.0815626" lon="11.0762011"><ele>432.0</ele><time>2026-05-03T16:09:09.05Z</time></trkpt><trkpt lat="46.0814849" lon="11.0764587"><ele>435.0</ele><time>2026-05-03T16:09:10.05Z</time></trkpt><trkpt lat="46.0814219" lon="11.0767055"><ele>435.0</ele><time>2026-05-03T16:09:11.05Z</time></trkpt><trkpt lat="46.0813637" lon="11.0769367"><ele>435.0</ele><time>2026-05-03T16:09:12.049Z</time></trkpt><trkpt lat="46.0813324" lon="11.0771383"><ele>435.0</ele><time>2026-05-03T16:09:13.05Z</time></trkpt><trkpt lat="46.0813037" lon="11.0773805"><ele>433.0</ele><time>2026-05-03T16:09:14.05Z</time></trkpt><trkpt lat="46.0812943" lon="11.0776326"><ele>431.0</ele><time>2026-05-03T16:09:15.05Z</time></trkpt><trkpt lat="46.0813038" lon="11.0779063"><ele>429.0</ele><time>2026-05-03T16:09:16.05Z</time></trkpt><trkpt lat="46.081343" lon="11.0781866"><ele>421.0</ele><time>2026-05-03T16:09:17.05Z</time></trkpt><trkpt lat="46.0813955" lon="11.0784736"><ele>413.0</ele><time>2026-05-03T16:09:18.05Z</time></trkpt><trkpt lat="46.0814213" lon="11.0787585"><ele>405.0</ele><time>2026-05-03T16:09:19.05Z</time></trkpt><trkpt lat="46.0814277" lon="11.0790417"><ele>403.0</ele><time>2026-05-03T16:09:20.05Z</time></trkpt><trkpt lat="46.0814308" lon="11.0793124"><ele>401.0</ele><time>2026-05-03T16:09:21.05Z</time></trkpt><trkpt lat="46.0814257" lon="11.0795826"><ele>399.0</ele><time>2026-05-03T16:09:22.05Z</time></trkpt><trkpt lat="46.0814053" lon="11.0798533"><ele>398.0</ele><time>2026-05-03T16:09:23.049Z</time></trkpt><trkpt lat="46.0813713" lon="11.0801171"><ele>397.0</ele><time>2026-05-03T16:09:24.05Z</time></trkpt><trkpt lat="46.081337" lon="11.0803866"><ele>396.0</ele><time>2026-05-03T16:09:25.05Z</time></trkpt><trkpt lat="46.0813088" lon="11.0806654"><ele>396.66666666666663</ele><time>2026-05-03T16:09:26.05Z</time></trkpt><trkpt lat="46.0812971" lon="11.0809527"><ele>397.3333333333333</ele><time>2026-05-03T16:09:27.05Z</time></trkpt><trkpt lat="46.0812912" lon="11.0812383"><ele>398.0</ele><time>2026-05-03T16:09:28.05Z</time></trkpt><trkpt lat="46.081277" lon="11.081531"><ele>397.66666666666663</ele><time>2026-05-03T16:09:29.049Z</time></trkpt><trkpt lat="46.0812429" lon="11.0818356"><ele>397.33333333333337</ele><time>2026-05-03T16:09:30.05Z</time></trkpt><trkpt lat="46.0811837" lon="11.0821381"><ele>397.0</ele><time>2026-05-03T16:09:31.05Z</time></trkpt><trkpt lat="46.0811017" lon="11.0824474"><ele>397.0</ele><time>2026-05-03T16:09:32.05Z</time></trkpt><trkpt lat="46.0810039" lon="11.0827661"><ele>397.0</ele><time>2026-05-03T16:09:33.05Z</time></trkpt><trkpt lat="46.0809004" lon="11.0831047"><ele>397.5</ele><time>2026-05-03T16:09:34.049Z</time></trkpt><trkpt lat="46.0807988" lon="11.0834261"><ele>398.0</ele><time>2026-05-03T16:09:35.05Z</time></trkpt><trkpt lat="46.0763825" lon="11.1003059"><ele>356.0</ele><time>2026-05-03T16:10:25.049Z</time></trkpt><trkpt lat="46.0762081" lon="11.1005001"><ele>314.0</ele><time>2026-05-03T16:10:26.049Z</time></trkpt><trkpt lat="46.0760212" lon="11.1006626"><ele>272.0</ele><time>2026-05-03T16:10:27.049Z</time></trkpt><trkpt lat="46.0758445" lon="11.1008374"><ele>271.6666666666667</ele><time>2026-05-03T16:10:28.048Z</time></trkpt><trkpt lat="46.0756641" lon="11.1010144"><ele>271.3333333333333</ele><time>2026-05-03T16:10:29.049Z</time></trkpt><trkpt lat="46.075471" lon="11.1011916"><ele>271.0</ele><time>2026-05-03T16:10:30.049Z</time></trkpt><trkpt lat="46.07489" lon="11.1017277"><ele>271.0</ele><time>2026-05-03T16:10:33.049Z</time></trkpt><trkpt lat="46.0748079" lon="11.1019595"><ele>271.0</ele><time>2026-05-03T16:10:34.049Z</time></trkpt><trkpt lat="46.0746865" lon="11.1020727"><ele>271.0</ele><time>2026-05-03T16:10:35.048Z</time></trkpt><trkpt lat="46.0745726" lon="11.1022231"><ele>265.66666666666663</ele><time>2026-05-03T16:10:36.048Z</time></trkpt><trkpt lat="46.0744636" lon="11.1024555"><ele>260.3333333333333</ele><time>2026-05-03T16:10:37.048Z</time></trkpt><trkpt lat="46.0743692" lon="11.1027052"><ele>255.0</ele><time>2026-05-03T16:10:38.049Z</time></trkpt><trkpt lat="46.0742897" lon="11.102992"><ele>249.66666666666669</ele><time>2026-05-03T16:10:39.048Z</time></trkpt><trkpt lat="46.0742132" lon="11.1032714"><ele>244.33333333333334</ele><time>2026-05-03T16:10:40.049Z</time></trkpt><trkpt lat="46.0741491" lon="11.1035405"><ele>239.0</ele><time>2026-05-03T16:10:41.049Z</time></trkpt><trkpt lat="46.0741052" lon="11.1038196"><ele>239.33333333333334</ele><time>2026-05-03T16:10:42.049Z</time></trkpt><trkpt lat="46.0740753" lon="11.1041116"><ele>239.66666666666669</ele><time>2026-05-03T16:10:43.049Z</time></trkpt><trkpt lat="46.0740696" lon="11.1043979"><ele>240.0</ele><time>2026-05-03T16:10:44.049Z</time></trkpt><trkpt lat="46.0740831" lon="11.1047"><ele>230.33333333333331</ele><time>2026-05-03T16:10:45.048Z</time></trkpt><trkpt lat="46.0741224" lon="11.1049972"><ele>220.66666666666666</ele><time>2026-05-03T16:10:46.049Z</time></trkpt><trkpt lat="46.0741772" lon="11.1052848"><ele>211.0</ele><time>2026-05-03T16:10:47.049Z</time></trkpt><trkpt lat="46.0742359" lon="11.1055866"><ele>207.5</ele><time>2026-05-03T16:10:48.049Z</time></trkpt><trkpt lat="46.0742998" lon="11.1059028"><ele>204.0</ele><time>2026-05-03T16:10:49.049Z</time></trkpt><trkpt lat="46.0743652" lon="11.1062155"><ele>204.0</ele><time>2026-05-03T16:10:50.049Z</time></trkpt><trkpt lat="46.0744297" lon="11.1065394"><ele>204.0</ele><time>2026-05-03T16:10:51.049Z</time></trkpt><trkpt lat="46.0744969" lon="11.1068586"><ele>204.0</ele><time>2026-05-03T16:10:52.049Z</time></trkpt><trkpt lat="46.0745635" lon="11.1071782"><ele>204.0</ele><time>2026-05-03T16:10:53.048Z</time></trkpt><trkpt lat="46.0746271" lon="11.1074919"><ele>204.0</ele><time>2026-05-03T16:10:54.048Z</time></trkpt><trkpt lat="46.0746969" lon="11.107802"><ele>204.0</ele><time>2026-05-03T16:10:55.048Z</time></trkpt><trkpt lat="46.0747601" lon="11.1081001"><ele>204.0</ele><time>2026-05-03T16:10:56.049Z</time></trkpt><trkpt lat="46.0748207" lon="11.1083993"><ele>202.0</ele><time>2026-05-03T16:10:57.049Z</time></trkpt><trkpt lat="46.074882" lon="11.1086842"><ele>200.0</ele><time>2026-05-03T16:10:58.049Z</time></trkpt><trkpt lat="46.0749527" lon="11.1089612"><ele>198.0</ele><time>2026-05-03T16:10:59.049Z</time></trkpt><trkpt lat="46.075027" lon="11.1092305"><ele>197.66666666666669</ele><time>2026-05-03T16:11:00.048Z</time></trkpt><trkpt lat="46.0751195" lon="11.1094951"><ele>197.33333333333334</ele><time>2026-05-03T16:11:01.049Z</time></trkpt><trkpt lat="46.0752191" lon="11.1097435"><ele>197.0</ele><time>2026-05-03T16:11:02.049Z</time></trkpt><trkpt lat="46.0753319" lon="11.1099742"><ele>197.0</ele><time>2026-05-03T16:11:03.049Z</time></trkpt><trkpt lat="46.075449" lon="11.1101979"><ele>197.0</ele><time>2026-05-03T16:11:04.049Z</time></trkpt><trkpt lat="46.0755689" lon="11.1103947"><ele>197.0</ele><time>2026-05-03T16:11:05.049Z</time></trkpt><trkpt lat="46.0756942" lon="11.1105922"><ele>193.66666666666669</ele><time>2026-05-03T16:11:06.049Z</time></trkpt><trkpt lat="46.0758131" lon="11.1107864"><ele>190.33333333333334</ele><time>2026-05-03T16:11:07.049Z</time></trkpt><trkpt lat="46.0759205" lon="11.1109731"><ele>187.0</ele><time>2026-05-03T16:11:08.049Z</time></trkpt><trkpt lat="46.0760127" lon="11.1111456"><ele>187.0</ele><time>2026-05-03T16:11:09.049Z</time></trkpt><trkpt lat="46.0760902" lon="11.1113"><ele>187.0</ele><time>2026-05-03T16:11:10.049Z</time></trkpt><trkpt lat="46.0761397" lon="11.1114559"><ele>187.0</ele><time>2026-05-03T16:11:11.049Z</time></trkpt><trkpt lat="46.0761666" lon="11.1116101"><ele>187.0</ele><time>2026-05-03T16:11:12.049Z</time></trkpt><trkpt lat="46.0761706" lon="11.1117617"><ele>187.25</ele><time>2026-05-03T16:11:13.049Z</time></trkpt><trkpt lat="46.0761619" lon="11.1119236"><ele>187.5</ele><time>2026-05-03T16:11:14.048Z</time></trkpt><trkpt lat="46.0761379" lon="11.1120902"><ele>187.75</ele><time>2026-05-03T16:11:15.049Z</time></trkpt><trkpt lat="46.0761315" lon="11.1122725"><ele>188.0</ele><time>2026-05-03T16:11:16.049Z</time></trkpt><trkpt lat="46.0761463" lon="11.1124528"><ele>188.25</ele><time>2026-05-03T16:11:17.049Z</time></trkpt><trkpt lat="46.0761768" lon="11.1126225"><ele>188.5</ele><time>2026-05-03T16:11:18.049Z</time></trkpt><trkpt lat="46.0762161" lon="11.1127697"><ele>188.75</ele><time>2026-05-03T16:11:19.049Z</time></trkpt><trkpt lat="46.0762934" lon="11.1128977"><ele>189.0</ele><time>2026-05-03T16:11:20.049Z</time></trkpt><trkpt lat="46.076391" lon="11.112995"><ele>189.0</ele><time>2026-05-03T16:11:21.049Z</time></trkpt><trkpt lat="46.0764836" lon="11.1130871"><ele>189.0</ele><time>2026-05-03T16:11:22.049Z</time></trkpt><trkpt lat="46.076582" lon="11.1131488"><ele>189.0</ele><time>2026-05-03T16:11:23.049Z</time></trkpt><trkpt lat="46.0766735" lon="11.1131941"><ele>189.0</ele><time>2026-05-03T16:11:24.049Z</time></trkpt><trkpt lat="46.0767759" lon="11.1132098"><ele>189.0</ele><time>2026-05-03T16:11:25.049Z</time></trkpt><trkpt lat="46.0768805" lon="11.1131961"><ele>189.79999999999998</ele><time>2026-05-03T16:11:26.049Z</time></trkpt><trkpt lat="46.0769821" lon="11.1131575"><ele>190.6</ele><time>2026-05-03T16:11:27.048Z</time></trkpt><trkpt lat="46.0770805" lon="11.1131104"><ele>191.4</ele><time>2026-05-03T16:11:28.048Z</time></trkpt><trkpt lat="46.0771782" lon="11.1130373"><ele>192.2</ele><time>2026-05-03T16:11:29.048Z</time></trkpt><trkpt lat="46.0772736" lon="11.1129531"><ele>193.0</ele><time>2026-05-03T16:11:30.049Z</time></trkpt><trkpt lat="46.0773648" lon="11.1128526"><ele>192.25</ele><time>2026-05-03T16:11:31.049Z</time></trkpt><trkpt lat="46.0774548" lon="11.1127504"><ele>191.5</ele><time>2026-05-03T16:11:32.048Z</time></trkpt><trkpt lat="46.0775477" lon="11.1126489"><ele>190.75</ele><time>2026-05-03T16:11:33.049Z</time></trkpt><trkpt lat="46.0776483" lon="11.1125483"><ele>190.0</ele><time>2026-05-03T16:11:34.048Z</time></trkpt><trkpt lat="46.0777565" lon="11.1124572"><ele>190.2</ele><time>2026-05-03T16:11:35.049Z</time></trkpt><trkpt lat="46.077869" lon="11.1123853"><ele>190.4</ele><time>2026-05-03T16:11:36.049Z</time></trkpt><trkpt lat="46.077983" lon="11.112333"><ele>190.60000000000002</ele><time>2026-05-03T16:11:37.049Z</time></trkpt><trkpt lat="46.0780888" lon="11.1122972"><ele>190.8</ele><time>2026-05-03T16:11:38.049Z</time></trkpt><trkpt lat="46.0781837" lon="11.1122613"><ele>191.0</ele><time>2026-05-03T16:11:39.049Z</time></trkpt><trkpt lat="46.0782756" lon="11.1122391"><ele>190.5</ele><time>2026-05-03T16:11:40.048Z</time></trkpt><trkpt lat="46.0783645" lon="11.1122237"><ele>190.0</ele><time>2026-05-03T16:11:41.048Z</time></trkpt><trkpt lat="46.0784517" lon="11.1122184"><ele>189.5</ele><time>2026-05-03T16:11:42.048Z</time></trkpt><trkpt lat="46.0785297" lon="11.1122238"><ele>189.0</ele><time>2026-05-03T16:11:43.048Z</time></trkpt><trkpt lat="46.0786211" lon="11.1122306"><ele>188.5</ele><time>2026-05-03T16:11:44.048Z</time></trkpt><trkpt lat="46.0787144" lon="11.1122479"><ele>188.0</ele><time>2026-05-03T16:11:45.049Z</time></trkpt><trkpt lat="46.0788071" lon="11.1122699"><ele>188.0</ele><time>2026-05-03T16:11:46.049Z</time></trkpt><trkpt lat="46.0789055" lon="11.112305"><ele>188.0</ele><time>2026-05-03T16:11:47.049Z</time></trkpt><trkpt lat="46.0790115" lon="11.1123488"><ele>188.0</ele><time>2026-05-03T16:11:48.049Z</time></trkpt><trkpt lat="46.0791256" lon="11.1123951"><ele>188.0</ele><time>2026-05-03T16:11:49.049Z</time></trkpt><trkpt lat="46.0792482" lon="11.1124484"><ele>188.66666666666666</ele><time>2026-05-03T16:11:50.049Z</time></trkpt><trkpt lat="46.079383" lon="11.1125142"><ele>189.33333333333334</ele><time>2026-05-03T16:11:51.049Z</time></trkpt><trkpt lat="46.0795405" lon="11.1125867"><ele>190.0</ele><time>2026-05-03T16:11:52.049Z</time></trkpt><trkpt lat="46.0797193" lon="11.112681"><ele>190.0</ele><time>2026-05-03T16:11:53.048Z</time></trkpt><trkpt lat="46.0799193" lon="11.1127832"><ele>190.0</ele><time>2026-05-03T16:11:54.048Z</time></trkpt><trkpt lat="46.0801174" lon="11.1129006"><ele>190.0</ele><time>2026-05-03T16:11:55.048Z</time></trkpt><trkpt lat="46.0803131" lon="11.1130073"><ele>190.0</ele><time>2026-05-03T16:11:56.049Z</time></trkpt><trkpt lat="46.0805079" lon="11.11312"><ele>190.0</ele><time>2026-05-03T16:11:57.049Z</time></trkpt><trkpt lat="46.0807047" lon="11.1132294"><ele>190.0</ele><time>2026-05-03T16:11:58.049Z</time></trkpt><trkpt lat="46.0809014" lon="11.1133356"><ele>190.0</ele><time>2026-05-03T16:11:59.048Z</time></trkpt><trkpt lat="46.0811048" lon="11.1134299"><ele>190.0</ele><time>2026-05-03T16:12:00.048Z</time></trkpt><trkpt lat="46.0813125" lon="11.1135044"><ele>190.0</ele><time>2026-05-03T16:12:01.049Z</time></trkpt><trkpt lat="46.0815257" lon="11.113549"><ele>190.66666666666669</ele><time>2026-05-03T16:12:02.049Z</time></trkpt><trkpt lat="46.0817392" lon="11.1135676"><ele>191.33333333333334</ele><time>2026-05-03T16:12:03.049Z</time></trkpt><trkpt lat="46.0819407" lon="11.11354"><ele>192.0</ele><time>2026-05-03T16:12:04.049Z</time></trkpt><trkpt lat="46.0821471" lon="11.1134805"><ele>192.0</ele><time>2026-05-03T16:12:05.049Z</time></trkpt><trkpt lat="46.0823491" lon="11.1133917"><ele>192.0</ele><time>2026-05-03T16:12:06.048Z</time></trkpt><trkpt lat="46.082545" lon="11.1132739"><ele>192.0</ele><time>2026-05-03T16:12:07.049Z</time></trkpt><trkpt lat="46.0827421" lon="11.1131229"><ele>191.0</ele><time>2026-05-03T16:12:08.048Z</time></trkpt><trkpt lat="46.0829293" lon="11.1129374"><ele>190.0</ele><time>2026-05-03T16:12:09.049Z</time></trkpt><trkpt lat="46.0830976" lon="11.1127195"><ele>191.5</ele><time>2026-05-03T16:12:10.049Z</time></trkpt><trkpt lat="46.083265" lon="11.112471"><ele>193.0</ele><time>2026-05-03T16:12:11.049Z</time></trkpt><trkpt lat="46.0834211" lon="11.112198"><ele>193.5</ele><time>2026-05-03T16:12:12.049Z</time></trkpt><trkpt lat="46.0835772" lon="11.1119045"><ele>194.0</ele><time>2026-05-03T16:12:13.049Z</time></trkpt><trkpt lat="46.0837362" lon="11.1116103"><ele>193.5</ele><time>2026-05-03T16:12:14.048Z</time></trkpt><trkpt lat="46.0839019" lon="11.1113192"><ele>193.0</ele><time>2026-05-03T16:12:15.049Z</time></trkpt><trkpt lat="46.0840692" lon="11.1110247"><ele>192.0</ele><time>2026-05-03T16:12:16.049Z</time></trkpt><trkpt lat="46.0842334" lon="11.1107429"><ele>191.0</ele><time>2026-05-03T16:12:17.049Z</time></trkpt><trkpt lat="46.0843979" lon="11.1104597"><ele>191.0</ele><time>2026-05-03T16:12:18.049Z</time></trkpt><trkpt lat="46.0845501" lon="11.1101852"><ele>191.0</ele><time>2026-05-03T16:12:19.049Z</time></trkpt><trkpt lat="46.0846984" lon="11.1099275"><ele>190.5</ele><time>2026-05-03T16:12:20.049Z</time></trkpt><trkpt lat="46.0848406" lon="11.1096723"><ele>190.0</ele><time>2026-05-03T16:12:21.049Z</time></trkpt><trkpt lat="46.0849856" lon="11.1094246"><ele>190.0</ele><time>2026-05-03T16:12:22.049Z</time></trkpt><trkpt lat="46.0851261" lon="11.109173"><ele>190.0</ele><time>2026-05-03T16:12:23.049Z</time></trkpt><trkpt lat="46.0852645" lon="11.1089238"><ele>190.0</ele><time>2026-05-03T16:12:24.049Z</time></trkpt><trkpt lat="46.0854053" lon="11.1086685"><ele>190.0</ele><time>2026-05-03T16:12:25.049Z</time></trkpt><trkpt lat="46.0855455" lon="11.1084145"><ele>190.0</ele><time>2026-05-03T16:12:26.048Z</time></trkpt><trkpt lat="46.0856886" lon="11.108164"><ele>189.5</ele><time>2026-05-03T16:12:27.049Z</time></trkpt><trkpt lat="46.0858291" lon="11.1079083"><ele>189.0</ele><time>2026-05-03T16:12:28.049Z</time></trkpt><trkpt lat="46.0859727" lon="11.1076477"><ele>189.33333333333334</ele><time>2026-05-03T16:12:29.049Z</time></trkpt><trkpt lat="46.0861134" lon="11.1074066"><ele>189.66666666666669</ele><time>2026-05-03T16:12:30.048Z</time></trkpt><trkpt lat="46.0862507" lon="11.1071591"><ele>190.0</ele><time>2026-05-03T16:12:31.049Z</time></trkpt><trkpt lat="46.0863884" lon="11.1069109"><ele>190.0</ele><time>2026-05-03T16:12:32.048Z</time></trkpt><trkpt lat="46.0865256" lon="11.1066607"><ele>190.0</ele><time>2026-05-03T16:12:33.049Z</time></trkpt><trkpt lat="46.0866629" lon="11.1064208"><ele>190.0</ele><time>2026-05-03T16:12:34.049Z</time></trkpt><trkpt lat="46.0868017" lon="11.1061762"><ele>190.33333333333334</ele><time>2026-05-03T16:12:35.049Z</time></trkpt><trkpt lat="46.0869418" lon="11.1059365"><ele>190.66666666666666</ele><time>2026-05-03T16:12:36.049Z</time></trkpt><trkpt lat="46.0870864" lon="11.105707"><ele>191.0</ele><time>2026-05-03T16:12:37.049Z</time></trkpt><trkpt lat="46.0872428" lon="11.1054803"><ele>191.0</ele><time>2026-05-03T16:12:38.048Z</time></trkpt><trkpt lat="46.0874049" lon="11.105255"><ele>191.0</ele><time>2026-05-03T16:12:39.048Z</time></trkpt><trkpt lat="46.0875725" lon="11.1050289"><ele>191.0</ele><time>2026-05-03T16:12:40.049Z</time></trkpt><trkpt lat="46.0877508" lon="11.1048114"><ele>191.0</ele><time>2026-05-03T16:12:41.049Z</time></trkpt><trkpt lat="46.0879432" lon="11.1045943"><ele>191.0</ele><time>2026-05-03T16:12:42.048Z</time></trkpt><trkpt lat="46.0881493" lon="11.1043996"><ele>191.0</ele><time>2026-05-03T16:12:43.049Z</time></trkpt><trkpt lat="46.0883648" lon="11.1042201"><ele>190.5</ele><time>2026-05-03T16:12:44.048Z</time></trkpt><trkpt lat="46.0885853" lon="11.104051"><ele>190.0</ele><time>2026-05-03T16:12:45.049Z</time></trkpt><trkpt lat="46.088807" lon="11.1039024"><ele>190.0</ele><time>2026-05-03T16:12:46.049Z</time></trkpt><trkpt lat="46.0890308" lon="11.103755"><ele>190.0</ele><time>2026-05-03T16:12:47.049Z</time></trkpt><trkpt lat="46.08925" lon="11.1036177"><ele>190.0</ele><time>2026-05-03T16:12:48.049Z</time></trkpt><trkpt lat="46.0894671" lon="11.1034807"><ele>190.0</ele><time>2026-05-03T16:12:49.049Z</time></trkpt><trkpt lat="46.0896782" lon="11.1033423"><ele>190.0</ele><time>2026-05-03T16:12:50.048Z</time></trkpt><trkpt lat="46.0898835" lon="11.1032057"><ele>190.0</ele><time>2026-05-03T16:12:51.048Z</time></trkpt><trkpt lat="46.0900875" lon="11.1030714"><ele>190.0</ele><time>2026-05-03T16:12:52.048Z</time></trkpt><trkpt lat="46.0902954" lon="11.1029414"><ele>190.0</ele><time>2026-05-03T16:12:53.049Z</time></trkpt><trkpt lat="46.0904975" lon="11.1028072"><ele>190.0</ele><time>2026-05-03T16:12:54.048Z</time></trkpt><trkpt lat="46.0906982" lon="11.1026739"><ele>190.0</ele><time>2026-05-03T16:12:55.049Z</time></trkpt><trkpt lat="46.0908954" lon="11.1025491"><ele>190.0</ele><time>2026-05-03T16:12:56.048Z</time></trkpt><trkpt lat="46.0910878" lon="11.1024292"><ele>190.0</ele><time>2026-05-03T16:12:57.049Z</time></trkpt><trkpt lat="46.0912839" lon="11.1023291"><ele>190.0</ele><time>2026-05-03T16:12:58.048Z</time></trkpt><trkpt lat="46.0914805" lon="11.1022541"><ele>190.0</ele><time>2026-05-03T16:12:59.049Z</time></trkpt><trkpt lat="46.0916777" lon="11.1022082"><ele>190.0</ele><time>2026-05-03T16:13:00.048Z</time></trkpt><trkpt lat="46.0918793" lon="11.102191"><ele>190.33333333333334</ele><time>2026-05-03T16:13:01.049Z</time></trkpt><trkpt lat="46.0920754" lon="11.102217"><ele>190.66666666666666</ele><time>2026-05-03T16:13:02.049Z</time></trkpt><trkpt lat="46.0922704" lon="11.1022667"><ele>191.0</ele><time>2026-05-03T16:13:03.049Z</time></trkpt><trkpt lat="46.0924667" lon="11.1023346"><ele>191.0</ele><time>2026-05-03T16:13:04.048Z</time></trkpt><trkpt lat="46.0926587" lon="11.1024331"><ele>191.0</ele><time>2026-05-03T16:13:05.049Z</time></trkpt><trkpt lat="46.0928436" lon="11.1025696"><ele>191.0</ele><time>2026-05-03T16:13:06.049Z</time></trkpt><trkpt lat="46.0930239" lon="11.1027358"><ele>191.0</ele><time>2026-05-03T16:13:07.049Z</time></trkpt><trkpt lat="46.093195" lon="11.1029462"><ele>191.0</ele><time>2026-05-03T16:13:08.049Z</time></trkpt><trkpt lat="46.0933646" lon="11.1031668"><ele>192.0</ele><time>2026-05-03T16:13:09.048Z</time></trkpt><trkpt lat="46.0935134" lon="11.1034194"><ele>193.0</ele><time>2026-05-03T16:13:10.048Z</time></trkpt><trkpt lat="46.0936491" lon="11.1036908"><ele>193.0</ele><time>2026-05-03T16:13:11.049Z</time></trkpt><trkpt lat="46.0937708" lon="11.1039883"><ele>193.0</ele><time>2026-05-03T16:13:12.049Z</time></trkpt><trkpt lat="46.0938829" lon="11.1042866"><ele>192.5</ele><time>2026-05-03T16:13:13.048Z</time></trkpt><trkpt lat="46.0939913" lon="11.1045939"><ele>192.0</ele><time>2026-05-03T16:13:14.049Z</time></trkpt><trkpt lat="46.0941008" lon="11.1049005"><ele>192.0</ele><time>2026-05-03T16:13:15.048Z</time></trkpt><trkpt lat="46.094209" lon="11.1052064"><ele>192.0</ele><time>2026-05-03T16:13:16.049Z</time></trkpt><trkpt lat="46.0943144" lon="11.1055117"><ele>193.0</ele><time>2026-05-03T16:13:17.048Z</time></trkpt><trkpt lat="46.0944181" lon="11.1058141"><ele>194.0</ele><time>2026-05-03T16:13:18.048Z</time></trkpt><trkpt lat="46.0945259" lon="11.1061198"><ele>194.0</ele><time>2026-05-03T16:13:19.048Z</time></trkpt><trkpt lat="46.0946267" lon="11.1064306"><ele>194.0</ele><time>2026-05-03T16:13:20.049Z</time></trkpt><trkpt lat="46.0947276" lon="11.1067394"><ele>194.0</ele><time>2026-05-03T16:13:21.048Z</time></trkpt><trkpt lat="46.0948294" lon="11.1070453"><ele>194.0</ele><time>2026-05-03T16:13:22.049Z</time></trkpt><trkpt lat="46.0949308" lon="11.1073624"><ele>193.5</ele><time>2026-05-03T16:13:23.048Z</time></trkpt><trkpt lat="46.0950098" lon="11.1076822"><ele>193.0</ele><time>2026-05-03T16:13:24.049Z</time></trkpt><trkpt lat="46.0950793" lon="11.1080022"><ele>192.66666666666666</ele><time>2026-05-03T16:13:25.048Z</time></trkpt><trkpt lat="46.0951376" lon="11.1083188"><ele>192.33333333333331</ele><time>2026-05-03T16:13:26.049Z</time></trkpt><trkpt lat="46.0951888" lon="11.1086269"><ele>192.0</ele><time>2026-05-03T16:13:27.049Z</time></trkpt><trkpt lat="46.0952353" lon="11.108928"><ele>192.33333333333331</ele><time>2026-05-03T16:13:28.049Z</time></trkpt><trkpt lat="46.0952884" lon="11.1092242"><ele>192.66666666666666</ele><time>2026-05-03T16:13:29.049Z</time></trkpt><trkpt lat="46.0953413" lon="11.109525"><ele>193.0</ele><time>2026-05-03T16:13:30.049Z</time></trkpt><trkpt lat="46.0954012" lon="11.1098315"><ele>192.5</ele><time>2026-05-03T16:13:31.048Z</time></trkpt><trkpt lat="46.0954655" lon="11.1101517"><ele>192.0</ele><time>2026-05-03T16:13:32.049Z</time></trkpt><trkpt lat="46.0955347" lon="11.1104862"><ele>191.5</ele><time>2026-05-03T16:13:33.049Z</time></trkpt><trkpt lat="46.0956018" lon="11.1108326"><ele>191.0</ele><time>2026-05-03T16:13:34.049Z</time></trkpt><trkpt lat="46.0956675" lon="11.1111828"><ele>191.0</ele><time>2026-05-03T16:13:35.049Z</time></trkpt><trkpt lat="46.0957332" lon="11.1115369"><ele>191.0</ele><time>2026-05-03T16:13:36.048Z</time></trkpt><trkpt lat="46.0958017" lon="11.1118854"><ele>191.0</ele><time>2026-05-03T16:13:37.049Z</time></trkpt><trkpt lat="46.0958642" lon="11.112236"><ele>191.0</ele><time>2026-05-03T16:13:38.049Z</time></trkpt><trkpt lat="46.0959304" lon="11.1125909"><ele>192.0</ele><time>2026-05-03T16:13:39.049Z</time></trkpt><trkpt lat="46.0959957" lon="11.1129481"><ele>193.0</ele><time>2026-05-03T16:13:40.048Z</time></trkpt><trkpt lat="46.0960628" lon="11.113302"><ele>193.0</ele><time>2026-05-03T16:13:41.049Z</time></trkpt><trkpt lat="46.0961311" lon="11.1136585"><ele>193.0</ele><time>2026-05-03T16:13:42.049Z</time></trkpt><trkpt lat="46.0961923" lon="11.1140147"><ele>191.5</ele><time>2026-05-03T16:13:43.049Z</time></trkpt><trkpt lat="46.0962567" lon="11.1143707"><ele>190.0</ele><time>2026-05-03T16:13:44.048Z</time></trkpt><trkpt lat="46.0963172" lon="11.1147245"><ele>190.0</ele><time>2026-05-03T16:13:45.049Z</time></trkpt><trkpt lat="46.0963764" lon="11.1150698"><ele>190.0</ele><time>2026-05-03T16:13:46.048Z</time></trkpt><trkpt lat="46.0964378" lon="11.1153972"><ele>190.0</ele><time>2026-05-03T16:13:47.048Z</time></trkpt><trkpt lat="46.0964935" lon="11.1157206"><ele>190.0</ele><time>2026-05-03T16:13:48.049Z</time></trkpt><trkpt lat="46.0965347" lon="11.1160449"><ele>191.0</ele><time>2026-05-03T16:13:49.048Z</time></trkpt><trkpt lat="46.0965535" lon="11.1163707"><ele>192.0</ele><time>2026-05-03T16:13:50.049Z</time></trkpt><trkpt lat="46.0965674" lon="11.1166935"><ele>192.0</ele><time>2026-05-03T16:13:51.049Z</time></trkpt><trkpt lat="46.0965505" lon="11.1170253"><ele>192.0</ele><time>2026-05-03T16:13:52.049Z</time></trkpt><trkpt lat="46.0965184" lon="11.1173488"><ele>193.0</ele><time>2026-05-03T16:13:53.049Z</time></trkpt><trkpt lat="46.0964642" lon="11.1176659"><ele>194.0</ele><time>2026-05-03T16:13:54.049Z</time></trkpt><trkpt lat="46.0963982" lon="11.1179834"><ele>193.5</ele><time>2026-05-03T16:13:55.049Z</time></trkpt><trkpt lat="46.096319" lon="11.1182918"><ele>193.0</ele><time>2026-05-03T16:13:56.049Z</time></trkpt><trkpt lat="46.0962304" lon="11.118603"><ele>193.0</ele><time>2026-05-03T16:13:57.049Z</time></trkpt><trkpt lat="46.0961464" lon="11.1189114"><ele>193.0</ele><time>2026-05-03T16:13:58.049Z</time></trkpt><trkpt lat="46.0960607" lon="11.1192249"><ele>191.5</ele><time>2026-05-03T16:13:59.049Z</time></trkpt><trkpt lat="46.095974" lon="11.1195321"><ele>190.0</ele><time>2026-05-03T16:14:00.049Z</time></trkpt><trkpt lat="46.0958784" lon="11.1198349"><ele>190.5</ele><time>2026-05-03T16:14:01.048Z</time></trkpt><trkpt lat="46.0957741" lon="11.1201212"><ele>191.0</ele><time>2026-05-03T16:14:02.049Z</time></trkpt><trkpt lat="46.0956473" lon="11.120391"><ele>191.0</ele><time>2026-05-03T16:14:03.049Z</time></trkpt><trkpt lat="46.0955088" lon="11.1206413"><ele>191.0</ele><time>2026-05-03T16:14:04.049Z</time></trkpt><trkpt lat="46.0953548" lon="11.1208639"><ele>191.0</ele><time>2026-05-03T16:14:05.049Z</time></trkpt><trkpt lat="46.095184" lon="11.1210718"><ele>191.66666666666666</ele><time>2026-05-03T16:14:06.049Z</time></trkpt><trkpt lat="46.0950038" lon="11.1212484"><ele>192.33333333333331</ele><time>2026-05-03T16:14:07.049Z</time></trkpt><trkpt lat="46.0948182" lon="11.1214092"><ele>193.0</ele><time>2026-05-03T16:14:08.048Z</time></trkpt><trkpt lat="46.0946143" lon="11.1215376"><ele>199.33333333333331</ele><time>2026-05-03T16:14:09.049Z</time></trkpt><trkpt lat="46.0944022" lon="11.121626"><ele>205.66666666666669</ele><time>2026-05-03T16:14:10.049Z</time></trkpt><trkpt lat="46.094185" lon="11.1217029"><ele>212.0</ele><time>2026-05-03T16:14:11.049Z</time></trkpt><trkpt lat="46.0939651" lon="11.1217616"><ele>213.5</ele><time>2026-05-03T16:14:12.049Z</time></trkpt><trkpt lat="46.0937421" lon="11.1218153"><ele>215.0</ele><time>2026-05-03T16:14:13.049Z</time></trkpt><trkpt lat="46.0935194" lon="11.1218638"><ele>215.0</ele><time>2026-05-03T16:14:14.048Z</time></trkpt><trkpt lat="46.0932918" lon="11.1219104"><ele>215.0</ele><time>2026-05-03T16:14:15.049Z</time></trkpt><trkpt lat="46.0930632" lon="11.1219514"><ele>213.0</ele><time>2026-05-03T16:14:16.049Z</time></trkpt><trkpt lat="46.0928358" lon="11.1219881"><ele>211.0</ele><time>2026-05-03T16:14:17.049Z</time></trkpt><trkpt lat="46.0926091" lon="11.122035"><ele>206.0</ele><time>2026-05-03T16:14:18.049Z</time></trkpt><trkpt lat="46.0923809" lon="11.1220881"><ele>201.0</ele><time>2026-05-03T16:14:19.049Z</time></trkpt><trkpt lat="46.0921546" lon="11.1221429"><ele>201.0</ele><time>2026-05-03T16:14:20.048Z</time></trkpt><trkpt lat="46.0919271" lon="11.1222072"><ele>201.0</ele><time>2026-05-03T16:14:21.049Z</time></trkpt><trkpt lat="46.0917068" lon="11.1222856"><ele>202.0</ele><time>2026-05-03T16:14:22.049Z</time></trkpt><trkpt lat="46.0914842" lon="11.1223757"><ele>203.0</ele><time>2026-05-03T16:14:23.049Z</time></trkpt><trkpt lat="46.0912592" lon="11.1224875"><ele>216.0</ele><time>2026-05-03T16:14:24.048Z</time></trkpt><trkpt lat="46.0910401" lon="11.1226098"><ele>229.0</ele><time>2026-05-03T16:14:25.048Z</time></trkpt><trkpt lat="46.0908317" lon="11.1227423"><ele>225.5</ele><time>2026-05-03T16:14:26.049Z</time></trkpt><trkpt lat="46.0906245" lon="11.1228877"><ele>222.0</ele><time>2026-05-03T16:14:27.049Z</time></trkpt><trkpt lat="46.0904268" lon="11.1230516"><ele>222.0</ele><time>2026-05-03T16:14:28.048Z</time></trkpt><trkpt lat="46.0902267" lon="11.1232116"><ele>222.0</ele><time>2026-05-03T16:14:29.048Z</time></trkpt><trkpt lat="46.0900342" lon="11.1233749"><ele>228.0</ele><time>2026-05-03T16:14:30.049Z</time></trkpt><trkpt lat="46.0898173" lon="11.1235333"><ele>234.0</ele><time>2026-05-03T16:14:31.049Z</time></trkpt><trkpt lat="46.077532" lon="11.1541995"><ele>271.0</ele><time>2026-05-03T16:16:21.048Z</time></trkpt><trkpt lat="46.0776139" lon="11.1544746"><ele>308.0</ele><time>2026-05-03T16:16:22.048Z</time></trkpt><trkpt lat="46.0776881" lon="11.1547237"><ele>345.0</ele><time>2026-05-03T16:16:23.048Z</time></trkpt><trkpt lat="46.0777785" lon="11.1549807"><ele>345.0</ele><time>2026-05-03T16:16:24.047Z</time></trkpt><trkpt lat="46.0778585" lon="11.1552355"><ele>345.0</ele><time>2026-05-03T16:16:25.047Z</time></trkpt><trkpt lat="46.0779235" lon="11.1555026"><ele>345.0</ele><time>2026-05-03T16:16:26.048Z</time></trkpt><trkpt lat="46.0779619" lon="11.1557878"><ele>345.3333333333333</ele><time>2026-05-03T16:16:27.048Z</time></trkpt><trkpt lat="46.0779784" lon="11.1560786"><ele>345.66666666666663</ele><time>2026-05-03T16:16:28.048Z</time></trkpt><trkpt lat="46.0779738" lon="11.1563727"><ele>346.0</ele><time>2026-05-03T16:16:29.048Z</time></trkpt><trkpt lat="46.0779654" lon="11.156674"><ele>346.0</ele><time>2026-05-03T16:16:30.048Z</time></trkpt><trkpt lat="46.0779507" lon="11.1569697"><ele>346.0</ele><time>2026-05-03T16:16:31.048Z</time></trkpt><trkpt lat="46.0779413" lon="11.1572653"><ele>346.0</ele><time>2026-05-03T16:16:32.048Z</time></trkpt><trkpt lat="46.0779541" lon="11.1575703"><ele>347.3333333333333</ele><time>2026-05-03T16:16:33.048Z</time></trkpt><trkpt lat="46.0779795" lon="11.1578719"><ele>348.6666666666667</ele><time>2026-05-03T16:16:34.047Z</time></trkpt><trkpt lat="46.0780246" lon="11.1581735"><ele>350.0</ele><time>2026-05-03T16:16:35.048Z</time></trkpt><trkpt lat="46.0780847" lon="11.1584714"><ele>348.6666666666667</ele><time>2026-05-03T16:16:36.048Z</time></trkpt><trkpt lat="46.0781579" lon="11.1587622"><ele>347.3333333333333</ele><time>2026-05-03T16:16:37.048Z</time></trkpt><trkpt lat="46.0782528" lon="11.1590491"><ele>346.0</ele><time>2026-05-03T16:16:38.048Z</time></trkpt><trkpt lat="46.0783636" lon="11.1593359"><ele>346.0</ele><time>2026-05-03T16:16:39.048Z</time></trkpt><trkpt lat="46.0784995" lon="11.1595993"><ele>346.0</ele><time>2026-05-03T16:16:40.048Z</time></trkpt><trkpt lat="46.0786486" lon="11.1598502"><ele>359.0</ele><time>2026-05-03T16:16:41.048Z</time></trkpt><trkpt lat="46.0788142" lon="11.1600842"><ele>372.0</ele><time>2026-05-03T16:16:42.048Z</time></trkpt><trkpt lat="46.0789977" lon="11.1603011"><ele>371.0</ele><time>2026-05-03T16:16:43.047Z</time></trkpt><trkpt lat="46.0791989" lon="11.160512"><ele>370.0</ele><time>2026-05-03T16:16:44.047Z</time></trkpt><trkpt lat="46.0793969" lon="11.1607144"><ele>370.0</ele><time>2026-05-03T16:16:45.048Z</time></trkpt><trkpt lat="46.0795932" lon="11.1609129"><ele>370.0</ele><time>2026-05-03T16:16:46.047Z</time></trkpt><trkpt lat="46.0797856" lon="11.1611163"><ele>362.0</ele><time>2026-05-03T16:16:47.048Z</time></trkpt><trkpt lat="46.0799705" lon="11.1613285"><ele>354.0</ele><time>2026-05-03T16:16:48.048Z</time></trkpt><trkpt lat="46.0801518" lon="11.1615468"><ele>354.0</ele><time>2026-05-03T16:16:49.047Z</time></trkpt><trkpt lat="46.0803232" lon="11.1617825"><ele>354.0</ele><time>2026-05-03T16:16:50.048Z</time></trkpt><trkpt lat="46.0804819" lon="11.1620347"><ele>354.0</ele><time>2026-05-03T16:16:51.048Z</time></trkpt><trkpt lat="46.0806309" lon="11.1622983"><ele>354.0</ele><time>2026-05-03T16:16:52.048Z</time></trkpt><trkpt lat="46.0807701" lon="11.1625689"><ele>365.5</ele><time>2026-05-03T16:16:53.048Z</time></trkpt><trkpt lat="46.0809109" lon="11.1628278"><ele>377.0</ele><time>2026-05-03T16:16:54.048Z</time></trkpt><trkpt lat="46.0828947" lon="11.1767015"><ele>377.0</ele><time>2026-05-03T16:17:33.048Z</time></trkpt><trkpt lat="46.0829364" lon="11.177008"><ele>377.0</ele><time>2026-05-03T16:17:34.047Z</time></trkpt><trkpt lat="46.0829646" lon="11.1773194"><ele>377.0</ele><time>2026-05-03T16:17:35.047Z</time></trkpt><trkpt lat="46.0829949" lon="11.1776265"><ele>377.33333333333337</ele><time>2026-05-03T16:17:36.048Z</time></trkpt><trkpt lat="46.0830184" lon="11.1779316"><ele>377.6666666666667</ele><time>2026-05-03T16:17:37.047Z</time></trkpt><trkpt lat="46.0830247" lon="11.1782543"><ele>378.0</ele><time>2026-05-03T16:17:38.048Z</time></trkpt><trkpt lat="46.0830171" lon="11.1785968"><ele>378.0</ele><time>2026-05-03T16:17:39.048Z</time></trkpt><trkpt lat="46.0829986" lon="11.1789264"><ele>378.0</ele><time>2026-05-03T16:17:40.048Z</time></trkpt><trkpt lat="46.0829742" lon="11.179265"><ele>379.0</ele><time>2026-05-03T16:17:41.048Z</time></trkpt><trkpt lat="46.0829404" lon="11.1795969"><ele>380.0</ele><time>2026-05-03T16:17:42.048Z</time></trkpt><trkpt lat="46.0829069" lon="11.1799294"><ele>380.0</ele><time>2026-05-03T16:17:43.048Z</time></trkpt><trkpt lat="46.0828828" lon="11.1802601"><ele>380.0</ele><time>2026-05-03T16:17:44.047Z</time></trkpt><trkpt lat="46.0828738" lon="11.1805888"><ele>381.0</ele><time>2026-05-03T16:17:45.048Z</time></trkpt><trkpt lat="46.0828849" lon="11.1809173"><ele>382.0</ele><time>2026-05-03T16:17:46.048Z</time></trkpt><trkpt lat="46.0829243" lon="11.1812463"><ele>380.5</ele><time>2026-05-03T16:17:47.048Z</time></trkpt><trkpt lat="46.0829715" lon="11.181566"><ele>379.0</ele><time>2026-05-03T16:17:48.048Z</time></trkpt><trkpt lat="46.0830265" lon="11.181887"><ele>379.0</ele><time>2026-05-03T16:17:49.048Z</time></trkpt><trkpt lat="46.0830675" lon="11.1822088"><ele>379.0</ele><time>2026-05-03T16:17:50.048Z</time></trkpt><trkpt lat="46.0830922" lon="11.1825415"><ele>379.0</ele><time>2026-05-03T16:17:51.048Z</time></trkpt><trkpt lat="46.0830965" lon="11.1828705"><ele>379.0</ele><time>2026-05-03T16:17:52.048Z</time></trkpt><trkpt lat="46.0830912" lon="11.1831928"><ele>380.3333333333333</ele><time>2026-05-03T16:17:53.047Z</time></trkpt><trkpt lat="46.0830573" lon="11.1835097"><ele>381.6666666666667</ele><time>2026-05-03T16:17:54.048Z</time></trkpt><trkpt lat="46.0830069" lon="11.1838195"><ele>383.0</ele><time>2026-05-03T16:17:55.048Z</time></trkpt><trkpt lat="46.0829385" lon="11.1841202"><ele>384.0</ele><time>2026-05-03T16:17:56.047Z</time></trkpt><trkpt lat="46.0828547" lon="11.184407"><ele>385.0</ele><time>2026-05-03T16:17:57.048Z</time></trkpt><trkpt lat="46.0827528" lon="11.1846882"><ele>386.0</ele><time>2026-05-03T16:17:58.048Z</time></trkpt><trkpt lat="46.0826455" lon="11.1849695"><ele>386.0</ele><time>2026-05-03T16:17:59.048Z</time></trkpt><trkpt lat="46.0825337" lon="11.185241"><ele>386.0</ele><time>2026-05-03T16:18:00.048Z</time></trkpt><trkpt lat="46.0824338" lon="11.1855113"><ele>386.0</ele><time>2026-05-03T16:18:01.048Z</time></trkpt><trkpt lat="46.0823423" lon="11.1857898"><ele>386.0</ele><time>2026-05-03T16:18:02.048Z</time></trkpt><trkpt lat="46.0822743" lon="11.1860816"><ele>386.0</ele><time>2026-05-03T16:18:03.048Z</time></trkpt><trkpt lat="46.0822334" lon="11.1863854"><ele>386.0</ele><time>2026-05-03T16:18:04.048Z</time></trkpt><trkpt lat="46.0822164" lon="11.1867028"><ele>385.0</ele><time>2026-05-03T16:18:05.047Z</time></trkpt><trkpt lat="46.0822313" lon="11.1870287"><ele>384.0</ele><time>2026-05-03T16:18:06.047Z</time></trkpt><trkpt lat="46.0822665" lon="11.1873667"><ele>383.0</ele><time>2026-05-03T16:18:07.048Z</time></trkpt><trkpt lat="46.0823076" lon="11.1877228"><ele>382.0</ele><time>2026-05-03T16:18:08.048Z</time></trkpt><trkpt lat="46.0823466" lon="11.1880786"><ele>383.0</ele><time>2026-05-03T16:18:09.048Z</time></trkpt><trkpt lat="46.0823836" lon="11.188431"><ele>384.0</ele><time>2026-05-03T16:18:10.048Z</time></trkpt><trkpt lat="46.0824221" lon="11.1887752"><ele>389.0</ele><time>2026-05-03T16:18:11.048Z</time></trkpt><trkpt lat="46.0824439" lon="11.1891207"><ele>394.0</ele><time>2026-05-03T16:18:12.048Z</time></trkpt><trkpt lat="46.0824485" lon="11.1894654"><ele>394.0</ele><time>2026-05-03T16:18:13.048Z</time></trkpt><trkpt lat="46.0824356" lon="11.1898052"><ele>394.0</ele><time>2026-05-03T16:18:14.048Z</time></trkpt><trkpt lat="46.0824036" lon="11.1901451"><ele>390.0</ele><time>2026-05-03T16:18:15.047Z</time></trkpt><trkpt lat="46.0823637" lon="11.1904789"><ele>386.0</ele><time>2026-05-03T16:18:16.048Z</time></trkpt><trkpt lat="46.082317" lon="11.1908081"><ele>386.0</ele><time>2026-05-03T16:18:17.048Z</time></trkpt><trkpt lat="46.0822706" lon="11.1911395"><ele>386.0</ele><time>2026-05-03T16:18:18.048Z</time></trkpt><trkpt lat="46.0822286" lon="11.191472"><ele>387.5</ele><time>2026-05-03T16:18:19.048Z</time></trkpt><trkpt lat="46.0821942" lon="11.1918022"><ele>389.0</ele><time>2026-05-03T16:18:20.048Z</time></trkpt><trkpt lat="46.0821653" lon="11.1921357"><ele>390.5</ele><time>2026-05-03T16:18:21.047Z</time></trkpt><trkpt lat="46.0821324" lon="11.192469"><ele>392.0</ele><time>2026-05-03T16:18:22.048Z</time></trkpt><trkpt lat="46.0821038" lon="11.1928008"><ele>392.0</ele><time>2026-05-03T16:18:23.048Z</time></trkpt><trkpt lat="46.0820742" lon="11.1931394"><ele>392.0</ele><time>2026-05-03T16:18:24.047Z</time></trkpt><trkpt lat="46.0820452" lon="11.1934783"><ele>394.0</ele><time>2026-05-03T16:18:25.048Z</time></trkpt><trkpt lat="46.0820167" lon="11.1938204"><ele>396.0</ele><time>2026-05-03T16:18:26.048Z</time></trkpt><trkpt lat="46.0819859" lon="11.1941651"><ele>397.5</ele><time>2026-05-03T16:18:27.047Z</time></trkpt><trkpt lat="46.0819554" lon="11.1945128"><ele>399.0</ele><time>2026-05-03T16:18:28.048Z</time></trkpt><trkpt lat="46.0819277" lon="11.194867"><ele>400.5</ele><time>2026-05-03T16:18:29.047Z</time></trkpt><trkpt lat="46.0819019" lon="11.1952231"><ele>402.0</ele><time>2026-05-03T16:18:30.048Z</time></trkpt><trkpt lat="46.0818778" lon="11.195582"><ele>403.0</ele><time>2026-05-03T16:18:31.048Z</time></trkpt><trkpt lat="46.0818568" lon="11.1959406"><ele>404.0</ele><time>2026-05-03T16:18:32.048Z</time></trkpt><trkpt lat="46.0818292" lon="11.1962944"><ele>404.0</ele><time>2026-05-03T16:18:33.047Z</time></trkpt><trkpt lat="46.081789" lon="11.1966498"><ele>404.0</ele><time>2026-05-03T16:18:34.048Z</time></trkpt><trkpt lat="46.0817247" lon="11.1969994"><ele>405.5</ele><time>2026-05-03T16:18:35.047Z</time></trkpt><trkpt lat="46.0816414" lon="11.1973387"><ele>407.0</ele><time>2026-05-03T16:18:36.048Z</time></trkpt><trkpt lat="46.0815369" lon="11.1976638"><ele>407.5</ele><time>2026-05-03T16:18:37.047Z</time></trkpt><trkpt lat="46.0814177" lon="11.1979828"><ele>408.0</ele><time>2026-05-03T16:18:38.047Z</time></trkpt><trkpt lat="46.0812861" lon="11.1982856"><ele>408.0</ele><time>2026-05-03T16:18:39.048Z</time></trkpt><trkpt lat="46.0811525" lon="11.1985918"><ele>408.0</ele><time>2026-05-03T16:18:40.048Z</time></trkpt><trkpt lat="46.0810236" lon="11.1989002"><ele>409.0</ele><time>2026-05-03T16:18:41.048Z</time></trkpt><trkpt lat="46.0808944" lon="11.1992149"><ele>410.0</ele><time>2026-05-03T16:18:42.048Z</time></trkpt><trkpt lat="46.0807616" lon="11.1995297"><ele>413.5</ele><time>2026-05-03T16:18:43.048Z</time></trkpt><trkpt lat="46.0806248" lon="11.1998475"><ele>417.0</ele><time>2026-05-03T16:18:44.048Z</time></trkpt><trkpt lat="46.0804904" lon="11.2001643"><ele>417.0</ele><time>2026-05-03T16:18:45.048Z</time></trkpt><trkpt lat="46.080354" lon="11.2004802"><ele>417.0</ele><time>2026-05-03T16:18:46.047Z</time></trkpt><trkpt lat="46.0802139" lon="11.200793"><ele>416.5</ele><time>2026-05-03T16:18:47.048Z</time></trkpt><trkpt lat="46.0800592" lon="11.2010966"><ele>416.0</ele><time>2026-05-03T16:18:48.048Z</time></trkpt><trkpt lat="46.0798904" lon="11.201386"><ele>418.5</ele><time>2026-05-03T16:18:49.048Z</time></trkpt><trkpt lat="46.0797127" lon="11.2016599"><ele>421.0</ele><time>2026-05-03T16:18:50.047Z</time></trkpt><trkpt lat="46.079523" lon="11.2019187"><ele>421.0</ele><time>2026-05-03T16:18:51.047Z</time></trkpt><trkpt lat="46.0793301" lon="11.202169"><ele>421.0</ele><time>2026-05-03T16:18:52.048Z</time></trkpt><trkpt lat="46.0791405" lon="11.2024253"><ele>421.5</ele><time>2026-05-03T16:18:53.047Z</time></trkpt><trkpt lat="46.078952" lon="11.2026803"><ele>422.0</ele><time>2026-05-03T16:18:54.047Z</time></trkpt><trkpt lat="46.0787574" lon="11.2029372"><ele>422.0</ele><time>2026-05-03T16:18:55.048Z</time></trkpt><trkpt lat="46.078564" lon="11.2031934"><ele>422.0</ele><time>2026-05-03T16:18:56.048Z</time></trkpt><trkpt lat="46.078372" lon="11.2034647"><ele>422.5</ele><time>2026-05-03T16:18:57.048Z</time></trkpt><trkpt lat="46.0781822" lon="11.2037377"><ele>423.0</ele><time>2026-05-03T16:18:58.048Z</time></trkpt><trkpt lat="46.0779896" lon="11.2040105"><ele>424.0</ele><time>2026-05-03T16:18:59.048Z</time></trkpt><trkpt lat="46.0777981" lon="11.2042795"><ele>425.0</ele><time>2026-05-03T16:19:00.048Z</time></trkpt><trkpt lat="46.0776104" lon="11.2045456"><ele>425.5</ele><time>2026-05-03T16:19:01.047Z</time></trkpt><trkpt lat="46.0774245" lon="11.2048076"><ele>426.0</ele><time>2026-05-03T16:19:02.048Z</time></trkpt><trkpt lat="46.0772466" lon="11.2050702"><ele>426.0</ele><time>2026-05-03T16:19:03.048Z</time></trkpt><trkpt lat="46.0770759" lon="11.2053374"><ele>426.0</ele><time>2026-05-03T16:19:04.047Z</time></trkpt><trkpt lat="46.0769119" lon="11.2056094"><ele>427.0</ele><time>2026-05-03T16:19:05.048Z</time></trkpt><trkpt lat="46.0767576" lon="11.2058954"><ele>428.0</ele><time>2026-05-03T16:19:06.048Z</time></trkpt><trkpt lat="46.0766099" lon="11.2061864"><ele>427.0</ele><time>2026-05-03T16:19:07.048Z</time></trkpt><trkpt lat="46.0764694" lon="11.2064879"><ele>426.0</ele><time>2026-05-03T16:19:08.048Z</time></trkpt><trkpt lat="46.0763411" lon="11.2068034"><ele>426.0</ele><time>2026-05-03T16:19:09.048Z</time></trkpt><trkpt lat="46.0762275" lon="11.2071225"><ele>426.0</ele><time>2026-05-03T16:19:10.048Z</time></trkpt><trkpt lat="46.0761185" lon="11.207446"><ele>426.5</ele><time>2026-05-03T16:19:11.048Z</time></trkpt><trkpt lat="46.0760116" lon="11.2077591"><ele>427.0</ele><time>2026-05-03T16:19:12.047Z</time></trkpt><trkpt lat="46.0758985" lon="11.2080783"><ele>427.0</ele><time>2026-05-03T16:19:13.048Z</time></trkpt><trkpt lat="46.0757881" lon="11.2083978"><ele>427.0</ele><time>2026-05-03T16:19:14.048Z</time></trkpt><trkpt lat="46.075684" lon="11.2087167"><ele>429.0</ele><time>2026-05-03T16:19:15.047Z</time></trkpt><trkpt lat="46.0755725" lon="11.2090334"><ele>431.0</ele><time>2026-05-03T16:19:16.048Z</time></trkpt><trkpt lat="46.075463" lon="11.2093447"><ele>431.0</ele><time>2026-05-03T16:19:17.048Z</time></trkpt><trkpt lat="46.0753444" lon="11.2096521"><ele>431.0</ele><time>2026-05-03T16:19:18.048Z</time></trkpt><trkpt lat="46.0752204" lon="11.2099546"><ele>432.5</ele><time>2026-05-03T16:19:19.048Z</time></trkpt><trkpt lat="46.075088" lon="11.2102497"><ele>434.0</ele><time>2026-05-03T16:19:20.047Z</time></trkpt><trkpt lat="46.0749422" lon="11.210537"><ele>433.5</ele><time>2026-05-03T16:19:21.048Z</time></trkpt><trkpt lat="46.0747949" lon="11.2108245"><ele>433.0</ele><time>2026-05-03T16:19:22.047Z</time></trkpt><trkpt lat="46.0746434" lon="11.2111161"><ele>433.0</ele><time>2026-05-03T16:19:23.048Z</time></trkpt><trkpt lat="46.0744923" lon="11.2113965"><ele>433.0</ele><time>2026-05-03T16:19:24.047Z</time></trkpt><trkpt lat="46.0743388" lon="11.2116924"><ele>432.5</ele><time>2026-05-03T16:19:25.047Z</time></trkpt><trkpt lat="46.0741841" lon="11.2120047"><ele>432.0</ele><time>2026-05-03T16:19:26.048Z</time></trkpt><trkpt lat="46.0740225" lon="11.2123295"><ele>432.0</ele><time>2026-05-03T16:19:27.048Z</time></trkpt><trkpt lat="46.07385" lon="11.2126556"><ele>432.0</ele><time>2026-05-03T16:19:28.048Z</time></trkpt><trkpt lat="46.0736856" lon="11.2129646"><ele>435.5</ele><time>2026-05-03T16:19:29.048Z</time></trkpt><trkpt lat="46.0735317" lon="11.213249"><ele>439.0</ele><time>2026-05-03T16:19:30.048Z</time></trkpt><trkpt lat="46.0733829" lon="11.2135179"><ele>438.6666666666667</ele><time>2026-05-03T16:19:31.047Z</time></trkpt><trkpt lat="46.0732447" lon="11.2137755"><ele>438.33333333333337</ele><time>2026-05-03T16:19:32.047Z</time></trkpt><trkpt lat="46.0731099" lon="11.2140131"><ele>438.0</ele><time>2026-05-03T16:19:33.048Z</time></trkpt><trkpt lat="46.0729787" lon="11.2142478"><ele>438.0</ele><time>2026-05-03T16:19:34.048Z</time></trkpt><trkpt lat="46.072859" lon="11.2144654"><ele>438.0</ele><time>2026-05-03T16:19:35.048Z</time></trkpt><trkpt lat="46.0727414" lon="11.2146804"><ele>438.0</ele><time>2026-05-03T16:19:36.048Z</time></trkpt><trkpt lat="46.072622" lon="11.214896"><ele>437.33333333333337</ele><time>2026-05-03T16:19:37.047Z</time></trkpt><trkpt lat="46.0724918" lon="11.2151075"><ele>436.6666666666667</ele><time>2026-05-03T16:19:38.048Z</time></trkpt><trkpt lat="46.0723554" lon="11.2153106"><ele>436.0</ele><time>2026-05-03T16:19:39.048Z</time></trkpt><trkpt lat="46.0722168" lon="11.2155077"><ele>437.6666666666667</ele><time>2026-05-03T16:19:40.048Z</time></trkpt><trkpt lat="46.0720724" lon="11.2156832"><ele>439.33333333333337</ele><time>2026-05-03T16:19:41.048Z</time></trkpt><trkpt lat="46.0719189" lon="11.2158484"><ele>441.0</ele><time>2026-05-03T16:19:42.047Z</time></trkpt><trkpt lat="46.0717682" lon="11.2160031"><ele>441.0</ele><time>2026-05-03T16:19:43.048Z</time></trkpt><trkpt lat="46.0716163" lon="11.2161509"><ele>441.0</ele><time>2026-05-03T16:19:44.048Z</time></trkpt><trkpt lat="46.0714719" lon="11.2162932"><ele>441.0</ele><time>2026-05-03T16:19:45.048Z</time></trkpt><trkpt lat="46.0713316" lon="11.2164208"><ele>442.0</ele><time>2026-05-03T16:19:46.047Z</time></trkpt><trkpt lat="46.0711939" lon="11.2165492"><ele>443.0</ele><time>2026-05-03T16:19:47.047Z</time></trkpt><trkpt lat="46.0710609" lon="11.2166705"><ele>444.0</ele><time>2026-05-03T16:19:48.048Z</time></trkpt><trkpt lat="46.0709371" lon="11.2167898"><ele>444.0</ele><time>2026-05-03T16:19:49.047Z</time></trkpt><trkpt lat="46.070814" lon="11.2169099"><ele>444.0</ele><time>2026-05-03T16:19:50.048Z</time></trkpt><trkpt lat="46.0706929" lon="11.2170273"><ele>444.0</ele><time>2026-05-03T16:19:51.047Z</time></trkpt><trkpt lat="46.0705826" lon="11.2171497"><ele>444.0</ele><time>2026-05-03T16:19:52.048Z</time></trkpt><trkpt lat="46.070485" lon="11.2172775"><ele>443.75</ele><time>2026-05-03T16:19:53.048Z</time></trkpt><trkpt lat="46.0704013" lon="11.2174363"><ele>443.5</ele><time>2026-05-03T16:19:54.047Z</time></trkpt><trkpt lat="46.0703337" lon="11.2176174"><ele>443.25</ele><time>2026-05-03T16:19:55.047Z</time></trkpt><trkpt lat="46.0702893" lon="11.2178155"><ele>443.0</ele><time>2026-05-03T16:19:56.046Z</time></trkpt><trkpt lat="46.0702563" lon="11.2180206"><ele>444.0</ele><time>2026-05-03T16:19:57.047Z</time></trkpt><trkpt lat="46.0702382" lon="11.2182414"><ele>445.0</ele><time>2026-05-03T16:19:58.047Z</time></trkpt><trkpt lat="46.0702393" lon="11.2184784"><ele>446.0</ele><time>2026-05-03T16:19:59.047Z</time></trkpt><trkpt lat="46.0702429" lon="11.2187132"><ele>446.0</ele><time>2026-05-03T16:20:00.047Z</time></trkpt><trkpt lat="46.0702411" lon="11.2189486"><ele>446.0</ele><time>2026-05-03T16:20:01.047Z</time></trkpt><trkpt lat="46.0702391" lon="11.2191634"><ele>446.0</ele><time>2026-05-03T16:20:02.046Z</time></trkpt><trkpt lat="46.0702343" lon="11.2193718"><ele>446.5</ele><time>2026-05-03T16:20:03.047Z</time></trkpt><trkpt lat="46.0702351" lon="11.2195667"><ele>447.0</ele><time>2026-05-03T16:20:04.046Z</time></trkpt><trkpt lat="46.0702454" lon="11.219753"><ele>447.5</ele><time>2026-05-03T16:20:05.047Z</time></trkpt><trkpt lat="46.0702601" lon="11.2199444"><ele>448.0</ele><time>2026-05-03T16:20:06.046Z</time></trkpt><trkpt lat="46.0702697" lon="11.2201291"><ele>448.0</ele><time>2026-05-03T16:20:07.046Z</time></trkpt><trkpt lat="46.0702677" lon="11.2202981"><ele>447.99999999999994</ele><time>2026-05-03T16:20:08.047Z</time></trkpt><trkpt lat="46.0702518" lon="11.2204571"><ele>447.99999999999994</ele><time>2026-05-03T16:20:09.047Z</time></trkpt><trkpt lat="46.0702405" lon="11.2206041"><ele>448.0</ele><time>2026-05-03T16:20:10.047Z</time></trkpt><trkpt lat="46.070228" lon="11.2207493"><ele>448.0</ele><time>2026-05-03T16:20:11.047Z</time></trkpt><trkpt lat="46.0702191" lon="11.2208841"><ele>448.33333333333337</ele><time>2026-05-03T16:20:12.046Z</time></trkpt><trkpt lat="46.0702054" lon="11.2210203"><ele>448.6666666666667</ele><time>2026-05-03T16:20:13.047Z</time></trkpt><trkpt lat="46.0701893" lon="11.2211385"><ele>449.0</ele><time>2026-05-03T16:20:14.047Z</time></trkpt><trkpt lat="46.0701545" lon="11.2212263"><ele>449.33333333333337</ele><time>2026-05-03T16:20:15.046Z</time></trkpt><trkpt lat="46.0700728" lon="11.2212953"><ele>449.6666666666667</ele><time>2026-05-03T16:20:17.047Z</time></trkpt><trkpt lat="46.0699959" lon="11.2213683"><ele>450.0</ele><time>2026-05-03T16:20:19.047Z</time></trkpt><trkpt lat="46.069956" lon="11.2214693"><ele>450.0</ele><time>2026-05-03T16:20:21.046Z</time></trkpt><trkpt lat="46.0700448" lon="11.2214655"><ele>450.0</ele><time>2026-05-03T16:23:39.046Z</time></trkpt><trkpt lat="46.0701087" lon="11.2214508"><ele>450.0</ele><time>2026-05-03T16:23:41.047Z</time></trkpt><trkpt lat="46.0701656" lon="11.2215791"><ele>450.0</ele><time>2026-05-03T16:23:45.046Z</time></trkpt><trkpt lat="46.0701427" lon="11.2217028"><ele>450.0</ele><time>2026-05-03T16:23:46.046Z</time></trkpt><trkpt lat="46.0701252" lon="11.221839"><ele>450.0</ele><time>2026-05-03T16:23:47.045Z</time></trkpt><trkpt lat="46.0701079" lon="11.2220008"><ele>451.25</ele><time>2026-05-03T16:23:48.045Z</time></trkpt><trkpt lat="46.0700913" lon="11.2221633"><ele>452.5</ele><time>2026-05-03T16:23:49.045Z</time></trkpt><trkpt lat="46.0700705" lon="11.2223323"><ele>453.75</ele><time>2026-05-03T16:23:50.045Z</time></trkpt><trkpt lat="46.0700473" lon="11.222513"><ele>455.0</ele><time>2026-05-03T16:23:51.045Z</time></trkpt><trkpt lat="46.0700343" lon="11.2226844"><ele>454.8</ele><time>2026-05-03T16:23:52.046Z</time></trkpt><trkpt lat="46.0700169" lon="11.2228402"><ele>454.6</ele><time>2026-05-03T16:23:53.046Z</time></trkpt><trkpt lat="46.069991" lon="11.2229817"><ele>454.4</ele><time>2026-05-03T16:23:54.046Z</time></trkpt><trkpt lat="46.0699559" lon="11.223125"><ele>454.2</ele><time>2026-05-03T16:23:55.045Z</time></trkpt><trkpt lat="46.0699095" lon="11.22326"><ele>454.0</ele><time>2026-05-03T16:23:56.046Z</time></trkpt><trkpt lat="46.0698508" lon="11.2233888"><ele>454.0</ele><time>2026-05-03T16:23:57.046Z</time></trkpt><trkpt lat="46.0697867" lon="11.2235173"><ele>454.0</ele><time>2026-05-03T16:23:58.046Z</time></trkpt><trkpt lat="46.0697127" lon="11.2236432"><ele>454.0</ele><time>2026-05-03T16:23:59.045Z</time></trkpt><trkpt lat="46.0696284" lon="11.223762"><ele>454.0</ele><time>2026-05-03T16:24:00.046Z</time></trkpt><trkpt lat="46.069543" lon="11.2238719"><ele>454.0</ele><time>2026-05-03T16:24:01.046Z</time></trkpt><trkpt lat="46.0694528" lon="11.2239764"><ele>454.0</ele><time>2026-05-03T16:24:02.045Z</time></trkpt><trkpt lat="46.0693582" lon="11.2240723"><ele>454.0</ele><time>2026-05-03T16:24:03.046Z</time></trkpt><trkpt lat="46.0692594" lon="11.2241681"><ele>454.0</ele><time>2026-05-03T16:24:04.046Z</time></trkpt><trkpt lat="46.0691592" lon="11.2242656"><ele>454.75</ele><time>2026-05-03T16:24:05.045Z</time></trkpt><trkpt lat="46.0690608" lon="11.2243629"><ele>455.5</ele><time>2026-05-03T16:24:06.046Z</time></trkpt><trkpt lat="46.0689615" lon="11.2244559"><ele>456.25</ele><time>2026-05-03T16:24:07.045Z</time></trkpt><trkpt lat="46.0688587" lon="11.2245522"><ele>457.0</ele><time>2026-05-03T16:24:08.045Z</time></trkpt><trkpt lat="46.0687539" lon="11.224648"><ele>457.0</ele><time>2026-05-03T16:24:09.046Z</time></trkpt><trkpt lat="46.06865" lon="11.2247427"><ele>457.0</ele><time>2026-05-03T16:24:10.045Z</time></trkpt><trkpt lat="46.0685446" lon="11.2248302"><ele>457.0</ele><time>2026-05-03T16:24:11.046Z</time></trkpt><trkpt lat="46.0684355" lon="11.2249164"><ele>457.0</ele><time>2026-05-03T16:24:12.046Z</time></trkpt><trkpt lat="46.0683306" lon="11.2250135"><ele>457.0</ele><time>2026-05-03T16:24:13.046Z</time></trkpt><trkpt lat="46.0682325" lon="11.2251068"><ele>457.0</ele><time>2026-05-03T16:24:14.046Z</time></trkpt><trkpt lat="46.06813" lon="11.2252055"><ele>457.0</ele><time>2026-05-03T16:24:15.046Z</time></trkpt><trkpt lat="46.0680278" lon="11.2253047"><ele>457.0</ele><time>2026-05-03T16:24:16.046Z</time></trkpt><trkpt lat="46.0679222" lon="11.2254151"><ele>457.0</ele><time>2026-05-03T16:24:17.046Z</time></trkpt><trkpt lat="46.0678201" lon="11.225524"><ele>457.0</ele><time>2026-05-03T16:24:18.045Z</time></trkpt><trkpt lat="46.0677245" lon="11.2256336"><ele>457.0</ele><time>2026-05-03T16:24:19.046Z</time></trkpt><trkpt lat="46.0676432" lon="11.2257403"><ele>457.0</ele><time>2026-05-03T16:24:20.046Z</time></trkpt><trkpt lat="46.0675678" lon="11.2258404"><ele>457.6666666666667</ele><time>2026-05-03T16:24:21.045Z</time></trkpt><trkpt lat="46.067499" lon="11.2259358"><ele>458.33333333333337</ele><time>2026-05-03T16:24:22.046Z</time></trkpt><trkpt lat="46.0674328" lon="11.2260245"><ele>459.0</ele><time>2026-05-03T16:24:23.046Z</time></trkpt><trkpt lat="46.0673686" lon="11.2261032"><ele>459.66666666666663</ele><time>2026-05-03T16:24:24.046Z</time></trkpt><trkpt lat="46.067312" lon="11.2261741"><ele>460.3333333333333</ele><time>2026-05-03T16:24:25.046Z</time></trkpt><trkpt lat="46.0672649" lon="11.2262449"><ele>461.0</ele><time>2026-05-03T16:24:26.046Z</time></trkpt><trkpt lat="46.0671959" lon="11.2263846"><ele>461.20000000000005</ele><time>2026-05-03T16:24:28.045Z</time></trkpt><trkpt lat="46.0671893" lon="11.2265415"><ele>461.40000000000003</ele><time>2026-05-03T16:24:30.046Z</time></trkpt><trkpt lat="46.0672874" lon="11.2266819"><ele>461.6</ele><time>2026-05-03T16:24:32.045Z</time></trkpt><trkpt lat="46.0673404" lon="11.2267607"><ele>461.8</ele><time>2026-05-03T16:24:33.046Z</time></trkpt><trkpt lat="46.0673894" lon="11.2268651"><ele>462.0</ele><time>2026-05-03T16:24:34.046Z</time></trkpt><trkpt lat="46.0674336" lon="11.2270072"><ele>461.75</ele><time>2026-05-03T16:24:35.045Z</time></trkpt><trkpt lat="46.0674686" lon="11.2271563"><ele>461.5</ele><time>2026-05-03T16:24:36.045Z</time></trkpt><trkpt lat="46.0675" lon="11.2273218"><ele>461.25</ele><time>2026-05-03T16:24:37.045Z</time></trkpt><trkpt lat="46.0675288" lon="11.2274984"><ele>461.0</ele><time>2026-05-03T16:24:38.046Z</time></trkpt><trkpt lat="46.0675615" lon="11.2276792"><ele>460.75</ele><time>2026-05-03T16:24:39.045Z</time></trkpt><trkpt lat="46.0676012" lon="11.2278663"><ele>460.5</ele><time>2026-05-03T16:24:40.045Z</time></trkpt><trkpt lat="46.0676384" lon="11.2280661"><ele>460.25</ele><time>2026-05-03T16:24:41.046Z</time></trkpt><trkpt lat="46.0676781" lon="11.228273"><ele>460.0</ele><time>2026-05-03T16:24:42.046Z</time></trkpt><trkpt lat="46.0677123" lon="11.2284842"><ele>460.6666666666667</ele><time>2026-05-03T16:24:43.046Z</time></trkpt><trkpt lat="46.0677499" lon="11.2286938"><ele>461.33333333333337</ele><time>2026-05-03T16:24:44.046Z</time></trkpt><trkpt lat="46.0677886" lon="11.2289028"><ele>462.0</ele><time>2026-05-03T16:24:45.045Z</time></trkpt><trkpt lat="46.0678283" lon="11.2291105"><ele>462.66666666666663</ele><time>2026-05-03T16:24:46.045Z</time></trkpt><trkpt lat="46.0678681" lon="11.2293273"><ele>463.3333333333333</ele><time>2026-05-03T16:24:47.046Z</time></trkpt><trkpt lat="46.0679038" lon="11.2295473"><ele>464.0</ele><time>2026-05-03T16:24:48.046Z</time></trkpt><trkpt lat="46.0679391" lon="11.229766"><ele>464.0</ele><time>2026-05-03T16:24:49.046Z</time></trkpt><trkpt lat="46.0679763" lon="11.2299808"><ele>464.0</ele><time>2026-05-03T16:24:50.046Z</time></trkpt><trkpt lat="46.0680156" lon="11.2301946"><ele>464.0</ele><time>2026-05-03T16:24:51.045Z</time></trkpt><trkpt lat="46.0680521" lon="11.2303972"><ele>464.0</ele><time>2026-05-03T16:24:52.046Z</time></trkpt><trkpt lat="46.0680919" lon="11.2306037"><ele>464.0</ele><time>2026-05-03T16:24:53.045Z</time></trkpt><trkpt lat="46.0681255" lon="11.2308049"><ele>464.0</ele><time>2026-05-03T16:24:54.046Z</time></trkpt><trkpt lat="46.0681566" lon="11.2310029"><ele>464.0</ele><time>2026-05-03T16:24:55.045Z</time></trkpt><trkpt lat="46.0681975" lon="11.231202"><ele>464.5</ele><time>2026-05-03T16:24:56.046Z</time></trkpt><trkpt lat="46.068233" lon="11.2314018"><ele>465.0</ele><time>2026-05-03T16:24:57.046Z</time></trkpt><trkpt lat="46.068272" lon="11.2316043"><ele>465.5</ele><time>2026-05-03T16:24:58.046Z</time></trkpt><trkpt lat="46.068308" lon="11.2318015"><ele>466.0</ele><time>2026-05-03T16:24:59.045Z</time></trkpt><trkpt lat="46.0683462" lon="11.2319867"><ele>466.5</ele><time>2026-05-03T16:25:00.046Z</time></trkpt><trkpt lat="46.068383" lon="11.2321676"><ele>467.0</ele><time>2026-05-03T16:25:01.045Z</time></trkpt><trkpt lat="46.0684155" lon="11.2323501"><ele>467.5</ele><time>2026-05-03T16:25:02.046Z</time></trkpt><trkpt lat="46.0684521" lon="11.2325375"><ele>468.0</ele><time>2026-05-03T16:25:03.046Z</time></trkpt><trkpt lat="46.0684896" lon="11.2327259"><ele>468.5</ele><time>2026-05-03T16:25:04.046Z</time></trkpt><trkpt lat="46.0685244" lon="11.2329155"><ele>469.0</ele><time>2026-05-03T16:25:05.046Z</time></trkpt><trkpt lat="46.0685572" lon="11.2331094"><ele>469.5</ele><time>2026-05-03T16:25:06.045Z</time></trkpt><trkpt lat="46.0685879" lon="11.2333016"><ele>470.0</ele><time>2026-05-03T16:25:07.045Z</time></trkpt><trkpt lat="46.0686203" lon="11.2334852"><ele>470.5</ele><time>2026-05-03T16:25:08.046Z</time></trkpt><trkpt lat="46.068652" lon="11.2336669"><ele>471.0</ele><time>2026-05-03T16:25:09.045Z</time></trkpt><trkpt lat="46.0686844" lon="11.2338432"><ele>471.5</ele><time>2026-05-03T16:25:10.046Z</time></trkpt><trkpt lat="46.0687191" lon="11.234014"><ele>472.0</ele><time>2026-05-03T16:25:11.046Z</time></trkpt><trkpt lat="46.0687537" lon="11.2341943"><ele>472.25</ele><time>2026-05-03T16:25:12.045Z</time></trkpt><trkpt lat="46.0687877" lon="11.2343709"><ele>472.5</ele><time>2026-05-03T16:25:13.046Z</time></trkpt><trkpt lat="46.0688238" lon="11.2345491"><ele>472.75</ele><time>2026-05-03T16:25:14.046Z</time></trkpt><trkpt lat="46.068855" lon="11.234733"><ele>473.0</ele><time>2026-05-03T16:25:15.046Z</time></trkpt><trkpt lat="46.0688878" lon="11.2349231"><ele>473.5</ele><time>2026-05-03T16:25:16.046Z</time></trkpt><trkpt lat="46.0689196" lon="11.2351077"><ele>474.0</ele><time>2026-05-03T16:25:17.046Z</time></trkpt><trkpt lat="46.0689523" lon="11.2352919"><ele>474.5</ele><time>2026-05-03T16:25:18.046Z</time></trkpt><trkpt lat="46.0689867" lon="11.2354869"><ele>475.0</ele><time>2026-05-03T16:25:19.046Z</time></trkpt><trkpt lat="46.0690255" lon="11.2356782"><ele>475.25</ele><time>2026-05-03T16:25:20.045Z</time></trkpt><trkpt lat="46.0690668" lon="11.2358759"><ele>475.5</ele><time>2026-05-03T16:25:21.046Z</time></trkpt><trkpt lat="46.0690994" lon="11.2360736"><ele>475.75</ele><time>2026-05-03T16:25:22.046Z</time></trkpt><trkpt lat="46.069134" lon="11.2362704"><ele>476.0</ele><time>2026-05-03T16:25:23.046Z</time></trkpt><trkpt lat="46.0691677" lon="11.2364722"><ele>476.5</ele><time>2026-05-03T16:25:24.046Z</time></trkpt><trkpt lat="46.0692049" lon="11.2366706"><ele>477.0</ele><time>2026-05-03T16:25:25.046Z</time></trkpt><trkpt lat="46.0692381" lon="11.2368698"><ele>477.5</ele><time>2026-05-03T16:25:26.045Z</time></trkpt><trkpt lat="46.0692657" lon="11.237051"><ele>478.0</ele><time>2026-05-03T16:25:27.045Z</time></trkpt><trkpt lat="46.069298" lon="11.2372139"><ele>478.4</ele><time>2026-05-03T16:25:28.046Z</time></trkpt><trkpt lat="46.0693249" lon="11.2373696"><ele>478.79999999999995</ele><time>2026-05-03T16:25:29.046Z</time></trkpt><trkpt lat="46.0693552" lon="11.2375094"><ele>479.2</ele><time>2026-05-03T16:25:30.046Z</time></trkpt><trkpt lat="46.0693829" lon="11.2376385"><ele>479.6</ele><time>2026-05-03T16:25:31.045Z</time></trkpt><trkpt lat="46.0694024" lon="11.2377594"><ele>480.0</ele><time>2026-05-03T16:25:32.046Z</time></trkpt><trkpt lat="46.0694213" lon="11.2378767"><ele>480.0</ele><time>2026-05-03T16:25:33.046Z</time></trkpt><trkpt lat="46.0694427" lon="11.2379949"><ele>480.0</ele><time>2026-05-03T16:25:34.045Z</time></trkpt><trkpt lat="46.0694591" lon="11.2381046"><ele>480.0</ele><time>2026-05-03T16:25:35.046Z</time></trkpt><trkpt lat="46.0694751" lon="11.238197"><ele>480.0</ele><time>2026-05-03T16:25:36.046Z</time></trkpt><trkpt lat="46.069489" lon="11.238364"><ele>480.0</ele><time>2026-05-03T16:25:38.046Z</time></trkpt><trkpt lat="46.0694323" lon="11.2385289"><ele>480.0</ele><time>2026-05-03T16:25:40.046Z</time></trkpt><trkpt lat="46.0693761" lon="11.2385942"><ele>480.0</ele><time>2026-05-03T16:25:41.046Z</time></trkpt><trkpt lat="46.0692977" lon="11.2386626"><ele>480.0</ele><time>2026-05-03T16:25:42.046Z</time></trkpt><trkpt lat="46.0692141" lon="11.2387448"><ele>480.0</ele><time>2026-05-03T16:25:43.045Z</time></trkpt><trkpt lat="46.0691304" lon="11.2388223"><ele>480.0</ele><time>2026-05-03T16:25:44.046Z</time></trkpt><trkpt lat="46.0690396" lon="11.2388995"><ele>480.5</ele><time>2026-05-03T16:25:45.046Z</time></trkpt><trkpt lat="46.0689421" lon="11.2389903"><ele>481.0</ele><time>2026-05-03T16:25:46.045Z</time></trkpt><trkpt lat="46.0688427" lon="11.2390884"><ele>481.5</ele><time>2026-05-03T16:25:47.045Z</time></trkpt><trkpt lat="46.068743" lon="11.2391905"><ele>482.0</ele><time>2026-05-03T16:25:48.046Z</time></trkpt><trkpt lat="46.0686456" lon="11.2392828"><ele>482.0</ele><time>2026-05-03T16:25:49.046Z</time></trkpt><trkpt lat="46.0685453" lon="11.2393661"><ele>482.0</ele><time>2026-05-03T16:25:50.046Z</time></trkpt><trkpt lat="46.0684385" lon="11.2394392"><ele>482.0</ele><time>2026-05-03T16:25:51.045Z</time></trkpt><trkpt lat="46.0683299" lon="11.2395067"><ele>482.0</ele><time>2026-05-03T16:25:52.046Z</time></trkpt><trkpt lat="46.0682177" lon="11.2395618"><ele>482.25</ele><time>2026-05-03T16:25:53.046Z</time></trkpt><trkpt lat="46.0681062" lon="11.2396035"><ele>482.5</ele><time>2026-05-03T16:25:54.046Z</time></trkpt><trkpt lat="46.067991" lon="11.239641"><ele>482.75</ele><time>2026-05-03T16:25:55.046Z</time></trkpt><trkpt lat="46.0678701" lon="11.239673"><ele>483.0</ele><time>2026-05-03T16:25:56.046Z</time></trkpt><trkpt lat="46.0677479" lon="11.2396989"><ele>483.0</ele><time>2026-05-03T16:25:57.046Z</time></trkpt><trkpt lat="46.0676257" lon="11.2397228"><ele>483.0</ele><time>2026-05-03T16:25:58.045Z</time></trkpt><trkpt lat="46.0675136" lon="11.2397573"><ele>483.0</ele><time>2026-05-03T16:25:59.046Z</time></trkpt><trkpt lat="46.0674095" lon="11.2398112"><ele>483.0</ele><time>2026-05-03T16:26:00.046Z</time></trkpt><trkpt lat="46.0673022" lon="11.2398862"><ele>483.0</ele><time>2026-05-03T16:26:01.046Z</time></trkpt><trkpt lat="46.0672044" lon="11.2399619"><ele>482.99999999999994</ele><time>2026-05-03T16:26:02.046Z</time></trkpt><trkpt lat="46.0671064" lon="11.2400474"><ele>482.99999999999994</ele><time>2026-05-03T16:26:03.046Z</time></trkpt><trkpt lat="46.0670092" lon="11.2401357"><ele>483.0</ele><time>2026-05-03T16:26:04.046Z</time></trkpt><trkpt lat="46.066921" lon="11.2402161"><ele>483.0</ele><time>2026-05-03T16:26:05.045Z</time></trkpt><trkpt lat="46.066839" lon="11.2402996"><ele>483.0</ele><time>2026-05-03T16:26:06.046Z</time></trkpt><trkpt lat="46.0667595" lon="11.2403829"><ele>482.99999999999994</ele><time>2026-05-03T16:26:07.046Z</time></trkpt><trkpt lat="46.0666833" lon="11.2404539"><ele>482.99999999999994</ele><time>2026-05-03T16:26:08.046Z</time></trkpt><trkpt lat="46.06661" lon="11.2405254"><ele>483.0</ele><time>2026-05-03T16:26:09.046Z</time></trkpt><trkpt lat="46.0665362" lon="11.2406084"><ele>483.0</ele><time>2026-05-03T16:26:10.046Z</time></trkpt><trkpt lat="46.0664615" lon="11.2406962"><ele>483.0</ele><time>2026-05-03T16:26:11.046Z</time></trkpt><trkpt lat="46.0663875" lon="11.2407998"><ele>482.99999999999994</ele><time>2026-05-03T16:26:12.046Z</time></trkpt><trkpt lat="46.0663173" lon="11.2409103"><ele>482.99999999999994</ele><time>2026-05-03T16:26:13.046Z</time></trkpt><trkpt lat="46.0662422" lon="11.2410244"><ele>483.0</ele><time>2026-05-03T16:26:14.046Z</time></trkpt><trkpt lat="46.0661617" lon="11.241138"><ele>483.0</ele><time>2026-05-03T16:26:15.045Z</time></trkpt><trkpt lat="46.0660761" lon="11.241246"><ele>483.0</ele><time>2026-05-03T16:26:16.045Z</time></trkpt><trkpt lat="46.065992" lon="11.2413414"><ele>482.99999999999994</ele><time>2026-05-03T16:26:17.045Z</time></trkpt><trkpt lat="46.0659062" lon="11.2414225"><ele>482.99999999999994</ele><time>2026-05-03T16:26:18.045Z</time></trkpt><trkpt lat="46.065817" lon="11.2414928"><ele>483.0</ele><time>2026-05-03T16:26:19.045Z</time></trkpt><trkpt lat="46.0657253" lon="11.2415547"><ele>483.0</ele><time>2026-05-03T16:26:20.046Z</time></trkpt><trkpt lat="46.065626" lon="11.2416089"><ele>483.2</ele><time>2026-05-03T16:26:21.046Z</time></trkpt><trkpt lat="46.0655203" lon="11.2416519"><ele>483.4</ele><time>2026-05-03T16:26:22.046Z</time></trkpt><trkpt lat="46.065408" lon="11.2416951"><ele>483.59999999999997</ele><time>2026-05-03T16:26:23.046Z</time></trkpt><trkpt lat="46.0653067" lon="11.24173"><ele>483.79999999999995</ele><time>2026-05-03T16:26:24.046Z</time></trkpt><trkpt lat="46.0652017" lon="11.2417677"><ele>484.0</ele><time>2026-05-03T16:26:25.045Z</time></trkpt><trkpt lat="46.0651083" lon="11.2418131"><ele>484.0</ele><time>2026-05-03T16:26:26.046Z</time></trkpt><trkpt lat="46.0650164" lon="11.2418486"><ele>484.0</ele><time>2026-05-03T16:26:27.046Z</time></trkpt><trkpt lat="46.0649323" lon="11.2418816"><ele>484.0</ele><time>2026-05-03T16:26:28.045Z</time></trkpt><trkpt lat="46.0648576" lon="11.2418882"><ele>484.0</ele><time>2026-05-03T16:26:29.045Z</time></trkpt><trkpt lat="46.0647487" lon="11.2418525"><ele>484.0</ele><time>2026-05-03T16:26:31.046Z</time></trkpt><trkpt lat="46.0646512" lon="11.2418732"><ele>484.00000000000006</ele><time>2026-05-03T16:26:33.046Z</time></trkpt><trkpt lat="46.0646308" lon="11.2420143"><ele>484.0</ele><time>2026-05-03T16:26:35.045Z</time></trkpt><trkpt lat="46.0647046" lon="11.24214"><ele>484.0</ele><time>2026-05-03T16:26:37.046Z</time></trkpt><trkpt lat="46.0647498" lon="11.2422047"><ele>484.0</ele><time>2026-05-03T16:26:38.046Z</time></trkpt><trkpt lat="46.0647993" lon="11.2422852"><ele>484.00000000000006</ele><time>2026-05-03T16:26:39.045Z</time></trkpt><trkpt lat="46.0648396" lon="11.2423717"><ele>484.0</ele><time>2026-05-03T16:26:40.046Z</time></trkpt><trkpt lat="46.0648694" lon="11.242471"><ele>484.50000000000006</ele><time>2026-05-03T16:26:41.046Z</time></trkpt><trkpt lat="46.0649029" lon="11.2425738"><ele>485.0</ele><time>2026-05-03T16:26:42.046Z</time></trkpt><trkpt lat="46.0649417" lon="11.2426795"><ele>485.5</ele><time>2026-05-03T16:26:43.046Z</time></trkpt><trkpt lat="46.06498" lon="11.2427915"><ele>486.0</ele><time>2026-05-03T16:26:44.046Z</time></trkpt><trkpt lat="46.0650204" lon="11.2429067"><ele>486.50000000000006</ele><time>2026-05-03T16:26:45.046Z</time></trkpt><trkpt lat="46.0650586" lon="11.2430275"><ele>487.0</ele><time>2026-05-03T16:26:46.046Z</time></trkpt><trkpt lat="46.0650933" lon="11.243155"><ele>487.0</ele><time>2026-05-03T16:26:47.045Z</time></trkpt><trkpt lat="46.0651307" lon="11.243289"><ele>487.00000000000006</ele><time>2026-05-03T16:26:48.046Z</time></trkpt><trkpt lat="46.0651625" lon="11.2434189"><ele>487.00000000000006</ele><time>2026-05-03T16:26:49.045Z</time></trkpt><trkpt lat="46.0651944" lon="11.2435573"><ele>487.0</ele><time>2026-05-03T16:26:50.046Z</time></trkpt><trkpt lat="46.0652306" lon="11.2436847"><ele>487.0</ele><time>2026-05-03T16:26:51.046Z</time></trkpt><trkpt lat="46.065268" lon="11.2438041"><ele>487.00000000000006</ele><time>2026-05-03T16:26:52.045Z</time></trkpt><trkpt lat="46.0653083" lon="11.2439171"><ele>487.0</ele><time>2026-05-03T16:26:53.045Z</time></trkpt><trkpt lat="46.0653439" lon="11.2440224"><ele>487.0</ele><time>2026-05-03T16:26:54.045Z</time></trkpt><trkpt lat="46.0653801" lon="11.2441255"><ele>487.0</ele><time>2026-05-03T16:26:55.046Z</time></trkpt><trkpt lat="46.0654137" lon="11.2442331"><ele>487.00000000000006</ele><time>2026-05-03T16:26:56.045Z</time></trkpt><trkpt lat="46.0654497" lon="11.2443471"><ele>487.0</ele><time>2026-05-03T16:26:57.046Z</time></trkpt><trkpt lat="46.0654883" lon="11.2444659"><ele>487.0</ele><time>2026-05-03T16:26:58.045Z</time></trkpt><trkpt lat="46.06553" lon="11.2445886"><ele>487.00000000000006</ele><time>2026-05-03T16:26:59.046Z</time></trkpt><trkpt lat="46.0655738" lon="11.2447191"><ele>487.00000000000006</ele><time>2026-05-03T16:27:00.045Z</time></trkpt><trkpt lat="46.0656187" lon="11.244854"><ele>487.0</ele><time>2026-05-03T16:27:01.045Z</time></trkpt><trkpt lat="46.0656612" lon="11.2449882"><ele>487.0</ele><time>2026-05-03T16:27:02.045Z</time></trkpt><trkpt lat="46.0657001" lon="11.2451177"><ele>487.1666666666667</ele><time>2026-05-03T16:27:03.045Z</time></trkpt><trkpt lat="46.0657362" lon="11.2452407"><ele>487.33333333333337</ele><time>2026-05-03T16:27:04.045Z</time></trkpt><trkpt lat="46.0657728" lon="11.2453529"><ele>487.5</ele><time>2026-05-03T16:27:05.046Z</time></trkpt><trkpt lat="46.0658048" lon="11.2454608"><ele>487.66666666666663</ele><time>2026-05-03T16:27:06.045Z</time></trkpt><trkpt lat="46.0658333" lon="11.2455448"><ele>487.8333333333333</ele><time>2026-05-03T16:27:07.046Z</time></trkpt><trkpt lat="46.0658809" lon="11.2457033"><ele>488.0</ele><time>2026-05-03T16:27:09.046Z</time></trkpt><trkpt lat="46.0658491" lon="11.2458188"><ele>488.4</ele><time>2026-05-03T16:27:11.046Z</time></trkpt><trkpt lat="46.0657385" lon="11.2459097"><ele>488.79999999999995</ele><time>2026-05-03T16:27:13.045Z</time></trkpt><trkpt lat="46.0656651" lon="11.2459588"><ele>489.2</ele><time>2026-05-03T16:27:14.046Z</time></trkpt><trkpt lat="46.0655914" lon="11.2460115"><ele>489.6</ele><time>2026-05-03T16:27:15.046Z</time></trkpt><trkpt lat="46.0655224" lon="11.2460598"><ele>490.0</ele><time>2026-05-03T16:27:16.046Z</time></trkpt><trkpt lat="46.0654482" lon="11.2461225"><ele>490.00000000000006</ele><time>2026-05-03T16:27:17.045Z</time></trkpt><trkpt lat="46.0653769" lon="11.2461819"><ele>490.0</ele><time>2026-05-03T16:27:18.046Z</time></trkpt><trkpt lat="46.0653102" lon="11.24624"><ele>490.0</ele><time>2026-05-03T16:27:19.046Z</time></trkpt><trkpt lat="46.0652472" lon="11.2463004"><ele>490.0</ele><time>2026-05-03T16:27:20.046Z</time></trkpt><trkpt lat="46.0651853" lon="11.2463592"><ele>490.00000000000006</ele><time>2026-05-03T16:27:21.045Z</time></trkpt><trkpt lat="46.0650938" lon="11.2464462"><ele>490.0</ele><time>2026-05-03T16:27:23.045Z</time></trkpt><trkpt lat="46.0650402" lon="11.2465385"><ele>490.1666666666667</ele><time>2026-05-03T16:27:42.045Z</time></trkpt><trkpt lat="46.0650455" lon="11.2466936"><ele>490.33333333333337</ele><time>2026-05-03T16:27:44.045Z</time></trkpt><trkpt lat="46.0650603" lon="11.2467861"><ele>490.5</ele><time>2026-05-03T16:27:45.045Z</time></trkpt><trkpt lat="46.0650825" lon="11.2468849"><ele>490.66666666666663</ele><time>2026-05-03T16:27:46.046Z</time></trkpt><trkpt lat="46.0651145" lon="11.2469951"><ele>490.8333333333333</ele><time>2026-05-03T16:27:47.046Z</time></trkpt><trkpt lat="46.0651398" lon="11.2471086"><ele>491.0</ele><time>2026-05-03T16:27:48.046Z</time></trkpt><trkpt lat="46.0651659" lon="11.2472196"><ele>491.20000000000005</ele><time>2026-05-03T16:27:49.046Z</time></trkpt><trkpt lat="46.0651984" lon="11.247336"><ele>491.40000000000003</ele><time>2026-05-03T16:27:50.046Z</time></trkpt><trkpt lat="46.065229" lon="11.2474577"><ele>491.6</ele><time>2026-05-03T16:27:51.045Z</time></trkpt><trkpt lat="46.0652622" lon="11.247579"><ele>491.8</ele><time>2026-05-03T16:27:52.046Z</time></trkpt><trkpt lat="46.0652905" lon="11.2477164"><ele>492.0</ele><time>2026-05-03T16:27:53.046Z</time></trkpt><trkpt lat="46.065319" lon="11.2478572"><ele>492.0</ele><time>2026-05-03T16:27:54.045Z</time></trkpt><trkpt lat="46.065343" lon="11.2480059"><ele>492.00000000000006</ele><time>2026-05-03T16:27:55.045Z</time></trkpt><trkpt lat="46.0653641" lon="11.2481506"><ele>492.00000000000006</ele><time>2026-05-03T16:27:56.045Z</time></trkpt><trkpt lat="46.065381" lon="11.2483022"><ele>492.0</ele><time>2026-05-03T16:27:57.045Z</time></trkpt><trkpt lat="46.0653975" lon="11.2484432"><ele>492.0</ele><time>2026-05-03T16:27:58.046Z</time></trkpt><trkpt lat="46.0654069" lon="11.2485666"><ele>492.0</ele><time>2026-05-03T16:27:59.046Z</time></trkpt><trkpt lat="46.0654069" lon="11.2486784"><ele>492.0</ele><time>2026-05-03T16:28:00.046Z</time></trkpt><trkpt lat="46.0653793" lon="11.2487806"><ele>492.0</ele><time>2026-05-03T16:28:01.046Z</time></trkpt><trkpt lat="46.0653264" lon="11.248852"><ele>492.0</ele><time>2026-05-03T16:28:02.046Z</time></trkpt><trkpt lat="46.0652917" lon="11.2489285"><ele>492.0</ele><time>2026-05-03T16:28:03.046Z</time></trkpt><trkpt lat="46.0652644" lon="11.2490229"><ele>492.0</ele><time>2026-05-03T16:28:04.044Z</time></trkpt><trkpt lat="46.0652929" lon="11.2491934"><ele>492.20000000000005</ele><time>2026-05-03T16:28:06.045Z</time></trkpt><trkpt lat="46.0653455" lon="11.2492937"><ele>492.40000000000003</ele><time>2026-05-03T16:28:07.045Z</time></trkpt><trkpt lat="46.0653976" lon="11.2493892"><ele>492.59999999999997</ele><time>2026-05-03T16:28:08.044Z</time></trkpt><trkpt lat="46.0654515" lon="11.2495051"><ele>492.79999999999995</ele><time>2026-05-03T16:28:09.044Z</time></trkpt><trkpt lat="46.0655009" lon="11.2496382"><ele>493.0</ele><time>2026-05-03T16:28:10.045Z</time></trkpt><trkpt lat="46.0655502" lon="11.2497772"><ele>494.25</ele><time>2026-05-03T16:28:11.044Z</time></trkpt><trkpt lat="46.0656027" lon="11.2499205"><ele>495.5</ele><time>2026-05-03T16:28:12.044Z</time></trkpt><trkpt lat="46.0656558" lon="11.2500655"><ele>496.75</ele><time>2026-05-03T16:28:13.045Z</time></trkpt><trkpt lat="46.0657097" lon="11.2502162"><ele>498.0</ele><time>2026-05-03T16:28:14.045Z</time></trkpt><trkpt lat="46.0657645" lon="11.2503703"><ele>498.0</ele><time>2026-05-03T16:28:15.044Z</time></trkpt><trkpt lat="46.0658278" lon="11.2505178"><ele>498.0</ele><time>2026-05-03T16:28:16.044Z</time></trkpt><trkpt lat="46.0658941" lon="11.2506698"><ele>498.0</ele><time>2026-05-03T16:28:17.044Z</time></trkpt><trkpt lat="46.0659647" lon="11.2508255"><ele>498.0</ele><time>2026-05-03T16:28:18.044Z</time></trkpt><trkpt lat="46.0660355" lon="11.250986"><ele>498.25</ele><time>2026-05-03T16:28:19.045Z</time></trkpt><trkpt lat="46.0661038" lon="11.2511355"><ele>498.5</ele><time>2026-05-03T16:28:20.045Z</time></trkpt><trkpt lat="46.0661747" lon="11.2512793"><ele>498.75</ele><time>2026-05-03T16:28:21.045Z</time></trkpt><trkpt lat="46.0662512" lon="11.2514118"><ele>499.0</ele><time>2026-05-03T16:28:22.045Z</time></trkpt><trkpt lat="46.0663237" lon="11.2515405"><ele>500.0</ele><time>2026-05-03T16:28:23.044Z</time></trkpt><trkpt lat="46.0664027" lon="11.2516538"><ele>501.0</ele><time>2026-05-03T16:28:24.044Z</time></trkpt><trkpt lat="46.0664778" lon="11.2517484"><ele>502.0</ele><time>2026-05-03T16:28:25.044Z</time></trkpt><trkpt lat="46.0665444" lon="11.251833"><ele>503.0</ele><time>2026-05-03T16:28:26.045Z</time></trkpt><trkpt lat="46.0666052" lon="11.2519093"><ele>504.0</ele><time>2026-05-03T16:28:27.045Z</time></trkpt><trkpt lat="46.0666632" lon="11.2519843"><ele>504.0</ele><time>2026-05-03T16:28:28.045Z</time></trkpt><trkpt lat="46.0667183" lon="11.2520645"><ele>504.0</ele><time>2026-05-03T16:28:29.045Z</time></trkpt><trkpt lat="46.066784" lon="11.2521487"><ele>504.0</ele><time>2026-05-03T16:28:30.045Z</time></trkpt><trkpt lat="46.0668506" lon="11.252235"><ele>504.0</ele><time>2026-05-03T16:28:31.044Z</time></trkpt><trkpt lat="46.066928" lon="11.2523217"><ele>504.0</ele><time>2026-05-03T16:28:32.044Z</time></trkpt><trkpt lat="46.0670072" lon="11.252422"><ele>503.75</ele><time>2026-05-03T16:28:33.044Z</time></trkpt><trkpt lat="46.0670884" lon="11.2525247"><ele>503.5</ele><time>2026-05-03T16:28:34.045Z</time></trkpt><trkpt lat="46.0671743" lon="11.2526342"><ele>503.25</ele><time>2026-05-03T16:28:35.045Z</time></trkpt><trkpt lat="46.0672578" lon="11.2527449"><ele>503.0</ele><time>2026-05-03T16:28:36.045Z</time></trkpt><trkpt lat="46.0673454" lon="11.2528592"><ele>503.0</ele><time>2026-05-03T16:28:37.045Z</time></trkpt><trkpt lat="46.0674353" lon="11.2529782"><ele>503.0</ele><time>2026-05-03T16:28:38.045Z</time></trkpt><trkpt lat="46.0675288" lon="11.2530989"><ele>503.0</ele><time>2026-05-03T16:28:39.045Z</time></trkpt><trkpt lat="46.0676199" lon="11.2532316"><ele>503.0</ele><time>2026-05-03T16:28:40.045Z</time></trkpt><trkpt lat="46.0677129" lon="11.2533666"><ele>503.5</ele><time>2026-05-03T16:28:41.045Z</time></trkpt><trkpt lat="46.0678066" lon="11.2535082"><ele>504.0</ele><time>2026-05-03T16:28:42.044Z</time></trkpt><trkpt lat="46.067901" lon="11.2536547"><ele>504.5</ele><time>2026-05-03T16:28:43.045Z</time></trkpt><trkpt lat="46.0679954" lon="11.2538017"><ele>505.0</ele><time>2026-05-03T16:28:44.045Z</time></trkpt><trkpt lat="46.0680905" lon="11.2539441"><ele>505.25</ele><time>2026-05-03T16:28:45.045Z</time></trkpt><trkpt lat="46.0681899" lon="11.2540876"><ele>505.5</ele><time>2026-05-03T16:28:46.044Z</time></trkpt><trkpt lat="46.0682879" lon="11.2542326"><ele>505.75</ele><time>2026-05-03T16:28:47.044Z</time></trkpt><trkpt lat="46.0683867" lon="11.2543784"><ele>506.0</ele><time>2026-05-03T16:28:48.045Z</time></trkpt><trkpt lat="46.0684851" lon="11.2545288"><ele>506.75</ele><time>2026-05-03T16:28:49.044Z</time></trkpt><trkpt lat="46.0685874" lon="11.254675"><ele>507.5</ele><time>2026-05-03T16:28:50.045Z</time></trkpt><trkpt lat="46.0686922" lon="11.2548261"><ele>508.25</ele><time>2026-05-03T16:28:51.045Z</time></trkpt><trkpt lat="46.0687999" lon="11.2549758"><ele>509.0</ele><time>2026-05-03T16:28:52.045Z</time></trkpt><trkpt lat="46.068906" lon="11.2551337"><ele>509.66666666666663</ele><time>2026-05-03T16:28:53.045Z</time></trkpt><trkpt lat="46.0690104" lon="11.2552981"><ele>510.33333333333337</ele><time>2026-05-03T16:28:54.044Z</time></trkpt><trkpt lat="46.0691116" lon="11.2554532"><ele>511.0</ele><time>2026-05-03T16:28:55.044Z</time></trkpt><trkpt lat="46.0692164" lon="11.2556147"><ele>512.25</ele><time>2026-05-03T16:28:56.045Z</time></trkpt><trkpt lat="46.0693161" lon="11.2557704"><ele>513.5</ele><time>2026-05-03T16:28:57.044Z</time></trkpt><trkpt lat="46.069411" lon="11.2559288"><ele>514.75</ele><time>2026-05-03T16:28:58.045Z</time></trkpt><trkpt lat="46.0695021" lon="11.2560835"><ele>516.0</ele><time>2026-05-03T16:28:59.045Z</time></trkpt><trkpt lat="46.0695883" lon="11.256235"><ele>516.0</ele><time>2026-05-03T16:29:00.045Z</time></trkpt><trkpt lat="46.069675" lon="11.2563894"><ele>516.0</ele><time>2026-05-03T16:29:01.044Z</time></trkpt><trkpt lat="46.0697604" lon="11.2565397"><ele>516.0</ele><time>2026-05-03T16:29:02.044Z</time></trkpt><trkpt lat="46.069847" lon="11.2566916"><ele>516.0</ele><time>2026-05-03T16:29:03.045Z</time></trkpt><trkpt lat="46.0699367" lon="11.2568522"><ele>516.5</ele><time>2026-05-03T16:29:04.044Z</time></trkpt><trkpt lat="46.0700276" lon="11.2570069"><ele>517.0</ele><time>2026-05-03T16:29:05.044Z</time></trkpt><trkpt lat="46.0701256" lon="11.2571711"><ele>517.5</ele><time>2026-05-03T16:29:06.045Z</time></trkpt><trkpt lat="46.0702236" lon="11.2573391"><ele>518.0</ele><time>2026-05-03T16:29:07.045Z</time></trkpt><trkpt lat="46.0703151" lon="11.2575004"><ele>518.0</ele><time>2026-05-03T16:29:08.044Z</time></trkpt><trkpt lat="46.070398" lon="11.2576424"><ele>518.0</ele><time>2026-05-03T16:29:09.045Z</time></trkpt><trkpt lat="46.0704725" lon="11.2577769"><ele>518.0</ele><time>2026-05-03T16:29:10.045Z</time></trkpt><trkpt lat="46.0705513" lon="11.257903"><ele>518.0</ele><time>2026-05-03T16:29:11.044Z</time></trkpt><trkpt lat="46.0706302" lon="11.2580435"><ele>518.25</ele><time>2026-05-03T16:29:12.045Z</time></trkpt><trkpt lat="46.0707191" lon="11.2581893"><ele>518.5</ele><time>2026-05-03T16:29:13.045Z</time></trkpt><trkpt lat="46.0708111" lon="11.2583362"><ele>518.75</ele><time>2026-05-03T16:29:14.045Z</time></trkpt><trkpt lat="46.0709059" lon="11.258497"><ele>519.0</ele><time>2026-05-03T16:29:15.045Z</time></trkpt><trkpt lat="46.0710051" lon="11.2586614"><ele>519.6666666666666</ele><time>2026-05-03T16:29:16.045Z</time></trkpt><trkpt lat="46.0711047" lon="11.2588289"><ele>520.3333333333333</ele><time>2026-05-03T16:29:17.045Z</time></trkpt><trkpt lat="46.071202" lon="11.2589992"><ele>521.0</ele><time>2026-05-03T16:29:18.044Z</time></trkpt><trkpt lat="46.0713042" lon="11.2591743"><ele>522.3333333333333</ele><time>2026-05-03T16:29:19.044Z</time></trkpt><trkpt lat="46.0714029" lon="11.2593562"><ele>523.6666666666666</ele><time>2026-05-03T16:29:20.045Z</time></trkpt><trkpt lat="46.0714928" lon="11.2595571"><ele>525.0</ele><time>2026-05-03T16:29:21.044Z</time></trkpt><trkpt lat="46.0715627" lon="11.2597649"><ele>526.0</ele><time>2026-05-03T16:29:22.045Z</time></trkpt><trkpt lat="46.071629" lon="11.2599836"><ele>527.0</ele><time>2026-05-03T16:29:23.044Z</time></trkpt><trkpt lat="46.0716852" lon="11.2602113"><ele>528.0</ele><time>2026-05-03T16:29:24.044Z</time></trkpt><trkpt lat="46.071737" lon="11.2604404"><ele>529.3333333333334</ele><time>2026-05-03T16:29:25.045Z</time></trkpt><trkpt lat="46.0717885" lon="11.2606596"><ele>530.6666666666667</ele><time>2026-05-03T16:29:26.045Z</time></trkpt><trkpt lat="46.0718556" lon="11.2608614"><ele>532.0</ele><time>2026-05-03T16:29:27.045Z</time></trkpt><trkpt lat="46.0719398" lon="11.2610539"><ele>532.0</ele><time>2026-05-03T16:29:28.045Z</time></trkpt><trkpt lat="46.0720434" lon="11.2612297"><ele>532.0</ele><time>2026-05-03T16:29:29.045Z</time></trkpt><trkpt lat="46.0721525" lon="11.2613739"><ele>532.0</ele><time>2026-05-03T16:29:30.045Z</time></trkpt><trkpt lat="46.0722746" lon="11.2614982"><ele>532.5</ele><time>2026-05-03T16:29:31.045Z</time></trkpt><trkpt lat="46.0724009" lon="11.2616011"><ele>533.0</ele><time>2026-05-03T16:29:32.044Z</time></trkpt><trkpt lat="46.0725373" lon="11.261689"><ele>533.5</ele><time>2026-05-03T16:29:33.045Z</time></trkpt><trkpt lat="46.0726684" lon="11.2617417"><ele>534.0</ele><time>2026-05-03T16:29:34.045Z</time></trkpt><trkpt lat="46.072798" lon="11.261789"><ele>534.0</ele><time>2026-05-03T16:29:35.045Z</time></trkpt><trkpt lat="46.0729206" lon="11.2618554"><ele>534.0</ele><time>2026-05-03T16:29:36.045Z</time></trkpt><trkpt lat="46.0730186" lon="11.2619399"><ele>534.0</ele><time>2026-05-03T16:29:37.045Z</time></trkpt><trkpt lat="46.0730925" lon="11.2620616"><ele>534.0</ele><time>2026-05-03T16:29:38.045Z</time></trkpt><trkpt lat="46.0731463" lon="11.262217"><ele>534.0</ele><time>2026-05-03T16:29:39.045Z</time></trkpt><trkpt lat="46.0731566" lon="11.2624015"><ele>534.0</ele><time>2026-05-03T16:29:40.045Z</time></trkpt><trkpt lat="46.0731542" lon="11.2625968"><ele>534.0</ele><time>2026-05-03T16:29:41.045Z</time></trkpt><trkpt lat="46.0731352" lon="11.2627906"><ele>534.0</ele><time>2026-05-03T16:29:42.044Z</time></trkpt><trkpt lat="46.0731037" lon="11.2630051"><ele>534.75</ele><time>2026-05-03T16:29:43.044Z</time></trkpt><trkpt lat="46.0730746" lon="11.263213"><ele>535.5</ele><time>2026-05-03T16:29:44.045Z</time></trkpt><trkpt lat="46.0730481" lon="11.2634179"><ele>536.25</ele><time>2026-05-03T16:29:45.045Z</time></trkpt><trkpt lat="46.0730242" lon="11.2636313"><ele>537.0</ele><time>2026-05-03T16:29:46.045Z</time></trkpt><trkpt lat="46.0730013" lon="11.2638435"><ele>538.75</ele><time>2026-05-03T16:29:47.045Z</time></trkpt><trkpt lat="46.07298" lon="11.2640555"><ele>540.5</ele><time>2026-05-03T16:29:48.045Z</time></trkpt><trkpt lat="46.0729684" lon="11.2642686"><ele>542.25</ele><time>2026-05-03T16:29:49.044Z</time></trkpt><trkpt lat="46.0729749" lon="11.2644655"><ele>544.0</ele><time>2026-05-03T16:29:50.045Z</time></trkpt><trkpt lat="46.0730146" lon="11.2646523"><ele>548.6666666666667</ele><time>2026-05-03T16:29:51.045Z</time></trkpt><trkpt lat="46.0730726" lon="11.2648278"><ele>553.3333333333334</ele><time>2026-05-03T16:29:52.045Z</time></trkpt><trkpt lat="46.073153" lon="11.265"><ele>558.0</ele><time>2026-05-03T16:29:53.044Z</time></trkpt><trkpt lat="46.0732512" lon="11.265225"><ele>561.0</ele><time>2026-05-03T16:29:54.045Z</time></trkpt><trkpt lat="46.0733577" lon="11.265465"><ele>564.0</ele><time>2026-05-03T16:29:55.045Z</time></trkpt><trkpt lat="46.0734657" lon="11.2657177"><ele>567.0</ele><time>2026-05-03T16:29:56.044Z</time></trkpt><trkpt lat="46.073593" lon="11.265971"><ele>567.0</ele><time>2026-05-03T16:29:57.045Z</time></trkpt><trkpt lat="46.0737592" lon="11.2657663"><ele>567.0</ele><time>2026-05-03T16:29:58.045Z</time></trkpt><trkpt lat="46.0738334" lon="11.2659616"><ele>567.0</ele><time>2026-05-03T16:29:59.044Z</time></trkpt><trkpt lat="46.0739603" lon="11.266115"><ele>564.6666666666666</ele><time>2026-05-03T16:30:00.044Z</time></trkpt><trkpt lat="46.0741131" lon="11.2662418"><ele>562.3333333333333</ele><time>2026-05-03T16:30:01.045Z</time></trkpt><trkpt lat="46.0742551" lon="11.2663786"><ele>560.0</ele><time>2026-05-03T16:30:02.044Z</time></trkpt><trkpt lat="46.0743963" lon="11.2665191"><ele>560.0</ele><time>2026-05-03T16:30:03.045Z</time></trkpt><trkpt lat="46.0745379" lon="11.2666525"><ele>560.0</ele><time>2026-05-03T16:30:04.045Z</time></trkpt><trkpt lat="46.0746711" lon="11.2668023"><ele>560.0</ele><time>2026-05-03T16:30:05.045Z</time></trkpt><trkpt lat="46.0748091" lon="11.2669519"><ele>561.0</ele><time>2026-05-03T16:30:06.045Z</time></trkpt><trkpt lat="46.0749484" lon="11.2670977"><ele>562.0</ele><time>2026-05-03T16:30:07.044Z</time></trkpt><trkpt lat="46.0750866" lon="11.2672363"><ele>563.0</ele><time>2026-05-03T16:30:08.045Z</time></trkpt><trkpt lat="46.0752265" lon="11.2673777"><ele>563.0</ele><time>2026-05-03T16:30:09.044Z</time></trkpt><trkpt lat="46.0753684" lon="11.267526"><ele>563.0</ele><time>2026-05-03T16:30:10.045Z</time></trkpt><trkpt lat="46.0755037" lon="11.2676917"><ele>563.0</ele><time>2026-05-03T16:30:11.044Z</time></trkpt><trkpt lat="46.0756232" lon="11.2678705"><ele>563.0</ele><time>2026-05-03T16:30:12.045Z</time></trkpt><trkpt lat="46.0757274" lon="11.2680746"><ele>563.0</ele><time>2026-05-03T16:30:13.044Z</time></trkpt><trkpt lat="46.0758107" lon="11.2682942"><ele>563.0</ele><time>2026-05-03T16:30:14.045Z</time></trkpt><trkpt lat="46.0758888" lon="11.2685333"><ele>564.3333333333333</ele><time>2026-05-03T16:30:15.045Z</time></trkpt><trkpt lat="46.0759672" lon="11.2687679"><ele>565.6666666666666</ele><time>2026-05-03T16:30:16.045Z</time></trkpt><trkpt lat="46.0760449" lon="11.2690098"><ele>567.0</ele><time>2026-05-03T16:30:17.045Z</time></trkpt><trkpt lat="46.0761293" lon="11.2692443"><ele>567.0</ele><time>2026-05-03T16:30:18.045Z</time></trkpt><trkpt lat="46.076216" lon="11.2694735"><ele>567.0</ele><time>2026-05-03T16:30:19.045Z</time></trkpt><trkpt lat="46.076304" lon="11.2697033"><ele>567.0</ele><time>2026-05-03T16:30:20.045Z</time></trkpt><trkpt lat="46.0763874" lon="11.2699385"><ele>567.3333333333334</ele><time>2026-05-03T16:30:21.045Z</time></trkpt><trkpt lat="46.0764736" lon="11.2701689"><ele>567.6666666666667</ele><time>2026-05-03T16:30:22.045Z</time></trkpt><trkpt lat="46.07656" lon="11.2703989"><ele>568.0</ele><time>2026-05-03T16:30:23.044Z</time></trkpt><trkpt lat="46.0766452" lon="11.2706258"><ele>570.3333333333334</ele><time>2026-05-03T16:30:24.044Z</time></trkpt><trkpt lat="46.0767257" lon="11.2708507"><ele>572.6666666666666</ele><time>2026-05-03T16:30:25.045Z</time></trkpt><trkpt lat="46.076807" lon="11.2710733"><ele>575.0</ele><time>2026-05-03T16:30:26.044Z</time></trkpt><trkpt lat="46.0768827" lon="11.2712967"><ele>573.6666666666666</ele><time>2026-05-03T16:30:27.045Z</time></trkpt><trkpt lat="46.0769431" lon="11.2715344"><ele>572.3333333333334</ele><time>2026-05-03T16:30:28.045Z</time></trkpt><trkpt lat="46.0769665" lon="11.2717803"><ele>571.0</ele><time>2026-05-03T16:30:29.045Z</time></trkpt><trkpt lat="46.0769559" lon="11.2720286"><ele>572.0</ele><time>2026-05-03T16:30:30.045Z</time></trkpt><trkpt lat="46.0769287" lon="11.2722733"><ele>573.0</ele><time>2026-05-03T16:30:31.045Z</time></trkpt><trkpt lat="46.0768922" lon="11.2725269"><ele>574.0</ele><time>2026-05-03T16:30:32.044Z</time></trkpt><trkpt lat="46.0768553" lon="11.2727693"><ele>574.0</ele><time>2026-05-03T16:30:33.045Z</time></trkpt><trkpt lat="46.076823" lon="11.2730093"><ele>574.0</ele><time>2026-05-03T16:30:34.045Z</time></trkpt><trkpt lat="46.0767945" lon="11.2732351"><ele>574.0</ele><time>2026-05-03T16:30:35.045Z</time></trkpt><trkpt lat="46.0767666" lon="11.2734449"><ele>574.75</ele><time>2026-05-03T16:30:36.044Z</time></trkpt><trkpt lat="46.0767529" lon="11.2736376"><ele>575.5</ele><time>2026-05-03T16:30:37.045Z</time></trkpt><trkpt lat="46.0767664" lon="11.2738163"><ele>576.25</ele><time>2026-05-03T16:30:38.044Z</time></trkpt><trkpt lat="46.0768073" lon="11.2739838"><ele>577.0</ele><time>2026-05-03T16:30:39.044Z</time></trkpt><trkpt lat="46.0768664" lon="11.2741355"><ele>577.25</ele><time>2026-05-03T16:30:40.045Z</time></trkpt><trkpt lat="46.0769478" lon="11.274287"><ele>577.5</ele><time>2026-05-03T16:30:41.044Z</time></trkpt><trkpt lat="46.0770373" lon="11.2744348"><ele>577.75</ele><time>2026-05-03T16:30:42.044Z</time></trkpt><trkpt lat="46.0771326" lon="11.2745932"><ele>578.0</ele><time>2026-05-03T16:30:43.044Z</time></trkpt><trkpt lat="46.0772418" lon="11.2747269"><ele>578.0</ele><time>2026-05-03T16:30:44.045Z</time></trkpt><trkpt lat="46.0773642" lon="11.2748285"><ele>578.0</ele><time>2026-05-03T16:30:45.044Z</time></trkpt><trkpt lat="46.0775066" lon="11.2749108"><ele>578.0</ele><time>2026-05-03T16:30:46.045Z</time></trkpt><trkpt lat="46.0776592" lon="11.2749766"><ele>580.0</ele><time>2026-05-03T16:30:47.044Z</time></trkpt><trkpt lat="46.077812" lon="11.2750367"><ele>582.0</ele><time>2026-05-03T16:30:48.045Z</time></trkpt><trkpt lat="46.0779566" lon="11.2750941"><ele>584.0</ele><time>2026-05-03T16:30:49.045Z</time></trkpt><trkpt lat="46.0780987" lon="11.27515"><ele>584.0</ele><time>2026-05-03T16:30:50.045Z</time></trkpt><trkpt lat="46.0782327" lon="11.2752002"><ele>584.0</ele><time>2026-05-03T16:30:51.044Z</time></trkpt><trkpt lat="46.0783535" lon="11.2752434"><ele>584.0</ele><time>2026-05-03T16:30:52.045Z</time></trkpt><trkpt lat="46.078456" lon="11.275288"><ele>584.0</ele><time>2026-05-03T16:30:53.044Z</time></trkpt><trkpt lat="46.0785453" lon="11.2753082"><ele>585.1666666666666</ele><time>2026-05-03T16:30:54.045Z</time></trkpt><trkpt lat="46.0786262" lon="11.2752882"><ele>586.3333333333333</ele><time>2026-05-03T16:30:55.045Z</time></trkpt><trkpt lat="46.078685" lon="11.2752097"><ele>587.5</ele><time>2026-05-03T16:30:56.044Z</time></trkpt><trkpt lat="46.0787071" lon="11.2750924"><ele>588.6666666666666</ele><time>2026-05-03T16:30:57.045Z</time></trkpt><trkpt lat="46.0787079" lon="11.2749599"><ele>589.8333333333334</ele><time>2026-05-03T16:30:58.045Z</time></trkpt><trkpt lat="46.0786604" lon="11.2748387"><ele>591.0</ele><time>2026-05-03T16:30:59.045Z</time></trkpt><trkpt lat="46.0785926" lon="11.2747186"><ele>592.0</ele><time>2026-05-03T16:31:00.045Z</time></trkpt><trkpt lat="46.0785095" lon="11.274587"><ele>593.0</ele><time>2026-05-03T16:31:01.044Z</time></trkpt><trkpt lat="46.0784273" lon="11.2744566"><ele>594.0</ele><time>2026-05-03T16:31:02.045Z</time></trkpt><trkpt lat="46.0783548" lon="11.274327"><ele>595.0</ele><time>2026-05-03T16:31:03.044Z</time></trkpt><trkpt lat="46.0782858" lon="11.2742104"><ele>595.6666666666667</ele><time>2026-05-03T16:31:04.045Z</time></trkpt><trkpt lat="46.0782295" lon="11.274109"><ele>596.3333333333334</ele><time>2026-05-03T16:31:05.045Z</time></trkpt><trkpt lat="46.0781956" lon="11.2739996"><ele>597.0</ele><time>2026-05-03T16:31:06.045Z</time></trkpt><trkpt lat="46.0781855" lon="11.2738943"><ele>597.6666666666666</ele><time>2026-05-03T16:31:07.045Z</time></trkpt><trkpt lat="46.0782317" lon="11.273814"><ele>598.3333333333333</ele><time>2026-05-03T16:31:08.045Z</time></trkpt><trkpt lat="46.0782948" lon="11.2737647"><ele>599.0</ele><time>2026-05-03T16:31:09.045Z</time></trkpt><trkpt lat="46.0783852" lon="11.2737465"><ele>599.0</ele><time>2026-05-03T16:31:10.045Z</time></trkpt><trkpt lat="46.0784715" lon="11.273794"><ele>599.0</ele><time>2026-05-03T16:31:11.044Z</time></trkpt><trkpt lat="46.0785555" lon="11.2738521"><ele>599.0</ele><time>2026-05-03T16:31:12.045Z</time></trkpt><trkpt lat="46.0786447" lon="11.2739328"><ele>599.0</ele><time>2026-05-03T16:31:13.045Z</time></trkpt><trkpt lat="46.0787455" lon="11.2740165"><ele>599.0</ele><time>2026-05-03T16:31:14.045Z</time></trkpt><trkpt lat="46.0788518" lon="11.2740986"><ele>598.0</ele><time>2026-05-03T16:31:15.045Z</time></trkpt><trkpt lat="46.078963" lon="11.2741806"><ele>597.0</ele><time>2026-05-03T16:31:16.045Z</time></trkpt><trkpt lat="46.0790797" lon="11.2742725"><ele>596.0</ele><time>2026-05-03T16:31:17.045Z</time></trkpt><trkpt lat="46.0791933" lon="11.2743588"><ele>595.0</ele><time>2026-05-03T16:31:18.044Z</time></trkpt><trkpt lat="46.079307" lon="11.2744483"><ele>596.75</ele><time>2026-05-03T16:31:19.045Z</time></trkpt><trkpt lat="46.0794222" lon="11.2745403"><ele>598.5</ele><time>2026-05-03T16:31:20.045Z</time></trkpt><trkpt lat="46.0795321" lon="11.2746279"><ele>600.25</ele><time>2026-05-03T16:31:21.044Z</time></trkpt><trkpt lat="46.0796325" lon="11.2747186"><ele>602.0</ele><time>2026-05-03T16:31:22.045Z</time></trkpt><trkpt lat="46.0797331" lon="11.2748145"><ele>602.0</ele><time>2026-05-03T16:31:23.045Z</time></trkpt><trkpt lat="46.079825" lon="11.2749276"><ele>602.0</ele><time>2026-05-03T16:31:24.044Z</time></trkpt><trkpt lat="46.0799074" lon="11.2750598"><ele>602.0</ele><time>2026-05-03T16:31:25.045Z</time></trkpt><trkpt lat="46.0799732" lon="11.2752191"><ele>602.0</ele><time>2026-05-03T16:31:26.045Z</time></trkpt><trkpt lat="46.0800358" lon="11.2754059"><ele>606.0</ele><time>2026-05-03T16:31:27.045Z</time></trkpt><trkpt lat="46.0800928" lon="11.2755953"><ele>610.0</ele><time>2026-05-03T16:31:28.044Z</time></trkpt><trkpt lat="46.0801484" lon="11.2757998"><ele>614.0</ele><time>2026-05-03T16:31:29.044Z</time></trkpt><trkpt lat="46.0802161" lon="11.2760013"><ele>614.3333333333333</ele><time>2026-05-03T16:31:30.044Z</time></trkpt><trkpt lat="46.0802841" lon="11.2762009"><ele>614.6666666666666</ele><time>2026-05-03T16:31:31.045Z</time></trkpt><trkpt lat="46.0803436" lon="11.2764032"><ele>615.0</ele><time>2026-05-03T16:31:32.045Z</time></trkpt><trkpt lat="46.0804083" lon="11.2766123"><ele>615.0</ele><time>2026-05-03T16:31:33.045Z</time></trkpt><trkpt lat="46.0804686" lon="11.2768244"><ele>615.0</ele><time>2026-05-03T16:31:34.044Z</time></trkpt><trkpt lat="46.0805313" lon="11.277048"><ele>615.0</ele><time>2026-05-03T16:31:35.045Z</time></trkpt><trkpt lat="46.0805932" lon="11.2772824"><ele>614.6666666666666</ele><time>2026-05-03T16:31:36.045Z</time></trkpt><trkpt lat="46.0806631" lon="11.2775208"><ele>614.3333333333333</ele><time>2026-05-03T16:31:37.044Z</time></trkpt><trkpt lat="46.0807307" lon="11.2777614"><ele>614.0</ele><time>2026-05-03T16:31:38.045Z</time></trkpt><trkpt lat="46.0807947" lon="11.2779999"><ele>617.6666666666666</ele><time>2026-05-03T16:31:39.045Z</time></trkpt><trkpt lat="46.0808559" lon="11.2782397"><ele>621.3333333333334</ele><time>2026-05-03T16:31:40.044Z</time></trkpt><trkpt lat="46.0809183" lon="11.2784882"><ele>625.0</ele><time>2026-05-03T16:31:41.045Z</time></trkpt><trkpt lat="46.0809905" lon="11.2787294"><ele>623.3333333333334</ele><time>2026-05-03T16:31:42.045Z</time></trkpt><trkpt lat="46.0810679" lon="11.2789595"><ele>621.6666666666666</ele><time>2026-05-03T16:31:43.045Z</time></trkpt><trkpt lat="46.0811596" lon="11.2791901"><ele>620.0</ele><time>2026-05-03T16:31:44.044Z</time></trkpt><trkpt lat="46.0812901" lon="11.279394"><ele>620.0</ele><time>2026-05-03T16:31:45.045Z</time></trkpt><trkpt lat="46.0814231" lon="11.2795885"><ele>620.0</ele><time>2026-05-03T16:31:46.044Z</time></trkpt><trkpt lat="46.0815624" lon="11.279779"><ele>620.0</ele><time>2026-05-03T16:31:47.045Z</time></trkpt><trkpt lat="46.0817014" lon="11.2799654"><ele>625.6666666666666</ele><time>2026-05-03T16:31:48.045Z</time></trkpt><trkpt lat="46.0818332" lon="11.2801547"><ele>631.3333333333334</ele><time>2026-05-03T16:31:49.045Z</time></trkpt><trkpt lat="46.0819569" lon="11.2803488"><ele>637.0</ele><time>2026-05-03T16:31:50.045Z</time></trkpt><trkpt lat="46.0820698" lon="11.2805459"><ele>633.6666666666667</ele><time>2026-05-03T16:31:51.045Z</time></trkpt><trkpt lat="46.0821771" lon="11.2807388"><ele>630.3333333333334</ele><time>2026-05-03T16:31:52.044Z</time></trkpt><trkpt lat="46.0822645" lon="11.2809183"><ele>627.0</ele><time>2026-05-03T16:31:53.044Z</time></trkpt><trkpt lat="46.0823439" lon="11.2810721"><ele>627.0</ele><time>2026-05-03T16:31:54.045Z</time></trkpt><trkpt lat="46.0824182" lon="11.2811991"><ele>627.0</ele><time>2026-05-03T16:31:55.045Z</time></trkpt><trkpt lat="46.0825047" lon="11.2812846"><ele>627.0</ele><time>2026-05-03T16:31:56.045Z</time></trkpt><trkpt lat="46.082603" lon="11.2813088"><ele>627.0</ele><time>2026-05-03T16:31:57.045Z</time></trkpt><trkpt lat="46.082689" lon="11.2812724"><ele>627.0</ele><time>2026-05-03T16:31:58.044Z</time></trkpt><trkpt lat="46.0827737" lon="11.2811944"><ele>634.25</ele><time>2026-05-03T16:31:59.044Z</time></trkpt><trkpt lat="46.0828212" lon="11.2810837"><ele>641.5</ele><time>2026-05-03T16:32:00.045Z</time></trkpt><trkpt lat="46.0828628" lon="11.2809296"><ele>648.75</ele><time>2026-05-03T16:32:01.045Z</time></trkpt><trkpt lat="46.0828759" lon="11.2807605"><ele>656.0</ele><time>2026-05-03T16:32:02.044Z</time></trkpt><trkpt lat="46.0828859" lon="11.2805685"><ele>656.25</ele><time>2026-05-03T16:32:03.045Z</time></trkpt><trkpt lat="46.0828975" lon="11.2803652"><ele>656.5</ele><time>2026-05-03T16:32:04.045Z</time></trkpt><trkpt lat="46.0829036" lon="11.2801609"><ele>656.75</ele><time>2026-05-03T16:32:05.045Z</time></trkpt><trkpt lat="46.0829124" lon="11.279935"><ele>657.0</ele><time>2026-05-03T16:32:06.044Z</time></trkpt><trkpt lat="46.0829274" lon="11.2797012"><ele>659.3333333333334</ele><time>2026-05-03T16:32:07.044Z</time></trkpt><trkpt lat="46.0829357" lon="11.2794622"><ele>661.6666666666667</ele><time>2026-05-03T16:32:08.044Z</time></trkpt><trkpt lat="46.0829441" lon="11.2792305"><ele>664.0</ele><time>2026-05-03T16:32:09.044Z</time></trkpt><trkpt lat="46.0829569" lon="11.2789955"><ele>665.6666666666667</ele><time>2026-05-03T16:32:10.045Z</time></trkpt><trkpt lat="46.0829643" lon="11.278752"><ele>667.3333333333334</ele><time>2026-05-03T16:32:11.045Z</time></trkpt><trkpt lat="46.0829702" lon="11.2785001"><ele>669.0</ele><time>2026-05-03T16:32:12.045Z</time></trkpt><trkpt lat="46.0829788" lon="11.2782441"><ele>670.6666666666666</ele><time>2026-05-03T16:32:13.044Z</time></trkpt><trkpt lat="46.0829878" lon="11.2779805"><ele>672.3333333333333</ele><time>2026-05-03T16:32:14.045Z</time></trkpt><trkpt lat="46.0829999" lon="11.2777138"><ele>674.0</ele><time>2026-05-03T16:32:15.044Z</time></trkpt><trkpt lat="46.0830107" lon="11.2774551"><ele>674.0</ele><time>2026-05-03T16:32:16.044Z</time></trkpt><trkpt lat="46.0830183" lon="11.2772088"><ele>674.0</ele><time>2026-05-03T16:32:17.045Z</time></trkpt><trkpt lat="46.0830243" lon="11.2769707"><ele>674.0</ele><time>2026-05-03T16:32:18.044Z</time></trkpt><trkpt lat="46.0830301" lon="11.2767497"><ele>674.0</ele><time>2026-05-03T16:32:19.045Z</time></trkpt><trkpt lat="46.0830368" lon="11.2765533"><ele>674.0</ele><time>2026-05-03T16:32:20.045Z</time></trkpt><trkpt lat="46.0830473" lon="11.2763787"><ele>674.0</ele><time>2026-05-03T16:32:21.044Z</time></trkpt><trkpt lat="46.0830713" lon="11.2762171"><ele>674.0</ele><time>2026-05-03T16:32:22.044Z</time></trkpt><trkpt lat="46.0831136" lon="11.2761015"><ele>674.6</ele><time>2026-05-03T16:32:23.044Z</time></trkpt><trkpt lat="46.0831877" lon="11.2760336"><ele>675.2</ele><time>2026-05-03T16:32:24.044Z</time></trkpt><trkpt lat="46.0832759" lon="11.2760137"><ele>675.8000000000001</ele><time>2026-05-03T16:32:25.044Z</time></trkpt><trkpt lat="46.0833707" lon="11.2760542"><ele>676.4000000000001</ele><time>2026-05-03T16:32:26.045Z</time></trkpt><trkpt lat="46.083466" lon="11.2761346"><ele>677.0</ele><time>2026-05-03T16:32:27.045Z</time></trkpt><trkpt lat="46.0835678" lon="11.2762512"><ele>682.0</ele><time>2026-05-03T16:32:28.045Z</time></trkpt><trkpt lat="46.083665" lon="11.2763959"><ele>687.0</ele><time>2026-05-03T16:32:29.044Z</time></trkpt><trkpt lat="46.0837742" lon="11.2765682"><ele>692.0</ele><time>2026-05-03T16:32:30.045Z</time></trkpt><trkpt lat="46.0839018" lon="11.2767478"><ele>692.0</ele><time>2026-05-03T16:32:31.045Z</time></trkpt><trkpt lat="46.0840359" lon="11.2769168"><ele>692.0</ele><time>2026-05-03T16:32:32.045Z</time></trkpt><trkpt lat="46.0841742" lon="11.2770956"><ele>692.0</ele><time>2026-05-03T16:32:33.045Z</time></trkpt><trkpt lat="46.0843176" lon="11.2772792"><ele>696.3333333333333</ele><time>2026-05-03T16:32:34.044Z</time></trkpt><trkpt lat="46.0844555" lon="11.2774746"><ele>700.6666666666666</ele><time>2026-05-03T16:32:35.045Z</time></trkpt><trkpt lat="46.0845921" lon="11.2776624"><ele>705.0</ele><time>2026-05-03T16:32:36.045Z</time></trkpt><trkpt lat="46.0847209" lon="11.277844"><ele>705.0</ele><time>2026-05-03T16:32:37.045Z</time></trkpt><trkpt lat="46.0848339" lon="11.2780212"><ele>705.0</ele><time>2026-05-03T16:32:38.044Z</time></trkpt><trkpt lat="46.0849217" lon="11.278209"><ele>705.0</ele><time>2026-05-03T16:32:39.044Z</time></trkpt><trkpt lat="46.0849992" lon="11.2784103"><ele>706.0</ele><time>2026-05-03T16:32:40.045Z</time></trkpt><trkpt lat="46.085068" lon="11.2786095"><ele>707.0</ele><time>2026-05-03T16:32:41.045Z</time></trkpt><trkpt lat="46.0851243" lon="11.2787986"><ele>708.0</ele><time>2026-05-03T16:32:42.044Z</time></trkpt><trkpt lat="46.0851663" lon="11.2789674"><ele>709.0</ele><time>2026-05-03T16:32:43.045Z</time></trkpt><trkpt lat="46.0852142" lon="11.2791037"><ele>709.0</ele><time>2026-05-03T16:32:44.045Z</time></trkpt><trkpt lat="46.0852786" lon="11.2791917"><ele>709.0</ele><time>2026-05-03T16:32:45.045Z</time></trkpt><trkpt lat="46.0853521" lon="11.2792212"><ele>709.0</ele><time>2026-05-03T16:32:46.044Z</time></trkpt><trkpt lat="46.0854319" lon="11.2792004"><ele>709.0</ele><time>2026-05-03T16:32:47.045Z</time></trkpt><trkpt lat="46.0854952" lon="11.2791343"><ele>709.0</ele><time>2026-05-03T16:32:48.045Z</time></trkpt><trkpt lat="46.0855446" lon="11.2790401"><ele>709.0</ele><time>2026-05-03T16:32:49.045Z</time></trkpt><trkpt lat="46.0855515" lon="11.2789175"><ele>709.75</ele><time>2026-05-03T16:32:50.045Z</time></trkpt><trkpt lat="46.0855254" lon="11.2787727"><ele>710.5</ele><time>2026-05-03T16:32:51.045Z</time></trkpt><trkpt lat="46.0854938" lon="11.2786203"><ele>711.25</ele><time>2026-05-03T16:32:52.045Z</time></trkpt><trkpt lat="46.0854614" lon="11.2784565"><ele>712.0</ele><time>2026-05-03T16:32:53.045Z</time></trkpt><trkpt lat="46.0854326" lon="11.2782739"><ele>713.75</ele><time>2026-05-03T16:32:54.044Z</time></trkpt><trkpt lat="46.085394" lon="11.2780789"><ele>715.5</ele><time>2026-05-03T16:32:55.045Z</time></trkpt><trkpt lat="46.085358" lon="11.2778782"><ele>717.25</ele><time>2026-05-03T16:32:56.045Z</time></trkpt><trkpt lat="46.0853209" lon="11.2776763"><ele>719.0</ele><time>2026-05-03T16:32:57.045Z</time></trkpt><trkpt lat="46.0852817" lon="11.2774684"><ele>721.25</ele><time>2026-05-03T16:32:58.045Z</time></trkpt><trkpt lat="46.0852394" lon="11.277258"><ele>723.5</ele><time>2026-05-03T16:32:59.044Z</time></trkpt><trkpt lat="46.0851978" lon="11.2770646"><ele>725.75</ele><time>2026-05-03T16:33:00.045Z</time></trkpt><trkpt lat="46.0851618" lon="11.2768904"><ele>728.0</ele><time>2026-05-03T16:33:01.044Z</time></trkpt><trkpt lat="46.0851313" lon="11.2767313"><ele>728.0</ele><time>2026-05-03T16:33:02.043Z</time></trkpt><trkpt lat="46.085112" lon="11.2766001"><ele>728.0</ele><time>2026-05-03T16:33:03.044Z</time></trkpt><trkpt lat="46.0851216" lon="11.2764776"><ele>728.0</ele><time>2026-05-03T16:33:04.043Z</time></trkpt><trkpt lat="46.0851493" lon="11.2763957"><ele>728.0</ele><time>2026-05-03T16:33:05.044Z</time></trkpt><trkpt lat="46.0852107" lon="11.2763351"><ele>728.0</ele><time>2026-05-03T16:33:06.043Z</time></trkpt><trkpt lat="46.08528" lon="11.2763178"><ele>728.0</ele><time>2026-05-03T16:33:07.043Z</time></trkpt><trkpt lat="46.0853546" lon="11.2763444"><ele>728.0</ele><time>2026-05-03T16:33:08.043Z</time></trkpt><trkpt lat="46.085423" lon="11.2764209"><ele>728.0</ele><time>2026-05-03T16:33:09.044Z</time></trkpt><trkpt lat="46.0854879" lon="11.2765293"><ele>728.0</ele><time>2026-05-03T16:33:10.044Z</time></trkpt><trkpt lat="46.0855469" lon="11.2766524"><ele>728.0</ele><time>2026-05-03T16:33:11.044Z</time></trkpt><trkpt lat="46.0856089" lon="11.2767919"><ele>728.0</ele><time>2026-05-03T16:33:12.044Z</time></trkpt><trkpt lat="46.0856787" lon="11.2769544"><ele>731.25</ele><time>2026-05-03T16:33:13.043Z</time></trkpt><trkpt lat="46.0857663" lon="11.2771068"><ele>734.5</ele><time>2026-05-03T16:33:14.044Z</time></trkpt><trkpt lat="46.0858612" lon="11.2772564"><ele>737.75</ele><time>2026-05-03T16:33:15.044Z</time></trkpt><trkpt lat="46.0859653" lon="11.2774009"><ele>741.0</ele><time>2026-05-03T16:33:16.044Z</time></trkpt><trkpt lat="46.0860838" lon="11.2775365"><ele>741.0</ele><time>2026-05-03T16:33:17.044Z</time></trkpt><trkpt lat="46.0862182" lon="11.2776641"><ele>741.0</ele><time>2026-05-03T16:33:18.044Z</time></trkpt><trkpt lat="46.0863631" lon="11.2777804"><ele>741.0</ele><time>2026-05-03T16:33:19.044Z</time></trkpt><trkpt lat="46.0865038" lon="11.2779018"><ele>743.3333333333334</ele><time>2026-05-03T16:33:20.044Z</time></trkpt><trkpt lat="46.0866443" lon="11.2780271"><ele>745.6666666666667</ele><time>2026-05-03T16:33:21.044Z</time></trkpt><trkpt lat="46.0867839" lon="11.2781489"><ele>748.0</ele><time>2026-05-03T16:33:22.043Z</time></trkpt><trkpt lat="46.0869232" lon="11.2782752"><ele>748.0</ele><time>2026-05-03T16:33:23.044Z</time></trkpt><trkpt lat="46.0870655" lon="11.2784042"><ele>748.0</ele><time>2026-05-03T16:33:24.044Z</time></trkpt><trkpt lat="46.0872118" lon="11.2785364"><ele>748.0</ele><time>2026-05-03T16:33:25.044Z</time></trkpt><trkpt lat="46.0873539" lon="11.2786632"><ele>750.3333333333334</ele><time>2026-05-03T16:33:26.044Z</time></trkpt><trkpt lat="46.0874972" lon="11.2787887"><ele>752.6666666666666</ele><time>2026-05-03T16:33:27.044Z</time></trkpt><trkpt lat="46.0876365" lon="11.2789167"><ele>755.0</ele><time>2026-05-03T16:33:28.044Z</time></trkpt><trkpt lat="46.08778" lon="11.2790424"><ele>755.0</ele><time>2026-05-03T16:33:29.044Z</time></trkpt><trkpt lat="46.087923" lon="11.2791639"><ele>755.0</ele><time>2026-05-03T16:33:30.044Z</time></trkpt><trkpt lat="46.0880656" lon="11.2792804"><ele>755.0</ele><time>2026-05-03T16:33:31.043Z</time></trkpt><trkpt lat="46.0882079" lon="11.2794025"><ele>756.6666666666666</ele><time>2026-05-03T16:33:32.043Z</time></trkpt><trkpt lat="46.0883534" lon="11.2795284"><ele>758.3333333333334</ele><time>2026-05-03T16:33:33.044Z</time></trkpt><trkpt lat="46.0884944" lon="11.2796525"><ele>760.0</ele><time>2026-05-03T16:33:34.043Z</time></trkpt><trkpt lat="46.0886332" lon="11.2797818"><ele>760.0</ele><time>2026-05-03T16:33:35.044Z</time></trkpt><trkpt lat="46.08877" lon="11.2799055"><ele>760.0</ele><time>2026-05-03T16:33:36.043Z</time></trkpt><trkpt lat="46.08891" lon="11.2800227"><ele>760.0</ele><time>2026-05-03T16:33:37.044Z</time></trkpt><trkpt lat="46.0890423" lon="11.2801373"><ele>764.6666666666667</ele><time>2026-05-03T16:33:38.044Z</time></trkpt><trkpt lat="46.0891739" lon="11.2802541"><ele>769.3333333333334</ele><time>2026-05-03T16:33:39.044Z</time></trkpt><trkpt lat="46.0893051" lon="11.2803729"><ele>774.0</ele><time>2026-05-03T16:33:40.043Z</time></trkpt><trkpt lat="46.0894319" lon="11.2804924"><ele>769.3333333333334</ele><time>2026-05-03T16:33:41.044Z</time></trkpt><trkpt lat="46.089565" lon="11.2806147"><ele>764.6666666666667</ele><time>2026-05-03T16:33:42.044Z</time></trkpt><trkpt lat="46.0896982" lon="11.2807303"><ele>760.0</ele><time>2026-05-03T16:33:43.043Z</time></trkpt><trkpt lat="46.0898262" lon="11.2808428"><ele>766.3333333333334</ele><time>2026-05-03T16:33:44.044Z</time></trkpt><trkpt lat="46.0899599" lon="11.280961"><ele>772.6666666666667</ele><time>2026-05-03T16:33:45.044Z</time></trkpt><trkpt lat="46.0900865" lon="11.2810807"><ele>779.0</ele><time>2026-05-03T16:33:46.044Z</time></trkpt><trkpt lat="46.0902184" lon="11.2811905"><ele>779.0</ele><time>2026-05-03T16:33:47.044Z</time></trkpt><trkpt lat="46.0903539" lon="11.2813021"><ele>779.0</ele><time>2026-05-03T16:33:48.044Z</time></trkpt><trkpt lat="46.0904983" lon="11.2814077"><ele>779.0</ele><time>2026-05-03T16:33:49.043Z</time></trkpt><trkpt lat="46.0906381" lon="11.2815071"><ele>782.6666666666667</ele><time>2026-05-03T16:33:50.043Z</time></trkpt><trkpt lat="46.0907817" lon="11.2816043"><ele>786.3333333333333</ele><time>2026-05-03T16:33:51.044Z</time></trkpt><trkpt lat="46.0909251" lon="11.2816906"><ele>790.0</ele><time>2026-05-03T16:33:52.043Z</time></trkpt><trkpt lat="46.0910673" lon="11.2817858"><ele>790.0</ele><time>2026-05-03T16:33:53.044Z</time></trkpt><trkpt lat="46.0912113" lon="11.2818854"><ele>790.0</ele><time>2026-05-03T16:33:54.043Z</time></trkpt><trkpt lat="46.0913504" lon="11.2819812"><ele>790.0</ele><time>2026-05-03T16:33:55.043Z</time></trkpt><trkpt lat="46.0914905" lon="11.2820816"><ele>791.0</ele><time>2026-05-03T16:33:56.044Z</time></trkpt><trkpt lat="46.091631" lon="11.282177"><ele>792.0</ele><time>2026-05-03T16:33:57.044Z</time></trkpt><trkpt lat="46.0917676" lon="11.2822689"><ele>793.0</ele><time>2026-05-03T16:33:58.044Z</time></trkpt><trkpt lat="46.0919033" lon="11.2823624"><ele>793.0</ele><time>2026-05-03T16:33:59.043Z</time></trkpt><trkpt lat="46.0920379" lon="11.2824619"><ele>793.0</ele><time>2026-05-03T16:34:00.043Z</time></trkpt><trkpt lat="46.0921783" lon="11.282559"><ele>793.0</ele><time>2026-05-03T16:34:01.044Z</time></trkpt><trkpt lat="46.0923145" lon="11.2826498"><ele>797.6666666666666</ele><time>2026-05-03T16:34:02.044Z</time></trkpt><trkpt lat="46.0924574" lon="11.282736"><ele>802.3333333333333</ele><time>2026-05-03T16:34:03.044Z</time></trkpt><trkpt lat="46.0926078" lon="11.2828267"><ele>807.0</ele><time>2026-05-03T16:34:04.044Z</time></trkpt><trkpt lat="46.0927502" lon="11.282903"><ele>807.0</ele><time>2026-05-03T16:34:05.043Z</time></trkpt><trkpt lat="46.0929076" lon="11.2829344"><ele>807.0</ele><time>2026-05-03T16:34:06.044Z</time></trkpt><trkpt lat="46.0930553" lon="11.2829391"><ele>807.0</ele><time>2026-05-03T16:34:07.044Z</time></trkpt><trkpt lat="46.0932087" lon="11.2829436"><ele>811.0</ele><time>2026-05-03T16:34:08.044Z</time></trkpt><trkpt lat="46.0933532" lon="11.2829636"><ele>815.0</ele><time>2026-05-03T16:34:09.044Z</time></trkpt><trkpt lat="46.0934937" lon="11.2829706"><ele>819.0</ele><time>2026-05-03T16:34:10.044Z</time></trkpt><trkpt lat="46.0936206" lon="11.2829919"><ele>823.0</ele><time>2026-05-03T16:34:11.044Z</time></trkpt><trkpt lat="46.0937482" lon="11.2830206"><ele>823.0</ele><time>2026-05-03T16:34:12.044Z</time></trkpt><trkpt lat="46.0938537" lon="11.2830891"><ele>823.0</ele><time>2026-05-03T16:34:13.044Z</time></trkpt><trkpt lat="46.0939188" lon="11.2831913"><ele>823.0</ele><time>2026-05-03T16:34:14.043Z</time></trkpt><trkpt lat="46.0939725" lon="11.2833319"><ele>823.0</ele><time>2026-05-03T16:34:15.043Z</time></trkpt><trkpt lat="46.0940006" lon="11.2834848"><ele>823.0</ele><time>2026-05-03T16:34:16.044Z</time></trkpt><trkpt lat="46.0940073" lon="11.2836497"><ele>819.75</ele><time>2026-05-03T16:34:17.044Z</time></trkpt><trkpt lat="46.0940021" lon="11.2838154"><ele>816.5</ele><time>2026-05-03T16:34:18.043Z</time></trkpt><trkpt lat="46.0939819" lon="11.283989"><ele>813.25</ele><time>2026-05-03T16:34:19.044Z</time></trkpt><trkpt lat="46.0939639" lon="11.2841619"><ele>810.0</ele><time>2026-05-03T16:34:20.044Z</time></trkpt><trkpt lat="46.0939477" lon="11.2843385"><ele>808.75</ele><time>2026-05-03T16:34:21.044Z</time></trkpt><trkpt lat="46.0939378" lon="11.2845185"><ele>807.5</ele><time>2026-05-03T16:34:22.044Z</time></trkpt><trkpt lat="46.0939379" lon="11.2847059"><ele>806.25</ele><time>2026-05-03T16:34:23.043Z</time></trkpt><trkpt lat="46.093947" lon="11.2848938"><ele>805.0</ele><time>2026-05-03T16:34:24.044Z</time></trkpt><trkpt lat="46.0939697" lon="11.2850892"><ele>804.75</ele><time>2026-05-03T16:34:25.044Z</time></trkpt><trkpt lat="46.0940072" lon="11.2852764"><ele>804.5</ele><time>2026-05-03T16:34:26.044Z</time></trkpt><trkpt lat="46.0940643" lon="11.2854667"><ele>804.25</ele><time>2026-05-03T16:34:27.043Z</time></trkpt><trkpt lat="46.0941375" lon="11.2856418"><ele>804.0</ele><time>2026-05-03T16:34:28.044Z</time></trkpt><trkpt lat="46.0942234" lon="11.2858051"><ele>808.75</ele><time>2026-05-03T16:34:29.043Z</time></trkpt><trkpt lat="46.0943254" lon="11.2859618"><ele>813.5</ele><time>2026-05-03T16:34:30.043Z</time></trkpt><trkpt lat="46.0944287" lon="11.2861123"><ele>818.25</ele><time>2026-05-03T16:34:31.043Z</time></trkpt><trkpt lat="46.0945273" lon="11.286255"><ele>823.0</ele><time>2026-05-03T16:34:32.043Z</time></trkpt><trkpt lat="46.0946249" lon="11.2863906"><ele>819.75</ele><time>2026-05-03T16:34:33.044Z</time></trkpt><trkpt lat="46.0947203" lon="11.2865324"><ele>816.5</ele><time>2026-05-03T16:34:34.043Z</time></trkpt><trkpt lat="46.0948037" lon="11.2866794"><ele>813.25</ele><time>2026-05-03T16:34:35.044Z</time></trkpt><trkpt lat="46.0948659" lon="11.2868425"><ele>810.0</ele><time>2026-05-03T16:34:36.043Z</time></trkpt><trkpt lat="46.0949149" lon="11.2870144"><ele>815.25</ele><time>2026-05-03T16:34:37.043Z</time></trkpt><trkpt lat="46.0949423" lon="11.2871961"><ele>820.5</ele><time>2026-05-03T16:34:38.044Z</time></trkpt><trkpt lat="46.0949692" lon="11.2873763"><ele>825.75</ele><time>2026-05-03T16:34:39.044Z</time></trkpt><trkpt lat="46.0949957" lon="11.287555"><ele>831.0</ele><time>2026-05-03T16:34:40.044Z</time></trkpt><trkpt lat="46.0950237" lon="11.2877425"><ele>831.0</ele><time>2026-05-03T16:34:41.043Z</time></trkpt><trkpt lat="46.0950559" lon="11.2879356"><ele>831.0</ele><time>2026-05-03T16:34:42.044Z</time></trkpt><trkpt lat="46.0950953" lon="11.2881273"><ele>831.0</ele><time>2026-05-03T16:34:43.044Z</time></trkpt><trkpt lat="46.0951509" lon="11.2883159"><ele>831.0</ele><time>2026-05-03T16:34:44.044Z</time></trkpt><trkpt lat="46.0952272" lon="11.2884908"><ele>829.5</ele><time>2026-05-03T16:34:45.043Z</time></trkpt><trkpt lat="46.0953186" lon="11.2886456"><ele>828.0</ele><time>2026-05-03T16:34:46.044Z</time></trkpt><trkpt lat="46.0954079" lon="11.2887843"><ele>826.5</ele><time>2026-05-03T16:34:47.044Z</time></trkpt><trkpt lat="46.0954875" lon="11.2889028"><ele>825.0</ele><time>2026-05-03T16:34:48.043Z</time></trkpt><trkpt lat="46.0955629" lon="11.2889939"><ele>823.5</ele><time>2026-05-03T16:34:49.044Z</time></trkpt><trkpt lat="46.0956208" lon="11.289069"><ele>822.0</ele><time>2026-05-03T16:34:50.044Z</time></trkpt><trkpt lat="46.0956749" lon="11.2891358"><ele>820.5</ele><time>2026-05-03T16:34:51.043Z</time></trkpt><trkpt lat="46.095728" lon="11.2892093"><ele>819.0</ele><time>2026-05-03T16:34:52.043Z</time></trkpt><trkpt lat="46.0957801" lon="11.2892778"><ele>817.5</ele><time>2026-05-03T16:34:53.044Z</time></trkpt><trkpt lat="46.0958348" lon="11.2893601"><ele>816.0</ele><time>2026-05-03T16:34:54.044Z</time></trkpt><trkpt lat="46.0959008" lon="11.2894516"><ele>819.4</ele><time>2026-05-03T16:34:55.044Z</time></trkpt><trkpt lat="46.0959735" lon="11.2895471"><ele>822.8</ele><time>2026-05-03T16:34:56.044Z</time></trkpt><trkpt lat="46.0960534" lon="11.2896449"><ele>826.1999999999999</ele><time>2026-05-03T16:34:57.043Z</time></trkpt><trkpt lat="46.0961366" lon="11.2897563"><ele>829.5999999999999</ele><time>2026-05-03T16:34:58.044Z</time></trkpt><trkpt lat="46.0962247" lon="11.2898728"><ele>833.0</ele><time>2026-05-03T16:34:59.043Z</time></trkpt><trkpt lat="46.0963044" lon="11.2900051"><ele>833.0</ele><time>2026-05-03T16:35:00.044Z</time></trkpt><trkpt lat="46.0963821" lon="11.290146"><ele>833.0</ele><time>2026-05-03T16:35:01.044Z</time></trkpt><trkpt lat="46.0964584" lon="11.290299"><ele>833.0</ele><time>2026-05-03T16:35:02.044Z</time></trkpt><trkpt lat="46.0965316" lon="11.2904662"><ele>833.0</ele><time>2026-05-03T16:35:03.044Z</time></trkpt><trkpt lat="46.0966095" lon="11.2906386"><ele>840.3333333333334</ele><time>2026-05-03T16:35:04.044Z</time></trkpt><trkpt lat="46.0966849" lon="11.2908204"><ele>847.6666666666667</ele><time>2026-05-03T16:35:05.044Z</time></trkpt><trkpt lat="46.0967635" lon="11.2910058"><ele>855.0</ele><time>2026-05-03T16:35:06.043Z</time></trkpt><trkpt lat="46.0968493" lon="11.2911945"><ele>855.0</ele><time>2026-05-03T16:35:07.044Z</time></trkpt><trkpt lat="46.0969312" lon="11.2913768"><ele>855.0</ele><time>2026-05-03T16:35:08.044Z</time></trkpt><trkpt lat="46.0970178" lon="11.2915707"><ele>855.0</ele><time>2026-05-03T16:35:09.044Z</time></trkpt><trkpt lat="46.0971128" lon="11.2917715"><ele>849.6666666666667</ele><time>2026-05-03T16:35:10.044Z</time></trkpt><trkpt lat="46.0972098" lon="11.2919766"><ele>844.3333333333334</ele><time>2026-05-03T16:35:11.043Z</time></trkpt><trkpt lat="46.0973085" lon="11.2921876"><ele>839.0</ele><time>2026-05-03T16:35:12.044Z</time></trkpt><trkpt lat="46.0974086" lon="11.292406"><ele>843.0</ele><time>2026-05-03T16:35:13.043Z</time></trkpt><trkpt lat="46.0975071" lon="11.2926382"><ele>847.0</ele><time>2026-05-03T16:35:14.043Z</time></trkpt><trkpt lat="46.0976111" lon="11.2928585"><ele>851.0</ele><time>2026-05-03T16:35:15.044Z</time></trkpt><trkpt lat="46.0977268" lon="11.2930686"><ele>847.3333333333334</ele><time>2026-05-03T16:35:16.044Z</time></trkpt><trkpt lat="46.0978546" lon="11.2932681"><ele>843.6666666666667</ele><time>2026-05-03T16:35:17.044Z</time></trkpt><trkpt lat="46.0979881" lon="11.2934598"><ele>840.0</ele><time>2026-05-03T16:35:18.043Z</time></trkpt><trkpt lat="46.0981254" lon="11.2936522"><ele>843.6666666666667</ele><time>2026-05-03T16:35:19.044Z</time></trkpt><trkpt lat="46.0982664" lon="11.2938445"><ele>847.3333333333334</ele><time>2026-05-03T16:35:20.043Z</time></trkpt><trkpt lat="46.0984048" lon="11.2940401"><ele>851.0</ele><time>2026-05-03T16:35:21.044Z</time></trkpt><trkpt lat="46.098542" lon="11.294239"><ele>851.0</ele><time>2026-05-03T16:35:22.044Z</time></trkpt><trkpt lat="46.0986819" lon="11.2944507"><ele>851.0</ele><time>2026-05-03T16:35:23.044Z</time></trkpt><trkpt lat="46.0988293" lon="11.2946537"><ele>851.0</ele><time>2026-05-03T16:35:24.044Z</time></trkpt><trkpt lat="46.0989825" lon="11.2948598"><ele>852.6666666666667</ele><time>2026-05-03T16:35:25.043Z</time></trkpt><trkpt lat="46.0991361" lon="11.2950749"><ele>854.3333333333333</ele><time>2026-05-03T16:35:26.044Z</time></trkpt><trkpt lat="46.0992856" lon="11.2952904"><ele>856.0</ele><time>2026-05-03T16:35:27.044Z</time></trkpt><trkpt lat="46.0994426" lon="11.2954903"><ele>853.3333333333333</ele><time>2026-05-03T16:35:28.044Z</time></trkpt><trkpt lat="46.0996078" lon="11.2956729"><ele>850.6666666666667</ele><time>2026-05-03T16:35:29.044Z</time></trkpt><trkpt lat="46.0997803" lon="11.2958502"><ele>848.0</ele><time>2026-05-03T16:35:30.044Z</time></trkpt><trkpt lat="46.0999534" lon="11.2960263"><ele>850.6666666666667</ele><time>2026-05-03T16:35:31.044Z</time></trkpt><trkpt lat="46.1001235" lon="11.2961971"><ele>853.3333333333333</ele><time>2026-05-03T16:35:32.043Z</time></trkpt><trkpt lat="46.1002888" lon="11.2963702"><ele>856.0</ele><time>2026-05-03T16:35:33.044Z</time></trkpt><trkpt lat="46.1004576" lon="11.2965367"><ele>856.0</ele><time>2026-05-03T16:35:34.043Z</time></trkpt><trkpt lat="46.1006302" lon="11.2967059"><ele>856.0</ele><time>2026-05-03T16:35:35.043Z</time></trkpt><trkpt lat="46.1007956" lon="11.2968764"><ele>856.0</ele><time>2026-05-03T16:35:36.044Z</time></trkpt><trkpt lat="46.1009606" lon="11.2970433"><ele>857.6666666666666</ele><time>2026-05-03T16:35:37.044Z</time></trkpt><trkpt lat="46.1011225" lon="11.2972183"><ele>859.3333333333333</ele><time>2026-05-03T16:35:38.044Z</time></trkpt><trkpt lat="46.1012843" lon="11.2973893"><ele>861.0</ele><time>2026-05-03T16:35:39.043Z</time></trkpt><trkpt lat="46.1014498" lon="11.2975539"><ele>867.0</ele><time>2026-05-03T16:35:40.044Z</time></trkpt><trkpt lat="46.1016228" lon="11.2977012"><ele>873.0</ele><time>2026-05-03T16:35:41.044Z</time></trkpt><trkpt lat="46.1018076" lon="11.2978317"><ele>879.0</ele><time>2026-05-03T16:35:42.043Z</time></trkpt><trkpt lat="46.1019921" lon="11.2979395"><ele>879.0</ele><time>2026-05-03T16:35:43.043Z</time></trkpt><trkpt lat="46.1021771" lon="11.2980442"><ele>879.0</ele><time>2026-05-03T16:35:44.044Z</time></trkpt><trkpt lat="46.102357" lon="11.2981511"><ele>879.0</ele><time>2026-05-03T16:35:45.044Z</time></trkpt><trkpt lat="46.1025375" lon="11.2982544"><ele>881.0</ele><time>2026-05-03T16:35:46.043Z</time></trkpt><trkpt lat="46.1027108" lon="11.2983588"><ele>883.0</ele><time>2026-05-03T16:35:47.043Z</time></trkpt><trkpt lat="46.1028814" lon="11.2984627"><ele>885.0</ele><time>2026-05-03T16:35:48.044Z</time></trkpt><trkpt lat="46.103057" lon="11.2985675"><ele>885.0</ele><time>2026-05-03T16:35:49.043Z</time></trkpt><trkpt lat="46.1032274" lon="11.2986713"><ele>885.0</ele><time>2026-05-03T16:35:50.044Z</time></trkpt><trkpt lat="46.103399" lon="11.2987768"><ele>885.0</ele><time>2026-05-03T16:35:51.044Z</time></trkpt><trkpt lat="46.1035677" lon="11.2988781"><ele>886.3333333333333</ele><time>2026-05-03T16:35:52.044Z</time></trkpt><trkpt lat="46.10374" lon="11.2989808"><ele>887.6666666666666</ele><time>2026-05-03T16:35:53.044Z</time></trkpt><trkpt lat="46.1039083" lon="11.2990864"><ele>889.0</ele><time>2026-05-03T16:35:54.043Z</time></trkpt><trkpt lat="46.1040766" lon="11.2991909"><ele>893.3333333333333</ele><time>2026-05-03T16:35:55.044Z</time></trkpt><trkpt lat="46.1042455" lon="11.2992926"><ele>897.6666666666667</ele><time>2026-05-03T16:35:56.044Z</time></trkpt><trkpt lat="46.1044128" lon="11.2993982"><ele>902.0</ele><time>2026-05-03T16:35:57.044Z</time></trkpt><trkpt lat="46.1045804" lon="11.2995003"><ele>902.0</ele><time>2026-05-03T16:35:58.044Z</time></trkpt><trkpt lat="46.1047482" lon="11.2995957"><ele>902.0</ele><time>2026-05-03T16:35:59.044Z</time></trkpt><trkpt lat="46.1049151" lon="11.2996974"><ele>902.0</ele><time>2026-05-03T16:36:00.044Z</time></trkpt><trkpt lat="46.1050821" lon="11.2997991"><ele>904.0</ele><time>2026-05-03T16:36:01.043Z</time></trkpt><trkpt lat="46.1052436" lon="11.299897"><ele>906.0</ele><time>2026-05-03T16:36:02.044Z</time></trkpt><trkpt lat="46.1053998" lon="11.2999938"><ele>908.0</ele><time>2026-05-03T16:36:03.043Z</time></trkpt><trkpt lat="46.1055481" lon="11.300093"><ele>908.0</ele><time>2026-05-03T16:36:04.044Z</time></trkpt><trkpt lat="46.1057016" lon="11.3001916"><ele>908.0</ele><time>2026-05-03T16:36:05.044Z</time></trkpt><trkpt lat="46.1058543" lon="11.3002674"><ele>908.0</ele><time>2026-05-03T16:36:06.043Z</time></trkpt><trkpt lat="46.1060133" lon="11.3003121"><ele>912.6666666666667</ele><time>2026-05-03T16:36:07.043Z</time></trkpt><trkpt lat="46.1061707" lon="11.3003191"><ele>917.3333333333333</ele><time>2026-05-03T16:36:08.044Z</time></trkpt><trkpt lat="46.1063276" lon="11.3002898"><ele>922.0</ele><time>2026-05-03T16:36:09.044Z</time></trkpt><trkpt lat="46.1064782" lon="11.3002356"><ele>923.75</ele><time>2026-05-03T16:36:10.044Z</time></trkpt><trkpt lat="46.1066212" lon="11.3001618"><ele>925.5</ele><time>2026-05-03T16:36:11.043Z</time></trkpt><trkpt lat="46.1067575" lon="11.3000774"><ele>927.25</ele><time>2026-05-03T16:36:12.043Z</time></trkpt><trkpt lat="46.1068862" lon="11.2999903"><ele>929.0</ele><time>2026-05-03T16:36:13.044Z</time></trkpt><trkpt lat="46.1070137" lon="11.2999123"><ele>929.0</ele><time>2026-05-03T16:36:14.043Z</time></trkpt><trkpt lat="46.1071408" lon="11.2998805"><ele>929.0</ele><time>2026-05-03T16:36:15.043Z</time></trkpt><trkpt lat="46.1072733" lon="11.2998931"><ele>929.0</ele><time>2026-05-03T16:36:16.044Z</time></trkpt><trkpt lat="46.1073957" lon="11.2999343"><ele>929.0</ele><time>2026-05-03T16:36:17.043Z</time></trkpt><trkpt lat="46.1075128" lon="11.3000185"><ele>928.5</ele><time>2026-05-03T16:36:18.044Z</time></trkpt><trkpt lat="46.1076097" lon="11.3001295"><ele>928.0</ele><time>2026-05-03T16:36:19.044Z</time></trkpt><trkpt lat="46.10769" lon="11.3002705"><ele>927.5</ele><time>2026-05-03T16:36:20.043Z</time></trkpt><trkpt lat="46.1077401" lon="11.3004332"><ele>927.0</ele><time>2026-05-03T16:36:21.044Z</time></trkpt><trkpt lat="46.1077697" lon="11.3006051"><ele>927.0</ele><time>2026-05-03T16:36:22.043Z</time></trkpt><trkpt lat="46.1077802" lon="11.3007813"><ele>927.0</ele><time>2026-05-03T16:36:23.044Z</time></trkpt><trkpt lat="46.1077739" lon="11.3009509"><ele>927.0</ele><time>2026-05-03T16:36:24.044Z</time></trkpt><trkpt lat="46.1077548" lon="11.30111"><ele>927.0</ele><time>2026-05-03T16:36:25.043Z</time></trkpt><trkpt lat="46.1077309" lon="11.3012537"><ele>927.0</ele><time>2026-05-03T16:36:26.044Z</time></trkpt><trkpt lat="46.1077124" lon="11.3013939"><ele>927.0</ele><time>2026-05-03T16:36:27.044Z</time></trkpt><trkpt lat="46.1076986" lon="11.3015319"><ele>927.0</ele><time>2026-05-03T16:36:28.043Z</time></trkpt><trkpt lat="46.1076899" lon="11.3016633"><ele>927.0</ele><time>2026-05-03T16:36:29.044Z</time></trkpt><trkpt lat="46.1076917" lon="11.301782"><ele>927.0</ele><time>2026-05-03T16:36:30.044Z</time></trkpt><trkpt lat="46.107715" lon="11.3018939"><ele>928.8</ele><time>2026-05-03T16:36:31.044Z</time></trkpt><trkpt lat="46.107765" lon="11.3019948"><ele>930.6</ele><time>2026-05-03T16:36:32.044Z</time></trkpt><trkpt lat="46.1078159" lon="11.3020931"><ele>932.3999999999999</ele><time>2026-05-03T16:36:33.044Z</time></trkpt><trkpt lat="46.1078708" lon="11.3021903"><ele>934.1999999999999</ele><time>2026-05-03T16:36:34.044Z</time></trkpt><trkpt lat="46.1079273" lon="11.302297"><ele>936.0</ele><time>2026-05-03T16:36:35.044Z</time></trkpt><trkpt lat="46.1079961" lon="11.3023988"><ele>936.0</ele><time>2026-05-03T16:36:36.044Z</time></trkpt><trkpt lat="46.108078" lon="11.3024959"><ele>935.9999999999999</ele><time>2026-05-03T16:36:37.043Z</time></trkpt><trkpt lat="46.1081655" lon="11.3025783"><ele>935.9999999999999</ele><time>2026-05-03T16:36:38.044Z</time></trkpt><trkpt lat="46.1082551" lon="11.3026606"><ele>936.0</ele><time>2026-05-03T16:36:39.043Z</time></trkpt><trkpt lat="46.1083445" lon="11.3027498"><ele>936.0</ele><time>2026-05-03T16:36:40.044Z</time></trkpt><trkpt lat="46.1084367" lon="11.3028393"><ele>936.4</ele><time>2026-05-03T16:36:41.044Z</time></trkpt><trkpt lat="46.108525" lon="11.3029324"><ele>936.8</ele><time>2026-05-03T16:36:42.044Z</time></trkpt><trkpt lat="46.1086086" lon="11.3030237"><ele>937.1999999999999</ele><time>2026-05-03T16:36:43.044Z</time></trkpt><trkpt lat="46.1086937" lon="11.3031025"><ele>937.5999999999999</ele><time>2026-05-03T16:36:44.044Z</time></trkpt><trkpt lat="46.1087721" lon="11.3031717"><ele>938.0</ele><time>2026-05-03T16:36:45.043Z</time></trkpt><trkpt lat="46.1088475" lon="11.3032358"><ele>938.0000000000001</ele><time>2026-05-03T16:36:46.044Z</time></trkpt><trkpt lat="46.108914" lon="11.3032885"><ele>938.0</ele><time>2026-05-03T16:36:47.044Z</time></trkpt><trkpt lat="46.1089799" lon="11.3033299"><ele>938.0</ele><time>2026-05-03T16:36:48.043Z</time></trkpt><trkpt lat="46.1090728" lon="11.3033475"><ele>938.0</ele><time>2026-05-03T16:36:50.044Z</time></trkpt><trkpt lat="46.1091362" lon="11.3032548"><ele>938.0000000000001</ele><time>2026-05-03T16:36:52.044Z</time></trkpt><trkpt lat="46.1091804" lon="11.3031892"><ele>938.0</ele><time>2026-05-03T16:36:54.043Z</time></trkpt><trkpt lat="46.1092514" lon="11.3031121"><ele>946.0</ele><time>2026-05-03T16:36:57.044Z</time></trkpt></trkseg></trk></gpx>